<?xml version='1.0' encoding='UTF-8'?><gpx version="1.1" creator="JPX - https://github.com/jenetics/jpx" xmlns="http://www.topografix.com/GPX/1/1"><trk><trkseg><trkpt lat="37.9684405" lon="13.8087386"><ele>14.000000000000002</ele><time>2026-04-28T14:24:17.862Z</time></trkpt><trkpt lat="37.9683751" lon="13.8087764"><ele>14.0</ele><time>2026-04-28T14:24:18.862Z</time></trkpt><trkpt lat="37.968307" lon="13.8088016"><ele>14.0</ele><time>2026-04-28T14:24:19.862Z</time></trkpt><trkpt lat="37.9682004" lon="13.8088212"><ele>14.0</ele><time>2026-04-28T14:24:21.862Z</time></trkpt><trkpt lat="37.9681361" lon="13.8087932"><ele>14.000000000000002</ele><time>2026-04-28T14:24:23.862Z</time></trkpt><trkpt lat="37.9680778" lon="13.8087545"><ele>14.0</ele><time>2026-04-28T14:24:25.862Z</time></trkpt><trkpt lat="37.9680122" lon="13.8086531"><ele>14.399999999999999</ele><time>2026-04-28T14:24:27.862Z</time></trkpt><trkpt lat="37.9679552" lon="13.8085197"><ele>14.799999999999999</ele><time>2026-04-28T14:24:29.862Z</time></trkpt><trkpt lat="37.9679185" lon="13.8084425"><ele>15.200000000000001</ele><time>2026-04-28T14:24:30.862Z</time></trkpt><trkpt lat="37.9678778" lon="13.8083406"><ele>15.600000000000001</ele><time>2026-04-28T14:24:31.862Z</time></trkpt><trkpt lat="37.9678329" lon="13.808226"><ele>16.0</ele><time>2026-04-28T14:24:32.862Z</time></trkpt><trkpt lat="37.9677872" lon="13.8081068"><ele>16.0</ele><time>2026-04-28T14:24:33.862Z</time></trkpt><trkpt lat="37.9677357" lon="13.8079888"><ele>16.0</ele><time>2026-04-28T14:24:34.862Z</time></trkpt><trkpt lat="37.9676813" lon="13.8078654"><ele>16.0</ele><time>2026-04-28T14:24:35.862Z</time></trkpt><trkpt lat="37.9676266" lon="13.8077288"><ele>16.0</ele><time>2026-04-28T14:24:36.862Z</time></trkpt><trkpt lat="37.9675662" lon="13.8075846"><ele>17.0</ele><time>2026-04-28T14:24:37.862Z</time></trkpt><trkpt lat="37.9675009" lon="13.8074342"><ele>18.0</ele><time>2026-04-28T14:24:38.862Z</time></trkpt><trkpt lat="37.9674321" lon="13.8072799"><ele>19.0</ele><time>2026-04-28T14:24:39.862Z</time></trkpt><trkpt lat="37.9673589" lon="13.8071224"><ele>20.0</ele><time>2026-04-28T14:24:40.862Z</time></trkpt><trkpt lat="37.9672826" lon="13.806956"><ele>19.333333333333336</ele><time>2026-04-28T14:24:41.862Z</time></trkpt><trkpt lat="37.9671996" lon="13.8067831"><ele>18.666666666666668</ele><time>2026-04-28T14:24:42.862Z</time></trkpt><trkpt lat="37.9671111" lon="13.8066026"><ele>18.0</ele><time>2026-04-28T14:24:43.862Z</time></trkpt><trkpt lat="37.9670188" lon="13.8064109"><ele>18.0</ele><time>2026-04-28T14:24:44.862Z</time></trkpt><trkpt lat="37.9669235" lon="13.8062099"><ele>18.0</ele><time>2026-04-28T14:24:45.862Z</time></trkpt><trkpt lat="37.9668247" lon="13.8060089"><ele>18.0</ele><time>2026-04-28T14:24:46.862Z</time></trkpt><trkpt lat="37.9667262" lon="13.805805"><ele>19.0</ele><time>2026-04-28T14:24:47.862Z</time></trkpt><trkpt lat="37.9666264" lon="13.8056091"><ele>20.0</ele><time>2026-04-28T14:24:48.862Z</time></trkpt><trkpt lat="37.9665341" lon="13.8054268"><ele>21.0</ele><time>2026-04-28T14:24:49.862Z</time></trkpt><trkpt lat="37.9664461" lon="13.8052476"><ele>20.333333333333332</ele><time>2026-04-28T14:24:50.862Z</time></trkpt><trkpt lat="37.9663621" lon="13.8050742"><ele>19.666666666666664</ele><time>2026-04-28T14:24:51.862Z</time></trkpt><trkpt lat="37.9662721" lon="13.8049027"><ele>19.0</ele><time>2026-04-28T14:24:52.862Z</time></trkpt><trkpt lat="37.966172" lon="13.8047166"><ele>19.0</ele><time>2026-04-28T14:24:53.862Z</time></trkpt><trkpt lat="37.9660654" lon="13.8045006"><ele>19.0</ele><time>2026-04-28T14:24:54.862Z</time></trkpt><trkpt lat="37.9659641" lon="13.8042806"><ele>19.0</ele><time>2026-04-28T14:24:55.862Z</time></trkpt><trkpt lat="37.965864" lon="13.804063"><ele>19.333333333333332</ele><time>2026-04-28T14:24:56.862Z</time></trkpt><trkpt lat="37.9657782" lon="13.8038469"><ele>19.666666666666668</ele><time>2026-04-28T14:24:57.862Z</time></trkpt><trkpt lat="37.965701" lon="13.8036246"><ele>20.0</ele><time>2026-04-28T14:24:58.862Z</time></trkpt><trkpt lat="37.9656303" lon="13.8034049"><ele>20.0</ele><time>2026-04-28T14:24:59.862Z</time></trkpt><trkpt lat="37.9655652" lon="13.8031788"><ele>20.0</ele><time>2026-04-28T14:25:00.862Z</time></trkpt><trkpt lat="37.9655104" lon="13.802944"><ele>20.0</ele><time>2026-04-28T14:25:01.862Z</time></trkpt><trkpt lat="37.9654659" lon="13.8027135"><ele>19.0</ele><time>2026-04-28T14:25:02.862Z</time></trkpt><trkpt lat="37.9654315" lon="13.8024798"><ele>18.0</ele><time>2026-04-28T14:25:03.862Z</time></trkpt><trkpt lat="37.9654106" lon="13.8022374"><ele>17.0</ele><time>2026-04-28T14:25:04.862Z</time></trkpt><trkpt lat="37.9654051" lon="13.8020005"><ele>16.666666666666668</ele><time>2026-04-28T14:25:05.862Z</time></trkpt><trkpt lat="37.9654002" lon="13.8017633"><ele>16.333333333333332</ele><time>2026-04-28T14:25:06.862Z</time></trkpt><trkpt lat="37.9653983" lon="13.8015285"><ele>16.0</ele><time>2026-04-28T14:25:07.862Z</time></trkpt><trkpt lat="37.9654015" lon="13.8012932"><ele>16.0</ele><time>2026-04-28T14:25:08.862Z</time></trkpt><trkpt lat="37.9653977" lon="13.8010646"><ele>16.0</ele><time>2026-04-28T14:25:09.862Z</time></trkpt><trkpt lat="37.9653955" lon="13.8008342"><ele>16.0</ele><time>2026-04-28T14:25:10.862Z</time></trkpt><trkpt lat="37.9653829" lon="13.8006095"><ele>16.333333333333332</ele><time>2026-04-28T14:25:11.862Z</time></trkpt><trkpt lat="37.9653556" lon="13.800386"><ele>16.666666666666668</ele><time>2026-04-28T14:25:12.862Z</time></trkpt><trkpt lat="37.9653123" lon="13.8001697"><ele>17.0</ele><time>2026-04-28T14:25:13.862Z</time></trkpt><trkpt lat="37.9652457" lon="13.7999624"><ele>17.0</ele><time>2026-04-28T14:25:14.862Z</time></trkpt><trkpt lat="37.9651662" lon="13.7997558"><ele>17.0</ele><time>2026-04-28T14:25:15.862Z</time></trkpt><trkpt lat="37.9650731" lon="13.7995766"><ele>17.0</ele><time>2026-04-28T14:25:16.862Z</time></trkpt><trkpt lat="37.9649711" lon="13.799416"><ele>18.666666666666668</ele><time>2026-04-28T14:25:17.862Z</time></trkpt><trkpt lat="37.9648599" lon="13.7992658"><ele>20.333333333333332</ele><time>2026-04-28T14:25:18.862Z</time></trkpt><trkpt lat="37.9647473" lon="13.7991151"><ele>22.0</ele><time>2026-04-28T14:25:19.862Z</time></trkpt><trkpt lat="37.9646299" lon="13.7989653"><ele>22.0</ele><time>2026-04-28T14:25:20.862Z</time></trkpt><trkpt lat="37.9645171" lon="13.7988118"><ele>22.0</ele><time>2026-04-28T14:25:21.862Z</time></trkpt><trkpt lat="37.9644189" lon="13.7986509"><ele>22.0</ele><time>2026-04-28T14:25:22.862Z</time></trkpt><trkpt lat="37.9643324" lon="13.7984799"><ele>21.0</ele><time>2026-04-28T14:25:23.862Z</time></trkpt><trkpt lat="37.9642722" lon="13.7982967"><ele>20.0</ele><time>2026-04-28T14:25:24.862Z</time></trkpt><trkpt lat="37.9642313" lon="13.7981106"><ele>19.0</ele><time>2026-04-28T14:25:25.862Z</time></trkpt><trkpt lat="37.9642164" lon="13.7979298"><ele>19.0</ele><time>2026-04-28T14:25:26.862Z</time></trkpt><trkpt lat="37.9642326" lon="13.7977639"><ele>19.0</ele><time>2026-04-28T14:25:27.862Z</time></trkpt><trkpt lat="37.9642746" lon="13.7976021"><ele>19.0</ele><time>2026-04-28T14:25:28.862Z</time></trkpt><trkpt lat="37.964341" lon="13.7974465"><ele>19.0</ele><time>2026-04-28T14:25:29.862Z</time></trkpt><trkpt lat="37.9644127" lon="13.797313"><ele>19.25</ele><time>2026-04-28T14:25:30.862Z</time></trkpt><trkpt lat="37.9644803" lon="13.7971743"><ele>19.5</ele><time>2026-04-28T14:25:31.862Z</time></trkpt><trkpt lat="37.9645514" lon="13.7970296"><ele>19.75</ele><time>2026-04-28T14:25:32.862Z</time></trkpt><trkpt lat="37.9646255" lon="13.7968816"><ele>20.0</ele><time>2026-04-28T14:25:33.862Z</time></trkpt><trkpt lat="37.9646973" lon="13.7967351"><ele>20.75</ele><time>2026-04-28T14:25:34.862Z</time></trkpt><trkpt lat="37.964753" lon="13.7965816"><ele>21.5</ele><time>2026-04-28T14:25:35.862Z</time></trkpt><trkpt lat="37.9647732" lon="13.7964163"><ele>22.25</ele><time>2026-04-28T14:25:36.862Z</time></trkpt><trkpt lat="37.964767" lon="13.7962478"><ele>23.0</ele><time>2026-04-28T14:25:37.862Z</time></trkpt><trkpt lat="37.964725" lon="13.7960817"><ele>23.25</ele><time>2026-04-28T14:25:38.862Z</time></trkpt><trkpt lat="37.9646654" lon="13.7959149"><ele>23.5</ele><time>2026-04-28T14:25:39.862Z</time></trkpt><trkpt lat="37.9646056" lon="13.7957554"><ele>23.75</ele><time>2026-04-28T14:25:40.862Z</time></trkpt><trkpt lat="37.9645411" lon="13.7955993"><ele>24.0</ele><time>2026-04-28T14:25:41.862Z</time></trkpt><trkpt lat="37.9644853" lon="13.795434"><ele>24.0</ele><time>2026-04-28T14:25:42.863Z</time></trkpt><trkpt lat="37.9644384" lon="13.7952674"><ele>24.0</ele><time>2026-04-28T14:25:43.862Z</time></trkpt><trkpt lat="37.9643989" lon="13.7950911"><ele>24.0</ele><time>2026-04-28T14:25:44.862Z</time></trkpt><trkpt lat="37.9643713" lon="13.7949178"><ele>24.0</ele><time>2026-04-28T14:25:45.862Z</time></trkpt><trkpt lat="37.9643448" lon="13.7947409"><ele>23.0</ele><time>2026-04-28T14:25:46.862Z</time></trkpt><trkpt lat="37.9643167" lon="13.7945644"><ele>22.0</ele><time>2026-04-28T14:25:47.862Z</time></trkpt><trkpt lat="37.9642853" lon="13.7943895"><ele>21.0</ele><time>2026-04-28T14:25:48.862Z</time></trkpt><trkpt lat="37.9642415" lon="13.7942192"><ele>20.0</ele><time>2026-04-28T14:25:49.862Z</time></trkpt><trkpt lat="37.9641842" lon="13.7940603"><ele>23.25</ele><time>2026-04-28T14:25:50.862Z</time></trkpt><trkpt lat="37.9641079" lon="13.7939155"><ele>26.5</ele><time>2026-04-28T14:25:51.862Z</time></trkpt><trkpt lat="37.9640281" lon="13.7937892"><ele>29.75</ele><time>2026-04-28T14:25:52.862Z</time></trkpt><trkpt lat="37.9639582" lon="13.7936742"><ele>33.0</ele><time>2026-04-28T14:25:53.862Z</time></trkpt><trkpt lat="37.9638904" lon="13.7935646"><ele>32.75</ele><time>2026-04-28T14:25:54.862Z</time></trkpt><trkpt lat="37.963825" lon="13.7934569"><ele>32.5</ele><time>2026-04-28T14:25:55.862Z</time></trkpt><trkpt lat="37.9637576" lon="13.7933453"><ele>32.25</ele><time>2026-04-28T14:25:56.862Z</time></trkpt><trkpt lat="37.9636893" lon="13.7932235"><ele>32.0</ele><time>2026-04-28T14:25:57.862Z</time></trkpt><trkpt lat="37.9636204" lon="13.7930935"><ele>32.0</ele><time>2026-04-28T14:25:58.863Z</time></trkpt><trkpt lat="37.9635482" lon="13.7929335"><ele>32.0</ele><time>2026-04-28T14:25:59.862Z</time></trkpt><trkpt lat="37.9635112" lon="13.7927595"><ele>32.0</ele><time>2026-04-28T14:26:00.862Z</time></trkpt><trkpt lat="37.9635037" lon="13.7925922"><ele>32.0</ele><time>2026-04-28T14:26:01.862Z</time></trkpt><trkpt lat="37.9635084" lon="13.792425"><ele>32.0</ele><time>2026-04-28T14:26:02.862Z</time></trkpt><trkpt lat="37.963523" lon="13.7922591"><ele>32.0</ele><time>2026-04-28T14:26:03.862Z</time></trkpt><trkpt lat="37.9635391" lon="13.7920887"><ele>32.0</ele><time>2026-04-28T14:26:04.862Z</time></trkpt><trkpt lat="37.9635595" lon="13.7919221"><ele>32.0</ele><time>2026-04-28T14:26:05.862Z</time></trkpt><trkpt lat="37.9635785" lon="13.7917512"><ele>32.0</ele><time>2026-04-28T14:26:06.862Z</time></trkpt><trkpt lat="37.9635873" lon="13.7915766"><ele>32.0</ele><time>2026-04-28T14:26:07.862Z</time></trkpt><trkpt lat="37.9635747" lon="13.7914038"><ele>32.0</ele><time>2026-04-28T14:26:08.862Z</time></trkpt><trkpt lat="37.9635443" lon="13.7912297"><ele>32.0</ele><time>2026-04-28T14:26:09.862Z</time></trkpt><trkpt lat="37.963506" lon="13.7910519"><ele>30.75</ele><time>2026-04-28T14:26:10.862Z</time></trkpt><trkpt lat="37.9634666" lon="13.7908855"><ele>29.5</ele><time>2026-04-28T14:26:11.862Z</time></trkpt><trkpt lat="37.9634139" lon="13.7907134"><ele>28.25</ele><time>2026-04-28T14:26:12.862Z</time></trkpt><trkpt lat="37.9633562" lon="13.7905439"><ele>27.0</ele><time>2026-04-28T14:26:13.862Z</time></trkpt><trkpt lat="37.9632996" lon="13.7903849"><ele>31.0</ele><time>2026-04-28T14:26:14.862Z</time></trkpt><trkpt lat="37.9632454" lon="13.7902266"><ele>35.0</ele><time>2026-04-28T14:26:15.862Z</time></trkpt><trkpt lat="37.9631987" lon="13.7900613"><ele>39.0</ele><time>2026-04-28T14:26:16.862Z</time></trkpt><trkpt lat="37.9631704" lon="13.789884"><ele>43.0</ele><time>2026-04-28T14:26:17.862Z</time></trkpt><trkpt lat="37.9631635" lon="13.7897021"><ele>43.0</ele><time>2026-04-28T14:26:18.862Z</time></trkpt><trkpt lat="37.9631854" lon="13.7895257"><ele>43.0</ele><time>2026-04-28T14:26:19.862Z</time></trkpt><trkpt lat="37.9632289" lon="13.7893682"><ele>43.0</ele><time>2026-04-28T14:26:20.862Z</time></trkpt><trkpt lat="37.9632822" lon="13.7892197"><ele>43.0</ele><time>2026-04-28T14:26:21.862Z</time></trkpt><trkpt lat="37.9633402" lon="13.789075"><ele>38.4</ele><time>2026-04-28T14:26:22.862Z</time></trkpt><trkpt lat="37.9633905" lon="13.7889445"><ele>33.8</ele><time>2026-04-28T14:26:23.862Z</time></trkpt><trkpt lat="37.9634319" lon="13.7888172"><ele>29.2</ele><time>2026-04-28T14:26:24.862Z</time></trkpt><trkpt lat="37.9634549" lon="13.7886777"><ele>24.6</ele><time>2026-04-28T14:26:25.862Z</time></trkpt><trkpt lat="37.9634473" lon="13.7885388"><ele>20.0</ele><time>2026-04-28T14:26:26.862Z</time></trkpt><trkpt lat="37.9634109" lon="13.7884237"><ele>25.75</ele><time>2026-04-28T14:26:27.862Z</time></trkpt><trkpt lat="37.9633512" lon="13.7883018"><ele>31.5</ele><time>2026-04-28T14:26:28.862Z</time></trkpt><trkpt lat="37.9632787" lon="13.7881868"><ele>37.25</ele><time>2026-04-28T14:26:29.862Z</time></trkpt><trkpt lat="37.963209" lon="13.7880653"><ele>43.0</ele><time>2026-04-28T14:26:30.862Z</time></trkpt><trkpt lat="37.9631562" lon="13.7879359"><ele>43.0</ele><time>2026-04-28T14:26:31.862Z</time></trkpt><trkpt lat="37.9631263" lon="13.7877973"><ele>43.0</ele><time>2026-04-28T14:26:32.863Z</time></trkpt><trkpt lat="37.963115" lon="13.7876543"><ele>43.0</ele><time>2026-04-28T14:26:33.862Z</time></trkpt><trkpt lat="37.9631203" lon="13.7875141"><ele>43.0</ele><time>2026-04-28T14:26:34.862Z</time></trkpt><trkpt lat="37.963136" lon="13.7873767"><ele>43.0</ele><time>2026-04-28T14:26:35.862Z</time></trkpt><trkpt lat="37.9631513" lon="13.7872463"><ele>43.0</ele><time>2026-04-28T14:26:36.862Z</time></trkpt><trkpt lat="37.9631539" lon="13.7871158"><ele>43.0</ele><time>2026-04-28T14:26:37.862Z</time></trkpt><trkpt lat="37.9631382" lon="13.7869813"><ele>43.0</ele><time>2026-04-28T14:26:38.862Z</time></trkpt><trkpt lat="37.9631026" lon="13.7868496"><ele>43.0</ele><time>2026-04-28T14:26:39.862Z</time></trkpt><trkpt lat="37.9630383" lon="13.7867394"><ele>43.0</ele><time>2026-04-28T14:26:40.862Z</time></trkpt><trkpt lat="37.9629535" lon="13.7866612"><ele>43.2</ele><time>2026-04-28T14:26:41.863Z</time></trkpt><trkpt lat="37.9628632" lon="13.7866223"><ele>43.4</ele><time>2026-04-28T14:26:42.862Z</time></trkpt><trkpt lat="37.9627643" lon="13.7866164"><ele>43.6</ele><time>2026-04-28T14:26:43.862Z</time></trkpt><trkpt lat="37.962665" lon="13.7866409"><ele>43.800000000000004</ele><time>2026-04-28T14:26:44.862Z</time></trkpt><trkpt lat="37.962559" lon="13.7866917"><ele>44.0</ele><time>2026-04-28T14:26:45.862Z</time></trkpt><trkpt lat="37.962464" lon="13.7867713"><ele>47.25</ele><time>2026-04-28T14:26:46.862Z</time></trkpt><trkpt lat="37.9623803" lon="13.7868705"><ele>50.5</ele><time>2026-04-28T14:26:47.862Z</time></trkpt><trkpt lat="37.9622995" lon="13.786982"><ele>53.75</ele><time>2026-04-28T14:26:48.862Z</time></trkpt><trkpt lat="37.9622247" lon="13.787106"><ele>57.0</ele><time>2026-04-28T14:26:49.862Z</time></trkpt><trkpt lat="37.9621444" lon="13.7872235"><ele>57.0</ele><time>2026-04-28T14:26:50.862Z</time></trkpt><trkpt lat="37.9620561" lon="13.7873246"><ele>57.0</ele><time>2026-04-28T14:26:51.862Z</time></trkpt><trkpt lat="37.9619536" lon="13.7873971"><ele>57.0</ele><time>2026-04-28T14:26:52.862Z</time></trkpt><trkpt lat="37.9618388" lon="13.7874507"><ele>57.0</ele><time>2026-04-28T14:26:53.862Z</time></trkpt><trkpt lat="37.9617191" lon="13.7874876"><ele>55.8</ele><time>2026-04-28T14:26:54.862Z</time></trkpt><trkpt lat="37.9616031" lon="13.7875192"><ele>54.6</ele><time>2026-04-28T14:26:55.862Z</time></trkpt><trkpt lat="37.961497" lon="13.7875464"><ele>53.4</ele><time>2026-04-28T14:26:56.862Z</time></trkpt><trkpt lat="37.9613957" lon="13.7875747"><ele>52.199999999999996</ele><time>2026-04-28T14:26:57.862Z</time></trkpt><trkpt lat="37.9612936" lon="13.7876056"><ele>51.0</ele><time>2026-04-28T14:26:58.862Z</time></trkpt><trkpt lat="37.9611906" lon="13.7876411"><ele>52.5</ele><time>2026-04-28T14:26:59.862Z</time></trkpt><trkpt lat="37.961083" lon="13.7876854"><ele>54.0</ele><time>2026-04-28T14:27:00.862Z</time></trkpt><trkpt lat="37.9609665" lon="13.7877459"><ele>55.5</ele><time>2026-04-28T14:27:01.862Z</time></trkpt><trkpt lat="37.96084" lon="13.7878216"><ele>57.0</ele><time>2026-04-28T14:27:02.862Z</time></trkpt><trkpt lat="37.9607134" lon="13.7879151"><ele>57.0</ele><time>2026-04-28T14:27:03.862Z</time></trkpt><trkpt lat="37.9605911" lon="13.7880195"><ele>57.0</ele><time>2026-04-28T14:27:04.862Z</time></trkpt><trkpt lat="37.9604715" lon="13.7881361"><ele>57.0</ele><time>2026-04-28T14:27:05.862Z</time></trkpt><trkpt lat="37.9603554" lon="13.7882573"><ele>57.0</ele><time>2026-04-28T14:27:06.862Z</time></trkpt><trkpt lat="37.9602438" lon="13.7883811"><ele>57.0</ele><time>2026-04-28T14:27:07.862Z</time></trkpt><trkpt lat="37.9601374" lon="13.7884915"><ele>57.0</ele><time>2026-04-28T14:27:08.862Z</time></trkpt><trkpt lat="37.9600335" lon="13.7885946"><ele>57.0</ele><time>2026-04-28T14:27:09.862Z</time></trkpt><trkpt lat="37.9599334" lon="13.7886933"><ele>57.0</ele><time>2026-04-28T14:27:10.862Z</time></trkpt><trkpt lat="37.9598331" lon="13.7887941"><ele>56.5</ele><time>2026-04-28T14:27:11.862Z</time></trkpt><trkpt lat="37.9597321" lon="13.7889004"><ele>56.0</ele><time>2026-04-28T14:27:12.862Z</time></trkpt><trkpt lat="37.959628" lon="13.789011"><ele>55.5</ele><time>2026-04-28T14:27:13.862Z</time></trkpt><trkpt lat="37.9595177" lon="13.7891132"><ele>55.0</ele><time>2026-04-28T14:27:14.862Z</time></trkpt><trkpt lat="37.9593953" lon="13.7892017"><ele>55.0</ele><time>2026-04-28T14:27:15.862Z</time></trkpt><trkpt lat="37.959263" lon="13.7892748"><ele>55.0</ele><time>2026-04-28T14:27:16.862Z</time></trkpt><trkpt lat="37.9591235" lon="13.7893308"><ele>55.0</ele><time>2026-04-28T14:27:17.862Z</time></trkpt><trkpt lat="37.9589756" lon="13.7893645"><ele>55.0</ele><time>2026-04-28T14:27:18.862Z</time></trkpt><trkpt lat="37.9588285" lon="13.7893729"><ele>55.5</ele><time>2026-04-28T14:27:19.862Z</time></trkpt><trkpt lat="37.9586876" lon="13.7893691"><ele>56.0</ele><time>2026-04-28T14:27:20.862Z</time></trkpt><trkpt lat="37.958556" lon="13.7893691"><ele>56.5</ele><time>2026-04-28T14:27:21.862Z</time></trkpt><trkpt lat="37.9584282" lon="13.789372"><ele>57.0</ele><time>2026-04-28T14:27:22.862Z</time></trkpt><trkpt lat="37.9583008" lon="13.789378"><ele>57.0</ele><time>2026-04-28T14:27:23.862Z</time></trkpt><trkpt lat="37.958174" lon="13.7893861"><ele>57.0</ele><time>2026-04-28T14:27:24.862Z</time></trkpt><trkpt lat="37.9580558" lon="13.7893901"><ele>57.0</ele><time>2026-04-28T14:27:25.862Z</time></trkpt><trkpt lat="37.9579367" lon="13.7893877"><ele>57.0</ele><time>2026-04-28T14:27:26.862Z</time></trkpt><trkpt lat="37.9578131" lon="13.7893625"><ele>54.25</ele><time>2026-04-28T14:27:27.862Z</time></trkpt><trkpt lat="37.9576949" lon="13.789286"><ele>51.5</ele><time>2026-04-28T14:27:28.862Z</time></trkpt><trkpt lat="37.9575827" lon="13.7891943"><ele>48.75</ele><time>2026-04-28T14:27:29.862Z</time></trkpt><trkpt lat="37.9574862" lon="13.7890912"><ele>46.0</ele><time>2026-04-28T14:27:30.862Z</time></trkpt><trkpt lat="37.9573967" lon="13.7889862"><ele>46.0</ele><time>2026-04-28T14:27:31.862Z</time></trkpt><trkpt lat="37.9573012" lon="13.7888763"><ele>46.0</ele><time>2026-04-28T14:27:32.862Z</time></trkpt><trkpt lat="37.9572043" lon="13.7887643"><ele>46.0</ele><time>2026-04-28T14:27:33.862Z</time></trkpt><trkpt lat="37.9571088" lon="13.788649"><ele>46.0</ele><time>2026-04-28T14:27:34.862Z</time></trkpt><trkpt lat="37.9570107" lon="13.7885368"><ele>45.25</ele><time>2026-04-28T14:27:35.862Z</time></trkpt><trkpt lat="37.9569213" lon="13.7884144"><ele>44.5</ele><time>2026-04-28T14:27:36.862Z</time></trkpt><trkpt lat="37.9568383" lon="13.7882777"><ele>43.75</ele><time>2026-04-28T14:27:37.862Z</time></trkpt><trkpt lat="37.9567684" lon="13.7881347"><ele>43.0</ele><time>2026-04-28T14:27:38.862Z</time></trkpt><trkpt lat="37.9566985" lon="13.787991"><ele>43.0</ele><time>2026-04-28T14:27:39.862Z</time></trkpt><trkpt lat="37.9566187" lon="13.7878604"><ele>43.0</ele><time>2026-04-28T14:27:40.862Z</time></trkpt><trkpt lat="37.9565257" lon="13.7877508"><ele>43.0</ele><time>2026-04-28T14:27:41.862Z</time></trkpt><trkpt lat="37.9564227" lon="13.7876605"><ele>43.0</ele><time>2026-04-28T14:27:42.862Z</time></trkpt><trkpt lat="37.9563108" lon="13.7875809"><ele>41.0</ele><time>2026-04-28T14:27:43.862Z</time></trkpt><trkpt lat="37.9562014" lon="13.7875012"><ele>39.0</ele><time>2026-04-28T14:27:44.862Z</time></trkpt><trkpt lat="37.9561001" lon="13.7874139"><ele>37.0</ele><time>2026-04-28T14:27:45.862Z</time></trkpt><trkpt lat="37.9560149" lon="13.7873189"><ele>35.0</ele><time>2026-04-28T14:27:46.862Z</time></trkpt><trkpt lat="37.9559456" lon="13.7872041"><ele>35.0</ele><time>2026-04-28T14:27:47.862Z</time></trkpt><trkpt lat="37.9558969" lon="13.7870811"><ele>35.0</ele><time>2026-04-28T14:27:48.862Z</time></trkpt><trkpt lat="37.9558611" lon="13.7869453"><ele>35.0</ele><time>2026-04-28T14:27:49.862Z</time></trkpt><trkpt lat="37.9558272" lon="13.7868053"><ele>35.0</ele><time>2026-04-28T14:27:50.862Z</time></trkpt><trkpt lat="37.9557995" lon="13.7866658"><ele>34.25</ele><time>2026-04-28T14:27:51.862Z</time></trkpt><trkpt lat="37.9557641" lon="13.7865266"><ele>33.5</ele><time>2026-04-28T14:27:52.862Z</time></trkpt><trkpt lat="37.9557163" lon="13.7863868"><ele>32.75</ele><time>2026-04-28T14:27:53.862Z</time></trkpt><trkpt lat="37.9556597" lon="13.7862531"><ele>32.0</ele><time>2026-04-28T14:27:54.862Z</time></trkpt><trkpt lat="37.9555948" lon="13.7861224"><ele>29.75</ele><time>2026-04-28T14:27:55.862Z</time></trkpt><trkpt lat="37.9555255" lon="13.7859969"><ele>27.5</ele><time>2026-04-28T14:27:56.862Z</time></trkpt><trkpt lat="37.9554503" lon="13.7858869"><ele>25.25</ele><time>2026-04-28T14:27:57.862Z</time></trkpt><trkpt lat="37.9553644" lon="13.7858044"><ele>23.0</ele><time>2026-04-28T14:27:58.862Z</time></trkpt><trkpt lat="37.9552663" lon="13.7857465"><ele>23.0</ele><time>2026-04-28T14:27:59.862Z</time></trkpt><trkpt lat="37.9551589" lon="13.7857155"><ele>23.0</ele><time>2026-04-28T14:28:00.862Z</time></trkpt><trkpt lat="37.9550441" lon="13.7857055"><ele>23.0</ele><time>2026-04-28T14:28:01.862Z</time></trkpt><trkpt lat="37.9549205" lon="13.7857037"><ele>23.0</ele><time>2026-04-28T14:28:02.862Z</time></trkpt><trkpt lat="37.9547868" lon="13.7856985"><ele>23.5</ele><time>2026-04-28T14:28:03.862Z</time></trkpt><trkpt lat="37.9546506" lon="13.7856908"><ele>24.0</ele><time>2026-04-28T14:28:04.862Z</time></trkpt><trkpt lat="37.954506" lon="13.7856776"><ele>24.5</ele><time>2026-04-28T14:28:05.862Z</time></trkpt><trkpt lat="37.9543586" lon="13.7856508"><ele>25.0</ele><time>2026-04-28T14:28:06.862Z</time></trkpt><trkpt lat="37.9542192" lon="13.7856163"><ele>24.25</ele><time>2026-04-28T14:28:07.862Z</time></trkpt><trkpt lat="37.9540989" lon="13.7855815"><ele>23.5</ele><time>2026-04-28T14:28:08.862Z</time></trkpt><trkpt lat="37.953986" lon="13.7855381"><ele>22.75</ele><time>2026-04-28T14:28:09.862Z</time></trkpt><trkpt lat="37.953869" lon="13.7854926"><ele>22.0</ele><time>2026-04-28T14:28:10.862Z</time></trkpt><trkpt lat="37.9537497" lon="13.7854477"><ele>22.0</ele><time>2026-04-28T14:28:11.862Z</time></trkpt><trkpt lat="37.9536363" lon="13.7854085"><ele>22.0</ele><time>2026-04-28T14:28:12.862Z</time></trkpt><trkpt lat="37.9535179" lon="13.7853685"><ele>22.0</ele><time>2026-04-28T14:28:13.862Z</time></trkpt><trkpt lat="37.9533934" lon="13.7853261"><ele>22.0</ele><time>2026-04-28T14:28:14.862Z</time></trkpt><trkpt lat="37.953267" lon="13.7852805"><ele>22.75</ele><time>2026-04-28T14:28:15.862Z</time></trkpt><trkpt lat="37.9531426" lon="13.7852388"><ele>23.5</ele><time>2026-04-28T14:28:16.862Z</time></trkpt><trkpt lat="37.9530172" lon="13.7851981"><ele>24.25</ele><time>2026-04-28T14:28:17.862Z</time></trkpt><trkpt lat="37.952887" lon="13.7851546"><ele>25.0</ele><time>2026-04-28T14:28:18.862Z</time></trkpt><trkpt lat="37.9527554" lon="13.7851115"><ele>25.0</ele><time>2026-04-28T14:28:19.862Z</time></trkpt><trkpt lat="37.9526302" lon="13.7850629"><ele>25.0</ele><time>2026-04-28T14:28:20.862Z</time></trkpt><trkpt lat="37.9525058" lon="13.7850183"><ele>25.0</ele><time>2026-04-28T14:28:21.862Z</time></trkpt><trkpt lat="37.952385" lon="13.7849724"><ele>25.0</ele><time>2026-04-28T14:28:22.862Z</time></trkpt><trkpt lat="37.9522638" lon="13.7849334"><ele>25.5</ele><time>2026-04-28T14:28:23.862Z</time></trkpt><trkpt lat="37.9521492" lon="13.7848956"><ele>26.0</ele><time>2026-04-28T14:28:24.862Z</time></trkpt><trkpt lat="37.9520377" lon="13.784856"><ele>26.5</ele><time>2026-04-28T14:28:25.862Z</time></trkpt><trkpt lat="37.9519252" lon="13.7848195"><ele>27.0</ele><time>2026-04-28T14:28:26.862Z</time></trkpt><trkpt lat="37.9518169" lon="13.7847847"><ele>27.0</ele><time>2026-04-28T14:28:27.862Z</time></trkpt><trkpt lat="37.9517173" lon="13.7847567"><ele>27.000000000000004</ele><time>2026-04-28T14:28:28.862Z</time></trkpt><trkpt lat="37.9516287" lon="13.7847238"><ele>27.000000000000004</ele><time>2026-04-28T14:28:29.862Z</time></trkpt><trkpt lat="37.9515396" lon="13.7846899"><ele>27.0</ele><time>2026-04-28T14:28:30.862Z</time></trkpt><trkpt lat="37.9514585" lon="13.7846616"><ele>27.0</ele><time>2026-04-28T14:28:31.862Z</time></trkpt><trkpt lat="37.9513815" lon="13.7846336"><ele>27.0</ele><time>2026-04-28T14:28:32.862Z</time></trkpt><trkpt lat="37.9513136" lon="13.7846085"><ele>27.000000000000004</ele><time>2026-04-28T14:28:33.862Z</time></trkpt><trkpt lat="37.9511978" lon="13.7845928"><ele>27.000000000000004</ele><time>2026-04-28T14:28:35.862Z</time></trkpt><trkpt lat="37.9510715" lon="13.7846874"><ele>27.0</ele><time>2026-04-28T14:28:37.862Z</time></trkpt><trkpt lat="37.9509789" lon="13.7847628"><ele>27.0</ele><time>2026-04-28T14:28:38.862Z</time></trkpt><trkpt lat="37.9508828" lon="13.7848345"><ele>27.5</ele><time>2026-04-28T14:28:39.862Z</time></trkpt><trkpt lat="37.950774" lon="13.7849098"><ele>28.0</ele><time>2026-04-28T14:28:40.862Z</time></trkpt><trkpt lat="37.9506487" lon="13.7850008"><ele>28.5</ele><time>2026-04-28T14:28:41.862Z</time></trkpt><trkpt lat="37.9505049" lon="13.7851008"><ele>29.0</ele><time>2026-04-28T14:28:42.862Z</time></trkpt><trkpt lat="37.9503331" lon="13.7852053"><ele>32.33333333333333</ele><time>2026-04-28T14:28:43.862Z</time></trkpt><trkpt lat="37.950163" lon="13.7853132"><ele>35.666666666666664</ele><time>2026-04-28T14:28:44.862Z</time></trkpt><trkpt lat="37.9499949" lon="13.7853997"><ele>39.0</ele><time>2026-04-28T14:28:45.862Z</time></trkpt><trkpt lat="37.9498416" lon="13.7854536"><ele>39.5</ele><time>2026-04-28T14:28:46.862Z</time></trkpt><trkpt lat="37.9497044" lon="13.7854484"><ele>40.0</ele><time>2026-04-28T14:28:47.862Z</time></trkpt><trkpt lat="37.9495725" lon="13.7853977"><ele>40.5</ele><time>2026-04-28T14:28:48.862Z</time></trkpt><trkpt lat="37.9494359" lon="13.785304"><ele>41.0</ele><time>2026-04-28T14:28:49.863Z</time></trkpt><trkpt lat="37.9492985" lon="13.7852054"><ele>39.666666666666664</ele><time>2026-04-28T14:28:50.862Z</time></trkpt><trkpt lat="37.949159" lon="13.7851197"><ele>38.333333333333336</ele><time>2026-04-28T14:28:51.862Z</time></trkpt><trkpt lat="37.9489986" lon="13.7850756"><ele>37.0</ele><time>2026-04-28T14:28:52.862Z</time></trkpt><trkpt lat="37.9488307" lon="13.7850556"><ele>37.0</ele><time>2026-04-28T14:28:53.862Z</time></trkpt><trkpt lat="37.9486636" lon="13.7850619"><ele>37.0</ele><time>2026-04-28T14:28:54.862Z</time></trkpt><trkpt lat="37.9485023" lon="13.7850831"><ele>37.0</ele><time>2026-04-28T14:28:55.862Z</time></trkpt><trkpt lat="37.9483602" lon="13.7851122"><ele>37.0</ele><time>2026-04-28T14:28:56.863Z</time></trkpt><trkpt lat="37.9482315" lon="13.7851528"><ele>37.0</ele><time>2026-04-28T14:28:57.862Z</time></trkpt><trkpt lat="37.9481174" lon="13.7852338"><ele>37.0</ele><time>2026-04-28T14:28:58.862Z</time></trkpt><trkpt lat="37.9480082" lon="13.7853482"><ele>37.0</ele><time>2026-04-28T14:28:59.862Z</time></trkpt><trkpt lat="37.9479104" lon="13.7854943"><ele>40.0</ele><time>2026-04-28T14:29:00.862Z</time></trkpt><trkpt lat="37.9478159" lon="13.7856758"><ele>43.0</ele><time>2026-04-28T14:29:01.862Z</time></trkpt><trkpt lat="37.9477307" lon="13.7858886"><ele>46.0</ele><time>2026-04-28T14:29:02.862Z</time></trkpt><trkpt lat="37.9476514" lon="13.7861129"><ele>45.0</ele><time>2026-04-28T14:29:03.862Z</time></trkpt><trkpt lat="37.9475871" lon="13.7863316"><ele>44.0</ele><time>2026-04-28T14:29:04.862Z</time></trkpt><trkpt lat="37.9475407" lon="13.78656"><ele>43.0</ele><time>2026-04-28T14:29:05.862Z</time></trkpt><trkpt lat="37.9475259" lon="13.7868095"><ele>43.0</ele><time>2026-04-28T14:29:06.862Z</time></trkpt><trkpt lat="37.9475349" lon="13.7870543"><ele>43.0</ele><time>2026-04-28T14:29:07.862Z</time></trkpt><trkpt lat="37.9475502" lon="13.7873077"><ele>43.0</ele><time>2026-04-28T14:29:08.862Z</time></trkpt><trkpt lat="37.9475568" lon="13.787551"><ele>44.66666666666667</ele><time>2026-04-28T14:29:09.862Z</time></trkpt><trkpt lat="37.947558" lon="13.7877789"><ele>46.333333333333336</ele><time>2026-04-28T14:29:10.862Z</time></trkpt><trkpt lat="37.9475586" lon="13.7880052"><ele>48.0</ele><time>2026-04-28T14:29:11.862Z</time></trkpt><trkpt lat="37.9475437" lon="13.7882248"><ele>48.0</ele><time>2026-04-28T14:29:12.862Z</time></trkpt><trkpt lat="37.9475106" lon="13.7884378"><ele>48.0</ele><time>2026-04-28T14:29:13.862Z</time></trkpt><trkpt lat="37.9474548" lon="13.7886437"><ele>48.0</ele><time>2026-04-28T14:29:14.862Z</time></trkpt><trkpt lat="37.9473681" lon="13.7888415"><ele>49.33333333333333</ele><time>2026-04-28T14:29:15.862Z</time></trkpt><trkpt lat="37.9472614" lon="13.7890236"><ele>50.666666666666664</ele><time>2026-04-28T14:29:16.862Z</time></trkpt><trkpt lat="37.9471267" lon="13.7891853"><ele>52.0</ele><time>2026-04-28T14:29:17.862Z</time></trkpt><trkpt lat="37.9469673" lon="13.7893113"><ele>54.666666666666664</ele><time>2026-04-28T14:29:18.862Z</time></trkpt><trkpt lat="37.9467904" lon="13.7894095"><ele>57.33333333333333</ele><time>2026-04-28T14:29:19.862Z</time></trkpt><trkpt lat="37.9465955" lon="13.7894924"><ele>60.0</ele><time>2026-04-28T14:29:20.863Z</time></trkpt><trkpt lat="37.9464022" lon="13.7895585"><ele>60.0</ele><time>2026-04-28T14:29:21.862Z</time></trkpt><trkpt lat="37.9462151" lon="13.7896194"><ele>60.0</ele><time>2026-04-28T14:29:22.862Z</time></trkpt><trkpt lat="37.9460302" lon="13.7896507"><ele>60.0</ele><time>2026-04-28T14:29:23.862Z</time></trkpt><trkpt lat="37.9458451" lon="13.7896684"><ele>60.33333333333333</ele><time>2026-04-28T14:29:24.862Z</time></trkpt><trkpt lat="37.9456596" lon="13.7896661"><ele>60.666666666666664</ele><time>2026-04-28T14:29:25.862Z</time></trkpt><trkpt lat="37.9454674" lon="13.7896432"><ele>61.0</ele><time>2026-04-28T14:29:26.862Z</time></trkpt><trkpt lat="37.9452686" lon="13.7896039"><ele>61.0</ele><time>2026-04-28T14:29:27.862Z</time></trkpt><trkpt lat="37.9450639" lon="13.7895556"><ele>61.0</ele><time>2026-04-28T14:29:28.862Z</time></trkpt><trkpt lat="37.9448599" lon="13.7894992"><ele>61.0</ele><time>2026-04-28T14:29:29.862Z</time></trkpt><trkpt lat="37.9446688" lon="13.7894445"><ele>61.33333333333333</ele><time>2026-04-28T14:29:30.862Z</time></trkpt><trkpt lat="37.9444919" lon="13.789395"><ele>61.66666666666667</ele><time>2026-04-28T14:29:31.862Z</time></trkpt><trkpt lat="37.944323" lon="13.7893557"><ele>62.0</ele><time>2026-04-28T14:29:32.862Z</time></trkpt><trkpt lat="37.9441728" lon="13.7893339"><ele>63.333333333333336</ele><time>2026-04-28T14:29:33.862Z</time></trkpt><trkpt lat="37.9440319" lon="13.7893421"><ele>64.66666666666667</ele><time>2026-04-28T14:29:34.862Z</time></trkpt><trkpt lat="37.9438898" lon="13.789406"><ele>66.0</ele><time>2026-04-28T14:29:35.862Z</time></trkpt><trkpt lat="37.9437518" lon="13.7895117"><ele>66.0</ele><time>2026-04-28T14:29:36.862Z</time></trkpt><trkpt lat="37.9436063" lon="13.7896395"><ele>66.0</ele><time>2026-04-28T14:29:37.862Z</time></trkpt><trkpt lat="37.9434608" lon="13.7897909"><ele>66.0</ele><time>2026-04-28T14:29:38.862Z</time></trkpt><trkpt lat="37.9433287" lon="13.7899554"><ele>64.66666666666667</ele><time>2026-04-28T14:29:39.862Z</time></trkpt><trkpt lat="37.9432147" lon="13.7901238"><ele>63.333333333333336</ele><time>2026-04-28T14:29:40.862Z</time></trkpt><trkpt lat="37.9431158" lon="13.7902936"><ele>62.0</ele><time>2026-04-28T14:29:41.862Z</time></trkpt><trkpt lat="37.9430241" lon="13.790463"><ele>64.66666666666667</ele><time>2026-04-28T14:29:42.862Z</time></trkpt><trkpt lat="37.942919" lon="13.7906363"><ele>67.33333333333333</ele><time>2026-04-28T14:29:43.862Z</time></trkpt><trkpt lat="37.9427902" lon="13.7907847"><ele>70.0</ele><time>2026-04-28T14:29:44.862Z</time></trkpt><trkpt lat="37.9426416" lon="13.790913"><ele>70.66666666666666</ele><time>2026-04-28T14:29:45.862Z</time></trkpt><trkpt lat="37.942491" lon="13.7910237"><ele>71.33333333333333</ele><time>2026-04-28T14:29:46.862Z</time></trkpt><trkpt lat="37.9423332" lon="13.7911454"><ele>72.0</ele><time>2026-04-28T14:29:47.862Z</time></trkpt><trkpt lat="37.9421846" lon="13.7913089"><ele>72.0</ele><time>2026-04-28T14:29:48.862Z</time></trkpt><trkpt lat="37.9420569" lon="13.7914908"><ele>72.0</ele><time>2026-04-28T14:29:49.862Z</time></trkpt><trkpt lat="37.9419366" lon="13.7916768"><ele>72.0</ele><time>2026-04-28T14:29:50.862Z</time></trkpt><trkpt lat="37.9418096" lon="13.7918439"><ele>71.5</ele><time>2026-04-28T14:29:51.862Z</time></trkpt><trkpt lat="37.9416871" lon="13.7919819"><ele>71.0</ele><time>2026-04-28T14:29:52.862Z</time></trkpt><trkpt lat="37.9415759" lon="13.7920661"><ele>70.5</ele><time>2026-04-28T14:29:53.862Z</time></trkpt><trkpt lat="37.9414625" lon="13.7920998"><ele>70.0</ele><time>2026-04-28T14:29:54.862Z</time></trkpt><trkpt lat="37.9413472" lon="13.7920844"><ele>70.0</ele><time>2026-04-28T14:29:55.862Z</time></trkpt><trkpt lat="37.9412104" lon="13.7920115"><ele>70.0</ele><time>2026-04-28T14:29:56.862Z</time></trkpt><trkpt lat="37.9410979" lon="13.7918798"><ele>70.0</ele><time>2026-04-28T14:29:57.862Z</time></trkpt><trkpt lat="37.9410422" lon="13.7917203"><ele>70.0</ele><time>2026-04-28T14:29:58.862Z</time></trkpt><trkpt lat="37.9410372" lon="13.7915621"><ele>67.33333333333333</ele><time>2026-04-28T14:29:59.862Z</time></trkpt><trkpt lat="37.9410809" lon="13.7914042"><ele>64.66666666666667</ele><time>2026-04-28T14:30:00.862Z</time></trkpt><trkpt lat="37.9411523" lon="13.7912331"><ele>62.0</ele><time>2026-04-28T14:30:01.862Z</time></trkpt><trkpt lat="37.9412348" lon="13.7910454"><ele>61.333333333333336</ele><time>2026-04-28T14:30:02.862Z</time></trkpt><trkpt lat="37.9413198" lon="13.7908604"><ele>60.66666666666667</ele><time>2026-04-28T14:30:03.863Z</time></trkpt><trkpt lat="37.9414069" lon="13.790671"><ele>60.0</ele><time>2026-04-28T14:30:04.862Z</time></trkpt><trkpt lat="37.9414944" lon="13.7904787"><ele>60.0</ele><time>2026-04-28T14:30:05.862Z</time></trkpt><trkpt lat="37.941575" lon="13.7902924"><ele>60.0</ele><time>2026-04-28T14:30:06.862Z</time></trkpt><trkpt lat="37.9416451" lon="13.7901151"><ele>60.0</ele><time>2026-04-28T14:30:07.862Z</time></trkpt><trkpt lat="37.9416762" lon="13.7899469"><ele>60.0</ele><time>2026-04-28T14:30:08.862Z</time></trkpt><trkpt lat="37.9416565" lon="13.7897597"><ele>60.0</ele><time>2026-04-28T14:30:09.862Z</time></trkpt><trkpt lat="37.9416013" lon="13.7895826"><ele>60.0</ele><time>2026-04-28T14:30:10.862Z</time></trkpt><trkpt lat="37.9415177" lon="13.7894086"><ele>58.33333333333333</ele><time>2026-04-28T14:30:11.862Z</time></trkpt><trkpt lat="37.941418" lon="13.7892345"><ele>56.666666666666664</ele><time>2026-04-28T14:30:12.862Z</time></trkpt><trkpt lat="37.9413276" lon="13.7890557"><ele>55.0</ele><time>2026-04-28T14:30:13.862Z</time></trkpt><trkpt lat="37.9412373" lon="13.7888896"><ele>55.0</ele><time>2026-04-28T14:30:14.862Z</time></trkpt><trkpt lat="37.9411458" lon="13.7887489"><ele>55.0</ele><time>2026-04-28T14:30:15.863Z</time></trkpt><trkpt lat="37.9410341" lon="13.7886472"><ele>55.0</ele><time>2026-04-28T14:30:16.862Z</time></trkpt><trkpt lat="37.9408957" lon="13.788593"><ele>55.0</ele><time>2026-04-28T14:30:17.862Z</time></trkpt><trkpt lat="37.9407445" lon="13.7885804"><ele>60.666666666666664</ele><time>2026-04-28T14:30:18.862Z</time></trkpt><trkpt lat="37.9405781" lon="13.7885764"><ele>66.33333333333333</ele><time>2026-04-28T14:30:19.862Z</time></trkpt><trkpt lat="37.9404115" lon="13.7885838"><ele>72.0</ele><time>2026-04-28T14:30:20.862Z</time></trkpt><trkpt lat="37.9402331" lon="13.7885802"><ele>72.0</ele><time>2026-04-28T14:30:21.862Z</time></trkpt><trkpt lat="37.9400564" lon="13.7885657"><ele>72.0</ele><time>2026-04-28T14:30:22.862Z</time></trkpt><trkpt lat="37.939898" lon="13.7885445"><ele>72.0</ele><time>2026-04-28T14:30:23.862Z</time></trkpt><trkpt lat="37.9397528" lon="13.7885232"><ele>73.75</ele><time>2026-04-28T14:30:24.862Z</time></trkpt><trkpt lat="37.9396247" lon="13.7885389"><ele>75.5</ele><time>2026-04-28T14:30:25.862Z</time></trkpt><trkpt lat="37.9395003" lon="13.7886184"><ele>77.25</ele><time>2026-04-28T14:30:26.862Z</time></trkpt><trkpt lat="37.9393778" lon="13.7887525"><ele>79.0</ele><time>2026-04-28T14:30:27.862Z</time></trkpt><trkpt lat="37.9392487" lon="13.7889045"><ele>76.33333333333333</ele><time>2026-04-28T14:30:28.861Z</time></trkpt><trkpt lat="37.9391181" lon="13.789048"><ele>73.66666666666667</ele><time>2026-04-28T14:30:29.861Z</time></trkpt><trkpt lat="37.9389933" lon="13.7891703"><ele>71.0</ele><time>2026-04-28T14:30:30.861Z</time></trkpt><trkpt lat="37.938875" lon="13.7892808"><ele>71.0</ele><time>2026-04-28T14:30:31.861Z</time></trkpt><trkpt lat="37.9387616" lon="13.7893722"><ele>71.0</ele><time>2026-04-28T14:30:32.861Z</time></trkpt><trkpt lat="37.9386534" lon="13.7894332"><ele>71.0</ele><time>2026-04-28T14:30:33.862Z</time></trkpt><trkpt lat="37.9385565" lon="13.7894318"><ele>71.0</ele><time>2026-04-28T14:30:34.861Z</time></trkpt><trkpt lat="37.9384767" lon="13.7893683"><ele>71.0</ele><time>2026-04-28T14:30:35.861Z</time></trkpt><trkpt lat="37.9384491" lon="13.7892558"><ele>71.0</ele><time>2026-04-28T14:30:36.861Z</time></trkpt><trkpt lat="37.9384545" lon="13.7891039"><ele>71.0</ele><time>2026-04-28T14:30:37.861Z</time></trkpt><trkpt lat="37.9384769" lon="13.7889397"><ele>71.0</ele><time>2026-04-28T14:30:38.861Z</time></trkpt><trkpt lat="37.938476" lon="13.7887719"><ele>71.0</ele><time>2026-04-28T14:30:39.862Z</time></trkpt><trkpt lat="37.9384386" lon="13.7885983"><ele>71.5</ele><time>2026-04-28T14:30:40.861Z</time></trkpt><trkpt lat="37.9383542" lon="13.788433"><ele>72.0</ele><time>2026-04-28T14:30:41.861Z</time></trkpt><trkpt lat="37.9382641" lon="13.7882911"><ele>72.5</ele><time>2026-04-28T14:30:42.861Z</time></trkpt><trkpt lat="37.9381667" lon="13.7881609"><ele>73.0</ele><time>2026-04-28T14:30:43.861Z</time></trkpt><trkpt lat="37.9380594" lon="13.7880425"><ele>73.0</ele><time>2026-04-28T14:30:44.861Z</time></trkpt><trkpt lat="37.937942" lon="13.7879407"><ele>73.0</ele><time>2026-04-28T14:30:45.861Z</time></trkpt><trkpt lat="37.9378136" lon="13.7878583"><ele>73.0</ele><time>2026-04-28T14:30:46.861Z</time></trkpt><trkpt lat="37.9376821" lon="13.7877921"><ele>73.0</ele><time>2026-04-28T14:30:47.861Z</time></trkpt><trkpt lat="37.9375382" lon="13.7877507"><ele>75.25</ele><time>2026-04-28T14:30:48.861Z</time></trkpt><trkpt lat="37.9374016" lon="13.7877381"><ele>77.5</ele><time>2026-04-28T14:30:49.861Z</time></trkpt><trkpt lat="37.9372785" lon="13.7877572"><ele>79.75</ele><time>2026-04-28T14:30:50.861Z</time></trkpt><trkpt lat="37.9371682" lon="13.7878327"><ele>82.0</ele><time>2026-04-28T14:30:51.861Z</time></trkpt><trkpt lat="37.9370504" lon="13.7879431"><ele>82.0</ele><time>2026-04-28T14:30:52.861Z</time></trkpt><trkpt lat="37.9369407" lon="13.7880794"><ele>82.0</ele><time>2026-04-28T14:30:53.861Z</time></trkpt><trkpt lat="37.9368354" lon="13.7882217"><ele>82.0</ele><time>2026-04-28T14:30:54.861Z</time></trkpt><trkpt lat="37.9367204" lon="13.7883544"><ele>80.66666666666666</ele><time>2026-04-28T14:30:55.861Z</time></trkpt><trkpt lat="37.9365953" lon="13.7884771"><ele>79.33333333333333</ele><time>2026-04-28T14:30:56.861Z</time></trkpt><trkpt lat="37.9364606" lon="13.7885663"><ele>78.0</ele><time>2026-04-28T14:30:57.861Z</time></trkpt><trkpt lat="37.9363244" lon="13.7886408"><ele>81.33333333333333</ele><time>2026-04-28T14:30:58.861Z</time></trkpt><trkpt lat="37.9361878" lon="13.7887234"><ele>84.66666666666666</ele><time>2026-04-28T14:30:59.861Z</time></trkpt><trkpt lat="37.9360581" lon="13.7888334"><ele>88.0</ele><time>2026-04-28T14:31:00.861Z</time></trkpt><trkpt lat="37.9359366" lon="13.7889726"><ele>88.66666666666666</ele><time>2026-04-28T14:31:01.861Z</time></trkpt><trkpt lat="37.9358231" lon="13.7891415"><ele>89.33333333333333</ele><time>2026-04-28T14:31:02.861Z</time></trkpt><trkpt lat="37.9357175" lon="13.7893253"><ele>90.0</ele><time>2026-04-28T14:31:03.861Z</time></trkpt><trkpt lat="37.9356093" lon="13.7895118"><ele>90.0</ele><time>2026-04-28T14:31:04.861Z</time></trkpt><trkpt lat="37.935487" lon="13.789698"><ele>90.0</ele><time>2026-04-28T14:31:05.861Z</time></trkpt><trkpt lat="37.935356" lon="13.789876"><ele>90.0</ele><time>2026-04-28T14:31:06.861Z</time></trkpt><trkpt lat="37.9352179" lon="13.7900501"><ele>90.33333333333333</ele><time>2026-04-28T14:31:07.861Z</time></trkpt><trkpt lat="37.9350732" lon="13.7902172"><ele>90.66666666666666</ele><time>2026-04-28T14:31:08.861Z</time></trkpt><trkpt lat="37.9349282" lon="13.7903761"><ele>91.0</ele><time>2026-04-28T14:31:09.861Z</time></trkpt><trkpt lat="37.9347843" lon="13.7905283"><ele>91.0</ele><time>2026-04-28T14:31:10.861Z</time></trkpt><trkpt lat="37.934644" lon="13.7906839"><ele>91.0</ele><time>2026-04-28T14:31:11.861Z</time></trkpt><trkpt lat="37.934501" lon="13.7908441"><ele>91.0</ele><time>2026-04-28T14:31:12.861Z</time></trkpt><trkpt lat="37.9343693" lon="13.7910029"><ele>91.66666666666666</ele><time>2026-04-28T14:31:13.861Z</time></trkpt><trkpt lat="37.934246" lon="13.7911552"><ele>92.33333333333333</ele><time>2026-04-28T14:31:14.861Z</time></trkpt><trkpt lat="37.9341415" lon="13.7913119"><ele>93.0</ele><time>2026-04-28T14:31:15.861Z</time></trkpt><trkpt lat="37.9340604" lon="13.7914874"><ele>93.0</ele><time>2026-04-28T14:31:16.861Z</time></trkpt><trkpt lat="37.9340007" lon="13.7916614"><ele>93.0</ele><time>2026-04-28T14:31:17.861Z</time></trkpt><trkpt lat="37.9339321" lon="13.7918178"><ele>93.0</ele><time>2026-04-28T14:31:18.861Z</time></trkpt><trkpt lat="37.9338427" lon="13.7919416"><ele>93.0</ele><time>2026-04-28T14:31:19.861Z</time></trkpt><trkpt lat="37.9337321" lon="13.7920197"><ele>95.0</ele><time>2026-04-28T14:31:20.861Z</time></trkpt><trkpt lat="37.9335932" lon="13.7920708"><ele>97.0</ele><time>2026-04-28T14:31:21.861Z</time></trkpt><trkpt lat="37.9334325" lon="13.7920691"><ele>99.0</ele><time>2026-04-28T14:31:22.861Z</time></trkpt><trkpt lat="37.9332881" lon="13.7919954"><ele>99.33333333333334</ele><time>2026-04-28T14:31:23.861Z</time></trkpt><trkpt lat="37.933141" lon="13.7918798"><ele>99.66666666666667</ele><time>2026-04-28T14:31:24.861Z</time></trkpt><trkpt lat="37.9329814" lon="13.7917673"><ele>100.0</ele><time>2026-04-28T14:31:25.861Z</time></trkpt><trkpt lat="37.9327993" lon="13.7916874"><ele>97.66666666666667</ele><time>2026-04-28T14:31:26.861Z</time></trkpt><trkpt lat="37.9326072" lon="13.791618"><ele>95.33333333333334</ele><time>2026-04-28T14:31:27.861Z</time></trkpt><trkpt lat="37.9324308" lon="13.7915539"><ele>93.0</ele><time>2026-04-28T14:31:28.861Z</time></trkpt><trkpt lat="37.9322616" lon="13.7914956"><ele>93.0</ele><time>2026-04-28T14:31:29.861Z</time></trkpt><trkpt lat="37.9321107" lon="13.7914597"><ele>93.0</ele><time>2026-04-28T14:31:30.861Z</time></trkpt><trkpt lat="37.9319548" lon="13.7914728"><ele>93.0</ele><time>2026-04-28T14:31:31.861Z</time></trkpt><trkpt lat="37.9317766" lon="13.7915253"><ele>92.33333333333333</ele><time>2026-04-28T14:31:32.861Z</time></trkpt><trkpt lat="37.9316021" lon="13.7915919"><ele>91.66666666666666</ele><time>2026-04-28T14:31:33.861Z</time></trkpt><trkpt lat="37.9314428" lon="13.7916648"><ele>91.0</ele><time>2026-04-28T14:31:34.861Z</time></trkpt><trkpt lat="37.9312909" lon="13.7917249"><ele>91.0</ele><time>2026-04-28T14:31:35.861Z</time></trkpt><trkpt lat="37.931158" lon="13.7917731"><ele>91.0</ele><time>2026-04-28T14:31:36.861Z</time></trkpt><trkpt lat="37.9310367" lon="13.7918076"><ele>91.0</ele><time>2026-04-28T14:31:37.861Z</time></trkpt><trkpt lat="37.9309221" lon="13.7918151"><ele>91.0</ele><time>2026-04-28T14:31:38.861Z</time></trkpt><trkpt lat="37.9308241" lon="13.7917814"><ele>90.75</ele><time>2026-04-28T14:31:39.861Z</time></trkpt><trkpt lat="37.9307573" lon="13.7916876"><ele>90.5</ele><time>2026-04-28T14:31:40.861Z</time></trkpt><trkpt lat="37.9307346" lon="13.7915627"><ele>90.25</ele><time>2026-04-28T14:31:41.861Z</time></trkpt><trkpt lat="37.9307505" lon="13.7914145"><ele>90.0</ele><time>2026-04-28T14:31:42.861Z</time></trkpt><trkpt lat="37.9307918" lon="13.7912563"><ele>90.0</ele><time>2026-04-28T14:31:43.861Z</time></trkpt><trkpt lat="37.9308274" lon="13.7910914"><ele>90.0</ele><time>2026-04-28T14:31:44.861Z</time></trkpt><trkpt lat="37.930838" lon="13.7909137"><ele>90.0</ele><time>2026-04-28T14:31:45.861Z</time></trkpt><trkpt lat="37.9308137" lon="13.7907312"><ele>90.0</ele><time>2026-04-28T14:31:46.861Z</time></trkpt><trkpt lat="37.9307612" lon="13.7905689"><ele>89.75</ele><time>2026-04-28T14:31:47.861Z</time></trkpt><trkpt lat="37.9306838" lon="13.7904299"><ele>89.5</ele><time>2026-04-28T14:31:48.861Z</time></trkpt><trkpt lat="37.9305799" lon="13.7903388"><ele>89.25</ele><time>2026-04-28T14:31:49.861Z</time></trkpt><trkpt lat="37.930451" lon="13.7903129"><ele>89.0</ele><time>2026-04-28T14:31:50.861Z</time></trkpt><trkpt lat="37.9302979" lon="13.7903155"><ele>89.0</ele><time>2026-04-28T14:31:51.861Z</time></trkpt><trkpt lat="37.9301329" lon="13.7903398"><ele>89.0</ele><time>2026-04-28T14:31:52.861Z</time></trkpt><trkpt lat="37.9299652" lon="13.7903694"><ele>89.0</ele><time>2026-04-28T14:31:53.862Z</time></trkpt><trkpt lat="37.9297962" lon="13.7904025"><ele>93.33333333333334</ele><time>2026-04-28T14:31:54.861Z</time></trkpt><trkpt lat="37.9296086" lon="13.7904525"><ele>97.66666666666667</ele><time>2026-04-28T14:31:55.861Z</time></trkpt><trkpt lat="37.9294145" lon="13.7905207"><ele>102.0</ele><time>2026-04-28T14:31:56.861Z</time></trkpt><trkpt lat="37.9292204" lon="13.7905977"><ele>104.0</ele><time>2026-04-28T14:31:57.861Z</time></trkpt><trkpt lat="37.9290278" lon="13.7906811"><ele>106.0</ele><time>2026-04-28T14:31:58.861Z</time></trkpt><trkpt lat="37.928828" lon="13.7907672"><ele>108.0</ele><time>2026-04-28T14:31:59.861Z</time></trkpt><trkpt lat="37.9286249" lon="13.7908511"><ele>108.0</ele><time>2026-04-28T14:32:00.861Z</time></trkpt><trkpt lat="37.9284152" lon="13.7909306"><ele>108.0</ele><time>2026-04-28T14:32:01.861Z</time></trkpt><trkpt lat="37.9282095" lon="13.7910137"><ele>108.0</ele><time>2026-04-28T14:32:02.861Z</time></trkpt><trkpt lat="37.928007" lon="13.7910967"><ele>110.66666666666666</ele><time>2026-04-28T14:32:03.861Z</time></trkpt><trkpt lat="37.9278053" lon="13.7911764"><ele>113.33333333333333</ele><time>2026-04-28T14:32:04.861Z</time></trkpt><trkpt lat="37.9276031" lon="13.7912584"><ele>116.0</ele><time>2026-04-28T14:32:05.861Z</time></trkpt><trkpt lat="37.9274004" lon="13.7913401"><ele>117.0</ele><time>2026-04-28T14:32:06.861Z</time></trkpt><trkpt lat="37.9272024" lon="13.7914233"><ele>118.0</ele><time>2026-04-28T14:32:07.861Z</time></trkpt><trkpt lat="37.9270028" lon="13.7915128"><ele>119.0</ele><time>2026-04-28T14:32:08.861Z</time></trkpt><trkpt lat="37.9268045" lon="13.7916062"><ele>119.0</ele><time>2026-04-28T14:32:09.861Z</time></trkpt><trkpt lat="37.9266083" lon="13.7917028"><ele>119.0</ele><time>2026-04-28T14:32:10.861Z</time></trkpt><trkpt lat="37.9264138" lon="13.7918011"><ele>119.0</ele><time>2026-04-28T14:32:11.861Z</time></trkpt><trkpt lat="37.9262256" lon="13.7918956"><ele>122.0</ele><time>2026-04-28T14:32:12.861Z</time></trkpt><trkpt lat="37.926042" lon="13.7919884"><ele>125.0</ele><time>2026-04-28T14:32:13.861Z</time></trkpt><trkpt lat="37.925861" lon="13.7920706"><ele>128.0</ele><time>2026-04-28T14:32:14.861Z</time></trkpt><trkpt lat="37.925692" lon="13.7921483"><ele>128.0</ele><time>2026-04-28T14:32:15.861Z</time></trkpt><trkpt lat="37.9255488" lon="13.7922265"><ele>128.0</ele><time>2026-04-28T14:32:16.861Z</time></trkpt><trkpt lat="37.9254021" lon="13.7923073"><ele>128.0</ele><time>2026-04-28T14:32:17.861Z</time></trkpt><trkpt lat="37.9252705" lon="13.7923888"><ele>128.0</ele><time>2026-04-28T14:32:18.861Z</time></trkpt><trkpt lat="37.9251434" lon="13.7924575"><ele>128.0</ele><time>2026-04-28T14:32:19.861Z</time></trkpt><trkpt lat="37.9250283" lon="13.7925211"><ele>128.0</ele><time>2026-04-28T14:32:20.861Z</time></trkpt><trkpt lat="37.9249167" lon="13.7925919"><ele>128.0</ele><time>2026-04-28T14:32:21.861Z</time></trkpt><trkpt lat="37.9248129" lon="13.792657"><ele>129.0</ele><time>2026-04-28T14:32:22.861Z</time></trkpt><trkpt lat="37.9246961" lon="13.7927758"><ele>130.0</ele><time>2026-04-28T14:32:23.861Z</time></trkpt><trkpt lat="37.9245429" lon="13.7929354"><ele>131.0</ele><time>2026-04-28T14:32:24.861Z</time></trkpt><trkpt lat="37.9244443" lon="13.7930589"><ele>131.0</ele><time>2026-04-28T14:32:25.861Z</time></trkpt><trkpt lat="37.9242558" lon="13.7933735"><ele>131.0</ele><time>2026-04-28T14:32:26.861Z</time></trkpt><trkpt lat="37.924197" lon="13.7935665"><ele>131.33333333333331</ele><time>2026-04-28T14:32:27.861Z</time></trkpt><trkpt lat="37.9241369" lon="13.7937701"><ele>131.66666666666666</ele><time>2026-04-28T14:32:28.861Z</time></trkpt><trkpt lat="37.9240522" lon="13.7939541"><ele>132.0</ele><time>2026-04-28T14:32:29.861Z</time></trkpt><trkpt lat="37.9239459" lon="13.7941345"><ele>132.0</ele><time>2026-04-28T14:32:30.861Z</time></trkpt><trkpt lat="37.9238148" lon="13.7942895"><ele>132.0</ele><time>2026-04-28T14:32:31.861Z</time></trkpt><trkpt lat="37.9236808" lon="13.7944128"><ele>132.0</ele><time>2026-04-28T14:32:32.861Z</time></trkpt><trkpt lat="37.9235391" lon="13.7945088"><ele>133.0</ele><time>2026-04-28T14:32:33.861Z</time></trkpt><trkpt lat="37.9233899" lon="13.7945911"><ele>134.0</ele><time>2026-04-28T14:32:34.862Z</time></trkpt><trkpt lat="37.9232483" lon="13.7946659"><ele>135.0</ele><time>2026-04-28T14:32:35.861Z</time></trkpt><trkpt lat="37.9231168" lon="13.7947526"><ele>135.0</ele><time>2026-04-28T14:32:36.861Z</time></trkpt><trkpt lat="37.9229947" lon="13.7948736"><ele>135.0</ele><time>2026-04-28T14:32:37.861Z</time></trkpt><trkpt lat="37.9228931" lon="13.7950251"><ele>135.0</ele><time>2026-04-28T14:32:38.861Z</time></trkpt><trkpt lat="37.9228028" lon="13.7951847"><ele>134.5</ele><time>2026-04-28T14:32:39.861Z</time></trkpt><trkpt lat="37.9227177" lon="13.7953344"><ele>134.0</ele><time>2026-04-28T14:32:40.861Z</time></trkpt><trkpt lat="37.9226436" lon="13.795481"><ele>133.5</ele><time>2026-04-28T14:32:41.861Z</time></trkpt><trkpt lat="37.9225915" lon="13.7956304"><ele>133.0</ele><time>2026-04-28T14:32:42.861Z</time></trkpt><trkpt lat="37.9225461" lon="13.7957815"><ele>133.0</ele><time>2026-04-28T14:32:43.861Z</time></trkpt><trkpt lat="37.9224992" lon="13.7959428"><ele>133.0</ele><time>2026-04-28T14:32:44.861Z</time></trkpt><trkpt lat="37.9224433" lon="13.796085"><ele>133.0</ele><time>2026-04-28T14:32:45.861Z</time></trkpt><trkpt lat="37.9223701" lon="13.7962142"><ele>133.0</ele><time>2026-04-28T14:32:46.861Z</time></trkpt><trkpt lat="37.9222732" lon="13.796324"><ele>134.25</ele><time>2026-04-28T14:32:47.861Z</time></trkpt><trkpt lat="37.9221645" lon="13.7963897"><ele>135.5</ele><time>2026-04-28T14:32:48.861Z</time></trkpt><trkpt lat="37.9220647" lon="13.7963897"><ele>136.75</ele><time>2026-04-28T14:32:49.861Z</time></trkpt><trkpt lat="37.9219725" lon="13.7963348"><ele>138.0</ele><time>2026-04-28T14:32:50.861Z</time></trkpt><trkpt lat="37.921889" lon="13.7962081"><ele>138.0</ele><time>2026-04-28T14:32:51.861Z</time></trkpt><trkpt lat="37.9218134" lon="13.796084"><ele>138.0</ele><time>2026-04-28T14:32:52.861Z</time></trkpt><trkpt lat="37.9217499" lon="13.7959718"><ele>138.0</ele><time>2026-04-28T14:32:53.862Z</time></trkpt><trkpt lat="37.921676" lon="13.7958867"><ele>138.0</ele><time>2026-04-28T14:32:54.861Z</time></trkpt><trkpt lat="37.9215886" lon="13.7958224"><ele>138.0</ele><time>2026-04-28T14:32:55.861Z</time></trkpt><trkpt lat="37.9214746" lon="13.7957954"><ele>137.75</ele><time>2026-04-28T14:32:56.861Z</time></trkpt><trkpt lat="37.9213615" lon="13.795831"><ele>137.5</ele><time>2026-04-28T14:32:57.861Z</time></trkpt><trkpt lat="37.9212431" lon="13.7959247"><ele>137.25</ele><time>2026-04-28T14:32:58.861Z</time></trkpt><trkpt lat="37.9211249" lon="13.7960664"><ele>137.0</ele><time>2026-04-28T14:32:59.861Z</time></trkpt><trkpt lat="37.9210227" lon="13.7962267"><ele>139.75</ele><time>2026-04-28T14:33:00.861Z</time></trkpt><trkpt lat="37.9209377" lon="13.7963747"><ele>142.5</ele><time>2026-04-28T14:33:01.861Z</time></trkpt><trkpt lat="37.9208704" lon="13.7965235"><ele>145.25</ele><time>2026-04-28T14:33:02.861Z</time></trkpt><trkpt lat="37.9208253" lon="13.7966736"><ele>148.0</ele><time>2026-04-28T14:33:03.861Z</time></trkpt><trkpt lat="37.9207914" lon="13.796818"><ele>150.0</ele><time>2026-04-28T14:33:04.861Z</time></trkpt><trkpt lat="37.9207569" lon="13.7969606"><ele>152.0</ele><time>2026-04-28T14:33:05.861Z</time></trkpt><trkpt lat="37.9206932" lon="13.797257"><ele>154.0</ele><time>2026-04-28T14:33:07.861Z</time></trkpt><trkpt lat="37.920665" lon="13.7974004"><ele>154.0</ele><time>2026-04-28T14:33:08.861Z</time></trkpt><trkpt lat="37.92063" lon="13.7975351"><ele>154.0</ele><time>2026-04-28T14:33:09.861Z</time></trkpt><trkpt lat="37.9205758" lon="13.7976534"><ele>154.0</ele><time>2026-04-28T14:33:10.861Z</time></trkpt><trkpt lat="37.9205064" lon="13.797756"><ele>154.0</ele><time>2026-04-28T14:33:11.861Z</time></trkpt><trkpt lat="37.920413" lon="13.7978526"><ele>154.0</ele><time>2026-04-28T14:33:12.861Z</time></trkpt><trkpt lat="37.9202912" lon="13.7979427"><ele>155.33333333333334</ele><time>2026-04-28T14:33:13.861Z</time></trkpt><trkpt lat="37.9201499" lon="13.798036"><ele>156.66666666666666</ele><time>2026-04-28T14:33:14.862Z</time></trkpt><trkpt lat="37.9199984" lon="13.7981453"><ele>158.0</ele><time>2026-04-28T14:33:15.861Z</time></trkpt><trkpt lat="37.9198489" lon="13.7982554"><ele>158.0</ele><time>2026-04-28T14:33:16.861Z</time></trkpt><trkpt lat="37.9197037" lon="13.79836"><ele>158.0</ele><time>2026-04-28T14:33:17.861Z</time></trkpt><trkpt lat="37.9195629" lon="13.7984809"><ele>158.0</ele><time>2026-04-28T14:33:18.861Z</time></trkpt><trkpt lat="37.919444" lon="13.7986229"><ele>160.66666666666666</ele><time>2026-04-28T14:33:19.861Z</time></trkpt><trkpt lat="37.9193577" lon="13.7988141"><ele>163.33333333333334</ele><time>2026-04-28T14:33:20.861Z</time></trkpt><trkpt lat="37.9193112" lon="13.799034"><ele>166.0</ele><time>2026-04-28T14:33:21.861Z</time></trkpt><trkpt lat="37.9192917" lon="13.7992653"><ele>167.66666666666669</ele><time>2026-04-28T14:33:22.861Z</time></trkpt><trkpt lat="37.9193055" lon="13.7995071"><ele>169.33333333333334</ele><time>2026-04-28T14:33:23.861Z</time></trkpt><trkpt lat="37.919326" lon="13.7997491"><ele>171.0</ele><time>2026-04-28T14:33:24.861Z</time></trkpt><trkpt lat="37.9193364" lon="13.8000025"><ele>173.0</ele><time>2026-04-28T14:33:25.861Z</time></trkpt><trkpt lat="37.9193211" lon="13.8002568"><ele>175.0</ele><time>2026-04-28T14:33:26.861Z</time></trkpt><trkpt lat="37.9192887" lon="13.8004918"><ele>177.0</ele><time>2026-04-28T14:33:27.861Z</time></trkpt><trkpt lat="37.9192459" lon="13.8007044"><ele>175.33333333333334</ele><time>2026-04-28T14:33:28.861Z</time></trkpt><trkpt lat="37.9191988" lon="13.8009023"><ele>173.66666666666669</ele><time>2026-04-28T14:33:29.861Z</time></trkpt><trkpt lat="37.9191446" lon="13.8010981"><ele>172.0</ele><time>2026-04-28T14:33:30.862Z</time></trkpt><trkpt lat="37.9190764" lon="13.8012875"><ele>172.0</ele><time>2026-04-28T14:33:31.861Z</time></trkpt><trkpt lat="37.9189906" lon="13.8014449"><ele>172.0</ele><time>2026-04-28T14:33:32.861Z</time></trkpt><trkpt lat="37.9188893" lon="13.8015937"><ele>172.0</ele><time>2026-04-28T14:33:33.861Z</time></trkpt><trkpt lat="37.9187709" lon="13.801719"><ele>172.0</ele><time>2026-04-28T14:33:34.861Z</time></trkpt><trkpt lat="37.9186325" lon="13.8018301"><ele>172.0</ele><time>2026-04-28T14:33:35.861Z</time></trkpt><trkpt lat="37.9184828" lon="13.801922"><ele>172.0</ele><time>2026-04-28T14:33:36.861Z</time></trkpt><trkpt lat="37.9183254" lon="13.8019937"><ele>173.5</ele><time>2026-04-28T14:33:37.861Z</time></trkpt><trkpt lat="37.9181798" lon="13.8020211"><ele>175.0</ele><time>2026-04-28T14:33:38.861Z</time></trkpt><trkpt lat="37.9180378" lon="13.8020019"><ele>176.5</ele><time>2026-04-28T14:33:39.861Z</time></trkpt><trkpt lat="37.9179008" lon="13.8019392"><ele>178.0</ele><time>2026-04-28T14:33:40.861Z</time></trkpt><trkpt lat="37.9177698" lon="13.801832"><ele>176.66666666666669</ele><time>2026-04-28T14:33:41.861Z</time></trkpt><trkpt lat="37.9176285" lon="13.801713"><ele>175.33333333333334</ele><time>2026-04-28T14:33:42.861Z</time></trkpt><trkpt lat="37.917485" lon="13.8015961"><ele>174.0</ele><time>2026-04-28T14:33:43.861Z</time></trkpt><trkpt lat="37.9173462" lon="13.8014926"><ele>174.0</ele><time>2026-04-28T14:33:44.861Z</time></trkpt><trkpt lat="37.9171984" lon="13.8014279"><ele>174.0</ele><time>2026-04-28T14:33:45.861Z</time></trkpt><trkpt lat="37.9170417" lon="13.8014237"><ele>174.0</ele><time>2026-04-28T14:33:46.861Z</time></trkpt><trkpt lat="37.916913" lon="13.8014671"><ele>174.0</ele><time>2026-04-28T14:33:47.861Z</time></trkpt><trkpt lat="37.916813" lon="13.8015663"><ele>174.0</ele><time>2026-04-28T14:33:48.861Z</time></trkpt><trkpt lat="37.9167509" lon="13.8017034"><ele>174.0</ele><time>2026-04-28T14:33:49.861Z</time></trkpt><trkpt lat="37.9167275" lon="13.8018833"><ele>174.0</ele><time>2026-04-28T14:33:50.861Z</time></trkpt><trkpt lat="37.9167307" lon="13.8020608"><ele>174.0</ele><time>2026-04-28T14:33:51.861Z</time></trkpt><trkpt lat="37.9167341" lon="13.8022159"><ele>176.0</ele><time>2026-04-28T14:33:52.861Z</time></trkpt><trkpt lat="37.9167104" lon="13.8023395"><ele>178.0</ele><time>2026-04-28T14:33:53.861Z</time></trkpt><trkpt lat="37.9166469" lon="13.8024342"><ele>180.0</ele><time>2026-04-28T14:33:54.861Z</time></trkpt><trkpt lat="37.9165408" lon="13.8025017"><ele>182.0</ele><time>2026-04-28T14:33:55.861Z</time></trkpt><trkpt lat="37.9164116" lon="13.8025322"><ele>184.0</ele><time>2026-04-28T14:33:56.861Z</time></trkpt><trkpt lat="37.9162751" lon="13.8025437"><ele>184.0</ele><time>2026-04-28T14:33:57.861Z</time></trkpt><trkpt lat="37.9161151" lon="13.802539"><ele>184.0</ele><time>2026-04-28T14:33:58.861Z</time></trkpt><trkpt lat="37.9159597" lon="13.802525"><ele>184.0</ele><time>2026-04-28T14:33:59.861Z</time></trkpt><trkpt lat="37.9158185" lon="13.8025184"><ele>185.66666666666669</ele><time>2026-04-28T14:34:00.861Z</time></trkpt><trkpt lat="37.91568" lon="13.8025437"><ele>187.33333333333334</ele><time>2026-04-28T14:34:01.861Z</time></trkpt><trkpt lat="37.915532" lon="13.8026255"><ele>189.0</ele><time>2026-04-28T14:34:02.861Z</time></trkpt><trkpt lat="37.9153901" lon="13.8027441"><ele>191.0</ele><time>2026-04-28T14:34:03.861Z</time></trkpt><trkpt lat="37.9152349" lon="13.8028826"><ele>193.0</ele><time>2026-04-28T14:34:04.861Z</time></trkpt><trkpt lat="37.9150843" lon="13.8030158"><ele>195.0</ele><time>2026-04-28T14:34:05.861Z</time></trkpt><trkpt lat="37.9149443" lon="13.8031485"><ele>196.0</ele><time>2026-04-28T14:34:06.861Z</time></trkpt><trkpt lat="37.9148004" lon="13.8032804"><ele>197.0</ele><time>2026-04-28T14:34:07.861Z</time></trkpt><trkpt lat="37.9146414" lon="13.8033952"><ele>198.0</ele><time>2026-04-28T14:34:08.861Z</time></trkpt><trkpt lat="37.9144619" lon="13.8034716"><ele>201.66666666666669</ele><time>2026-04-28T14:34:09.861Z</time></trkpt><trkpt lat="37.9142803" lon="13.803542"><ele>205.33333333333334</ele><time>2026-04-28T14:34:10.861Z</time></trkpt><trkpt lat="37.9141041" lon="13.8036329"><ele>209.0</ele><time>2026-04-28T14:34:11.861Z</time></trkpt><trkpt lat="37.9139386" lon="13.803759"><ele>210.0</ele><time>2026-04-28T14:34:12.861Z</time></trkpt><trkpt lat="37.9137898" lon="13.8038936"><ele>211.0</ele><time>2026-04-28T14:34:13.861Z</time></trkpt><trkpt lat="37.9136705" lon="13.8040403"><ele>212.0</ele><time>2026-04-28T14:34:14.861Z</time></trkpt><trkpt lat="37.9135682" lon="13.8041833"><ele>213.66666666666669</ele><time>2026-04-28T14:34:15.861Z</time></trkpt><trkpt lat="37.9135057" lon="13.804342"><ele>215.33333333333331</ele><time>2026-04-28T14:34:16.861Z</time></trkpt><trkpt lat="37.9134778" lon="13.8045339"><ele>217.0</ele><time>2026-04-28T14:34:17.861Z</time></trkpt><trkpt lat="37.91351" lon="13.8047396"><ele>217.0</ele><time>2026-04-28T14:34:18.861Z</time></trkpt><trkpt lat="37.9135957" lon="13.8049187"><ele>217.0</ele><time>2026-04-28T14:34:19.861Z</time></trkpt><trkpt lat="37.91368" lon="13.8050673"><ele>217.0</ele><time>2026-04-28T14:34:20.861Z</time></trkpt><trkpt lat="37.9137426" lon="13.8052008"><ele>217.0</ele><time>2026-04-28T14:34:21.861Z</time></trkpt><trkpt lat="37.9137719" lon="13.8053432"><ele>218.33333333333331</ele><time>2026-04-28T14:34:22.861Z</time></trkpt><trkpt lat="37.913751" lon="13.8055169"><ele>219.66666666666669</ele><time>2026-04-28T14:34:23.861Z</time></trkpt><trkpt lat="37.9136742" lon="13.8056929"><ele>221.0</ele><time>2026-04-28T14:34:24.861Z</time></trkpt><trkpt lat="37.9135663" lon="13.8058551"><ele>221.0</ele><time>2026-04-28T14:34:25.862Z</time></trkpt><trkpt lat="37.9134154" lon="13.8060143"><ele>221.0</ele><time>2026-04-28T14:34:26.861Z</time></trkpt><trkpt lat="37.9132492" lon="13.8061796"><ele>221.0</ele><time>2026-04-28T14:34:27.861Z</time></trkpt><trkpt lat="37.9131107" lon="13.8063554"><ele>221.0</ele><time>2026-04-28T14:34:28.861Z</time></trkpt><trkpt lat="37.9129961" lon="13.8065332"><ele>221.0</ele><time>2026-04-28T14:34:29.861Z</time></trkpt><trkpt lat="37.9128767" lon="13.8067005"><ele>221.0</ele><time>2026-04-28T14:34:30.861Z</time></trkpt><trkpt lat="37.9127411" lon="13.806829"><ele>223.33333333333334</ele><time>2026-04-28T14:34:31.862Z</time></trkpt><trkpt lat="37.912579" lon="13.8069118"><ele>225.66666666666669</ele><time>2026-04-28T14:34:32.861Z</time></trkpt><trkpt lat="37.912388" lon="13.8069816"><ele>228.0</ele><time>2026-04-28T14:34:33.861Z</time></trkpt><trkpt lat="37.9121908" lon="13.80703"><ele>228.0</ele><time>2026-04-28T14:34:34.861Z</time></trkpt><trkpt lat="37.9120013" lon="13.8070669"><ele>228.0</ele><time>2026-04-28T14:34:35.861Z</time></trkpt><trkpt lat="37.9118166" lon="13.8070915"><ele>228.0</ele><time>2026-04-28T14:34:36.861Z</time></trkpt><trkpt lat="37.9116535" lon="13.807113"><ele>228.25</ele><time>2026-04-28T14:34:37.861Z</time></trkpt><trkpt lat="37.9115099" lon="13.8071524"><ele>228.5</ele><time>2026-04-28T14:34:38.861Z</time></trkpt><trkpt lat="37.9113684" lon="13.8072101"><ele>228.75</ele><time>2026-04-28T14:34:39.861Z</time></trkpt><trkpt lat="37.9112456" lon="13.8073093"><ele>229.0</ele><time>2026-04-28T14:34:40.861Z</time></trkpt><trkpt lat="37.9111264" lon="13.8074509"><ele>229.0</ele><time>2026-04-28T14:34:41.861Z</time></trkpt><trkpt lat="37.9110116" lon="13.8076191"><ele>229.0</ele><time>2026-04-28T14:34:42.861Z</time></trkpt><trkpt lat="37.9109026" lon="13.8078017"><ele>229.0</ele><time>2026-04-28T14:34:43.861Z</time></trkpt><trkpt lat="37.9107943" lon="13.8079817"><ele>231.33333333333331</ele><time>2026-04-28T14:34:44.861Z</time></trkpt><trkpt lat="37.9106891" lon="13.8081599"><ele>233.66666666666669</ele><time>2026-04-28T14:34:45.861Z</time></trkpt><trkpt lat="37.9105827" lon="13.8083288"><ele>236.0</ele><time>2026-04-28T14:34:46.861Z</time></trkpt><trkpt lat="37.9104949" lon="13.8084811"><ele>237.0</ele><time>2026-04-28T14:34:47.862Z</time></trkpt><trkpt lat="37.9104182" lon="13.8086413"><ele>238.0</ele><time>2026-04-28T14:34:48.861Z</time></trkpt><trkpt lat="37.9103703" lon="13.8088224"><ele>239.0</ele><time>2026-04-28T14:34:49.861Z</time></trkpt><trkpt lat="37.9103496" lon="13.8090223"><ele>239.0</ele><time>2026-04-28T14:34:50.861Z</time></trkpt><trkpt lat="37.9103428" lon="13.8092125"><ele>239.0</ele><time>2026-04-28T14:34:51.861Z</time></trkpt><trkpt lat="37.910333" lon="13.8093932"><ele>239.0</ele><time>2026-04-28T14:34:52.861Z</time></trkpt><trkpt lat="37.9103217" lon="13.8095596"><ele>239.0</ele><time>2026-04-28T14:34:53.861Z</time></trkpt><trkpt lat="37.9102757" lon="13.809697"><ele>240.0</ele><time>2026-04-28T14:34:54.861Z</time></trkpt><trkpt lat="37.9101928" lon="13.8098025"><ele>241.0</ele><time>2026-04-28T14:34:55.861Z</time></trkpt><trkpt lat="37.9100734" lon="13.8098887"><ele>242.0</ele><time>2026-04-28T14:34:56.861Z</time></trkpt><trkpt lat="37.909928" lon="13.8099706"><ele>243.0</ele><time>2026-04-28T14:34:57.861Z</time></trkpt><trkpt lat="37.909763" lon="13.8100406"><ele>242.33333333333331</ele><time>2026-04-28T14:34:58.861Z</time></trkpt><trkpt lat="37.9095895" lon="13.8101024"><ele>241.66666666666666</ele><time>2026-04-28T14:34:59.861Z</time></trkpt><trkpt lat="37.9094002" lon="13.8101403"><ele>241.0</ele><time>2026-04-28T14:35:00.861Z</time></trkpt><trkpt lat="37.9092153" lon="13.8101556"><ele>245.0</ele><time>2026-04-28T14:35:01.861Z</time></trkpt><trkpt lat="37.9090346" lon="13.8101651"><ele>249.0</ele><time>2026-04-28T14:35:02.861Z</time></trkpt><trkpt lat="37.9088719" lon="13.8101658"><ele>253.0</ele><time>2026-04-28T14:35:03.861Z</time></trkpt><trkpt lat="37.9087251" lon="13.8101683"><ele>253.0</ele><time>2026-04-28T14:35:04.861Z</time></trkpt><trkpt lat="37.9086023" lon="13.8101916"><ele>253.0</ele><time>2026-04-28T14:35:05.861Z</time></trkpt><trkpt lat="37.9085042" lon="13.8102423"><ele>253.0</ele><time>2026-04-28T14:35:06.861Z</time></trkpt><trkpt lat="37.9084243" lon="13.810302"><ele>253.0</ele><time>2026-04-28T14:35:07.861Z</time></trkpt><trkpt lat="37.9083472" lon="13.8103786"><ele>253.0</ele><time>2026-04-28T14:35:08.861Z</time></trkpt><trkpt lat="37.9082663" lon="13.8104631"><ele>253.75</ele><time>2026-04-28T14:35:09.861Z</time></trkpt><trkpt lat="37.908191" lon="13.8105668"><ele>254.5</ele><time>2026-04-28T14:35:10.861Z</time></trkpt><trkpt lat="37.9081335" lon="13.8107125"><ele>255.25</ele><time>2026-04-28T14:35:11.861Z</time></trkpt><trkpt lat="37.9080732" lon="13.8108737"><ele>256.0</ele><time>2026-04-28T14:35:12.861Z</time></trkpt><trkpt lat="37.9080179" lon="13.8110295"><ele>256.0</ele><time>2026-04-28T14:35:13.861Z</time></trkpt><trkpt lat="37.9079648" lon="13.8111735"><ele>256.0</ele><time>2026-04-28T14:35:14.861Z</time></trkpt><trkpt lat="37.9079159" lon="13.8113099"><ele>256.0</ele><time>2026-04-28T14:35:15.861Z</time></trkpt><trkpt lat="37.9078652" lon="13.8114484"><ele>256.0</ele><time>2026-04-28T14:35:16.861Z</time></trkpt><trkpt lat="37.9078134" lon="13.8115784"><ele>256.0</ele><time>2026-04-28T14:35:17.861Z</time></trkpt><trkpt lat="37.9077481" lon="13.8117014"><ele>256.0</ele><time>2026-04-28T14:35:18.861Z</time></trkpt><trkpt lat="37.9076814" lon="13.8118329"><ele>256.0</ele><time>2026-04-28T14:35:19.861Z</time></trkpt><trkpt lat="37.90762" lon="13.8119665"><ele>256.0</ele><time>2026-04-28T14:35:20.861Z</time></trkpt><trkpt lat="37.9075756" lon="13.8121063"><ele>256.5</ele><time>2026-04-28T14:35:21.861Z</time></trkpt><trkpt lat="37.9075572" lon="13.8122354"><ele>257.0</ele><time>2026-04-28T14:35:22.861Z</time></trkpt><trkpt lat="37.9075573" lon="13.812351"><ele>257.5</ele><time>2026-04-28T14:35:23.861Z</time></trkpt><trkpt lat="37.9075701" lon="13.8124576"><ele>258.0</ele><time>2026-04-28T14:35:24.861Z</time></trkpt><trkpt lat="37.9075774" lon="13.8125433"><ele>258.5</ele><time>2026-04-28T14:35:25.861Z</time></trkpt><trkpt lat="37.907581" lon="13.8126283"><ele>259.0</ele><time>2026-04-28T14:35:26.861Z</time></trkpt><trkpt lat="37.907579" lon="13.8127162"><ele>260.0</ele><time>2026-04-28T14:35:27.861Z</time></trkpt><trkpt lat="37.9075549" lon="13.8127938"><ele>261.0</ele><time>2026-04-28T14:35:28.861Z</time></trkpt><trkpt lat="37.9075083" lon="13.8128679"><ele>262.0</ele><time>2026-04-28T14:35:29.861Z</time></trkpt><trkpt lat="37.9074612" lon="13.8129291"><ele>263.0</ele><time>2026-04-28T14:35:30.861Z</time></trkpt><trkpt lat="37.9074005" lon="13.8129708"><ele>264.0</ele><time>2026-04-28T14:35:31.861Z</time></trkpt><trkpt lat="37.9073322" lon="13.8130069"><ele>265.0</ele><time>2026-04-28T14:35:32.861Z</time></trkpt><trkpt lat="37.9072653" lon="13.8130422"><ele>266.0</ele><time>2026-04-28T14:35:33.861Z</time></trkpt><trkpt lat="37.907194" lon="13.813081"><ele>266.0</ele><time>2026-04-28T14:35:34.862Z</time></trkpt><trkpt lat="37.9071212" lon="13.8131237"><ele>266.0</ele><time>2026-04-28T14:35:35.861Z</time></trkpt><trkpt lat="37.9070464" lon="13.8131617"><ele>266.0</ele><time>2026-04-28T14:35:36.861Z</time></trkpt><trkpt lat="37.9069737" lon="13.8132042"><ele>266.0</ele><time>2026-04-28T14:35:37.861Z</time></trkpt><trkpt lat="37.9069076" lon="13.8132509"><ele>266.0</ele><time>2026-04-28T14:35:38.861Z</time></trkpt><trkpt lat="37.9068439" lon="13.8132993"><ele>266.0</ele><time>2026-04-28T14:35:39.861Z</time></trkpt><trkpt lat="37.9067739" lon="13.8133457"><ele>267.0</ele><time>2026-04-28T14:35:40.861Z</time></trkpt><trkpt lat="37.9066901" lon="13.8133985"><ele>268.0</ele><time>2026-04-28T14:35:41.861Z</time></trkpt><trkpt lat="37.9065807" lon="13.8134779"><ele>269.0</ele><time>2026-04-28T14:35:42.861Z</time></trkpt><trkpt lat="37.9064637" lon="13.8135491"><ele>270.0</ele><time>2026-04-28T14:35:43.861Z</time></trkpt><trkpt lat="37.9063441" lon="13.8136191"><ele>270.75</ele><time>2026-04-28T14:35:44.861Z</time></trkpt><trkpt lat="37.9062231" lon="13.8136873"><ele>271.5</ele><time>2026-04-28T14:35:45.861Z</time></trkpt><trkpt lat="37.9061151" lon="13.8137509"><ele>272.25</ele><time>2026-04-28T14:35:46.861Z</time></trkpt><trkpt lat="37.9060081" lon="13.8138002"><ele>273.0</ele><time>2026-04-28T14:35:47.861Z</time></trkpt><trkpt lat="37.9059103" lon="13.8138505"><ele>273.0</ele><time>2026-04-28T14:35:48.861Z</time></trkpt><trkpt lat="37.9058149" lon="13.8138868"><ele>273.0</ele><time>2026-04-28T14:35:49.861Z</time></trkpt><trkpt lat="37.9057258" lon="13.8139266"><ele>273.0</ele><time>2026-04-28T14:35:50.861Z</time></trkpt><trkpt lat="37.9056403" lon="13.8139718"><ele>273.0</ele><time>2026-04-28T14:35:51.861Z</time></trkpt><trkpt lat="37.9055621" lon="13.8140153"><ele>273.0</ele><time>2026-04-28T14:35:52.861Z</time></trkpt><trkpt lat="37.9054912" lon="13.8140538"><ele>273.0</ele><time>2026-04-28T14:35:53.861Z</time></trkpt><trkpt lat="37.9054334" lon="13.8140875"><ele>273.0</ele><time>2026-04-28T14:35:54.861Z</time></trkpt><trkpt lat="37.9053737" lon="13.8141198"><ele>273.0</ele><time>2026-04-28T14:35:55.861Z</time></trkpt><trkpt lat="37.9053083" lon="13.8141467"><ele>273.0</ele><time>2026-04-28T14:35:56.861Z</time></trkpt><trkpt lat="37.9052443" lon="13.8141809"><ele>273.0</ele><time>2026-04-28T14:35:57.861Z</time></trkpt><trkpt lat="37.9051767" lon="13.8142118"><ele>273.0</ele><time>2026-04-28T14:35:58.861Z</time></trkpt><trkpt lat="37.9051112" lon="13.8142322"><ele>273.0</ele><time>2026-04-28T14:35:59.861Z</time></trkpt><trkpt lat="37.9050506" lon="13.814257"><ele>273.0</ele><time>2026-04-28T14:36:00.861Z</time></trkpt><trkpt lat="37.9049884" lon="13.8142734"><ele>272.3333333333333</ele><time>2026-04-28T14:36:01.861Z</time></trkpt><trkpt lat="37.9049221" lon="13.8142948"><ele>271.6666666666667</ele><time>2026-04-28T14:36:02.861Z</time></trkpt><trkpt lat="37.9048581" lon="13.8143195"><ele>271.0</ele><time>2026-04-28T14:36:03.861Z</time></trkpt><trkpt lat="37.9047912" lon="13.8143496"><ele>270.33333333333337</ele><time>2026-04-28T14:36:04.861Z</time></trkpt><trkpt lat="37.904729" lon="13.8143807"><ele>269.6666666666667</ele><time>2026-04-28T14:36:05.862Z</time></trkpt><trkpt lat="37.9046254" lon="13.8144365"><ele>269.0</ele><time>2026-04-28T14:36:07.861Z</time></trkpt><trkpt lat="37.9045271" lon="13.8144773"><ele>270.4</ele><time>2026-04-28T14:36:09.861Z</time></trkpt><trkpt lat="37.9044325" lon="13.8145217"><ele>271.79999999999995</ele><time>2026-04-28T14:36:11.861Z</time></trkpt><trkpt lat="37.9043168" lon="13.8145663"><ele>273.20000000000005</ele><time>2026-04-28T14:36:13.861Z</time></trkpt><trkpt lat="37.9042341" lon="13.8145904"><ele>274.6</ele><time>2026-04-28T14:36:15.861Z</time></trkpt><trkpt lat="37.904137" lon="13.8146217"><ele>276.0</ele><time>2026-04-28T14:36:18.861Z</time></trkpt><trkpt lat="37.9040368" lon="13.8146759"><ele>276.0</ele><time>2026-04-28T14:36:20.861Z</time></trkpt><trkpt lat="37.9039322" lon="13.814735"><ele>276.0</ele><time>2026-04-28T14:36:22.861Z</time></trkpt><trkpt lat="37.9038258" lon="13.8147866"><ele>276.0</ele><time>2026-04-28T14:36:24.861Z</time></trkpt><trkpt lat="37.9037168" lon="13.8148392"><ele>276.0</ele><time>2026-04-28T14:36:26.861Z</time></trkpt><trkpt lat="37.9036294" lon="13.8148832"><ele>276.0</ele><time>2026-04-28T14:36:28.861Z</time></trkpt><trkpt lat="37.9035438" lon="13.8149184"><ele>276.0</ele><time>2026-04-28T14:36:30.861Z</time></trkpt><trkpt lat="37.9034635" lon="13.8149613"><ele>276.0</ele><time>2026-04-28T14:36:32.861Z</time></trkpt><trkpt lat="37.903388" lon="13.8150041"><ele>276.0</ele><time>2026-04-28T14:36:34.861Z</time></trkpt><trkpt lat="37.9033246" lon="13.8150346"><ele>276.0</ele><time>2026-04-28T14:36:36.861Z</time></trkpt><trkpt lat="37.9032648" lon="13.8150924"><ele>276.0</ele><time>2026-04-28T14:36:41.861Z</time></trkpt><trkpt lat="37.9031236" lon="13.815155"><ele>277.1666666666667</ele><time>2026-04-28T14:36:55.861Z</time></trkpt><trkpt lat="37.9030467" lon="13.8151924"><ele>278.3333333333333</ele><time>2026-04-28T14:36:57.861Z</time></trkpt><trkpt lat="37.9029866" lon="13.8152185"><ele>279.5</ele><time>2026-04-28T14:36:59.861Z</time></trkpt><trkpt lat="37.902903" lon="13.8152539"><ele>280.66666666666663</ele><time>2026-04-28T14:37:01.861Z</time></trkpt><trkpt lat="37.90282" lon="13.8152798"><ele>281.8333333333333</ele><time>2026-04-28T14:37:03.861Z</time></trkpt><trkpt lat="37.9027584" lon="13.8153041"><ele>283.0</ele><time>2026-04-28T14:37:05.861Z</time></trkpt><trkpt lat="37.9026851" lon="13.8153381"><ele>283.0</ele><time>2026-04-28T14:37:07.861Z</time></trkpt><trkpt lat="37.9025747" lon="13.8153828"><ele>283.0</ele><time>2026-04-28T14:37:09.861Z</time></trkpt><trkpt lat="37.9024651" lon="13.8154437"><ele>283.0</ele><time>2026-04-28T14:37:11.861Z</time></trkpt><trkpt lat="37.9023483" lon="13.8154874"><ele>283.0</ele><time>2026-04-28T14:37:13.861Z</time></trkpt><trkpt lat="37.9022297" lon="13.8155391"><ele>283.0</ele><time>2026-04-28T14:37:15.861Z</time></trkpt><trkpt lat="37.9021353" lon="13.8155831"><ele>283.0</ele><time>2026-04-28T14:37:17.861Z</time></trkpt><trkpt lat="37.9020652" lon="13.815618"><ele>283.0</ele><time>2026-04-28T14:37:19.861Z</time></trkpt><trkpt lat="37.902" lon="13.8156368"><ele>283.0</ele><time>2026-04-28T14:37:21.861Z</time></trkpt><trkpt lat="37.9019204" lon="13.8156561"><ele>283.0</ele><time>2026-04-28T14:37:26.861Z</time></trkpt><trkpt lat="37.9018536" lon="13.8156882"><ele>283.0</ele><time>2026-04-28T14:37:29.86Z</time></trkpt><trkpt lat="37.9017659" lon="13.8157075"><ele>283.0</ele><time>2026-04-28T14:37:31.86Z</time></trkpt><trkpt lat="37.9016767" lon="13.8157464"><ele>283.0</ele><time>2026-04-28T14:37:33.86Z</time></trkpt><trkpt lat="37.9015869" lon="13.8157804"><ele>283.0</ele><time>2026-04-28T14:37:35.86Z</time></trkpt><trkpt lat="37.9014973" lon="13.8158114"><ele>283.0</ele><time>2026-04-28T14:37:37.86Z</time></trkpt><trkpt lat="37.9014088" lon="13.8158541"><ele>283.0</ele><time>2026-04-28T14:37:39.86Z</time></trkpt><trkpt lat="37.9013405" lon="13.8158798"><ele>283.0</ele><time>2026-04-28T14:37:41.86Z</time></trkpt><trkpt lat="37.9012755" lon="13.8159052"><ele>283.0</ele><time>2026-04-28T14:37:43.86Z</time></trkpt><trkpt lat="37.9011931" lon="13.8159398"><ele>283.0</ele><time>2026-04-28T14:37:45.86Z</time></trkpt><trkpt lat="37.9010941" lon="13.8160183"><ele>283.0</ele><time>2026-04-28T14:37:47.86Z</time></trkpt><trkpt lat="37.9009747" lon="13.8161246"><ele>283.0</ele><time>2026-04-28T14:37:49.86Z</time></trkpt><trkpt lat="37.9009091" lon="13.8161943"><ele>283.0</ele><time>2026-04-28T14:37:50.86Z</time></trkpt><trkpt lat="37.9008584" lon="13.8162771"><ele>283.57142857142856</ele><time>2026-04-28T14:37:51.86Z</time></trkpt><trkpt lat="37.900822" lon="13.8163505"><ele>284.14285714285717</ele><time>2026-04-28T14:37:52.86Z</time></trkpt><trkpt lat="37.9007949" lon="13.8164265"><ele>284.7142857142857</ele><time>2026-04-28T14:37:53.86Z</time></trkpt><trkpt lat="37.9007686" lon="13.8165108"><ele>285.2857142857143</ele><time>2026-04-28T14:37:54.86Z</time></trkpt><trkpt lat="37.9007439" lon="13.8165996"><ele>285.8571428571429</ele><time>2026-04-28T14:37:55.86Z</time></trkpt><trkpt lat="37.9007091" lon="13.8166891"><ele>286.42857142857144</ele><time>2026-04-28T14:37:56.86Z</time></trkpt><trkpt lat="37.9006661" lon="13.8167743"><ele>287.0</ele><time>2026-04-28T14:37:57.86Z</time></trkpt><trkpt lat="37.9006063" lon="13.8168366"><ele>287.0</ele><time>2026-04-28T14:37:58.86Z</time></trkpt><trkpt lat="37.9005335" lon="13.8168521"><ele>287.0</ele><time>2026-04-28T14:37:59.861Z</time></trkpt><trkpt lat="37.9004636" lon="13.8168238"><ele>287.0</ele><time>2026-04-28T14:38:00.86Z</time></trkpt><trkpt lat="37.9003942" lon="13.8167505"><ele>287.0</ele><time>2026-04-28T14:38:01.86Z</time></trkpt><trkpt lat="37.9003141" lon="13.8166534"><ele>287.0</ele><time>2026-04-28T14:38:02.86Z</time></trkpt><trkpt lat="37.9002437" lon="13.8165382"><ele>287.0</ele><time>2026-04-28T14:38:03.86Z</time></trkpt><trkpt lat="37.9001849" lon="13.8164165"><ele>287.0</ele><time>2026-04-28T14:38:04.86Z</time></trkpt><trkpt lat="37.9001375" lon="13.816301"><ele>287.0</ele><time>2026-04-28T14:38:05.861Z</time></trkpt><trkpt lat="37.9000941" lon="13.8161882"><ele>287.0</ele><time>2026-04-28T14:38:06.86Z</time></trkpt><trkpt lat="37.9000531" lon="13.8160861"><ele>287.0</ele><time>2026-04-28T14:38:07.86Z</time></trkpt><trkpt lat="37.900012" lon="13.8159924"><ele>285.75</ele><time>2026-04-28T14:38:08.86Z</time></trkpt><trkpt lat="37.8999592" lon="13.815893"><ele>284.5</ele><time>2026-04-28T14:38:09.86Z</time></trkpt><trkpt lat="37.899882" lon="13.8157819"><ele>283.25</ele><time>2026-04-28T14:38:10.86Z</time></trkpt><trkpt lat="37.8997905" lon="13.8156525"><ele>282.0</ele><time>2026-04-28T14:38:11.86Z</time></trkpt><trkpt lat="37.8996899" lon="13.8155062"><ele>282.0</ele><time>2026-04-28T14:38:12.86Z</time></trkpt><trkpt lat="37.8995794" lon="13.8153489"><ele>282.0</ele><time>2026-04-28T14:38:13.86Z</time></trkpt><trkpt lat="37.8994693" lon="13.815197"><ele>282.0</ele><time>2026-04-28T14:38:14.86Z</time></trkpt><trkpt lat="37.8993578" lon="13.815035"><ele>280.3333333333333</ele><time>2026-04-28T14:38:15.86Z</time></trkpt><trkpt lat="37.8992525" lon="13.8148573"><ele>278.66666666666663</ele><time>2026-04-28T14:38:16.86Z</time></trkpt><trkpt lat="37.8991563" lon="13.8146627"><ele>277.0</ele><time>2026-04-28T14:38:17.86Z</time></trkpt><trkpt lat="37.899071" lon="13.8144657"><ele>281.3333333333333</ele><time>2026-04-28T14:38:18.86Z</time></trkpt><trkpt lat="37.8989879" lon="13.8142755"><ele>285.6666666666667</ele><time>2026-04-28T14:38:19.86Z</time></trkpt><trkpt lat="37.8989034" lon="13.814107"><ele>290.0</ele><time>2026-04-28T14:38:20.86Z</time></trkpt><trkpt lat="37.8988135" lon="13.8139542"><ele>290.0</ele><time>2026-04-28T14:38:21.86Z</time></trkpt><trkpt lat="37.8986887" lon="13.8138176"><ele>290.0</ele><time>2026-04-28T14:38:22.86Z</time></trkpt><trkpt lat="37.8985444" lon="13.8136983"><ele>290.0</ele><time>2026-04-28T14:38:23.86Z</time></trkpt><trkpt lat="37.8983857" lon="13.813602"><ele>292.0</ele><time>2026-04-28T14:38:24.86Z</time></trkpt><trkpt lat="37.8982202" lon="13.813504"><ele>294.0</ele><time>2026-04-28T14:38:25.86Z</time></trkpt><trkpt lat="37.8980622" lon="13.8133949"><ele>296.0</ele><time>2026-04-28T14:38:26.86Z</time></trkpt><trkpt lat="37.8979201" lon="13.8132588"><ele>296.0</ele><time>2026-04-28T14:38:27.86Z</time></trkpt><trkpt lat="37.8977971" lon="13.8130976"><ele>296.0</ele><time>2026-04-28T14:38:28.86Z</time></trkpt><trkpt lat="37.8976927" lon="13.8129152"><ele>296.0</ele><time>2026-04-28T14:38:29.86Z</time></trkpt><trkpt lat="37.8976013" lon="13.8127438"><ele>298.0</ele><time>2026-04-28T14:38:30.86Z</time></trkpt><trkpt lat="37.8974986" lon="13.8125903"><ele>300.0</ele><time>2026-04-28T14:38:31.86Z</time></trkpt><trkpt lat="37.8973712" lon="13.8124615"><ele>302.0</ele><time>2026-04-28T14:38:32.86Z</time></trkpt><trkpt lat="37.8972118" lon="13.8123341"><ele>302.0</ele><time>2026-04-28T14:38:33.86Z</time></trkpt><trkpt lat="37.8970457" lon="13.8122098"><ele>302.0</ele><time>2026-04-28T14:38:34.86Z</time></trkpt><trkpt lat="37.8968715" lon="13.812089"><ele>302.0</ele><time>2026-04-28T14:38:35.86Z</time></trkpt><trkpt lat="37.896702" lon="13.8119664"><ele>304.0</ele><time>2026-04-28T14:38:36.86Z</time></trkpt><trkpt lat="37.8965281" lon="13.8118213"><ele>306.0</ele><time>2026-04-28T14:38:37.86Z</time></trkpt><trkpt lat="37.8963574" lon="13.8116462"><ele>308.0</ele><time>2026-04-28T14:38:38.86Z</time></trkpt><trkpt lat="37.8961847" lon="13.8114532"><ele>308.0</ele><time>2026-04-28T14:38:39.86Z</time></trkpt><trkpt lat="37.8960058" lon="13.8112535"><ele>308.0</ele><time>2026-04-28T14:38:40.86Z</time></trkpt><trkpt lat="37.8958277" lon="13.8110585"><ele>309.6666666666667</ele><time>2026-04-28T14:38:41.86Z</time></trkpt><trkpt lat="37.8956502" lon="13.8108697"><ele>311.3333333333333</ele><time>2026-04-28T14:38:42.86Z</time></trkpt><trkpt lat="37.8954889" lon="13.8106971"><ele>313.0</ele><time>2026-04-28T14:38:43.86Z</time></trkpt><trkpt lat="37.895355" lon="13.8105561"><ele>313.0</ele><time>2026-04-28T14:38:44.86Z</time></trkpt><trkpt lat="37.895249" lon="13.8104432"><ele>313.0</ele><time>2026-04-28T14:38:45.86Z</time></trkpt><trkpt lat="37.8951472" lon="13.8103674"><ele>313.0</ele><time>2026-04-28T14:38:46.86Z</time></trkpt><trkpt lat="37.8950409" lon="13.8103238"><ele>313.0</ele><time>2026-04-28T14:38:47.861Z</time></trkpt><trkpt lat="37.8949093" lon="13.8102897"><ele>316.66666666666663</ele><time>2026-04-28T14:38:48.86Z</time></trkpt><trkpt lat="37.8947547" lon="13.8102797"><ele>320.3333333333333</ele><time>2026-04-28T14:38:49.86Z</time></trkpt><trkpt lat="37.8945941" lon="13.8102658"><ele>324.0</ele><time>2026-04-28T14:38:50.86Z</time></trkpt><trkpt lat="37.894435" lon="13.8102444"><ele>324.0</ele><time>2026-04-28T14:38:51.86Z</time></trkpt><trkpt lat="37.8942758" lon="13.8102062"><ele>324.0</ele><time>2026-04-28T14:38:52.86Z</time></trkpt><trkpt lat="37.8941325" lon="13.8101229"><ele>324.0</ele><time>2026-04-28T14:38:53.86Z</time></trkpt><trkpt lat="37.8939978" lon="13.8100103"><ele>324.25</ele><time>2026-04-28T14:38:54.86Z</time></trkpt><trkpt lat="37.8938833" lon="13.8098668"><ele>324.5</ele><time>2026-04-28T14:38:55.86Z</time></trkpt><trkpt lat="37.8937844" lon="13.8097203"><ele>324.75</ele><time>2026-04-28T14:38:56.86Z</time></trkpt><trkpt lat="37.8936967" lon="13.8095899"><ele>325.0</ele><time>2026-04-28T14:38:57.86Z</time></trkpt><trkpt lat="37.8936121" lon="13.8094911"><ele>325.0</ele><time>2026-04-28T14:38:58.86Z</time></trkpt><trkpt lat="37.8935129" lon="13.8094359"><ele>325.0</ele><time>2026-04-28T14:38:59.86Z</time></trkpt><trkpt lat="37.8934245" lon="13.8094265"><ele>325.0</ele><time>2026-04-28T14:39:00.86Z</time></trkpt><trkpt lat="37.8933486" lon="13.8094668"><ele>325.0</ele><time>2026-04-28T14:39:01.86Z</time></trkpt><trkpt lat="37.893264" lon="13.8095598"><ele>325.0</ele><time>2026-04-28T14:39:02.86Z</time></trkpt><trkpt lat="37.8932107" lon="13.8096834"><ele>327.75</ele><time>2026-04-28T14:39:03.86Z</time></trkpt><trkpt lat="37.8931953" lon="13.8098333"><ele>330.5</ele><time>2026-04-28T14:39:04.86Z</time></trkpt><trkpt lat="37.893214" lon="13.8100067"><ele>333.25</ele><time>2026-04-28T14:39:05.86Z</time></trkpt><trkpt lat="37.8932651" lon="13.8101917"><ele>336.0</ele><time>2026-04-28T14:39:06.86Z</time></trkpt><trkpt lat="37.8933541" lon="13.8103667"><ele>335.0</ele><time>2026-04-28T14:39:07.86Z</time></trkpt><trkpt lat="37.8934582" lon="13.8105492"><ele>334.0</ele><time>2026-04-28T14:39:08.861Z</time></trkpt><trkpt lat="37.8935786" lon="13.81074"><ele>333.0</ele><time>2026-04-28T14:39:09.86Z</time></trkpt><trkpt lat="37.8937007" lon="13.8109343"><ele>336.0</ele><time>2026-04-28T14:39:10.86Z</time></trkpt><trkpt lat="37.8938184" lon="13.8111237"><ele>339.0</ele><time>2026-04-28T14:39:11.86Z</time></trkpt><trkpt lat="37.8939366" lon="13.8113083"><ele>342.0</ele><time>2026-04-28T14:39:12.86Z</time></trkpt><trkpt lat="37.894039" lon="13.8114843"><ele>342.0</ele><time>2026-04-28T14:39:13.86Z</time></trkpt><trkpt lat="37.8941204" lon="13.8116541"><ele>342.0</ele><time>2026-04-28T14:39:14.86Z</time></trkpt><trkpt lat="37.8941793" lon="13.8118161"><ele>342.0</ele><time>2026-04-28T14:39:15.86Z</time></trkpt><trkpt lat="37.8942154" lon="13.8119709"><ele>342.0</ele><time>2026-04-28T14:39:16.86Z</time></trkpt><trkpt lat="37.8942128" lon="13.8121144"><ele>343.0</ele><time>2026-04-28T14:39:17.86Z</time></trkpt><trkpt lat="37.8941726" lon="13.8122342"><ele>344.0</ele><time>2026-04-28T14:39:18.86Z</time></trkpt><trkpt lat="37.8941104" lon="13.8123462"><ele>345.0</ele><time>2026-04-28T14:39:19.86Z</time></trkpt><trkpt lat="37.8940355" lon="13.812472"><ele>346.0</ele><time>2026-04-28T14:39:20.86Z</time></trkpt><trkpt lat="37.8939646" lon="13.8126143"><ele>346.75</ele><time>2026-04-28T14:39:21.86Z</time></trkpt><trkpt lat="37.8939048" lon="13.8127722"><ele>347.5</ele><time>2026-04-28T14:39:22.86Z</time></trkpt><trkpt lat="37.8938795" lon="13.8129445"><ele>348.25</ele><time>2026-04-28T14:39:23.86Z</time></trkpt><trkpt lat="37.8939003" lon="13.8130996"><ele>349.0</ele><time>2026-04-28T14:39:24.861Z</time></trkpt><trkpt lat="37.893974" lon="13.8132329"><ele>349.0</ele><time>2026-04-28T14:39:25.86Z</time></trkpt><trkpt lat="37.8940881" lon="13.8133512"><ele>349.0</ele><time>2026-04-28T14:39:26.861Z</time></trkpt><trkpt lat="37.8942385" lon="13.813457"><ele>349.0</ele><time>2026-04-28T14:39:27.86Z</time></trkpt><trkpt lat="37.8943988" lon="13.8135668"><ele>349.3333333333333</ele><time>2026-04-28T14:39:28.86Z</time></trkpt><trkpt lat="37.8945552" lon="13.8136859"><ele>349.6666666666667</ele><time>2026-04-28T14:39:29.86Z</time></trkpt><trkpt lat="37.8946787" lon="13.8138197"><ele>350.0</ele><time>2026-04-28T14:39:30.86Z</time></trkpt><trkpt lat="37.8947605" lon="13.8139689"><ele>350.0</ele><time>2026-04-28T14:39:31.86Z</time></trkpt><trkpt lat="37.8947978" lon="13.8141176"><ele>350.0</ele><time>2026-04-28T14:39:32.861Z</time></trkpt><trkpt lat="37.8947901" lon="13.8142785"><ele>350.0</ele><time>2026-04-28T14:39:33.86Z</time></trkpt><trkpt lat="37.8947481" lon="13.8144524"><ele>350.0</ele><time>2026-04-28T14:39:34.86Z</time></trkpt><trkpt lat="37.8946908" lon="13.814636"><ele>351.0</ele><time>2026-04-28T14:39:35.86Z</time></trkpt><trkpt lat="37.8946423" lon="13.8148158"><ele>352.0</ele><time>2026-04-28T14:39:36.86Z</time></trkpt><trkpt lat="37.8945994" lon="13.8149874"><ele>353.0</ele><time>2026-04-28T14:39:37.86Z</time></trkpt><trkpt lat="37.8945762" lon="13.8151524"><ele>354.0</ele><time>2026-04-28T14:39:38.86Z</time></trkpt><trkpt lat="37.8945708" lon="13.8153052"><ele>356.25</ele><time>2026-04-28T14:39:39.86Z</time></trkpt><trkpt lat="37.8946011" lon="13.8154505"><ele>358.5</ele><time>2026-04-28T14:39:40.86Z</time></trkpt><trkpt lat="37.8946583" lon="13.8156038"><ele>360.75</ele><time>2026-04-28T14:39:41.86Z</time></trkpt><trkpt lat="37.8947466" lon="13.8157635"><ele>363.0</ele><time>2026-04-28T14:39:42.86Z</time></trkpt><trkpt lat="37.8948623" lon="13.8159063"><ele>367.3333333333333</ele><time>2026-04-28T14:39:43.86Z</time></trkpt><trkpt lat="37.8950053" lon="13.8160113"><ele>371.66666666666663</ele><time>2026-04-28T14:39:44.86Z</time></trkpt><trkpt lat="37.8951578" lon="13.8160867"><ele>376.0</ele><time>2026-04-28T14:39:45.86Z</time></trkpt><trkpt lat="37.895336" lon="13.8161156"><ele>376.66666666666663</ele><time>2026-04-28T14:39:46.86Z</time></trkpt><trkpt lat="37.8955188" lon="13.816121"><ele>377.3333333333333</ele><time>2026-04-28T14:39:47.86Z</time></trkpt><trkpt lat="37.8956921" lon="13.8161357"><ele>378.0</ele><time>2026-04-28T14:39:48.86Z</time></trkpt><trkpt lat="37.8958624" lon="13.8161836"><ele>374.3333333333333</ele><time>2026-04-28T14:39:49.86Z</time></trkpt><trkpt lat="37.8960162" lon="13.8162691"><ele>370.66666666666663</ele><time>2026-04-28T14:39:50.86Z</time></trkpt><trkpt lat="37.8961465" lon="13.8163993"><ele>367.0</ele><time>2026-04-28T14:39:51.86Z</time></trkpt><trkpt lat="37.8962575" lon="13.816558"><ele>367.0</ele><time>2026-04-28T14:39:52.86Z</time></trkpt><trkpt lat="37.8963542" lon="13.8167487"><ele>367.0</ele><time>2026-04-28T14:39:53.86Z</time></trkpt><trkpt lat="37.8964361" lon="13.816964"><ele>367.0</ele><time>2026-04-28T14:39:54.86Z</time></trkpt><trkpt lat="37.8965055" lon="13.8171963"><ele>370.3333333333333</ele><time>2026-04-28T14:39:55.86Z</time></trkpt><trkpt lat="37.8965792" lon="13.8174206"><ele>373.6666666666667</ele><time>2026-04-28T14:39:56.86Z</time></trkpt><trkpt lat="37.8966474" lon="13.8176432"><ele>377.0</ele><time>2026-04-28T14:39:57.86Z</time></trkpt><trkpt lat="37.8966901" lon="13.8178503"><ele>379.33333333333337</ele><time>2026-04-28T14:39:58.86Z</time></trkpt><trkpt lat="37.8966985" lon="13.818062"><ele>381.6666666666667</ele><time>2026-04-28T14:39:59.86Z</time></trkpt><trkpt lat="37.8966726" lon="13.8182891"><ele>384.0</ele><time>2026-04-28T14:40:00.86Z</time></trkpt><trkpt lat="37.8966467" lon="13.8185274"><ele>386.66666666666663</ele><time>2026-04-28T14:40:01.86Z</time></trkpt><trkpt lat="37.896651" lon="13.818765"><ele>389.3333333333333</ele><time>2026-04-28T14:40:02.86Z</time></trkpt><trkpt lat="37.8967007" lon="13.81901"><ele>392.0</ele><time>2026-04-28T14:40:03.86Z</time></trkpt><trkpt lat="37.8967754" lon="13.8192497"><ele>388.3333333333333</ele><time>2026-04-28T14:40:04.86Z</time></trkpt><trkpt lat="37.8968521" lon="13.819481"><ele>384.66666666666663</ele><time>2026-04-28T14:40:05.86Z</time></trkpt><trkpt lat="37.8969305" lon="13.819713"><ele>381.0</ele><time>2026-04-28T14:40:06.86Z</time></trkpt><trkpt lat="37.8969957" lon="13.8199481"><ele>383.33333333333337</ele><time>2026-04-28T14:40:07.86Z</time></trkpt><trkpt lat="37.8970513" lon="13.8201787"><ele>385.6666666666667</ele><time>2026-04-28T14:40:08.86Z</time></trkpt><trkpt lat="37.8970973" lon="13.8203974"><ele>388.0</ele><time>2026-04-28T14:40:09.86Z</time></trkpt><trkpt lat="37.8971363" lon="13.8206306"><ele>388.0</ele><time>2026-04-28T14:40:10.86Z</time></trkpt><trkpt lat="37.8971691" lon="13.8208692"><ele>388.0</ele><time>2026-04-28T14:40:11.86Z</time></trkpt><trkpt lat="37.8971867" lon="13.8211185"><ele>388.0</ele><time>2026-04-28T14:40:12.86Z</time></trkpt><trkpt lat="37.8972036" lon="13.8213702"><ele>388.33333333333337</ele><time>2026-04-28T14:40:13.86Z</time></trkpt><trkpt lat="37.8972179" lon="13.8216235"><ele>388.66666666666663</ele><time>2026-04-28T14:40:14.86Z</time></trkpt><trkpt lat="37.8972237" lon="13.8218719"><ele>389.0</ele><time>2026-04-28T14:40:15.86Z</time></trkpt><trkpt lat="37.8972154" lon="13.8221072"><ele>389.66666666666663</ele><time>2026-04-28T14:40:16.86Z</time></trkpt><trkpt lat="37.8971883" lon="13.8223356"><ele>390.33333333333337</ele><time>2026-04-28T14:40:17.86Z</time></trkpt><trkpt lat="37.8971641" lon="13.8225539"><ele>391.0</ele><time>2026-04-28T14:40:18.86Z</time></trkpt><trkpt lat="37.8971692" lon="13.822785"><ele>392.6666666666667</ele><time>2026-04-28T14:40:19.86Z</time></trkpt><trkpt lat="37.8972044" lon="13.8230329"><ele>394.33333333333337</ele><time>2026-04-28T14:40:20.86Z</time></trkpt><trkpt lat="37.8972324" lon="13.8232796"><ele>396.0</ele><time>2026-04-28T14:40:21.86Z</time></trkpt><trkpt lat="37.8972524" lon="13.8235205"><ele>398.66666666666663</ele><time>2026-04-28T14:40:22.86Z</time></trkpt><trkpt lat="37.8972631" lon="13.8237474"><ele>401.3333333333333</ele><time>2026-04-28T14:40:23.86Z</time></trkpt><trkpt lat="37.8972656" lon="13.8239743"><ele>404.0</ele><time>2026-04-28T14:40:24.86Z</time></trkpt><trkpt lat="37.8972563" lon="13.8241978"><ele>406.3333333333333</ele><time>2026-04-28T14:40:25.86Z</time></trkpt><trkpt lat="37.8972256" lon="13.8244032"><ele>408.66666666666663</ele><time>2026-04-28T14:40:26.86Z</time></trkpt><trkpt lat="37.8971841" lon="13.8245947"><ele>411.0</ele><time>2026-04-28T14:40:27.861Z</time></trkpt><trkpt lat="37.8971289" lon="13.8247838"><ele>411.0</ele><time>2026-04-28T14:40:28.86Z</time></trkpt><trkpt lat="37.8970629" lon="13.8249689"><ele>411.0</ele><time>2026-04-28T14:40:29.86Z</time></trkpt><trkpt lat="37.8969765" lon="13.825134"><ele>411.0</ele><time>2026-04-28T14:40:30.86Z</time></trkpt><trkpt lat="37.8968679" lon="13.8252815"><ele>413.33333333333337</ele><time>2026-04-28T14:40:31.86Z</time></trkpt><trkpt lat="37.8967327" lon="13.8254206"><ele>415.6666666666667</ele><time>2026-04-28T14:40:32.86Z</time></trkpt><trkpt lat="37.8965871" lon="13.8255603"><ele>418.0</ele><time>2026-04-28T14:40:33.86Z</time></trkpt><trkpt lat="37.896428" lon="13.8256895"><ele>418.0</ele><time>2026-04-28T14:40:34.86Z</time></trkpt><trkpt lat="37.8962715" lon="13.8258071"><ele>418.0</ele><time>2026-04-28T14:40:35.86Z</time></trkpt><trkpt lat="37.8961223" lon="13.8259194"><ele>418.0</ele><time>2026-04-28T14:40:36.86Z</time></trkpt><trkpt lat="37.8959923" lon="13.8260464"><ele>416.6666666666667</ele><time>2026-04-28T14:40:37.86Z</time></trkpt><trkpt lat="37.8958756" lon="13.8262126"><ele>415.33333333333337</ele><time>2026-04-28T14:40:38.86Z</time></trkpt><trkpt lat="37.895789" lon="13.8264008"><ele>414.0</ele><time>2026-04-28T14:40:39.86Z</time></trkpt><trkpt lat="37.8957323" lon="13.8265996"><ele>414.0</ele><time>2026-04-28T14:40:40.86Z</time></trkpt><trkpt lat="37.8956964" lon="13.8268011"><ele>414.0</ele><time>2026-04-28T14:40:41.86Z</time></trkpt><trkpt lat="37.8956692" lon="13.8269935"><ele>414.0</ele><time>2026-04-28T14:40:42.86Z</time></trkpt><trkpt lat="37.8956239" lon="13.827161"><ele>411.75</ele><time>2026-04-28T14:40:43.86Z</time></trkpt><trkpt lat="37.8955444" lon="13.8272947"><ele>409.5</ele><time>2026-04-28T14:40:44.86Z</time></trkpt><trkpt lat="37.8954375" lon="13.8273846"><ele>407.25</ele><time>2026-04-28T14:40:45.86Z</time></trkpt><trkpt lat="37.8953019" lon="13.8274378"><ele>405.0</ele><time>2026-04-28T14:40:46.86Z</time></trkpt><trkpt lat="37.8951401" lon="13.8274591"><ele>407.25</ele><time>2026-04-28T14:40:47.86Z</time></trkpt><trkpt lat="37.8949859" lon="13.8274752"><ele>409.5</ele><time>2026-04-28T14:40:48.86Z</time></trkpt><trkpt lat="37.894846" lon="13.8274859"><ele>411.75</ele><time>2026-04-28T14:40:49.86Z</time></trkpt><trkpt lat="37.8947256" lon="13.8275063"><ele>414.0</ele><time>2026-04-28T14:40:50.86Z</time></trkpt><trkpt lat="37.8946198" lon="13.8275798"><ele>411.5</ele><time>2026-04-28T14:40:51.86Z</time></trkpt><trkpt lat="37.894527" lon="13.8277027"><ele>409.0</ele><time>2026-04-28T14:40:52.86Z</time></trkpt><trkpt lat="37.8944529" lon="13.8278682"><ele>406.5</ele><time>2026-04-28T14:40:53.86Z</time></trkpt><trkpt lat="37.894398" lon="13.8280426"><ele>404.0</ele><time>2026-04-28T14:40:54.86Z</time></trkpt><trkpt lat="37.894346" lon="13.8282476"><ele>404.0</ele><time>2026-04-28T14:40:55.86Z</time></trkpt><trkpt lat="37.8943153" lon="13.8284671"><ele>404.0</ele><time>2026-04-28T14:40:56.86Z</time></trkpt><trkpt lat="37.8942983" lon="13.8286938"><ele>404.0</ele><time>2026-04-28T14:40:57.86Z</time></trkpt><trkpt lat="37.8943051" lon="13.8289168"><ele>402.0</ele><time>2026-04-28T14:40:58.86Z</time></trkpt><trkpt lat="37.8943175" lon="13.8291259"><ele>400.0</ele><time>2026-04-28T14:40:59.86Z</time></trkpt><trkpt lat="37.8943295" lon="13.8293201"><ele>398.0</ele><time>2026-04-28T14:41:00.86Z</time></trkpt><trkpt lat="37.8943337" lon="13.8294977"><ele>396.75</ele><time>2026-04-28T14:41:01.86Z</time></trkpt><trkpt lat="37.8943096" lon="13.8296503"><ele>395.5</ele><time>2026-04-28T14:41:02.861Z</time></trkpt><trkpt lat="37.8942569" lon="13.8297788"><ele>394.25</ele><time>2026-04-28T14:41:03.86Z</time></trkpt><trkpt lat="37.8941616" lon="13.8298831"><ele>393.0</ele><time>2026-04-28T14:41:04.86Z</time></trkpt><trkpt lat="37.8940213" lon="13.8299668"><ele>392.33333333333337</ele><time>2026-04-28T14:41:05.86Z</time></trkpt><trkpt lat="37.8938667" lon="13.8300477"><ele>391.6666666666667</ele><time>2026-04-28T14:41:06.86Z</time></trkpt><trkpt lat="37.893722" lon="13.8301307"><ele>391.0</ele><time>2026-04-28T14:41:07.86Z</time></trkpt><trkpt lat="37.893593" lon="13.8302083"><ele>391.0</ele><time>2026-04-28T14:41:08.86Z</time></trkpt><trkpt lat="37.8934845" lon="13.8302968"><ele>391.0</ele><time>2026-04-28T14:41:09.86Z</time></trkpt><trkpt lat="37.8934054" lon="13.8304043"><ele>391.0</ele><time>2026-04-28T14:41:10.86Z</time></trkpt><trkpt lat="37.8933524" lon="13.8305263"><ele>391.0</ele><time>2026-04-28T14:41:11.86Z</time></trkpt><trkpt lat="37.8933154" lon="13.8306449"><ele>392.8</ele><time>2026-04-28T14:41:12.86Z</time></trkpt><trkpt lat="37.8932897" lon="13.8307571"><ele>394.6</ele><time>2026-04-28T14:41:13.86Z</time></trkpt><trkpt lat="37.8932746" lon="13.8308553"><ele>396.4</ele><time>2026-04-28T14:41:14.86Z</time></trkpt><trkpt lat="37.8932544" lon="13.8309546"><ele>398.2</ele><time>2026-04-28T14:41:16.86Z</time></trkpt><trkpt lat="37.8932452" lon="13.8310494"><ele>400.0</ele><time>2026-04-28T14:41:18.86Z</time></trkpt><trkpt lat="37.8931703" lon="13.8312307"><ele>400.0</ele><time>2026-04-28T14:41:55.86Z</time></trkpt><trkpt lat="37.8931358" lon="13.8313198"><ele>400.0</ele><time>2026-04-28T14:41:56.86Z</time></trkpt><trkpt lat="37.8930908" lon="13.8314052"><ele>400.0</ele><time>2026-04-28T14:41:57.86Z</time></trkpt><trkpt lat="37.8930204" lon="13.8315245"><ele>400.0</ele><time>2026-04-28T14:41:58.86Z</time></trkpt><trkpt lat="37.8929398" lon="13.8316553"><ele>400.0</ele><time>2026-04-28T14:41:59.86Z</time></trkpt><trkpt lat="37.892861" lon="13.8317958"><ele>400.0</ele><time>2026-04-28T14:42:00.86Z</time></trkpt><trkpt lat="37.8927774" lon="13.8319235"><ele>400.0</ele><time>2026-04-28T14:42:01.86Z</time></trkpt><trkpt lat="37.8926881" lon="13.8320261"><ele>400.0</ele><time>2026-04-28T14:42:02.86Z</time></trkpt><trkpt lat="37.8925937" lon="13.8320949"><ele>400.0</ele><time>2026-04-28T14:42:03.86Z</time></trkpt><trkpt lat="37.8924848" lon="13.8321386"><ele>400.0</ele><time>2026-04-28T14:42:04.86Z</time></trkpt><trkpt lat="37.8923642" lon="13.832186"><ele>400.0</ele><time>2026-04-28T14:42:05.86Z</time></trkpt><trkpt lat="37.8922479" lon="13.8322347"><ele>400.0</ele><time>2026-04-28T14:42:06.86Z</time></trkpt><trkpt lat="37.8921462" lon="13.8322885"><ele>400.0</ele><time>2026-04-28T14:42:07.86Z</time></trkpt><trkpt lat="37.8920537" lon="13.8323319"><ele>400.0</ele><time>2026-04-28T14:42:08.86Z</time></trkpt><trkpt lat="37.8919573" lon="13.8323378"><ele>400.0</ele><time>2026-04-28T14:42:09.861Z</time></trkpt><trkpt lat="37.8918501" lon="13.8323189"><ele>400.0</ele><time>2026-04-28T14:42:10.86Z</time></trkpt><trkpt lat="37.89174" lon="13.832282"><ele>400.0</ele><time>2026-04-28T14:42:11.86Z</time></trkpt><trkpt lat="37.8916297" lon="13.8322369"><ele>400.0</ele><time>2026-04-28T14:42:12.86Z</time></trkpt><trkpt lat="37.8915232" lon="13.8321949"><ele>400.75</ele><time>2026-04-28T14:42:13.86Z</time></trkpt><trkpt lat="37.891409" lon="13.8321716"><ele>401.5</ele><time>2026-04-28T14:42:14.86Z</time></trkpt><trkpt lat="37.8912982" lon="13.8321979"><ele>402.25</ele><time>2026-04-28T14:42:15.86Z</time></trkpt><trkpt lat="37.8911814" lon="13.8322816"><ele>403.0</ele><time>2026-04-28T14:42:16.86Z</time></trkpt><trkpt lat="37.8910946" lon="13.8324088"><ele>403.0</ele><time>2026-04-28T14:42:17.86Z</time></trkpt><trkpt lat="37.8910394" lon="13.8325807"><ele>403.0</ele><time>2026-04-28T14:42:18.86Z</time></trkpt><trkpt lat="37.891011" lon="13.8327707"><ele>403.0</ele><time>2026-04-28T14:42:19.86Z</time></trkpt><trkpt lat="37.8909814" lon="13.8329946"><ele>402.0</ele><time>2026-04-28T14:42:20.86Z</time></trkpt><trkpt lat="37.8909576" lon="13.8332321"><ele>401.0</ele><time>2026-04-28T14:42:21.86Z</time></trkpt><trkpt lat="37.890926" lon="13.833455"><ele>400.0</ele><time>2026-04-28T14:42:22.86Z</time></trkpt><trkpt lat="37.8908887" lon="13.8336512"><ele>400.0</ele><time>2026-04-28T14:42:23.86Z</time></trkpt><trkpt lat="37.890834" lon="13.8338293"><ele>400.0</ele><time>2026-04-28T14:42:24.86Z</time></trkpt><trkpt lat="37.8907605" lon="13.8339859"><ele>400.0</ele><time>2026-04-28T14:42:25.86Z</time></trkpt><trkpt lat="37.8906553" lon="13.8341241"><ele>400.0</ele><time>2026-04-28T14:42:26.86Z</time></trkpt><trkpt lat="37.8905135" lon="13.8342633"><ele>401.33333333333337</ele><time>2026-04-28T14:42:27.86Z</time></trkpt><trkpt lat="37.8903527" lon="13.8343966"><ele>402.66666666666663</ele><time>2026-04-28T14:42:28.86Z</time></trkpt><trkpt lat="37.8901904" lon="13.8345515"><ele>404.0</ele><time>2026-04-28T14:42:29.86Z</time></trkpt><trkpt lat="37.8900432" lon="13.8347385"><ele>404.0</ele><time>2026-04-28T14:42:30.861Z</time></trkpt><trkpt lat="37.8899159" lon="13.8349565"><ele>404.0</ele><time>2026-04-28T14:42:31.86Z</time></trkpt><trkpt lat="37.8898076" lon="13.8351766"><ele>404.0</ele><time>2026-04-28T14:42:32.86Z</time></trkpt><trkpt lat="37.889705" lon="13.8353689"><ele>401.5</ele><time>2026-04-28T14:42:33.86Z</time></trkpt><trkpt lat="37.8895934" lon="13.8355106"><ele>399.0</ele><time>2026-04-28T14:42:34.86Z</time></trkpt><trkpt lat="37.8894812" lon="13.8355845"><ele>396.5</ele><time>2026-04-28T14:42:35.86Z</time></trkpt><trkpt lat="37.8893563" lon="13.8356083"><ele>394.0</ele><time>2026-04-28T14:42:36.86Z</time></trkpt><trkpt lat="37.8892127" lon="13.8355795"><ele>394.0</ele><time>2026-04-28T14:42:37.86Z</time></trkpt><trkpt lat="37.8890491" lon="13.8354876"><ele>394.0</ele><time>2026-04-28T14:42:38.86Z</time></trkpt><trkpt lat="37.8888722" lon="13.835355"><ele>394.0</ele><time>2026-04-28T14:42:39.86Z</time></trkpt><trkpt lat="37.8886893" lon="13.8352112"><ele>397.0</ele><time>2026-04-28T14:42:40.86Z</time></trkpt><trkpt lat="37.8884944" lon="13.8350525"><ele>400.0</ele><time>2026-04-28T14:42:41.86Z</time></trkpt><trkpt lat="37.8882945" lon="13.8348784"><ele>400.0</ele><time>2026-04-28T14:42:42.86Z</time></trkpt><trkpt lat="37.8880985" lon="13.8346898"><ele>400.0</ele><time>2026-04-28T14:42:43.86Z</time></trkpt><trkpt lat="37.8879208" lon="13.8345092"><ele>400.0</ele><time>2026-04-28T14:42:44.86Z</time></trkpt><trkpt lat="37.8877566" lon="13.8343488"><ele>400.0</ele><time>2026-04-28T14:42:45.86Z</time></trkpt><trkpt lat="37.8876203" lon="13.8342197"><ele>400.0</ele><time>2026-04-28T14:42:46.86Z</time></trkpt><trkpt lat="37.8875045" lon="13.8341131"><ele>400.25</ele><time>2026-04-28T14:42:47.86Z</time></trkpt><trkpt lat="37.8873916" lon="13.8340539"><ele>400.5</ele><time>2026-04-28T14:42:48.86Z</time></trkpt><trkpt lat="37.8872577" lon="13.8340594"><ele>400.75</ele><time>2026-04-28T14:42:49.86Z</time></trkpt><trkpt lat="37.8871039" lon="13.8341183"><ele>401.0</ele><time>2026-04-28T14:42:50.86Z</time></trkpt><trkpt lat="37.8869258" lon="13.8342013"><ele>400.3333333333333</ele><time>2026-04-28T14:42:51.86Z</time></trkpt><trkpt lat="37.8867157" lon="13.8342866"><ele>399.66666666666663</ele><time>2026-04-28T14:42:52.86Z</time></trkpt><trkpt lat="37.8864997" lon="13.8343645"><ele>399.0</ele><time>2026-04-28T14:42:53.86Z</time></trkpt><trkpt lat="37.8862786" lon="13.8344362"><ele>396.0</ele><time>2026-04-28T14:42:54.86Z</time></trkpt><trkpt lat="37.8860613" lon="13.8344922"><ele>393.0</ele><time>2026-04-28T14:42:55.86Z</time></trkpt><trkpt lat="37.8858418" lon="13.8345131"><ele>390.0</ele><time>2026-04-28T14:42:56.86Z</time></trkpt><trkpt lat="37.8856482" lon="13.8344992"><ele>390.0</ele><time>2026-04-28T14:42:57.86Z</time></trkpt><trkpt lat="37.8854771" lon="13.8345049"><ele>390.0</ele><time>2026-04-28T14:42:58.86Z</time></trkpt><trkpt lat="37.8853101" lon="13.8345557"><ele>390.0</ele><time>2026-04-28T14:42:59.86Z</time></trkpt><trkpt lat="37.8851411" lon="13.8346515"><ele>391.66666666666663</ele><time>2026-04-28T14:43:00.86Z</time></trkpt><trkpt lat="37.8849727" lon="13.8347793"><ele>393.3333333333333</ele><time>2026-04-28T14:43:01.86Z</time></trkpt><trkpt lat="37.8848194" lon="13.8349363"><ele>395.0</ele><time>2026-04-28T14:43:02.86Z</time></trkpt><trkpt lat="37.8847057" lon="13.8351167"><ele>392.75</ele><time>2026-04-28T14:43:03.86Z</time></trkpt><trkpt lat="37.8846167" lon="13.8352916"><ele>390.5</ele><time>2026-04-28T14:43:04.86Z</time></trkpt><trkpt lat="37.8845338" lon="13.8354327"><ele>388.25</ele><time>2026-04-28T14:43:05.86Z</time></trkpt><trkpt lat="37.8844439" lon="13.8355336"><ele>386.0</ele><time>2026-04-28T14:43:06.86Z</time></trkpt><trkpt lat="37.884336" lon="13.8356072"><ele>388.0</ele><time>2026-04-28T14:43:07.86Z</time></trkpt><trkpt lat="37.884197" lon="13.8356297"><ele>390.0</ele><time>2026-04-28T14:43:08.86Z</time></trkpt><trkpt lat="37.8840488" lon="13.8356024"><ele>392.0</ele><time>2026-04-28T14:43:09.86Z</time></trkpt><trkpt lat="37.8838887" lon="13.835571"><ele>392.0</ele><time>2026-04-28T14:43:10.86Z</time></trkpt><trkpt lat="37.8837082" lon="13.8355692"><ele>392.0</ele><time>2026-04-28T14:43:11.861Z</time></trkpt><trkpt lat="37.8835359" lon="13.8355732"><ele>392.0</ele><time>2026-04-28T14:43:12.86Z</time></trkpt><trkpt lat="37.8833745" lon="13.8355389"><ele>391.3333333333333</ele><time>2026-04-28T14:43:13.86Z</time></trkpt><trkpt lat="37.8832139" lon="13.8354554"><ele>390.66666666666663</ele><time>2026-04-28T14:43:14.86Z</time></trkpt><trkpt lat="37.8830805" lon="13.8353164"><ele>390.0</ele><time>2026-04-28T14:43:15.86Z</time></trkpt><trkpt lat="37.8829493" lon="13.8351469"><ele>390.5</ele><time>2026-04-28T14:43:16.86Z</time></trkpt><trkpt lat="37.8828349" lon="13.8349956"><ele>391.0</ele><time>2026-04-28T14:43:17.86Z</time></trkpt><trkpt lat="37.8827301" lon="13.8348905"><ele>391.5</ele><time>2026-04-28T14:43:18.86Z</time></trkpt><trkpt lat="37.8826178" lon="13.8348437"><ele>392.0</ele><time>2026-04-28T14:43:19.86Z</time></trkpt><trkpt lat="37.8824884" lon="13.8348756"><ele>392.0</ele><time>2026-04-28T14:43:20.86Z</time></trkpt><trkpt lat="37.882329" lon="13.8349253"><ele>392.0</ele><time>2026-04-28T14:43:21.86Z</time></trkpt><trkpt lat="37.8821501" lon="13.8349976"><ele>392.0</ele><time>2026-04-28T14:43:22.861Z</time></trkpt><trkpt lat="37.8819583" lon="13.8350804"><ele>390.3333333333333</ele><time>2026-04-28T14:43:23.86Z</time></trkpt><trkpt lat="37.8817713" lon="13.8351727"><ele>388.66666666666663</ele><time>2026-04-28T14:43:24.86Z</time></trkpt><trkpt lat="37.8815977" lon="13.8352701"><ele>387.0</ele><time>2026-04-28T14:43:25.86Z</time></trkpt><trkpt lat="37.8814286" lon="13.8353705"><ele>387.0</ele><time>2026-04-28T14:43:26.86Z</time></trkpt><trkpt lat="37.8812665" lon="13.8354973"><ele>387.0</ele><time>2026-04-28T14:43:27.86Z</time></trkpt><trkpt lat="37.8811204" lon="13.8356519"><ele>387.0</ele><time>2026-04-28T14:43:28.86Z</time></trkpt><trkpt lat="37.8809972" lon="13.8358237"><ele>386.33333333333337</ele><time>2026-04-28T14:43:29.86Z</time></trkpt><trkpt lat="37.8808768" lon="13.8360164"><ele>385.6666666666667</ele><time>2026-04-28T14:43:30.86Z</time></trkpt><trkpt lat="37.8807607" lon="13.8362108"><ele>385.0</ele><time>2026-04-28T14:43:31.86Z</time></trkpt><trkpt lat="37.8806455" lon="13.8364129"><ele>385.0</ele><time>2026-04-28T14:43:32.86Z</time></trkpt><trkpt lat="37.8805329" lon="13.8366179"><ele>385.0</ele><time>2026-04-28T14:43:33.86Z</time></trkpt><trkpt lat="37.8804227" lon="13.8368214"><ele>385.0</ele><time>2026-04-28T14:43:34.86Z</time></trkpt><trkpt lat="37.8803143" lon="13.8370287"><ele>385.33333333333337</ele><time>2026-04-28T14:43:35.86Z</time></trkpt><trkpt lat="37.8802242" lon="13.8372242"><ele>385.66666666666663</ele><time>2026-04-28T14:43:36.86Z</time></trkpt><trkpt lat="37.8801454" lon="13.8374052"><ele>386.0</ele><time>2026-04-28T14:43:37.86Z</time></trkpt><trkpt lat="37.880042" lon="13.8375425"><ele>386.0</ele><time>2026-04-28T14:43:38.86Z</time></trkpt><trkpt lat="37.8799062" lon="13.8376283"><ele>386.0</ele><time>2026-04-28T14:43:39.86Z</time></trkpt><trkpt lat="37.8797441" lon="13.8376636"><ele>386.0</ele><time>2026-04-28T14:43:40.86Z</time></trkpt><trkpt lat="37.8795764" lon="13.8376583"><ele>386.0</ele><time>2026-04-28T14:43:41.86Z</time></trkpt><trkpt lat="37.8794186" lon="13.8376361"><ele>386.0</ele><time>2026-04-28T14:43:42.86Z</time></trkpt><trkpt lat="37.8792737" lon="13.8376183"><ele>386.0</ele><time>2026-04-28T14:43:43.86Z</time></trkpt><trkpt lat="37.8791446" lon="13.8376402"><ele>386.0</ele><time>2026-04-28T14:43:44.86Z</time></trkpt><trkpt lat="37.8790395" lon="13.8377075"><ele>384.25</ele><time>2026-04-28T14:43:45.86Z</time></trkpt><trkpt lat="37.8789741" lon="13.8378275"><ele>382.5</ele><time>2026-04-28T14:43:46.86Z</time></trkpt><trkpt lat="37.8789257" lon="13.8380017"><ele>380.75</ele><time>2026-04-28T14:43:47.86Z</time></trkpt><trkpt lat="37.8788702" lon="13.8381884"><ele>379.0</ele><time>2026-04-28T14:43:48.86Z</time></trkpt><trkpt lat="37.8787981" lon="13.8384035"><ele>377.3333333333333</ele><time>2026-04-28T14:43:49.86Z</time></trkpt><trkpt lat="37.8787109" lon="13.8386401"><ele>375.6666666666667</ele><time>2026-04-28T14:43:50.86Z</time></trkpt><trkpt lat="37.8786254" lon="13.8388838"><ele>374.0</ele><time>2026-04-28T14:43:51.86Z</time></trkpt><trkpt lat="37.878538" lon="13.8391198"><ele>375.6666666666667</ele><time>2026-04-28T14:43:52.86Z</time></trkpt><trkpt lat="37.8784499" lon="13.8393464"><ele>377.3333333333333</ele><time>2026-04-28T14:43:53.86Z</time></trkpt><trkpt lat="37.8783703" lon="13.8395587"><ele>379.0</ele><time>2026-04-28T14:43:54.86Z</time></trkpt><trkpt lat="37.8782941" lon="13.8397462"><ele>379.0</ele><time>2026-04-28T14:43:55.86Z</time></trkpt><trkpt lat="37.8782127" lon="13.8399164"><ele>379.0</ele><time>2026-04-28T14:43:56.86Z</time></trkpt><trkpt lat="37.8781048" lon="13.8400474"><ele>379.0</ele><time>2026-04-28T14:43:57.86Z</time></trkpt><trkpt lat="37.8779655" lon="13.8401241"><ele>376.0</ele><time>2026-04-28T14:43:58.86Z</time></trkpt><trkpt lat="37.8777925" lon="13.8401904"><ele>373.0</ele><time>2026-04-28T14:43:59.86Z</time></trkpt><trkpt lat="37.8775987" lon="13.8402417"><ele>370.0</ele><time>2026-04-28T14:44:00.86Z</time></trkpt><trkpt lat="37.8774032" lon="13.8403061"><ele>370.0</ele><time>2026-04-28T14:44:01.86Z</time></trkpt><trkpt lat="37.8772239" lon="13.8404164"><ele>370.0</ele><time>2026-04-28T14:44:02.86Z</time></trkpt><trkpt lat="37.8770348" lon="13.8405667"><ele>370.0</ele><time>2026-04-28T14:44:03.86Z</time></trkpt><trkpt lat="37.8768651" lon="13.8407487"><ele>370.5</ele><time>2026-04-28T14:44:04.86Z</time></trkpt><trkpt lat="37.8766862" lon="13.8409634"><ele>371.0</ele><time>2026-04-28T14:44:05.86Z</time></trkpt><trkpt lat="37.8765006" lon="13.841209"><ele>371.0</ele><time>2026-04-28T14:44:06.86Z</time></trkpt><trkpt lat="37.8763025" lon="13.8414535"><ele>371.0</ele><time>2026-04-28T14:44:07.86Z</time></trkpt><trkpt lat="37.8760983" lon="13.8417004"><ele>369.0</ele><time>2026-04-28T14:44:08.86Z</time></trkpt><trkpt lat="37.8758893" lon="13.8419446"><ele>367.0</ele><time>2026-04-28T14:44:09.86Z</time></trkpt><trkpt lat="37.8756797" lon="13.8421821"><ele>367.0</ele><time>2026-04-28T14:44:10.86Z</time></trkpt><trkpt lat="37.8754744" lon="13.8424162"><ele>367.0</ele><time>2026-04-28T14:44:11.86Z</time></trkpt><trkpt lat="37.8752827" lon="13.842634"><ele>366.0</ele><time>2026-04-28T14:44:12.86Z</time></trkpt><trkpt lat="37.8751166" lon="13.8428205"><ele>365.0</ele><time>2026-04-28T14:44:13.86Z</time></trkpt><trkpt lat="37.8749648" lon="13.8429722"><ele>364.0</ele><time>2026-04-28T14:44:14.86Z</time></trkpt><trkpt lat="37.874826" lon="13.8431067"><ele>364.0</ele><time>2026-04-28T14:44:15.86Z</time></trkpt><trkpt lat="37.8746655" lon="13.843193"><ele>364.0</ele><time>2026-04-28T14:44:16.86Z</time></trkpt><trkpt lat="37.8744813" lon="13.8432514"><ele>364.0</ele><time>2026-04-28T14:44:17.86Z</time></trkpt><trkpt lat="37.8742742" lon="13.8432722"><ele>365.0</ele><time>2026-04-28T14:44:18.86Z</time></trkpt><trkpt lat="37.8740464" lon="13.8432826"><ele>366.0</ele><time>2026-04-28T14:44:19.86Z</time></trkpt><trkpt lat="37.8738076" lon="13.8433047"><ele>366.0</ele><time>2026-04-28T14:44:20.86Z</time></trkpt><trkpt lat="37.8735709" lon="13.8433633"><ele>366.0</ele><time>2026-04-28T14:44:21.86Z</time></trkpt><trkpt lat="37.8733478" lon="13.8434433"><ele>362.6666666666667</ele><time>2026-04-28T14:44:22.86Z</time></trkpt><trkpt lat="37.8731418" lon="13.8435224"><ele>359.33333333333337</ele><time>2026-04-28T14:44:23.86Z</time></trkpt><trkpt lat="37.8729387" lon="13.8435879"><ele>356.0</ele><time>2026-04-28T14:44:24.86Z</time></trkpt><trkpt lat="37.8727409" lon="13.8436417"><ele>355.6666666666667</ele><time>2026-04-28T14:44:25.86Z</time></trkpt><trkpt lat="37.8725685" lon="13.8437168"><ele>355.3333333333333</ele><time>2026-04-28T14:44:26.86Z</time></trkpt><trkpt lat="37.8724143" lon="13.8438219"><ele>355.0</ele><time>2026-04-28T14:44:27.86Z</time></trkpt><trkpt lat="37.8722784" lon="13.8439192"><ele>355.0</ele><time>2026-04-28T14:44:28.86Z</time></trkpt><trkpt lat="37.8721543" lon="13.8439627"><ele>355.0</ele><time>2026-04-28T14:44:29.86Z</time></trkpt><trkpt lat="37.8720413" lon="13.8439469"><ele>355.0</ele><time>2026-04-28T14:44:30.861Z</time></trkpt><trkpt lat="37.8719316" lon="13.8438857"><ele>355.0</ele><time>2026-04-28T14:44:31.86Z</time></trkpt><trkpt lat="37.871824" lon="13.8438169"><ele>355.5</ele><time>2026-04-28T14:44:32.86Z</time></trkpt><trkpt lat="37.8717089" lon="13.8437902"><ele>356.0</ele><time>2026-04-28T14:44:33.86Z</time></trkpt><trkpt lat="37.871592" lon="13.8438619"><ele>356.5</ele><time>2026-04-28T14:44:34.86Z</time></trkpt><trkpt lat="37.8714828" lon="13.8440052"><ele>357.0</ele><time>2026-04-28T14:44:35.86Z</time></trkpt><trkpt lat="37.8713868" lon="13.8442023"><ele>355.0</ele><time>2026-04-28T14:44:36.86Z</time></trkpt><trkpt lat="37.8713121" lon="13.8444315"><ele>353.0</ele><time>2026-04-28T14:44:37.86Z</time></trkpt><trkpt lat="37.8712358" lon="13.8446659"><ele>351.0</ele><time>2026-04-28T14:44:38.86Z</time></trkpt><trkpt lat="37.8711532" lon="13.8449121"><ele>352.3333333333333</ele><time>2026-04-28T14:44:39.86Z</time></trkpt><trkpt lat="37.8710634" lon="13.8451598"><ele>353.66666666666663</ele><time>2026-04-28T14:44:40.86Z</time></trkpt><trkpt lat="37.8709781" lon="13.8453972"><ele>355.0</ele><time>2026-04-28T14:44:41.86Z</time></trkpt><trkpt lat="37.8708839" lon="13.8456204"><ele>355.0</ele><time>2026-04-28T14:44:42.86Z</time></trkpt><trkpt lat="37.870778" lon="13.8458176"><ele>355.0</ele><time>2026-04-28T14:44:43.86Z</time></trkpt><trkpt lat="37.870656" lon="13.8459717"><ele>355.0</ele><time>2026-04-28T14:44:44.86Z</time></trkpt><trkpt lat="37.8705153" lon="13.846101"><ele>354.3333333333333</ele><time>2026-04-28T14:44:45.86Z</time></trkpt><trkpt lat="37.8703594" lon="13.8462145"><ele>353.6666666666667</ele><time>2026-04-28T14:44:46.86Z</time></trkpt><trkpt lat="37.8701955" lon="13.8463145"><ele>353.0</ele><time>2026-04-28T14:44:47.86Z</time></trkpt><trkpt lat="37.8700441" lon="13.8464114"><ele>353.0</ele><time>2026-04-28T14:44:48.86Z</time></trkpt><trkpt lat="37.869937" lon="13.8464968"><ele>353.0</ele><time>2026-04-28T14:44:49.86Z</time></trkpt><trkpt lat="37.8698726" lon="13.8466011"><ele>353.0</ele><time>2026-04-28T14:44:50.86Z</time></trkpt><trkpt lat="37.8698404" lon="13.8467198"><ele>353.0</ele><time>2026-04-28T14:44:51.86Z</time></trkpt><trkpt lat="37.8698282" lon="13.8468641"><ele>353.0</ele><time>2026-04-28T14:44:52.86Z</time></trkpt><trkpt lat="37.8698241" lon="13.8470288"><ele>350.5</ele><time>2026-04-28T14:44:53.86Z</time></trkpt><trkpt lat="37.8698114" lon="13.8471977"><ele>348.0</ele><time>2026-04-28T14:44:54.86Z</time></trkpt><trkpt lat="37.8697927" lon="13.8473638"><ele>345.5</ele><time>2026-04-28T14:44:55.86Z</time></trkpt><trkpt lat="37.8697661" lon="13.847517"><ele>343.0</ele><time>2026-04-28T14:44:56.86Z</time></trkpt><trkpt lat="37.8697206" lon="13.8476618"><ele>340.66666666666663</ele><time>2026-04-28T14:44:57.86Z</time></trkpt><trkpt lat="37.8696266" lon="13.8478076"><ele>338.3333333333333</ele><time>2026-04-28T14:44:58.861Z</time></trkpt><trkpt lat="37.8695067" lon="13.8479359"><ele>336.0</ele><time>2026-04-28T14:44:59.86Z</time></trkpt><trkpt lat="37.8693869" lon="13.8480415"><ele>337.75</ele><time>2026-04-28T14:45:00.86Z</time></trkpt><trkpt lat="37.8692609" lon="13.8481423"><ele>339.5</ele><time>2026-04-28T14:45:01.86Z</time></trkpt><trkpt lat="37.8691314" lon="13.8482302"><ele>341.25</ele><time>2026-04-28T14:45:02.86Z</time></trkpt><trkpt lat="37.8689989" lon="13.8482755"><ele>343.0</ele><time>2026-04-28T14:45:03.86Z</time></trkpt><trkpt lat="37.8688474" lon="13.8482967"><ele>343.0</ele><time>2026-04-28T14:45:04.86Z</time></trkpt><trkpt lat="37.8686944" lon="13.8483024"><ele>343.0</ele><time>2026-04-28T14:45:05.861Z</time></trkpt><trkpt lat="37.8685413" lon="13.848303"><ele>343.0</ele><time>2026-04-28T14:45:06.86Z</time></trkpt><trkpt lat="37.8683902" lon="13.8483132"><ele>344.3333333333333</ele><time>2026-04-28T14:45:07.86Z</time></trkpt><trkpt lat="37.868235" lon="13.8483253"><ele>345.6666666666667</ele><time>2026-04-28T14:45:08.86Z</time></trkpt><trkpt lat="37.8680641" lon="13.8483243"><ele>347.0</ele><time>2026-04-28T14:45:09.86Z</time></trkpt><trkpt lat="37.8678867" lon="13.8483138"><ele>347.0</ele><time>2026-04-28T14:45:10.86Z</time></trkpt><trkpt lat="37.8677181" lon="13.8483086"><ele>347.0</ele><time>2026-04-28T14:45:11.86Z</time></trkpt><trkpt lat="37.8675586" lon="13.8483051"><ele>347.0</ele><time>2026-04-28T14:45:12.86Z</time></trkpt><trkpt lat="37.8674081" lon="13.8483308"><ele>348.33333333333337</ele><time>2026-04-28T14:45:13.86Z</time></trkpt><trkpt lat="37.8672595" lon="13.848402"><ele>349.6666666666667</ele><time>2026-04-28T14:45:14.86Z</time></trkpt><trkpt lat="37.8671166" lon="13.8485423"><ele>351.0</ele><time>2026-04-28T14:45:15.86Z</time></trkpt><trkpt lat="37.866985" lon="13.8486829"><ele>348.6666666666667</ele><time>2026-04-28T14:45:16.86Z</time></trkpt><trkpt lat="37.8668654" lon="13.848815"><ele>346.33333333333337</ele><time>2026-04-28T14:45:17.86Z</time></trkpt><trkpt lat="37.8667463" lon="13.8489367"><ele>344.0</ele><time>2026-04-28T14:45:18.86Z</time></trkpt><trkpt lat="37.8666117" lon="13.84903"><ele>344.0</ele><time>2026-04-28T14:45:19.86Z</time></trkpt><trkpt lat="37.8664511" lon="13.8490943"><ele>344.0</ele><time>2026-04-28T14:45:20.86Z</time></trkpt><trkpt lat="37.8662896" lon="13.8491263"><ele>344.0</ele><time>2026-04-28T14:45:21.861Z</time></trkpt><trkpt lat="37.8661311" lon="13.8491212"><ele>344.0</ele><time>2026-04-28T14:45:22.861Z</time></trkpt><trkpt lat="37.8659965" lon="13.8491009"><ele>344.0</ele><time>2026-04-28T14:45:23.86Z</time></trkpt><trkpt lat="37.8658758" lon="13.8491003"><ele>344.0</ele><time>2026-04-28T14:45:24.86Z</time></trkpt><trkpt lat="37.8657676" lon="13.8491184"><ele>344.0</ele><time>2026-04-28T14:45:25.86Z</time></trkpt><trkpt lat="37.8656536" lon="13.8491532"><ele>343.75</ele><time>2026-04-28T14:45:26.86Z</time></trkpt><trkpt lat="37.8655358" lon="13.849199"><ele>343.5</ele><time>2026-04-28T14:45:27.86Z</time></trkpt><trkpt lat="37.8654222" lon="13.8492575"><ele>343.25</ele><time>2026-04-28T14:45:28.86Z</time></trkpt><trkpt lat="37.8653117" lon="13.8493169"><ele>343.0</ele><time>2026-04-28T14:45:29.86Z</time></trkpt><trkpt lat="37.865208" lon="13.8493754"><ele>341.0</ele><time>2026-04-28T14:45:30.86Z</time></trkpt><trkpt lat="37.8651184" lon="13.8494261"><ele>339.0</ele><time>2026-04-28T14:45:31.86Z</time></trkpt><trkpt lat="37.865046" lon="13.8494655"><ele>337.0</ele><time>2026-04-28T14:45:32.86Z</time></trkpt><trkpt lat="37.8649543" lon="13.8495273"><ele>335.0</ele><time>2026-04-28T14:45:34.86Z</time></trkpt><trkpt lat="37.8648636" lon="13.8495982"><ele>333.0</ele><time>2026-04-28T14:45:36.86Z</time></trkpt><trkpt lat="37.8648039" lon="13.8496435"><ele>332.42857142857144</ele><time>2026-04-28T14:45:37.86Z</time></trkpt><trkpt lat="37.8647442" lon="13.8496764"><ele>331.85714285714283</ele><time>2026-04-28T14:45:38.86Z</time></trkpt><trkpt lat="37.8646802" lon="13.8497049"><ele>331.2857142857143</ele><time>2026-04-28T14:45:39.86Z</time></trkpt><trkpt lat="37.8646188" lon="13.8497333"><ele>330.7142857142857</ele><time>2026-04-28T14:45:40.86Z</time></trkpt><trkpt lat="37.8645503" lon="13.8497564"><ele>330.1428571428571</ele><time>2026-04-28T14:45:41.86Z</time></trkpt><trkpt lat="37.8644769" lon="13.8497802"><ele>329.57142857142856</ele><time>2026-04-28T14:45:42.86Z</time></trkpt><trkpt lat="37.8643852" lon="13.8497874"><ele>329.0</ele><time>2026-04-28T14:45:43.86Z</time></trkpt><trkpt lat="37.8642942" lon="13.8498087"><ele>329.4</ele><time>2026-04-28T14:45:44.86Z</time></trkpt><trkpt lat="37.8642109" lon="13.8498411"><ele>329.79999999999995</ele><time>2026-04-28T14:45:45.86Z</time></trkpt><trkpt lat="37.8641354" lon="13.8498843"><ele>330.20000000000005</ele><time>2026-04-28T14:45:46.86Z</time></trkpt><trkpt lat="37.86406" lon="13.8499527"><ele>330.6</ele><time>2026-04-28T14:45:47.86Z</time></trkpt><trkpt lat="37.8639806" lon="13.8500452"><ele>331.0</ele><time>2026-04-28T14:45:48.86Z</time></trkpt><trkpt lat="37.8638997" lon="13.8501475"><ele>331.0</ele><time>2026-04-28T14:45:49.86Z</time></trkpt><trkpt lat="37.8638211" lon="13.8502721"><ele>331.0</ele><time>2026-04-28T14:45:50.86Z</time></trkpt><trkpt lat="37.8637597" lon="13.8504253"><ele>331.0</ele><time>2026-04-28T14:45:51.86Z</time></trkpt><trkpt lat="37.8637125" lon="13.8506131"><ele>331.0</ele><time>2026-04-28T14:45:52.861Z</time></trkpt><trkpt lat="37.8636622" lon="13.8508298"><ele>329.0</ele><time>2026-04-28T14:45:53.861Z</time></trkpt><trkpt lat="37.8636072" lon="13.85106"><ele>327.0</ele><time>2026-04-28T14:45:54.86Z</time></trkpt><trkpt lat="37.8635396" lon="13.8512868"><ele>325.0</ele><time>2026-04-28T14:45:55.86Z</time></trkpt><trkpt lat="37.8634659" lon="13.8515125"><ele>328.0</ele><time>2026-04-28T14:45:56.86Z</time></trkpt><trkpt lat="37.8633926" lon="13.8517379"><ele>331.0</ele><time>2026-04-28T14:45:57.86Z</time></trkpt><trkpt lat="37.8633215" lon="13.8519504"><ele>334.0</ele><time>2026-04-28T14:45:58.86Z</time></trkpt><trkpt lat="37.8632552" lon="13.8521512"><ele>334.0</ele><time>2026-04-28T14:45:59.86Z</time></trkpt><trkpt lat="37.8631935" lon="13.8523441"><ele>334.0</ele><time>2026-04-28T14:46:00.86Z</time></trkpt><trkpt lat="37.8631405" lon="13.852527"><ele>334.0</ele><time>2026-04-28T14:46:01.86Z</time></trkpt><trkpt lat="37.8630884" lon="13.852699"><ele>332.4</ele><time>2026-04-28T14:46:02.86Z</time></trkpt><trkpt lat="37.8630371" lon="13.8528451"><ele>330.79999999999995</ele><time>2026-04-28T14:46:03.86Z</time></trkpt><trkpt lat="37.8629949" lon="13.8529606"><ele>329.20000000000005</ele><time>2026-04-28T14:46:04.86Z</time></trkpt><trkpt lat="37.8629574" lon="13.8530569"><ele>327.6</ele><time>2026-04-28T14:46:05.86Z</time></trkpt><trkpt lat="37.8629057" lon="13.8531314"><ele>326.0</ele><time>2026-04-28T14:46:06.86Z</time></trkpt><trkpt lat="37.8628344" lon="13.8531843"><ele>326.0</ele><time>2026-04-28T14:46:07.86Z</time></trkpt><trkpt lat="37.8627485" lon="13.8531884"><ele>326.0</ele><time>2026-04-28T14:46:08.86Z</time></trkpt><trkpt lat="37.8626753" lon="13.8531461"><ele>326.0</ele><time>2026-04-28T14:46:09.86Z</time></trkpt><trkpt lat="37.8626165" lon="13.8530594"><ele>326.0</ele><time>2026-04-28T14:46:10.86Z</time></trkpt><trkpt lat="37.8625868" lon="13.852947"><ele>326.0</ele><time>2026-04-28T14:46:11.86Z</time></trkpt><trkpt lat="37.8625867" lon="13.8528336"><ele>326.0</ele><time>2026-04-28T14:46:12.86Z</time></trkpt><trkpt lat="37.8626066" lon="13.8527099"><ele>327.0</ele><time>2026-04-28T14:46:13.86Z</time></trkpt><trkpt lat="37.8626296" lon="13.8525794"><ele>328.0</ele><time>2026-04-28T14:46:14.86Z</time></trkpt><trkpt lat="37.8626445" lon="13.8524487"><ele>329.0</ele><time>2026-04-28T14:46:15.86Z</time></trkpt><trkpt lat="37.8626416" lon="13.8523245"><ele>330.0</ele><time>2026-04-28T14:46:16.86Z</time></trkpt><trkpt lat="37.8626189" lon="13.8522063"><ele>331.0</ele><time>2026-04-28T14:46:17.86Z</time></trkpt><trkpt lat="37.8625765" lon="13.8520971"><ele>331.0</ele><time>2026-04-28T14:46:18.86Z</time></trkpt><trkpt lat="37.8625212" lon="13.8519924"><ele>331.0</ele><time>2026-04-28T14:46:19.86Z</time></trkpt><trkpt lat="37.8624461" lon="13.8519166"><ele>331.0</ele><time>2026-04-28T14:46:20.86Z</time></trkpt><trkpt lat="37.8623601" lon="13.8518659"><ele>331.0</ele><time>2026-04-28T14:46:21.86Z</time></trkpt><trkpt lat="37.8622592" lon="13.8518318"><ele>331.0</ele><time>2026-04-28T14:46:22.86Z</time></trkpt><trkpt lat="37.8621479" lon="13.8518061"><ele>331.5</ele><time>2026-04-28T14:46:23.86Z</time></trkpt><trkpt lat="37.8620319" lon="13.8517766"><ele>332.0</ele><time>2026-04-28T14:46:24.86Z</time></trkpt><trkpt lat="37.8619104" lon="13.851752"><ele>332.5</ele><time>2026-04-28T14:46:25.86Z</time></trkpt><trkpt lat="37.8617835" lon="13.8517339"><ele>333.0</ele><time>2026-04-28T14:46:26.86Z</time></trkpt><trkpt lat="37.8616542" lon="13.8517282"><ele>333.0</ele><time>2026-04-28T14:46:27.86Z</time></trkpt><trkpt lat="37.8615069" lon="13.851736"><ele>333.0</ele><time>2026-04-28T14:46:28.86Z</time></trkpt><trkpt lat="37.8613544" lon="13.8517426"><ele>333.0</ele><time>2026-04-28T14:46:29.86Z</time></trkpt><trkpt lat="37.8611989" lon="13.8517546"><ele>333.0</ele><time>2026-04-28T14:46:30.86Z</time></trkpt><trkpt lat="37.8610416" lon="13.8517599"><ele>333.0</ele><time>2026-04-28T14:46:31.86Z</time></trkpt><trkpt lat="37.8608813" lon="13.8517507"><ele>333.0</ele><time>2026-04-28T14:46:32.86Z</time></trkpt><trkpt lat="37.8607268" lon="13.85172"><ele>332.0</ele><time>2026-04-28T14:46:33.86Z</time></trkpt><trkpt lat="37.8605763" lon="13.8516567"><ele>331.0</ele><time>2026-04-28T14:46:34.86Z</time></trkpt><trkpt lat="37.8604538" lon="13.8515628"><ele>330.0</ele><time>2026-04-28T14:46:35.86Z</time></trkpt><trkpt lat="37.8603447" lon="13.8514274"><ele>330.0</ele><time>2026-04-28T14:46:36.86Z</time></trkpt><trkpt lat="37.8602481" lon="13.8512729"><ele>330.0</ele><time>2026-04-28T14:46:37.86Z</time></trkpt><trkpt lat="37.8601547" lon="13.8511133"><ele>330.0</ele><time>2026-04-28T14:46:38.86Z</time></trkpt><trkpt lat="37.860067" lon="13.8509485"><ele>329.6666666666667</ele><time>2026-04-28T14:46:39.86Z</time></trkpt><trkpt lat="37.8599746" lon="13.8507834"><ele>329.33333333333337</ele><time>2026-04-28T14:46:40.86Z</time></trkpt><trkpt lat="37.8598663" lon="13.8506321"><ele>329.0</ele><time>2026-04-28T14:46:41.86Z</time></trkpt><trkpt lat="37.8597326" lon="13.8505116"><ele>329.0</ele><time>2026-04-28T14:46:42.86Z</time></trkpt><trkpt lat="37.8595772" lon="13.8504261"><ele>329.0</ele><time>2026-04-28T14:46:43.86Z</time></trkpt><trkpt lat="37.8594201" lon="13.850362"><ele>329.0</ele><time>2026-04-28T14:46:44.86Z</time></trkpt><trkpt lat="37.8592665" lon="13.8503009"><ele>329.33333333333337</ele><time>2026-04-28T14:46:45.86Z</time></trkpt><trkpt lat="37.8591281" lon="13.8502056"><ele>329.6666666666667</ele><time>2026-04-28T14:46:46.86Z</time></trkpt><trkpt lat="37.8590159" lon="13.850078"><ele>330.0</ele><time>2026-04-28T14:46:47.861Z</time></trkpt><trkpt lat="37.858925" lon="13.8499151"><ele>330.0</ele><time>2026-04-28T14:46:48.86Z</time></trkpt><trkpt lat="37.8588669" lon="13.8497036"><ele>330.0</ele><time>2026-04-28T14:46:49.86Z</time></trkpt><trkpt lat="37.8588272" lon="13.8494593"><ele>330.0</ele><time>2026-04-28T14:46:50.861Z</time></trkpt><trkpt lat="37.8587958" lon="13.8491968"><ele>332.3333333333333</ele><time>2026-04-28T14:46:51.86Z</time></trkpt><trkpt lat="37.8587675" lon="13.8489379"><ele>334.66666666666663</ele><time>2026-04-28T14:46:52.86Z</time></trkpt><trkpt lat="37.8587534" lon="13.848692"><ele>337.0</ele><time>2026-04-28T14:46:53.86Z</time></trkpt><trkpt lat="37.8587526" lon="13.8484601"><ele>336.66666666666663</ele><time>2026-04-28T14:46:54.86Z</time></trkpt><trkpt lat="37.8587557" lon="13.8482419"><ele>336.3333333333333</ele><time>2026-04-28T14:46:55.86Z</time></trkpt><trkpt lat="37.8587615" lon="13.8480385"><ele>336.0</ele><time>2026-04-28T14:46:56.86Z</time></trkpt><trkpt lat="37.8587509" lon="13.8478423"><ele>336.0</ele><time>2026-04-28T14:46:57.861Z</time></trkpt><trkpt lat="37.8586995" lon="13.8476567"><ele>336.0</ele><time>2026-04-28T14:46:58.86Z</time></trkpt><trkpt lat="37.8586172" lon="13.8474888"><ele>336.0</ele><time>2026-04-28T14:46:59.86Z</time></trkpt><trkpt lat="37.8585207" lon="13.8473389"><ele>331.3333333333333</ele><time>2026-04-28T14:47:00.86Z</time></trkpt><trkpt lat="37.8584146" lon="13.8471895"><ele>326.66666666666663</ele><time>2026-04-28T14:47:01.861Z</time></trkpt><trkpt lat="37.8582709" lon="13.8470517"><ele>322.0</ele><time>2026-04-28T14:47:02.86Z</time></trkpt><trkpt lat="37.858114" lon="13.8469323"><ele>322.0</ele><time>2026-04-28T14:47:03.86Z</time></trkpt><trkpt lat="37.8579596" lon="13.846826"><ele>322.0</ele><time>2026-04-28T14:47:04.86Z</time></trkpt><trkpt lat="37.8578128" lon="13.8467284"><ele>322.0</ele><time>2026-04-28T14:47:05.86Z</time></trkpt><trkpt lat="37.857662" lon="13.8466548"><ele>323.0</ele><time>2026-04-28T14:47:06.86Z</time></trkpt><trkpt lat="37.8574989" lon="13.8466315"><ele>324.0</ele><time>2026-04-28T14:47:07.86Z</time></trkpt><trkpt lat="37.8573089" lon="13.8466485"><ele>325.0</ele><time>2026-04-28T14:47:08.86Z</time></trkpt><trkpt lat="37.8571217" lon="13.8466831"><ele>325.0</ele><time>2026-04-28T14:47:09.86Z</time></trkpt><trkpt lat="37.8569322" lon="13.846718"><ele>325.0</ele><time>2026-04-28T14:47:10.86Z</time></trkpt><trkpt lat="37.8567548" lon="13.8467603"><ele>325.0</ele><time>2026-04-28T14:47:11.86Z</time></trkpt><trkpt lat="37.8565818" lon="13.8468012"><ele>321.3333333333333</ele><time>2026-04-28T14:47:12.86Z</time></trkpt><trkpt lat="37.8564201" lon="13.846844"><ele>317.6666666666667</ele><time>2026-04-28T14:47:13.86Z</time></trkpt><trkpt lat="37.8562645" lon="13.8468912"><ele>314.0</ele><time>2026-04-28T14:47:14.86Z</time></trkpt><trkpt lat="37.8561212" lon="13.8469605"><ele>314.0</ele><time>2026-04-28T14:47:15.86Z</time></trkpt><trkpt lat="37.855994" lon="13.8470786"><ele>314.0</ele><time>2026-04-28T14:47:16.86Z</time></trkpt><trkpt lat="37.8558976" lon="13.8472505"><ele>314.0</ele><time>2026-04-28T14:47:17.86Z</time></trkpt><trkpt lat="37.8558405" lon="13.8474462"><ele>313.25</ele><time>2026-04-28T14:47:18.86Z</time></trkpt><trkpt lat="37.8558106" lon="13.8476445"><ele>312.5</ele><time>2026-04-28T14:47:19.86Z</time></trkpt><trkpt lat="37.8557845" lon="13.8478295"><ele>311.75</ele><time>2026-04-28T14:47:20.86Z</time></trkpt><trkpt lat="37.8557544" lon="13.8479828"><ele>311.0</ele><time>2026-04-28T14:47:21.86Z</time></trkpt><trkpt lat="37.8557284" lon="13.8481082"><ele>311.0</ele><time>2026-04-28T14:47:22.86Z</time></trkpt><trkpt lat="37.8556898" lon="13.8482079"><ele>311.0</ele><time>2026-04-28T14:47:23.86Z</time></trkpt><trkpt lat="37.8556321" lon="13.8482835"><ele>311.0</ele><time>2026-04-28T14:47:24.859Z</time></trkpt><trkpt lat="37.8555665" lon="13.8483324"><ele>311.0</ele><time>2026-04-28T14:47:25.859Z</time></trkpt><trkpt lat="37.8554808" lon="13.8483562"><ele>311.0</ele><time>2026-04-28T14:47:26.859Z</time></trkpt><trkpt lat="37.8553934" lon="13.8483333"><ele>311.0</ele><time>2026-04-28T14:47:27.859Z</time></trkpt><trkpt lat="37.8553115" lon="13.8482617"><ele>311.0</ele><time>2026-04-28T14:47:28.859Z</time></trkpt><trkpt lat="37.8552439" lon="13.8481386"><ele>311.0</ele><time>2026-04-28T14:47:29.859Z</time></trkpt><trkpt lat="37.8551703" lon="13.8479652"><ele>311.0</ele><time>2026-04-28T14:47:30.859Z</time></trkpt><trkpt lat="37.8550904" lon="13.8477711"><ele>311.0</ele><time>2026-04-28T14:47:31.859Z</time></trkpt><trkpt lat="37.8550011" lon="13.8475717"><ele>313.33333333333337</ele><time>2026-04-28T14:47:32.859Z</time></trkpt><trkpt lat="37.8549107" lon="13.847379"><ele>315.6666666666667</ele><time>2026-04-28T14:47:33.859Z</time></trkpt><trkpt lat="37.854812" lon="13.8472045"><ele>318.0</ele><time>2026-04-28T14:47:34.859Z</time></trkpt><trkpt lat="37.8547037" lon="13.8470438"><ele>318.0</ele><time>2026-04-28T14:47:35.859Z</time></trkpt><trkpt lat="37.8545738" lon="13.8469016"><ele>318.0</ele><time>2026-04-28T14:47:36.859Z</time></trkpt><trkpt lat="37.8544305" lon="13.846781"><ele>318.0</ele><time>2026-04-28T14:47:37.859Z</time></trkpt><trkpt lat="37.8542687" lon="13.8466678"><ele>316.3333333333333</ele><time>2026-04-28T14:47:38.859Z</time></trkpt><trkpt lat="37.8541039" lon="13.8465647"><ele>314.66666666666663</ele><time>2026-04-28T14:47:39.859Z</time></trkpt><trkpt lat="37.8539458" lon="13.8464659"><ele>313.0</ele><time>2026-04-28T14:47:40.859Z</time></trkpt><trkpt lat="37.8537943" lon="13.8463603"><ele>313.0</ele><time>2026-04-28T14:47:41.859Z</time></trkpt><trkpt lat="37.8536504" lon="13.8462584"><ele>313.0</ele><time>2026-04-28T14:47:42.859Z</time></trkpt><trkpt lat="37.8535186" lon="13.8461521"><ele>313.0</ele><time>2026-04-28T14:47:43.859Z</time></trkpt><trkpt lat="37.8534096" lon="13.8460285"><ele>312.66666666666663</ele><time>2026-04-28T14:47:44.859Z</time></trkpt><trkpt lat="37.8533213" lon="13.8458584"><ele>312.3333333333333</ele><time>2026-04-28T14:47:45.859Z</time></trkpt><trkpt lat="37.85324" lon="13.845655"><ele>312.0</ele><time>2026-04-28T14:47:46.859Z</time></trkpt><trkpt lat="37.8531569" lon="13.8454508"><ele>312.0</ele><time>2026-04-28T14:47:47.859Z</time></trkpt><trkpt lat="37.8530635" lon="13.8452525"><ele>312.0</ele><time>2026-04-28T14:47:48.859Z</time></trkpt><trkpt lat="37.8529743" lon="13.8450505"><ele>312.0</ele><time>2026-04-28T14:47:49.859Z</time></trkpt><trkpt lat="37.8529002" lon="13.8448472"><ele>314.0</ele><time>2026-04-28T14:47:50.859Z</time></trkpt><trkpt lat="37.8528445" lon="13.8446358"><ele>316.0</ele><time>2026-04-28T14:47:51.859Z</time></trkpt><trkpt lat="37.8528035" lon="13.8444365"><ele>318.0</ele><time>2026-04-28T14:47:52.859Z</time></trkpt><trkpt lat="37.85276" lon="13.84426"><ele>318.75</ele><time>2026-04-28T14:47:53.859Z</time></trkpt><trkpt lat="37.8526985" lon="13.8440969"><ele>319.5</ele><time>2026-04-28T14:47:54.859Z</time></trkpt><trkpt lat="37.852593" lon="13.843972"><ele>320.25</ele><time>2026-04-28T14:47:55.859Z</time></trkpt><trkpt lat="37.8524635" lon="13.8438859"><ele>321.0</ele><time>2026-04-28T14:47:56.859Z</time></trkpt><trkpt lat="37.8523076" lon="13.8438191"><ele>319.0</ele><time>2026-04-28T14:47:57.859Z</time></trkpt><trkpt lat="37.8521617" lon="13.843754"><ele>317.0</ele><time>2026-04-28T14:47:58.859Z</time></trkpt><trkpt lat="37.8520258" lon="13.8436928"><ele>315.0</ele><time>2026-04-28T14:47:59.859Z</time></trkpt><trkpt lat="37.8518853" lon="13.8436515"><ele>313.0</ele><time>2026-04-28T14:48:00.859Z</time></trkpt><trkpt lat="37.8517521" lon="13.8436608"><ele>311.3333333333333</ele><time>2026-04-28T14:48:01.86Z</time></trkpt><trkpt lat="37.8516107" lon="13.843728"><ele>309.6666666666667</ele><time>2026-04-28T14:48:02.859Z</time></trkpt><trkpt lat="37.8514624" lon="13.843839"><ele>308.0</ele><time>2026-04-28T14:48:03.859Z</time></trkpt><trkpt lat="37.8512964" lon="13.8439733"><ele>308.0</ele><time>2026-04-28T14:48:04.859Z</time></trkpt><trkpt lat="37.8511208" lon="13.8441235"><ele>308.0</ele><time>2026-04-28T14:48:05.86Z</time></trkpt><trkpt lat="37.850946" lon="13.8442779"><ele>308.0</ele><time>2026-04-28T14:48:06.859Z</time></trkpt><trkpt lat="37.8507809" lon="13.8444325"><ele>305.0</ele><time>2026-04-28T14:48:07.859Z</time></trkpt><trkpt lat="37.8506237" lon="13.8445665"><ele>302.0</ele><time>2026-04-28T14:48:08.859Z</time></trkpt><trkpt lat="37.8504625" lon="13.8446551"><ele>299.0</ele><time>2026-04-28T14:48:09.859Z</time></trkpt><trkpt lat="37.8502867" lon="13.844687"><ele>300.33333333333337</ele><time>2026-04-28T14:48:10.859Z</time></trkpt><trkpt lat="37.8500926" lon="13.8447066"><ele>301.6666666666667</ele><time>2026-04-28T14:48:11.859Z</time></trkpt><trkpt lat="37.8498981" lon="13.844739"><ele>303.0</ele><time>2026-04-28T14:48:12.859Z</time></trkpt><trkpt lat="37.8497111" lon="13.8448055"><ele>303.0</ele><time>2026-04-28T14:48:13.859Z</time></trkpt><trkpt lat="37.8495401" lon="13.8449224"><ele>303.0</ele><time>2026-04-28T14:48:14.859Z</time></trkpt><trkpt lat="37.849373" lon="13.8450894"><ele>303.0</ele><time>2026-04-28T14:48:15.859Z</time></trkpt><trkpt lat="37.8492071" lon="13.8452842"><ele>301.0</ele><time>2026-04-28T14:48:16.859Z</time></trkpt><trkpt lat="37.8490405" lon="13.8454909"><ele>299.0</ele><time>2026-04-28T14:48:17.859Z</time></trkpt><trkpt lat="37.8488735" lon="13.8456909"><ele>299.0</ele><time>2026-04-28T14:48:18.859Z</time></trkpt><trkpt lat="37.8487166" lon="13.8458778"><ele>299.0</ele><time>2026-04-28T14:48:19.86Z</time></trkpt><trkpt lat="37.8485547" lon="13.8460576"><ele>299.0</ele><time>2026-04-28T14:48:20.859Z</time></trkpt><trkpt lat="37.8483891" lon="13.8462181"><ele>297.0</ele><time>2026-04-28T14:48:21.859Z</time></trkpt><trkpt lat="37.8482287" lon="13.8463493"><ele>295.0</ele><time>2026-04-28T14:48:22.859Z</time></trkpt><trkpt lat="37.8480627" lon="13.8464405"><ele>293.0</ele><time>2026-04-28T14:48:23.859Z</time></trkpt><trkpt lat="37.8478936" lon="13.8464887"><ele>293.0</ele><time>2026-04-28T14:48:24.859Z</time></trkpt><trkpt lat="37.8477256" lon="13.8465098"><ele>293.0</ele><time>2026-04-28T14:48:25.859Z</time></trkpt><trkpt lat="37.8475515" lon="13.8464928"><ele>293.0</ele><time>2026-04-28T14:48:26.859Z</time></trkpt><trkpt lat="37.847372" lon="13.8464364"><ele>292.6666666666667</ele><time>2026-04-28T14:48:27.859Z</time></trkpt><trkpt lat="37.8471752" lon="13.8463708"><ele>292.3333333333333</ele><time>2026-04-28T14:48:28.859Z</time></trkpt><trkpt lat="37.8469767" lon="13.8463316"><ele>292.0</ele><time>2026-04-28T14:48:29.859Z</time></trkpt><trkpt lat="37.8467894" lon="13.8463486"><ele>292.0</ele><time>2026-04-28T14:48:30.859Z</time></trkpt><trkpt lat="37.8466223" lon="13.8463831"><ele>292.0</ele><time>2026-04-28T14:48:31.859Z</time></trkpt><trkpt lat="37.8464646" lon="13.8464285"><ele>292.0</ele><time>2026-04-28T14:48:32.859Z</time></trkpt><trkpt lat="37.8462994" lon="13.8464414"><ele>292.0</ele><time>2026-04-28T14:48:33.859Z</time></trkpt><trkpt lat="37.8461162" lon="13.8464066"><ele>292.0</ele><time>2026-04-28T14:48:34.859Z</time></trkpt><trkpt lat="37.8459325" lon="13.8463282"><ele>292.0</ele><time>2026-04-28T14:48:35.859Z</time></trkpt><trkpt lat="37.845782" lon="13.846216"><ele>290.0</ele><time>2026-04-28T14:48:36.859Z</time></trkpt><trkpt lat="37.8456503" lon="13.8460946"><ele>288.0</ele><time>2026-04-28T14:48:37.86Z</time></trkpt><trkpt lat="37.8455494" lon="13.8459481"><ele>286.0</ele><time>2026-04-28T14:48:38.859Z</time></trkpt><trkpt lat="37.8454749" lon="13.845782"><ele>290.66666666666663</ele><time>2026-04-28T14:48:39.859Z</time></trkpt><trkpt lat="37.8454155" lon="13.8455817"><ele>295.3333333333333</ele><time>2026-04-28T14:48:40.859Z</time></trkpt><trkpt lat="37.8453715" lon="13.8453715"><ele>300.0</ele><time>2026-04-28T14:48:41.859Z</time></trkpt><trkpt lat="37.8453401" lon="13.8451632"><ele>302.25</ele><time>2026-04-28T14:48:42.859Z</time></trkpt><trkpt lat="37.8453234" lon="13.8449749"><ele>304.5</ele><time>2026-04-28T14:48:43.859Z</time></trkpt><trkpt lat="37.8453265" lon="13.8447884"><ele>306.75</ele><time>2026-04-28T14:48:44.859Z</time></trkpt><trkpt lat="37.8453138" lon="13.8446126"><ele>309.0</ele><time>2026-04-28T14:48:45.859Z</time></trkpt><trkpt lat="37.8452535" lon="13.8444505"><ele>309.0</ele><time>2026-04-28T14:48:46.859Z</time></trkpt><trkpt lat="37.8451619" lon="13.8443291"><ele>309.0</ele><time>2026-04-28T14:48:47.859Z</time></trkpt><trkpt lat="37.8450284" lon="13.8442375"><ele>309.0</ele><time>2026-04-28T14:48:48.86Z</time></trkpt><trkpt lat="37.8448546" lon="13.8441852"><ele>304.3333333333333</ele><time>2026-04-28T14:48:49.859Z</time></trkpt><trkpt lat="37.844676" lon="13.8441567"><ele>299.66666666666663</ele><time>2026-04-28T14:48:50.859Z</time></trkpt><trkpt lat="37.8445102" lon="13.8441267"><ele>295.0</ele><time>2026-04-28T14:48:51.859Z</time></trkpt><trkpt lat="37.8443687" lon="13.844095"><ele>293.75</ele><time>2026-04-28T14:48:52.859Z</time></trkpt><trkpt lat="37.8442593" lon="13.8440418"><ele>292.5</ele><time>2026-04-28T14:48:53.859Z</time></trkpt><trkpt lat="37.8441612" lon="13.8439757"><ele>291.25</ele><time>2026-04-28T14:48:54.859Z</time></trkpt><trkpt lat="37.844081" lon="13.8438626"><ele>290.0</ele><time>2026-04-28T14:48:55.859Z</time></trkpt><trkpt lat="37.844028" lon="13.8437089"><ele>290.0</ele><time>2026-04-28T14:48:56.859Z</time></trkpt><trkpt lat="37.8440096" lon="13.8435513"><ele>290.0</ele><time>2026-04-28T14:48:57.859Z</time></trkpt><trkpt lat="37.8440031" lon="13.8434136"><ele>290.0</ele><time>2026-04-28T14:48:58.859Z</time></trkpt><trkpt lat="37.8439788" lon="13.8433084"><ele>290.0</ele><time>2026-04-28T14:48:59.859Z</time></trkpt><trkpt lat="37.8439069" lon="13.8432455"><ele>290.0</ele><time>2026-04-28T14:49:00.859Z</time></trkpt><trkpt lat="37.8438185" lon="13.8432149"><ele>290.0</ele><time>2026-04-28T14:49:01.859Z</time></trkpt><trkpt lat="37.8437254" lon="13.8432352"><ele>290.0</ele><time>2026-04-28T14:49:02.859Z</time></trkpt><trkpt lat="37.8436286" lon="13.8433094"><ele>290.0</ele><time>2026-04-28T14:49:03.859Z</time></trkpt><trkpt lat="37.8435442" lon="13.8434105"><ele>290.0</ele><time>2026-04-28T14:49:04.859Z</time></trkpt><trkpt lat="37.843486" lon="13.8435581"><ele>290.0</ele><time>2026-04-28T14:49:05.859Z</time></trkpt><trkpt lat="37.8434541" lon="13.843724"><ele>290.0</ele><time>2026-04-28T14:49:06.859Z</time></trkpt><trkpt lat="37.8434477" lon="13.8439079"><ele>290.0</ele><time>2026-04-28T14:49:07.859Z</time></trkpt><trkpt lat="37.8434555" lon="13.8440733"><ele>290.0</ele><time>2026-04-28T14:49:08.859Z</time></trkpt><trkpt lat="37.8434429" lon="13.8442323"><ele>286.5</ele><time>2026-04-28T14:49:09.859Z</time></trkpt><trkpt lat="37.8433895" lon="13.8443739"><ele>283.0</ele><time>2026-04-28T14:49:10.859Z</time></trkpt><trkpt lat="37.843297" lon="13.8444941"><ele>279.5</ele><time>2026-04-28T14:49:11.859Z</time></trkpt><trkpt lat="37.8431842" lon="13.844576"><ele>276.0</ele><time>2026-04-28T14:49:12.859Z</time></trkpt><trkpt lat="37.8430535" lon="13.8446168"><ele>276.0</ele><time>2026-04-28T14:49:13.859Z</time></trkpt><trkpt lat="37.8429102" lon="13.8446322"><ele>276.0</ele><time>2026-04-28T14:49:14.859Z</time></trkpt><trkpt lat="37.8427574" lon="13.8446185"><ele>276.0</ele><time>2026-04-28T14:49:15.859Z</time></trkpt><trkpt lat="37.8425983" lon="13.8445926"><ele>275.3333333333333</ele><time>2026-04-28T14:49:16.859Z</time></trkpt><trkpt lat="37.8424291" lon="13.8445478"><ele>274.66666666666663</ele><time>2026-04-28T14:49:17.859Z</time></trkpt><trkpt lat="37.8422518" lon="13.8444968"><ele>274.0</ele><time>2026-04-28T14:49:18.859Z</time></trkpt><trkpt lat="37.8420763" lon="13.8444357"><ele>274.0</ele><time>2026-04-28T14:49:19.859Z</time></trkpt><trkpt lat="37.8418975" lon="13.8443537"><ele>274.0</ele><time>2026-04-28T14:49:20.859Z</time></trkpt><trkpt lat="37.8417173" lon="13.8442591"><ele>274.0</ele><time>2026-04-28T14:49:21.859Z</time></trkpt><trkpt lat="37.8415331" lon="13.8441497"><ele>277.66666666666663</ele><time>2026-04-28T14:49:22.859Z</time></trkpt><trkpt lat="37.8413455" lon="13.8440311"><ele>281.3333333333333</ele><time>2026-04-28T14:49:23.859Z</time></trkpt><trkpt lat="37.8411652" lon="13.8439122"><ele>285.0</ele><time>2026-04-28T14:49:24.859Z</time></trkpt><trkpt lat="37.840995" lon="13.8438008"><ele>283.6666666666667</ele><time>2026-04-28T14:49:25.859Z</time></trkpt><trkpt lat="37.8408313" lon="13.8436921"><ele>282.33333333333337</ele><time>2026-04-28T14:49:26.859Z</time></trkpt><trkpt lat="37.8406695" lon="13.8436099"><ele>281.0</ele><time>2026-04-28T14:49:27.859Z</time></trkpt><trkpt lat="37.8405032" lon="13.843568"><ele>281.0</ele><time>2026-04-28T14:49:28.859Z</time></trkpt><trkpt lat="37.8403412" lon="13.8435718"><ele>281.0</ele><time>2026-04-28T14:49:29.859Z</time></trkpt><trkpt lat="37.8401775" lon="13.8436447"><ele>281.0</ele><time>2026-04-28T14:49:30.859Z</time></trkpt><trkpt lat="37.8400199" lon="13.843756"><ele>281.6666666666667</ele><time>2026-04-28T14:49:31.859Z</time></trkpt><trkpt lat="37.8398623" lon="13.8439071"><ele>282.3333333333333</ele><time>2026-04-28T14:49:32.859Z</time></trkpt><trkpt lat="37.8396996" lon="13.8440731"><ele>283.0</ele><time>2026-04-28T14:49:33.859Z</time></trkpt><trkpt lat="37.839523" lon="13.8442432"><ele>279.5</ele><time>2026-04-28T14:49:34.859Z</time></trkpt><trkpt lat="37.8393432" lon="13.8444213"><ele>276.0</ele><time>2026-04-28T14:49:35.859Z</time></trkpt><trkpt lat="37.8391688" lon="13.8446049"><ele>276.0</ele><time>2026-04-28T14:49:36.859Z</time></trkpt><trkpt lat="37.8390051" lon="13.8447915"><ele>276.0</ele><time>2026-04-28T14:49:37.859Z</time></trkpt><trkpt lat="37.8388598" lon="13.8449707"><ele>276.0</ele><time>2026-04-28T14:49:38.859Z</time></trkpt><trkpt lat="37.8387184" lon="13.8451329"><ele>275.0</ele><time>2026-04-28T14:49:39.859Z</time></trkpt><trkpt lat="37.8385571" lon="13.8452672"><ele>274.0</ele><time>2026-04-28T14:49:40.86Z</time></trkpt><trkpt lat="37.8383713" lon="13.845374"><ele>273.0</ele><time>2026-04-28T14:49:41.859Z</time></trkpt><trkpt lat="37.8381788" lon="13.8454619"><ele>273.0</ele><time>2026-04-28T14:49:42.859Z</time></trkpt><trkpt lat="37.8379861" lon="13.8455438"><ele>273.0</ele><time>2026-04-28T14:49:43.859Z</time></trkpt><trkpt lat="37.8377918" lon="13.8456154"><ele>273.0</ele><time>2026-04-28T14:49:44.859Z</time></trkpt><trkpt lat="37.8375914" lon="13.8456753"><ele>273.0</ele><time>2026-04-28T14:49:45.859Z</time></trkpt><trkpt lat="37.8373794" lon="13.8457101"><ele>273.0</ele><time>2026-04-28T14:49:46.859Z</time></trkpt><trkpt lat="37.837158" lon="13.8457288"><ele>273.0</ele><time>2026-04-28T14:49:47.859Z</time></trkpt><trkpt lat="37.8369402" lon="13.8457215"><ele>270.6666666666667</ele><time>2026-04-28T14:49:48.859Z</time></trkpt><trkpt lat="37.8367344" lon="13.8457018"><ele>268.33333333333337</ele><time>2026-04-28T14:49:49.859Z</time></trkpt><trkpt lat="37.8365415" lon="13.8456841"><ele>266.0</ele><time>2026-04-28T14:49:50.859Z</time></trkpt><trkpt lat="37.8363554" lon="13.845669"><ele>266.0</ele><time>2026-04-28T14:49:51.859Z</time></trkpt><trkpt lat="37.8361786" lon="13.8456585"><ele>266.0</ele><time>2026-04-28T14:49:52.859Z</time></trkpt><trkpt lat="37.8360149" lon="13.8456774"><ele>266.0</ele><time>2026-04-28T14:49:53.859Z</time></trkpt><trkpt lat="37.8358588" lon="13.8457517"><ele>268.0</ele><time>2026-04-28T14:49:54.859Z</time></trkpt><trkpt lat="37.8357151" lon="13.8458819"><ele>270.0</ele><time>2026-04-28T14:49:55.859Z</time></trkpt><trkpt lat="37.83557" lon="13.8460399"><ele>272.0</ele><time>2026-04-28T14:49:56.86Z</time></trkpt><trkpt lat="37.8354344" lon="13.8462176"><ele>268.6666666666667</ele><time>2026-04-28T14:49:57.859Z</time></trkpt><trkpt lat="37.8353134" lon="13.8464062"><ele>265.3333333333333</ele><time>2026-04-28T14:49:58.859Z</time></trkpt><trkpt lat="37.8352075" lon="13.8465973"><ele>262.0</ele><time>2026-04-28T14:49:59.859Z</time></trkpt><trkpt lat="37.8350882" lon="13.8467523"><ele>257.3333333333333</ele><time>2026-04-28T14:50:00.859Z</time></trkpt><trkpt lat="37.8349436" lon="13.8468589"><ele>252.66666666666669</ele><time>2026-04-28T14:50:01.859Z</time></trkpt><trkpt lat="37.8347843" lon="13.8469464"><ele>248.0</ele><time>2026-04-28T14:50:02.859Z</time></trkpt><trkpt lat="37.8346318" lon="13.8470134"><ele>248.0</ele><time>2026-04-28T14:50:03.86Z</time></trkpt><trkpt lat="37.8345015" lon="13.8470766"><ele>248.0</ele><time>2026-04-28T14:50:04.859Z</time></trkpt><trkpt lat="37.834407" lon="13.8471252"><ele>248.0</ele><time>2026-04-28T14:50:05.859Z</time></trkpt><trkpt lat="37.8343608" lon="13.8471913"><ele>248.0</ele><time>2026-04-28T14:50:06.859Z</time></trkpt><trkpt lat="37.8343629" lon="13.847277"><ele>248.0</ele><time>2026-04-28T14:50:07.859Z</time></trkpt><trkpt lat="37.8344259" lon="13.8473645"><ele>248.0</ele><time>2026-04-28T14:50:08.859Z</time></trkpt><trkpt lat="37.8345204" lon="13.8473917"><ele>248.0</ele><time>2026-04-28T14:50:09.859Z</time></trkpt><trkpt lat="37.8346292" lon="13.8473718"><ele>248.0</ele><time>2026-04-28T14:50:10.859Z</time></trkpt><trkpt lat="37.8347627" lon="13.8473236"><ele>248.0</ele><time>2026-04-28T14:50:11.859Z</time></trkpt><trkpt lat="37.834898" lon="13.8472748"><ele>248.0</ele><time>2026-04-28T14:50:12.86Z</time></trkpt><trkpt lat="37.8350399" lon="13.847238"><ele>248.0</ele><time>2026-04-28T14:50:13.859Z</time></trkpt><trkpt lat="37.8351922" lon="13.8472132"><ele>248.0</ele><time>2026-04-28T14:50:14.859Z</time></trkpt><trkpt lat="37.8353394" lon="13.8471956"><ele>248.0</ele><time>2026-04-28T14:50:15.859Z</time></trkpt><trkpt lat="37.8354823" lon="13.8471721"><ele>245.66666666666669</ele><time>2026-04-28T14:50:16.859Z</time></trkpt><trkpt lat="37.8356438" lon="13.847149"><ele>243.33333333333331</ele><time>2026-04-28T14:50:17.859Z</time></trkpt><trkpt lat="37.8358126" lon="13.8471472"><ele>241.0</ele><time>2026-04-28T14:50:18.859Z</time></trkpt><trkpt lat="37.8359804" lon="13.8471636"><ele>240.75</ele><time>2026-04-28T14:50:19.859Z</time></trkpt><trkpt lat="37.8361252" lon="13.8472276"><ele>240.5</ele><time>2026-04-28T14:50:20.859Z</time></trkpt><trkpt lat="37.8362485" lon="13.8473376"><ele>240.25</ele><time>2026-04-28T14:50:21.859Z</time></trkpt><trkpt lat="37.8363563" lon="13.8474577"><ele>240.0</ele><time>2026-04-28T14:50:22.859Z</time></trkpt><trkpt lat="37.8364644" lon="13.8475776"><ele>237.25</ele><time>2026-04-28T14:50:23.859Z</time></trkpt><trkpt lat="37.8365866" lon="13.8476686"><ele>234.5</ele><time>2026-04-28T14:50:24.859Z</time></trkpt><trkpt lat="37.8367336" lon="13.847716"><ele>231.75</ele><time>2026-04-28T14:50:25.859Z</time></trkpt><trkpt lat="37.8368825" lon="13.8476939"><ele>229.0</ele><time>2026-04-28T14:50:26.859Z</time></trkpt><trkpt lat="37.8370333" lon="13.8476417"><ele>231.2</ele><time>2026-04-28T14:50:27.859Z</time></trkpt><trkpt lat="37.8371706" lon="13.8475818"><ele>233.39999999999998</ele><time>2026-04-28T14:50:28.859Z</time></trkpt><trkpt lat="37.8372941" lon="13.8475261"><ele>235.6</ele><time>2026-04-28T14:50:29.859Z</time></trkpt><trkpt lat="37.8373911" lon="13.847493"><ele>237.8</ele><time>2026-04-28T14:50:30.859Z</time></trkpt><trkpt lat="37.8374636" lon="13.8474917"><ele>240.0</ele><time>2026-04-28T14:50:31.859Z</time></trkpt><trkpt lat="37.8375341" lon="13.8475864"><ele>236.5</ele><time>2026-04-28T14:50:33.859Z</time></trkpt><trkpt lat="37.8375022" lon="13.8476872"><ele>233.0</ele><time>2026-04-28T14:50:34.859Z</time></trkpt><trkpt lat="37.8374189" lon="13.847793"><ele>229.5</ele><time>2026-04-28T14:50:35.859Z</time></trkpt><trkpt lat="37.8372946" lon="13.8479131"><ele>226.0</ele><time>2026-04-28T14:50:36.859Z</time></trkpt><trkpt lat="37.8371611" lon="13.8480083"><ele>226.0</ele><time>2026-04-28T14:50:37.86Z</time></trkpt><trkpt lat="37.8370285" lon="13.8480936"><ele>226.0</ele><time>2026-04-28T14:50:38.859Z</time></trkpt><trkpt lat="37.8368937" lon="13.8481767"><ele>226.0</ele><time>2026-04-28T14:50:39.859Z</time></trkpt><trkpt lat="37.8367499" lon="13.8482398"><ele>227.0</ele><time>2026-04-28T14:50:40.859Z</time></trkpt><trkpt lat="37.8365968" lon="13.8482697"><ele>228.0</ele><time>2026-04-28T14:50:41.859Z</time></trkpt><trkpt lat="37.836431" lon="13.8482824"><ele>229.0</ele><time>2026-04-28T14:50:42.859Z</time></trkpt><trkpt lat="37.8362576" lon="13.8482971"><ele>229.0</ele><time>2026-04-28T14:50:43.859Z</time></trkpt><trkpt lat="37.8360878" lon="13.8483049"><ele>229.0</ele><time>2026-04-28T14:50:44.859Z</time></trkpt><trkpt lat="37.8359322" lon="13.8483182"><ele>229.0</ele><time>2026-04-28T14:50:45.859Z</time></trkpt><trkpt lat="37.8357895" lon="13.8483725"><ele>223.66666666666666</ele><time>2026-04-28T14:50:46.859Z</time></trkpt><trkpt lat="37.8356467" lon="13.848479"><ele>218.33333333333331</ele><time>2026-04-28T14:50:47.859Z</time></trkpt><trkpt lat="37.8355193" lon="13.8486007"><ele>213.0</ele><time>2026-04-28T14:50:48.86Z</time></trkpt><trkpt lat="37.835395" lon="13.8487305"><ele>213.0</ele><time>2026-04-28T14:50:49.859Z</time></trkpt><trkpt lat="37.8352697" lon="13.8488527"><ele>213.0</ele><time>2026-04-28T14:50:50.859Z</time></trkpt><trkpt lat="37.8351487" lon="13.8489719"><ele>213.0</ele><time>2026-04-28T14:50:51.859Z</time></trkpt><trkpt lat="37.8350529" lon="13.8491073"><ele>215.0</ele><time>2026-04-28T14:50:52.859Z</time></trkpt><trkpt lat="37.8350042" lon="13.8492775"><ele>217.0</ele><time>2026-04-28T14:50:53.859Z</time></trkpt><trkpt lat="37.8349855" lon="13.8494924"><ele>219.0</ele><time>2026-04-28T14:50:54.859Z</time></trkpt><trkpt lat="37.8349875" lon="13.8497199"><ele>219.0</ele><time>2026-04-28T14:50:55.859Z</time></trkpt><trkpt lat="37.834982" lon="13.8499299"><ele>219.0</ele><time>2026-04-28T14:50:56.859Z</time></trkpt><trkpt lat="37.8349883" lon="13.8501149"><ele>219.0</ele><time>2026-04-28T14:50:57.859Z</time></trkpt><trkpt lat="37.8350119" lon="13.8502885"><ele>222.0</ele><time>2026-04-28T14:50:58.859Z</time></trkpt><trkpt lat="37.8350903" lon="13.8504408"><ele>225.0</ele><time>2026-04-28T14:50:59.859Z</time></trkpt><trkpt lat="37.8352258" lon="13.8505859"><ele>228.0</ele><time>2026-04-28T14:51:00.859Z</time></trkpt><trkpt lat="37.8353776" lon="13.8507325"><ele>228.0</ele><time>2026-04-28T14:51:01.859Z</time></trkpt><trkpt lat="37.8355411" lon="13.850913"><ele>228.0</ele><time>2026-04-28T14:51:02.859Z</time></trkpt><trkpt lat="37.8357134" lon="13.851112"><ele>228.5</ele><time>2026-04-28T14:51:03.859Z</time></trkpt><trkpt lat="37.8359047" lon="13.8513221"><ele>229.0</ele><time>2026-04-28T14:51:04.859Z</time></trkpt><trkpt lat="37.8360923" lon="13.8515313"><ele>229.0</ele><time>2026-04-28T14:51:05.859Z</time></trkpt><trkpt lat="37.8362699" lon="13.851725"><ele>229.0</ele><time>2026-04-28T14:51:06.859Z</time></trkpt><trkpt lat="37.8364273" lon="13.8518962"><ele>229.0</ele><time>2026-04-28T14:51:07.859Z</time></trkpt><trkpt lat="37.8365502" lon="13.8520705"><ele>231.33333333333331</ele><time>2026-04-28T14:51:08.859Z</time></trkpt><trkpt lat="37.8366545" lon="13.8522633"><ele>233.66666666666669</ele><time>2026-04-28T14:51:09.859Z</time></trkpt><trkpt lat="37.8367683" lon="13.8524706"><ele>236.0</ele><time>2026-04-28T14:51:10.859Z</time></trkpt><trkpt lat="37.8369048" lon="13.8526707"><ele>236.0</ele><time>2026-04-28T14:51:11.859Z</time></trkpt><trkpt lat="37.8370571" lon="13.8528554"><ele>236.0</ele><time>2026-04-28T14:51:12.859Z</time></trkpt><trkpt lat="37.837204" lon="13.8530322"><ele>236.0</ele><time>2026-04-28T14:51:13.859Z</time></trkpt><trkpt lat="37.8373308" lon="13.853219"><ele>236.0</ele><time>2026-04-28T14:51:14.859Z</time></trkpt><trkpt lat="37.8374321" lon="13.8534016"><ele>236.0</ele><time>2026-04-28T14:51:15.859Z</time></trkpt><trkpt lat="37.837497" lon="13.8535638"><ele>236.0</ele><time>2026-04-28T14:51:16.859Z</time></trkpt><trkpt lat="37.8375209" lon="13.8537293"><ele>238.66666666666669</ele><time>2026-04-28T14:51:17.859Z</time></trkpt><trkpt lat="37.8375265" lon="13.8539272"><ele>241.33333333333331</ele><time>2026-04-28T14:51:18.859Z</time></trkpt><trkpt lat="37.8375287" lon="13.8541571"><ele>244.0</ele><time>2026-04-28T14:51:19.859Z</time></trkpt><trkpt lat="37.8375389" lon="13.854386"><ele>246.33333333333331</ele><time>2026-04-28T14:51:20.859Z</time></trkpt><trkpt lat="37.8375693" lon="13.8545827"><ele>248.66666666666669</ele><time>2026-04-28T14:51:21.859Z</time></trkpt><trkpt lat="37.83764" lon="13.8547496"><ele>251.0</ele><time>2026-04-28T14:51:22.859Z</time></trkpt><trkpt lat="37.8377359" lon="13.85491"><ele>250.0</ele><time>2026-04-28T14:51:23.859Z</time></trkpt><trkpt lat="37.8378304" lon="13.855044"><ele>249.0</ele><time>2026-04-28T14:51:24.859Z</time></trkpt><trkpt lat="37.8379084" lon="13.8551719"><ele>248.0</ele><time>2026-04-28T14:51:25.859Z</time></trkpt><trkpt lat="37.8379561" lon="13.8552781"><ele>247.0</ele><time>2026-04-28T14:51:26.859Z</time></trkpt><trkpt lat="37.8379076" lon="13.8553713"><ele>247.0</ele><time>2026-04-28T14:51:28.859Z</time></trkpt><trkpt lat="37.8378313" lon="13.8553482"><ele>247.0</ele><time>2026-04-28T14:51:29.86Z</time></trkpt><trkpt lat="37.8377347" lon="13.855279"><ele>247.0</ele><time>2026-04-28T14:51:30.859Z</time></trkpt><trkpt lat="37.8376191" lon="13.8551965"><ele>247.0</ele><time>2026-04-28T14:51:31.859Z</time></trkpt><trkpt lat="37.837487" lon="13.8550918"><ele>248.33333333333331</ele><time>2026-04-28T14:51:32.859Z</time></trkpt><trkpt lat="37.837357" lon="13.8549695"><ele>249.66666666666669</ele><time>2026-04-28T14:51:33.859Z</time></trkpt><trkpt lat="37.8372458" lon="13.8548062"><ele>251.0</ele><time>2026-04-28T14:51:34.859Z</time></trkpt><trkpt lat="37.8371459" lon="13.8546153"><ele>251.0</ele><time>2026-04-28T14:51:35.859Z</time></trkpt><trkpt lat="37.8370523" lon="13.8544161"><ele>251.0</ele><time>2026-04-28T14:51:36.859Z</time></trkpt><trkpt lat="37.8369562" lon="13.8542258"><ele>251.0</ele><time>2026-04-28T14:51:37.859Z</time></trkpt><trkpt lat="37.8368621" lon="13.854049"><ele>255.0</ele><time>2026-04-28T14:51:38.859Z</time></trkpt><trkpt lat="37.8367693" lon="13.8538868"><ele>259.0</ele><time>2026-04-28T14:51:39.859Z</time></trkpt><trkpt lat="37.8366624" lon="13.853741"><ele>263.0</ele><time>2026-04-28T14:51:40.859Z</time></trkpt><trkpt lat="37.8365291" lon="13.8536511"><ele>263.0</ele><time>2026-04-28T14:51:41.859Z</time></trkpt><trkpt lat="37.8363749" lon="13.8536"><ele>263.0</ele><time>2026-04-28T14:51:42.859Z</time></trkpt><trkpt lat="37.836201" lon="13.8535853"><ele>263.0</ele><time>2026-04-28T14:51:43.859Z</time></trkpt><trkpt lat="37.8360167" lon="13.8535835"><ele>266.6666666666667</ele><time>2026-04-28T14:51:44.859Z</time></trkpt><trkpt lat="37.8358017" lon="13.8535873"><ele>270.3333333333333</ele><time>2026-04-28T14:51:45.859Z</time></trkpt><trkpt lat="37.8355801" lon="13.8535995"><ele>274.0</ele><time>2026-04-28T14:51:46.859Z</time></trkpt><trkpt lat="37.8353567" lon="13.8536102"><ele>274.0</ele><time>2026-04-28T14:51:47.859Z</time></trkpt><trkpt lat="37.8351509" lon="13.8536412"><ele>274.0</ele><time>2026-04-28T14:51:48.859Z</time></trkpt><trkpt lat="37.8349617" lon="13.853678"><ele>274.0</ele><time>2026-04-28T14:51:49.859Z</time></trkpt><trkpt lat="37.8347908" lon="13.853703"><ele>274.75</ele><time>2026-04-28T14:51:50.859Z</time></trkpt><trkpt lat="37.8346507" lon="13.8537004"><ele>275.5</ele><time>2026-04-28T14:51:51.859Z</time></trkpt><trkpt lat="37.8345297" lon="13.8536312"><ele>276.25</ele><time>2026-04-28T14:51:52.859Z</time></trkpt><trkpt lat="37.8344485" lon="13.8535153"><ele>277.0</ele><time>2026-04-28T14:51:53.859Z</time></trkpt><trkpt lat="37.8344007" lon="13.8533453"><ele>278.0</ele><time>2026-04-28T14:51:54.859Z</time></trkpt><trkpt lat="37.8343713" lon="13.8531547"><ele>279.0</ele><time>2026-04-28T14:51:55.859Z</time></trkpt><trkpt lat="37.8343418" lon="13.8529865"><ele>280.0</ele><time>2026-04-28T14:51:56.859Z</time></trkpt><trkpt lat="37.8342951" lon="13.852841"><ele>281.0</ele><time>2026-04-28T14:51:57.859Z</time></trkpt><trkpt lat="37.8342067" lon="13.8527443"><ele>281.0</ele><time>2026-04-28T14:51:58.859Z</time></trkpt><trkpt lat="37.8340847" lon="13.8526637"><ele>281.0</ele><time>2026-04-28T14:51:59.859Z</time></trkpt><trkpt lat="37.8339553" lon="13.8525854"><ele>281.0</ele><time>2026-04-28T14:52:00.859Z</time></trkpt><trkpt lat="37.8338434" lon="13.8524641"><ele>281.0</ele><time>2026-04-28T14:52:01.859Z</time></trkpt><trkpt lat="37.8337548" lon="13.8523155"><ele>280.2</ele><time>2026-04-28T14:52:02.859Z</time></trkpt><trkpt lat="37.8336939" lon="13.8521648"><ele>279.40000000000003</ele><time>2026-04-28T14:52:03.859Z</time></trkpt><trkpt lat="37.8336426" lon="13.8520438"><ele>278.6</ele><time>2026-04-28T14:52:04.859Z</time></trkpt><trkpt lat="37.833577" lon="13.8519806"><ele>277.8</ele><time>2026-04-28T14:52:05.859Z</time></trkpt><trkpt lat="37.8335133" lon="13.8519727"><ele>277.0</ele><time>2026-04-28T14:52:06.859Z</time></trkpt><trkpt lat="37.8334475" lon="13.8520244"><ele>277.0</ele><time>2026-04-28T14:52:07.859Z</time></trkpt><trkpt lat="37.8334229" lon="13.8521121"><ele>277.0</ele><time>2026-04-28T14:52:08.859Z</time></trkpt><trkpt lat="37.8334449" lon="13.8522091"><ele>277.0</ele><time>2026-04-28T14:52:09.859Z</time></trkpt><trkpt lat="37.8335076" lon="13.8522961"><ele>277.0</ele><time>2026-04-28T14:52:10.859Z</time></trkpt><trkpt lat="37.8335804" lon="13.8524001"><ele>277.0</ele><time>2026-04-28T14:52:11.859Z</time></trkpt><trkpt lat="37.8336304" lon="13.8525374"><ele>278.0</ele><time>2026-04-28T14:52:12.859Z</time></trkpt><trkpt lat="37.8336398" lon="13.8526847"><ele>279.0</ele><time>2026-04-28T14:52:13.859Z</time></trkpt><trkpt lat="37.8336131" lon="13.8528294"><ele>280.0</ele><time>2026-04-28T14:52:14.859Z</time></trkpt><trkpt lat="37.8335468" lon="13.85295"><ele>281.0</ele><time>2026-04-28T14:52:15.859Z</time></trkpt><trkpt lat="37.8334602" lon="13.8530542"><ele>286.5</ele><time>2026-04-28T14:52:16.859Z</time></trkpt><trkpt lat="37.8333799" lon="13.853159"><ele>292.0</ele><time>2026-04-28T14:52:17.859Z</time></trkpt><trkpt lat="37.8333334" lon="13.8532982"><ele>297.5</ele><time>2026-04-28T14:52:18.859Z</time></trkpt><trkpt lat="37.833324" lon="13.8534677"><ele>303.0</ele><time>2026-04-28T14:52:19.859Z</time></trkpt><trkpt lat="37.8333512" lon="13.8536388"><ele>305.0</ele><time>2026-04-28T14:52:20.859Z</time></trkpt><trkpt lat="37.8334201" lon="13.8538029"><ele>307.0</ele><time>2026-04-28T14:52:21.859Z</time></trkpt><trkpt lat="37.8335189" lon="13.8539455"><ele>309.0</ele><time>2026-04-28T14:52:22.859Z</time></trkpt><trkpt lat="37.8336304" lon="13.8540616"><ele>311.0</ele><time>2026-04-28T14:52:23.859Z</time></trkpt><trkpt lat="37.8337336" lon="13.85417"><ele>308.5</ele><time>2026-04-28T14:52:24.859Z</time></trkpt><trkpt lat="37.8338178" lon="13.8542859"><ele>306.0</ele><time>2026-04-28T14:52:25.859Z</time></trkpt><trkpt lat="37.8338325" lon="13.8544334"><ele>303.5</ele><time>2026-04-28T14:52:26.859Z</time></trkpt><trkpt lat="37.8337993" lon="13.8545916"><ele>301.0</ele><time>2026-04-28T14:52:27.859Z</time></trkpt><trkpt lat="37.8337459" lon="13.854736"><ele>301.0</ele><time>2026-04-28T14:52:28.859Z</time></trkpt><trkpt lat="37.8336955" lon="13.8548757"><ele>301.0</ele><time>2026-04-28T14:52:29.859Z</time></trkpt><trkpt lat="37.8336681" lon="13.8550112"><ele>301.0</ele><time>2026-04-28T14:52:30.859Z</time></trkpt><trkpt lat="37.833685" lon="13.8551232"><ele>301.0</ele><time>2026-04-28T14:52:31.859Z</time></trkpt><trkpt lat="37.8337529" lon="13.8552428"><ele>301.0</ele><time>2026-04-28T14:52:32.859Z</time></trkpt><trkpt lat="37.833858" lon="13.8553666"><ele>306.0</ele><time>2026-04-28T14:52:33.859Z</time></trkpt><trkpt lat="37.8339823" lon="13.8554833"><ele>311.0</ele><time>2026-04-28T14:52:34.859Z</time></trkpt><trkpt lat="37.8341309" lon="13.8555702"><ele>316.0</ele><time>2026-04-28T14:52:35.859Z</time></trkpt><trkpt lat="37.8342917" lon="13.8556115"><ele>313.0</ele><time>2026-04-28T14:52:36.86Z</time></trkpt><trkpt lat="37.8344501" lon="13.8556407"><ele>310.0</ele><time>2026-04-28T14:52:37.859Z</time></trkpt><trkpt lat="37.8345979" lon="13.8556813"><ele>307.0</ele><time>2026-04-28T14:52:38.859Z</time></trkpt><trkpt lat="37.8347246" lon="13.8557662"><ele>307.0</ele><time>2026-04-28T14:52:39.859Z</time></trkpt><trkpt lat="37.8348226" lon="13.855882"><ele>307.0</ele><time>2026-04-28T14:52:40.859Z</time></trkpt><trkpt lat="37.8349105" lon="13.8560602"><ele>307.0</ele><time>2026-04-28T14:52:41.859Z</time></trkpt><trkpt lat="37.8349887" lon="13.8562594"><ele>306.0</ele><time>2026-04-28T14:52:42.859Z</time></trkpt><trkpt lat="37.8350703" lon="13.8564598"><ele>305.0</ele><time>2026-04-28T14:52:43.859Z</time></trkpt><trkpt lat="37.8351695" lon="13.8566472"><ele>304.0</ele><time>2026-04-28T14:52:44.859Z</time></trkpt><trkpt lat="37.8352809" lon="13.8567963"><ele>307.0</ele><time>2026-04-28T14:52:45.859Z</time></trkpt><trkpt lat="37.8353918" lon="13.8569235"><ele>310.0</ele><time>2026-04-28T14:52:46.859Z</time></trkpt><trkpt lat="37.8354881" lon="13.8570481"><ele>313.0</ele><time>2026-04-28T14:52:47.86Z</time></trkpt><trkpt lat="37.8355531" lon="13.8571864"><ele>316.0</ele><time>2026-04-28T14:52:48.859Z</time></trkpt><trkpt lat="37.8355973" lon="13.8573658"><ele>316.0</ele><time>2026-04-28T14:52:49.859Z</time></trkpt><trkpt lat="37.8356346" lon="13.8575667"><ele>316.0</ele><time>2026-04-28T14:52:50.859Z</time></trkpt><trkpt lat="37.8356703" lon="13.8577653"><ele>316.0</ele><time>2026-04-28T14:52:51.859Z</time></trkpt><trkpt lat="37.8357205" lon="13.8579644"><ele>317.0</ele><time>2026-04-28T14:52:52.859Z</time></trkpt><trkpt lat="37.8357816" lon="13.8581613"><ele>318.0</ele><time>2026-04-28T14:52:53.859Z</time></trkpt><trkpt lat="37.8358323" lon="13.8583587"><ele>319.0</ele><time>2026-04-28T14:52:54.859Z</time></trkpt><trkpt lat="37.8358615" lon="13.8585402"><ele>319.0</ele><time>2026-04-28T14:52:55.859Z</time></trkpt><trkpt lat="37.8358527" lon="13.8586938"><ele>319.0</ele><time>2026-04-28T14:52:56.859Z</time></trkpt><trkpt lat="37.835799" lon="13.8588248"><ele>319.0</ele><time>2026-04-28T14:52:57.859Z</time></trkpt><trkpt lat="37.8357057" lon="13.8589462"><ele>319.0</ele><time>2026-04-28T14:52:58.859Z</time></trkpt><trkpt lat="37.8356071" lon="13.8590662"><ele>319.0</ele><time>2026-04-28T14:52:59.859Z</time></trkpt><trkpt lat="37.8355103" lon="13.8592016"><ele>319.0</ele><time>2026-04-28T14:53:00.859Z</time></trkpt><trkpt lat="37.8354283" lon="13.8593587"><ele>319.0</ele><time>2026-04-28T14:53:01.859Z</time></trkpt><trkpt lat="37.8353757" lon="13.8595551"><ele>317.66666666666663</ele><time>2026-04-28T14:53:02.859Z</time></trkpt><trkpt lat="37.8353511" lon="13.8597463"><ele>316.3333333333333</ele><time>2026-04-28T14:53:03.859Z</time></trkpt><trkpt lat="37.835355" lon="13.8599442"><ele>315.0</ele><time>2026-04-28T14:53:04.859Z</time></trkpt><trkpt lat="37.8353415" lon="13.8601305"><ele>314.0</ele><time>2026-04-28T14:53:05.859Z</time></trkpt><trkpt lat="37.8352935" lon="13.8603111"><ele>313.0</ele><time>2026-04-28T14:53:06.859Z</time></trkpt><trkpt lat="37.8352144" lon="13.8604743"><ele>312.0</ele><time>2026-04-28T14:53:07.859Z</time></trkpt><trkpt lat="37.8351226" lon="13.8606328"><ele>318.3333333333333</ele><time>2026-04-28T14:53:08.859Z</time></trkpt><trkpt lat="37.8350385" lon="13.8607974"><ele>324.66666666666663</ele><time>2026-04-28T14:53:09.859Z</time></trkpt><trkpt lat="37.8349646" lon="13.8609748"><ele>331.0</ele><time>2026-04-28T14:53:10.859Z</time></trkpt><trkpt lat="37.8349122" lon="13.8611513"><ele>331.0</ele><time>2026-04-28T14:53:11.859Z</time></trkpt><trkpt lat="37.8348693" lon="13.8613201"><ele>331.0</ele><time>2026-04-28T14:53:12.859Z</time></trkpt><trkpt lat="37.8348401" lon="13.8614774"><ele>331.0</ele><time>2026-04-28T14:53:13.859Z</time></trkpt><trkpt lat="37.8348511" lon="13.8616179"><ele>331.0</ele><time>2026-04-28T14:53:14.859Z</time></trkpt><trkpt lat="37.8348973" lon="13.8617331"><ele>331.25</ele><time>2026-04-28T14:53:15.859Z</time></trkpt><trkpt lat="37.8350009" lon="13.8618261"><ele>331.5</ele><time>2026-04-28T14:53:16.859Z</time></trkpt><trkpt lat="37.8351307" lon="13.861892"><ele>331.75</ele><time>2026-04-28T14:53:17.859Z</time></trkpt><trkpt lat="37.835253" lon="13.8619737"><ele>332.0</ele><time>2026-04-28T14:53:18.859Z</time></trkpt><trkpt lat="37.8353425" lon="13.862112"><ele>332.0</ele><time>2026-04-28T14:53:19.859Z</time></trkpt><trkpt lat="37.8354171" lon="13.8622912"><ele>332.0</ele><time>2026-04-28T14:53:20.859Z</time></trkpt><trkpt lat="37.8355026" lon="13.8624814"><ele>332.0</ele><time>2026-04-28T14:53:21.859Z</time></trkpt><trkpt lat="37.8356114" lon="13.8626593"><ele>333.0</ele><time>2026-04-28T14:53:22.859Z</time></trkpt><trkpt lat="37.835745" lon="13.8628147"><ele>334.0</ele><time>2026-04-28T14:53:23.859Z</time></trkpt><trkpt lat="37.8358955" lon="13.8629431"><ele>335.0</ele><time>2026-04-28T14:53:24.859Z</time></trkpt><trkpt lat="37.8360431" lon="13.8630255"><ele>335.0</ele><time>2026-04-28T14:53:25.859Z</time></trkpt><trkpt lat="37.8361899" lon="13.8630846"><ele>335.0</ele><time>2026-04-28T14:53:26.859Z</time></trkpt><trkpt lat="37.8363125" lon="13.8631489"><ele>335.0</ele><time>2026-04-28T14:53:27.859Z</time></trkpt><trkpt lat="37.8364021" lon="13.863257"><ele>335.0</ele><time>2026-04-28T14:53:28.859Z</time></trkpt><trkpt lat="37.8364557" lon="13.863428"><ele>336.25</ele><time>2026-04-28T14:53:29.859Z</time></trkpt><trkpt lat="37.8364794" lon="13.8635992"><ele>337.5</ele><time>2026-04-28T14:53:30.86Z</time></trkpt><trkpt lat="37.8364591" lon="13.8637796"><ele>338.75</ele><time>2026-04-28T14:53:31.859Z</time></trkpt><trkpt lat="37.836415" lon="13.8639807"><ele>340.0</ele><time>2026-04-28T14:53:32.859Z</time></trkpt><trkpt lat="37.8363614" lon="13.8641971"><ele>340.0</ele><time>2026-04-28T14:53:33.859Z</time></trkpt><trkpt lat="37.8363101" lon="13.8644122"><ele>340.0</ele><time>2026-04-28T14:53:34.859Z</time></trkpt><trkpt lat="37.8362612" lon="13.8646195"><ele>340.0</ele><time>2026-04-28T14:53:35.86Z</time></trkpt><trkpt lat="37.836234" lon="13.8648239"><ele>340.0</ele><time>2026-04-28T14:53:36.859Z</time></trkpt><trkpt lat="37.8362493" lon="13.8650435"><ele>340.0</ele><time>2026-04-28T14:53:37.859Z</time></trkpt><trkpt lat="37.836299" lon="13.8652465"><ele>340.0</ele><time>2026-04-28T14:53:38.859Z</time></trkpt><trkpt lat="37.8363371" lon="13.8654325"><ele>340.75</ele><time>2026-04-28T14:53:39.859Z</time></trkpt><trkpt lat="37.8363449" lon="13.8655868"><ele>341.5</ele><time>2026-04-28T14:53:40.859Z</time></trkpt><trkpt lat="37.836293" lon="13.8657216"><ele>342.25</ele><time>2026-04-28T14:53:41.859Z</time></trkpt><trkpt lat="37.8361995" lon="13.8658288"><ele>343.0</ele><time>2026-04-28T14:53:42.859Z</time></trkpt><trkpt lat="37.8360819" lon="13.8659113"><ele>344.3333333333333</ele><time>2026-04-28T14:53:43.859Z</time></trkpt><trkpt lat="37.8359484" lon="13.8659942"><ele>345.6666666666667</ele><time>2026-04-28T14:53:44.859Z</time></trkpt><trkpt lat="37.8357968" lon="13.8660474"><ele>347.0</ele><time>2026-04-28T14:53:45.859Z</time></trkpt><trkpt lat="37.8356323" lon="13.8660792"><ele>347.0</ele><time>2026-04-28T14:53:46.859Z</time></trkpt><trkpt lat="37.8354708" lon="13.8661008"><ele>347.0</ele><time>2026-04-28T14:53:47.859Z</time></trkpt><trkpt lat="37.8353274" lon="13.8661516"><ele>347.0</ele><time>2026-04-28T14:53:48.859Z</time></trkpt><trkpt lat="37.8351998" lon="13.866252"><ele>349.75</ele><time>2026-04-28T14:53:49.859Z</time></trkpt><trkpt lat="37.8350933" lon="13.8663756"><ele>352.5</ele><time>2026-04-28T14:53:50.859Z</time></trkpt><trkpt lat="37.8350003" lon="13.8664752"><ele>355.25</ele><time>2026-04-28T14:53:51.86Z</time></trkpt><trkpt lat="37.8349044" lon="13.8665271"><ele>358.0</ele><time>2026-04-28T14:53:52.859Z</time></trkpt><trkpt lat="37.8348054" lon="13.866521"><ele>358.0</ele><time>2026-04-28T14:53:53.859Z</time></trkpt><trkpt lat="37.8347074" lon="13.8664803"><ele>358.0</ele><time>2026-04-28T14:53:54.859Z</time></trkpt><trkpt lat="37.8346113" lon="13.8664447"><ele>358.0</ele><time>2026-04-28T14:53:55.859Z</time></trkpt><trkpt lat="37.8344985" lon="13.8664321"><ele>358.0</ele><time>2026-04-28T14:53:56.859Z</time></trkpt><trkpt lat="37.8343719" lon="13.8664576"><ele>358.0</ele><time>2026-04-28T14:53:57.859Z</time></trkpt><trkpt lat="37.8342476" lon="13.8665346"><ele>359.25</ele><time>2026-04-28T14:53:58.859Z</time></trkpt><trkpt lat="37.8341458" lon="13.8666497"><ele>360.5</ele><time>2026-04-28T14:53:59.859Z</time></trkpt><trkpt lat="37.8340839" lon="13.8667899"><ele>361.75</ele><time>2026-04-28T14:54:00.859Z</time></trkpt><trkpt lat="37.8340548" lon="13.8669547"><ele>363.0</ele><time>2026-04-28T14:54:01.859Z</time></trkpt><trkpt lat="37.8340432" lon="13.867125"><ele>363.0</ele><time>2026-04-28T14:54:02.859Z</time></trkpt><trkpt lat="37.8340337" lon="13.8672854"><ele>363.0</ele><time>2026-04-28T14:54:03.859Z</time></trkpt><trkpt lat="37.8339871" lon="13.8674225"><ele>363.0</ele><time>2026-04-28T14:54:04.859Z</time></trkpt><trkpt lat="37.8338965" lon="13.8675153"><ele>363.0</ele><time>2026-04-28T14:54:05.859Z</time></trkpt><trkpt lat="37.8337802" lon="13.8675804"><ele>362.0</ele><time>2026-04-28T14:54:06.859Z</time></trkpt><trkpt lat="37.8336663" lon="13.8676388"><ele>361.0</ele><time>2026-04-28T14:54:07.859Z</time></trkpt><trkpt lat="37.8335777" lon="13.8677182"><ele>360.0</ele><time>2026-04-28T14:54:08.859Z</time></trkpt><trkpt lat="37.8335279" lon="13.86782"><ele>359.0</ele><time>2026-04-28T14:54:09.859Z</time></trkpt><trkpt lat="37.8335162" lon="13.8679527"><ele>358.0</ele><time>2026-04-28T14:54:10.859Z</time></trkpt><trkpt lat="37.8335269" lon="13.8681201"><ele>358.0</ele><time>2026-04-28T14:54:11.859Z</time></trkpt><trkpt lat="37.8335165" lon="13.8682946"><ele>358.0</ele><time>2026-04-28T14:54:12.859Z</time></trkpt><trkpt lat="37.8334652" lon="13.8684695"><ele>358.0</ele><time>2026-04-28T14:54:13.859Z</time></trkpt><trkpt lat="37.8333895" lon="13.8686621"><ele>362.3333333333333</ele><time>2026-04-28T14:54:14.859Z</time></trkpt><trkpt lat="37.8333015" lon="13.8688594"><ele>366.6666666666667</ele><time>2026-04-28T14:54:15.859Z</time></trkpt><trkpt lat="37.8332162" lon="13.8690677"><ele>371.0</ele><time>2026-04-28T14:54:16.859Z</time></trkpt><trkpt lat="37.833151" lon="13.8692852"><ele>371.0</ele><time>2026-04-28T14:54:17.859Z</time></trkpt><trkpt lat="37.8331063" lon="13.869494"><ele>371.0</ele><time>2026-04-28T14:54:18.859Z</time></trkpt><trkpt lat="37.8330759" lon="13.8696876"><ele>371.0</ele><time>2026-04-28T14:54:19.859Z</time></trkpt><trkpt lat="37.8330555" lon="13.8698796"><ele>371.0</ele><time>2026-04-28T14:54:20.859Z</time></trkpt><trkpt lat="37.8330211" lon="13.8700663"><ele>371.0</ele><time>2026-04-28T14:54:21.859Z</time></trkpt><trkpt lat="37.8329471" lon="13.8702637"><ele>371.0</ele><time>2026-04-28T14:54:22.859Z</time></trkpt><trkpt lat="37.8328401" lon="13.8704612"><ele>368.33333333333337</ele><time>2026-04-28T14:54:23.859Z</time></trkpt><trkpt lat="37.8327335" lon="13.8706462"><ele>365.6666666666667</ele><time>2026-04-28T14:54:24.859Z</time></trkpt><trkpt lat="37.8326156" lon="13.870785"><ele>363.0</ele><time>2026-04-28T14:54:25.859Z</time></trkpt><trkpt lat="37.8324862" lon="13.8708775"><ele>363.0</ele><time>2026-04-28T14:54:26.859Z</time></trkpt><trkpt lat="37.8323521" lon="13.8708794"><ele>363.0</ele><time>2026-04-28T14:54:27.859Z</time></trkpt><trkpt lat="37.8322248" lon="13.8708887"><ele>363.0</ele><time>2026-04-28T14:54:28.859Z</time></trkpt><trkpt lat="37.8321047" lon="13.870951"><ele>363.0</ele><time>2026-04-28T14:54:29.859Z</time></trkpt><trkpt lat="37.8320036" lon="13.8710885"><ele>363.0</ele><time>2026-04-28T14:54:30.859Z</time></trkpt><trkpt lat="37.8319129" lon="13.8712602"><ele>363.0</ele><time>2026-04-28T14:54:31.859Z</time></trkpt><trkpt lat="37.8318336" lon="13.8714589"><ele>363.0</ele><time>2026-04-28T14:54:32.859Z</time></trkpt><trkpt lat="37.8317564" lon="13.8716686"><ele>369.6666666666667</ele><time>2026-04-28T14:54:33.859Z</time></trkpt><trkpt lat="37.831682" lon="13.8718717"><ele>376.33333333333337</ele><time>2026-04-28T14:54:34.859Z</time></trkpt><trkpt lat="37.831612" lon="13.8720553"><ele>383.0</ele><time>2026-04-28T14:54:35.859Z</time></trkpt><trkpt lat="37.8315352" lon="13.8722222"><ele>383.0</ele><time>2026-04-28T14:54:36.859Z</time></trkpt><trkpt lat="37.8314454" lon="13.8723507"><ele>383.0</ele><time>2026-04-28T14:54:37.859Z</time></trkpt><trkpt lat="37.8313342" lon="13.8724113"><ele>383.0</ele><time>2026-04-28T14:54:38.859Z</time></trkpt><trkpt lat="37.8311914" lon="13.8724035"><ele>383.0</ele><time>2026-04-28T14:54:39.859Z</time></trkpt><trkpt lat="37.8310432" lon="13.8723545"><ele>386.6666666666667</ele><time>2026-04-28T14:54:40.859Z</time></trkpt><trkpt lat="37.8308764" lon="13.8723076"><ele>390.33333333333337</ele><time>2026-04-28T14:54:41.859Z</time></trkpt><trkpt lat="37.8307093" lon="13.8722978"><ele>394.0</ele><time>2026-04-28T14:54:42.859Z</time></trkpt><trkpt lat="37.8305182" lon="13.8723317"><ele>394.0</ele><time>2026-04-28T14:54:43.859Z</time></trkpt><trkpt lat="37.8303347" lon="13.8723895"><ele>394.0</ele><time>2026-04-28T14:54:44.859Z</time></trkpt><trkpt lat="37.8301676" lon="13.8724456"><ele>394.0</ele><time>2026-04-28T14:54:45.859Z</time></trkpt><trkpt lat="37.8300097" lon="13.8724753"><ele>396.6666666666667</ele><time>2026-04-28T14:54:46.859Z</time></trkpt><trkpt lat="37.8298383" lon="13.8724812"><ele>399.33333333333337</ele><time>2026-04-28T14:54:47.859Z</time></trkpt><trkpt lat="37.8296594" lon="13.8724714"><ele>402.0</ele><time>2026-04-28T14:54:48.859Z</time></trkpt><trkpt lat="37.8294962" lon="13.8724647"><ele>402.0</ele><time>2026-04-28T14:54:49.859Z</time></trkpt><trkpt lat="37.8293468" lon="13.8724662"><ele>402.0</ele><time>2026-04-28T14:54:50.859Z</time></trkpt><trkpt lat="37.8292105" lon="13.8725162"><ele>402.0</ele><time>2026-04-28T14:54:51.859Z</time></trkpt><trkpt lat="37.8290986" lon="13.8726164"><ele>402.0</ele><time>2026-04-28T14:54:52.859Z</time></trkpt><trkpt lat="37.8290046" lon="13.8727605"><ele>401.5</ele><time>2026-04-28T14:54:53.859Z</time></trkpt><trkpt lat="37.8289178" lon="13.8729153"><ele>401.0</ele><time>2026-04-28T14:54:54.859Z</time></trkpt><trkpt lat="37.8288227" lon="13.8730371"><ele>400.5</ele><time>2026-04-28T14:54:55.859Z</time></trkpt><trkpt lat="37.8286935" lon="13.8731163"><ele>400.0</ele><time>2026-04-28T14:54:56.859Z</time></trkpt><trkpt lat="37.8285527" lon="13.8731354"><ele>403.5</ele><time>2026-04-28T14:54:57.859Z</time></trkpt><trkpt lat="37.8284236" lon="13.8731642"><ele>407.0</ele><time>2026-04-28T14:54:58.859Z</time></trkpt><trkpt lat="37.8283297" lon="13.8732416"><ele>410.5</ele><time>2026-04-28T14:54:59.859Z</time></trkpt><trkpt lat="37.828256" lon="13.8733674"><ele>414.0</ele><time>2026-04-28T14:55:00.859Z</time></trkpt><trkpt lat="37.8281803" lon="13.8735236"><ele>414.0</ele><time>2026-04-28T14:55:01.859Z</time></trkpt><trkpt lat="37.8281332" lon="13.8736996"><ele>414.0</ele><time>2026-04-28T14:55:02.859Z</time></trkpt><trkpt lat="37.8281033" lon="13.8738871"><ele>414.0</ele><time>2026-04-28T14:55:03.859Z</time></trkpt><trkpt lat="37.8281015" lon="13.8740965"><ele>412.33333333333337</ele><time>2026-04-28T14:55:04.859Z</time></trkpt><trkpt lat="37.8281001" lon="13.8743102"><ele>410.6666666666667</ele><time>2026-04-28T14:55:05.859Z</time></trkpt><trkpt lat="37.8280766" lon="13.8745259"><ele>409.0</ele><time>2026-04-28T14:55:06.859Z</time></trkpt><trkpt lat="37.8280256" lon="13.8747384"><ele>409.0</ele><time>2026-04-28T14:55:07.859Z</time></trkpt><trkpt lat="37.8279396" lon="13.874927"><ele>409.0</ele><time>2026-04-28T14:55:08.859Z</time></trkpt><trkpt lat="37.8278306" lon="13.875092"><ele>409.0</ele><time>2026-04-28T14:55:09.859Z</time></trkpt><trkpt lat="37.8277041" lon="13.8752488"><ele>415.33333333333337</ele><time>2026-04-28T14:55:10.859Z</time></trkpt><trkpt lat="37.8275727" lon="13.8754101"><ele>421.66666666666663</ele><time>2026-04-28T14:55:11.859Z</time></trkpt><trkpt lat="37.8274541" lon="13.8756109"><ele>428.0</ele><time>2026-04-28T14:55:12.859Z</time></trkpt><trkpt lat="37.8273763" lon="13.8758561"><ele>428.0</ele><time>2026-04-28T14:55:13.859Z</time></trkpt><trkpt lat="37.8273432" lon="13.8761084"><ele>428.0</ele><time>2026-04-28T14:55:14.859Z</time></trkpt><trkpt lat="37.8273467" lon="13.8763598"><ele>428.0</ele><time>2026-04-28T14:55:15.859Z</time></trkpt><trkpt lat="37.827381" lon="13.8765796"><ele>427.25</ele><time>2026-04-28T14:55:16.859Z</time></trkpt><trkpt lat="37.8274143" lon="13.8767727"><ele>426.5</ele><time>2026-04-28T14:55:17.859Z</time></trkpt><trkpt lat="37.8274351" lon="13.8769425"><ele>425.75</ele><time>2026-04-28T14:55:18.859Z</time></trkpt><trkpt lat="37.8274216" lon="13.8771059"><ele>425.0</ele><time>2026-04-28T14:55:19.859Z</time></trkpt><trkpt lat="37.8273589" lon="13.8772697"><ele>425.0</ele><time>2026-04-28T14:55:20.859Z</time></trkpt><trkpt lat="37.82726" lon="13.8774255"><ele>425.0</ele><time>2026-04-28T14:55:21.859Z</time></trkpt><trkpt lat="37.8271435" lon="13.877559"><ele>425.0</ele><time>2026-04-28T14:55:22.859Z</time></trkpt><trkpt lat="37.8270074" lon="13.8776613"><ele>423.75</ele><time>2026-04-28T14:55:23.859Z</time></trkpt><trkpt lat="37.8268637" lon="13.8777252"><ele>422.5</ele><time>2026-04-28T14:55:24.859Z</time></trkpt><trkpt lat="37.8267297" lon="13.8777856"><ele>421.25</ele><time>2026-04-28T14:55:25.859Z</time></trkpt><trkpt lat="37.8266347" lon="13.877891"><ele>420.0</ele><time>2026-04-28T14:55:26.859Z</time></trkpt><trkpt lat="37.8265717" lon="13.8780251"><ele>427.66666666666663</ele><time>2026-04-28T14:55:27.859Z</time></trkpt><trkpt lat="37.8265319" lon="13.8781861"><ele>435.3333333333333</ele><time>2026-04-28T14:55:28.86Z</time></trkpt><trkpt lat="37.8265433" lon="13.8783772"><ele>443.0</ele><time>2026-04-28T14:55:29.859Z</time></trkpt><trkpt lat="37.8265834" lon="13.8785797"><ele>443.0</ele><time>2026-04-28T14:55:30.859Z</time></trkpt><trkpt lat="37.8266292" lon="13.878772"><ele>443.0</ele><time>2026-04-28T14:55:31.859Z</time></trkpt><trkpt lat="37.8266729" lon="13.8789526"><ele>443.0</ele><time>2026-04-28T14:55:32.859Z</time></trkpt><trkpt lat="37.8267003" lon="13.8791276"><ele>443.0</ele><time>2026-04-28T14:55:33.859Z</time></trkpt><trkpt lat="37.8267049" lon="13.8793054"><ele>441.75</ele><time>2026-04-28T14:55:34.859Z</time></trkpt><trkpt lat="37.8266666" lon="13.8794614"><ele>440.5</ele><time>2026-04-28T14:55:35.859Z</time></trkpt><trkpt lat="37.8265811" lon="13.8795866"><ele>439.25</ele><time>2026-04-28T14:55:36.859Z</time></trkpt><trkpt lat="37.8264432" lon="13.8796789"><ele>438.0</ele><time>2026-04-28T14:55:37.859Z</time></trkpt><trkpt lat="37.8262723" lon="13.8797429"><ele>438.0</ele><time>2026-04-28T14:55:38.859Z</time></trkpt><trkpt lat="37.8260868" lon="13.879828"><ele>438.0</ele><time>2026-04-28T14:55:39.859Z</time></trkpt><trkpt lat="37.8258928" lon="13.8799223"><ele>438.0</ele><time>2026-04-28T14:55:40.859Z</time></trkpt><trkpt lat="37.8256787" lon="13.8800261"><ele>437.5</ele><time>2026-04-28T14:55:41.859Z</time></trkpt><trkpt lat="37.8254606" lon="13.8801255"><ele>437.0</ele><time>2026-04-28T14:55:42.859Z</time></trkpt><trkpt lat="37.8252462" lon="13.880192"><ele>438.66666666666663</ele><time>2026-04-28T14:55:43.859Z</time></trkpt><trkpt lat="37.825035" lon="13.880253"><ele>440.33333333333337</ele><time>2026-04-28T14:55:44.859Z</time></trkpt><trkpt lat="37.8248336" lon="13.8803343"><ele>442.0</ele><time>2026-04-28T14:55:45.859Z</time></trkpt><trkpt lat="37.8246546" lon="13.8804599"><ele>442.0</ele><time>2026-04-28T14:55:46.859Z</time></trkpt><trkpt lat="37.8244941" lon="13.8805943"><ele>442.0</ele><time>2026-04-28T14:55:47.859Z</time></trkpt><trkpt lat="37.8243538" lon="13.8807186"><ele>442.0</ele><time>2026-04-28T14:55:48.859Z</time></trkpt><trkpt lat="37.8242416" lon="13.8808077"><ele>444.6</ele><time>2026-04-28T14:55:49.859Z</time></trkpt><trkpt lat="37.8241471" lon="13.8808624"><ele>447.20000000000005</ele><time>2026-04-28T14:55:50.859Z</time></trkpt><trkpt lat="37.8240605" lon="13.8808777"><ele>449.8</ele><time>2026-04-28T14:55:51.859Z</time></trkpt><trkpt lat="37.8239867" lon="13.8808311"><ele>452.4</ele><time>2026-04-28T14:55:52.859Z</time></trkpt><trkpt lat="37.8239579" lon="13.8807331"><ele>455.0</ele><time>2026-04-28T14:55:53.859Z</time></trkpt><trkpt lat="37.8240044" lon="13.8806308"><ele>455.0</ele><time>2026-04-28T14:55:54.859Z</time></trkpt><trkpt lat="37.8240917" lon="13.880571"><ele>455.0</ele><time>2026-04-28T14:55:55.859Z</time></trkpt><trkpt lat="37.8242031" lon="13.8805387"><ele>455.0</ele><time>2026-04-28T14:55:56.859Z</time></trkpt><trkpt lat="37.8243376" lon="13.8804765"><ele>455.0</ele><time>2026-04-28T14:55:57.859Z</time></trkpt><trkpt lat="37.8244747" lon="13.8803632"><ele>456.3333333333333</ele><time>2026-04-28T14:55:58.859Z</time></trkpt><trkpt lat="37.8246184" lon="13.8802149"><ele>457.66666666666663</ele><time>2026-04-28T14:55:59.859Z</time></trkpt><trkpt lat="37.8247756" lon="13.8800457"><ele>459.0</ele><time>2026-04-28T14:56:00.859Z</time></trkpt><trkpt lat="37.8249311" lon="13.8798896"><ele>459.0</ele><time>2026-04-28T14:56:01.859Z</time></trkpt><trkpt lat="37.8250837" lon="13.8797611"><ele>459.0</ele><time>2026-04-28T14:56:02.859Z</time></trkpt><trkpt lat="37.8252125" lon="13.8796655"><ele>459.0</ele><time>2026-04-28T14:56:03.859Z</time></trkpt><trkpt lat="37.8252997" lon="13.8795823"><ele>459.0</ele><time>2026-04-28T14:56:04.859Z</time></trkpt><trkpt lat="37.8253266" lon="13.8794968"><ele>459.0</ele><time>2026-04-28T14:56:05.859Z</time></trkpt><trkpt lat="37.8253052" lon="13.8794008"><ele>459.0</ele><time>2026-04-28T14:56:06.859Z</time></trkpt><trkpt lat="37.8252311" lon="13.879344"><ele>459.0</ele><time>2026-04-28T14:56:07.859Z</time></trkpt><trkpt lat="37.8251282" lon="13.8793438"><ele>459.0</ele><time>2026-04-28T14:56:08.859Z</time></trkpt><trkpt lat="37.825026" lon="13.8794053"><ele>459.0</ele><time>2026-04-28T14:56:09.859Z</time></trkpt><trkpt lat="37.824901" lon="13.8794947"><ele>459.0</ele><time>2026-04-28T14:56:10.859Z</time></trkpt><trkpt lat="37.8247464" lon="13.8795601"><ele>459.0</ele><time>2026-04-28T14:56:11.859Z</time></trkpt><trkpt lat="37.8245694" lon="13.8796117"><ele>459.0</ele><time>2026-04-28T14:56:12.859Z</time></trkpt><trkpt lat="37.8243738" lon="13.8796828"><ele>463.0</ele><time>2026-04-28T14:56:13.859Z</time></trkpt><trkpt lat="37.8241746" lon="13.8797904"><ele>467.0</ele><time>2026-04-28T14:56:14.859Z</time></trkpt><trkpt lat="37.823977" lon="13.8799189"><ele>471.0</ele><time>2026-04-28T14:56:15.859Z</time></trkpt><trkpt lat="37.8237733" lon="13.8800617"><ele>470.0</ele><time>2026-04-28T14:56:16.859Z</time></trkpt><trkpt lat="37.8235797" lon="13.880211"><ele>469.0</ele><time>2026-04-28T14:56:17.859Z</time></trkpt><trkpt lat="37.8234096" lon="13.8803713"><ele>468.0</ele><time>2026-04-28T14:56:18.859Z</time></trkpt><trkpt lat="37.8232568" lon="13.880513"><ele>468.0</ele><time>2026-04-28T14:56:19.859Z</time></trkpt><trkpt lat="37.8230841" lon="13.880606"><ele>468.0</ele><time>2026-04-28T14:56:20.859Z</time></trkpt><trkpt lat="37.8228914" lon="13.8806863"><ele>468.0</ele><time>2026-04-28T14:56:21.859Z</time></trkpt><trkpt lat="37.8226807" lon="13.8807473"><ele>472.33333333333337</ele><time>2026-04-28T14:56:22.859Z</time></trkpt><trkpt lat="37.8224637" lon="13.8808096"><ele>476.6666666666667</ele><time>2026-04-28T14:56:23.859Z</time></trkpt><trkpt lat="37.8222512" lon="13.8808668"><ele>481.0</ele><time>2026-04-28T14:56:24.859Z</time></trkpt><trkpt lat="37.8220582" lon="13.8809264"><ele>481.33333333333337</ele><time>2026-04-28T14:56:25.859Z</time></trkpt><trkpt lat="37.8218883" lon="13.8810109"><ele>481.66666666666663</ele><time>2026-04-28T14:56:26.859Z</time></trkpt><trkpt lat="37.8217409" lon="13.8811324"><ele>482.0</ele><time>2026-04-28T14:56:27.859Z</time></trkpt><trkpt lat="37.8215965" lon="13.8813052"><ele>482.0</ele><time>2026-04-28T14:56:28.859Z</time></trkpt><trkpt lat="37.8214473" lon="13.8814891"><ele>482.0</ele><time>2026-04-28T14:56:29.859Z</time></trkpt><trkpt lat="37.821293" lon="13.8816625"><ele>482.0</ele><time>2026-04-28T14:56:30.859Z</time></trkpt><trkpt lat="37.8211338" lon="13.8818034"><ele>485.3333333333333</ele><time>2026-04-28T14:56:31.859Z</time></trkpt><trkpt lat="37.8209533" lon="13.8818936"><ele>488.66666666666663</ele><time>2026-04-28T14:56:32.859Z</time></trkpt><trkpt lat="37.8207657" lon="13.8819693"><ele>492.0</ele><time>2026-04-28T14:56:33.859Z</time></trkpt><trkpt lat="37.8205858" lon="13.8820186"><ele>492.0</ele><time>2026-04-28T14:56:34.859Z</time></trkpt><trkpt lat="37.8204238" lon="13.8820603"><ele>492.0</ele><time>2026-04-28T14:56:35.859Z</time></trkpt><trkpt lat="37.8202773" lon="13.8821003"><ele>492.0</ele><time>2026-04-28T14:56:36.859Z</time></trkpt><trkpt lat="37.820153" lon="13.8821446"><ele>492.0</ele><time>2026-04-28T14:56:37.859Z</time></trkpt><trkpt lat="37.8200661" lon="13.8822115"><ele>493.20000000000005</ele><time>2026-04-28T14:56:38.859Z</time></trkpt><trkpt lat="37.8200227" lon="13.8823007"><ele>494.40000000000003</ele><time>2026-04-28T14:56:39.86Z</time></trkpt><trkpt lat="37.8200234" lon="13.8824139"><ele>495.59999999999997</ele><time>2026-04-28T14:56:40.859Z</time></trkpt><trkpt lat="37.8200497" lon="13.8825487"><ele>496.79999999999995</ele><time>2026-04-28T14:56:41.859Z</time></trkpt><trkpt lat="37.8200979" lon="13.8827005"><ele>498.0</ele><time>2026-04-28T14:56:42.859Z</time></trkpt><trkpt lat="37.8201601" lon="13.8828441"><ele>499.25</ele><time>2026-04-28T14:56:43.859Z</time></trkpt><trkpt lat="37.8202486" lon="13.8829446"><ele>500.5</ele><time>2026-04-28T14:56:44.859Z</time></trkpt><trkpt lat="37.820366" lon="13.8830031"><ele>501.75</ele><time>2026-04-28T14:56:45.859Z</time></trkpt><trkpt lat="37.8205088" lon="13.8830399"><ele>503.0</ele><time>2026-04-28T14:56:46.859Z</time></trkpt><trkpt lat="37.8206622" lon="13.8831011"><ele>503.0</ele><time>2026-04-28T14:56:47.859Z</time></trkpt><trkpt lat="37.8208287" lon="13.8831874"><ele>503.0</ele><time>2026-04-28T14:56:48.859Z</time></trkpt><trkpt lat="37.8210135" lon="13.8832755"><ele>503.0</ele><time>2026-04-28T14:56:49.859Z</time></trkpt><trkpt lat="37.8212021" lon="13.8833424"><ele>503.0</ele><time>2026-04-28T14:56:50.859Z</time></trkpt><trkpt lat="37.8213809" lon="13.883407"><ele>503.0</ele><time>2026-04-28T14:56:51.859Z</time></trkpt><trkpt lat="37.8215414" lon="13.883512"><ele>503.0</ele><time>2026-04-28T14:56:52.859Z</time></trkpt><trkpt lat="37.8216874" lon="13.8836542"><ele>507.66666666666663</ele><time>2026-04-28T14:56:53.859Z</time></trkpt><trkpt lat="37.8218434" lon="13.8838019"><ele>512.3333333333334</ele><time>2026-04-28T14:56:54.859Z</time></trkpt><trkpt lat="37.8220166" lon="13.8839071"><ele>517.0</ele><time>2026-04-28T14:56:55.859Z</time></trkpt><trkpt lat="37.8222343" lon="13.8839701"><ele>517.0</ele><time>2026-04-28T14:56:56.859Z</time></trkpt><trkpt lat="37.8224529" lon="13.8839881"><ele>517.0</ele><time>2026-04-28T14:56:57.859Z</time></trkpt><trkpt lat="37.8226674" lon="13.883983"><ele>517.0</ele><time>2026-04-28T14:56:58.859Z</time></trkpt><trkpt lat="37.8228678" lon="13.8839754"><ele>517.3333333333334</ele><time>2026-04-28T14:56:59.859Z</time></trkpt><trkpt lat="37.8230572" lon="13.8840076"><ele>517.6666666666666</ele><time>2026-04-28T14:57:00.859Z</time></trkpt><trkpt lat="37.8232422" lon="13.8840945"><ele>518.0</ele><time>2026-04-28T14:57:01.859Z</time></trkpt><trkpt lat="37.823429" lon="13.8841993"><ele>520.6666666666666</ele><time>2026-04-28T14:57:02.859Z</time></trkpt><trkpt lat="37.8236217" lon="13.8843288"><ele>523.3333333333334</ele><time>2026-04-28T14:57:03.859Z</time></trkpt><trkpt lat="37.8238109" lon="13.8844825"><ele>526.0</ele><time>2026-04-28T14:57:04.859Z</time></trkpt><trkpt lat="37.8240008" lon="13.8846581"><ele>526.0</ele><time>2026-04-28T14:57:05.859Z</time></trkpt><trkpt lat="37.8241776" lon="13.8848353"><ele>526.0</ele><time>2026-04-28T14:57:06.859Z</time></trkpt><trkpt lat="37.8243138" lon="13.8849818"><ele>526.0</ele><time>2026-04-28T14:57:07.859Z</time></trkpt><trkpt lat="37.8244039" lon="13.885103"><ele>529.1666666666667</ele><time>2026-04-28T14:57:08.859Z</time></trkpt><trkpt lat="37.8244508" lon="13.8851891"><ele>532.3333333333334</ele><time>2026-04-28T14:57:09.858Z</time></trkpt><trkpt lat="37.8244367" lon="13.885273"><ele>535.5</ele><time>2026-04-28T14:57:10.858Z</time></trkpt><trkpt lat="37.8243725" lon="13.8853481"><ele>538.6666666666666</ele><time>2026-04-28T14:57:11.858Z</time></trkpt><trkpt lat="37.8242806" lon="13.8853472"><ele>541.8333333333333</ele><time>2026-04-28T14:57:12.858Z</time></trkpt><trkpt lat="37.8241957" lon="13.8852885"><ele>545.0</ele><time>2026-04-28T14:57:13.858Z</time></trkpt><trkpt lat="37.8240934" lon="13.8851841"><ele>538.6666666666666</ele><time>2026-04-28T14:57:14.858Z</time></trkpt><trkpt lat="37.8239605" lon="13.8850616"><ele>532.3333333333334</ele><time>2026-04-28T14:57:15.859Z</time></trkpt><trkpt lat="37.8238162" lon="13.8849237"><ele>526.0</ele><time>2026-04-28T14:57:16.858Z</time></trkpt><trkpt lat="37.8236657" lon="13.8847845"><ele>526.0</ele><time>2026-04-28T14:57:17.858Z</time></trkpt><trkpt lat="37.8235189" lon="13.8846672"><ele>526.0</ele><time>2026-04-28T14:57:18.858Z</time></trkpt><trkpt lat="37.8233792" lon="13.8845997"><ele>526.0</ele><time>2026-04-28T14:57:19.858Z</time></trkpt><trkpt lat="37.8232436" lon="13.8846132"><ele>529.3333333333334</ele><time>2026-04-28T14:57:20.858Z</time></trkpt><trkpt lat="37.8231112" lon="13.8846978"><ele>532.6666666666666</ele><time>2026-04-28T14:57:21.858Z</time></trkpt><trkpt lat="37.8229893" lon="13.8848215"><ele>536.0</ele><time>2026-04-28T14:57:22.858Z</time></trkpt><trkpt lat="37.8228696" lon="13.8849616"><ele>536.0</ele><time>2026-04-28T14:57:23.858Z</time></trkpt><trkpt lat="37.8227219" lon="13.8850754"><ele>536.0</ele><time>2026-04-28T14:57:24.859Z</time></trkpt><trkpt lat="37.8225433" lon="13.8851415"><ele>536.0</ele><time>2026-04-28T14:57:25.858Z</time></trkpt><trkpt lat="37.822349" lon="13.8851798"><ele>541.3333333333333</ele><time>2026-04-28T14:57:26.858Z</time></trkpt><trkpt lat="37.822146" lon="13.8852249"><ele>546.6666666666666</ele><time>2026-04-28T14:57:27.858Z</time></trkpt><trkpt lat="37.8219402" lon="13.8853123"><ele>552.0</ele><time>2026-04-28T14:57:28.858Z</time></trkpt><trkpt lat="37.8217448" lon="13.8854268"><ele>552.0</ele><time>2026-04-28T14:57:29.858Z</time></trkpt><trkpt lat="37.8215637" lon="13.8855255"><ele>552.0</ele><time>2026-04-28T14:57:30.858Z</time></trkpt><trkpt lat="37.8213749" lon="13.8855619"><ele>552.0</ele><time>2026-04-28T14:57:31.858Z</time></trkpt><trkpt lat="37.8211958" lon="13.8855587"><ele>552.0</ele><time>2026-04-28T14:57:32.858Z</time></trkpt><trkpt lat="37.8210228" lon="13.8855586"><ele>552.0</ele><time>2026-04-28T14:57:33.859Z</time></trkpt><trkpt lat="37.820864" lon="13.8856088"><ele>552.0</ele><time>2026-04-28T14:57:34.859Z</time></trkpt><trkpt lat="37.8207002" lon="13.885719"><ele>551.6666666666666</ele><time>2026-04-28T14:57:35.858Z</time></trkpt><trkpt lat="37.8205321" lon="13.8858509"><ele>551.3333333333333</ele><time>2026-04-28T14:57:36.858Z</time></trkpt><trkpt lat="37.8203494" lon="13.8859652"><ele>551.0</ele><time>2026-04-28T14:57:37.858Z</time></trkpt><trkpt lat="37.8201412" lon="13.8860339"><ele>557.0</ele><time>2026-04-28T14:57:38.858Z</time></trkpt><trkpt lat="37.8199208" lon="13.8860599"><ele>563.0</ele><time>2026-04-28T14:57:39.858Z</time></trkpt><trkpt lat="37.8196916" lon="13.8860512"><ele>563.0</ele><time>2026-04-28T14:57:40.858Z</time></trkpt><trkpt lat="37.8194681" lon="13.8860501"><ele>563.0</ele><time>2026-04-28T14:57:41.858Z</time></trkpt><trkpt lat="37.8192401" lon="13.8860811"><ele>564.5</ele><time>2026-04-28T14:57:42.858Z</time></trkpt><trkpt lat="37.8189956" lon="13.8861391"><ele>566.0</ele><time>2026-04-28T14:57:43.858Z</time></trkpt><trkpt lat="37.8187489" lon="13.8862272"><ele>566.0</ele><time>2026-04-28T14:57:44.858Z</time></trkpt><trkpt lat="37.818495" lon="13.8863229"><ele>566.0</ele><time>2026-04-28T14:57:45.859Z</time></trkpt><trkpt lat="37.81825" lon="13.8864128"><ele>567.3333333333333</ele><time>2026-04-28T14:57:46.858Z</time></trkpt><trkpt lat="37.8180416" lon="13.8864879"><ele>568.6666666666666</ele><time>2026-04-28T14:57:47.858Z</time></trkpt><trkpt lat="37.8178616" lon="13.8865604"><ele>570.0</ele><time>2026-04-28T14:57:48.858Z</time></trkpt><trkpt lat="37.8177187" lon="13.8866208"><ele>568.75</ele><time>2026-04-28T14:57:49.858Z</time></trkpt><trkpt lat="37.8176089" lon="13.8866871"><ele>567.5</ele><time>2026-04-28T14:57:50.858Z</time></trkpt><trkpt lat="37.8175271" lon="13.8868003"><ele>566.25</ele><time>2026-04-28T14:57:51.858Z</time></trkpt><trkpt lat="37.8174821" lon="13.8869626"><ele>565.0</ele><time>2026-04-28T14:57:52.858Z</time></trkpt><trkpt lat="37.8174836" lon="13.8871624"><ele>565.0</ele><time>2026-04-28T14:57:53.858Z</time></trkpt><trkpt lat="37.8175183" lon="13.8873989"><ele>565.0</ele><time>2026-04-28T14:57:54.858Z</time></trkpt><trkpt lat="37.8175522" lon="13.8876533"><ele>565.0</ele><time>2026-04-28T14:57:55.858Z</time></trkpt><trkpt lat="37.8175922" lon="13.8879304"><ele>568.0</ele><time>2026-04-28T14:57:56.858Z</time></trkpt><trkpt lat="37.8176314" lon="13.8882073"><ele>571.0</ele><time>2026-04-28T14:57:57.858Z</time></trkpt><trkpt lat="37.8176708" lon="13.8884944"><ele>580.6666666666667</ele><time>2026-04-28T14:57:58.858Z</time></trkpt><trkpt lat="37.8177053" lon="13.888766"><ele>590.3333333333334</ele><time>2026-04-28T14:57:59.858Z</time></trkpt><trkpt lat="37.817733" lon="13.8890113"><ele>600.0</ele><time>2026-04-28T14:58:00.858Z</time></trkpt><trkpt lat="37.8177343" lon="13.8892447"><ele>603.0</ele><time>2026-04-28T14:58:01.858Z</time></trkpt><trkpt lat="37.8176974" lon="13.8894452"><ele>606.0</ele><time>2026-04-28T14:58:02.858Z</time></trkpt><trkpt lat="37.8176058" lon="13.8895985"><ele>609.0</ele><time>2026-04-28T14:58:03.858Z</time></trkpt><trkpt lat="37.8174794" lon="13.8897133"><ele>602.3333333333334</ele><time>2026-04-28T14:58:04.859Z</time></trkpt><trkpt lat="37.8173217" lon="13.8897627"><ele>595.6666666666667</ele><time>2026-04-28T14:58:05.858Z</time></trkpt><trkpt lat="37.817148" lon="13.8897859"><ele>589.0</ele><time>2026-04-28T14:58:06.858Z</time></trkpt><trkpt lat="37.8169709" lon="13.8898247"><ele>590.3333333333334</ele><time>2026-04-28T14:58:07.858Z</time></trkpt><trkpt lat="37.8168163" lon="13.8899112"><ele>591.6666666666666</ele><time>2026-04-28T14:58:08.858Z</time></trkpt><trkpt lat="37.8166939" lon="13.8900784"><ele>593.0</ele><time>2026-04-28T14:58:09.858Z</time></trkpt><trkpt lat="37.816589" lon="13.8902799"><ele>593.0</ele><time>2026-04-28T14:58:10.858Z</time></trkpt><trkpt lat="37.8165006" lon="13.8904985"><ele>593.0</ele><time>2026-04-28T14:58:11.858Z</time></trkpt><trkpt lat="37.816397" lon="13.8907078"><ele>593.0</ele><time>2026-04-28T14:58:12.858Z</time></trkpt><trkpt lat="37.8162691" lon="13.890908"><ele>594.6666666666666</ele><time>2026-04-28T14:58:13.858Z</time></trkpt><trkpt lat="37.8161235" lon="13.8910864"><ele>596.3333333333334</ele><time>2026-04-28T14:58:14.858Z</time></trkpt><trkpt lat="37.8159509" lon="13.8912241"><ele>598.0</ele><time>2026-04-28T14:58:15.858Z</time></trkpt><trkpt lat="37.8157632" lon="13.8913161"><ele>598.0</ele><time>2026-04-28T14:58:16.858Z</time></trkpt><trkpt lat="37.8155752" lon="13.8913694"><ele>598.0</ele><time>2026-04-28T14:58:17.858Z</time></trkpt><trkpt lat="37.815409" lon="13.8914143"><ele>598.0</ele><time>2026-04-28T14:58:18.858Z</time></trkpt><trkpt lat="37.8152942" lon="13.8914638"><ele>598.0</ele><time>2026-04-28T14:58:19.858Z</time></trkpt><trkpt lat="37.8152414" lon="13.8915189"><ele>598.0</ele><time>2026-04-28T14:58:20.858Z</time></trkpt><trkpt lat="37.8152295" lon="13.8916137"><ele>598.0</ele><time>2026-04-28T14:58:21.858Z</time></trkpt><trkpt lat="37.8152771" lon="13.891718"><ele>598.0</ele><time>2026-04-28T14:58:22.858Z</time></trkpt><trkpt lat="37.8153881" lon="13.8917934"><ele>598.0</ele><time>2026-04-28T14:58:23.858Z</time></trkpt><trkpt lat="37.8155336" lon="13.8918243"><ele>602.3333333333334</ele><time>2026-04-28T14:58:24.858Z</time></trkpt><trkpt lat="37.8156945" lon="13.8918217"><ele>606.6666666666666</ele><time>2026-04-28T14:58:25.858Z</time></trkpt><trkpt lat="37.8158734" lon="13.8918052"><ele>611.0</ele><time>2026-04-28T14:58:26.858Z</time></trkpt><trkpt lat="37.8160702" lon="13.8917517"><ele>611.0</ele><time>2026-04-28T14:58:27.858Z</time></trkpt><trkpt lat="37.8162797" lon="13.8916614"><ele>611.0</ele><time>2026-04-28T14:58:28.858Z</time></trkpt><trkpt lat="37.8164877" lon="13.8915399"><ele>611.0</ele><time>2026-04-28T14:58:29.858Z</time></trkpt><trkpt lat="37.8167001" lon="13.8914021"><ele>611.0</ele><time>2026-04-28T14:58:30.858Z</time></trkpt><trkpt lat="37.8169306" lon="13.8912621"><ele>618.0</ele><time>2026-04-28T14:58:31.858Z</time></trkpt><trkpt lat="37.817169" lon="13.8911194"><ele>625.0</ele><time>2026-04-28T14:58:32.858Z</time></trkpt><trkpt lat="37.8174138" lon="13.8909743"><ele>625.5</ele><time>2026-04-28T14:58:33.858Z</time></trkpt><trkpt lat="37.817662" lon="13.8908281"><ele>626.0</ele><time>2026-04-28T14:58:34.858Z</time></trkpt><trkpt lat="37.8178947" lon="13.890693"><ele>626.0</ele><time>2026-04-28T14:58:35.858Z</time></trkpt><trkpt lat="37.818109" lon="13.890567"><ele>626.0</ele><time>2026-04-28T14:58:36.858Z</time></trkpt><trkpt lat="37.8182998" lon="13.8904552"><ele>626.0</ele><time>2026-04-28T14:58:37.858Z</time></trkpt><trkpt lat="37.8184853" lon="13.8903501"><ele>625.3333333333333</ele><time>2026-04-28T14:58:38.858Z</time></trkpt><trkpt lat="37.8186592" lon="13.8902481"><ele>624.6666666666666</ele><time>2026-04-28T14:58:39.858Z</time></trkpt><trkpt lat="37.8188124" lon="13.8901496"><ele>624.0</ele><time>2026-04-28T14:58:40.858Z</time></trkpt><trkpt lat="37.8189588" lon="13.8900632"><ele>624.0</ele><time>2026-04-28T14:58:41.858Z</time></trkpt><trkpt lat="37.8190985" lon="13.8899905"><ele>624.0</ele><time>2026-04-28T14:58:42.858Z</time></trkpt><trkpt lat="37.8192326" lon="13.8899173"><ele>624.0</ele><time>2026-04-28T14:58:43.858Z</time></trkpt><trkpt lat="37.8193587" lon="13.8898717"><ele>624.0</ele><time>2026-04-28T14:58:44.858Z</time></trkpt><trkpt lat="37.81948" lon="13.8898662"><ele>624.5</ele><time>2026-04-28T14:58:45.858Z</time></trkpt><trkpt lat="37.819587" lon="13.8898788"><ele>625.0</ele><time>2026-04-28T14:58:46.858Z</time></trkpt><trkpt lat="37.819673" lon="13.8898879"><ele>625.5</ele><time>2026-04-28T14:58:47.858Z</time></trkpt><trkpt lat="37.8197418" lon="13.8898928"><ele>626.0</ele><time>2026-04-28T14:58:48.858Z</time></trkpt><trkpt lat="37.8198105" lon="13.8898974"><ele>626.5</ele><time>2026-04-28T14:58:49.858Z</time></trkpt><trkpt lat="37.8198968" lon="13.8899154"><ele>627.0</ele><time>2026-04-28T14:58:50.858Z</time></trkpt><trkpt lat="37.8199932" lon="13.8899266"><ele>627.0</ele><time>2026-04-28T14:58:51.858Z</time></trkpt><trkpt lat="37.8200871" lon="13.8899401"><ele>627.0</ele><time>2026-04-28T14:58:52.858Z</time></trkpt><trkpt lat="37.8201757" lon="13.889969"><ele>627.0</ele><time>2026-04-28T14:58:53.858Z</time></trkpt><trkpt lat="37.8202588" lon="13.8900119"><ele>627.0</ele><time>2026-04-28T14:58:54.858Z</time></trkpt><trkpt lat="37.8203267" lon="13.8900806"><ele>627.0</ele><time>2026-04-28T14:58:55.858Z</time></trkpt><trkpt lat="37.8203494" lon="13.8902446"><ele>628.0</ele><time>2026-04-28T14:58:57.858Z</time></trkpt><trkpt lat="37.8203284" lon="13.8903325"><ele>629.0</ele><time>2026-04-28T14:58:58.858Z</time></trkpt><trkpt lat="37.8202819" lon="13.8904124"><ele>630.0</ele><time>2026-04-28T14:58:59.858Z</time></trkpt><trkpt lat="37.8202263" lon="13.8904888"><ele>631.0</ele><time>2026-04-28T14:59:00.858Z</time></trkpt><trkpt lat="37.8201593" lon="13.8905603"><ele>632.0</ele><time>2026-04-28T14:59:01.858Z</time></trkpt><trkpt lat="37.8201004" lon="13.8906194"><ele>633.0</ele><time>2026-04-28T14:59:02.858Z</time></trkpt><trkpt lat="37.8200479" lon="13.8906734"><ele>633.0</ele><time>2026-04-28T14:59:03.858Z</time></trkpt><trkpt lat="37.8199938" lon="13.8907245"><ele>633.0</ele><time>2026-04-28T14:59:04.858Z</time></trkpt><trkpt lat="37.8199437" lon="13.8907784"><ele>633.0</ele><time>2026-04-28T14:59:05.858Z</time></trkpt><trkpt lat="37.8198559" lon="13.8908597"><ele>633.0</ele><time>2026-04-28T14:59:07.858Z</time></trkpt><trkpt lat="37.8197611" lon="13.8909421"><ele>633.0</ele><time>2026-04-28T14:59:09.858Z</time></trkpt><trkpt lat="37.8196627" lon="13.891041"><ele>633.7142857142857</ele><time>2026-04-28T14:59:11.858Z</time></trkpt><trkpt lat="37.8196063" lon="13.8910893"><ele>634.4285714285714</ele><time>2026-04-28T14:59:12.858Z</time></trkpt><trkpt lat="37.819551" lon="13.8911394"><ele>635.1428571428571</ele><time>2026-04-28T14:59:13.858Z</time></trkpt><trkpt lat="37.8194943" lon="13.8911878"><ele>635.8571428571429</ele><time>2026-04-28T14:59:14.858Z</time></trkpt><trkpt lat="37.8194415" lon="13.8912327"><ele>636.5714285714286</ele><time>2026-04-28T14:59:15.858Z</time></trkpt><trkpt lat="37.8193762" lon="13.8912693"><ele>637.2857142857143</ele><time>2026-04-28T14:59:16.858Z</time></trkpt><trkpt lat="37.8193081" lon="13.8912902"><ele>638.0</ele><time>2026-04-28T14:59:17.858Z</time></trkpt><trkpt lat="37.8192367" lon="13.8912974"><ele>638.0</ele><time>2026-04-28T14:59:18.858Z</time></trkpt><trkpt lat="37.8191645" lon="13.8912978"><ele>638.0</ele><time>2026-04-28T14:59:19.858Z</time></trkpt><trkpt lat="37.81908" lon="13.8912803"><ele>638.0</ele><time>2026-04-28T14:59:20.858Z</time></trkpt><trkpt lat="37.8189705" lon="13.8912586"><ele>638.0</ele><time>2026-04-28T14:59:21.858Z</time></trkpt><trkpt lat="37.8188544" lon="13.8912532"><ele>638.0</ele><time>2026-04-28T14:59:22.858Z</time></trkpt><trkpt lat="37.8187472" lon="13.8912646"><ele>638.0</ele><time>2026-04-28T14:59:23.858Z</time></trkpt><trkpt lat="37.8186389" lon="13.891317"><ele>638.0</ele><time>2026-04-28T14:59:24.858Z</time></trkpt><trkpt lat="37.8185347" lon="13.8913825"><ele>638.0</ele><time>2026-04-28T14:59:25.858Z</time></trkpt><trkpt lat="37.8184436" lon="13.8914622"><ele>638.0</ele><time>2026-04-28T14:59:26.858Z</time></trkpt><trkpt lat="37.8183642" lon="13.8915668"><ele>638.0</ele><time>2026-04-28T14:59:27.858Z</time></trkpt><trkpt lat="37.8182942" lon="13.8916891"><ele>638.0</ele><time>2026-04-28T14:59:28.858Z</time></trkpt><trkpt lat="37.8182292" lon="13.8918235"><ele>638.0</ele><time>2026-04-28T14:59:29.858Z</time></trkpt><trkpt lat="37.8181709" lon="13.8919512"><ele>638.0</ele><time>2026-04-28T14:59:30.858Z</time></trkpt><trkpt lat="37.818116" lon="13.8920662"><ele>640.2</ele><time>2026-04-28T14:59:31.858Z</time></trkpt><trkpt lat="37.8180629" lon="13.8921747"><ele>642.4</ele><time>2026-04-28T14:59:32.858Z</time></trkpt><trkpt lat="37.8180065" lon="13.8922672"><ele>644.6</ele><time>2026-04-28T14:59:33.858Z</time></trkpt><trkpt lat="37.8179496" lon="13.8923513"><ele>646.8000000000001</ele><time>2026-04-28T14:59:34.858Z</time></trkpt><trkpt lat="37.8178842" lon="13.8924355"><ele>649.0</ele><time>2026-04-28T14:59:35.858Z</time></trkpt><trkpt lat="37.8178057" lon="13.8925148"><ele>649.0</ele><time>2026-04-28T14:59:36.858Z</time></trkpt><trkpt lat="37.8177122" lon="13.8925842"><ele>649.0</ele><time>2026-04-28T14:59:37.858Z</time></trkpt><trkpt lat="37.8176091" lon="13.8926385"><ele>649.0</ele><time>2026-04-28T14:59:38.858Z</time></trkpt><trkpt lat="37.8174991" lon="13.8926785"><ele>649.0</ele><time>2026-04-28T14:59:39.858Z</time></trkpt><trkpt lat="37.8173813" lon="13.8927075"><ele>651.5</ele><time>2026-04-28T14:59:40.858Z</time></trkpt><trkpt lat="37.8172569" lon="13.8927321"><ele>654.0</ele><time>2026-04-28T14:59:41.858Z</time></trkpt><trkpt lat="37.8171331" lon="13.8927525"><ele>656.5</ele><time>2026-04-28T14:59:42.858Z</time></trkpt><trkpt lat="37.816997" lon="13.8927823"><ele>659.0</ele><time>2026-04-28T14:59:43.858Z</time></trkpt><trkpt lat="37.8168449" lon="13.8928382"><ele>657.0</ele><time>2026-04-28T14:59:44.858Z</time></trkpt><trkpt lat="37.8166915" lon="13.8929193"><ele>655.0</ele><time>2026-04-28T14:59:45.858Z</time></trkpt><trkpt lat="37.8165486" lon="13.8930231"><ele>653.0</ele><time>2026-04-28T14:59:46.858Z</time></trkpt><trkpt lat="37.8164245" lon="13.8931264"><ele>653.0</ele><time>2026-04-28T14:59:47.858Z</time></trkpt><trkpt lat="37.8163153" lon="13.8932216"><ele>653.0</ele><time>2026-04-28T14:59:48.858Z</time></trkpt><trkpt lat="37.8162187" lon="13.8933134"><ele>653.0</ele><time>2026-04-28T14:59:49.858Z</time></trkpt><trkpt lat="37.8161292" lon="13.8934089"><ele>653.0</ele><time>2026-04-28T14:59:50.858Z</time></trkpt><trkpt lat="37.8160541" lon="13.8935182"><ele>654.0</ele><time>2026-04-28T14:59:51.858Z</time></trkpt><trkpt lat="37.8159883" lon="13.8936421"><ele>655.0</ele><time>2026-04-28T14:59:52.858Z</time></trkpt><trkpt lat="37.8159356" lon="13.8937988"><ele>656.0</ele><time>2026-04-28T14:59:53.858Z</time></trkpt><trkpt lat="37.8158916" lon="13.8939859"><ele>657.0</ele><time>2026-04-28T14:59:54.858Z</time></trkpt><trkpt lat="37.8158493" lon="13.8941844"><ele>659.3333333333334</ele><time>2026-04-28T14:59:55.858Z</time></trkpt><trkpt lat="37.8158059" lon="13.8943813"><ele>661.6666666666667</ele><time>2026-04-28T14:59:56.858Z</time></trkpt><trkpt lat="37.8157566" lon="13.8945713"><ele>664.0</ele><time>2026-04-28T14:59:57.858Z</time></trkpt><trkpt lat="37.8157096" lon="13.8947471"><ele>664.0</ele><time>2026-04-28T14:59:58.858Z</time></trkpt><trkpt lat="37.8156659" lon="13.8949157"><ele>664.0</ele><time>2026-04-28T14:59:59.858Z</time></trkpt><trkpt lat="37.8156267" lon="13.89507"><ele>664.0</ele><time>2026-04-28T15:00:00.858Z</time></trkpt><trkpt lat="37.8155863" lon="13.8952206"><ele>664.0</ele><time>2026-04-28T15:00:01.858Z</time></trkpt><trkpt lat="37.8155532" lon="13.8953664"><ele>665.25</ele><time>2026-04-28T15:00:02.858Z</time></trkpt><trkpt lat="37.8155108" lon="13.8955202"><ele>666.5</ele><time>2026-04-28T15:00:03.858Z</time></trkpt><trkpt lat="37.8154424" lon="13.8956769"><ele>667.75</ele><time>2026-04-28T15:00:04.858Z</time></trkpt><trkpt lat="37.8153459" lon="13.8958108"><ele>669.0</ele><time>2026-04-28T15:00:05.858Z</time></trkpt><trkpt lat="37.815235" lon="13.8959087"><ele>670.25</ele><time>2026-04-28T15:00:06.858Z</time></trkpt><trkpt lat="37.8151054" lon="13.8959795"><ele>671.5</ele><time>2026-04-28T15:00:07.858Z</time></trkpt><trkpt lat="37.8149697" lon="13.8960141"><ele>672.75</ele><time>2026-04-28T15:00:08.858Z</time></trkpt><trkpt lat="37.8148268" lon="13.8960252"><ele>674.0</ele><time>2026-04-28T15:00:09.858Z</time></trkpt><trkpt lat="37.8146964" lon="13.8960255"><ele>674.0</ele><time>2026-04-28T15:00:10.858Z</time></trkpt><trkpt lat="37.8145773" lon="13.896017"><ele>674.0</ele><time>2026-04-28T15:00:11.858Z</time></trkpt><trkpt lat="37.8144584" lon="13.8960097"><ele>674.0</ele><time>2026-04-28T15:00:12.858Z</time></trkpt><trkpt lat="37.8143424" lon="13.8960078"><ele>674.0</ele><time>2026-04-28T15:00:13.858Z</time></trkpt><trkpt lat="37.8142172" lon="13.8960246"><ele>675.0</ele><time>2026-04-28T15:00:14.858Z</time></trkpt><trkpt lat="37.8140755" lon="13.8960726"><ele>676.0</ele><time>2026-04-28T15:00:15.858Z</time></trkpt><trkpt lat="37.8139188" lon="13.8961548"><ele>677.0</ele><time>2026-04-28T15:00:16.858Z</time></trkpt><trkpt lat="37.8137754" lon="13.8962709"><ele>677.0</ele><time>2026-04-28T15:00:17.858Z</time></trkpt><trkpt lat="37.813641" lon="13.8963848"><ele>677.0</ele><time>2026-04-28T15:00:18.858Z</time></trkpt><trkpt lat="37.81351" lon="13.896467"><ele>677.0</ele><time>2026-04-28T15:00:19.858Z</time></trkpt><trkpt lat="37.8133786" lon="13.8965229"><ele>677.0</ele><time>2026-04-28T15:00:20.858Z</time></trkpt><trkpt lat="37.8132402" lon="13.8965683"><ele>675.3333333333333</ele><time>2026-04-28T15:00:21.858Z</time></trkpt><trkpt lat="37.8130819" lon="13.8966036"><ele>673.6666666666666</ele><time>2026-04-28T15:00:22.858Z</time></trkpt><trkpt lat="37.8129098" lon="13.8966384"><ele>672.0</ele><time>2026-04-28T15:00:23.858Z</time></trkpt><trkpt lat="37.8127291" lon="13.8966827"><ele>677.6666666666666</ele><time>2026-04-28T15:00:24.858Z</time></trkpt><trkpt lat="37.8125446" lon="13.8967537"><ele>683.3333333333333</ele><time>2026-04-28T15:00:25.858Z</time></trkpt><trkpt lat="37.8123431" lon="13.8968459"><ele>689.0</ele><time>2026-04-28T15:00:26.858Z</time></trkpt><trkpt lat="37.8121378" lon="13.8969603"><ele>689.0</ele><time>2026-04-28T15:00:27.858Z</time></trkpt><trkpt lat="37.8119212" lon="13.8970879"><ele>689.0</ele><time>2026-04-28T15:00:28.858Z</time></trkpt><trkpt lat="37.8117091" lon="13.8972232"><ele>685.5</ele><time>2026-04-28T15:00:29.858Z</time></trkpt><trkpt lat="37.8115" lon="13.8973519"><ele>682.0</ele><time>2026-04-28T15:00:30.858Z</time></trkpt><trkpt lat="37.8113007" lon="13.8974727"><ele>684.6666666666667</ele><time>2026-04-28T15:00:31.858Z</time></trkpt><trkpt lat="37.8111173" lon="13.8976093"><ele>687.3333333333334</ele><time>2026-04-28T15:00:32.858Z</time></trkpt><trkpt lat="37.8109619" lon="13.8977832"><ele>690.0</ele><time>2026-04-28T15:00:33.858Z</time></trkpt><trkpt lat="37.8108332" lon="13.8979716"><ele>690.0</ele><time>2026-04-28T15:00:34.858Z</time></trkpt><trkpt lat="37.8107184" lon="13.8981501"><ele>690.0</ele><time>2026-04-28T15:00:35.858Z</time></trkpt><trkpt lat="37.8106113" lon="13.8983075"><ele>690.0</ele><time>2026-04-28T15:00:36.858Z</time></trkpt><trkpt lat="37.8104987" lon="13.8984415"><ele>692.3333333333334</ele><time>2026-04-28T15:00:37.858Z</time></trkpt><trkpt lat="37.8103574" lon="13.8985251"><ele>694.6666666666667</ele><time>2026-04-28T15:00:38.858Z</time></trkpt><trkpt lat="37.8101864" lon="13.8985773"><ele>697.0</ele><time>2026-04-28T15:00:39.858Z</time></trkpt><trkpt lat="37.8100027" lon="13.8986169"><ele>697.6666666666667</ele><time>2026-04-28T15:00:40.858Z</time></trkpt><trkpt lat="37.8098137" lon="13.8986655"><ele>698.3333333333334</ele><time>2026-04-28T15:00:41.858Z</time></trkpt><trkpt lat="37.8096212" lon="13.8987173"><ele>699.0</ele><time>2026-04-28T15:00:42.858Z</time></trkpt><trkpt lat="37.8094244" lon="13.8987872"><ele>698.6666666666666</ele><time>2026-04-28T15:00:43.858Z</time></trkpt><trkpt lat="37.8092337" lon="13.8988924"><ele>698.3333333333333</ele><time>2026-04-28T15:00:44.858Z</time></trkpt><trkpt lat="37.8090618" lon="13.8990285"><ele>698.0</ele><time>2026-04-28T15:00:45.858Z</time></trkpt><trkpt lat="37.808906" lon="13.8991708"><ele>701.6666666666666</ele><time>2026-04-28T15:00:46.858Z</time></trkpt><trkpt lat="37.8087465" lon="13.8993014"><ele>705.3333333333334</ele><time>2026-04-28T15:00:47.858Z</time></trkpt><trkpt lat="37.8085599" lon="13.8994"><ele>709.0</ele><time>2026-04-28T15:00:48.858Z</time></trkpt><trkpt lat="37.8083568" lon="13.8994681"><ele>709.6666666666667</ele><time>2026-04-28T15:00:49.858Z</time></trkpt><trkpt lat="37.8081413" lon="13.899513"><ele>710.3333333333334</ele><time>2026-04-28T15:00:50.858Z</time></trkpt><trkpt lat="37.8079275" lon="13.8995488"><ele>711.0</ele><time>2026-04-28T15:00:51.858Z</time></trkpt><trkpt lat="37.8077233" lon="13.8995939"><ele>711.0</ele><time>2026-04-28T15:00:52.858Z</time></trkpt><trkpt lat="37.8075403" lon="13.8996391"><ele>711.0</ele><time>2026-04-28T15:00:53.858Z</time></trkpt><trkpt lat="37.8073785" lon="13.8997021"><ele>711.0</ele><time>2026-04-28T15:00:54.858Z</time></trkpt><trkpt lat="37.8072385" lon="13.8998162"><ele>711.0</ele><time>2026-04-28T15:00:55.858Z</time></trkpt><trkpt lat="37.8071143" lon="13.899981"><ele>711.0</ele><time>2026-04-28T15:00:56.858Z</time></trkpt><trkpt lat="37.8069869" lon="13.9001736"><ele>711.0</ele><time>2026-04-28T15:00:57.859Z</time></trkpt><trkpt lat="37.8068582" lon="13.9003692"><ele>712.3333333333334</ele><time>2026-04-28T15:00:58.858Z</time></trkpt><trkpt lat="37.8067274" lon="13.9005442"><ele>713.6666666666667</ele><time>2026-04-28T15:00:59.858Z</time></trkpt><trkpt lat="37.8065922" lon="13.9006968"><ele>715.0</ele><time>2026-04-28T15:01:00.858Z</time></trkpt><trkpt lat="37.8064603" lon="13.9008254"><ele>716.6666666666667</ele><time>2026-04-28T15:01:01.858Z</time></trkpt><trkpt lat="37.8063389" lon="13.9009445"><ele>718.3333333333334</ele><time>2026-04-28T15:01:02.858Z</time></trkpt><trkpt lat="37.806242" lon="13.9010835"><ele>720.0</ele><time>2026-04-28T15:01:03.858Z</time></trkpt><trkpt lat="37.8061776" lon="13.9012608"><ele>720.0</ele><time>2026-04-28T15:01:04.858Z</time></trkpt><trkpt lat="37.8061596" lon="13.9014756"><ele>720.0</ele><time>2026-04-28T15:01:05.858Z</time></trkpt><trkpt lat="37.8061788" lon="13.9017078"><ele>720.0</ele><time>2026-04-28T15:01:06.858Z</time></trkpt><trkpt lat="37.80623" lon="13.9019271"><ele>719.0</ele><time>2026-04-28T15:01:07.858Z</time></trkpt><trkpt lat="37.8062661" lon="13.9021403"><ele>718.0</ele><time>2026-04-28T15:01:08.858Z</time></trkpt><trkpt lat="37.8062739" lon="13.9023606"><ele>717.0</ele><time>2026-04-28T15:01:09.858Z</time></trkpt><trkpt lat="37.8062316" lon="13.9025915"><ele>718.6666666666666</ele><time>2026-04-28T15:01:10.858Z</time></trkpt><trkpt lat="37.8061467" lon="13.9028134"><ele>720.3333333333333</ele><time>2026-04-28T15:01:11.858Z</time></trkpt><trkpt lat="37.8060222" lon="13.9030167"><ele>722.0</ele><time>2026-04-28T15:01:12.859Z</time></trkpt><trkpt lat="37.8058624" lon="13.9032004"><ele>722.0</ele><time>2026-04-28T15:01:13.858Z</time></trkpt><trkpt lat="37.8056861" lon="13.9033829"><ele>722.0</ele><time>2026-04-28T15:01:14.858Z</time></trkpt><trkpt lat="37.8055058" lon="13.9035563"><ele>720.6666666666666</ele><time>2026-04-28T15:01:15.858Z</time></trkpt><trkpt lat="37.8053277" lon="13.9037286"><ele>719.3333333333334</ele><time>2026-04-28T15:01:16.858Z</time></trkpt><trkpt lat="37.8051558" lon="13.903896"><ele>718.0</ele><time>2026-04-28T15:01:17.858Z</time></trkpt><trkpt lat="37.8049919" lon="13.904056"><ele>719.3333333333334</ele><time>2026-04-28T15:01:18.859Z</time></trkpt><trkpt lat="37.8048329" lon="13.9042156"><ele>720.6666666666666</ele><time>2026-04-28T15:01:19.858Z</time></trkpt><trkpt lat="37.8046773" lon="13.9043705"><ele>722.0</ele><time>2026-04-28T15:01:20.858Z</time></trkpt><trkpt lat="37.8045234" lon="13.9045265"><ele>722.0</ele><time>2026-04-28T15:01:21.858Z</time></trkpt><trkpt lat="37.8043722" lon="13.9047039"><ele>722.0</ele><time>2026-04-28T15:01:22.858Z</time></trkpt><trkpt lat="37.8042295" lon="13.9049014"><ele>722.0</ele><time>2026-04-28T15:01:23.858Z</time></trkpt><trkpt lat="37.8040876" lon="13.9051161"><ele>729.5</ele><time>2026-04-28T15:01:24.858Z</time></trkpt><trkpt lat="37.8039431" lon="13.9053389"><ele>737.0</ele><time>2026-04-28T15:01:25.858Z</time></trkpt><trkpt lat="37.8037956" lon="13.9055702"><ele>737.0</ele><time>2026-04-28T15:01:26.858Z</time></trkpt><trkpt lat="37.803649" lon="13.9058034"><ele>737.0</ele><time>2026-04-28T15:01:27.858Z</time></trkpt><trkpt lat="37.8035004" lon="13.9060198"><ele>739.3333333333333</ele><time>2026-04-28T15:01:28.858Z</time></trkpt><trkpt lat="37.8033452" lon="13.9061809"><ele>741.6666666666666</ele><time>2026-04-28T15:01:29.858Z</time></trkpt><trkpt lat="37.8031993" lon="13.9063166"><ele>744.0</ele><time>2026-04-28T15:01:30.858Z</time></trkpt><trkpt lat="37.8030557" lon="13.9064634"><ele>744.0</ele><time>2026-04-28T15:01:31.858Z</time></trkpt><trkpt lat="37.8029269" lon="13.9066534"><ele>744.0</ele><time>2026-04-28T15:01:32.858Z</time></trkpt><trkpt lat="37.8028091" lon="13.9068701"><ele>744.0</ele><time>2026-04-28T15:01:33.858Z</time></trkpt><trkpt lat="37.802701" lon="13.907093"><ele>745.6666666666666</ele><time>2026-04-28T15:01:34.858Z</time></trkpt><trkpt lat="37.8025823" lon="13.9073207"><ele>747.3333333333333</ele><time>2026-04-28T15:01:35.858Z</time></trkpt><trkpt lat="37.8024487" lon="13.907549"><ele>749.0</ele><time>2026-04-28T15:01:36.858Z</time></trkpt><trkpt lat="37.8022835" lon="13.9077587"><ele>754.5</ele><time>2026-04-28T15:01:37.858Z</time></trkpt><trkpt lat="37.8020956" lon="13.9079566"><ele>760.0</ele><time>2026-04-28T15:01:38.858Z</time></trkpt><trkpt lat="37.8018921" lon="13.9081557"><ele>757.0</ele><time>2026-04-28T15:01:39.858Z</time></trkpt><trkpt lat="37.8016864" lon="13.9083569"><ele>754.0</ele><time>2026-04-28T15:01:40.858Z</time></trkpt><trkpt lat="37.8014769" lon="13.9085619"><ele>760.5</ele><time>2026-04-28T15:01:41.858Z</time></trkpt><trkpt lat="37.8012613" lon="13.9087721"><ele>767.0</ele><time>2026-04-28T15:01:42.858Z</time></trkpt><trkpt lat="37.8010479" lon="13.9089731"><ele>767.0</ele><time>2026-04-28T15:01:43.858Z</time></trkpt><trkpt lat="37.8008525" lon="13.9091596"><ele>767.0</ele><time>2026-04-28T15:01:44.858Z</time></trkpt><trkpt lat="37.8006661" lon="13.9093282"><ele>767.0</ele><time>2026-04-28T15:01:45.858Z</time></trkpt><trkpt lat="37.8004833" lon="13.9094738"><ele>767.0</ele><time>2026-04-28T15:01:46.858Z</time></trkpt><trkpt lat="37.8002853" lon="13.9095802"><ele>767.0</ele><time>2026-04-28T15:01:47.858Z</time></trkpt><trkpt lat="37.8000777" lon="13.9096485"><ele>768.0</ele><time>2026-04-28T15:01:48.858Z</time></trkpt><trkpt lat="37.7998544" lon="13.9096662"><ele>769.0</ele><time>2026-04-28T15:01:49.858Z</time></trkpt><trkpt lat="37.7996178" lon="13.9096608"><ele>769.0</ele><time>2026-04-28T15:01:50.858Z</time></trkpt><trkpt lat="37.7993742" lon="13.9096581"><ele>769.0</ele><time>2026-04-28T15:01:51.858Z</time></trkpt><trkpt lat="37.7991283" lon="13.9096701"><ele>772.5</ele><time>2026-04-28T15:01:52.858Z</time></trkpt><trkpt lat="37.7988769" lon="13.9096975"><ele>776.0</ele><time>2026-04-28T15:01:53.858Z</time></trkpt><trkpt lat="37.7986297" lon="13.9097353"><ele>775.5</ele><time>2026-04-28T15:01:54.858Z</time></trkpt><trkpt lat="37.7983802" lon="13.9097643"><ele>775.0</ele><time>2026-04-28T15:01:55.858Z</time></trkpt><trkpt lat="37.7981312" lon="13.9097672"><ele>775.0</ele><time>2026-04-28T15:01:56.858Z</time></trkpt><trkpt lat="37.7978789" lon="13.9097464"><ele>775.0</ele><time>2026-04-28T15:01:57.858Z</time></trkpt><trkpt lat="37.7976351" lon="13.9097122"><ele>776.3333333333333</ele><time>2026-04-28T15:01:58.858Z</time></trkpt><trkpt lat="37.797411" lon="13.9096692"><ele>777.6666666666667</ele><time>2026-04-28T15:01:59.858Z</time></trkpt><trkpt lat="37.7972043" lon="13.9096296"><ele>779.0</ele><time>2026-04-28T15:02:00.858Z</time></trkpt><trkpt lat="37.7970214" lon="13.9096096"><ele>779.0</ele><time>2026-04-28T15:02:01.859Z</time></trkpt><trkpt lat="37.7968606" lon="13.9096324"><ele>779.0</ele><time>2026-04-28T15:02:02.858Z</time></trkpt><trkpt lat="37.7966984" lon="13.9097115"><ele>779.0</ele><time>2026-04-28T15:02:03.858Z</time></trkpt><trkpt lat="37.7965479" lon="13.9098384"><ele>780.0</ele><time>2026-04-28T15:02:04.858Z</time></trkpt><trkpt lat="37.7963867" lon="13.9099674"><ele>781.0</ele><time>2026-04-28T15:02:05.858Z</time></trkpt><trkpt lat="37.7961978" lon="13.9100654"><ele>782.0</ele><time>2026-04-28T15:02:06.858Z</time></trkpt><trkpt lat="37.7959922" lon="13.9101162"><ele>787.3333333333334</ele><time>2026-04-28T15:02:07.858Z</time></trkpt><trkpt lat="37.7957691" lon="13.9101333"><ele>792.6666666666667</ele><time>2026-04-28T15:02:08.858Z</time></trkpt><trkpt lat="37.7955476" lon="13.9101494"><ele>798.0</ele><time>2026-04-28T15:02:09.858Z</time></trkpt><trkpt lat="37.7953431" lon="13.910179"><ele>797.0</ele><time>2026-04-28T15:02:10.858Z</time></trkpt><trkpt lat="37.7951676" lon="13.9102494"><ele>796.0</ele><time>2026-04-28T15:02:11.858Z</time></trkpt><trkpt lat="37.7950138" lon="13.9103746"><ele>795.0</ele><time>2026-04-28T15:02:12.858Z</time></trkpt><trkpt lat="37.7948611" lon="13.9105447"><ele>795.0</ele><time>2026-04-28T15:02:13.858Z</time></trkpt><trkpt lat="37.7947056" lon="13.9107323"><ele>795.0</ele><time>2026-04-28T15:02:14.858Z</time></trkpt><trkpt lat="37.7945398" lon="13.9109236"><ele>795.0</ele><time>2026-04-28T15:02:15.858Z</time></trkpt><trkpt lat="37.7943645" lon="13.9111077"><ele>796.0</ele><time>2026-04-28T15:02:16.858Z</time></trkpt><trkpt lat="37.7941748" lon="13.9112517"><ele>797.0</ele><time>2026-04-28T15:02:17.858Z</time></trkpt><trkpt lat="37.7939837" lon="13.9113522"><ele>798.0</ele><time>2026-04-28T15:02:18.858Z</time></trkpt><trkpt lat="37.7938145" lon="13.9114442"><ele>798.0</ele><time>2026-04-28T15:02:19.858Z</time></trkpt><trkpt lat="37.7936633" lon="13.9115703"><ele>798.0</ele><time>2026-04-28T15:02:20.858Z</time></trkpt><trkpt lat="37.7935356" lon="13.9117511"><ele>798.0</ele><time>2026-04-28T15:02:21.858Z</time></trkpt><trkpt lat="37.7934194" lon="13.9119774"><ele>800.5</ele><time>2026-04-28T15:02:22.858Z</time></trkpt><trkpt lat="37.7932918" lon="13.9122106"><ele>803.0</ele><time>2026-04-28T15:02:23.858Z</time></trkpt><trkpt lat="37.7931314" lon="13.9124303"><ele>806.0</ele><time>2026-04-28T15:02:24.858Z</time></trkpt><trkpt lat="37.7929441" lon="13.9126378"><ele>809.0</ele><time>2026-04-28T15:02:25.858Z</time></trkpt><trkpt lat="37.7927589" lon="13.9128316"><ele>808.0</ele><time>2026-04-28T15:02:26.858Z</time></trkpt><trkpt lat="37.7925942" lon="13.9130119"><ele>807.0</ele><time>2026-04-28T15:02:27.858Z</time></trkpt><trkpt lat="37.7924571" lon="13.9131949"><ele>806.0</ele><time>2026-04-28T15:02:28.858Z</time></trkpt><trkpt lat="37.792354" lon="13.9133809"><ele>806.3333333333334</ele><time>2026-04-28T15:02:29.859Z</time></trkpt><trkpt lat="37.7923199" lon="13.913575"><ele>806.6666666666667</ele><time>2026-04-28T15:02:30.858Z</time></trkpt><trkpt lat="37.7923331" lon="13.9137931"><ele>807.0</ele><time>2026-04-28T15:02:31.858Z</time></trkpt><trkpt lat="37.7923833" lon="13.9140033"><ele>807.0</ele><time>2026-04-28T15:02:32.858Z</time></trkpt><trkpt lat="37.7924239" lon="13.9142193"><ele>807.0</ele><time>2026-04-28T15:02:33.858Z</time></trkpt><trkpt lat="37.7924358" lon="13.9144336"><ele>807.0</ele><time>2026-04-28T15:02:34.858Z</time></trkpt><trkpt lat="37.7923998" lon="13.9146377"><ele>808.6666666666667</ele><time>2026-04-28T15:02:35.858Z</time></trkpt><trkpt lat="37.7923181" lon="13.9148138"><ele>810.3333333333334</ele><time>2026-04-28T15:02:36.858Z</time></trkpt><trkpt lat="37.7921852" lon="13.914951"><ele>812.0</ele><time>2026-04-28T15:02:37.858Z</time></trkpt><trkpt lat="37.7920232" lon="13.9150744"><ele>812.3333333333334</ele><time>2026-04-28T15:02:38.858Z</time></trkpt><trkpt lat="37.7918453" lon="13.9152174"><ele>812.6666666666667</ele><time>2026-04-28T15:02:39.858Z</time></trkpt><trkpt lat="37.791667" lon="13.91536"><ele>813.0</ele><time>2026-04-28T15:02:40.858Z</time></trkpt><trkpt lat="37.7914899" lon="13.9155068"><ele>813.0</ele><time>2026-04-28T15:02:41.858Z</time></trkpt><trkpt lat="37.7913249" lon="13.915661"><ele>813.0</ele><time>2026-04-28T15:02:42.858Z</time></trkpt><trkpt lat="37.7911969" lon="13.9158386"><ele>813.0</ele><time>2026-04-28T15:02:43.859Z</time></trkpt><trkpt lat="37.7911054" lon="13.9160535"><ele>813.6666666666667</ele><time>2026-04-28T15:02:44.858Z</time></trkpt><trkpt lat="37.7910508" lon="13.9163047"><ele>814.3333333333334</ele><time>2026-04-28T15:02:45.858Z</time></trkpt><trkpt lat="37.7910129" lon="13.9165688"><ele>815.0</ele><time>2026-04-28T15:02:46.859Z</time></trkpt><trkpt lat="37.7909859" lon="13.9168357"><ele>813.6666666666667</ele><time>2026-04-28T15:02:47.858Z</time></trkpt><trkpt lat="37.7909334" lon="13.9170891"><ele>812.3333333333333</ele><time>2026-04-28T15:02:48.859Z</time></trkpt><trkpt lat="37.7908358" lon="13.9173262"><ele>811.0</ele><time>2026-04-28T15:02:49.858Z</time></trkpt><trkpt lat="37.7906994" lon="13.9175414"><ele>812.6666666666666</ele><time>2026-04-28T15:02:50.858Z</time></trkpt><trkpt lat="37.790546" lon="13.9177184"><ele>814.3333333333333</ele><time>2026-04-28T15:02:51.858Z</time></trkpt><trkpt lat="37.7903904" lon="13.9178675"><ele>816.0</ele><time>2026-04-28T15:02:52.858Z</time></trkpt><trkpt lat="37.790259" lon="13.9180338"><ele>812.3333333333333</ele><time>2026-04-28T15:02:53.858Z</time></trkpt><trkpt lat="37.7901658" lon="13.9182453"><ele>808.6666666666666</ele><time>2026-04-28T15:02:54.858Z</time></trkpt><trkpt lat="37.7901373" lon="13.9184951"><ele>805.0</ele><time>2026-04-28T15:02:55.858Z</time></trkpt><trkpt lat="37.7901434" lon="13.9187712"><ele>805.0</ele><time>2026-04-28T15:02:56.858Z</time></trkpt><trkpt lat="37.7901539" lon="13.9190528"><ele>805.0</ele><time>2026-04-28T15:02:57.858Z</time></trkpt><trkpt lat="37.7901638" lon="13.9193197"><ele>805.0</ele><time>2026-04-28T15:02:58.858Z</time></trkpt><trkpt lat="37.7901536" lon="13.9195725"><ele>806.3333333333333</ele><time>2026-04-28T15:02:59.858Z</time></trkpt><trkpt lat="37.790111" lon="13.9197969"><ele>807.6666666666667</ele><time>2026-04-28T15:03:00.858Z</time></trkpt><trkpt lat="37.790028" lon="13.920007"><ele>809.0</ele><time>2026-04-28T15:03:01.858Z</time></trkpt><trkpt lat="37.7898988" lon="13.9201742"><ele>812.6666666666667</ele><time>2026-04-28T15:03:02.858Z</time></trkpt><trkpt lat="37.7897295" lon="13.9202924"><ele>816.3333333333333</ele><time>2026-04-28T15:03:03.858Z</time></trkpt><trkpt lat="37.7895318" lon="13.9203597"><ele>820.0</ele><time>2026-04-28T15:03:04.858Z</time></trkpt><trkpt lat="37.7893148" lon="13.920413"><ele>821.0</ele><time>2026-04-28T15:03:05.858Z</time></trkpt><trkpt lat="37.7890913" lon="13.9204723"><ele>822.0</ele><time>2026-04-28T15:03:06.858Z</time></trkpt><trkpt lat="37.7888622" lon="13.9205391"><ele>822.0</ele><time>2026-04-28T15:03:07.858Z</time></trkpt><trkpt lat="37.7886358" lon="13.920604"><ele>822.0</ele><time>2026-04-28T15:03:08.858Z</time></trkpt><trkpt lat="37.788426" lon="13.9206694"><ele>822.0</ele><time>2026-04-28T15:03:09.859Z</time></trkpt><trkpt lat="37.7882364" lon="13.9207397"><ele>822.3333333333333</ele><time>2026-04-28T15:03:10.858Z</time></trkpt><trkpt lat="37.7880744" lon="13.9208447"><ele>822.6666666666666</ele><time>2026-04-28T15:03:11.858Z</time></trkpt><trkpt lat="37.7879449" lon="13.9209804"><ele>823.0</ele><time>2026-04-28T15:03:12.858Z</time></trkpt><trkpt lat="37.7878465" lon="13.9211716"><ele>823.0</ele><time>2026-04-28T15:03:13.858Z</time></trkpt><trkpt lat="37.7877809" lon="13.9214118"><ele>823.0</ele><time>2026-04-28T15:03:14.858Z</time></trkpt><trkpt lat="37.7877305" lon="13.9216562"><ele>823.0</ele><time>2026-04-28T15:03:15.858Z</time></trkpt><trkpt lat="37.7876955" lon="13.9219204"><ele>819.6666666666666</ele><time>2026-04-28T15:03:16.858Z</time></trkpt><trkpt lat="37.7876597" lon="13.9221888"><ele>816.3333333333333</ele><time>2026-04-28T15:03:17.858Z</time></trkpt><trkpt lat="37.787627" lon="13.9224425"><ele>813.0</ele><time>2026-04-28T15:03:18.858Z</time></trkpt><trkpt lat="37.7875899" lon="13.9226852"><ele>813.0</ele><time>2026-04-28T15:03:19.858Z</time></trkpt><trkpt lat="37.787569" lon="13.9229382"><ele>813.0</ele><time>2026-04-28T15:03:20.858Z</time></trkpt><trkpt lat="37.7875705" lon="13.9231941"><ele>813.0</ele><time>2026-04-28T15:03:21.858Z</time></trkpt><trkpt lat="37.7875963" lon="13.9234379"><ele>808.6666666666667</ele><time>2026-04-28T15:03:22.858Z</time></trkpt><trkpt lat="37.7876266" lon="13.9236883"><ele>804.3333333333334</ele><time>2026-04-28T15:03:23.859Z</time></trkpt><trkpt lat="37.7876456" lon="13.9239263"><ele>800.0</ele><time>2026-04-28T15:03:24.858Z</time></trkpt><trkpt lat="37.7876244" lon="13.9241565"><ele>799.3333333333334</ele><time>2026-04-28T15:03:25.858Z</time></trkpt><trkpt lat="37.787558" lon="13.924401"><ele>798.6666666666667</ele><time>2026-04-28T15:03:26.858Z</time></trkpt><trkpt lat="37.7874499" lon="13.9246253"><ele>798.0</ele><time>2026-04-28T15:03:27.859Z</time></trkpt><trkpt lat="37.7873004" lon="13.9248297"><ele>798.0</ele><time>2026-04-28T15:03:28.858Z</time></trkpt><trkpt lat="37.7871254" lon="13.9250283"><ele>798.0</ele><time>2026-04-28T15:03:29.858Z</time></trkpt><trkpt lat="37.7869312" lon="13.9252374"><ele>799.0</ele><time>2026-04-28T15:03:30.858Z</time></trkpt><trkpt lat="37.7867362" lon="13.9254455"><ele>800.0</ele><time>2026-04-28T15:03:31.858Z</time></trkpt><trkpt lat="37.7865415" lon="13.9256487"><ele>800.0</ele><time>2026-04-28T15:03:32.858Z</time></trkpt><trkpt lat="37.7863325" lon="13.9258435"><ele>800.0</ele><time>2026-04-28T15:03:33.858Z</time></trkpt><trkpt lat="37.7861106" lon="13.926012"><ele>797.5</ele><time>2026-04-28T15:03:34.858Z</time></trkpt><trkpt lat="37.7858811" lon="13.9261591"><ele>795.0</ele><time>2026-04-28T15:03:35.858Z</time></trkpt><trkpt lat="37.7856575" lon="13.9262918"><ele>795.0</ele><time>2026-04-28T15:03:36.858Z</time></trkpt><trkpt lat="37.7854401" lon="13.9264092"><ele>795.0</ele><time>2026-04-28T15:03:37.858Z</time></trkpt><trkpt lat="37.7852342" lon="13.9265249"><ele>793.3333333333333</ele><time>2026-04-28T15:03:38.858Z</time></trkpt><trkpt lat="37.7850429" lon="13.9266552"><ele>791.6666666666666</ele><time>2026-04-28T15:03:39.858Z</time></trkpt><trkpt lat="37.7848785" lon="13.9268146"><ele>790.0</ele><time>2026-04-28T15:03:40.858Z</time></trkpt><trkpt lat="37.7847439" lon="13.9270124"><ele>790.0</ele><time>2026-04-28T15:03:41.858Z</time></trkpt><trkpt lat="37.7846338" lon="13.9272563"><ele>790.0</ele><time>2026-04-28T15:03:42.858Z</time></trkpt><trkpt lat="37.7845478" lon="13.9275287"><ele>789.0</ele><time>2026-04-28T15:03:43.858Z</time></trkpt><trkpt lat="37.7844621" lon="13.9278052"><ele>788.0</ele><time>2026-04-28T15:03:44.858Z</time></trkpt><trkpt lat="37.7843809" lon="13.9280699"><ele>787.0</ele><time>2026-04-28T15:03:45.858Z</time></trkpt><trkpt lat="37.784303" lon="13.9283181"><ele>786.0</ele><time>2026-04-28T15:03:46.858Z</time></trkpt><trkpt lat="37.7842148" lon="13.9285422"><ele>785.0</ele><time>2026-04-28T15:03:47.858Z</time></trkpt><trkpt lat="37.784104" lon="13.9287337"><ele>785.0</ele><time>2026-04-28T15:03:48.858Z</time></trkpt><trkpt lat="37.7839652" lon="13.9288861"><ele>785.0</ele><time>2026-04-28T15:03:49.858Z</time></trkpt><trkpt lat="37.7837935" lon="13.9289894"><ele>785.0</ele><time>2026-04-28T15:03:50.858Z</time></trkpt><trkpt lat="37.7836192" lon="13.9290361"><ele>784.3333333333334</ele><time>2026-04-28T15:03:51.858Z</time></trkpt><trkpt lat="37.7834173" lon="13.9290227"><ele>783.6666666666667</ele><time>2026-04-28T15:03:52.858Z</time></trkpt><trkpt lat="37.7832144" lon="13.928956"><ele>783.0</ele><time>2026-04-28T15:03:53.858Z</time></trkpt><trkpt lat="37.7830265" lon="13.9288485"><ele>783.0</ele><time>2026-04-28T15:03:54.858Z</time></trkpt><trkpt lat="37.7828321" lon="13.9287278"><ele>783.0</ele><time>2026-04-28T15:03:55.858Z</time></trkpt><trkpt lat="37.7826425" lon="13.9286138"><ele>783.0</ele><time>2026-04-28T15:03:56.858Z</time></trkpt><trkpt lat="37.7824467" lon="13.9285092"><ele>782.3333333333333</ele><time>2026-04-28T15:03:57.858Z</time></trkpt><trkpt lat="37.7822373" lon="13.9284259"><ele>781.6666666666666</ele><time>2026-04-28T15:03:58.858Z</time></trkpt><trkpt lat="37.7820169" lon="13.9283697"><ele>781.0</ele><time>2026-04-28T15:03:59.858Z</time></trkpt><trkpt lat="37.7817873" lon="13.9283471"><ele>784.0</ele><time>2026-04-28T15:04:00.858Z</time></trkpt><trkpt lat="37.7815595" lon="13.9283559"><ele>787.0</ele><time>2026-04-28T15:04:01.858Z</time></trkpt><trkpt lat="37.7813403" lon="13.9283973"><ele>789.3333333333333</ele><time>2026-04-28T15:04:02.858Z</time></trkpt><trkpt lat="37.7811349" lon="13.9284592"><ele>791.6666666666667</ele><time>2026-04-28T15:04:03.859Z</time></trkpt><trkpt lat="37.7809403" lon="13.9285214"><ele>794.0</ele><time>2026-04-28T15:04:04.858Z</time></trkpt><trkpt lat="37.7807442" lon="13.9285376"><ele>795.3333333333334</ele><time>2026-04-28T15:04:05.858Z</time></trkpt><trkpt lat="37.7805509" lon="13.9284729"><ele>796.6666666666667</ele><time>2026-04-28T15:04:06.858Z</time></trkpt><trkpt lat="37.7803599" lon="13.9283717"><ele>798.0</ele><time>2026-04-28T15:04:07.858Z</time></trkpt><trkpt lat="37.7801735" lon="13.9282437"><ele>795.3333333333333</ele><time>2026-04-28T15:04:08.858Z</time></trkpt><trkpt lat="37.7799885" lon="13.9281226"><ele>792.6666666666666</ele><time>2026-04-28T15:04:09.858Z</time></trkpt><trkpt lat="37.7798069" lon="13.9280289"><ele>790.0</ele><time>2026-04-28T15:04:10.858Z</time></trkpt><trkpt lat="37.7796027" lon="13.9279735"><ele>790.0</ele><time>2026-04-28T15:04:11.858Z</time></trkpt><trkpt lat="37.779383" lon="13.9279657"><ele>790.0</ele><time>2026-04-28T15:04:12.858Z</time></trkpt><trkpt lat="37.7791445" lon="13.9279931"><ele>794.5</ele><time>2026-04-28T15:04:13.858Z</time></trkpt><trkpt lat="37.7789022" lon="13.9280169"><ele>799.0</ele><time>2026-04-28T15:04:14.858Z</time></trkpt><trkpt lat="37.7786592" lon="13.9280418"><ele>797.0</ele><time>2026-04-28T15:04:15.858Z</time></trkpt><trkpt lat="37.7784171" lon="13.9280678"><ele>795.0</ele><time>2026-04-28T15:04:16.858Z</time></trkpt><trkpt lat="37.778193" lon="13.9280958"><ele>795.0</ele><time>2026-04-28T15:04:17.858Z</time></trkpt><trkpt lat="37.77799" lon="13.9281279"><ele>795.0</ele><time>2026-04-28T15:04:18.858Z</time></trkpt><trkpt lat="37.7777999" lon="13.9281766"><ele>795.0</ele><time>2026-04-28T15:04:19.858Z</time></trkpt><trkpt lat="37.7776093" lon="13.9282854"><ele>801.5</ele><time>2026-04-28T15:04:20.858Z</time></trkpt><trkpt lat="37.7774161" lon="13.9284211"><ele>808.0</ele><time>2026-04-28T15:04:21.858Z</time></trkpt><trkpt lat="37.7772141" lon="13.9285677"><ele>808.0</ele><time>2026-04-28T15:04:22.858Z</time></trkpt><trkpt lat="37.777005" lon="13.9287184"><ele>808.0</ele><time>2026-04-28T15:04:23.858Z</time></trkpt><trkpt lat="37.7767941" lon="13.9288732"><ele>807.0</ele><time>2026-04-28T15:04:24.858Z</time></trkpt><trkpt lat="37.7765883" lon="13.9290475"><ele>806.0</ele><time>2026-04-28T15:04:25.858Z</time></trkpt><trkpt lat="37.776391" lon="13.9292614"><ele>806.0</ele><time>2026-04-28T15:04:26.858Z</time></trkpt><trkpt lat="37.7761955" lon="13.9295012"><ele>806.0</ele><time>2026-04-28T15:04:27.858Z</time></trkpt><trkpt lat="37.7760179" lon="13.9297477"><ele>805.5</ele><time>2026-04-28T15:04:28.858Z</time></trkpt><trkpt lat="37.7758428" lon="13.9299981"><ele>805.0</ele><time>2026-04-28T15:04:29.858Z</time></trkpt><trkpt lat="37.7756642" lon="13.9302365"><ele>805.0</ele><time>2026-04-28T15:04:30.858Z</time></trkpt><trkpt lat="37.7754882" lon="13.9304629"><ele>805.0</ele><time>2026-04-28T15:04:31.858Z</time></trkpt><trkpt lat="37.7753131" lon="13.9306721"><ele>805.0</ele><time>2026-04-28T15:04:32.858Z</time></trkpt><trkpt lat="37.7751472" lon="13.9308549"><ele>805.0</ele><time>2026-04-28T15:04:33.858Z</time></trkpt><trkpt lat="37.7749909" lon="13.9310127"><ele>805.0</ele><time>2026-04-28T15:04:34.858Z</time></trkpt><trkpt lat="37.7748459" lon="13.9311441"><ele>805.0</ele><time>2026-04-28T15:04:35.858Z</time></trkpt><trkpt lat="37.7747135" lon="13.9312599"><ele>805.0</ele><time>2026-04-28T15:04:36.858Z</time></trkpt><trkpt lat="37.7745825" lon="13.931363"><ele>805.0</ele><time>2026-04-28T15:04:37.858Z</time></trkpt><trkpt lat="37.7744601" lon="13.931464"><ele>804.6666666666666</ele><time>2026-04-28T15:04:38.858Z</time></trkpt><trkpt lat="37.7743413" lon="13.9315633"><ele>804.3333333333333</ele><time>2026-04-28T15:04:39.858Z</time></trkpt><trkpt lat="37.7742093" lon="13.9316678"><ele>804.0</ele><time>2026-04-28T15:04:40.858Z</time></trkpt><trkpt lat="37.7740686" lon="13.9317859"><ele>805.6666666666667</ele><time>2026-04-28T15:04:41.858Z</time></trkpt><trkpt lat="37.7739151" lon="13.9319174"><ele>807.3333333333334</ele><time>2026-04-28T15:04:42.858Z</time></trkpt><trkpt lat="37.7737459" lon="13.932059"><ele>809.0</ele><time>2026-04-28T15:04:43.858Z</time></trkpt><trkpt lat="37.7735689" lon="13.9321933"><ele>808.6666666666667</ele><time>2026-04-28T15:04:44.858Z</time></trkpt><trkpt lat="37.7733854" lon="13.932301"><ele>808.3333333333333</ele><time>2026-04-28T15:04:45.858Z</time></trkpt><trkpt lat="37.7731871" lon="13.9323916"><ele>808.0</ele><time>2026-04-28T15:04:46.858Z</time></trkpt><trkpt lat="37.7729724" lon="13.9324813"><ele>811.5</ele><time>2026-04-28T15:04:47.858Z</time></trkpt><trkpt lat="37.7727498" lon="13.9325619"><ele>815.0</ele><time>2026-04-28T15:04:48.858Z</time></trkpt><trkpt lat="37.7725194" lon="13.9326431"><ele>815.5</ele><time>2026-04-28T15:04:49.858Z</time></trkpt><trkpt lat="37.7722965" lon="13.9327407"><ele>816.0</ele><time>2026-04-28T15:04:50.858Z</time></trkpt><trkpt lat="37.7720753" lon="13.9328729"><ele>816.0</ele><time>2026-04-28T15:04:51.858Z</time></trkpt><trkpt lat="37.7718692" lon="13.9330294"><ele>816.0</ele><time>2026-04-28T15:04:52.858Z</time></trkpt><trkpt lat="37.77167" lon="13.9332149"><ele>821.0</ele><time>2026-04-28T15:04:53.858Z</time></trkpt><trkpt lat="37.7714711" lon="13.9334063"><ele>826.0</ele><time>2026-04-28T15:04:54.858Z</time></trkpt><trkpt lat="37.7712639" lon="13.9335903"><ele>826.0</ele><time>2026-04-28T15:04:55.858Z</time></trkpt><trkpt lat="37.7710445" lon="13.9337566"><ele>826.0</ele><time>2026-04-28T15:04:56.858Z</time></trkpt><trkpt lat="37.7708191" lon="13.9339063"><ele>823.5</ele><time>2026-04-28T15:04:57.858Z</time></trkpt><trkpt lat="37.7705886" lon="13.9340563"><ele>821.0</ele><time>2026-04-28T15:04:58.858Z</time></trkpt><trkpt lat="37.7703523" lon="13.9342092"><ele>821.0</ele><time>2026-04-28T15:04:59.858Z</time></trkpt><trkpt lat="37.7701185" lon="13.9343643"><ele>821.0</ele><time>2026-04-28T15:05:00.858Z</time></trkpt><trkpt lat="37.7698902" lon="13.9345124"><ele>821.0</ele><time>2026-04-28T15:05:01.858Z</time></trkpt><trkpt lat="37.7696639" lon="13.9346626"><ele>821.0</ele><time>2026-04-28T15:05:02.858Z</time></trkpt><trkpt lat="37.7694406" lon="13.9348254"><ele>821.5</ele><time>2026-04-28T15:05:03.858Z</time></trkpt><trkpt lat="37.7692345" lon="13.9350195"><ele>822.0</ele><time>2026-04-28T15:05:04.858Z</time></trkpt><trkpt lat="37.769044" lon="13.935252"><ele>822.0</ele><time>2026-04-28T15:05:05.858Z</time></trkpt><trkpt lat="37.7688753" lon="13.9354997"><ele>822.0</ele><time>2026-04-28T15:05:06.858Z</time></trkpt><trkpt lat="37.7687215" lon="13.9357416"><ele>821.6666666666667</ele><time>2026-04-28T15:05:07.858Z</time></trkpt><trkpt lat="37.768583" lon="13.9359663"><ele>821.3333333333334</ele><time>2026-04-28T15:05:08.858Z</time></trkpt><trkpt lat="37.7684339" lon="13.9361706"><ele>821.0</ele><time>2026-04-28T15:05:09.858Z</time></trkpt><trkpt lat="37.7682602" lon="13.9363487"><ele>822.3333333333334</ele><time>2026-04-28T15:05:10.858Z</time></trkpt><trkpt lat="37.7680731" lon="13.9364981"><ele>823.6666666666667</ele><time>2026-04-28T15:05:11.858Z</time></trkpt><trkpt lat="37.7678945" lon="13.9366329"><ele>825.0</ele><time>2026-04-28T15:05:12.858Z</time></trkpt><trkpt lat="37.7677439" lon="13.9367793"><ele>827.6666666666667</ele><time>2026-04-28T15:05:13.858Z</time></trkpt><trkpt lat="37.7676356" lon="13.9369621"><ele>830.3333333333334</ele><time>2026-04-28T15:05:14.858Z</time></trkpt><trkpt lat="37.7675854" lon="13.9371688"><ele>833.0</ele><time>2026-04-28T15:05:15.858Z</time></trkpt><trkpt lat="37.7675596" lon="13.9374104"><ele>832.3333333333334</ele><time>2026-04-28T15:05:16.858Z</time></trkpt><trkpt lat="37.7675421" lon="13.9376623"><ele>831.6666666666667</ele><time>2026-04-28T15:05:17.858Z</time></trkpt><trkpt lat="37.7675207" lon="13.9379112"><ele>831.0</ele><time>2026-04-28T15:05:18.858Z</time></trkpt><trkpt lat="37.7674809" lon="13.9381418"><ele>831.0</ele><time>2026-04-28T15:05:19.858Z</time></trkpt><trkpt lat="37.7674089" lon="13.9383712"><ele>831.0</ele><time>2026-04-28T15:05:20.858Z</time></trkpt><trkpt lat="37.7673041" lon="13.938585"><ele>831.0</ele><time>2026-04-28T15:05:21.858Z</time></trkpt><trkpt lat="37.7671648" lon="13.9387893"><ele>830.6666666666667</ele><time>2026-04-28T15:05:22.858Z</time></trkpt><trkpt lat="37.7669932" lon="13.9389522"><ele>830.3333333333334</ele><time>2026-04-28T15:05:23.858Z</time></trkpt><trkpt lat="37.7668217" lon="13.9391"><ele>830.0</ele><time>2026-04-28T15:05:24.858Z</time></trkpt><trkpt lat="37.7666646" lon="13.9392465"><ele>831.6666666666667</ele><time>2026-04-28T15:05:25.858Z</time></trkpt><trkpt lat="37.7665243" lon="13.9394024"><ele>833.3333333333333</ele><time>2026-04-28T15:05:26.858Z</time></trkpt><trkpt lat="37.7664062" lon="13.9395656"><ele>835.0</ele><time>2026-04-28T15:05:27.858Z</time></trkpt><trkpt lat="37.7663003" lon="13.9397396"><ele>835.0</ele><time>2026-04-28T15:05:28.858Z</time></trkpt><trkpt lat="37.7662061" lon="13.9399367"><ele>835.0</ele><time>2026-04-28T15:05:29.858Z</time></trkpt><trkpt lat="37.7661244" lon="13.9401597"><ele>835.0</ele><time>2026-04-28T15:05:30.858Z</time></trkpt><trkpt lat="37.7660605" lon="13.940409"><ele>831.0</ele><time>2026-04-28T15:05:31.858Z</time></trkpt><trkpt lat="37.7660022" lon="13.9406925"><ele>827.0</ele><time>2026-04-28T15:05:32.858Z</time></trkpt><trkpt lat="37.7659421" lon="13.9410004"><ele>827.0</ele><time>2026-04-28T15:05:33.858Z</time></trkpt><trkpt lat="37.7658776" lon="13.9413092"><ele>827.0</ele><time>2026-04-28T15:05:34.858Z</time></trkpt><trkpt lat="37.765809" lon="13.9415938"><ele>828.3333333333334</ele><time>2026-04-28T15:05:35.858Z</time></trkpt><trkpt lat="37.7657362" lon="13.9418674"><ele>829.6666666666667</ele><time>2026-04-28T15:05:36.858Z</time></trkpt><trkpt lat="37.7656592" lon="13.9421273"><ele>831.0</ele><time>2026-04-28T15:05:37.858Z</time></trkpt><trkpt lat="37.7655823" lon="13.9423696"><ele>831.6666666666667</ele><time>2026-04-28T15:05:38.858Z</time></trkpt><trkpt lat="37.7655072" lon="13.9426054"><ele>832.3333333333334</ele><time>2026-04-28T15:05:39.858Z</time></trkpt><trkpt lat="37.7654394" lon="13.9428303"><ele>833.0</ele><time>2026-04-28T15:05:40.858Z</time></trkpt><trkpt lat="37.7653846" lon="13.9430411"><ele>833.0</ele><time>2026-04-28T15:05:41.858Z</time></trkpt><trkpt lat="37.7653658" lon="13.9432602"><ele>833.0</ele><time>2026-04-28T15:05:42.858Z</time></trkpt><trkpt lat="37.7653723" lon="13.9434935"><ele>833.0</ele><time>2026-04-28T15:05:43.858Z</time></trkpt><trkpt lat="37.765417" lon="13.943747"><ele>829.3333333333334</ele><time>2026-04-28T15:05:44.858Z</time></trkpt><trkpt lat="37.7654838" lon="13.944"><ele>825.6666666666667</ele><time>2026-04-28T15:05:45.858Z</time></trkpt><trkpt lat="37.7655596" lon="13.9442536"><ele>822.0</ele><time>2026-04-28T15:05:46.858Z</time></trkpt><trkpt lat="37.7656529" lon="13.9444884"><ele>819.3333333333333</ele><time>2026-04-28T15:05:47.858Z</time></trkpt><trkpt lat="37.7657877" lon="13.9447006"><ele>816.6666666666666</ele><time>2026-04-28T15:05:48.858Z</time></trkpt><trkpt lat="37.7659499" lon="13.9448842"><ele>814.0</ele><time>2026-04-28T15:05:49.858Z</time></trkpt><trkpt lat="37.7661417" lon="13.9450094"><ele>810.0</ele><time>2026-04-28T15:05:50.859Z</time></trkpt><trkpt lat="37.7663438" lon="13.9451016"><ele>806.0</ele><time>2026-04-28T15:05:51.858Z</time></trkpt><trkpt lat="37.7665292" lon="13.9451768"><ele>802.0</ele><time>2026-04-28T15:05:52.858Z</time></trkpt><trkpt lat="37.7666984" lon="13.9452795"><ele>802.0</ele><time>2026-04-28T15:05:53.858Z</time></trkpt><trkpt lat="37.7668486" lon="13.945439"><ele>802.0</ele><time>2026-04-28T15:05:54.858Z</time></trkpt><trkpt lat="37.7669879" lon="13.9456274"><ele>802.0</ele><time>2026-04-28T15:05:55.858Z</time></trkpt><trkpt lat="37.7671076" lon="13.9458387"><ele>804.0</ele><time>2026-04-28T15:05:56.858Z</time></trkpt><trkpt lat="37.7672047" lon="13.9460666"><ele>806.0</ele><time>2026-04-28T15:05:57.858Z</time></trkpt><trkpt lat="37.767273" lon="13.9463092"><ele>808.0</ele><time>2026-04-28T15:05:58.858Z</time></trkpt><trkpt lat="37.7673217" lon="13.9465542"><ele>808.3333333333333</ele><time>2026-04-28T15:05:59.858Z</time></trkpt><trkpt lat="37.7673514" lon="13.9467848"><ele>808.6666666666667</ele><time>2026-04-28T15:06:00.858Z</time></trkpt><trkpt lat="37.7673548" lon="13.9470006"><ele>809.0</ele><time>2026-04-28T15:06:01.858Z</time></trkpt><trkpt lat="37.7673389" lon="13.9472065"><ele>809.0</ele><time>2026-04-28T15:06:02.859Z</time></trkpt><trkpt lat="37.7673024" lon="13.9474084"><ele>809.0</ele><time>2026-04-28T15:06:03.858Z</time></trkpt><trkpt lat="37.7672412" lon="13.9476151"><ele>809.0</ele><time>2026-04-28T15:06:04.858Z</time></trkpt><trkpt lat="37.7671717" lon="13.947807"><ele>809.6666666666667</ele><time>2026-04-28T15:06:05.858Z</time></trkpt><trkpt lat="37.7671032" lon="13.9479948"><ele>810.3333333333333</ele><time>2026-04-28T15:06:06.858Z</time></trkpt><trkpt lat="37.7670405" lon="13.9481897"><ele>811.0</ele><time>2026-04-28T15:06:07.858Z</time></trkpt><trkpt lat="37.7669851" lon="13.9484185"><ele>812.3333333333333</ele><time>2026-04-28T15:06:08.858Z</time></trkpt><trkpt lat="37.7669533" lon="13.948646"><ele>813.6666666666667</ele><time>2026-04-28T15:06:09.858Z</time></trkpt><trkpt lat="37.7669315" lon="13.9488625"><ele>815.0</ele><time>2026-04-28T15:06:10.858Z</time></trkpt><trkpt lat="37.7669211" lon="13.9490856"><ele>814.0</ele><time>2026-04-28T15:06:11.858Z</time></trkpt><trkpt lat="37.7669444" lon="13.949317"><ele>813.0</ele><time>2026-04-28T15:06:12.858Z</time></trkpt><trkpt lat="37.7669869" lon="13.9495634"><ele>812.0</ele><time>2026-04-28T15:06:13.858Z</time></trkpt><trkpt lat="37.767042" lon="13.949823"><ele>808.0</ele><time>2026-04-28T15:06:14.858Z</time></trkpt><trkpt lat="37.7671036" lon="13.9500994"><ele>804.0</ele><time>2026-04-28T15:06:15.858Z</time></trkpt><trkpt lat="37.7671634" lon="13.9503807"><ele>804.0</ele><time>2026-04-28T15:06:16.858Z</time></trkpt><trkpt lat="37.7672229" lon="13.9506596"><ele>804.0</ele><time>2026-04-28T15:06:17.858Z</time></trkpt><trkpt lat="37.7672769" lon="13.9509264"><ele>804.0</ele><time>2026-04-28T15:06:18.858Z</time></trkpt><trkpt lat="37.7673235" lon="13.9511844"><ele>804.6666666666667</ele><time>2026-04-28T15:06:19.858Z</time></trkpt><trkpt lat="37.7673543" lon="13.9514239"><ele>805.3333333333334</ele><time>2026-04-28T15:06:20.858Z</time></trkpt><trkpt lat="37.7673368" lon="13.9516349"><ele>806.0</ele><time>2026-04-28T15:06:21.858Z</time></trkpt><trkpt lat="37.7672815" lon="13.9518308"><ele>807.6666666666667</ele><time>2026-04-28T15:06:22.858Z</time></trkpt><trkpt lat="37.7671738" lon="13.9519846"><ele>809.3333333333333</ele><time>2026-04-28T15:06:23.858Z</time></trkpt><trkpt lat="37.7670524" lon="13.9521377"><ele>811.0</ele><time>2026-04-28T15:06:24.858Z</time></trkpt><trkpt lat="37.7669165" lon="13.9523029"><ele>807.3333333333333</ele><time>2026-04-28T15:06:25.858Z</time></trkpt><trkpt lat="37.7667792" lon="13.9524746"><ele>803.6666666666667</ele><time>2026-04-28T15:06:26.858Z</time></trkpt><trkpt lat="37.7666279" lon="13.952652"><ele>800.0</ele><time>2026-04-28T15:06:27.859Z</time></trkpt><trkpt lat="37.7664653" lon="13.9528448"><ele>798.5</ele><time>2026-04-28T15:06:28.858Z</time></trkpt><trkpt lat="37.7662938" lon="13.9530593"><ele>797.0</ele><time>2026-04-28T15:06:29.858Z</time></trkpt><trkpt lat="37.7661073" lon="13.9532809"><ele>793.0</ele><time>2026-04-28T15:06:30.858Z</time></trkpt><trkpt lat="37.7659177" lon="13.9535108"><ele>789.0</ele><time>2026-04-28T15:06:31.858Z</time></trkpt><trkpt lat="37.7657229" lon="13.9537452"><ele>789.0</ele><time>2026-04-28T15:06:32.858Z</time></trkpt><trkpt lat="37.7655336" lon="13.9539673"><ele>789.0</ele><time>2026-04-28T15:06:33.858Z</time></trkpt><trkpt lat="37.7653513" lon="13.9541858"><ele>788.0</ele><time>2026-04-28T15:06:34.858Z</time></trkpt><trkpt lat="37.765176" lon="13.9543925"><ele>787.0</ele><time>2026-04-28T15:06:35.859Z</time></trkpt><trkpt lat="37.7650043" lon="13.9545786"><ele>787.0</ele><time>2026-04-28T15:06:36.858Z</time></trkpt><trkpt lat="37.7648164" lon="13.9547223"><ele>787.0</ele><time>2026-04-28T15:06:37.858Z</time></trkpt><trkpt lat="37.764609" lon="13.9548489"><ele>787.0</ele><time>2026-04-28T15:06:38.858Z</time></trkpt><trkpt lat="37.7643917" lon="13.9549597"><ele>787.0</ele><time>2026-04-28T15:06:39.858Z</time></trkpt><trkpt lat="37.7641712" lon="13.9550674"><ele>783.5</ele><time>2026-04-28T15:06:40.858Z</time></trkpt><trkpt lat="37.7639515" lon="13.9551701"><ele>780.0</ele><time>2026-04-28T15:06:41.858Z</time></trkpt><trkpt lat="37.7637408" lon="13.9552612"><ele>780.0</ele><time>2026-04-28T15:06:42.858Z</time></trkpt><trkpt lat="37.7635401" lon="13.9553264"><ele>780.0</ele><time>2026-04-28T15:06:43.858Z</time></trkpt><trkpt lat="37.7633438" lon="13.95536"><ele>780.0</ele><time>2026-04-28T15:06:44.858Z</time></trkpt><trkpt lat="37.7631521" lon="13.955355"><ele>780.6666666666667</ele><time>2026-04-28T15:06:45.858Z</time></trkpt><trkpt lat="37.762958" lon="13.9553249"><ele>781.3333333333334</ele><time>2026-04-28T15:06:46.858Z</time></trkpt><trkpt lat="37.762748" lon="13.9552888"><ele>782.0</ele><time>2026-04-28T15:06:47.858Z</time></trkpt><trkpt lat="37.7625328" lon="13.9552704"><ele>782.0</ele><time>2026-04-28T15:06:48.858Z</time></trkpt><trkpt lat="37.7623134" lon="13.9552743"><ele>782.0</ele><time>2026-04-28T15:06:49.858Z</time></trkpt><trkpt lat="37.7620907" lon="13.9553128"><ele>782.0</ele><time>2026-04-28T15:06:50.858Z</time></trkpt><trkpt lat="37.7618651" lon="13.9553727"><ele>779.5</ele><time>2026-04-28T15:06:51.858Z</time></trkpt><trkpt lat="37.7616345" lon="13.9554452"><ele>777.0</ele><time>2026-04-28T15:06:52.858Z</time></trkpt><trkpt lat="37.7614115" lon="13.9555481"><ele>777.0</ele><time>2026-04-28T15:06:53.858Z</time></trkpt><trkpt lat="37.7611953" lon="13.9556879"><ele>777.0</ele><time>2026-04-28T15:06:54.858Z</time></trkpt><trkpt lat="37.76099" lon="13.9558592"><ele>773.0</ele><time>2026-04-28T15:06:55.858Z</time></trkpt><trkpt lat="37.7608122" lon="13.9560564"><ele>769.0</ele><time>2026-04-28T15:06:56.858Z</time></trkpt><trkpt lat="37.7606487" lon="13.9562849"><ele>769.0</ele><time>2026-04-28T15:06:57.858Z</time></trkpt><trkpt lat="37.7605048" lon="13.9565283"><ele>769.0</ele><time>2026-04-28T15:06:58.858Z</time></trkpt><trkpt lat="37.7603873" lon="13.9567635"><ele>766.6666666666666</ele><time>2026-04-28T15:06:59.858Z</time></trkpt><trkpt lat="37.7603025" lon="13.9569633"><ele>764.3333333333333</ele><time>2026-04-28T15:07:00.858Z</time></trkpt><trkpt lat="37.7602388" lon="13.9571448"><ele>762.0</ele><time>2026-04-28T15:07:01.858Z</time></trkpt><trkpt lat="37.7602175" lon="13.9573359"><ele>762.0</ele><time>2026-04-28T15:07:02.858Z</time></trkpt><trkpt lat="37.7602391" lon="13.9575329"><ele>762.0</ele><time>2026-04-28T15:07:03.858Z</time></trkpt><trkpt lat="37.7603124" lon="13.9577262"><ele>762.0</ele><time>2026-04-28T15:07:04.858Z</time></trkpt><trkpt lat="37.7603999" lon="13.9579001"><ele>760.0</ele><time>2026-04-28T15:07:05.858Z</time></trkpt><trkpt lat="37.7605046" lon="13.9580641"><ele>758.0</ele><time>2026-04-28T15:07:06.858Z</time></trkpt><trkpt lat="37.7605994" lon="13.9582259"><ele>756.0</ele><time>2026-04-28T15:07:07.858Z</time></trkpt><trkpt lat="37.7606631" lon="13.9583974"><ele>755.0</ele><time>2026-04-28T15:07:08.858Z</time></trkpt><trkpt lat="37.7606783" lon="13.9585748"><ele>754.0</ele><time>2026-04-28T15:07:09.858Z</time></trkpt><trkpt lat="37.7606469" lon="13.9587314"><ele>753.0</ele><time>2026-04-28T15:07:10.858Z</time></trkpt><trkpt lat="37.7605813" lon="13.9588808"><ele>752.0</ele><time>2026-04-28T15:07:11.857Z</time></trkpt><trkpt lat="37.7604814" lon="13.9590299"><ele>752.0</ele><time>2026-04-28T15:07:12.857Z</time></trkpt><trkpt lat="37.760364" lon="13.9591863"><ele>752.0</ele><time>2026-04-28T15:07:13.857Z</time></trkpt><trkpt lat="37.7602487" lon="13.9593479"><ele>752.0</ele><time>2026-04-28T15:07:14.857Z</time></trkpt><trkpt lat="37.7601331" lon="13.9595136"><ele>751.0</ele><time>2026-04-28T15:07:15.857Z</time></trkpt><trkpt lat="37.7600179" lon="13.9596785"><ele>750.0</ele><time>2026-04-28T15:07:16.857Z</time></trkpt><trkpt lat="37.7599085" lon="13.9598357"><ele>749.0</ele><time>2026-04-28T15:07:17.857Z</time></trkpt><trkpt lat="37.7598046" lon="13.9599919"><ele>747.6666666666666</ele><time>2026-04-28T15:07:18.857Z</time></trkpt><trkpt lat="37.7597055" lon="13.9601778"><ele>746.3333333333334</ele><time>2026-04-28T15:07:19.857Z</time></trkpt><trkpt lat="37.7596373" lon="13.9603956"><ele>745.0</ele><time>2026-04-28T15:07:20.857Z</time></trkpt><trkpt lat="37.7596068" lon="13.960637"><ele>744.3333333333334</ele><time>2026-04-28T15:07:21.857Z</time></trkpt><trkpt lat="37.7595936" lon="13.9608915"><ele>743.6666666666666</ele><time>2026-04-28T15:07:22.857Z</time></trkpt><trkpt lat="37.7595669" lon="13.9611506"><ele>743.0</ele><time>2026-04-28T15:07:23.857Z</time></trkpt><trkpt lat="37.7594999" lon="13.9614088"><ele>743.0</ele><time>2026-04-28T15:07:24.857Z</time></trkpt><trkpt lat="37.7593854" lon="13.9616612"><ele>743.0</ele><time>2026-04-28T15:07:25.857Z</time></trkpt><trkpt lat="37.75926" lon="13.9618986"><ele>740.6666666666666</ele><time>2026-04-28T15:07:26.857Z</time></trkpt><trkpt lat="37.7591382" lon="13.9621286"><ele>738.3333333333334</ele><time>2026-04-28T15:07:27.857Z</time></trkpt><trkpt lat="37.759039" lon="13.962371"><ele>736.0</ele><time>2026-04-28T15:07:28.857Z</time></trkpt><trkpt lat="37.758969" lon="13.9626077"><ele>734.6666666666667</ele><time>2026-04-28T15:07:29.857Z</time></trkpt><trkpt lat="37.7589374" lon="13.9628349"><ele>733.3333333333334</ele><time>2026-04-28T15:07:30.857Z</time></trkpt><trkpt lat="37.7589492" lon="13.9630579"><ele>732.0</ele><time>2026-04-28T15:07:31.857Z</time></trkpt><trkpt lat="37.7590017" lon="13.963263"><ele>730.3333333333334</ele><time>2026-04-28T15:07:32.857Z</time></trkpt><trkpt lat="37.7590705" lon="13.9634522"><ele>728.6666666666667</ele><time>2026-04-28T15:07:33.857Z</time></trkpt><trkpt lat="37.7591473" lon="13.9636244"><ele>727.0</ele><time>2026-04-28T15:07:34.857Z</time></trkpt><trkpt lat="37.7592006" lon="13.9638069"><ele>727.0</ele><time>2026-04-28T15:07:35.857Z</time></trkpt><trkpt lat="37.7592189" lon="13.9640158"><ele>727.0</ele><time>2026-04-28T15:07:36.857Z</time></trkpt><trkpt lat="37.7592063" lon="13.9642292"><ele>727.0</ele><time>2026-04-28T15:07:37.857Z</time></trkpt><trkpt lat="37.759167" lon="13.9644264"><ele>726.75</ele><time>2026-04-28T15:07:38.857Z</time></trkpt><trkpt lat="37.759109" lon="13.9645867"><ele>726.5</ele><time>2026-04-28T15:07:39.857Z</time></trkpt><trkpt lat="37.7590188" lon="13.9646995"><ele>726.25</ele><time>2026-04-28T15:07:40.857Z</time></trkpt><trkpt lat="37.7589071" lon="13.9647772"><ele>726.0</ele><time>2026-04-28T15:07:41.857Z</time></trkpt><trkpt lat="37.7587757" lon="13.9648227"><ele>726.0</ele><time>2026-04-28T15:07:42.857Z</time></trkpt><trkpt lat="37.7586316" lon="13.9648192"><ele>726.0</ele><time>2026-04-28T15:07:43.857Z</time></trkpt><trkpt lat="37.7584879" lon="13.9647735"><ele>726.0</ele><time>2026-04-28T15:07:44.857Z</time></trkpt><trkpt lat="37.7583396" lon="13.9647035"><ele>726.3333333333334</ele><time>2026-04-28T15:07:45.858Z</time></trkpt><trkpt lat="37.7581736" lon="13.9646219"><ele>726.6666666666667</ele><time>2026-04-28T15:07:46.857Z</time></trkpt><trkpt lat="37.7579977" lon="13.9645323"><ele>727.0</ele><time>2026-04-28T15:07:47.857Z</time></trkpt><trkpt lat="37.7578202" lon="13.9644413"><ele>727.0</ele><time>2026-04-28T15:07:48.857Z</time></trkpt><trkpt lat="37.7576434" lon="13.9643555"><ele>727.0</ele><time>2026-04-28T15:07:49.857Z</time></trkpt><trkpt lat="37.7574648" lon="13.9642686"><ele>727.0</ele><time>2026-04-28T15:07:50.857Z</time></trkpt><trkpt lat="37.7572886" lon="13.9641851"><ele>724.6666666666667</ele><time>2026-04-28T15:07:51.857Z</time></trkpt><trkpt lat="37.7571104" lon="13.9641156"><ele>722.3333333333334</ele><time>2026-04-28T15:07:52.857Z</time></trkpt><trkpt lat="37.7569356" lon="13.9640658"><ele>720.0</ele><time>2026-04-28T15:07:53.857Z</time></trkpt><trkpt lat="37.7567731" lon="13.964031"><ele>719.0</ele><time>2026-04-28T15:07:54.857Z</time></trkpt><trkpt lat="37.7566168" lon="13.9640107"><ele>718.0</ele><time>2026-04-28T15:07:55.857Z</time></trkpt><trkpt lat="37.7564785" lon="13.9640017"><ele>717.0</ele><time>2026-04-28T15:07:56.858Z</time></trkpt><trkpt lat="37.7563534" lon="13.9639907"><ele>716.0</ele><time>2026-04-28T15:07:57.857Z</time></trkpt><trkpt lat="37.7562391" lon="13.9639786"><ele>716.0</ele><time>2026-04-28T15:07:58.857Z</time></trkpt><trkpt lat="37.7561463" lon="13.9639741"><ele>716.0</ele><time>2026-04-28T15:07:59.857Z</time></trkpt><trkpt lat="37.7560548" lon="13.9639682"><ele>716.0</ele><time>2026-04-28T15:08:00.857Z</time></trkpt><trkpt lat="37.7559554" lon="13.9639666"><ele>716.0</ele><time>2026-04-28T15:08:01.857Z</time></trkpt><trkpt lat="37.7558396" lon="13.9639819"><ele>716.0</ele><time>2026-04-28T15:08:02.857Z</time></trkpt><trkpt lat="37.7557233" lon="13.9640297"><ele>715.3333333333333</ele><time>2026-04-28T15:08:03.857Z</time></trkpt><trkpt lat="37.7555886" lon="13.9641123"><ele>714.6666666666666</ele><time>2026-04-28T15:08:04.857Z</time></trkpt><trkpt lat="37.7554511" lon="13.9642403"><ele>714.0</ele><time>2026-04-28T15:08:05.857Z</time></trkpt><trkpt lat="37.7553087" lon="13.9643907"><ele>716.6666666666666</ele><time>2026-04-28T15:08:06.857Z</time></trkpt><trkpt lat="37.7551596" lon="13.9645798"><ele>719.3333333333333</ele><time>2026-04-28T15:08:07.857Z</time></trkpt><trkpt lat="37.7550046" lon="13.9647704"><ele>722.0</ele><time>2026-04-28T15:08:08.857Z</time></trkpt><trkpt lat="37.7548558" lon="13.9649584"><ele>725.0</ele><time>2026-04-28T15:08:09.857Z</time></trkpt><trkpt lat="37.7547195" lon="13.9651318"><ele>728.0</ele><time>2026-04-28T15:08:10.857Z</time></trkpt><trkpt lat="37.7545974" lon="13.9653098"><ele>731.0</ele><time>2026-04-28T15:08:11.857Z</time></trkpt><trkpt lat="37.7544886" lon="13.9655034"><ele>731.0</ele><time>2026-04-28T15:08:12.857Z</time></trkpt><trkpt lat="37.7543894" lon="13.9657097"><ele>731.0</ele><time>2026-04-28T15:08:13.857Z</time></trkpt><trkpt lat="37.7543044" lon="13.9659311"><ele>731.0</ele><time>2026-04-28T15:08:14.857Z</time></trkpt><trkpt lat="37.7542281" lon="13.9661665"><ele>731.3333333333333</ele><time>2026-04-28T15:08:15.857Z</time></trkpt><trkpt lat="37.7541585" lon="13.9663996"><ele>731.6666666666666</ele><time>2026-04-28T15:08:16.857Z</time></trkpt><trkpt lat="37.7540951" lon="13.9665978"><ele>732.0</ele><time>2026-04-28T15:08:17.857Z</time></trkpt><trkpt lat="37.7540359" lon="13.9667771"><ele>734.6666666666666</ele><time>2026-04-28T15:08:18.857Z</time></trkpt><trkpt lat="37.7539652" lon="13.9669605"><ele>737.3333333333333</ele><time>2026-04-28T15:08:19.857Z</time></trkpt><trkpt lat="37.7538661" lon="13.9671491"><ele>740.0</ele><time>2026-04-28T15:08:20.857Z</time></trkpt><trkpt lat="37.7537539" lon="13.9673504"><ele>739.6666666666666</ele><time>2026-04-28T15:08:21.857Z</time></trkpt><trkpt lat="37.753625" lon="13.9675585"><ele>739.3333333333334</ele><time>2026-04-28T15:08:22.857Z</time></trkpt><trkpt lat="37.7534972" lon="13.9677636"><ele>739.0</ele><time>2026-04-28T15:08:23.857Z</time></trkpt><trkpt lat="37.7533762" lon="13.9679586"><ele>739.0</ele><time>2026-04-28T15:08:24.857Z</time></trkpt><trkpt lat="37.7532555" lon="13.9681415"><ele>739.0</ele><time>2026-04-28T15:08:25.857Z</time></trkpt><trkpt lat="37.7531432" lon="13.9683184"><ele>739.0</ele><time>2026-04-28T15:08:26.857Z</time></trkpt><trkpt lat="37.7530317" lon="13.9684903"><ele>741.6666666666667</ele><time>2026-04-28T15:08:27.857Z</time></trkpt><trkpt lat="37.7529298" lon="13.9686608"><ele>744.3333333333334</ele><time>2026-04-28T15:08:28.857Z</time></trkpt><trkpt lat="37.7528544" lon="13.9688383"><ele>747.0</ele><time>2026-04-28T15:08:29.857Z</time></trkpt><trkpt lat="37.7528294" lon="13.9690466"><ele>748.3333333333334</ele><time>2026-04-28T15:08:30.857Z</time></trkpt><trkpt lat="37.7528483" lon="13.9692807"><ele>749.6666666666667</ele><time>2026-04-28T15:08:31.857Z</time></trkpt><trkpt lat="37.7528942" lon="13.9695284"><ele>751.0</ele><time>2026-04-28T15:08:32.857Z</time></trkpt><trkpt lat="37.7529608" lon="13.9697997"><ele>751.0</ele><time>2026-04-28T15:08:33.857Z</time></trkpt><trkpt lat="37.7530259" lon="13.9700821"><ele>751.0</ele><time>2026-04-28T15:08:34.857Z</time></trkpt><trkpt lat="37.7530936" lon="13.9703842"><ele>751.0</ele><time>2026-04-28T15:08:35.857Z</time></trkpt><trkpt lat="37.7531637" lon="13.9707011"><ele>751.0</ele><time>2026-04-28T15:08:36.857Z</time></trkpt><trkpt lat="37.7532363" lon="13.9710259"><ele>751.5</ele><time>2026-04-28T15:08:37.857Z</time></trkpt><trkpt lat="37.7533027" lon="13.9713371"><ele>752.0</ele><time>2026-04-28T15:08:38.857Z</time></trkpt><trkpt lat="37.7533638" lon="13.9716287"><ele>753.0</ele><time>2026-04-28T15:08:39.857Z</time></trkpt><trkpt lat="37.7534208" lon="13.971899"><ele>754.0</ele><time>2026-04-28T15:08:40.857Z</time></trkpt><trkpt lat="37.7534803" lon="13.9721425"><ele>755.0</ele><time>2026-04-28T15:08:41.857Z</time></trkpt><trkpt lat="37.7535531" lon="13.9723621"><ele>754.0</ele><time>2026-04-28T15:08:42.857Z</time></trkpt><trkpt lat="37.7536352" lon="13.9725685"><ele>753.0</ele><time>2026-04-28T15:08:43.857Z</time></trkpt><trkpt lat="37.7537288" lon="13.9727697"><ele>752.0</ele><time>2026-04-28T15:08:44.858Z</time></trkpt><trkpt lat="37.7538377" lon="13.9729683"><ele>752.0</ele><time>2026-04-28T15:08:45.857Z</time></trkpt><trkpt lat="37.7539622" lon="13.9731492"><ele>752.0</ele><time>2026-04-28T15:08:46.857Z</time></trkpt><trkpt lat="37.7541148" lon="13.9733181"><ele>752.0</ele><time>2026-04-28T15:08:47.857Z</time></trkpt><trkpt lat="37.7542989" lon="13.9734559"><ele>746.0</ele><time>2026-04-28T15:08:48.857Z</time></trkpt><trkpt lat="37.7545089" lon="13.9735636"><ele>740.0</ele><time>2026-04-28T15:08:49.857Z</time></trkpt><trkpt lat="37.7547247" lon="13.9736463"><ele>740.0</ele><time>2026-04-28T15:08:50.857Z</time></trkpt><trkpt lat="37.7549393" lon="13.9737284"><ele>740.0</ele><time>2026-04-28T15:08:51.857Z</time></trkpt><trkpt lat="37.7551497" lon="13.9738134"><ele>740.0</ele><time>2026-04-28T15:08:52.857Z</time></trkpt><trkpt lat="37.7553496" lon="13.9738972"><ele>740.0</ele><time>2026-04-28T15:08:53.857Z</time></trkpt><trkpt lat="37.755542" lon="13.973982"><ele>740.0</ele><time>2026-04-28T15:08:54.857Z</time></trkpt><trkpt lat="37.7557257" lon="13.9740604"><ele>740.0</ele><time>2026-04-28T15:08:55.857Z</time></trkpt><trkpt lat="37.7559026" lon="13.9741363"><ele>740.0</ele><time>2026-04-28T15:08:56.857Z</time></trkpt><trkpt lat="37.7560624" lon="13.9742312"><ele>740.0</ele><time>2026-04-28T15:08:57.857Z</time></trkpt><trkpt lat="37.7562157" lon="13.9743467"><ele>740.0</ele><time>2026-04-28T15:08:58.857Z</time></trkpt><trkpt lat="37.7563608" lon="13.9745027"><ele>740.0</ele><time>2026-04-28T15:08:59.857Z</time></trkpt><trkpt lat="37.7564922" lon="13.9746889"><ele>740.0</ele><time>2026-04-28T15:09:00.857Z</time></trkpt><trkpt lat="37.7566197" lon="13.9748803"><ele>740.0</ele><time>2026-04-28T15:09:01.857Z</time></trkpt><trkpt lat="37.7567318" lon="13.9750548"><ele>740.4</ele><time>2026-04-28T15:09:02.857Z</time></trkpt><trkpt lat="37.7568317" lon="13.9752016"><ele>740.8</ele><time>2026-04-28T15:09:03.857Z</time></trkpt><trkpt lat="37.7569098" lon="13.9753154"><ele>741.2</ele><time>2026-04-28T15:09:04.857Z</time></trkpt><trkpt lat="37.7569741" lon="13.9754057"><ele>741.6</ele><time>2026-04-28T15:09:05.857Z</time></trkpt><trkpt lat="37.7570242" lon="13.9754744"><ele>742.0</ele><time>2026-04-28T15:09:06.857Z</time></trkpt><trkpt lat="37.7570653" lon="13.9755378"><ele>742.0</ele><time>2026-04-28T15:09:07.857Z</time></trkpt><trkpt lat="37.7571164" lon="13.9756036"><ele>742.0</ele><time>2026-04-28T15:09:08.857Z</time></trkpt><trkpt lat="37.7571913" lon="13.9756887"><ele>742.0</ele><time>2026-04-28T15:09:09.857Z</time></trkpt><trkpt lat="37.7572834" lon="13.9757947"><ele>742.0</ele><time>2026-04-28T15:09:10.857Z</time></trkpt><trkpt lat="37.7573967" lon="13.9759172"><ele>742.0</ele><time>2026-04-28T15:09:11.857Z</time></trkpt><trkpt lat="37.7575283" lon="13.976048"><ele>742.3333333333334</ele><time>2026-04-28T15:09:12.857Z</time></trkpt><trkpt lat="37.7576695" lon="13.9761924"><ele>742.6666666666666</ele><time>2026-04-28T15:09:13.858Z</time></trkpt><trkpt lat="37.757808" lon="13.9763588"><ele>743.0</ele><time>2026-04-28T15:09:14.857Z</time></trkpt><trkpt lat="37.7579316" lon="13.9765515"><ele>747.0</ele><time>2026-04-28T15:09:15.857Z</time></trkpt><trkpt lat="37.758035" lon="13.9767622"><ele>751.0</ele><time>2026-04-28T15:09:16.857Z</time></trkpt><trkpt lat="37.7581245" lon="13.9769868"><ele>755.0</ele><time>2026-04-28T15:09:17.857Z</time></trkpt><trkpt lat="37.7581905" lon="13.9771783"><ele>755.0</ele><time>2026-04-28T15:09:18.857Z</time></trkpt><trkpt lat="37.7582305" lon="13.9773151"><ele>755.0</ele><time>2026-04-28T15:09:19.857Z</time></trkpt><trkpt lat="37.7582597" lon="13.9774"><ele>755.0</ele><time>2026-04-28T15:09:20.857Z</time></trkpt><trkpt lat="37.7582706" lon="13.9774821"><ele>755.0</ele><time>2026-04-28T15:09:22.857Z</time></trkpt><trkpt lat="37.758374" lon="13.9776652"><ele>755.0</ele><time>2026-04-28T15:11:48.857Z</time></trkpt><trkpt lat="37.7584344" lon="13.9777924"><ele>755.25</ele><time>2026-04-28T15:11:49.857Z</time></trkpt><trkpt lat="37.758489" lon="13.9779216"><ele>755.5</ele><time>2026-04-28T15:11:50.857Z</time></trkpt><trkpt lat="37.7585441" lon="13.9780726"><ele>755.75</ele><time>2026-04-28T15:11:51.858Z</time></trkpt><trkpt lat="37.7585951" lon="13.978242"><ele>756.0</ele><time>2026-04-28T15:11:52.857Z</time></trkpt><trkpt lat="37.7586353" lon="13.9784389"><ele>760.0</ele><time>2026-04-28T15:11:53.857Z</time></trkpt><trkpt lat="37.7586619" lon="13.9786515"><ele>764.0</ele><time>2026-04-28T15:11:54.857Z</time></trkpt><trkpt lat="37.7586709" lon="13.9788747"><ele>768.0</ele><time>2026-04-28T15:11:55.857Z</time></trkpt><trkpt lat="37.7586719" lon="13.9791121"><ele>769.6666666666667</ele><time>2026-04-28T15:11:56.858Z</time></trkpt><trkpt lat="37.7586776" lon="13.9793537"><ele>771.3333333333334</ele><time>2026-04-28T15:11:57.857Z</time></trkpt><trkpt lat="37.7586846" lon="13.9795963"><ele>773.0</ele><time>2026-04-28T15:11:58.857Z</time></trkpt><trkpt lat="37.7586954" lon="13.9798319"><ele>774.0</ele><time>2026-04-28T15:11:59.857Z</time></trkpt><trkpt lat="37.7587153" lon="13.9800757"><ele>775.0</ele><time>2026-04-28T15:12:00.857Z</time></trkpt><trkpt lat="37.7587468" lon="13.9803288"><ele>776.0</ele><time>2026-04-28T15:12:01.857Z</time></trkpt><trkpt lat="37.758794" lon="13.9805838"><ele>776.0</ele><time>2026-04-28T15:12:02.857Z</time></trkpt><trkpt lat="37.7588492" lon="13.9808396"><ele>776.0</ele><time>2026-04-28T15:12:03.857Z</time></trkpt><trkpt lat="37.7589117" lon="13.9810967"><ele>776.0</ele><time>2026-04-28T15:12:04.857Z</time></trkpt><trkpt lat="37.758981" lon="13.9813607"><ele>776.0</ele><time>2026-04-28T15:12:05.857Z</time></trkpt><trkpt lat="37.7590578" lon="13.9816236"><ele>776.0</ele><time>2026-04-28T15:12:06.857Z</time></trkpt><trkpt lat="37.7591412" lon="13.9818773"><ele>776.0</ele><time>2026-04-28T15:12:07.857Z</time></trkpt><trkpt lat="37.7592244" lon="13.9821125"><ele>776.0</ele><time>2026-04-28T15:12:08.857Z</time></trkpt><trkpt lat="37.7592988" lon="13.9823265"><ele>776.0</ele><time>2026-04-28T15:12:09.857Z</time></trkpt><trkpt lat="37.7593503" lon="13.9825288"><ele>776.0</ele><time>2026-04-28T15:12:10.857Z</time></trkpt><trkpt lat="37.7593568" lon="13.9827211"><ele>778.0</ele><time>2026-04-28T15:12:11.857Z</time></trkpt><trkpt lat="37.7593243" lon="13.9829125"><ele>780.0</ele><time>2026-04-28T15:12:12.857Z</time></trkpt><trkpt lat="37.7592427" lon="13.9831015"><ele>782.0</ele><time>2026-04-28T15:12:13.857Z</time></trkpt><trkpt lat="37.7591303" lon="13.9832977"><ele>785.3333333333334</ele><time>2026-04-28T15:12:14.857Z</time></trkpt><trkpt lat="37.7589973" lon="13.9834945"><ele>788.6666666666667</ele><time>2026-04-28T15:12:15.858Z</time></trkpt><trkpt lat="37.7588479" lon="13.9836884"><ele>792.0</ele><time>2026-04-28T15:12:16.857Z</time></trkpt><trkpt lat="37.758675" lon="13.983875"><ele>790.5</ele><time>2026-04-28T15:12:17.857Z</time></trkpt><trkpt lat="37.7584905" lon="13.9840584"><ele>789.0</ele><time>2026-04-28T15:12:18.858Z</time></trkpt><trkpt lat="37.7583045" lon="13.984239"><ele>795.0</ele><time>2026-04-28T15:12:19.857Z</time></trkpt><trkpt lat="37.75812" lon="13.9844109"><ele>801.0</ele><time>2026-04-28T15:12:20.857Z</time></trkpt><trkpt lat="37.7579349" lon="13.98458"><ele>801.0</ele><time>2026-04-28T15:12:21.857Z</time></trkpt><trkpt lat="37.7577463" lon="13.9847426"><ele>801.0</ele><time>2026-04-28T15:12:22.857Z</time></trkpt><trkpt lat="37.7575581" lon="13.984897"><ele>804.6666666666667</ele><time>2026-04-28T15:12:23.857Z</time></trkpt><trkpt lat="37.757368" lon="13.9850272"><ele>808.3333333333334</ele><time>2026-04-28T15:12:24.857Z</time></trkpt><trkpt lat="37.7571861" lon="13.9851285"><ele>812.0</ele><time>2026-04-28T15:12:25.857Z</time></trkpt><trkpt lat="37.7570174" lon="13.9852185"><ele>810.0</ele><time>2026-04-28T15:12:26.857Z</time></trkpt><trkpt lat="37.7568673" lon="13.9852971"><ele>808.0</ele><time>2026-04-28T15:12:27.857Z</time></trkpt><trkpt lat="37.7567301" lon="13.9853632"><ele>806.0</ele><time>2026-04-28T15:12:28.857Z</time></trkpt><trkpt lat="37.7566016" lon="13.9854317"><ele>804.0</ele><time>2026-04-28T15:12:29.857Z</time></trkpt><trkpt lat="37.7564945" lon="13.9855219"><ele>804.0</ele><time>2026-04-28T15:12:30.857Z</time></trkpt><trkpt lat="37.756422" lon="13.9856325"><ele>804.0</ele><time>2026-04-28T15:12:31.857Z</time></trkpt><trkpt lat="37.756409" lon="13.9857959"><ele>804.0</ele><time>2026-04-28T15:12:32.857Z</time></trkpt><trkpt lat="37.7564517" lon="13.9859759"><ele>804.0</ele><time>2026-04-28T15:12:33.857Z</time></trkpt><trkpt lat="37.7565372" lon="13.9861664"><ele>804.6666666666667</ele><time>2026-04-28T15:12:34.857Z</time></trkpt><trkpt lat="37.7566419" lon="13.9863611"><ele>805.3333333333334</ele><time>2026-04-28T15:12:35.857Z</time></trkpt><trkpt lat="37.7567549" lon="13.9865619"><ele>806.0</ele><time>2026-04-28T15:12:36.857Z</time></trkpt><trkpt lat="37.7568647" lon="13.9867592"><ele>811.3333333333334</ele><time>2026-04-28T15:12:37.857Z</time></trkpt><trkpt lat="37.7569672" lon="13.9869481"><ele>816.6666666666667</ele><time>2026-04-28T15:12:38.857Z</time></trkpt><trkpt lat="37.7570664" lon="13.9871433"><ele>822.0</ele><time>2026-04-28T15:12:39.857Z</time></trkpt><trkpt lat="37.7571515" lon="13.9873557"><ele>822.0</ele><time>2026-04-28T15:12:40.857Z</time></trkpt><trkpt lat="37.7572056" lon="13.9875896"><ele>822.0</ele><time>2026-04-28T15:12:41.857Z</time></trkpt><trkpt lat="37.7572338" lon="13.9878402"><ele>822.0</ele><time>2026-04-28T15:12:42.858Z</time></trkpt><trkpt lat="37.7572243" lon="13.988106"><ele>824.3333333333333</ele><time>2026-04-28T15:12:43.857Z</time></trkpt><trkpt lat="37.7571796" lon="13.9883651"><ele>826.6666666666666</ele><time>2026-04-28T15:12:44.857Z</time></trkpt><trkpt lat="37.7571126" lon="13.988617"><ele>829.0</ele><time>2026-04-28T15:12:45.857Z</time></trkpt><trkpt lat="37.7570434" lon="13.988863"><ele>829.0</ele><time>2026-04-28T15:12:46.857Z</time></trkpt><trkpt lat="37.7569857" lon="13.9891006"><ele>829.0</ele><time>2026-04-28T15:12:47.857Z</time></trkpt><trkpt lat="37.7569329" lon="13.9893227"><ele>829.0</ele><time>2026-04-28T15:12:48.857Z</time></trkpt><trkpt lat="37.7568682" lon="13.9895462"><ele>827.6666666666666</ele><time>2026-04-28T15:12:49.857Z</time></trkpt><trkpt lat="37.7567772" lon="13.9897777"><ele>826.3333333333333</ele><time>2026-04-28T15:12:50.858Z</time></trkpt><trkpt lat="37.7566678" lon="13.9900007"><ele>825.0</ele><time>2026-04-28T15:12:51.857Z</time></trkpt><trkpt lat="37.7565511" lon="13.9902034"><ele>828.3333333333333</ele><time>2026-04-28T15:12:52.857Z</time></trkpt><trkpt lat="37.7564358" lon="13.9903757"><ele>831.6666666666666</ele><time>2026-04-28T15:12:53.857Z</time></trkpt><trkpt lat="37.75634" lon="13.9905306"><ele>835.0</ele><time>2026-04-28T15:12:54.857Z</time></trkpt><trkpt lat="37.7562657" lon="13.9906746"><ele>835.0</ele><time>2026-04-28T15:12:55.857Z</time></trkpt><trkpt lat="37.7562453" lon="13.9907818"><ele>835.0</ele><time>2026-04-28T15:12:56.857Z</time></trkpt><trkpt lat="37.7563148" lon="13.9909004"><ele>835.0</ele><time>2026-04-28T15:12:58.857Z</time></trkpt><trkpt lat="37.756389" lon="13.9909202"><ele>835.0</ele><time>2026-04-28T15:12:59.857Z</time></trkpt><trkpt lat="37.7564789" lon="13.9909033"><ele>835.0</ele><time>2026-04-28T15:13:00.857Z</time></trkpt><trkpt lat="37.7565874" lon="13.9908377"><ele>835.0</ele><time>2026-04-28T15:13:01.857Z</time></trkpt><trkpt lat="37.7567186" lon="13.9907424"><ele>835.0</ele><time>2026-04-28T15:13:02.857Z</time></trkpt><trkpt lat="37.7568571" lon="13.9906388"><ele>835.0</ele><time>2026-04-28T15:13:03.857Z</time></trkpt><trkpt lat="37.7570109" lon="13.9905428"><ele>840.3333333333333</ele><time>2026-04-28T15:13:04.857Z</time></trkpt><trkpt lat="37.7571834" lon="13.9904562"><ele>845.6666666666667</ele><time>2026-04-28T15:13:05.857Z</time></trkpt><trkpt lat="37.7573643" lon="13.9903891"><ele>851.0</ele><time>2026-04-28T15:13:06.857Z</time></trkpt><trkpt lat="37.7575481" lon="13.9903214"><ele>855.3333333333334</ele><time>2026-04-28T15:13:07.857Z</time></trkpt><trkpt lat="37.7577272" lon="13.9902498"><ele>859.6666666666667</ele><time>2026-04-28T15:13:08.857Z</time></trkpt><trkpt lat="37.7578969" lon="13.9901541"><ele>864.0</ele><time>2026-04-28T15:13:09.857Z</time></trkpt><trkpt lat="37.7580392" lon="13.9900269"><ele>860.3333333333333</ele><time>2026-04-28T15:13:10.857Z</time></trkpt><trkpt lat="37.7581593" lon="13.9898625"><ele>856.6666666666666</ele><time>2026-04-28T15:13:11.857Z</time></trkpt><trkpt lat="37.7582537" lon="13.9896758"><ele>853.0</ele><time>2026-04-28T15:13:12.857Z</time></trkpt><trkpt lat="37.7583088" lon="13.9894822"><ele>853.0</ele><time>2026-04-28T15:13:13.857Z</time></trkpt><trkpt lat="37.7583417" lon="13.9892951"><ele>853.0</ele><time>2026-04-28T15:13:14.857Z</time></trkpt><trkpt lat="37.7583731" lon="13.9891339"><ele>853.0</ele><time>2026-04-28T15:13:15.857Z</time></trkpt><trkpt lat="37.7584284" lon="13.9890188"><ele>853.0</ele><time>2026-04-28T15:13:16.857Z</time></trkpt><trkpt lat="37.7585107" lon="13.9889624"><ele>854.8</ele><time>2026-04-28T15:13:17.857Z</time></trkpt><trkpt lat="37.7585946" lon="13.9889823"><ele>856.5999999999999</ele><time>2026-04-28T15:13:18.857Z</time></trkpt><trkpt lat="37.7586661" lon="13.9890497"><ele>858.4000000000001</ele><time>2026-04-28T15:13:19.857Z</time></trkpt><trkpt lat="37.758695" lon="13.9891844"><ele>860.2</ele><time>2026-04-28T15:13:20.857Z</time></trkpt><trkpt lat="37.7586932" lon="13.9893383"><ele>862.0</ele><time>2026-04-28T15:13:21.857Z</time></trkpt><trkpt lat="37.7586837" lon="13.9894966"><ele>863.75</ele><time>2026-04-28T15:13:22.857Z</time></trkpt><trkpt lat="37.7586666" lon="13.989647"><ele>865.5</ele><time>2026-04-28T15:13:23.857Z</time></trkpt><trkpt lat="37.7586501" lon="13.9897899"><ele>867.25</ele><time>2026-04-28T15:13:24.857Z</time></trkpt><trkpt lat="37.7586346" lon="13.9899325"><ele>869.0</ele><time>2026-04-28T15:13:25.857Z</time></trkpt><trkpt lat="37.7585999" lon="13.9900829"><ele>867.75</ele><time>2026-04-28T15:13:26.857Z</time></trkpt><trkpt lat="37.7585491" lon="13.990231"><ele>866.5</ele><time>2026-04-28T15:13:27.857Z</time></trkpt><trkpt lat="37.758478" lon="13.9903649"><ele>865.25</ele><time>2026-04-28T15:13:28.857Z</time></trkpt><trkpt lat="37.7584025" lon="13.9904855"><ele>864.0</ele><time>2026-04-28T15:13:29.857Z</time></trkpt><trkpt lat="37.7583172" lon="13.9906088"><ele>864.0</ele><time>2026-04-28T15:13:30.857Z</time></trkpt><trkpt lat="37.7582181" lon="13.9907446"><ele>864.0</ele><time>2026-04-28T15:13:31.857Z</time></trkpt><trkpt lat="37.7581047" lon="13.9908958"><ele>864.0</ele><time>2026-04-28T15:13:32.857Z</time></trkpt><trkpt lat="37.7579916" lon="13.9910562"><ele>865.0</ele><time>2026-04-28T15:13:33.857Z</time></trkpt><trkpt lat="37.7578757" lon="13.991212"><ele>866.0</ele><time>2026-04-28T15:13:34.857Z</time></trkpt><trkpt lat="37.7577713" lon="13.9913495"><ele>867.0</ele><time>2026-04-28T15:13:35.857Z</time></trkpt><trkpt lat="37.7576815" lon="13.9914698"><ele>867.0</ele><time>2026-04-28T15:13:36.857Z</time></trkpt><trkpt lat="37.7576064" lon="13.9915786"><ele>867.0</ele><time>2026-04-28T15:13:37.857Z</time></trkpt><trkpt lat="37.7575375" lon="13.9916799"><ele>867.0</ele><time>2026-04-28T15:13:38.857Z</time></trkpt><trkpt lat="37.7574664" lon="13.9917716"><ele>867.0</ele><time>2026-04-28T15:13:39.857Z</time></trkpt><trkpt lat="37.7574008" lon="13.9918727"><ele>867.0</ele><time>2026-04-28T15:13:40.857Z</time></trkpt><trkpt lat="37.7573405" lon="13.9919871"><ele>869.25</ele><time>2026-04-28T15:13:41.857Z</time></trkpt><trkpt lat="37.7572994" lon="13.9921185"><ele>871.5</ele><time>2026-04-28T15:13:42.857Z</time></trkpt><trkpt lat="37.7572903" lon="13.9922784"><ele>873.75</ele><time>2026-04-28T15:13:43.857Z</time></trkpt><trkpt lat="37.7573207" lon="13.9924685"><ele>876.0</ele><time>2026-04-28T15:13:44.857Z</time></trkpt><trkpt lat="37.7573569" lon="13.9926787"><ele>877.3333333333333</ele><time>2026-04-28T15:13:45.857Z</time></trkpt><trkpt lat="37.7573917" lon="13.9929017"><ele>878.6666666666666</ele><time>2026-04-28T15:13:46.857Z</time></trkpt><trkpt lat="37.757414" lon="13.9931189"><ele>880.0</ele><time>2026-04-28T15:13:47.857Z</time></trkpt><trkpt lat="37.7574237" lon="13.9933096"><ele>880.5</ele><time>2026-04-28T15:13:48.857Z</time></trkpt><trkpt lat="37.7574179" lon="13.9934889"><ele>881.0</ele><time>2026-04-28T15:13:49.857Z</time></trkpt><trkpt lat="37.7574023" lon="13.9936514"><ele>881.5</ele><time>2026-04-28T15:13:50.857Z</time></trkpt><trkpt lat="37.757373" lon="13.9938203"><ele>882.0</ele><time>2026-04-28T15:13:51.857Z</time></trkpt><trkpt lat="37.7573275" lon="13.9939824"><ele>882.0</ele><time>2026-04-28T15:13:52.857Z</time></trkpt><trkpt lat="37.7572636" lon="13.9941388"><ele>882.0</ele><time>2026-04-28T15:13:53.857Z</time></trkpt><trkpt lat="37.7571917" lon="13.9942794"><ele>882.0</ele><time>2026-04-28T15:13:54.857Z</time></trkpt><trkpt lat="37.7571075" lon="13.994412"><ele>882.0</ele><time>2026-04-28T15:13:55.857Z</time></trkpt><trkpt lat="37.7570189" lon="13.9945361"><ele>881.4000000000001</ele><time>2026-04-28T15:13:56.857Z</time></trkpt><trkpt lat="37.7569257" lon="13.9946377"><ele>880.8000000000001</ele><time>2026-04-28T15:13:57.857Z</time></trkpt><trkpt lat="37.7568407" lon="13.9947212"><ele>880.2</ele><time>2026-04-28T15:13:58.857Z</time></trkpt><trkpt lat="37.7567496" lon="13.9947952"><ele>879.6</ele><time>2026-04-28T15:13:59.857Z</time></trkpt><trkpt lat="37.7566763" lon="13.9948644"><ele>879.0</ele><time>2026-04-28T15:14:00.857Z</time></trkpt><trkpt lat="37.756613" lon="13.9949396"><ele>877.6</ele><time>2026-04-28T15:14:01.857Z</time></trkpt><trkpt lat="37.7565757" lon="13.9950484"><ele>876.2</ele><time>2026-04-28T15:14:02.857Z</time></trkpt><trkpt lat="37.7565747" lon="13.9951732"><ele>874.8000000000001</ele><time>2026-04-28T15:14:03.857Z</time></trkpt><trkpt lat="37.7566112" lon="13.9952973"><ele>873.4000000000001</ele><time>2026-04-28T15:14:04.857Z</time></trkpt><trkpt lat="37.7566902" lon="13.995402"><ele>872.0</ele><time>2026-04-28T15:14:05.857Z</time></trkpt><trkpt lat="37.7567911" lon="13.9955112"><ele>871.6666666666667</ele><time>2026-04-28T15:14:06.857Z</time></trkpt><trkpt lat="37.7569269" lon="13.9956348"><ele>871.3333333333333</ele><time>2026-04-28T15:14:07.857Z</time></trkpt><trkpt lat="37.7570717" lon="13.9957812"><ele>871.0</ele><time>2026-04-28T15:14:08.857Z</time></trkpt><trkpt lat="37.7572123" lon="13.9959274"><ele>871.0</ele><time>2026-04-28T15:14:09.857Z</time></trkpt><trkpt lat="37.7573407" lon="13.9960527"><ele>871.0</ele><time>2026-04-28T15:14:10.857Z</time></trkpt><trkpt lat="37.7574597" lon="13.9961278"><ele>871.0</ele><time>2026-04-28T15:14:11.857Z</time></trkpt><trkpt lat="37.7575837" lon="13.9961555"><ele>871.0</ele><time>2026-04-28T15:14:12.857Z</time></trkpt><trkpt lat="37.7577198" lon="13.996125"><ele>868.5</ele><time>2026-04-28T15:14:13.857Z</time></trkpt><trkpt lat="37.7578321" lon="13.9960479"><ele>866.0</ele><time>2026-04-28T15:14:14.857Z</time></trkpt><trkpt lat="37.7579241" lon="13.9959443"><ele>863.5</ele><time>2026-04-28T15:14:15.857Z</time></trkpt><trkpt lat="37.7579909" lon="13.9958365"><ele>861.0</ele><time>2026-04-28T15:14:16.857Z</time></trkpt><trkpt lat="37.7580294" lon="13.9957253"><ele>861.0</ele><time>2026-04-28T15:14:17.857Z</time></trkpt><trkpt lat="37.7580471" lon="13.9955658"><ele>861.0</ele><time>2026-04-28T15:14:18.857Z</time></trkpt><trkpt lat="37.7580735" lon="13.9953606"><ele>861.0</ele><time>2026-04-28T15:14:19.858Z</time></trkpt><trkpt lat="37.7581093" lon="13.9951381"><ele>861.3333333333333</ele><time>2026-04-28T15:14:20.857Z</time></trkpt><trkpt lat="37.7581608" lon="13.9949326"><ele>861.6666666666666</ele><time>2026-04-28T15:14:21.857Z</time></trkpt><trkpt lat="37.7582404" lon="13.9947519"><ele>862.0</ele><time>2026-04-28T15:14:22.857Z</time></trkpt><trkpt lat="37.7583545" lon="13.9946052"><ele>862.0</ele><time>2026-04-28T15:14:23.857Z</time></trkpt><trkpt lat="37.7585077" lon="13.9944817"><ele>862.0</ele><time>2026-04-28T15:14:24.857Z</time></trkpt><trkpt lat="37.7586779" lon="13.9943596"><ele>862.0</ele><time>2026-04-28T15:14:25.857Z</time></trkpt><trkpt lat="37.7588504" lon="13.9942254"><ele>860.6666666666666</ele><time>2026-04-28T15:14:26.857Z</time></trkpt><trkpt lat="37.7590318" lon="13.9940894"><ele>859.3333333333333</ele><time>2026-04-28T15:14:27.857Z</time></trkpt><trkpt lat="37.7592141" lon="13.9939471"><ele>858.0</ele><time>2026-04-28T15:14:28.857Z</time></trkpt><trkpt lat="37.759393" lon="13.9938167"><ele>854.0</ele><time>2026-04-28T15:14:29.857Z</time></trkpt><trkpt lat="37.7595723" lon="13.9937046"><ele>850.0</ele><time>2026-04-28T15:14:30.857Z</time></trkpt><trkpt lat="37.7597712" lon="13.9936235"><ele>846.0</ele><time>2026-04-28T15:14:31.857Z</time></trkpt><trkpt lat="37.7599899" lon="13.993577"><ele>843.6666666666667</ele><time>2026-04-28T15:14:32.857Z</time></trkpt><trkpt lat="37.7602108" lon="13.9935557"><ele>841.3333333333334</ele><time>2026-04-28T15:14:33.857Z</time></trkpt><trkpt lat="37.760429" lon="13.9935651"><ele>839.0</ele><time>2026-04-28T15:14:34.857Z</time></trkpt><trkpt lat="37.7606502" lon="13.9935736"><ele>839.0</ele><time>2026-04-28T15:14:35.857Z</time></trkpt><trkpt lat="37.7608719" lon="13.9935601"><ele>839.0</ele><time>2026-04-28T15:14:36.857Z</time></trkpt><trkpt lat="37.761085" lon="13.9935128"><ele>839.0</ele><time>2026-04-28T15:14:37.857Z</time></trkpt><trkpt lat="37.7612878" lon="13.9934474"><ele>837.0</ele><time>2026-04-28T15:14:38.857Z</time></trkpt><trkpt lat="37.7614726" lon="13.9933791"><ele>835.0</ele><time>2026-04-28T15:14:39.857Z</time></trkpt><trkpt lat="37.7616563" lon="13.9933454"><ele>833.0</ele><time>2026-04-28T15:14:40.857Z</time></trkpt><trkpt lat="37.7618256" lon="13.9933573"><ele>831.6666666666667</ele><time>2026-04-28T15:14:41.857Z</time></trkpt><trkpt lat="37.7619754" lon="13.9934329"><ele>830.3333333333333</ele><time>2026-04-28T15:14:42.857Z</time></trkpt><trkpt lat="37.7621223" lon="13.993521"><ele>829.0</ele><time>2026-04-28T15:14:43.857Z</time></trkpt><trkpt lat="37.7622624" lon="13.9935749"><ele>829.0</ele><time>2026-04-28T15:14:44.857Z</time></trkpt><trkpt lat="37.7623917" lon="13.9935492"><ele>829.0</ele><time>2026-04-28T15:14:45.857Z</time></trkpt><trkpt lat="37.7625111" lon="13.9934878"><ele>829.0</ele><time>2026-04-28T15:14:46.857Z</time></trkpt><trkpt lat="37.7626237" lon="13.993376"><ele>829.0</ele><time>2026-04-28T15:14:47.857Z</time></trkpt><trkpt lat="37.7627491" lon="13.9932191"><ele>827.0</ele><time>2026-04-28T15:14:48.857Z</time></trkpt><trkpt lat="37.7628927" lon="13.9930421"><ele>825.0</ele><time>2026-04-28T15:14:49.857Z</time></trkpt><trkpt lat="37.7630425" lon="13.9928667"><ele>823.0</ele><time>2026-04-28T15:14:50.857Z</time></trkpt><trkpt lat="37.7631823" lon="13.9927002"><ele>823.0</ele><time>2026-04-28T15:14:51.857Z</time></trkpt><trkpt lat="37.7633246" lon="13.9925389"><ele>823.0</ele><time>2026-04-28T15:14:52.857Z</time></trkpt><trkpt lat="37.7634715" lon="13.9923937"><ele>823.0</ele><time>2026-04-28T15:14:53.857Z</time></trkpt><trkpt lat="37.7636369" lon="13.9922634"><ele>820.6666666666666</ele><time>2026-04-28T15:14:54.857Z</time></trkpt><trkpt lat="37.7638273" lon="13.9921518"><ele>818.3333333333333</ele><time>2026-04-28T15:14:55.857Z</time></trkpt><trkpt lat="37.7640312" lon="13.9920666"><ele>816.0</ele><time>2026-04-28T15:14:56.857Z</time></trkpt><trkpt lat="37.7642503" lon="13.9919882"><ele>814.0</ele><time>2026-04-28T15:14:57.857Z</time></trkpt><trkpt lat="37.7644645" lon="13.9919228"><ele>812.0</ele><time>2026-04-28T15:14:58.857Z</time></trkpt><trkpt lat="37.7646719" lon="13.9918671"><ele>810.0</ele><time>2026-04-28T15:14:59.857Z</time></trkpt><trkpt lat="37.764882" lon="13.9918349"><ele>810.0</ele><time>2026-04-28T15:15:00.857Z</time></trkpt><trkpt lat="37.7650904" lon="13.9918481"><ele>810.0</ele><time>2026-04-28T15:15:01.857Z</time></trkpt><trkpt lat="37.7653035" lon="13.991893"><ele>810.0</ele><time>2026-04-28T15:15:02.857Z</time></trkpt><trkpt lat="37.765517" lon="13.9919748"><ele>809.5</ele><time>2026-04-28T15:15:03.857Z</time></trkpt><trkpt lat="37.7657409" lon="13.9920646"><ele>809.0</ele><time>2026-04-28T15:15:04.857Z</time></trkpt><trkpt lat="37.7659556" lon="13.9921572"><ele>810.0</ele><time>2026-04-28T15:15:05.857Z</time></trkpt><trkpt lat="37.7661598" lon="13.9922627"><ele>811.0</ele><time>2026-04-28T15:15:06.857Z</time></trkpt><trkpt lat="37.7663521" lon="13.9924192"><ele>812.0</ele><time>2026-04-28T15:15:07.857Z</time></trkpt><trkpt lat="37.7665149" lon="13.9926072"><ele>811.3333333333334</ele><time>2026-04-28T15:15:08.857Z</time></trkpt><trkpt lat="37.7666383" lon="13.9928254"><ele>810.6666666666667</ele><time>2026-04-28T15:15:09.857Z</time></trkpt><trkpt lat="37.7667617" lon="13.9930574"><ele>810.0</ele><time>2026-04-28T15:15:10.857Z</time></trkpt><trkpt lat="37.7668906" lon="13.9932937"><ele>805.5</ele><time>2026-04-28T15:15:11.857Z</time></trkpt><trkpt lat="37.7670323" lon="13.9935264"><ele>801.0</ele><time>2026-04-28T15:15:12.857Z</time></trkpt><trkpt lat="37.7671811" lon="13.9937546"><ele>801.0</ele><time>2026-04-28T15:15:13.857Z</time></trkpt><trkpt lat="37.7673344" lon="13.9939797"><ele>801.0</ele><time>2026-04-28T15:15:14.857Z</time></trkpt><trkpt lat="37.7674902" lon="13.9941996"><ele>800.0</ele><time>2026-04-28T15:15:15.857Z</time></trkpt><trkpt lat="37.7676493" lon="13.9944104"><ele>799.0</ele><time>2026-04-28T15:15:16.857Z</time></trkpt><trkpt lat="37.7677994" lon="13.9946119"><ele>798.0</ele><time>2026-04-28T15:15:17.857Z</time></trkpt><trkpt lat="37.7679436" lon="13.9948111"><ele>798.0</ele><time>2026-04-28T15:15:18.857Z</time></trkpt><trkpt lat="37.7680814" lon="13.9950013"><ele>798.0</ele><time>2026-04-28T15:15:19.857Z</time></trkpt><trkpt lat="37.7682167" lon="13.9951835"><ele>798.0</ele><time>2026-04-28T15:15:20.857Z</time></trkpt><trkpt lat="37.7683481" lon="13.9953509"><ele>795.6666666666667</ele><time>2026-04-28T15:15:21.858Z</time></trkpt><trkpt lat="37.7684932" lon="13.9954964"><ele>793.3333333333334</ele><time>2026-04-28T15:15:22.857Z</time></trkpt><trkpt lat="37.7686463" lon="13.9956195"><ele>791.0</ele><time>2026-04-28T15:15:23.857Z</time></trkpt><trkpt lat="37.7688118" lon="13.9957135"><ele>791.0</ele><time>2026-04-28T15:15:24.857Z</time></trkpt><trkpt lat="37.7689846" lon="13.9957812"><ele>791.0</ele><time>2026-04-28T15:15:25.857Z</time></trkpt><trkpt lat="37.7691566" lon="13.9958381"><ele>791.0</ele><time>2026-04-28T15:15:26.857Z</time></trkpt><trkpt lat="37.7693146" lon="13.9958969"><ele>791.25</ele><time>2026-04-28T15:15:27.857Z</time></trkpt><trkpt lat="37.7694422" lon="13.9959859"><ele>791.5</ele><time>2026-04-28T15:15:28.857Z</time></trkpt><trkpt lat="37.7695241" lon="13.9961189"><ele>791.75</ele><time>2026-04-28T15:15:29.857Z</time></trkpt><trkpt lat="37.7695778" lon="13.9962794"><ele>792.0</ele><time>2026-04-28T15:15:30.857Z</time></trkpt><trkpt lat="37.7696288" lon="13.9964368"><ele>792.0</ele><time>2026-04-28T15:15:31.857Z</time></trkpt><trkpt lat="37.7696791" lon="13.9965854"><ele>792.0</ele><time>2026-04-28T15:15:32.857Z</time></trkpt><trkpt lat="37.7697541" lon="13.9967302"><ele>792.0</ele><time>2026-04-28T15:15:33.857Z</time></trkpt><trkpt lat="37.7698548" lon="13.9968705"><ele>792.0</ele><time>2026-04-28T15:15:34.857Z</time></trkpt><trkpt lat="37.7699892" lon="13.9969865"><ele>789.0</ele><time>2026-04-28T15:15:35.857Z</time></trkpt><trkpt lat="37.7701678" lon="13.9970896"><ele>786.0</ele><time>2026-04-28T15:15:36.857Z</time></trkpt><trkpt lat="37.7703727" lon="13.9972117"><ele>783.0</ele><time>2026-04-28T15:15:37.857Z</time></trkpt><trkpt lat="37.7705825" lon="13.9973495"><ele>783.0</ele><time>2026-04-28T15:15:38.857Z</time></trkpt><trkpt lat="37.7707834" lon="13.9974917"><ele>783.0</ele><time>2026-04-28T15:15:39.857Z</time></trkpt><trkpt lat="37.7709784" lon="13.9976333"><ele>779.6666666666667</ele><time>2026-04-28T15:15:40.857Z</time></trkpt><trkpt lat="37.7711674" lon="13.9977678"><ele>776.3333333333334</ele><time>2026-04-28T15:15:41.857Z</time></trkpt><trkpt lat="37.771347" lon="13.997892"><ele>773.0</ele><time>2026-04-28T15:15:42.857Z</time></trkpt><trkpt lat="37.7715144" lon="13.9980002"><ele>773.0</ele><time>2026-04-28T15:15:43.858Z</time></trkpt><trkpt lat="37.7716656" lon="13.9980668"><ele>773.0</ele><time>2026-04-28T15:15:44.857Z</time></trkpt><trkpt lat="37.7718063" lon="13.9980697"><ele>773.0</ele><time>2026-04-28T15:15:45.857Z</time></trkpt><trkpt lat="37.7719414" lon="13.9980194"><ele>773.0</ele><time>2026-04-28T15:15:46.857Z</time></trkpt><trkpt lat="37.7720506" lon="13.9979177"><ele>773.0</ele><time>2026-04-28T15:15:47.857Z</time></trkpt><trkpt lat="37.7721598" lon="13.997778"><ele>773.0</ele><time>2026-04-28T15:15:48.857Z</time></trkpt><trkpt lat="37.7722712" lon="13.9976014"><ele>773.0</ele><time>2026-04-28T15:15:49.857Z</time></trkpt><trkpt lat="37.7723991" lon="13.997408"><ele>773.0</ele><time>2026-04-28T15:15:50.857Z</time></trkpt><trkpt lat="37.7725268" lon="13.9972237"><ele>773.0</ele><time>2026-04-28T15:15:51.857Z</time></trkpt><trkpt lat="37.7726495" lon="13.9970491"><ele>773.0</ele><time>2026-04-28T15:15:52.857Z</time></trkpt><trkpt lat="37.7727765" lon="13.9968818"><ele>770.6666666666667</ele><time>2026-04-28T15:15:53.857Z</time></trkpt><trkpt lat="37.7729218" lon="13.9967395"><ele>768.3333333333334</ele><time>2026-04-28T15:15:54.857Z</time></trkpt><trkpt lat="37.7730973" lon="13.9966233"><ele>766.0</ele><time>2026-04-28T15:15:55.857Z</time></trkpt><trkpt lat="37.7732912" lon="13.9965312"><ele>766.0</ele><time>2026-04-28T15:15:56.857Z</time></trkpt><trkpt lat="37.7734873" lon="13.9964606"><ele>766.0</ele><time>2026-04-28T15:15:57.857Z</time></trkpt><trkpt lat="37.7736727" lon="13.9963866"><ele>766.0</ele><time>2026-04-28T15:15:58.857Z</time></trkpt><trkpt lat="37.7738591" lon="13.9963222"><ele>764.3333333333334</ele><time>2026-04-28T15:15:59.857Z</time></trkpt><trkpt lat="37.7740365" lon="13.9962759"><ele>762.6666666666666</ele><time>2026-04-28T15:16:00.856Z</time></trkpt><trkpt lat="37.7742064" lon="13.9962714"><ele>761.0</ele><time>2026-04-28T15:16:01.856Z</time></trkpt><trkpt lat="37.7743718" lon="13.9963376"><ele>760.6666666666666</ele><time>2026-04-28T15:16:02.856Z</time></trkpt><trkpt lat="37.7745405" lon="13.9964325"><ele>760.3333333333334</ele><time>2026-04-28T15:16:03.856Z</time></trkpt><trkpt lat="37.7747143" lon="13.9965488"><ele>760.0</ele><time>2026-04-28T15:16:04.856Z</time></trkpt><trkpt lat="37.7748941" lon="13.9966699"><ele>760.3333333333334</ele><time>2026-04-28T15:16:05.856Z</time></trkpt><trkpt lat="37.7750728" lon="13.9967935"><ele>760.6666666666666</ele><time>2026-04-28T15:16:06.856Z</time></trkpt><trkpt lat="37.77525" lon="13.9969063"><ele>761.0</ele><time>2026-04-28T15:16:07.856Z</time></trkpt><trkpt lat="37.7754228" lon="13.9970084"><ele>761.0</ele><time>2026-04-28T15:16:08.856Z</time></trkpt><trkpt lat="37.7755854" lon="13.9971124"><ele>761.0</ele><time>2026-04-28T15:16:09.856Z</time></trkpt><trkpt lat="37.7757421" lon="13.9972356"><ele>761.0</ele><time>2026-04-28T15:16:10.856Z</time></trkpt><trkpt lat="37.7758916" lon="13.99739"><ele>762.6666666666666</ele><time>2026-04-28T15:16:11.856Z</time></trkpt><trkpt lat="37.7760385" lon="13.9975715"><ele>764.3333333333334</ele><time>2026-04-28T15:16:12.856Z</time></trkpt><trkpt lat="37.7761767" lon="13.9977669"><ele>766.0</ele><time>2026-04-28T15:16:13.856Z</time></trkpt><trkpt lat="37.7763083" lon="13.9979584"><ele>766.0</ele><time>2026-04-28T15:16:14.856Z</time></trkpt><trkpt lat="37.7764427" lon="13.9981505"><ele>766.0</ele><time>2026-04-28T15:16:15.856Z</time></trkpt><trkpt lat="37.7765678" lon="13.9983385"><ele>766.0</ele><time>2026-04-28T15:16:16.856Z</time></trkpt><trkpt lat="37.7766659" lon="13.99852"><ele>766.0</ele><time>2026-04-28T15:16:17.856Z</time></trkpt><trkpt lat="37.7767273" lon="13.9987248"><ele>766.0</ele><time>2026-04-28T15:16:18.857Z</time></trkpt><trkpt lat="37.7767634" lon="13.9989505"><ele>766.0</ele><time>2026-04-28T15:16:19.856Z</time></trkpt><trkpt lat="37.7767883" lon="13.9991951"><ele>766.0</ele><time>2026-04-28T15:16:20.856Z</time></trkpt><trkpt lat="37.7768109" lon="13.9994454"><ele>766.0</ele><time>2026-04-28T15:16:21.856Z</time></trkpt><trkpt lat="37.7768085" lon="13.9996931"><ele>766.0</ele><time>2026-04-28T15:16:22.856Z</time></trkpt><trkpt lat="37.7767757" lon="13.9999323"><ele>766.0</ele><time>2026-04-28T15:16:23.856Z</time></trkpt><trkpt lat="37.776708" lon="14.0001588"><ele>766.0</ele><time>2026-04-28T15:16:24.856Z</time></trkpt><trkpt lat="37.7766148" lon="14.0003613"><ele>766.0</ele><time>2026-04-28T15:16:25.856Z</time></trkpt><trkpt lat="37.776523" lon="14.0005426"><ele>766.0</ele><time>2026-04-28T15:16:26.856Z</time></trkpt><trkpt lat="37.7764609" lon="14.0007199"><ele>766.0</ele><time>2026-04-28T15:16:27.856Z</time></trkpt><trkpt lat="37.7764595" lon="14.0009006"><ele>766.0</ele><time>2026-04-28T15:16:28.856Z</time></trkpt><trkpt lat="37.7765263" lon="14.0010951"><ele>767.6666666666667</ele><time>2026-04-28T15:16:29.856Z</time></trkpt><trkpt lat="37.7766286" lon="14.0012912"><ele>769.3333333333334</ele><time>2026-04-28T15:16:30.856Z</time></trkpt><trkpt lat="37.7767394" lon="14.0014906"><ele>771.0</ele><time>2026-04-28T15:16:31.856Z</time></trkpt><trkpt lat="37.7768247" lon="14.001681"><ele>771.0</ele><time>2026-04-28T15:16:32.856Z</time></trkpt><trkpt lat="37.7768711" lon="14.0018702"><ele>771.0</ele><time>2026-04-28T15:16:33.856Z</time></trkpt><trkpt lat="37.7768738" lon="14.0020565"><ele>771.0</ele><time>2026-04-28T15:16:34.856Z</time></trkpt><trkpt lat="37.7768286" lon="14.0022532"><ele>771.0</ele><time>2026-04-28T15:16:35.856Z</time></trkpt><trkpt lat="37.7767583" lon="14.0024724"><ele>771.0</ele><time>2026-04-28T15:16:36.857Z</time></trkpt><trkpt lat="37.7766813" lon="14.0027136"><ele>771.0</ele><time>2026-04-28T15:16:37.856Z</time></trkpt><trkpt lat="37.7766016" lon="14.0029505"><ele>771.6666666666667</ele><time>2026-04-28T15:16:38.856Z</time></trkpt><trkpt lat="37.7765156" lon="14.0031938"><ele>772.3333333333334</ele><time>2026-04-28T15:16:39.856Z</time></trkpt><trkpt lat="37.7764334" lon="14.0034435"><ele>773.0</ele><time>2026-04-28T15:16:40.856Z</time></trkpt><trkpt lat="37.7763499" lon="14.0036901"><ele>776.3333333333334</ele><time>2026-04-28T15:16:41.856Z</time></trkpt><trkpt lat="37.7762652" lon="14.0039294"><ele>779.6666666666667</ele><time>2026-04-28T15:16:42.856Z</time></trkpt><trkpt lat="37.7761727" lon="14.0041574"><ele>783.0</ele><time>2026-04-28T15:16:43.856Z</time></trkpt><trkpt lat="37.7760807" lon="14.0043675"><ele>781.3333333333333</ele><time>2026-04-28T15:16:44.856Z</time></trkpt><trkpt lat="37.7759968" lon="14.0045703"><ele>779.6666666666666</ele><time>2026-04-28T15:16:45.856Z</time></trkpt><trkpt lat="37.7759279" lon="14.0047798"><ele>778.0</ele><time>2026-04-28T15:16:46.856Z</time></trkpt><trkpt lat="37.7758867" lon="14.0050257"><ele>778.0</ele><time>2026-04-28T15:16:47.856Z</time></trkpt><trkpt lat="37.7758663" lon="14.0052914"><ele>778.0</ele><time>2026-04-28T15:16:48.856Z</time></trkpt><trkpt lat="37.7758661" lon="14.0055518"><ele>778.0</ele><time>2026-04-28T15:16:49.856Z</time></trkpt><trkpt lat="37.7758716" lon="14.0057926"><ele>779.0</ele><time>2026-04-28T15:16:50.856Z</time></trkpt><trkpt lat="37.7758833" lon="14.0060036"><ele>780.0</ele><time>2026-04-28T15:16:51.856Z</time></trkpt><trkpt lat="37.7759131" lon="14.0061765"><ele>781.0</ele><time>2026-04-28T15:16:52.856Z</time></trkpt><trkpt lat="37.7759776" lon="14.0063366"><ele>782.0</ele><time>2026-04-28T15:16:53.856Z</time></trkpt><trkpt lat="37.7760923" lon="14.0064943"><ele>785.3333333333334</ele><time>2026-04-28T15:16:54.856Z</time></trkpt><trkpt lat="37.7762269" lon="14.0066512"><ele>788.6666666666667</ele><time>2026-04-28T15:16:55.856Z</time></trkpt><trkpt lat="37.7763639" lon="14.0068227"><ele>792.0</ele><time>2026-04-28T15:16:56.856Z</time></trkpt><trkpt lat="37.7764694" lon="14.0070262"><ele>792.0</ele><time>2026-04-28T15:16:57.856Z</time></trkpt><trkpt lat="37.7765404" lon="14.0072452"><ele>792.0</ele><time>2026-04-28T15:16:58.856Z</time></trkpt><trkpt lat="37.7766125" lon="14.007441"><ele>792.0</ele><time>2026-04-28T15:16:59.856Z</time></trkpt><trkpt lat="37.7766937" lon="14.0076238"><ele>791.0</ele><time>2026-04-28T15:17:00.856Z</time></trkpt><trkpt lat="37.7767973" lon="14.00779"><ele>790.0</ele><time>2026-04-28T15:17:01.856Z</time></trkpt><trkpt lat="37.7769158" lon="14.0079533"><ele>789.0</ele><time>2026-04-28T15:17:02.856Z</time></trkpt><trkpt lat="37.7770366" lon="14.0081119"><ele>792.6666666666667</ele><time>2026-04-28T15:17:03.856Z</time></trkpt><trkpt lat="37.7771417" lon="14.0082782"><ele>796.3333333333334</ele><time>2026-04-28T15:17:04.856Z</time></trkpt><trkpt lat="37.7772186" lon="14.0084615"><ele>800.0</ele><time>2026-04-28T15:17:05.857Z</time></trkpt><trkpt lat="37.7772519" lon="14.0086754"><ele>800.0</ele><time>2026-04-28T15:17:06.856Z</time></trkpt><trkpt lat="37.7772513" lon="14.008908"><ele>800.0</ele><time>2026-04-28T15:17:07.856Z</time></trkpt><trkpt lat="37.7772319" lon="14.0091684"><ele>800.0</ele><time>2026-04-28T15:17:08.856Z</time></trkpt><trkpt lat="37.7772132" lon="14.0094369"><ele>801.3333333333334</ele><time>2026-04-28T15:17:09.856Z</time></trkpt><trkpt lat="37.7771969" lon="14.0097115"><ele>802.6666666666667</ele><time>2026-04-28T15:17:10.856Z</time></trkpt><trkpt lat="37.7771886" lon="14.009988"><ele>804.0</ele><time>2026-04-28T15:17:11.856Z</time></trkpt><trkpt lat="37.7771754" lon="14.0102565"><ele>805.0</ele><time>2026-04-28T15:17:12.856Z</time></trkpt><trkpt lat="37.7771682" lon="14.0105132"><ele>806.0</ele><time>2026-04-28T15:17:13.856Z</time></trkpt><trkpt lat="37.7771639" lon="14.0107673"><ele>807.0</ele><time>2026-04-28T15:17:14.856Z</time></trkpt><trkpt lat="37.7771855" lon="14.0110329"><ele>806.6666666666667</ele><time>2026-04-28T15:17:15.856Z</time></trkpt><trkpt lat="37.7772363" lon="14.0112964"><ele>806.3333333333334</ele><time>2026-04-28T15:17:16.856Z</time></trkpt><trkpt lat="37.777286" lon="14.0115579"><ele>806.0</ele><time>2026-04-28T15:17:17.856Z</time></trkpt><trkpt lat="37.7773391" lon="14.0118087"><ele>806.0</ele><time>2026-04-28T15:17:18.856Z</time></trkpt><trkpt lat="37.7773923" lon="14.0120539"><ele>806.0</ele><time>2026-04-28T15:17:19.856Z</time></trkpt><trkpt lat="37.777442" lon="14.0122782"><ele>806.0</ele><time>2026-04-28T15:17:20.856Z</time></trkpt><trkpt lat="37.7774921" lon="14.012485"><ele>805.6666666666667</ele><time>2026-04-28T15:17:21.856Z</time></trkpt><trkpt lat="37.7775649" lon="14.0126789"><ele>805.3333333333333</ele><time>2026-04-28T15:17:22.857Z</time></trkpt><trkpt lat="37.7776758" lon="14.0128504"><ele>805.0</ele><time>2026-04-28T15:17:23.856Z</time></trkpt><trkpt lat="37.7778262" lon="14.0130102"><ele>807.6666666666666</ele><time>2026-04-28T15:17:24.856Z</time></trkpt><trkpt lat="37.7779815" lon="14.0131688"><ele>810.3333333333333</ele><time>2026-04-28T15:17:25.856Z</time></trkpt><trkpt lat="37.7781317" lon="14.0133489"><ele>813.0</ele><time>2026-04-28T15:17:26.856Z</time></trkpt><trkpt lat="37.7782667" lon="14.0135529"><ele>813.0</ele><time>2026-04-28T15:17:27.856Z</time></trkpt><trkpt lat="37.7783904" lon="14.0137734"><ele>813.0</ele><time>2026-04-28T15:17:28.856Z</time></trkpt><trkpt lat="37.7785101" lon="14.0140016"><ele>813.0</ele><time>2026-04-28T15:17:29.856Z</time></trkpt><trkpt lat="37.7786224" lon="14.0142192"><ele>815.6666666666667</ele><time>2026-04-28T15:17:30.856Z</time></trkpt><trkpt lat="37.7787356" lon="14.0144261"><ele>818.3333333333334</ele><time>2026-04-28T15:17:31.856Z</time></trkpt><trkpt lat="37.7788693" lon="14.0145406"><ele>821.0</ele><time>2026-04-28T15:17:32.856Z</time></trkpt><trkpt lat="37.7790101" lon="14.0146962"><ele>821.0</ele><time>2026-04-28T15:17:33.856Z</time></trkpt><trkpt lat="37.779177" lon="14.0148423"><ele>821.0</ele><time>2026-04-28T15:17:34.856Z</time></trkpt><trkpt lat="37.7793769" lon="14.014886"><ele>821.0</ele><time>2026-04-28T15:17:35.856Z</time></trkpt><trkpt lat="37.7795794" lon="14.0148954"><ele>824.6666666666667</ele><time>2026-04-28T15:17:36.856Z</time></trkpt><trkpt lat="37.7797838" lon="14.0148993"><ele>828.3333333333333</ele><time>2026-04-28T15:17:37.856Z</time></trkpt><trkpt lat="37.7799851" lon="14.0149005"><ele>832.0</ele><time>2026-04-28T15:17:38.856Z</time></trkpt><trkpt lat="37.7801867" lon="14.0148982"><ele>834.3333333333333</ele><time>2026-04-28T15:17:39.856Z</time></trkpt><trkpt lat="37.78039" lon="14.0149045"><ele>836.6666666666667</ele><time>2026-04-28T15:17:40.856Z</time></trkpt><trkpt lat="37.7805923" lon="14.0149316"><ele>839.0</ele><time>2026-04-28T15:17:41.856Z</time></trkpt><trkpt lat="37.7807973" lon="14.0150195"><ele>837.6666666666667</ele><time>2026-04-28T15:17:42.856Z</time></trkpt><trkpt lat="37.78098" lon="14.0151661"><ele>836.3333333333333</ele><time>2026-04-28T15:17:43.856Z</time></trkpt><trkpt lat="37.7811467" lon="14.0153532"><ele>835.0</ele><time>2026-04-28T15:17:44.856Z</time></trkpt><trkpt lat="37.7812716" lon="14.0155731"><ele>834.0</ele><time>2026-04-28T15:17:45.856Z</time></trkpt><trkpt lat="37.781356" lon="14.0158209"><ele>833.0</ele><time>2026-04-28T15:17:46.856Z</time></trkpt><trkpt lat="37.7814127" lon="14.0160669"><ele>832.0</ele><time>2026-04-28T15:17:47.856Z</time></trkpt><trkpt lat="37.7814626" lon="14.0162948"><ele>832.0</ele><time>2026-04-28T15:17:48.856Z</time></trkpt><trkpt lat="37.7815363" lon="14.0165005"><ele>832.0</ele><time>2026-04-28T15:17:49.856Z</time></trkpt><trkpt lat="37.7816263" lon="14.0166759"><ele>832.0</ele><time>2026-04-28T15:17:50.856Z</time></trkpt><trkpt lat="37.7817469" lon="14.0168366"><ele>834.3333333333333</ele><time>2026-04-28T15:17:51.856Z</time></trkpt><trkpt lat="37.7818985" lon="14.0169912"><ele>836.6666666666667</ele><time>2026-04-28T15:17:52.856Z</time></trkpt><trkpt lat="37.7820608" lon="14.0171474"><ele>839.0</ele><time>2026-04-28T15:17:53.856Z</time></trkpt><trkpt lat="37.7822251" lon="14.0173083"><ele>839.0</ele><time>2026-04-28T15:17:54.856Z</time></trkpt><trkpt lat="37.7823909" lon="14.017478"><ele>839.0</ele><time>2026-04-28T15:17:55.856Z</time></trkpt><trkpt lat="37.7825446" lon="14.017666"><ele>839.0</ele><time>2026-04-28T15:17:56.856Z</time></trkpt><trkpt lat="37.7826628" lon="14.0178775"><ele>840.6666666666667</ele><time>2026-04-28T15:17:57.856Z</time></trkpt><trkpt lat="37.7827637" lon="14.0180856"><ele>842.3333333333333</ele><time>2026-04-28T15:17:58.856Z</time></trkpt><trkpt lat="37.7828529" lon="14.0182824"><ele>844.0</ele><time>2026-04-28T15:17:59.856Z</time></trkpt><trkpt lat="37.7829433" lon="14.0184697"><ele>844.0</ele><time>2026-04-28T15:18:00.855Z</time></trkpt><trkpt lat="37.783031" lon="14.0186533"><ele>844.0</ele><time>2026-04-28T15:18:01.856Z</time></trkpt><trkpt lat="37.7831193" lon="14.0188365"><ele>844.0</ele><time>2026-04-28T15:18:02.856Z</time></trkpt><trkpt lat="37.7832152" lon="14.0190126"><ele>843.6666666666666</ele><time>2026-04-28T15:18:03.856Z</time></trkpt><trkpt lat="37.7833408" lon="14.0191858"><ele>843.3333333333333</ele><time>2026-04-28T15:18:04.856Z</time></trkpt><trkpt lat="37.7834877" lon="14.0193438"><ele>843.0</ele><time>2026-04-28T15:18:05.856Z</time></trkpt><trkpt lat="37.7836513" lon="14.0194675"><ele>844.3333333333333</ele><time>2026-04-28T15:18:06.856Z</time></trkpt><trkpt lat="37.7838158" lon="14.0195591"><ele>845.6666666666666</ele><time>2026-04-28T15:18:07.856Z</time></trkpt><trkpt lat="37.7839787" lon="14.0196422"><ele>847.0</ele><time>2026-04-28T15:18:08.856Z</time></trkpt><trkpt lat="37.7841332" lon="14.0197247"><ele>847.0</ele><time>2026-04-28T15:18:09.857Z</time></trkpt><trkpt lat="37.7842731" lon="14.0197992"><ele>847.0</ele><time>2026-04-28T15:18:10.856Z</time></trkpt><trkpt lat="37.7843978" lon="14.0198888"><ele>847.0</ele><time>2026-04-28T15:18:11.856Z</time></trkpt><trkpt lat="37.7844862" lon="14.0199947"><ele>847.0</ele><time>2026-04-28T15:18:12.856Z</time></trkpt><trkpt lat="37.7845393" lon="14.0201269"><ele>846.2</ele><time>2026-04-28T15:18:13.856Z</time></trkpt><trkpt lat="37.7845624" lon="14.0202629"><ele>845.4000000000001</ele><time>2026-04-28T15:18:14.856Z</time></trkpt><trkpt lat="37.7845798" lon="14.020381"><ele>844.5999999999999</ele><time>2026-04-28T15:18:15.856Z</time></trkpt><trkpt lat="37.784599" lon="14.0205005"><ele>843.8</ele><time>2026-04-28T15:18:16.856Z</time></trkpt><trkpt lat="37.7846301" lon="14.0206176"><ele>843.0</ele><time>2026-04-28T15:18:17.856Z</time></trkpt><trkpt lat="37.7846821" lon="14.0207339"><ele>840.5</ele><time>2026-04-28T15:18:18.856Z</time></trkpt><trkpt lat="37.7847533" lon="14.0208332"><ele>838.0</ele><time>2026-04-28T15:18:19.857Z</time></trkpt><trkpt lat="37.7848451" lon="14.0209317"><ele>835.5</ele><time>2026-04-28T15:18:20.856Z</time></trkpt><trkpt lat="37.784951" lon="14.0210374"><ele>833.0</ele><time>2026-04-28T15:18:21.856Z</time></trkpt><trkpt lat="37.7850808" lon="14.0211591"><ele>836.0</ele><time>2026-04-28T15:18:22.856Z</time></trkpt><trkpt lat="37.7852176" lon="14.0212885"><ele>839.0</ele><time>2026-04-28T15:18:23.856Z</time></trkpt><trkpt lat="37.7853573" lon="14.0214153"><ele>842.0</ele><time>2026-04-28T15:18:24.856Z</time></trkpt><trkpt lat="37.7854986" lon="14.0215413"><ele>837.3333333333334</ele><time>2026-04-28T15:18:25.856Z</time></trkpt><trkpt lat="37.7856278" lon="14.0217006"><ele>832.6666666666667</ele><time>2026-04-28T15:18:26.856Z</time></trkpt><trkpt lat="37.7857082" lon="14.021887"><ele>828.0</ele><time>2026-04-28T15:18:27.856Z</time></trkpt><trkpt lat="37.7857469" lon="14.022095"><ele>828.0</ele><time>2026-04-28T15:18:28.856Z</time></trkpt><trkpt lat="37.7857505" lon="14.0223201"><ele>828.0</ele><time>2026-04-28T15:18:29.856Z</time></trkpt><trkpt lat="37.7857467" lon="14.0225477"><ele>828.0</ele><time>2026-04-28T15:18:30.856Z</time></trkpt><trkpt lat="37.7857712" lon="14.0227668"><ele>826.0</ele><time>2026-04-28T15:18:31.856Z</time></trkpt><trkpt lat="37.7858345" lon="14.0229768"><ele>824.0</ele><time>2026-04-28T15:18:32.857Z</time></trkpt><trkpt lat="37.7859309" lon="14.0231568"><ele>822.0</ele><time>2026-04-28T15:18:33.856Z</time></trkpt><trkpt lat="37.7860716" lon="14.0233178"><ele>820.6666666666667</ele><time>2026-04-28T15:18:34.856Z</time></trkpt><trkpt lat="37.7862252" lon="14.0234337"><ele>819.3333333333334</ele><time>2026-04-28T15:18:35.856Z</time></trkpt><trkpt lat="37.7863874" lon="14.0235112"><ele>818.0</ele><time>2026-04-28T15:18:36.856Z</time></trkpt><trkpt lat="37.7865538" lon="14.0235498"><ele>818.0</ele><time>2026-04-28T15:18:37.856Z</time></trkpt><trkpt lat="37.786712" lon="14.0235783"><ele>818.0</ele><time>2026-04-28T15:18:38.856Z</time></trkpt><trkpt lat="37.7868751" lon="14.0236256"><ele>818.0</ele><time>2026-04-28T15:18:39.856Z</time></trkpt><trkpt lat="37.7870349" lon="14.0237157"><ele>816.6666666666667</ele><time>2026-04-28T15:18:40.856Z</time></trkpt><trkpt lat="37.7871712" lon="14.0238626"><ele>815.3333333333333</ele><time>2026-04-28T15:18:41.856Z</time></trkpt><trkpt lat="37.787284" lon="14.0240541"><ele>814.0</ele><time>2026-04-28T15:18:42.856Z</time></trkpt><trkpt lat="37.787404" lon="14.024259"><ele>814.0</ele><time>2026-04-28T15:18:43.856Z</time></trkpt><trkpt lat="37.7875367" lon="14.0244644"><ele>814.0</ele><time>2026-04-28T15:18:44.856Z</time></trkpt><trkpt lat="37.7876672" lon="14.0246712"><ele>814.0</ele><time>2026-04-28T15:18:45.856Z</time></trkpt><trkpt lat="37.7877938" lon="14.0248688"><ele>813.3333333333333</ele><time>2026-04-28T15:18:46.856Z</time></trkpt><trkpt lat="37.7879124" lon="14.0250571"><ele>812.6666666666667</ele><time>2026-04-28T15:18:47.856Z</time></trkpt><trkpt lat="37.7880303" lon="14.0252378"><ele>812.0</ele><time>2026-04-28T15:18:48.856Z</time></trkpt><trkpt lat="37.7881495" lon="14.0254223"><ele>812.0</ele><time>2026-04-28T15:18:49.856Z</time></trkpt><trkpt lat="37.7882683" lon="14.025611"><ele>812.0</ele><time>2026-04-28T15:18:50.856Z</time></trkpt><trkpt lat="37.7883888" lon="14.0257975"><ele>812.0</ele><time>2026-04-28T15:18:51.856Z</time></trkpt><trkpt lat="37.7885113" lon="14.0259741"><ele>811.6666666666667</ele><time>2026-04-28T15:18:52.856Z</time></trkpt><trkpt lat="37.7886293" lon="14.0261493"><ele>811.3333333333333</ele><time>2026-04-28T15:18:53.856Z</time></trkpt><trkpt lat="37.7887395" lon="14.0263132"><ele>811.0</ele><time>2026-04-28T15:18:54.856Z</time></trkpt><trkpt lat="37.7888332" lon="14.0264664"><ele>811.0</ele><time>2026-04-28T15:18:55.856Z</time></trkpt><trkpt lat="37.7888957" lon="14.0266057"><ele>811.0</ele><time>2026-04-28T15:18:56.856Z</time></trkpt><trkpt lat="37.7889218" lon="14.0267438"><ele>811.0</ele><time>2026-04-28T15:18:57.857Z</time></trkpt><trkpt lat="37.7888977" lon="14.0268859"><ele>811.0</ele><time>2026-04-28T15:18:58.856Z</time></trkpt><trkpt lat="37.7888137" lon="14.0270357"><ele>808.6666666666666</ele><time>2026-04-28T15:18:59.856Z</time></trkpt><trkpt lat="37.7886959" lon="14.0271694"><ele>806.3333333333333</ele><time>2026-04-28T15:19:00.856Z</time></trkpt><trkpt lat="37.7885763" lon="14.027284"><ele>804.0</ele><time>2026-04-28T15:19:01.856Z</time></trkpt><trkpt lat="37.7884586" lon="14.0273919"><ele>800.6666666666667</ele><time>2026-04-28T15:19:02.856Z</time></trkpt><trkpt lat="37.7883372" lon="14.0275104"><ele>797.3333333333334</ele><time>2026-04-28T15:19:03.856Z</time></trkpt><trkpt lat="37.7882175" lon="14.0276458"><ele>794.0</ele><time>2026-04-28T15:19:04.856Z</time></trkpt><trkpt lat="37.7881149" lon="14.0278076"><ele>794.0</ele><time>2026-04-28T15:19:05.856Z</time></trkpt><trkpt lat="37.7880375" lon="14.0280018"><ele>794.0</ele><time>2026-04-28T15:19:06.856Z</time></trkpt><trkpt lat="37.7879829" lon="14.0282146"><ele>794.0</ele><time>2026-04-28T15:19:07.856Z</time></trkpt><trkpt lat="37.7879546" lon="14.0284281"><ele>794.0</ele><time>2026-04-28T15:19:08.856Z</time></trkpt><trkpt lat="37.7879443" lon="14.0286297"><ele>794.0</ele><time>2026-04-28T15:19:09.856Z</time></trkpt><trkpt lat="37.7879484" lon="14.0288208"><ele>794.0</ele><time>2026-04-28T15:19:10.856Z</time></trkpt><trkpt lat="37.7879755" lon="14.0290045"><ele>793.3333333333334</ele><time>2026-04-28T15:19:11.856Z</time></trkpt><trkpt lat="37.7880386" lon="14.0291927"><ele>792.6666666666667</ele><time>2026-04-28T15:19:12.856Z</time></trkpt><trkpt lat="37.7881195" lon="14.0293812"><ele>792.0</ele><time>2026-04-28T15:19:13.856Z</time></trkpt><trkpt lat="37.788211" lon="14.0295475"><ele>792.0</ele><time>2026-04-28T15:19:14.856Z</time></trkpt><trkpt lat="37.7883025" lon="14.0297024"><ele>792.0</ele><time>2026-04-28T15:19:15.856Z</time></trkpt><trkpt lat="37.7883903" lon="14.0298622"><ele>792.0</ele><time>2026-04-28T15:19:16.856Z</time></trkpt><trkpt lat="37.7884733" lon="14.0300438"><ele>791.3333333333333</ele><time>2026-04-28T15:19:17.856Z</time></trkpt><trkpt lat="37.7885455" lon="14.0302386"><ele>790.6666666666666</ele><time>2026-04-28T15:19:18.856Z</time></trkpt><trkpt lat="37.788611" lon="14.0304395"><ele>790.0</ele><time>2026-04-28T15:19:19.856Z</time></trkpt><trkpt lat="37.7886732" lon="14.0306421"><ele>787.6666666666666</ele><time>2026-04-28T15:19:20.856Z</time></trkpt><trkpt lat="37.7887394" lon="14.0308436"><ele>785.3333333333333</ele><time>2026-04-28T15:19:21.856Z</time></trkpt><trkpt lat="37.7888071" lon="14.031043"><ele>783.0</ele><time>2026-04-28T15:19:22.856Z</time></trkpt><trkpt lat="37.788882" lon="14.03124"><ele>783.0</ele><time>2026-04-28T15:19:23.856Z</time></trkpt><trkpt lat="37.7889677" lon="14.0314326"><ele>783.0</ele><time>2026-04-28T15:19:24.856Z</time></trkpt><trkpt lat="37.7890712" lon="14.0316055"><ele>783.0</ele><time>2026-04-28T15:19:25.856Z</time></trkpt><trkpt lat="37.7891912" lon="14.0317566"><ele>781.0</ele><time>2026-04-28T15:19:26.856Z</time></trkpt><trkpt lat="37.7893165" lon="14.0318953"><ele>779.0</ele><time>2026-04-28T15:19:27.856Z</time></trkpt><trkpt lat="37.7894366" lon="14.0320319"><ele>777.0</ele><time>2026-04-28T15:19:28.856Z</time></trkpt><trkpt lat="37.7895463" lon="14.0321679"><ele>776.25</ele><time>2026-04-28T15:19:29.856Z</time></trkpt><trkpt lat="37.7896325" lon="14.0323153"><ele>775.5</ele><time>2026-04-28T15:19:30.856Z</time></trkpt><trkpt lat="37.7896839" lon="14.0324685"><ele>774.75</ele><time>2026-04-28T15:19:31.856Z</time></trkpt><trkpt lat="37.7897019" lon="14.0326291"><ele>774.0</ele><time>2026-04-28T15:19:32.856Z</time></trkpt><trkpt lat="37.789693" lon="14.0327764"><ele>774.0</ele><time>2026-04-28T15:19:33.856Z</time></trkpt><trkpt lat="37.7896526" lon="14.0329431"><ele>774.0</ele><time>2026-04-28T15:19:34.856Z</time></trkpt><trkpt lat="37.7895986" lon="14.0331204"><ele>774.0</ele><time>2026-04-28T15:19:35.856Z</time></trkpt><trkpt lat="37.7895429" lon="14.0332975"><ele>774.0</ele><time>2026-04-28T15:19:36.856Z</time></trkpt><trkpt lat="37.7894912" lon="14.0334751"><ele>774.25</ele><time>2026-04-28T15:19:37.856Z</time></trkpt><trkpt lat="37.7894397" lon="14.0336518"><ele>774.5</ele><time>2026-04-28T15:19:38.856Z</time></trkpt><trkpt lat="37.7893855" lon="14.0338263"><ele>774.75</ele><time>2026-04-28T15:19:39.856Z</time></trkpt><trkpt lat="37.7893249" lon="14.0339963"><ele>775.0</ele><time>2026-04-28T15:19:40.857Z</time></trkpt><trkpt lat="37.7892584" lon="14.0341583"><ele>773.6666666666666</ele><time>2026-04-28T15:19:41.856Z</time></trkpt><trkpt lat="37.7891772" lon="14.0343138"><ele>772.3333333333333</ele><time>2026-04-28T15:19:42.856Z</time></trkpt><trkpt lat="37.7890704" lon="14.0344717"><ele>771.0</ele><time>2026-04-28T15:19:43.856Z</time></trkpt><trkpt lat="37.7889366" lon="14.0346245"><ele>771.0</ele><time>2026-04-28T15:19:44.856Z</time></trkpt><trkpt lat="37.7887672" lon="14.0347719"><ele>771.0</ele><time>2026-04-28T15:19:45.856Z</time></trkpt><trkpt lat="37.7885766" lon="14.0349253"><ele>771.0</ele><time>2026-04-28T15:19:46.856Z</time></trkpt><trkpt lat="37.788372" lon="14.0350975"><ele>769.5</ele><time>2026-04-28T15:19:47.856Z</time></trkpt><trkpt lat="37.78816" lon="14.0352678"><ele>768.0</ele><time>2026-04-28T15:19:48.856Z</time></trkpt><trkpt lat="37.7879523" lon="14.035422"><ele>768.0</ele><time>2026-04-28T15:19:49.856Z</time></trkpt><trkpt lat="37.7877549" lon="14.0355605"><ele>768.0</ele><time>2026-04-28T15:19:50.856Z</time></trkpt><trkpt lat="37.7875762" lon="14.035687"><ele>768.0</ele><time>2026-04-28T15:19:51.856Z</time></trkpt><trkpt lat="37.7874108" lon="14.0358018"><ele>768.6666666666667</ele><time>2026-04-28T15:19:52.856Z</time></trkpt><trkpt lat="37.7872614" lon="14.0359195"><ele>769.3333333333334</ele><time>2026-04-28T15:19:53.856Z</time></trkpt><trkpt lat="37.7871282" lon="14.036045"><ele>770.0</ele><time>2026-04-28T15:19:54.856Z</time></trkpt><trkpt lat="37.7870045" lon="14.0361694"><ele>770.0</ele><time>2026-04-28T15:19:55.856Z</time></trkpt><trkpt lat="37.7869092" lon="14.0363115"><ele>770.0</ele><time>2026-04-28T15:19:56.856Z</time></trkpt><trkpt lat="37.7868342" lon="14.0364661"><ele>770.0</ele><time>2026-04-28T15:19:57.856Z</time></trkpt><trkpt lat="37.7867736" lon="14.0366417"><ele>770.0</ele><time>2026-04-28T15:19:58.856Z</time></trkpt><trkpt lat="37.7867239" lon="14.0368307"><ele>768.5</ele><time>2026-04-28T15:19:59.856Z</time></trkpt><trkpt lat="37.7866861" lon="14.0370127"><ele>767.0</ele><time>2026-04-28T15:20:00.856Z</time></trkpt><trkpt lat="37.7866458" lon="14.0371879"><ele>765.5</ele><time>2026-04-28T15:20:01.856Z</time></trkpt><trkpt lat="37.7866079" lon="14.0373599"><ele>764.0</ele><time>2026-04-28T15:20:02.856Z</time></trkpt><trkpt lat="37.7865744" lon="14.0375208"><ele>764.0</ele><time>2026-04-28T15:20:03.856Z</time></trkpt><trkpt lat="37.7865345" lon="14.0376617"><ele>764.0</ele><time>2026-04-28T15:20:04.856Z</time></trkpt><trkpt lat="37.7864699" lon="14.0377816"><ele>764.0</ele><time>2026-04-28T15:20:05.856Z</time></trkpt><trkpt lat="37.7863937" lon="14.0378824"><ele>764.0</ele><time>2026-04-28T15:20:06.856Z</time></trkpt><trkpt lat="37.7862946" lon="14.0379811"><ele>764.0</ele><time>2026-04-28T15:20:07.856Z</time></trkpt><trkpt lat="37.7861668" lon="14.0380868"><ele>764.0</ele><time>2026-04-28T15:20:08.856Z</time></trkpt><trkpt lat="37.7860319" lon="14.0381776"><ele>764.0</ele><time>2026-04-28T15:20:09.856Z</time></trkpt><trkpt lat="37.785905" lon="14.0382642"><ele>764.5</ele><time>2026-04-28T15:20:10.856Z</time></trkpt><trkpt lat="37.7857853" lon="14.0383401"><ele>765.0</ele><time>2026-04-28T15:20:11.856Z</time></trkpt><trkpt lat="37.7856687" lon="14.0384061"><ele>765.5</ele><time>2026-04-28T15:20:12.856Z</time></trkpt><trkpt lat="37.7855543" lon="14.0384702"><ele>766.0</ele><time>2026-04-28T15:20:13.856Z</time></trkpt><trkpt lat="37.7854457" lon="14.0385391"><ele>766.0</ele><time>2026-04-28T15:20:14.856Z</time></trkpt><trkpt lat="37.7853357" lon="14.0386145"><ele>766.0</ele><time>2026-04-28T15:20:15.856Z</time></trkpt><trkpt lat="37.7852258" lon="14.0386916"><ele>766.0</ele><time>2026-04-28T15:20:16.856Z</time></trkpt><trkpt lat="37.7851164" lon="14.0387687"><ele>766.0</ele><time>2026-04-28T15:20:17.856Z</time></trkpt><trkpt lat="37.7850125" lon="14.0388457"><ele>765.25</ele><time>2026-04-28T15:20:18.856Z</time></trkpt><trkpt lat="37.7849115" lon="14.038921"><ele>764.5</ele><time>2026-04-28T15:20:19.856Z</time></trkpt><trkpt lat="37.7848108" lon="14.0390069"><ele>763.75</ele><time>2026-04-28T15:20:20.856Z</time></trkpt><trkpt lat="37.7847075" lon="14.0391031"><ele>763.0</ele><time>2026-04-28T15:20:21.856Z</time></trkpt><trkpt lat="37.7845943" lon="14.0392167"><ele>762.3333333333334</ele><time>2026-04-28T15:20:22.856Z</time></trkpt><trkpt lat="37.7844682" lon="14.0393418"><ele>761.6666666666666</ele><time>2026-04-28T15:20:23.856Z</time></trkpt><trkpt lat="37.7843401" lon="14.0394589"><ele>761.0</ele><time>2026-04-28T15:20:24.856Z</time></trkpt><trkpt lat="37.7842079" lon="14.0395783"><ele>761.0</ele><time>2026-04-28T15:20:25.856Z</time></trkpt><trkpt lat="37.7840703" lon="14.0396927"><ele>761.0</ele><time>2026-04-28T15:20:26.856Z</time></trkpt><trkpt lat="37.7839348" lon="14.0398059"><ele>761.0</ele><time>2026-04-28T15:20:27.856Z</time></trkpt><trkpt lat="37.7838003" lon="14.039913"><ele>762.0</ele><time>2026-04-28T15:20:28.856Z</time></trkpt><trkpt lat="37.7836744" lon="14.0400268"><ele>763.0</ele><time>2026-04-28T15:20:29.856Z</time></trkpt><trkpt lat="37.7835512" lon="14.0401359"><ele>764.0</ele><time>2026-04-28T15:20:30.856Z</time></trkpt><trkpt lat="37.7834231" lon="14.0402449"><ele>764.0</ele><time>2026-04-28T15:20:31.856Z</time></trkpt><trkpt lat="37.7833036" lon="14.0403505"><ele>764.0</ele><time>2026-04-28T15:20:32.856Z</time></trkpt><trkpt lat="37.7831963" lon="14.0404524"><ele>764.0</ele><time>2026-04-28T15:20:33.856Z</time></trkpt><trkpt lat="37.7830966" lon="14.0405498"><ele>764.0</ele><time>2026-04-28T15:20:34.856Z</time></trkpt><trkpt lat="37.7830028" lon="14.0406499"><ele>764.0</ele><time>2026-04-28T15:20:35.856Z</time></trkpt><trkpt lat="37.7829098" lon="14.0407455"><ele>764.0</ele><time>2026-04-28T15:20:36.856Z</time></trkpt><trkpt lat="37.7828261" lon="14.0408295"><ele>764.0</ele><time>2026-04-28T15:20:37.856Z</time></trkpt><trkpt lat="37.7827446" lon="14.040912"><ele>764.0</ele><time>2026-04-28T15:20:38.856Z</time></trkpt><trkpt lat="37.7826616" lon="14.0409967"><ele>764.0</ele><time>2026-04-28T15:20:39.856Z</time></trkpt><trkpt lat="37.7825836" lon="14.0410938"><ele>764.6</ele><time>2026-04-28T15:20:40.856Z</time></trkpt><trkpt lat="37.7825165" lon="14.0412036"><ele>765.2</ele><time>2026-04-28T15:20:41.856Z</time></trkpt><trkpt lat="37.7824508" lon="14.0413179"><ele>765.8000000000001</ele><time>2026-04-28T15:20:42.856Z</time></trkpt><trkpt lat="37.7823933" lon="14.0414427"><ele>766.4000000000001</ele><time>2026-04-28T15:20:43.856Z</time></trkpt><trkpt lat="37.7823436" lon="14.0415665"><ele>767.0</ele><time>2026-04-28T15:20:44.856Z</time></trkpt><trkpt lat="37.7822946" lon="14.0416957"><ele>768.2</ele><time>2026-04-28T15:20:45.856Z</time></trkpt><trkpt lat="37.7822423" lon="14.0418229"><ele>769.4000000000001</ele><time>2026-04-28T15:20:46.856Z</time></trkpt><trkpt lat="37.7821933" lon="14.0419461"><ele>770.5999999999999</ele><time>2026-04-28T15:20:47.856Z</time></trkpt><trkpt lat="37.7821483" lon="14.0420708"><ele>771.8</ele><time>2026-04-28T15:20:48.856Z</time></trkpt><trkpt lat="37.7821112" lon="14.0422077"><ele>773.0</ele><time>2026-04-28T15:20:49.856Z</time></trkpt><trkpt lat="37.7820786" lon="14.0423565"><ele>773.0</ele><time>2026-04-28T15:20:50.856Z</time></trkpt><trkpt lat="37.7820518" lon="14.0424995"><ele>773.0</ele><time>2026-04-28T15:20:51.856Z</time></trkpt><trkpt lat="37.782029" lon="14.0426418"><ele>773.0</ele><time>2026-04-28T15:20:52.856Z</time></trkpt><trkpt lat="37.7820072" lon="14.0427748"><ele>773.0</ele><time>2026-04-28T15:20:53.856Z</time></trkpt><trkpt lat="37.7819876" lon="14.0429077"><ele>773.0</ele><time>2026-04-28T15:20:54.856Z</time></trkpt><trkpt lat="37.7819675" lon="14.0430327"><ele>773.0000000000001</ele><time>2026-04-28T15:20:55.856Z</time></trkpt><trkpt lat="37.7819454" lon="14.0431485"><ele>773.0</ele><time>2026-04-28T15:20:56.856Z</time></trkpt><trkpt lat="37.7819243" lon="14.0432471"><ele>773.0</ele><time>2026-04-28T15:20:57.856Z</time></trkpt><trkpt lat="37.7819064" lon="14.0433382"><ele>773.0</ele><time>2026-04-28T15:20:58.856Z</time></trkpt><trkpt lat="37.7819104" lon="14.0434465"><ele>773.0000000000001</ele><time>2026-04-28T15:21:00.856Z</time></trkpt><trkpt lat="37.7819745" lon="14.0435022"><ele>773.0</ele><time>2026-04-28T15:21:02.856Z</time></trkpt><trkpt lat="37.7820384" lon="14.0435482"><ele>772.0</ele><time>2026-04-28T15:21:03.856Z</time></trkpt><trkpt lat="37.7821118" lon="14.0436286"><ele>771.0</ele><time>2026-04-28T15:21:04.856Z</time></trkpt><trkpt lat="37.7822" lon="14.0437141"><ele>770.0</ele><time>2026-04-28T15:21:05.856Z</time></trkpt><trkpt lat="37.7822856" lon="14.0438001"><ele>769.0</ele><time>2026-04-28T15:21:06.856Z</time></trkpt><trkpt lat="37.7823795" lon="14.0438846"><ele>768.0</ele><time>2026-04-28T15:21:07.856Z</time></trkpt><trkpt lat="37.7824729" lon="14.0439669"><ele>768.0</ele><time>2026-04-28T15:21:08.856Z</time></trkpt><trkpt lat="37.7825646" lon="14.0440522"><ele>768.0</ele><time>2026-04-28T15:21:09.856Z</time></trkpt><trkpt lat="37.7826609" lon="14.0441273"><ele>768.0</ele><time>2026-04-28T15:21:10.856Z</time></trkpt><trkpt lat="37.7827697" lon="14.044186"><ele>768.0</ele><time>2026-04-28T15:21:11.856Z</time></trkpt><trkpt lat="37.7828966" lon="14.0442244"><ele>764.6666666666666</ele><time>2026-04-28T15:21:12.856Z</time></trkpt><trkpt lat="37.7830382" lon="14.0442549"><ele>761.3333333333333</ele><time>2026-04-28T15:21:13.856Z</time></trkpt><trkpt lat="37.7831873" lon="14.0442844"><ele>758.0</ele><time>2026-04-28T15:21:14.856Z</time></trkpt><trkpt lat="37.7833421" lon="14.0443181"><ele>758.0</ele><time>2026-04-28T15:21:15.856Z</time></trkpt><trkpt lat="37.7834992" lon="14.0443476"><ele>758.0</ele><time>2026-04-28T15:21:16.856Z</time></trkpt><trkpt lat="37.7836544" lon="14.0443752"><ele>758.0</ele><time>2026-04-28T15:21:17.856Z</time></trkpt><trkpt lat="37.7838123" lon="14.0444052"><ele>756.6666666666666</ele><time>2026-04-28T15:21:18.856Z</time></trkpt><trkpt lat="37.7839642" lon="14.0444358"><ele>755.3333333333334</ele><time>2026-04-28T15:21:19.856Z</time></trkpt><trkpt lat="37.7841154" lon="14.044457"><ele>754.0</ele><time>2026-04-28T15:21:20.856Z</time></trkpt><trkpt lat="37.78426" lon="14.044481"><ele>752.6666666666667</ele><time>2026-04-28T15:21:21.856Z</time></trkpt><trkpt lat="37.7844085" lon="14.0445057"><ele>751.3333333333334</ele><time>2026-04-28T15:21:22.856Z</time></trkpt><trkpt lat="37.7845623" lon="14.0445086"><ele>750.0</ele><time>2026-04-28T15:21:23.856Z</time></trkpt><trkpt lat="37.784713" lon="14.0444823"><ele>750.0</ele><time>2026-04-28T15:21:24.856Z</time></trkpt><trkpt lat="37.7848758" lon="14.0444352"><ele>750.0</ele><time>2026-04-28T15:21:25.856Z</time></trkpt><trkpt lat="37.7850357" lon="14.0443712"><ele>750.0</ele><time>2026-04-28T15:21:26.856Z</time></trkpt><trkpt lat="37.7851874" lon="14.0443008"><ele>749.6666666666666</ele><time>2026-04-28T15:21:27.856Z</time></trkpt><trkpt lat="37.7853345" lon="14.0442272"><ele>749.3333333333333</ele><time>2026-04-28T15:21:28.856Z</time></trkpt><trkpt lat="37.7854801" lon="14.0441601"><ele>749.0</ele><time>2026-04-28T15:21:29.856Z</time></trkpt><trkpt lat="37.7856281" lon="14.0440967"><ele>749.0</ele><time>2026-04-28T15:21:30.856Z</time></trkpt><trkpt lat="37.7857722" lon="14.0440293"><ele>749.0</ele><time>2026-04-28T15:21:31.856Z</time></trkpt><trkpt lat="37.785918" lon="14.0439628"><ele>749.0</ele><time>2026-04-28T15:21:32.856Z</time></trkpt><trkpt lat="37.7860592" lon="14.0438888"><ele>746.3333333333333</ele><time>2026-04-28T15:21:33.856Z</time></trkpt><trkpt lat="37.7862085" lon="14.0438178"><ele>743.6666666666666</ele><time>2026-04-28T15:21:34.856Z</time></trkpt><trkpt lat="37.7863685" lon="14.0437535"><ele>741.0</ele><time>2026-04-28T15:21:35.856Z</time></trkpt><trkpt lat="37.7865272" lon="14.043701"><ele>741.0</ele><time>2026-04-28T15:21:36.856Z</time></trkpt><trkpt lat="37.786681" lon="14.0436665"><ele>741.0</ele><time>2026-04-28T15:21:37.856Z</time></trkpt><trkpt lat="37.7868293" lon="14.0436399"><ele>741.0</ele><time>2026-04-28T15:21:38.856Z</time></trkpt><trkpt lat="37.7869704" lon="14.0436183"><ele>741.0</ele><time>2026-04-28T15:21:39.856Z</time></trkpt><trkpt lat="37.7871031" lon="14.0436023"><ele>741.0</ele><time>2026-04-28T15:21:40.856Z</time></trkpt><trkpt lat="37.7872297" lon="14.0436055"><ele>741.0</ele><time>2026-04-28T15:21:41.856Z</time></trkpt><trkpt lat="37.7873454" lon="14.0436675"><ele>741.0</ele><time>2026-04-28T15:21:42.856Z</time></trkpt><trkpt lat="37.7874398" lon="14.0437681"><ele>741.0</ele><time>2026-04-28T15:21:43.856Z</time></trkpt><trkpt lat="37.787509" lon="14.0439076"><ele>741.0</ele><time>2026-04-28T15:21:44.856Z</time></trkpt><trkpt lat="37.7875716" lon="14.0440859"><ele>741.0</ele><time>2026-04-28T15:21:45.856Z</time></trkpt><trkpt lat="37.7876336" lon="14.0442752"><ele>741.0</ele><time>2026-04-28T15:21:46.856Z</time></trkpt><trkpt lat="37.7876967" lon="14.0444549"><ele>740.6666666666666</ele><time>2026-04-28T15:21:47.856Z</time></trkpt><trkpt lat="37.787729" lon="14.0446388"><ele>740.3333333333333</ele><time>2026-04-28T15:21:48.856Z</time></trkpt><trkpt lat="37.7877278" lon="14.0448449"><ele>740.0</ele><time>2026-04-28T15:21:49.856Z</time></trkpt><trkpt lat="37.7876641" lon="14.0450477"><ele>738.6666666666666</ele><time>2026-04-28T15:21:50.856Z</time></trkpt><trkpt lat="37.7875741" lon="14.0452494"><ele>737.3333333333334</ele><time>2026-04-28T15:21:51.856Z</time></trkpt><trkpt lat="37.787446" lon="14.0454485"><ele>736.0</ele><time>2026-04-28T15:21:52.856Z</time></trkpt><trkpt lat="37.7873056" lon="14.0456623"><ele>740.0</ele><time>2026-04-28T15:21:53.856Z</time></trkpt><trkpt lat="37.7871631" lon="14.04589"><ele>744.0</ele><time>2026-04-28T15:21:54.856Z</time></trkpt><trkpt lat="37.7870224" lon="14.0461205"><ele>744.0</ele><time>2026-04-28T15:21:55.856Z</time></trkpt><trkpt lat="37.7868875" lon="14.0463388"><ele>744.0</ele><time>2026-04-28T15:21:56.856Z</time></trkpt><trkpt lat="37.7867653" lon="14.0465414"><ele>744.0</ele><time>2026-04-28T15:21:57.857Z</time></trkpt><trkpt lat="37.786651" lon="14.0467305"><ele>743.0</ele><time>2026-04-28T15:21:58.856Z</time></trkpt><trkpt lat="37.786557" lon="14.0469095"><ele>742.0</ele><time>2026-04-28T15:21:59.856Z</time></trkpt><trkpt lat="37.7864985" lon="14.0470882"><ele>741.0</ele><time>2026-04-28T15:22:00.856Z</time></trkpt><trkpt lat="37.7864791" lon="14.0472691"><ele>741.6666666666666</ele><time>2026-04-28T15:22:01.856Z</time></trkpt><trkpt lat="37.7865054" lon="14.0474632"><ele>742.3333333333333</ele><time>2026-04-28T15:22:02.856Z</time></trkpt><trkpt lat="37.7865651" lon="14.0476586"><ele>743.0</ele><time>2026-04-28T15:22:03.856Z</time></trkpt><trkpt lat="37.7866436" lon="14.0478427"><ele>743.0</ele><time>2026-04-28T15:22:04.856Z</time></trkpt><trkpt lat="37.786715" lon="14.0480251"><ele>743.0</ele><time>2026-04-28T15:22:05.856Z</time></trkpt><trkpt lat="37.7867507" lon="14.0482224"><ele>743.0</ele><time>2026-04-28T15:22:06.856Z</time></trkpt><trkpt lat="37.7867274" lon="14.0484291"><ele>743.6666666666666</ele><time>2026-04-28T15:22:07.856Z</time></trkpt><trkpt lat="37.78664" lon="14.0486067"><ele>744.3333333333334</ele><time>2026-04-28T15:22:08.856Z</time></trkpt><trkpt lat="37.7865095" lon="14.0487511"><ele>745.0</ele><time>2026-04-28T15:22:09.856Z</time></trkpt><trkpt lat="37.7863595" lon="14.0488957"><ele>745.0</ele><time>2026-04-28T15:22:10.856Z</time></trkpt><trkpt lat="37.7862118" lon="14.0490516"><ele>745.0</ele><time>2026-04-28T15:22:11.856Z</time></trkpt><trkpt lat="37.7860698" lon="14.0492115"><ele>745.0</ele><time>2026-04-28T15:22:12.856Z</time></trkpt><trkpt lat="37.7859206" lon="14.0493763"><ele>744.6666666666667</ele><time>2026-04-28T15:22:13.856Z</time></trkpt><trkpt lat="37.7857693" lon="14.0495447"><ele>744.3333333333334</ele><time>2026-04-28T15:22:14.856Z</time></trkpt><trkpt lat="37.785619" lon="14.0497107"><ele>744.0</ele><time>2026-04-28T15:22:15.856Z</time></trkpt><trkpt lat="37.7854741" lon="14.0498764"><ele>742.6666666666666</ele><time>2026-04-28T15:22:16.856Z</time></trkpt><trkpt lat="37.785335" lon="14.050051"><ele>741.3333333333333</ele><time>2026-04-28T15:22:17.856Z</time></trkpt><trkpt lat="37.785204" lon="14.0502434"><ele>740.0</ele><time>2026-04-28T15:22:18.856Z</time></trkpt><trkpt lat="37.7850825" lon="14.0504557"><ele>740.0</ele><time>2026-04-28T15:22:19.856Z</time></trkpt><trkpt lat="37.7849751" lon="14.0506869"><ele>740.0</ele><time>2026-04-28T15:22:20.856Z</time></trkpt><trkpt lat="37.7848841" lon="14.0509303"><ele>740.0</ele><time>2026-04-28T15:22:21.856Z</time></trkpt><trkpt lat="37.7848159" lon="14.0511869"><ele>746.0</ele><time>2026-04-28T15:22:22.856Z</time></trkpt><trkpt lat="37.7847728" lon="14.0514626"><ele>752.0</ele><time>2026-04-28T15:22:23.856Z</time></trkpt><trkpt lat="37.7847497" lon="14.0517712"><ele>754.5</ele><time>2026-04-28T15:22:24.856Z</time></trkpt><trkpt lat="37.7847345" lon="14.0520969"><ele>757.0</ele><time>2026-04-28T15:22:25.856Z</time></trkpt><trkpt lat="37.7847251" lon="14.0524217"><ele>758.5</ele><time>2026-04-28T15:22:26.856Z</time></trkpt><trkpt lat="37.7847154" lon="14.0527502"><ele>760.0</ele><time>2026-04-28T15:22:27.856Z</time></trkpt><trkpt lat="37.7847035" lon="14.053063"><ele>761.0</ele><time>2026-04-28T15:22:28.856Z</time></trkpt><trkpt lat="37.7846937" lon="14.0533563"><ele>762.0</ele><time>2026-04-28T15:22:29.856Z</time></trkpt><trkpt lat="37.7846936" lon="14.0536297"><ele>763.0</ele><time>2026-04-28T15:22:30.856Z</time></trkpt><trkpt lat="37.7847157" lon="14.0539084"><ele>762.0</ele><time>2026-04-28T15:22:31.856Z</time></trkpt><trkpt lat="37.7847669" lon="14.0541982"><ele>761.0</ele><time>2026-04-28T15:22:32.856Z</time></trkpt><trkpt lat="37.7848409" lon="14.0545011"><ele>761.0</ele><time>2026-04-28T15:22:33.856Z</time></trkpt><trkpt lat="37.7849269" lon="14.0548145"><ele>761.0</ele><time>2026-04-28T15:22:34.856Z</time></trkpt><trkpt lat="37.7850089" lon="14.0551352"><ele>759.5</ele><time>2026-04-28T15:22:35.856Z</time></trkpt><trkpt lat="37.7850964" lon="14.0554698"><ele>758.0</ele><time>2026-04-28T15:22:36.856Z</time></trkpt><trkpt lat="37.7851831" lon="14.0558196"><ele>763.0</ele><time>2026-04-28T15:22:37.856Z</time></trkpt><trkpt lat="37.7852729" lon="14.0561831"><ele>768.0</ele><time>2026-04-28T15:22:38.856Z</time></trkpt><trkpt lat="37.7853647" lon="14.0565446"><ele>767.0</ele><time>2026-04-28T15:22:39.856Z</time></trkpt><trkpt lat="37.7854493" lon="14.0569031"><ele>766.0</ele><time>2026-04-28T15:22:40.857Z</time></trkpt><trkpt lat="37.7855355" lon="14.0572528"><ele>764.5</ele><time>2026-04-28T15:22:41.856Z</time></trkpt><trkpt lat="37.7856204" lon="14.057592"><ele>763.0</ele><time>2026-04-28T15:22:42.856Z</time></trkpt><trkpt lat="37.7857043" lon="14.0579264"><ele>763.0</ele><time>2026-04-28T15:22:43.856Z</time></trkpt><trkpt lat="37.7857764" lon="14.0582417"><ele>763.0</ele><time>2026-04-28T15:22:44.856Z</time></trkpt><trkpt lat="37.7858466" lon="14.0585364"><ele>763.0</ele><time>2026-04-28T15:22:45.856Z</time></trkpt><trkpt lat="37.7859106" lon="14.0588123"><ele>763.0</ele><time>2026-04-28T15:22:46.856Z</time></trkpt><trkpt lat="37.7859571" lon="14.0590706"><ele>763.0</ele><time>2026-04-28T15:22:47.857Z</time></trkpt><trkpt lat="37.7859779" lon="14.0593104"><ele>763.0</ele><time>2026-04-28T15:22:48.856Z</time></trkpt><trkpt lat="37.7859655" lon="14.0595316"><ele>763.0</ele><time>2026-04-28T15:22:49.856Z</time></trkpt><trkpt lat="37.7859126" lon="14.0597309"><ele>763.0</ele><time>2026-04-28T15:22:50.856Z</time></trkpt><trkpt lat="37.7858355" lon="14.0599076"><ele>764.6666666666667</ele><time>2026-04-28T15:22:51.856Z</time></trkpt><trkpt lat="37.7857374" lon="14.0600906"><ele>766.3333333333334</ele><time>2026-04-28T15:22:52.856Z</time></trkpt><trkpt lat="37.7856525" lon="14.0602757"><ele>768.0</ele><time>2026-04-28T15:22:53.856Z</time></trkpt><trkpt lat="37.7855851" lon="14.0604567"><ele>768.0</ele><time>2026-04-28T15:22:54.856Z</time></trkpt><trkpt lat="37.785548" lon="14.0606617"><ele>768.0</ele><time>2026-04-28T15:22:55.856Z</time></trkpt><trkpt lat="37.7855618" lon="14.0608771"><ele>768.0</ele><time>2026-04-28T15:22:56.856Z</time></trkpt><trkpt lat="37.7856108" lon="14.0610848"><ele>769.6666666666667</ele><time>2026-04-28T15:22:57.856Z</time></trkpt><trkpt lat="37.7857086" lon="14.0612667"><ele>771.3333333333334</ele><time>2026-04-28T15:22:58.856Z</time></trkpt><trkpt lat="37.7858461" lon="14.0614146"><ele>773.0</ele><time>2026-04-28T15:22:59.856Z</time></trkpt><trkpt lat="37.7860145" lon="14.0615166"><ele>774.6666666666667</ele><time>2026-04-28T15:23:00.856Z</time></trkpt><trkpt lat="37.7861817" lon="14.0615419"><ele>776.3333333333333</ele><time>2026-04-28T15:23:01.856Z</time></trkpt><trkpt lat="37.7863446" lon="14.061512"><ele>778.0</ele><time>2026-04-28T15:23:02.857Z</time></trkpt><trkpt lat="37.7865146" lon="14.0614392"><ele>778.0</ele><time>2026-04-28T15:23:03.856Z</time></trkpt><trkpt lat="37.786684" lon="14.0613327"><ele>778.0</ele><time>2026-04-28T15:23:04.856Z</time></trkpt><trkpt lat="37.7868609" lon="14.0612249"><ele>778.0</ele><time>2026-04-28T15:23:05.856Z</time></trkpt><trkpt lat="37.7870346" lon="14.0611376"><ele>779.0</ele><time>2026-04-28T15:23:06.856Z</time></trkpt><trkpt lat="37.7872123" lon="14.0610695"><ele>780.0</ele><time>2026-04-28T15:23:07.856Z</time></trkpt><trkpt lat="37.78739" lon="14.0610538"><ele>781.0</ele><time>2026-04-28T15:23:08.857Z</time></trkpt><trkpt lat="37.7875491" lon="14.0611151"><ele>782.0</ele><time>2026-04-28T15:23:09.856Z</time></trkpt><trkpt lat="37.7876881" lon="14.0612292"><ele>783.0</ele><time>2026-04-28T15:23:10.856Z</time></trkpt><trkpt lat="37.7877998" lon="14.0613946"><ele>784.0</ele><time>2026-04-28T15:23:11.856Z</time></trkpt><trkpt lat="37.7878736" lon="14.0616183"><ele>784.0</ele><time>2026-04-28T15:23:12.856Z</time></trkpt><trkpt lat="37.7879318" lon="14.0618691"><ele>784.0</ele><time>2026-04-28T15:23:13.856Z</time></trkpt><trkpt lat="37.7879874" lon="14.0621222"><ele>784.0</ele><time>2026-04-28T15:23:14.856Z</time></trkpt><trkpt lat="37.7880437" lon="14.0623659"><ele>782.6666666666666</ele><time>2026-04-28T15:23:15.856Z</time></trkpt><trkpt lat="37.7881195" lon="14.0625823"><ele>781.3333333333333</ele><time>2026-04-28T15:23:16.856Z</time></trkpt><trkpt lat="37.7882243" lon="14.0627845"><ele>780.0</ele><time>2026-04-28T15:23:17.856Z</time></trkpt><trkpt lat="37.7883697" lon="14.0629589"><ele>780.3333333333333</ele><time>2026-04-28T15:23:18.856Z</time></trkpt><trkpt lat="37.7885372" lon="14.0631011"><ele>780.6666666666666</ele><time>2026-04-28T15:23:19.856Z</time></trkpt><trkpt lat="37.7887073" lon="14.0632284"><ele>781.0</ele><time>2026-04-28T15:23:20.856Z</time></trkpt><trkpt lat="37.788876" lon="14.0633396"><ele>781.0</ele><time>2026-04-28T15:23:21.856Z</time></trkpt><trkpt lat="37.7890492" lon="14.0634295"><ele>781.0</ele><time>2026-04-28T15:23:22.856Z</time></trkpt><trkpt lat="37.7892336" lon="14.063472"><ele>781.0</ele><time>2026-04-28T15:23:23.856Z</time></trkpt><trkpt lat="37.7894294" lon="14.0634675"><ele>781.0</ele><time>2026-04-28T15:23:24.856Z</time></trkpt><trkpt lat="37.7896354" lon="14.0634137"><ele>781.0</ele><time>2026-04-28T15:23:25.856Z</time></trkpt><trkpt lat="37.7898471" lon="14.0633453"><ele>781.0</ele><time>2026-04-28T15:23:26.856Z</time></trkpt><trkpt lat="37.7900619" lon="14.0632754"><ele>789.0</ele><time>2026-04-28T15:23:27.856Z</time></trkpt><trkpt lat="37.7902722" lon="14.0632056"><ele>797.0</ele><time>2026-04-28T15:23:28.856Z</time></trkpt><trkpt lat="37.7904862" lon="14.0631327"><ele>805.0</ele><time>2026-04-28T15:23:29.856Z</time></trkpt><trkpt lat="37.790698" lon="14.0630639"><ele>805.0</ele><time>2026-04-28T15:23:30.856Z</time></trkpt><trkpt lat="37.7908977" lon="14.0630043"><ele>805.0</ele><time>2026-04-28T15:23:31.856Z</time></trkpt><trkpt lat="37.791084" lon="14.0629505"><ele>805.0</ele><time>2026-04-28T15:23:32.856Z</time></trkpt><trkpt lat="37.7912591" lon="14.062906"><ele>804.0</ele><time>2026-04-28T15:23:33.856Z</time></trkpt><trkpt lat="37.7914192" lon="14.0628774"><ele>803.0</ele><time>2026-04-28T15:23:34.856Z</time></trkpt><trkpt lat="37.7915663" lon="14.0628503"><ele>802.0</ele><time>2026-04-28T15:23:35.856Z</time></trkpt><trkpt lat="37.7917048" lon="14.0628479"><ele>801.0</ele><time>2026-04-28T15:23:36.856Z</time></trkpt><trkpt lat="37.7918401" lon="14.0628913"><ele>801.0</ele><time>2026-04-28T15:23:37.856Z</time></trkpt><trkpt lat="37.7919615" lon="14.0629885"><ele>801.0</ele><time>2026-04-28T15:23:38.856Z</time></trkpt><trkpt lat="37.7920486" lon="14.0631406"><ele>801.0</ele><time>2026-04-28T15:23:39.856Z</time></trkpt><trkpt lat="37.7921014" lon="14.0633359"><ele>801.0</ele><time>2026-04-28T15:23:40.856Z</time></trkpt><trkpt lat="37.7921308" lon="14.063573"><ele>801.0</ele><time>2026-04-28T15:23:41.856Z</time></trkpt><trkpt lat="37.7921477" lon="14.0638207"><ele>801.0</ele><time>2026-04-28T15:23:42.856Z</time></trkpt><trkpt lat="37.79212" lon="14.0640684"><ele>802.3333333333333</ele><time>2026-04-28T15:23:43.856Z</time></trkpt><trkpt lat="37.7920493" lon="14.0643139"><ele>803.6666666666666</ele><time>2026-04-28T15:23:44.856Z</time></trkpt><trkpt lat="37.7919528" lon="14.0645396"><ele>805.0</ele><time>2026-04-28T15:23:45.856Z</time></trkpt><trkpt lat="37.7918547" lon="14.0647407"><ele>802.0</ele><time>2026-04-28T15:23:46.856Z</time></trkpt><trkpt lat="37.7917507" lon="14.0649032"><ele>799.0</ele><time>2026-04-28T15:23:47.856Z</time></trkpt><trkpt lat="37.7916265" lon="14.0650071"><ele>796.0</ele><time>2026-04-28T15:23:48.856Z</time></trkpt><trkpt lat="37.7914931" lon="14.0650581"><ele>796.0</ele><time>2026-04-28T15:23:49.856Z</time></trkpt><trkpt lat="37.7913523" lon="14.0651126"><ele>796.0</ele><time>2026-04-28T15:23:50.856Z</time></trkpt><trkpt lat="37.7912088" lon="14.0652003"><ele>796.0</ele><time>2026-04-28T15:23:51.856Z</time></trkpt><trkpt lat="37.7910699" lon="14.0653177"><ele>796.0</ele><time>2026-04-28T15:23:52.856Z</time></trkpt><trkpt lat="37.7909399" lon="14.0654576"><ele>796.0</ele><time>2026-04-28T15:23:53.856Z</time></trkpt><trkpt lat="37.7908331" lon="14.0656204"><ele>796.0</ele><time>2026-04-28T15:23:54.856Z</time></trkpt><trkpt lat="37.7907678" lon="14.0658052"><ele>796.0</ele><time>2026-04-28T15:23:55.857Z</time></trkpt><trkpt lat="37.790748" lon="14.066015"><ele>796.0</ele><time>2026-04-28T15:23:56.856Z</time></trkpt><trkpt lat="37.7907703" lon="14.0662303"><ele>796.0</ele><time>2026-04-28T15:23:57.856Z</time></trkpt><trkpt lat="37.7908257" lon="14.0664551"><ele>796.3333333333333</ele><time>2026-04-28T15:23:58.856Z</time></trkpt><trkpt lat="37.7908876" lon="14.0666947"><ele>796.6666666666667</ele><time>2026-04-28T15:23:59.856Z</time></trkpt><trkpt lat="37.7909589" lon="14.0669462"><ele>797.0</ele><time>2026-04-28T15:24:00.856Z</time></trkpt><trkpt lat="37.7910317" lon="14.0671996"><ele>803.6666666666667</ele><time>2026-04-28T15:24:01.856Z</time></trkpt><trkpt lat="37.7910987" lon="14.0674538"><ele>810.3333333333333</ele><time>2026-04-28T15:24:02.856Z</time></trkpt><trkpt lat="37.791148" lon="14.0676972"><ele>817.0</ele><time>2026-04-28T15:24:03.856Z</time></trkpt><trkpt lat="37.7911539" lon="14.067936"><ele>817.0</ele><time>2026-04-28T15:24:04.856Z</time></trkpt><trkpt lat="37.7910936" lon="14.068155"><ele>817.0</ele><time>2026-04-28T15:24:05.856Z</time></trkpt><trkpt lat="37.7910078" lon="14.0683541"><ele>817.0</ele><time>2026-04-28T15:24:06.856Z</time></trkpt><trkpt lat="37.7908828" lon="14.0685479"><ele>816.3333333333333</ele><time>2026-04-28T15:24:07.856Z</time></trkpt><trkpt lat="37.7907629" lon="14.0687264"><ele>815.6666666666667</ele><time>2026-04-28T15:24:08.856Z</time></trkpt><trkpt lat="37.7906605" lon="14.0689132"><ele>815.0</ele><time>2026-04-28T15:24:09.856Z</time></trkpt><trkpt lat="37.7905949" lon="14.0691219"><ele>815.0</ele><time>2026-04-28T15:24:10.856Z</time></trkpt><trkpt lat="37.7905916" lon="14.0693468"><ele>815.0</ele><time>2026-04-28T15:24:11.856Z</time></trkpt><trkpt lat="37.7906442" lon="14.0695755"><ele>815.0</ele><time>2026-04-28T15:24:12.856Z</time></trkpt><trkpt lat="37.7907129" lon="14.0698114"><ele>815.0</ele><time>2026-04-28T15:24:13.856Z</time></trkpt><trkpt lat="37.790793" lon="14.0700539"><ele>815.0</ele><time>2026-04-28T15:24:14.856Z</time></trkpt><trkpt lat="37.790878" lon="14.0703106"><ele>815.0</ele><time>2026-04-28T15:24:15.856Z</time></trkpt><trkpt lat="37.7909628" lon="14.0705766"><ele>819.5</ele><time>2026-04-28T15:24:16.856Z</time></trkpt><trkpt lat="37.791017" lon="14.0708647"><ele>824.0</ele><time>2026-04-28T15:24:17.856Z</time></trkpt><trkpt lat="37.7910351" lon="14.0711644"><ele>824.0</ele><time>2026-04-28T15:24:18.856Z</time></trkpt><trkpt lat="37.7910105" lon="14.071446"><ele>824.0</ele><time>2026-04-28T15:24:19.856Z</time></trkpt><trkpt lat="37.7909412" lon="14.0717136"><ele>824.0</ele><time>2026-04-28T15:24:20.856Z</time></trkpt><trkpt lat="37.7908395" lon="14.0719571"><ele>825.0</ele><time>2026-04-28T15:24:21.856Z</time></trkpt><trkpt lat="37.7907136" lon="14.0721693"><ele>826.0</ele><time>2026-04-28T15:24:22.856Z</time></trkpt><trkpt lat="37.7905931" lon="14.0723647"><ele>827.0</ele><time>2026-04-28T15:24:23.856Z</time></trkpt><trkpt lat="37.7904828" lon="14.0725403"><ele>827.0</ele><time>2026-04-28T15:24:24.857Z</time></trkpt><trkpt lat="37.7903792" lon="14.0727033"><ele>827.0</ele><time>2026-04-28T15:24:25.856Z</time></trkpt><trkpt lat="37.7902811" lon="14.0728553"><ele>827.0</ele><time>2026-04-28T15:24:26.856Z</time></trkpt><trkpt lat="37.7901739" lon="14.072998"><ele>828.3333333333334</ele><time>2026-04-28T15:24:27.856Z</time></trkpt><trkpt lat="37.7900467" lon="14.0731289"><ele>829.6666666666667</ele><time>2026-04-28T15:24:28.856Z</time></trkpt><trkpt lat="37.7899085" lon="14.0732554"><ele>831.0</ele><time>2026-04-28T15:24:29.856Z</time></trkpt><trkpt lat="37.7897625" lon="14.0733643"><ele>831.0</ele><time>2026-04-28T15:24:30.856Z</time></trkpt><trkpt lat="37.7896082" lon="14.0734524"><ele>831.0</ele><time>2026-04-28T15:24:31.856Z</time></trkpt><trkpt lat="37.7894468" lon="14.0735327"><ele>831.0</ele><time>2026-04-28T15:24:32.857Z</time></trkpt><trkpt lat="37.7892799" lon="14.0735938"><ele>830.0</ele><time>2026-04-28T15:24:33.856Z</time></trkpt><trkpt lat="37.7891233" lon="14.0736447"><ele>829.0</ele><time>2026-04-28T15:24:34.856Z</time></trkpt><trkpt lat="37.7889902" lon="14.0737059"><ele>828.0</ele><time>2026-04-28T15:24:35.856Z</time></trkpt><trkpt lat="37.7888881" lon="14.0737816"><ele>827.0</ele><time>2026-04-28T15:24:36.856Z</time></trkpt><trkpt lat="37.788819" lon="14.0738848"><ele>827.0</ele><time>2026-04-28T15:24:37.856Z</time></trkpt><trkpt lat="37.7887919" lon="14.0739979"><ele>827.0</ele><time>2026-04-28T15:24:38.856Z</time></trkpt><trkpt lat="37.7888" lon="14.0741208"><ele>827.0</ele><time>2026-04-28T15:24:39.856Z</time></trkpt><trkpt lat="37.7888335" lon="14.074241"><ele>827.0</ele><time>2026-04-28T15:24:40.856Z</time></trkpt><trkpt lat="37.7888999" lon="14.0743451"><ele>827.0</ele><time>2026-04-28T15:24:41.856Z</time></trkpt><trkpt lat="37.7889845" lon="14.0744211"><ele>828.5</ele><time>2026-04-28T15:24:42.856Z</time></trkpt><trkpt lat="37.7890844" lon="14.0744831"><ele>830.0</ele><time>2026-04-28T15:24:43.856Z</time></trkpt><trkpt lat="37.7891938" lon="14.0745398"><ele>831.5</ele><time>2026-04-28T15:24:44.856Z</time></trkpt><trkpt lat="37.7893155" lon="14.0745945"><ele>833.0</ele><time>2026-04-28T15:24:45.856Z</time></trkpt><trkpt lat="37.7894501" lon="14.0746505"><ele>835.6666666666667</ele><time>2026-04-28T15:24:46.856Z</time></trkpt><trkpt lat="37.789579" lon="14.0747326"><ele>838.3333333333333</ele><time>2026-04-28T15:24:47.856Z</time></trkpt><trkpt lat="37.7896883" lon="14.0748709"><ele>841.0</ele><time>2026-04-28T15:24:48.856Z</time></trkpt><trkpt lat="37.789776" lon="14.0750512"><ele>841.0</ele><time>2026-04-28T15:24:49.856Z</time></trkpt><trkpt lat="37.7898433" lon="14.0752596"><ele>841.0</ele><time>2026-04-28T15:24:50.856Z</time></trkpt><trkpt lat="37.7899068" lon="14.0754626"><ele>841.0</ele><time>2026-04-28T15:24:51.856Z</time></trkpt><trkpt lat="37.7899759" lon="14.0756428"><ele>838.6666666666666</ele><time>2026-04-28T15:24:52.856Z</time></trkpt><trkpt lat="37.7900678" lon="14.0758037"><ele>836.3333333333333</ele><time>2026-04-28T15:24:53.856Z</time></trkpt><trkpt lat="37.7901738" lon="14.0759446"><ele>834.0</ele><time>2026-04-28T15:24:54.856Z</time></trkpt><trkpt lat="37.7902901" lon="14.0760476"><ele>838.0</ele><time>2026-04-28T15:24:55.856Z</time></trkpt><trkpt lat="37.7904111" lon="14.0761289"><ele>842.0</ele><time>2026-04-28T15:24:56.856Z</time></trkpt><trkpt lat="37.7905346" lon="14.0761976"><ele>846.0</ele><time>2026-04-28T15:24:57.856Z</time></trkpt><trkpt lat="37.7906327" lon="14.0762855"><ele>850.0</ele><time>2026-04-28T15:24:58.856Z</time></trkpt><trkpt lat="37.7907041" lon="14.0764018"><ele>850.0</ele><time>2026-04-28T15:24:59.856Z</time></trkpt><trkpt lat="37.790759" lon="14.0765252"><ele>850.0</ele><time>2026-04-28T15:25:00.856Z</time></trkpt><trkpt lat="37.7907962" lon="14.0766643"><ele>850.0</ele><time>2026-04-28T15:25:01.856Z</time></trkpt><trkpt lat="37.7908314" lon="14.0768063"><ele>850.0</ele><time>2026-04-28T15:25:02.856Z</time></trkpt><trkpt lat="37.7908738" lon="14.0769434"><ele>850.5</ele><time>2026-04-28T15:25:03.856Z</time></trkpt><trkpt lat="37.7909391" lon="14.077069"><ele>851.0</ele><time>2026-04-28T15:25:04.856Z</time></trkpt><trkpt lat="37.7910245" lon="14.0771814"><ele>851.5</ele><time>2026-04-28T15:25:05.856Z</time></trkpt><trkpt lat="37.7911309" lon="14.0772809"><ele>852.0</ele><time>2026-04-28T15:25:06.856Z</time></trkpt><trkpt lat="37.7912579" lon="14.0773611"><ele>852.0</ele><time>2026-04-28T15:25:07.857Z</time></trkpt><trkpt lat="37.7914117" lon="14.077401"><ele>852.0</ele><time>2026-04-28T15:25:08.856Z</time></trkpt><trkpt lat="37.7915793" lon="14.0774109"><ele>852.0</ele><time>2026-04-28T15:25:09.856Z</time></trkpt><trkpt lat="37.7917527" lon="14.0774235"><ele>851.6666666666667</ele><time>2026-04-28T15:25:10.856Z</time></trkpt><trkpt lat="37.791928" lon="14.0774621"><ele>851.3333333333334</ele><time>2026-04-28T15:25:11.856Z</time></trkpt><trkpt lat="37.7921048" lon="14.0775595"><ele>851.0</ele><time>2026-04-28T15:25:12.856Z</time></trkpt><trkpt lat="37.7922867" lon="14.0776974"><ele>851.0</ele><time>2026-04-28T15:25:13.856Z</time></trkpt><trkpt lat="37.7924368" lon="14.0778655"><ele>851.0</ele><time>2026-04-28T15:25:14.856Z</time></trkpt><trkpt lat="37.7925582" lon="14.0780502"><ele>851.0</ele><time>2026-04-28T15:25:15.856Z</time></trkpt><trkpt lat="37.7926558" lon="14.0782293"><ele>851.3333333333334</ele><time>2026-04-28T15:25:16.856Z</time></trkpt><trkpt lat="37.7927476" lon="14.0784042"><ele>851.6666666666667</ele><time>2026-04-28T15:25:17.856Z</time></trkpt><trkpt lat="37.7928506" lon="14.0785512"><ele>852.0</ele><time>2026-04-28T15:25:18.856Z</time></trkpt><trkpt lat="37.7929729" lon="14.0786672"><ele>852.0</ele><time>2026-04-28T15:25:19.856Z</time></trkpt><trkpt lat="37.7931136" lon="14.0787487"><ele>852.0</ele><time>2026-04-28T15:25:20.857Z</time></trkpt><trkpt lat="37.7932792" lon="14.0787941"><ele>852.0</ele><time>2026-04-28T15:25:21.856Z</time></trkpt><trkpt lat="37.793473" lon="14.0788299"><ele>853.6666666666667</ele><time>2026-04-28T15:25:22.856Z</time></trkpt><trkpt lat="37.7936813" lon="14.0788606"><ele>855.3333333333334</ele><time>2026-04-28T15:25:23.856Z</time></trkpt><trkpt lat="37.7938921" lon="14.0789041"><ele>857.0</ele><time>2026-04-28T15:25:24.856Z</time></trkpt><trkpt lat="37.7941035" lon="14.0789569"><ele>857.0</ele><time>2026-04-28T15:25:25.856Z</time></trkpt><trkpt lat="37.7943041" lon="14.079016"><ele>857.0</ele><time>2026-04-28T15:25:26.857Z</time></trkpt><trkpt lat="37.7944914" lon="14.0790823"><ele>857.0</ele><time>2026-04-28T15:25:27.856Z</time></trkpt><trkpt lat="37.7946649" lon="14.0791555"><ele>852.3333333333334</ele><time>2026-04-28T15:25:28.856Z</time></trkpt><trkpt lat="37.7948326" lon="14.079217"><ele>847.6666666666667</ele><time>2026-04-28T15:25:29.856Z</time></trkpt><trkpt lat="37.7950014" lon="14.0792719"><ele>843.0</ele><time>2026-04-28T15:25:30.856Z</time></trkpt><trkpt lat="37.7951695" lon="14.0793101"><ele>841.6666666666667</ele><time>2026-04-28T15:25:31.856Z</time></trkpt><trkpt lat="37.7953391" lon="14.0793266"><ele>840.3333333333334</ele><time>2026-04-28T15:25:32.856Z</time></trkpt><trkpt lat="37.7955115" lon="14.07931"><ele>839.0</ele><time>2026-04-28T15:25:33.855Z</time></trkpt><trkpt lat="37.7956874" lon="14.0792802"><ele>839.0</ele><time>2026-04-28T15:25:34.855Z</time></trkpt><trkpt lat="37.7958649" lon="14.0792495"><ele>839.0</ele><time>2026-04-28T15:25:35.855Z</time></trkpt><trkpt lat="37.7960394" lon="14.0792297"><ele>839.0</ele><time>2026-04-28T15:25:36.855Z</time></trkpt><trkpt lat="37.7962161" lon="14.0792313"><ele>840.0</ele><time>2026-04-28T15:25:37.855Z</time></trkpt><trkpt lat="37.7963905" lon="14.0792708"><ele>841.0</ele><time>2026-04-28T15:25:38.855Z</time></trkpt><trkpt lat="37.7965601" lon="14.0793522"><ele>842.0</ele><time>2026-04-28T15:25:39.855Z</time></trkpt><trkpt lat="37.7967277" lon="14.0794755"><ele>847.0</ele><time>2026-04-28T15:25:40.855Z</time></trkpt><trkpt lat="37.7968917" lon="14.0796081"><ele>852.0</ele><time>2026-04-28T15:25:41.855Z</time></trkpt><trkpt lat="37.7970498" lon="14.0797428"><ele>857.0</ele><time>2026-04-28T15:25:42.855Z</time></trkpt><trkpt lat="37.797197" lon="14.0798921"><ele>851.6666666666667</ele><time>2026-04-28T15:25:43.855Z</time></trkpt><trkpt lat="37.7973248" lon="14.0800721"><ele>846.3333333333333</ele><time>2026-04-28T15:25:44.855Z</time></trkpt><trkpt lat="37.7974521" lon="14.0802686"><ele>841.0</ele><time>2026-04-28T15:25:45.855Z</time></trkpt><trkpt lat="37.7975942" lon="14.0804662"><ele>842.0</ele><time>2026-04-28T15:25:46.855Z</time></trkpt><trkpt lat="37.797762" lon="14.0806582"><ele>843.0</ele><time>2026-04-28T15:25:47.855Z</time></trkpt><trkpt lat="37.7979481" lon="14.0808435"><ele>843.0</ele><time>2026-04-28T15:25:48.855Z</time></trkpt><trkpt lat="37.7981388" lon="14.0810324"><ele>843.0</ele><time>2026-04-28T15:25:49.855Z</time></trkpt><trkpt lat="37.7983341" lon="14.0812253"><ele>841.5</ele><time>2026-04-28T15:25:50.855Z</time></trkpt><trkpt lat="37.7985215" lon="14.0814178"><ele>840.0</ele><time>2026-04-28T15:25:51.855Z</time></trkpt><trkpt lat="37.7987078" lon="14.0816064"><ele>840.0</ele><time>2026-04-28T15:25:52.855Z</time></trkpt><trkpt lat="37.7988932" lon="14.0817832"><ele>840.0</ele><time>2026-04-28T15:25:53.855Z</time></trkpt><trkpt lat="37.7990838" lon="14.081936"><ele>840.0</ele><time>2026-04-28T15:25:54.855Z</time></trkpt><trkpt lat="37.7992875" lon="14.0820562"><ele>840.0</ele><time>2026-04-28T15:25:55.855Z</time></trkpt><trkpt lat="37.7994969" lon="14.0821522"><ele>840.0</ele><time>2026-04-28T15:25:56.855Z</time></trkpt><trkpt lat="37.7997159" lon="14.0822018"><ele>839.5</ele><time>2026-04-28T15:25:57.855Z</time></trkpt><trkpt lat="37.7999464" lon="14.0822152"><ele>839.0</ele><time>2026-04-28T15:25:58.856Z</time></trkpt><trkpt lat="37.8001836" lon="14.0821964"><ele>839.0</ele><time>2026-04-28T15:25:59.855Z</time></trkpt><trkpt lat="37.800412" lon="14.0821486"><ele>839.0</ele><time>2026-04-28T15:26:00.855Z</time></trkpt><trkpt lat="37.8006294" lon="14.0820982"><ele>839.0</ele><time>2026-04-28T15:26:01.855Z</time></trkpt><trkpt lat="37.8008389" lon="14.0820527"><ele>839.0</ele><time>2026-04-28T15:26:02.855Z</time></trkpt><trkpt lat="37.8010502" lon="14.0820335"><ele>839.0</ele><time>2026-04-28T15:26:03.855Z</time></trkpt><trkpt lat="37.8012637" lon="14.0820722"><ele>838.0</ele><time>2026-04-28T15:26:04.855Z</time></trkpt><trkpt lat="37.8014998" lon="14.0821414"><ele>837.0</ele><time>2026-04-28T15:26:05.855Z</time></trkpt><trkpt lat="37.8017296" lon="14.0822204"><ele>837.6666666666667</ele><time>2026-04-28T15:26:06.855Z</time></trkpt><trkpt lat="37.8019496" lon="14.0822954"><ele>838.3333333333334</ele><time>2026-04-28T15:26:07.855Z</time></trkpt><trkpt lat="37.8021589" lon="14.0823404"><ele>839.0</ele><time>2026-04-28T15:26:08.855Z</time></trkpt><trkpt lat="37.8023552" lon="14.082324"><ele>839.0</ele><time>2026-04-28T15:26:09.855Z</time></trkpt><trkpt lat="37.8025398" lon="14.0822768"><ele>839.0</ele><time>2026-04-28T15:26:10.855Z</time></trkpt><trkpt lat="37.8027229" lon="14.0822292"><ele>839.0</ele><time>2026-04-28T15:26:11.855Z</time></trkpt><trkpt lat="37.8029103" lon="14.0822079"><ele>839.3333333333334</ele><time>2026-04-28T15:26:12.855Z</time></trkpt><trkpt lat="37.8030974" lon="14.0822226"><ele>839.6666666666667</ele><time>2026-04-28T15:26:13.855Z</time></trkpt><trkpt lat="37.8032709" lon="14.082281"><ele>840.0</ele><time>2026-04-28T15:26:14.855Z</time></trkpt><trkpt lat="37.8034375" lon="14.0823754"><ele>834.0</ele><time>2026-04-28T15:26:15.855Z</time></trkpt><trkpt lat="37.8035885" lon="14.0825097"><ele>828.0</ele><time>2026-04-28T15:26:16.855Z</time></trkpt><trkpt lat="37.8037333" lon="14.0826545"><ele>822.0</ele><time>2026-04-28T15:26:17.855Z</time></trkpt><trkpt lat="37.8038771" lon="14.082794"><ele>822.0</ele><time>2026-04-28T15:26:18.855Z</time></trkpt><trkpt lat="37.8040391" lon="14.082909"><ele>822.0</ele><time>2026-04-28T15:26:19.855Z</time></trkpt><trkpt lat="37.8042199" lon="14.0830024"><ele>822.0</ele><time>2026-04-28T15:26:20.855Z</time></trkpt><trkpt lat="37.8044193" lon="14.0830673"><ele>823.3333333333333</ele><time>2026-04-28T15:26:21.855Z</time></trkpt><trkpt lat="37.804629" lon="14.0831087"><ele>824.6666666666666</ele><time>2026-04-28T15:26:22.855Z</time></trkpt><trkpt lat="37.8048436" lon="14.0831401"><ele>826.0</ele><time>2026-04-28T15:26:23.855Z</time></trkpt><trkpt lat="37.8050535" lon="14.0831655"><ele>827.3333333333333</ele><time>2026-04-28T15:26:24.855Z</time></trkpt><trkpt lat="37.8052574" lon="14.0831967"><ele>828.6666666666667</ele><time>2026-04-28T15:26:25.855Z</time></trkpt><trkpt lat="37.8054547" lon="14.0832217"><ele>830.0</ele><time>2026-04-28T15:26:26.855Z</time></trkpt><trkpt lat="37.8056461" lon="14.0832386"><ele>830.0</ele><time>2026-04-28T15:26:27.855Z</time></trkpt><trkpt lat="37.8058291" lon="14.0832314"><ele>830.0</ele><time>2026-04-28T15:26:28.855Z</time></trkpt><trkpt lat="37.8060028" lon="14.0832015"><ele>830.0</ele><time>2026-04-28T15:26:29.855Z</time></trkpt><trkpt lat="37.8061618" lon="14.0831522"><ele>830.0</ele><time>2026-04-28T15:26:30.855Z</time></trkpt><trkpt lat="37.8063233" lon="14.0831111"><ele>830.0</ele><time>2026-04-28T15:26:31.855Z</time></trkpt><trkpt lat="37.8064872" lon="14.0830835"><ele>830.0</ele><time>2026-04-28T15:26:32.855Z</time></trkpt><trkpt lat="37.8066592" lon="14.0830834"><ele>830.0</ele><time>2026-04-28T15:26:33.855Z</time></trkpt><trkpt lat="37.8068235" lon="14.0831005"><ele>830.0</ele><time>2026-04-28T15:26:34.855Z</time></trkpt><trkpt lat="37.806977" lon="14.0831514"><ele>830.0</ele><time>2026-04-28T15:26:35.855Z</time></trkpt><trkpt lat="37.8071057" lon="14.0832197"><ele>825.25</ele><time>2026-04-28T15:26:36.855Z</time></trkpt><trkpt lat="37.8072042" lon="14.0833315"><ele>820.5</ele><time>2026-04-28T15:26:37.855Z</time></trkpt><trkpt lat="37.8072779" lon="14.0834813"><ele>815.75</ele><time>2026-04-28T15:26:38.855Z</time></trkpt><trkpt lat="37.807317" lon="14.0836669"><ele>811.0</ele><time>2026-04-28T15:26:39.855Z</time></trkpt><trkpt lat="37.8073209" lon="14.0838715"><ele>811.0</ele><time>2026-04-28T15:26:40.855Z</time></trkpt><trkpt lat="37.8073143" lon="14.0840779"><ele>811.0</ele><time>2026-04-28T15:26:41.855Z</time></trkpt><trkpt lat="37.8072953" lon="14.0842799"><ele>811.0</ele><time>2026-04-28T15:26:42.855Z</time></trkpt><trkpt lat="37.8072459" lon="14.0844515"><ele>809.25</ele><time>2026-04-28T15:26:43.855Z</time></trkpt><trkpt lat="37.8071754" lon="14.0845966"><ele>807.5</ele><time>2026-04-28T15:26:44.855Z</time></trkpt><trkpt lat="37.8070796" lon="14.0847163"><ele>805.75</ele><time>2026-04-28T15:26:45.855Z</time></trkpt><trkpt lat="37.8069499" lon="14.0848068"><ele>804.0</ele><time>2026-04-28T15:26:46.855Z</time></trkpt><trkpt lat="37.8067915" lon="14.0848845"><ele>807.0</ele><time>2026-04-28T15:26:47.855Z</time></trkpt><trkpt lat="37.8066175" lon="14.0849633"><ele>810.0</ele><time>2026-04-28T15:26:48.855Z</time></trkpt><trkpt lat="37.8064248" lon="14.0850593"><ele>813.0</ele><time>2026-04-28T15:26:49.855Z</time></trkpt><trkpt lat="37.8062228" lon="14.0851572"><ele>813.0</ele><time>2026-04-28T15:26:50.855Z</time></trkpt><trkpt lat="37.8060197" lon="14.0852565"><ele>813.0</ele><time>2026-04-28T15:26:51.855Z</time></trkpt><trkpt lat="37.8058264" lon="14.0853531"><ele>813.0</ele><time>2026-04-28T15:26:52.855Z</time></trkpt><trkpt lat="37.8056419" lon="14.0854443"><ele>813.3333333333333</ele><time>2026-04-28T15:26:53.855Z</time></trkpt><trkpt lat="37.8054652" lon="14.0855485"><ele>813.6666666666666</ele><time>2026-04-28T15:26:54.855Z</time></trkpt><trkpt lat="37.8052994" lon="14.0856657"><ele>814.0</ele><time>2026-04-28T15:26:55.855Z</time></trkpt><trkpt lat="37.8051477" lon="14.0857945"><ele>814.0</ele><time>2026-04-28T15:26:56.855Z</time></trkpt><trkpt lat="37.8050236" lon="14.0859385"><ele>814.0</ele><time>2026-04-28T15:26:57.855Z</time></trkpt><trkpt lat="37.8049335" lon="14.0861113"><ele>814.0</ele><time>2026-04-28T15:26:58.855Z</time></trkpt><trkpt lat="37.804899" lon="14.0862739"><ele>814.0</ele><time>2026-04-28T15:26:59.855Z</time></trkpt><trkpt lat="37.8049392" lon="14.0864196"><ele>814.0</ele><time>2026-04-28T15:27:00.855Z</time></trkpt><trkpt lat="37.8050267" lon="14.0865353"><ele>814.0</ele><time>2026-04-28T15:27:01.855Z</time></trkpt><trkpt lat="37.8051484" lon="14.0866014"><ele>814.0</ele><time>2026-04-28T15:27:02.855Z</time></trkpt><trkpt lat="37.805292" lon="14.0866173"><ele>816.25</ele><time>2026-04-28T15:27:03.855Z</time></trkpt><trkpt lat="37.8054366" lon="14.086584"><ele>818.5</ele><time>2026-04-28T15:27:04.855Z</time></trkpt><trkpt lat="37.8055734" lon="14.0865307"><ele>820.75</ele><time>2026-04-28T15:27:05.855Z</time></trkpt><trkpt lat="37.8057012" lon="14.0864841"><ele>823.0</ele><time>2026-04-28T15:27:06.855Z</time></trkpt><trkpt lat="37.8058445" lon="14.0864521"><ele>823.6666666666666</ele><time>2026-04-28T15:27:07.855Z</time></trkpt><trkpt lat="37.8060104" lon="14.0864322"><ele>824.3333333333333</ele><time>2026-04-28T15:27:08.855Z</time></trkpt><trkpt lat="37.8061904" lon="14.0864403"><ele>825.0</ele><time>2026-04-28T15:27:09.855Z</time></trkpt><trkpt lat="37.8063885" lon="14.0864739"><ele>825.0</ele><time>2026-04-28T15:27:10.855Z</time></trkpt><trkpt lat="37.8065942" lon="14.0865126"><ele>825.0</ele><time>2026-04-28T15:27:11.855Z</time></trkpt><trkpt lat="37.8067963" lon="14.0865566"><ele>825.0</ele><time>2026-04-28T15:27:12.855Z</time></trkpt><trkpt lat="37.806985" lon="14.0866056"><ele>829.0</ele><time>2026-04-28T15:27:13.855Z</time></trkpt><trkpt lat="37.807148" lon="14.0866615"><ele>833.0</ele><time>2026-04-28T15:27:14.855Z</time></trkpt><trkpt lat="37.8072869" lon="14.0867431"><ele>837.0</ele><time>2026-04-28T15:27:15.855Z</time></trkpt><trkpt lat="37.8074134" lon="14.0868639"><ele>837.0</ele><time>2026-04-28T15:27:16.855Z</time></trkpt><trkpt lat="37.8075395" lon="14.0869804"><ele>837.0</ele><time>2026-04-28T15:27:17.855Z</time></trkpt><trkpt lat="37.8076677" lon="14.0870322"><ele>837.0</ele><time>2026-04-28T15:27:18.855Z</time></trkpt><trkpt lat="37.8077989" lon="14.0870101"><ele>837.0</ele><time>2026-04-28T15:27:19.855Z</time></trkpt><trkpt lat="37.8079366" lon="14.086942"><ele>839.6666666666667</ele><time>2026-04-28T15:27:20.855Z</time></trkpt><trkpt lat="37.8080838" lon="14.0868789"><ele>842.3333333333334</ele><time>2026-04-28T15:27:21.855Z</time></trkpt><trkpt lat="37.8082472" lon="14.0868374"><ele>845.0</ele><time>2026-04-28T15:27:22.855Z</time></trkpt><trkpt lat="37.808429" lon="14.0868232"><ele>845.0</ele><time>2026-04-28T15:27:23.855Z</time></trkpt><trkpt lat="37.8086141" lon="14.0868141"><ele>845.0</ele><time>2026-04-28T15:27:24.855Z</time></trkpt><trkpt lat="37.8087929" lon="14.0868374"><ele>845.0</ele><time>2026-04-28T15:27:25.855Z</time></trkpt><trkpt lat="37.8089512" lon="14.0869063"><ele>845.0</ele><time>2026-04-28T15:27:26.855Z</time></trkpt><trkpt lat="37.809083" lon="14.0870041"><ele>845.0</ele><time>2026-04-28T15:27:27.855Z</time></trkpt><trkpt lat="37.809211" lon="14.0871393"><ele>845.0</ele><time>2026-04-28T15:27:28.855Z</time></trkpt><trkpt lat="37.80933" lon="14.0873033"><ele>846.3333333333334</ele><time>2026-04-28T15:27:29.855Z</time></trkpt><trkpt lat="37.8094314" lon="14.087506"><ele>847.6666666666667</ele><time>2026-04-28T15:27:30.855Z</time></trkpt><trkpt lat="37.8095277" lon="14.0877316"><ele>849.0</ele><time>2026-04-28T15:27:31.855Z</time></trkpt><trkpt lat="37.8096096" lon="14.0879664"><ele>849.0</ele><time>2026-04-28T15:27:32.855Z</time></trkpt><trkpt lat="37.8096882" lon="14.0881984"><ele>849.0</ele><time>2026-04-28T15:27:33.855Z</time></trkpt><trkpt lat="37.8097782" lon="14.0884194"><ele>849.0</ele><time>2026-04-28T15:27:34.855Z</time></trkpt><trkpt lat="37.8098797" lon="14.0886243"><ele>854.0</ele><time>2026-04-28T15:27:35.855Z</time></trkpt><trkpt lat="37.8099834" lon="14.0888028"><ele>859.0</ele><time>2026-04-28T15:27:36.855Z</time></trkpt><trkpt lat="37.8101004" lon="14.0889276"><ele>864.0</ele><time>2026-04-28T15:27:37.855Z</time></trkpt><trkpt lat="37.810232" lon="14.0890113"><ele>864.0</ele><time>2026-04-28T15:27:38.855Z</time></trkpt><trkpt lat="37.8103804" lon="14.0890379"><ele>864.0</ele><time>2026-04-28T15:27:39.855Z</time></trkpt><trkpt lat="37.8105363" lon="14.0890191"><ele>864.0</ele><time>2026-04-28T15:27:40.855Z</time></trkpt><trkpt lat="37.8107117" lon="14.0889716"><ele>864.0</ele><time>2026-04-28T15:27:41.855Z</time></trkpt><trkpt lat="37.8109002" lon="14.0889038"><ele>864.0</ele><time>2026-04-28T15:27:42.856Z</time></trkpt><trkpt lat="37.8110963" lon="14.0888489"><ele>864.0</ele><time>2026-04-28T15:27:43.855Z</time></trkpt><trkpt lat="37.8112783" lon="14.0888064"><ele>864.25</ele><time>2026-04-28T15:27:44.855Z</time></trkpt><trkpt lat="37.8114425" lon="14.0887761"><ele>864.5</ele><time>2026-04-28T15:27:45.855Z</time></trkpt><trkpt lat="37.8115743" lon="14.0887777"><ele>864.75</ele><time>2026-04-28T15:27:46.855Z</time></trkpt><trkpt lat="37.8116733" lon="14.0888195"><ele>865.0</ele><time>2026-04-28T15:27:47.855Z</time></trkpt><trkpt lat="37.8117433" lon="14.0889094"><ele>865.0</ele><time>2026-04-28T15:27:48.855Z</time></trkpt><trkpt lat="37.8117835" lon="14.0890519"><ele>865.0</ele><time>2026-04-28T15:27:49.855Z</time></trkpt><trkpt lat="37.8117988" lon="14.0892284"><ele>865.0</ele><time>2026-04-28T15:27:50.855Z</time></trkpt><trkpt lat="37.8118262" lon="14.0893922"><ele>865.0</ele><time>2026-04-28T15:27:51.855Z</time></trkpt><trkpt lat="37.811887" lon="14.0895211"><ele>866.6</ele><time>2026-04-28T15:27:52.855Z</time></trkpt><trkpt lat="37.811986" lon="14.0896033"><ele>868.2</ele><time>2026-04-28T15:27:53.855Z</time></trkpt><trkpt lat="37.8120915" lon="14.0896336"><ele>869.8</ele><time>2026-04-28T15:27:54.855Z</time></trkpt><trkpt lat="37.8121962" lon="14.089661"><ele>871.4</ele><time>2026-04-28T15:27:55.855Z</time></trkpt><trkpt lat="37.8122818" lon="14.0897187"><ele>873.0</ele><time>2026-04-28T15:27:56.855Z</time></trkpt><trkpt lat="37.8123227" lon="14.0898153"><ele>873.0</ele><time>2026-04-28T15:27:57.855Z</time></trkpt><trkpt lat="37.8123081" lon="14.0899025"><ele>873.0</ele><time>2026-04-28T15:27:58.855Z</time></trkpt><trkpt lat="37.8122609" lon="14.0899748"><ele>873.0</ele><time>2026-04-28T15:27:59.855Z</time></trkpt><trkpt lat="37.8121991" lon="14.0900109"><ele>873.0</ele><time>2026-04-28T15:28:00.855Z</time></trkpt><trkpt lat="37.8121046" lon="14.0900115"><ele>873.0</ele><time>2026-04-28T15:28:01.855Z</time></trkpt><trkpt lat="37.8119809" lon="14.0900015"><ele>873.0</ele><time>2026-04-28T15:28:02.855Z</time></trkpt><trkpt lat="37.8118287" lon="14.0899838"><ele>880.3333333333333</ele><time>2026-04-28T15:28:03.855Z</time></trkpt><trkpt lat="37.8116726" lon="14.0899728"><ele>887.6666666666666</ele><time>2026-04-28T15:28:04.855Z</time></trkpt><trkpt lat="37.811509" lon="14.0899904"><ele>895.0</ele><time>2026-04-28T15:28:05.855Z</time></trkpt><trkpt lat="37.8113437" lon="14.0900453"><ele>895.0</ele><time>2026-04-28T15:28:06.855Z</time></trkpt><trkpt lat="37.8111855" lon="14.0901377"><ele>895.0</ele><time>2026-04-28T15:28:07.855Z</time></trkpt><trkpt lat="37.8110543" lon="14.0902636"><ele>895.0</ele><time>2026-04-28T15:28:08.856Z</time></trkpt><trkpt lat="37.8109506" lon="14.0904101"><ele>893.5</ele><time>2026-04-28T15:28:09.855Z</time></trkpt><trkpt lat="37.8108524" lon="14.0905487"><ele>892.0</ele><time>2026-04-28T15:28:10.855Z</time></trkpt><trkpt lat="37.8107459" lon="14.0906695"><ele>890.5</ele><time>2026-04-28T15:28:11.855Z</time></trkpt><trkpt lat="37.8106326" lon="14.0907615"><ele>889.0</ele><time>2026-04-28T15:28:12.855Z</time></trkpt><trkpt lat="37.8105049" lon="14.0908076"><ele>889.0</ele><time>2026-04-28T15:28:13.855Z</time></trkpt><trkpt lat="37.8103804" lon="14.0907872"><ele>889.0</ele><time>2026-04-28T15:28:14.855Z</time></trkpt><trkpt lat="37.810264" lon="14.0907147"><ele>889.0</ele><time>2026-04-28T15:28:15.855Z</time></trkpt><trkpt lat="37.8101676" lon="14.0906064"><ele>889.0</ele><time>2026-04-28T15:28:16.855Z</time></trkpt><trkpt lat="37.8100886" lon="14.090473"><ele>891.0</ele><time>2026-04-28T15:28:17.855Z</time></trkpt><trkpt lat="37.8100065" lon="14.0903531"><ele>893.0</ele><time>2026-04-28T15:28:18.855Z</time></trkpt><trkpt lat="37.8099137" lon="14.0902781"><ele>895.0</ele><time>2026-04-28T15:28:19.855Z</time></trkpt><trkpt lat="37.8098018" lon="14.0902469"><ele>897.0</ele><time>2026-04-28T15:28:20.856Z</time></trkpt><trkpt lat="37.8096652" lon="14.0902531"><ele>897.0</ele><time>2026-04-28T15:28:21.855Z</time></trkpt><trkpt lat="37.8095228" lon="14.0902895"><ele>897.0</ele><time>2026-04-28T15:28:22.855Z</time></trkpt><trkpt lat="37.809385" lon="14.0903318"><ele>897.0</ele><time>2026-04-28T15:28:23.855Z</time></trkpt><trkpt lat="37.8092578" lon="14.0903557"><ele>897.0</ele><time>2026-04-28T15:28:24.855Z</time></trkpt><trkpt lat="37.8091385" lon="14.0903464"><ele>899.25</ele><time>2026-04-28T15:28:25.855Z</time></trkpt><trkpt lat="37.8090348" lon="14.0902842"><ele>901.5</ele><time>2026-04-28T15:28:26.855Z</time></trkpt><trkpt lat="37.8089426" lon="14.0901777"><ele>903.75</ele><time>2026-04-28T15:28:27.855Z</time></trkpt><trkpt lat="37.8088527" lon="14.0900786"><ele>906.0</ele><time>2026-04-28T15:28:28.855Z</time></trkpt><trkpt lat="37.8087438" lon="14.0900278"><ele>906.0</ele><time>2026-04-28T15:28:29.855Z</time></trkpt><trkpt lat="37.8086238" lon="14.0899965"><ele>906.0</ele><time>2026-04-28T15:28:30.855Z</time></trkpt><trkpt lat="37.8085012" lon="14.0899881"><ele>906.0</ele><time>2026-04-28T15:28:31.855Z</time></trkpt><trkpt lat="37.8083855" lon="14.0899997"><ele>906.0</ele><time>2026-04-28T15:28:32.855Z</time></trkpt><trkpt lat="37.8082798" lon="14.0900331"><ele>908.0</ele><time>2026-04-28T15:28:33.855Z</time></trkpt><trkpt lat="37.8081813" lon="14.090076"><ele>910.0</ele><time>2026-04-28T15:28:34.855Z</time></trkpt><trkpt lat="37.8080915" lon="14.090122"><ele>912.0</ele><time>2026-04-28T15:28:35.855Z</time></trkpt><trkpt lat="37.8080146" lon="14.0901675"><ele>914.0</ele><time>2026-04-28T15:28:36.855Z</time></trkpt><trkpt lat="37.8079405" lon="14.0902065"><ele>916.0</ele><time>2026-04-28T15:28:37.855Z</time></trkpt><trkpt lat="37.807867" lon="14.0902511"><ele>918.0</ele><time>2026-04-28T15:28:38.856Z</time></trkpt><trkpt lat="37.8077948" lon="14.090305"><ele>918.0</ele><time>2026-04-28T15:28:39.855Z</time></trkpt><trkpt lat="37.8077213" lon="14.0903725"><ele>918.0</ele><time>2026-04-28T15:28:40.855Z</time></trkpt><trkpt lat="37.8076448" lon="14.0904365"><ele>918.0</ele><time>2026-04-28T15:28:41.855Z</time></trkpt><trkpt lat="37.8075644" lon="14.0904998"><ele>918.0</ele><time>2026-04-28T15:28:42.855Z</time></trkpt><trkpt lat="37.8074833" lon="14.090561"><ele>918.0</ele><time>2026-04-28T15:28:43.855Z</time></trkpt><trkpt lat="37.807412" lon="14.0906224"><ele>917.0</ele><time>2026-04-28T15:28:44.855Z</time></trkpt><trkpt lat="37.8073463" lon="14.09068"><ele>916.0</ele><time>2026-04-28T15:28:45.855Z</time></trkpt><trkpt lat="37.8072835" lon="14.0907427"><ele>915.0</ele><time>2026-04-28T15:28:46.855Z</time></trkpt><trkpt lat="37.8072304" lon="14.0908168"><ele>914.0</ele><time>2026-04-28T15:28:47.855Z</time></trkpt><trkpt lat="37.8071759" lon="14.0908908"><ele>913.0</ele><time>2026-04-28T15:28:48.855Z</time></trkpt><trkpt lat="37.8071251" lon="14.0909715"><ele>912.0</ele><time>2026-04-28T15:28:49.855Z</time></trkpt><trkpt lat="37.8070711" lon="14.0910484"><ele>915.2857142857142</ele><time>2026-04-28T15:28:50.855Z</time></trkpt><trkpt lat="37.8070125" lon="14.0911189"><ele>918.5714285714284</ele><time>2026-04-28T15:28:51.855Z</time></trkpt><trkpt lat="37.8069499" lon="14.091174"><ele>921.8571428571429</ele><time>2026-04-28T15:28:52.855Z</time></trkpt><trkpt lat="37.8068866" lon="14.0911986"><ele>925.1428571428571</ele><time>2026-04-28T15:28:53.855Z</time></trkpt><trkpt lat="37.8068124" lon="14.0911899"><ele>928.4285714285714</ele><time>2026-04-28T15:28:54.855Z</time></trkpt><trkpt lat="37.8067555" lon="14.0911428"><ele>931.7142857142858</ele><time>2026-04-28T15:28:55.855Z</time></trkpt><trkpt lat="37.8067193" lon="14.0910602"><ele>935.0000000000001</ele><time>2026-04-28T15:28:57.855Z</time></trkpt><trkpt lat="37.806729" lon="14.0909585"><ele>935.0000000000001</ele><time>2026-04-28T15:29:09.855Z</time></trkpt><trkpt lat="37.8067005" lon="14.0908794"><ele>935.0</ele><time>2026-04-28T15:29:11.855Z</time></trkpt><trkpt lat="37.8067343" lon="14.0909637"><ele>935.0</ele><time>2026-04-28T15:29:56.855Z</time></trkpt><trkpt lat="37.8066984" lon="14.0910518"><ele>935.0</ele><time>2026-04-28T15:30:10.855Z</time></trkpt><trkpt lat="37.8066345" lon="14.0910092"><ele>935.0000000000001</ele><time>2026-04-28T15:30:11.855Z</time></trkpt><trkpt lat="37.8065549" lon="14.0909462"><ele>935.0</ele><time>2026-04-28T15:30:12.855Z</time></trkpt><trkpt lat="37.8064796" lon="14.0908882"><ele>935.0</ele><time>2026-04-28T15:30:13.855Z</time></trkpt><trkpt lat="37.8064095" lon="14.0908253"><ele>935.0</ele><time>2026-04-28T15:30:14.855Z</time></trkpt><trkpt lat="37.8063401" lon="14.0907516"><ele>935.0</ele><time>2026-04-28T15:30:15.855Z</time></trkpt><trkpt lat="37.8062812" lon="14.0906542"><ele>935.0</ele><time>2026-04-28T15:30:16.855Z</time></trkpt><trkpt lat="37.8062479" lon="14.0905308"><ele>935.0</ele><time>2026-04-28T15:30:17.855Z</time></trkpt><trkpt lat="37.8062235" lon="14.0904095"><ele>933.3333333333334</ele><time>2026-04-28T15:30:18.855Z</time></trkpt><trkpt lat="37.8061865" lon="14.0903076"><ele>931.6666666666667</ele><time>2026-04-28T15:30:19.855Z</time></trkpt><trkpt lat="37.806126" lon="14.0902415"><ele>930.0</ele><time>2026-04-28T15:30:20.855Z</time></trkpt><trkpt lat="37.8060542" lon="14.090227"><ele>928.3333333333333</ele><time>2026-04-28T15:30:21.855Z</time></trkpt><trkpt lat="37.8059754" lon="14.0902308"><ele>926.6666666666666</ele><time>2026-04-28T15:30:22.855Z</time></trkpt><trkpt lat="37.8059158" lon="14.0902927"><ele>925.0</ele><time>2026-04-28T15:30:23.855Z</time></trkpt><trkpt lat="37.8058726" lon="14.0904168"><ele>923.9999999999999</ele><time>2026-04-28T15:30:24.855Z</time></trkpt><trkpt lat="37.8058419" lon="14.0905493"><ele>923.0</ele><time>2026-04-28T15:30:25.855Z</time></trkpt><trkpt lat="37.805819" lon="14.0906625"><ele>922.0</ele><time>2026-04-28T15:30:26.855Z</time></trkpt><trkpt lat="37.8058063" lon="14.0907531"><ele>921.0</ele><time>2026-04-28T15:30:27.855Z</time></trkpt><trkpt lat="37.8057856" lon="14.0908332"><ele>919.9999999999999</ele><time>2026-04-28T15:30:28.855Z</time></trkpt><trkpt lat="37.8057343" lon="14.0909528"><ele>919.0</ele><time>2026-04-28T15:30:30.855Z</time></trkpt><trkpt lat="37.8056505" lon="14.091054"><ele>925.25</ele><time>2026-04-28T15:30:32.855Z</time></trkpt><trkpt lat="37.8055249" lon="14.091118"><ele>931.5</ele><time>2026-04-28T15:30:34.855Z</time></trkpt><trkpt lat="37.8054312" lon="14.0911286"><ele>937.75</ele><time>2026-04-28T15:30:35.855Z</time></trkpt><trkpt lat="37.8053051" lon="14.0911369"><ele>944.0</ele><time>2026-04-28T15:30:36.855Z</time></trkpt><trkpt lat="37.8051715" lon="14.0911429"><ele>942.4000000000001</ele><time>2026-04-28T15:30:37.855Z</time></trkpt><trkpt lat="37.8050396" lon="14.0911324"><ele>940.8000000000001</ele><time>2026-04-28T15:30:38.855Z</time></trkpt><trkpt lat="37.8049268" lon="14.0910996"><ele>939.1999999999999</ele><time>2026-04-28T15:30:39.855Z</time></trkpt><trkpt lat="37.8048388" lon="14.0910675"><ele>937.5999999999999</ele><time>2026-04-28T15:30:40.855Z</time></trkpt><trkpt lat="37.804757" lon="14.0910715"><ele>936.0</ele><time>2026-04-28T15:30:41.855Z</time></trkpt><trkpt lat="37.804666" lon="14.0911162"><ele>936.0</ele><time>2026-04-28T15:30:42.855Z</time></trkpt><trkpt lat="37.8045759" lon="14.0911747"><ele>936.0</ele><time>2026-04-28T15:30:43.855Z</time></trkpt><trkpt lat="37.8044887" lon="14.0912214"><ele>936.0</ele><time>2026-04-28T15:30:44.855Z</time></trkpt><trkpt lat="37.8043978" lon="14.091251"><ele>936.0</ele><time>2026-04-28T15:30:45.855Z</time></trkpt><trkpt lat="37.8043266" lon="14.091283"><ele>936.0</ele><time>2026-04-28T15:30:46.855Z</time></trkpt><trkpt lat="37.8042912" lon="14.0913576"><ele>936.0</ele><time>2026-04-28T15:30:47.855Z</time></trkpt><trkpt lat="37.804288" lon="14.0914657"><ele>933.0</ele><time>2026-04-28T15:30:48.855Z</time></trkpt><trkpt lat="37.8042921" lon="14.0915865"><ele>929.9999999999999</ele><time>2026-04-28T15:30:49.855Z</time></trkpt><trkpt lat="37.8042818" lon="14.0917028"><ele>926.9999999999999</ele><time>2026-04-28T15:30:50.855Z</time></trkpt><trkpt lat="37.8042461" lon="14.0918201"><ele>924.0</ele><time>2026-04-28T15:30:51.855Z</time></trkpt><trkpt lat="37.8041963" lon="14.0919553"><ele>921.0</ele><time>2026-04-28T15:30:52.855Z</time></trkpt><trkpt lat="37.8041616" lon="14.0921071"><ele>928.75</ele><time>2026-04-28T15:30:53.856Z</time></trkpt><trkpt lat="37.8041448" lon="14.0922692"><ele>936.5</ele><time>2026-04-28T15:30:54.855Z</time></trkpt><trkpt lat="37.8041271" lon="14.0924304"><ele>944.25</ele><time>2026-04-28T15:30:55.856Z</time></trkpt><trkpt lat="37.804106" lon="14.0925821"><ele>952.0</ele><time>2026-04-28T15:30:56.855Z</time></trkpt><trkpt lat="37.8040677" lon="14.0926988"><ele>955.75</ele><time>2026-04-28T15:30:57.855Z</time></trkpt><trkpt lat="37.8039956" lon="14.0927765"><ele>959.5</ele><time>2026-04-28T15:30:58.855Z</time></trkpt><trkpt lat="37.8038873" lon="14.0928044"><ele>963.25</ele><time>2026-04-28T15:30:59.855Z</time></trkpt><trkpt lat="37.8037504" lon="14.0928185"><ele>967.0</ele><time>2026-04-28T15:31:00.855Z</time></trkpt><trkpt lat="37.8036099" lon="14.0928237"><ele>962.25</ele><time>2026-04-28T15:31:01.855Z</time></trkpt><trkpt lat="37.8034831" lon="14.092836"><ele>957.5</ele><time>2026-04-28T15:31:02.855Z</time></trkpt><trkpt lat="37.8033671" lon="14.09286"><ele>952.75</ele><time>2026-04-28T15:31:03.855Z</time></trkpt><trkpt lat="37.8032591" lon="14.0929071"><ele>948.0</ele><time>2026-04-28T15:31:04.855Z</time></trkpt><trkpt lat="37.8031549" lon="14.0929974"><ele>948.0</ele><time>2026-04-28T15:31:05.855Z</time></trkpt><trkpt lat="37.8030612" lon="14.0931148"><ele>948.0</ele><time>2026-04-28T15:31:06.855Z</time></trkpt><trkpt lat="37.8029821" lon="14.0932426"><ele>948.0</ele><time>2026-04-28T15:31:07.855Z</time></trkpt><trkpt lat="37.8029257" lon="14.0933772"><ele>948.0</ele><time>2026-04-28T15:31:08.855Z</time></trkpt><trkpt lat="37.8028979" lon="14.0935287"><ele>953.0</ele><time>2026-04-28T15:31:09.855Z</time></trkpt><trkpt lat="37.8028784" lon="14.0936917"><ele>958.0</ele><time>2026-04-28T15:31:10.855Z</time></trkpt><trkpt lat="37.8028381" lon="14.093861"><ele>963.0</ele><time>2026-04-28T15:31:11.855Z</time></trkpt><trkpt lat="37.8027594" lon="14.0940258"><ele>968.0</ele><time>2026-04-28T15:31:12.855Z</time></trkpt><trkpt lat="37.8026398" lon="14.0941806"><ele>968.0</ele><time>2026-04-28T15:31:13.855Z</time></trkpt><trkpt lat="37.8025043" lon="14.0943226"><ele>968.0</ele><time>2026-04-28T15:31:14.855Z</time></trkpt><trkpt lat="37.802373" lon="14.0944351"><ele>968.0</ele><time>2026-04-28T15:31:15.855Z</time></trkpt><trkpt lat="37.8022584" lon="14.0945347"><ele>968.0</ele><time>2026-04-28T15:31:16.855Z</time></trkpt><trkpt lat="37.802175" lon="14.0946199"><ele>968.0</ele><time>2026-04-28T15:31:17.855Z</time></trkpt><trkpt lat="37.8021221" lon="14.094694"><ele>968.0</ele><time>2026-04-28T15:31:18.855Z</time></trkpt><trkpt lat="37.8020695" lon="14.0948083"><ele>968.0</ele><time>2026-04-28T15:31:20.855Z</time></trkpt><trkpt lat="37.8020338" lon="14.0948942"><ele>968.0</ele><time>2026-04-28T15:31:22.855Z</time></trkpt><trkpt lat="37.8019906" lon="14.0949962"><ele>973.8</ele><time>2026-04-28T15:31:24.855Z</time></trkpt><trkpt lat="37.8019466" lon="14.0951273"><ele>979.5999999999999</ele><time>2026-04-28T15:31:26.855Z</time></trkpt><trkpt lat="37.8019032" lon="14.0952744"><ele>985.4000000000001</ele><time>2026-04-28T15:31:28.855Z</time></trkpt><trkpt lat="37.8018849" lon="14.0954222"><ele>991.2</ele><time>2026-04-28T15:31:30.855Z</time></trkpt><trkpt lat="37.8018782" lon="14.0955249"><ele>997.0</ele><time>2026-04-28T15:31:31.855Z</time></trkpt><trkpt lat="37.8018627" lon="14.0956515"><ele>999.4999999999999</ele><time>2026-04-28T15:31:32.855Z</time></trkpt><trkpt lat="37.8018398" lon="14.0957874"><ele>1002.0</ele><time>2026-04-28T15:31:33.855Z</time></trkpt><trkpt lat="37.8018158" lon="14.0959078"><ele>1004.5</ele><time>2026-04-28T15:31:34.855Z</time></trkpt><trkpt lat="37.8017888" lon="14.0960104"><ele>1007.0</ele><time>2026-04-28T15:31:35.855Z</time></trkpt><trkpt lat="37.8017558" lon="14.0960958"><ele>1009.4999999999999</ele><time>2026-04-28T15:31:36.855Z</time></trkpt><trkpt lat="37.8017153" lon="14.0961718"><ele>1012.0</ele><time>2026-04-28T15:31:37.855Z</time></trkpt><trkpt lat="37.8016609" lon="14.096237"><ele>1006.4999999999999</ele><time>2026-04-28T15:31:38.855Z</time></trkpt><trkpt lat="37.8016018" lon="14.0962906"><ele>1001.0</ele><time>2026-04-28T15:31:39.855Z</time></trkpt><trkpt lat="37.8015394" lon="14.0963391"><ele>995.5</ele><time>2026-04-28T15:31:40.855Z</time></trkpt><trkpt lat="37.8014715" lon="14.0963956"><ele>990.0</ele><time>2026-04-28T15:31:41.855Z</time></trkpt><trkpt lat="37.8013823" lon="14.0964668"><ele>984.4999999999999</ele><time>2026-04-28T15:31:42.855Z</time></trkpt><trkpt lat="37.8012901" lon="14.0965311"><ele>979.0</ele><time>2026-04-28T15:31:43.855Z</time></trkpt><trkpt lat="37.8012196" lon="14.0965774"><ele>979.0</ele><time>2026-04-28T15:31:44.855Z</time></trkpt><trkpt lat="37.801157" lon="14.0965409"><ele>979.0000000000001</ele><time>2026-04-28T15:31:47.855Z</time></trkpt><trkpt lat="37.8012165" lon="14.0964036"><ele>979.0000000000001</ele><time>2026-04-28T15:31:49.855Z</time></trkpt><trkpt lat="37.801267" lon="14.0963486"><ele>979.0</ele><time>2026-04-28T15:31:50.855Z</time></trkpt><trkpt lat="37.8013218" lon="14.0962578"><ele>979.0</ele><time>2026-04-28T15:31:52.855Z</time></trkpt><trkpt lat="37.8012026" lon="14.0963367"><ele>978.9999999999999</ele><time>2026-04-28T15:33:31.855Z</time></trkpt><trkpt lat="37.8011634" lon="14.096415"><ele>979.0</ele><time>2026-04-28T15:33:32.855Z</time></trkpt><trkpt lat="37.8011398" lon="14.096495"><ele>979.0</ele><time>2026-04-28T15:33:33.855Z</time></trkpt><trkpt lat="37.8011078" lon="14.096612"><ele>979.0</ele><time>2026-04-28T15:33:35.855Z</time></trkpt><trkpt lat="37.801058" lon="14.0967092"><ele>978.9999999999999</ele><time>2026-04-28T15:33:39.855Z</time></trkpt><trkpt lat="37.8009954" lon="14.0967849"><ele>979.0</ele><time>2026-04-28T15:33:40.855Z</time></trkpt><trkpt lat="37.8009138" lon="14.0968544"><ele>979.0</ele><time>2026-04-28T15:33:41.855Z</time></trkpt><trkpt lat="37.8008125" lon="14.096938"><ele>979.0</ele><time>2026-04-28T15:33:42.855Z</time></trkpt><trkpt lat="37.8006948" lon="14.0970379"><ele>979.0</ele><time>2026-04-28T15:33:43.855Z</time></trkpt><trkpt lat="37.8005753" lon="14.0971362"><ele>979.0</ele><time>2026-04-28T15:33:44.855Z</time></trkpt><trkpt lat="37.800452" lon="14.0972076"><ele>979.0</ele><time>2026-04-28T15:33:45.855Z</time></trkpt><trkpt lat="37.800319" lon="14.0972418"><ele>979.0</ele><time>2026-04-28T15:33:46.855Z</time></trkpt><trkpt lat="37.8001866" lon="14.097235"><ele>979.0</ele><time>2026-04-28T15:33:47.854Z</time></trkpt><trkpt lat="37.8000584" lon="14.0972473"><ele>979.0</ele><time>2026-04-28T15:33:48.854Z</time></trkpt><trkpt lat="37.7999317" lon="14.0973037"><ele>981.75</ele><time>2026-04-28T15:33:49.854Z</time></trkpt><trkpt lat="37.7998006" lon="14.0974038"><ele>984.5</ele><time>2026-04-28T15:33:50.854Z</time></trkpt><trkpt lat="37.7996746" lon="14.0974992"><ele>987.25</ele><time>2026-04-28T15:33:51.854Z</time></trkpt><trkpt lat="37.7995376" lon="14.0975583"><ele>990.0</ele><time>2026-04-28T15:33:52.854Z</time></trkpt><trkpt lat="37.7993898" lon="14.0975718"><ele>991.0</ele><time>2026-04-28T15:33:53.854Z</time></trkpt><trkpt lat="37.7992446" lon="14.0975411"><ele>992.0</ele><time>2026-04-28T15:33:54.854Z</time></trkpt><trkpt lat="37.7990872" lon="14.0974566"><ele>993.0</ele><time>2026-04-28T15:33:55.854Z</time></trkpt><trkpt lat="37.7989077" lon="14.0973578"><ele>989.0</ele><time>2026-04-28T15:33:56.854Z</time></trkpt><trkpt lat="37.798713" lon="14.0972566"><ele>985.0</ele><time>2026-04-28T15:33:57.854Z</time></trkpt><trkpt lat="37.7985177" lon="14.0971494"><ele>981.0</ele><time>2026-04-28T15:33:58.854Z</time></trkpt><trkpt lat="37.7983238" lon="14.097027"><ele>981.0</ele><time>2026-04-28T15:33:59.854Z</time></trkpt><trkpt lat="37.798144" lon="14.0968894"><ele>981.0</ele><time>2026-04-28T15:34:00.854Z</time></trkpt><trkpt lat="37.7979854" lon="14.0967408"><ele>981.0</ele><time>2026-04-28T15:34:01.854Z</time></trkpt><trkpt lat="37.7978508" lon="14.0965884"><ele>980.75</ele><time>2026-04-28T15:34:02.854Z</time></trkpt><trkpt lat="37.7977486" lon="14.0964168"><ele>980.5</ele><time>2026-04-28T15:34:03.854Z</time></trkpt><trkpt lat="37.7976707" lon="14.0962634"><ele>980.25</ele><time>2026-04-28T15:34:04.854Z</time></trkpt><trkpt lat="37.7976122" lon="14.0961378"><ele>980.0</ele><time>2026-04-28T15:34:05.854Z</time></trkpt><trkpt lat="37.7975421" lon="14.0960419"><ele>980.0</ele><time>2026-04-28T15:34:06.854Z</time></trkpt><trkpt lat="37.7974519" lon="14.0959884"><ele>980.0</ele><time>2026-04-28T15:34:07.854Z</time></trkpt><trkpt lat="37.7973504" lon="14.0959814"><ele>980.0</ele><time>2026-04-28T15:34:08.854Z</time></trkpt><trkpt lat="37.7972348" lon="14.0960237"><ele>980.0</ele><time>2026-04-28T15:34:09.854Z</time></trkpt><trkpt lat="37.7971314" lon="14.0961145"><ele>980.0</ele><time>2026-04-28T15:34:10.855Z</time></trkpt><trkpt lat="37.797064" lon="14.0962409"><ele>980.0</ele><time>2026-04-28T15:34:11.854Z</time></trkpt><trkpt lat="37.7970166" lon="14.0964048"><ele>980.0</ele><time>2026-04-28T15:34:12.854Z</time></trkpt><trkpt lat="37.7969776" lon="14.0965858"><ele>980.0</ele><time>2026-04-28T15:34:13.854Z</time></trkpt><trkpt lat="37.7969361" lon="14.096764"><ele>980.0</ele><time>2026-04-28T15:34:14.854Z</time></trkpt><trkpt lat="37.7968907" lon="14.0969376"><ele>980.25</ele><time>2026-04-28T15:34:15.854Z</time></trkpt><trkpt lat="37.7968383" lon="14.0970968"><ele>980.5</ele><time>2026-04-28T15:34:16.854Z</time></trkpt><trkpt lat="37.7967852" lon="14.0972565"><ele>980.75</ele><time>2026-04-28T15:34:17.854Z</time></trkpt><trkpt lat="37.7967244" lon="14.0974156"><ele>981.0</ele><time>2026-04-28T15:34:18.854Z</time></trkpt><trkpt lat="37.7966546" lon="14.0975766"><ele>981.0</ele><time>2026-04-28T15:34:19.854Z</time></trkpt><trkpt lat="37.7965816" lon="14.0977439"><ele>981.0</ele><time>2026-04-28T15:34:20.855Z</time></trkpt><trkpt lat="37.7965044" lon="14.097916"><ele>981.0</ele><time>2026-04-28T15:34:21.854Z</time></trkpt><trkpt lat="37.7964259" lon="14.0980901"><ele>984.3333333333333</ele><time>2026-04-28T15:34:22.854Z</time></trkpt><trkpt lat="37.7963429" lon="14.0982714"><ele>987.6666666666666</ele><time>2026-04-28T15:34:23.854Z</time></trkpt><trkpt lat="37.7962628" lon="14.0984501"><ele>991.0</ele><time>2026-04-28T15:34:24.854Z</time></trkpt><trkpt lat="37.7961859" lon="14.0986302"><ele>991.0</ele><time>2026-04-28T15:34:25.854Z</time></trkpt><trkpt lat="37.7961255" lon="14.0988186"><ele>991.0</ele><time>2026-04-28T15:34:26.854Z</time></trkpt><trkpt lat="37.7960989" lon="14.0990198"><ele>991.0</ele><time>2026-04-28T15:34:27.854Z</time></trkpt><trkpt lat="37.7960915" lon="14.0992211"><ele>990.6666666666666</ele><time>2026-04-28T15:34:28.855Z</time></trkpt><trkpt lat="37.7960894" lon="14.0994245"><ele>990.3333333333333</ele><time>2026-04-28T15:34:29.854Z</time></trkpt><trkpt lat="37.7960825" lon="14.0996185"><ele>990.0</ele><time>2026-04-28T15:34:30.854Z</time></trkpt><trkpt lat="37.7960698" lon="14.0998032"><ele>989.5</ele><time>2026-04-28T15:34:31.855Z</time></trkpt><trkpt lat="37.7960484" lon="14.0999752"><ele>989.0</ele><time>2026-04-28T15:34:32.854Z</time></trkpt><trkpt lat="37.796001" lon="14.1001335"><ele>988.5</ele><time>2026-04-28T15:34:33.854Z</time></trkpt><trkpt lat="37.7959252" lon="14.1002664"><ele>988.0</ele><time>2026-04-28T15:34:34.854Z</time></trkpt><trkpt lat="37.7958082" lon="14.100374"><ele>980.3333333333333</ele><time>2026-04-28T15:34:35.855Z</time></trkpt><trkpt lat="37.7956639" lon="14.1004537"><ele>972.6666666666667</ele><time>2026-04-28T15:34:36.854Z</time></trkpt><trkpt lat="37.7955145" lon="14.1005009"><ele>965.0</ele><time>2026-04-28T15:34:37.854Z</time></trkpt><trkpt lat="37.7953734" lon="14.1005385"><ele>965.0</ele><time>2026-04-28T15:34:38.854Z</time></trkpt><trkpt lat="37.795235" lon="14.1005792"><ele>965.0</ele><time>2026-04-28T15:34:39.854Z</time></trkpt><trkpt lat="37.7951031" lon="14.1006315"><ele>965.0</ele><time>2026-04-28T15:34:40.854Z</time></trkpt><trkpt lat="37.7949857" lon="14.1007025"><ele>965.0</ele><time>2026-04-28T15:34:41.854Z</time></trkpt><trkpt lat="37.7948801" lon="14.1008031"><ele>967.25</ele><time>2026-04-28T15:34:42.854Z</time></trkpt><trkpt lat="37.7947871" lon="14.1009273"><ele>969.5</ele><time>2026-04-28T15:34:43.854Z</time></trkpt><trkpt lat="37.7947119" lon="14.1010823"><ele>971.75</ele><time>2026-04-28T15:34:44.854Z</time></trkpt><trkpt lat="37.7946356" lon="14.1012495"><ele>974.0</ele><time>2026-04-28T15:34:45.854Z</time></trkpt><trkpt lat="37.7945672" lon="14.1014358"><ele>972.3333333333334</ele><time>2026-04-28T15:34:46.854Z</time></trkpt><trkpt lat="37.794491" lon="14.1016499"><ele>970.6666666666667</ele><time>2026-04-28T15:34:47.854Z</time></trkpt><trkpt lat="37.7943936" lon="14.1018726"><ele>969.0</ele><time>2026-04-28T15:34:48.854Z</time></trkpt><trkpt lat="37.7942976" lon="14.1020933"><ele>969.0</ele><time>2026-04-28T15:34:49.854Z</time></trkpt><trkpt lat="37.7942185" lon="14.1022947"><ele>969.0</ele><time>2026-04-28T15:34:50.855Z</time></trkpt><trkpt lat="37.7941612" lon="14.102485"><ele>969.0</ele><time>2026-04-28T15:34:51.854Z</time></trkpt><trkpt lat="37.7941216" lon="14.102672"><ele>972.3333333333333</ele><time>2026-04-28T15:34:52.854Z</time></trkpt><trkpt lat="37.7940876" lon="14.1028506"><ele>975.6666666666666</ele><time>2026-04-28T15:34:53.854Z</time></trkpt><trkpt lat="37.7940402" lon="14.1030348"><ele>979.0</ele><time>2026-04-28T15:34:54.854Z</time></trkpt><trkpt lat="37.7939696" lon="14.1032046"><ele>982.6666666666666</ele><time>2026-04-28T15:34:55.854Z</time></trkpt><trkpt lat="37.7938754" lon="14.103367"><ele>986.3333333333333</ele><time>2026-04-28T15:34:56.854Z</time></trkpt><trkpt lat="37.7937529" lon="14.1035274"><ele>990.0</ele><time>2026-04-28T15:34:57.854Z</time></trkpt><trkpt lat="37.7936157" lon="14.1036924"><ele>989.3333333333333</ele><time>2026-04-28T15:34:58.854Z</time></trkpt><trkpt lat="37.7934815" lon="14.1038582"><ele>988.6666666666666</ele><time>2026-04-28T15:34:59.854Z</time></trkpt><trkpt lat="37.7933565" lon="14.1040133"><ele>988.0</ele><time>2026-04-28T15:35:00.854Z</time></trkpt><trkpt lat="37.7932219" lon="14.1041693"><ele>988.0</ele><time>2026-04-28T15:35:01.854Z</time></trkpt><trkpt lat="37.7930651" lon="14.1043161"><ele>988.0</ele><time>2026-04-28T15:35:02.854Z</time></trkpt><trkpt lat="37.7928911" lon="14.1044614"><ele>988.0</ele><time>2026-04-28T15:35:03.854Z</time></trkpt><trkpt lat="37.7927088" lon="14.1045946"><ele>988.6666666666666</ele><time>2026-04-28T15:35:04.854Z</time></trkpt><trkpt lat="37.7925248" lon="14.1047329"><ele>989.3333333333333</ele><time>2026-04-28T15:35:05.854Z</time></trkpt><trkpt lat="37.7923585" lon="14.1048794"><ele>990.0</ele><time>2026-04-28T15:35:06.854Z</time></trkpt><trkpt lat="37.7922117" lon="14.1050265"><ele>990.0</ele><time>2026-04-28T15:35:07.854Z</time></trkpt><trkpt lat="37.7920904" lon="14.1051893"><ele>990.0</ele><time>2026-04-28T15:35:08.854Z</time></trkpt><trkpt lat="37.7919799" lon="14.1053504"><ele>990.0</ele><time>2026-04-28T15:35:09.854Z</time></trkpt><trkpt lat="37.7918726" lon="14.1055096"><ele>990.25</ele><time>2026-04-28T15:35:10.854Z</time></trkpt><trkpt lat="37.7917772" lon="14.1056526"><ele>990.5</ele><time>2026-04-28T15:35:11.854Z</time></trkpt><trkpt lat="37.7916901" lon="14.105794"><ele>990.75</ele><time>2026-04-28T15:35:12.854Z</time></trkpt><trkpt lat="37.7916033" lon="14.1059261"><ele>991.0</ele><time>2026-04-28T15:35:13.854Z</time></trkpt><trkpt lat="37.7915212" lon="14.1060433"><ele>991.0</ele><time>2026-04-28T15:35:14.854Z</time></trkpt><trkpt lat="37.791444" lon="14.1061481"><ele>990.9999999999999</ele><time>2026-04-28T15:35:15.854Z</time></trkpt><trkpt lat="37.7913761" lon="14.1062441"><ele>990.9999999999999</ele><time>2026-04-28T15:35:16.854Z</time></trkpt><trkpt lat="37.7913122" lon="14.1063328"><ele>991.0</ele><time>2026-04-28T15:35:17.854Z</time></trkpt><trkpt lat="37.7912554" lon="14.1064132"><ele>991.0</ele><time>2026-04-28T15:35:18.854Z</time></trkpt><trkpt lat="37.7912031" lon="14.1064858"><ele>990.9999999999999</ele><time>2026-04-28T15:35:19.854Z</time></trkpt><trkpt lat="37.7911514" lon="14.1065542"><ele>991.0</ele><time>2026-04-28T15:35:20.854Z</time></trkpt><trkpt lat="37.7911001" lon="14.1066263"><ele>991.0</ele><time>2026-04-28T15:35:21.854Z</time></trkpt><trkpt lat="37.7910559" lon="14.1066963"><ele>991.0</ele><time>2026-04-28T15:35:22.854Z</time></trkpt><trkpt lat="37.7910118" lon="14.106755"><ele>990.9999999999999</ele><time>2026-04-28T15:35:23.854Z</time></trkpt><trkpt lat="37.7909256" lon="14.1068667"><ele>991.0</ele><time>2026-04-28T15:35:25.854Z</time></trkpt><trkpt lat="37.7908773" lon="14.1069248"><ele>992.0</ele><time>2026-04-28T15:35:26.854Z</time></trkpt><trkpt lat="37.7908388" lon="14.1069888"><ele>992.9999999999999</ele><time>2026-04-28T15:35:27.854Z</time></trkpt><trkpt lat="37.7907861" lon="14.1070841"><ele>993.9999999999999</ele><time>2026-04-28T15:35:29.854Z</time></trkpt><trkpt lat="37.7907319" lon="14.1071586"><ele>995.0</ele><time>2026-04-28T15:35:31.854Z</time></trkpt><trkpt lat="37.7906689" lon="14.1072349"><ele>996.0</ele><time>2026-04-28T15:35:33.854Z</time></trkpt><trkpt lat="37.7905941" lon="14.1073719"><ele>996.5999999999999</ele><time>2026-04-28T15:35:35.854Z</time></trkpt><trkpt lat="37.7905245" lon="14.1074737"><ele>997.1999999999999</ele><time>2026-04-28T15:35:36.854Z</time></trkpt><trkpt lat="37.7904469" lon="14.1075793"><ele>997.8000000000001</ele><time>2026-04-28T15:35:37.854Z</time></trkpt><trkpt lat="37.7903728" lon="14.1076835"><ele>998.4000000000001</ele><time>2026-04-28T15:35:38.854Z</time></trkpt><trkpt lat="37.7903158" lon="14.1077868"><ele>999.0</ele><time>2026-04-28T15:35:39.854Z</time></trkpt><trkpt lat="37.7902795" lon="14.1078989"><ele>999.0</ele><time>2026-04-28T15:35:40.854Z</time></trkpt><trkpt lat="37.7902585" lon="14.108009"><ele>999.0000000000001</ele><time>2026-04-28T15:35:41.854Z</time></trkpt><trkpt lat="37.7902423" lon="14.1081048"><ele>999.0000000000001</ele><time>2026-04-28T15:35:42.854Z</time></trkpt><trkpt lat="37.7902257" lon="14.108237"><ele>999.0</ele><time>2026-04-28T15:35:44.854Z</time></trkpt><trkpt lat="37.7902247" lon="14.1083545"><ele>999.0</ele><time>2026-04-28T15:35:46.855Z</time></trkpt><trkpt lat="37.7902214" lon="14.1084622"><ele>999.6</ele><time>2026-04-28T15:35:48.854Z</time></trkpt><trkpt lat="37.7902043" lon="14.1085874"><ele>1000.2</ele><time>2026-04-28T15:35:50.854Z</time></trkpt><trkpt lat="37.7902012" lon="14.1087202"><ele>1000.8000000000001</ele><time>2026-04-28T15:35:52.854Z</time></trkpt><trkpt lat="37.790188" lon="14.1088643"><ele>1001.4000000000001</ele><time>2026-04-28T15:35:54.854Z</time></trkpt><trkpt lat="37.7901837" lon="14.1089528"><ele>1002.0</ele><time>2026-04-28T15:35:55.854Z</time></trkpt><trkpt lat="37.7901809" lon="14.1090593"><ele>1002.6</ele><time>2026-04-28T15:35:56.854Z</time></trkpt><trkpt lat="37.790174" lon="14.1091778"><ele>1003.2</ele><time>2026-04-28T15:35:57.854Z</time></trkpt><trkpt lat="37.7901695" lon="14.1093004"><ele>1003.8</ele><time>2026-04-28T15:35:58.855Z</time></trkpt><trkpt lat="37.7901704" lon="14.1094296"><ele>1004.4</ele><time>2026-04-28T15:35:59.854Z</time></trkpt><trkpt lat="37.7901754" lon="14.1095765"><ele>1005.0</ele><time>2026-04-28T15:36:00.854Z</time></trkpt><trkpt lat="37.7901888" lon="14.1097371"><ele>1005.0</ele><time>2026-04-28T15:36:01.854Z</time></trkpt><trkpt lat="37.7902123" lon="14.1098983"><ele>1005.0</ele><time>2026-04-28T15:36:02.854Z</time></trkpt><trkpt lat="37.7902534" lon="14.1100702"><ele>1005.0</ele><time>2026-04-28T15:36:03.854Z</time></trkpt><trkpt lat="37.7903161" lon="14.1102498"><ele>1005.0</ele><time>2026-04-28T15:36:04.854Z</time></trkpt><trkpt lat="37.7903885" lon="14.110443"><ele>1004.3333333333333</ele><time>2026-04-28T15:36:05.854Z</time></trkpt><trkpt lat="37.7904639" lon="14.1106462"><ele>1003.6666666666666</ele><time>2026-04-28T15:36:06.854Z</time></trkpt><trkpt lat="37.7905443" lon="14.1108713"><ele>1003.0</ele><time>2026-04-28T15:36:07.854Z</time></trkpt><trkpt lat="37.7906239" lon="14.1110979"><ele>1002.0</ele><time>2026-04-28T15:36:08.854Z</time></trkpt><trkpt lat="37.7907035" lon="14.1113261"><ele>1001.0</ele><time>2026-04-28T15:36:09.854Z</time></trkpt><trkpt lat="37.7907868" lon="14.1115568"><ele>1000.0</ele><time>2026-04-28T15:36:10.854Z</time></trkpt><trkpt lat="37.7908794" lon="14.1117792"><ele>999.6666666666666</ele><time>2026-04-28T15:36:11.854Z</time></trkpt><trkpt lat="37.7909881" lon="14.1119949"><ele>999.3333333333333</ele><time>2026-04-28T15:36:12.854Z</time></trkpt><trkpt lat="37.7911016" lon="14.1121994"><ele>999.0</ele><time>2026-04-28T15:36:13.854Z</time></trkpt><trkpt lat="37.7912281" lon="14.1123948"><ele>1002.6666666666667</ele><time>2026-04-28T15:36:14.854Z</time></trkpt><trkpt lat="37.7913541" lon="14.1125804"><ele>1006.3333333333334</ele><time>2026-04-28T15:36:15.854Z</time></trkpt><trkpt lat="37.7914804" lon="14.1127563"><ele>1010.0</ele><time>2026-04-28T15:36:16.854Z</time></trkpt><trkpt lat="37.7916026" lon="14.1129294"><ele>1010.0</ele><time>2026-04-28T15:36:17.854Z</time></trkpt><trkpt lat="37.7917222" lon="14.1131007"><ele>1010.0</ele><time>2026-04-28T15:36:18.854Z</time></trkpt><trkpt lat="37.7918421" lon="14.1132678"><ele>1010.0</ele><time>2026-04-28T15:36:19.854Z</time></trkpt><trkpt lat="37.791965" lon="14.1134306"><ele>1010.6666666666667</ele><time>2026-04-28T15:36:20.854Z</time></trkpt><trkpt lat="37.7920983" lon="14.113589"><ele>1011.3333333333333</ele><time>2026-04-28T15:36:21.854Z</time></trkpt><trkpt lat="37.7922469" lon="14.1137296"><ele>1012.0</ele><time>2026-04-28T15:36:22.854Z</time></trkpt><trkpt lat="37.7924077" lon="14.1138566"><ele>1012.0</ele><time>2026-04-28T15:36:23.854Z</time></trkpt><trkpt lat="37.7925709" lon="14.1139674"><ele>1012.0</ele><time>2026-04-28T15:36:24.854Z</time></trkpt><trkpt lat="37.7927674" lon="14.1139756"><ele>1012.0</ele><time>2026-04-28T15:36:25.854Z</time></trkpt><trkpt lat="37.792918" lon="14.1140948"><ele>1011.6666666666666</ele><time>2026-04-28T15:36:26.854Z</time></trkpt><trkpt lat="37.793071" lon="14.114193"><ele>1011.3333333333333</ele><time>2026-04-28T15:36:27.854Z</time></trkpt><trkpt lat="37.7932276" lon="14.1142727"><ele>1011.0</ele><time>2026-04-28T15:36:28.854Z</time></trkpt><trkpt lat="37.7933943" lon="14.1143426"><ele>1012.6666666666667</ele><time>2026-04-28T15:36:29.854Z</time></trkpt><trkpt lat="37.7935875" lon="14.114358"><ele>1014.3333333333334</ele><time>2026-04-28T15:36:30.854Z</time></trkpt><trkpt lat="37.7937869" lon="14.1143398"><ele>1016.0</ele><time>2026-04-28T15:36:31.854Z</time></trkpt><trkpt lat="37.7939904" lon="14.1143177"><ele>1016.0</ele><time>2026-04-28T15:36:32.854Z</time></trkpt><trkpt lat="37.7941809" lon="14.1142961"><ele>1016.0</ele><time>2026-04-28T15:36:33.854Z</time></trkpt><trkpt lat="37.7943578" lon="14.1142525"><ele>1016.0</ele><time>2026-04-28T15:36:34.854Z</time></trkpt><trkpt lat="37.7945238" lon="14.1141706"><ele>1018.6666666666667</ele><time>2026-04-28T15:36:35.854Z</time></trkpt><trkpt lat="37.7946899" lon="14.1140464"><ele>1021.3333333333333</ele><time>2026-04-28T15:36:36.854Z</time></trkpt><trkpt lat="37.7948395" lon="14.1138935"><ele>1024.0</ele><time>2026-04-28T15:36:37.854Z</time></trkpt><trkpt lat="37.79499" lon="14.1137415"><ele>1024.0</ele><time>2026-04-28T15:36:38.854Z</time></trkpt><trkpt lat="37.7951464" lon="14.1136094"><ele>1024.0</ele><time>2026-04-28T15:36:39.854Z</time></trkpt><trkpt lat="37.7953133" lon="14.1135218"><ele>1024.0</ele><time>2026-04-28T15:36:40.854Z</time></trkpt><trkpt lat="37.7954886" lon="14.1134854"><ele>1021.6666666666666</ele><time>2026-04-28T15:36:41.854Z</time></trkpt><trkpt lat="37.7956899" lon="14.1134408"><ele>1019.3333333333333</ele><time>2026-04-28T15:36:42.854Z</time></trkpt><trkpt lat="37.7958955" lon="14.1133666"><ele>1017.0</ele><time>2026-04-28T15:36:43.854Z</time></trkpt><trkpt lat="37.796105" lon="14.1132935"><ele>1022.6666666666667</ele><time>2026-04-28T15:36:44.854Z</time></trkpt><trkpt lat="37.7963141" lon="14.1132203"><ele>1028.3333333333335</ele><time>2026-04-28T15:36:45.854Z</time></trkpt><trkpt lat="37.7965205" lon="14.1131501"><ele>1034.0</ele><time>2026-04-28T15:36:46.854Z</time></trkpt><trkpt lat="37.7967271" lon="14.1130878"><ele>1033.3333333333335</ele><time>2026-04-28T15:36:47.854Z</time></trkpt><trkpt lat="37.796938" lon="14.113039"><ele>1032.6666666666667</ele><time>2026-04-28T15:36:48.854Z</time></trkpt><trkpt lat="37.7971497" lon="14.1130044"><ele>1032.0</ele><time>2026-04-28T15:36:49.854Z</time></trkpt><trkpt lat="37.7973591" lon="14.1129846"><ele>1032.0</ele><time>2026-04-28T15:36:50.854Z</time></trkpt><trkpt lat="37.7975723" lon="14.1129687"><ele>1032.0</ele><time>2026-04-28T15:36:51.854Z</time></trkpt><trkpt lat="37.7977891" lon="14.1129304"><ele>1032.0</ele><time>2026-04-28T15:36:52.854Z</time></trkpt><trkpt lat="37.7980062" lon="14.1128791"><ele>1030.6666666666667</ele><time>2026-04-28T15:36:53.854Z</time></trkpt><trkpt lat="37.7982136" lon="14.1128229"><ele>1029.3333333333335</ele><time>2026-04-28T15:36:54.854Z</time></trkpt><trkpt lat="37.7984283" lon="14.1127602"><ele>1028.0</ele><time>2026-04-28T15:36:55.854Z</time></trkpt><trkpt lat="37.7986474" lon="14.1126998"><ele>1028.0</ele><time>2026-04-28T15:36:56.854Z</time></trkpt><trkpt lat="37.7988666" lon="14.1126396"><ele>1028.0</ele><time>2026-04-28T15:36:57.854Z</time></trkpt><trkpt lat="37.7990901" lon="14.11258"><ele>1028.0</ele><time>2026-04-28T15:36:58.854Z</time></trkpt><trkpt lat="37.7993217" lon="14.1125267"><ele>1028.0</ele><time>2026-04-28T15:36:59.854Z</time></trkpt><trkpt lat="37.7995547" lon="14.1124916"><ele>1028.5</ele><time>2026-04-28T15:37:00.854Z</time></trkpt><trkpt lat="37.7997829" lon="14.1124846"><ele>1029.0</ele><time>2026-04-28T15:37:01.854Z</time></trkpt><trkpt lat="37.80001" lon="14.1125086"><ele>1029.0</ele><time>2026-04-28T15:37:02.854Z</time></trkpt><trkpt lat="37.8002374" lon="14.1125504"><ele>1029.0</ele><time>2026-04-28T15:37:03.854Z</time></trkpt><trkpt lat="37.8004513" lon="14.1125976"><ele>1029.0</ele><time>2026-04-28T15:37:04.854Z</time></trkpt><trkpt lat="37.8006594" lon="14.1126473"><ele>1029.0</ele><time>2026-04-28T15:37:05.854Z</time></trkpt><trkpt lat="37.8008539" lon="14.1126943"><ele>1029.0</ele><time>2026-04-28T15:37:06.854Z</time></trkpt><trkpt lat="37.8010422" lon="14.1127441"><ele>1029.0</ele><time>2026-04-28T15:37:07.854Z</time></trkpt><trkpt lat="37.8012198" lon="14.1128104"><ele>1027.3333333333333</ele><time>2026-04-28T15:37:08.854Z</time></trkpt><trkpt lat="37.8014138" lon="14.1129064"><ele>1025.6666666666665</ele><time>2026-04-28T15:37:09.854Z</time></trkpt><trkpt lat="37.8015726" lon="14.113081"><ele>1024.0</ele><time>2026-04-28T15:37:10.854Z</time></trkpt><trkpt lat="37.8017174" lon="14.1132671"><ele>1032.3333333333333</ele><time>2026-04-28T15:37:11.854Z</time></trkpt><trkpt lat="37.8018523" lon="14.1134553"><ele>1040.6666666666667</ele><time>2026-04-28T15:37:12.854Z</time></trkpt><trkpt lat="37.8019778" lon="14.1136434"><ele>1049.0</ele><time>2026-04-28T15:37:13.854Z</time></trkpt><trkpt lat="37.8020949" lon="14.1138289"><ele>1049.0</ele><time>2026-04-28T15:37:14.854Z</time></trkpt><trkpt lat="37.802201" lon="14.1140123"><ele>1049.0</ele><time>2026-04-28T15:37:15.855Z</time></trkpt><trkpt lat="37.8022943" lon="14.114196"><ele>1049.0</ele><time>2026-04-28T15:37:16.854Z</time></trkpt><trkpt lat="37.8023711" lon="14.1143828"><ele>1043.0</ele><time>2026-04-28T15:37:17.854Z</time></trkpt><trkpt lat="37.802429" lon="14.1145717"><ele>1037.0</ele><time>2026-04-28T15:37:18.854Z</time></trkpt><trkpt lat="37.8024755" lon="14.1147643"><ele>1031.0</ele><time>2026-04-28T15:37:19.854Z</time></trkpt><trkpt lat="37.8025112" lon="14.1149555"><ele>1030.5</ele><time>2026-04-28T15:37:20.854Z</time></trkpt><trkpt lat="37.8025416" lon="14.1151411"><ele>1030.0</ele><time>2026-04-28T15:37:21.854Z</time></trkpt><trkpt lat="37.8025766" lon="14.115309"><ele>1029.5</ele><time>2026-04-28T15:37:22.854Z</time></trkpt><trkpt lat="37.8026284" lon="14.1154636"><ele>1029.0</ele><time>2026-04-28T15:37:23.854Z</time></trkpt><trkpt lat="37.8027012" lon="14.1155976"><ele>1029.0</ele><time>2026-04-28T15:37:24.854Z</time></trkpt><trkpt lat="37.8027904" lon="14.1157037"><ele>1029.0</ele><time>2026-04-28T15:37:25.854Z</time></trkpt><trkpt lat="37.8029001" lon="14.1157988"><ele>1029.0</ele><time>2026-04-28T15:37:26.854Z</time></trkpt><trkpt lat="37.8030279" lon="14.1158776"><ele>1029.0</ele><time>2026-04-28T15:37:27.854Z</time></trkpt><trkpt lat="37.8031744" lon="14.1159292"><ele>1022.6666666666667</ele><time>2026-04-28T15:37:28.854Z</time></trkpt><trkpt lat="37.8033266" lon="14.1159422"><ele>1016.3333333333334</ele><time>2026-04-28T15:37:29.854Z</time></trkpt><trkpt lat="37.8034958" lon="14.1159172"><ele>1010.0</ele><time>2026-04-28T15:37:30.854Z</time></trkpt><trkpt lat="37.8036843" lon="14.1158763"><ele>1009.0</ele><time>2026-04-28T15:37:31.854Z</time></trkpt><trkpt lat="37.8038782" lon="14.1158312"><ele>1008.0</ele><time>2026-04-28T15:37:32.854Z</time></trkpt><trkpt lat="37.8040663" lon="14.1158123"><ele>1007.0</ele><time>2026-04-28T15:37:33.854Z</time></trkpt><trkpt lat="37.8042288" lon="14.1158376"><ele>1008.25</ele><time>2026-04-28T15:37:34.854Z</time></trkpt><trkpt lat="37.8043588" lon="14.1159171"><ele>1009.5</ele><time>2026-04-28T15:37:35.854Z</time></trkpt><trkpt lat="37.8044433" lon="14.1160372"><ele>1010.75</ele><time>2026-04-28T15:37:36.854Z</time></trkpt><trkpt lat="37.8044952" lon="14.1161823"><ele>1012.0</ele><time>2026-04-28T15:37:37.854Z</time></trkpt><trkpt lat="37.8045326" lon="14.1163736"><ele>1009.6666666666666</ele><time>2026-04-28T15:37:38.854Z</time></trkpt><trkpt lat="37.8045714" lon="14.1166013"><ele>1007.3333333333333</ele><time>2026-04-28T15:37:39.854Z</time></trkpt><trkpt lat="37.8046159" lon="14.1168442"><ele>1005.0</ele><time>2026-04-28T15:37:40.854Z</time></trkpt><trkpt lat="37.8046568" lon="14.1170977"><ele>1005.0</ele><time>2026-04-28T15:37:41.854Z</time></trkpt><trkpt lat="37.8046706" lon="14.1173667"><ele>1005.0</ele><time>2026-04-28T15:37:42.854Z</time></trkpt><trkpt lat="37.8046338" lon="14.1176254"><ele>1005.0</ele><time>2026-04-28T15:37:43.854Z</time></trkpt><trkpt lat="37.8045919" lon="14.1178678"><ele>1004.6666666666667</ele><time>2026-04-28T15:37:44.854Z</time></trkpt><trkpt lat="37.8045516" lon="14.1180979"><ele>1004.3333333333334</ele><time>2026-04-28T15:37:45.854Z</time></trkpt><trkpt lat="37.8045447" lon="14.1183251"><ele>1004.0</ele><time>2026-04-28T15:37:46.854Z</time></trkpt><trkpt lat="37.8045789" lon="14.1185384"><ele>1006.0</ele><time>2026-04-28T15:37:47.854Z</time></trkpt><trkpt lat="37.8046605" lon="14.118751"><ele>1008.0</ele><time>2026-04-28T15:37:48.854Z</time></trkpt><trkpt lat="37.8047654" lon="14.1189694"><ele>1010.0</ele><time>2026-04-28T15:37:49.854Z</time></trkpt><trkpt lat="37.8048784" lon="14.1192022"><ele>1010.3333333333334</ele><time>2026-04-28T15:37:50.854Z</time></trkpt><trkpt lat="37.8050039" lon="14.1194325"><ele>1010.6666666666667</ele><time>2026-04-28T15:37:51.854Z</time></trkpt><trkpt lat="37.8051373" lon="14.1196549"><ele>1011.0</ele><time>2026-04-28T15:37:52.854Z</time></trkpt><trkpt lat="37.8052813" lon="14.1198561"><ele>1013.3333333333333</ele><time>2026-04-28T15:37:53.854Z</time></trkpt><trkpt lat="37.8054275" lon="14.1200457"><ele>1015.6666666666666</ele><time>2026-04-28T15:37:54.854Z</time></trkpt><trkpt lat="37.805567" lon="14.1202278"><ele>1018.0</ele><time>2026-04-28T15:37:55.854Z</time></trkpt><trkpt lat="37.8056872" lon="14.1204058"><ele>1018.0</ele><time>2026-04-28T15:37:56.854Z</time></trkpt><trkpt lat="37.8057838" lon="14.1205794"><ele>1018.0</ele><time>2026-04-28T15:37:57.854Z</time></trkpt><trkpt lat="37.8058363" lon="14.1207847"><ele>1018.0</ele><time>2026-04-28T15:37:58.854Z</time></trkpt><trkpt lat="37.8058592" lon="14.1210048"><ele>1016.6666666666666</ele><time>2026-04-28T15:37:59.854Z</time></trkpt><trkpt lat="37.8058785" lon="14.1212524"><ele>1015.3333333333333</ele><time>2026-04-28T15:38:00.854Z</time></trkpt><trkpt lat="37.805899" lon="14.1215119"><ele>1014.0</ele><time>2026-04-28T15:38:01.854Z</time></trkpt><trkpt lat="37.8059186" lon="14.1217783"><ele>1014.0</ele><time>2026-04-28T15:38:02.854Z</time></trkpt><trkpt lat="37.8059388" lon="14.1220502"><ele>1014.0</ele><time>2026-04-28T15:38:03.854Z</time></trkpt><trkpt lat="37.8059521" lon="14.1223238"><ele>1014.0</ele><time>2026-04-28T15:38:04.854Z</time></trkpt><trkpt lat="37.8059588" lon="14.1225965"><ele>1014.0</ele><time>2026-04-28T15:38:05.854Z</time></trkpt><trkpt lat="37.8059645" lon="14.1228666"><ele>1014.0</ele><time>2026-04-28T15:38:06.854Z</time></trkpt><trkpt lat="37.8059845" lon="14.1231343"><ele>1014.0</ele><time>2026-04-28T15:38:07.854Z</time></trkpt><trkpt lat="37.8060356" lon="14.1233989"><ele>1017.6666666666667</ele><time>2026-04-28T15:38:08.854Z</time></trkpt><trkpt lat="37.8061185" lon="14.1236481"><ele>1021.3333333333334</ele><time>2026-04-28T15:38:09.854Z</time></trkpt><trkpt lat="37.8062253" lon="14.1238625"><ele>1025.0</ele><time>2026-04-28T15:38:10.854Z</time></trkpt><trkpt lat="37.8063363" lon="14.124073"><ele>1025.0</ele><time>2026-04-28T15:38:11.854Z</time></trkpt><trkpt lat="37.8064303" lon="14.1242845"><ele>1025.0</ele><time>2026-04-28T15:38:12.854Z</time></trkpt><trkpt lat="37.8064683" lon="14.124518"><ele>1025.0</ele><time>2026-04-28T15:38:13.854Z</time></trkpt><trkpt lat="37.8064695" lon="14.1247609"><ele>1026.0</ele><time>2026-04-28T15:38:14.854Z</time></trkpt><trkpt lat="37.8064454" lon="14.1250084"><ele>1027.0</ele><time>2026-04-28T15:38:15.854Z</time></trkpt><trkpt lat="37.806386" lon="14.1252627"><ele>1028.0</ele><time>2026-04-28T15:38:16.854Z</time></trkpt><trkpt lat="37.8063124" lon="14.125501"><ele>1029.6666666666667</ele><time>2026-04-28T15:38:17.854Z</time></trkpt><trkpt lat="37.8062281" lon="14.1257341"><ele>1031.3333333333333</ele><time>2026-04-28T15:38:18.854Z</time></trkpt><trkpt lat="37.8061472" lon="14.1259472"><ele>1033.0</ele><time>2026-04-28T15:38:19.854Z</time></trkpt><trkpt lat="37.8060759" lon="14.1261548"><ele>1033.0</ele><time>2026-04-28T15:38:20.854Z</time></trkpt><trkpt lat="37.8060229" lon="14.1263606"><ele>1033.0</ele><time>2026-04-28T15:38:21.854Z</time></trkpt><trkpt lat="37.8060093" lon="14.1265676"><ele>1033.0</ele><time>2026-04-28T15:38:22.854Z</time></trkpt><trkpt lat="37.8060209" lon="14.1267859"><ele>1032.6666666666665</ele><time>2026-04-28T15:38:23.854Z</time></trkpt><trkpt lat="37.8060717" lon="14.126993"><ele>1032.3333333333333</ele><time>2026-04-28T15:38:24.854Z</time></trkpt><trkpt lat="37.8061469" lon="14.1271915"><ele>1032.0</ele><time>2026-04-28T15:38:25.854Z</time></trkpt><trkpt lat="37.8062482" lon="14.1273525"><ele>1028.6666666666667</ele><time>2026-04-28T15:38:26.854Z</time></trkpt><trkpt lat="37.8063663" lon="14.1274819"><ele>1025.3333333333335</ele><time>2026-04-28T15:38:27.855Z</time></trkpt><trkpt lat="37.8064961" lon="14.1275819"><ele>1022.0</ele><time>2026-04-28T15:38:28.854Z</time></trkpt><trkpt lat="37.8066366" lon="14.1276479"><ele>1022.0</ele><time>2026-04-28T15:38:29.854Z</time></trkpt><trkpt lat="37.8067748" lon="14.127687"><ele>1022.0</ele><time>2026-04-28T15:38:30.854Z</time></trkpt><trkpt lat="37.8069081" lon="14.1277094"><ele>1022.0</ele><time>2026-04-28T15:38:31.854Z</time></trkpt><trkpt lat="37.8070367" lon="14.127728"><ele>1022.0</ele><time>2026-04-28T15:38:32.854Z</time></trkpt><trkpt lat="37.8071545" lon="14.1277623"><ele>1023.0</ele><time>2026-04-28T15:38:33.854Z</time></trkpt><trkpt lat="37.8072628" lon="14.1278306"><ele>1024.0</ele><time>2026-04-28T15:38:34.854Z</time></trkpt><trkpt lat="37.8073517" lon="14.1279324"><ele>1025.0</ele><time>2026-04-28T15:38:35.855Z</time></trkpt><trkpt lat="37.8074254" lon="14.1280658"><ele>1026.0</ele><time>2026-04-28T15:38:36.855Z</time></trkpt><trkpt lat="37.807482" lon="14.128227"><ele>1022.6666666666667</ele><time>2026-04-28T15:38:37.854Z</time></trkpt><trkpt lat="37.8075271" lon="14.1284036"><ele>1019.3333333333334</ele><time>2026-04-28T15:38:38.854Z</time></trkpt><trkpt lat="37.8075636" lon="14.1285969"><ele>1016.0</ele><time>2026-04-28T15:38:39.854Z</time></trkpt><trkpt lat="37.8075891" lon="14.1287874"><ele>1016.0</ele><time>2026-04-28T15:38:40.854Z</time></trkpt><trkpt lat="37.807597" lon="14.1289712"><ele>1016.0</ele><time>2026-04-28T15:38:41.854Z</time></trkpt><trkpt lat="37.8076001" lon="14.1291428"><ele>1016.0</ele><time>2026-04-28T15:38:42.854Z</time></trkpt><trkpt lat="37.807606" lon="14.1293168"><ele>1016.0</ele><time>2026-04-28T15:38:43.854Z</time></trkpt><trkpt lat="37.8076333" lon="14.129494"><ele>1015.6666666666667</ele><time>2026-04-28T15:38:44.854Z</time></trkpt><trkpt lat="37.8076989" lon="14.1296661"><ele>1015.3333333333333</ele><time>2026-04-28T15:38:45.854Z</time></trkpt><trkpt lat="37.8077984" lon="14.1298146"><ele>1015.0</ele><time>2026-04-28T15:38:46.854Z</time></trkpt><trkpt lat="37.8079159" lon="14.1299262"><ele>1015.0</ele><time>2026-04-28T15:38:47.854Z</time></trkpt><trkpt lat="37.80805" lon="14.1300074"><ele>1015.0</ele><time>2026-04-28T15:38:48.854Z</time></trkpt><trkpt lat="37.8081912" lon="14.1300837"><ele>1015.0</ele><time>2026-04-28T15:38:49.854Z</time></trkpt><trkpt lat="37.8083364" lon="14.1301647"><ele>1015.0</ele><time>2026-04-28T15:38:50.854Z</time></trkpt><trkpt lat="37.808479" lon="14.1302474"><ele>1015.0</ele><time>2026-04-28T15:38:51.854Z</time></trkpt><trkpt lat="37.8086176" lon="14.130337"><ele>1015.0</ele><time>2026-04-28T15:38:52.854Z</time></trkpt><trkpt lat="37.8087507" lon="14.1304339"><ele>1014.6666666666666</ele><time>2026-04-28T15:38:53.854Z</time></trkpt><trkpt lat="37.8088704" lon="14.1305563"><ele>1014.3333333333333</ele><time>2026-04-28T15:38:54.854Z</time></trkpt><trkpt lat="37.8089724" lon="14.1307162"><ele>1014.0</ele><time>2026-04-28T15:38:55.854Z</time></trkpt><trkpt lat="37.8090539" lon="14.130895"><ele>1014.0</ele><time>2026-04-28T15:38:56.854Z</time></trkpt><trkpt lat="37.8091206" lon="14.131107"><ele>1014.0</ele><time>2026-04-28T15:38:57.854Z</time></trkpt><trkpt lat="37.8091819" lon="14.1313459"><ele>1014.0</ele><time>2026-04-28T15:38:58.854Z</time></trkpt><trkpt lat="37.809259" lon="14.1316108"><ele>1016.0</ele><time>2026-04-28T15:38:59.854Z</time></trkpt><trkpt lat="37.8093343" lon="14.1318908"><ele>1018.0</ele><time>2026-04-28T15:39:00.854Z</time></trkpt><trkpt lat="37.8094093" lon="14.1321882"><ele>1017.0</ele><time>2026-04-28T15:39:01.854Z</time></trkpt><trkpt lat="37.8094786" lon="14.1324776"><ele>1016.0</ele><time>2026-04-28T15:39:02.854Z</time></trkpt><trkpt lat="37.8095434" lon="14.1327498"><ele>1016.0</ele><time>2026-04-28T15:39:03.854Z</time></trkpt><trkpt lat="37.8096075" lon="14.133007"><ele>1016.0</ele><time>2026-04-28T15:39:04.855Z</time></trkpt><trkpt lat="37.8096734" lon="14.1332467"><ele>1016.0</ele><time>2026-04-28T15:39:05.854Z</time></trkpt><trkpt lat="37.8097634" lon="14.1334598"><ele>1014.3333333333334</ele><time>2026-04-28T15:39:06.854Z</time></trkpt><trkpt lat="37.8098821" lon="14.1336255"><ele>1012.6666666666667</ele><time>2026-04-28T15:39:07.854Z</time></trkpt><trkpt lat="37.810018" lon="14.1337494"><ele>1011.0</ele><time>2026-04-28T15:39:08.854Z</time></trkpt><trkpt lat="37.8101752" lon="14.1338355"><ele>1014.6666666666667</ele><time>2026-04-28T15:39:09.854Z</time></trkpt><trkpt lat="37.8103393" lon="14.1339001"><ele>1018.3333333333334</ele><time>2026-04-28T15:39:10.854Z</time></trkpt><trkpt lat="37.8105063" lon="14.1339577"><ele>1022.0</ele><time>2026-04-28T15:39:11.854Z</time></trkpt><trkpt lat="37.8106664" lon="14.1340317"><ele>1022.0</ele><time>2026-04-28T15:39:12.854Z</time></trkpt><trkpt lat="37.8108173" lon="14.1341364"><ele>1022.0</ele><time>2026-04-28T15:39:13.854Z</time></trkpt><trkpt lat="37.8109538" lon="14.1342755"><ele>1022.0</ele><time>2026-04-28T15:39:14.854Z</time></trkpt><trkpt lat="37.8110704" lon="14.1344405"><ele>1022.0</ele><time>2026-04-28T15:39:15.854Z</time></trkpt><trkpt lat="37.8111763" lon="14.1346165"><ele>1022.0</ele><time>2026-04-28T15:39:16.854Z</time></trkpt><trkpt lat="37.8112792" lon="14.1347917"><ele>1022.0</ele><time>2026-04-28T15:39:17.854Z</time></trkpt><trkpt lat="37.8113794" lon="14.1349657"><ele>1019.6666666666667</ele><time>2026-04-28T15:39:18.854Z</time></trkpt><trkpt lat="37.8114811" lon="14.1351324"><ele>1017.3333333333333</ele><time>2026-04-28T15:39:19.854Z</time></trkpt><trkpt lat="37.8115817" lon="14.1352901"><ele>1015.0</ele><time>2026-04-28T15:39:20.854Z</time></trkpt><trkpt lat="37.8116915" lon="14.1354237"><ele>1016.0</ele><time>2026-04-28T15:39:21.854Z</time></trkpt><trkpt lat="37.8118285" lon="14.1355304"><ele>1017.0</ele><time>2026-04-28T15:39:22.854Z</time></trkpt><trkpt lat="37.8119837" lon="14.1356013"><ele>1018.0</ele><time>2026-04-28T15:39:23.854Z</time></trkpt><trkpt lat="37.8121608" lon="14.1356338"><ele>1018.0</ele><time>2026-04-28T15:39:24.854Z</time></trkpt><trkpt lat="37.8123355" lon="14.135643"><ele>1018.0</ele><time>2026-04-28T15:39:25.854Z</time></trkpt><trkpt lat="37.8125142" lon="14.1356354"><ele>1018.0</ele><time>2026-04-28T15:39:26.854Z</time></trkpt><trkpt lat="37.8126821" lon="14.1356251"><ele>1017.6666666666666</ele><time>2026-04-28T15:39:27.854Z</time></trkpt><trkpt lat="37.8128449" lon="14.1356217"><ele>1017.3333333333333</ele><time>2026-04-28T15:39:28.854Z</time></trkpt><trkpt lat="37.8130015" lon="14.1356216"><ele>1017.0</ele><time>2026-04-28T15:39:29.854Z</time></trkpt><trkpt lat="37.8131511" lon="14.135625"><ele>1017.0</ele><time>2026-04-28T15:39:30.854Z</time></trkpt><trkpt lat="37.8132986" lon="14.1356562"><ele>1017.0</ele><time>2026-04-28T15:39:31.854Z</time></trkpt><trkpt lat="37.8134354" lon="14.1357309"><ele>1017.0</ele><time>2026-04-28T15:39:32.854Z</time></trkpt><trkpt lat="37.8135615" lon="14.1358564"><ele>1016.6666666666667</ele><time>2026-04-28T15:39:33.854Z</time></trkpt><trkpt lat="37.8136824" lon="14.1360124"><ele>1016.3333333333334</ele><time>2026-04-28T15:39:34.854Z</time></trkpt><trkpt lat="37.8137806" lon="14.1361875"><ele>1016.0</ele><time>2026-04-28T15:39:35.854Z</time></trkpt><trkpt lat="37.8138471" lon="14.1363723"><ele>1013.3333333333334</ele><time>2026-04-28T15:39:36.854Z</time></trkpt><trkpt lat="37.8138738" lon="14.1365734"><ele>1010.6666666666667</ele><time>2026-04-28T15:39:37.854Z</time></trkpt><trkpt lat="37.8138683" lon="14.136772"><ele>1008.0</ele><time>2026-04-28T15:39:38.854Z</time></trkpt><trkpt lat="37.8138501" lon="14.13697"><ele>1008.0</ele><time>2026-04-28T15:39:39.854Z</time></trkpt><trkpt lat="37.813844" lon="14.137156"><ele>1008.0</ele><time>2026-04-28T15:39:40.854Z</time></trkpt><trkpt lat="37.8138595" lon="14.137334"><ele>1008.0</ele><time>2026-04-28T15:39:41.854Z</time></trkpt><trkpt lat="37.8139075" lon="14.1374915"><ele>1008.0</ele><time>2026-04-28T15:39:42.854Z</time></trkpt><trkpt lat="37.8139971" lon="14.1376239"><ele>1007.75</ele><time>2026-04-28T15:39:43.854Z</time></trkpt><trkpt lat="37.8141106" lon="14.1377296"><ele>1007.5</ele><time>2026-04-28T15:39:44.854Z</time></trkpt><trkpt lat="37.8142244" lon="14.1378103"><ele>1007.25</ele><time>2026-04-28T15:39:45.854Z</time></trkpt><trkpt lat="37.8143418" lon="14.1378915"><ele>1007.0</ele><time>2026-04-28T15:39:46.854Z</time></trkpt><trkpt lat="37.8144566" lon="14.1379882"><ele>1007.0</ele><time>2026-04-28T15:39:47.854Z</time></trkpt><trkpt lat="37.8145471" lon="14.1381331"><ele>1007.0</ele><time>2026-04-28T15:39:48.854Z</time></trkpt><trkpt lat="37.8145924" lon="14.1383183"><ele>1007.0</ele><time>2026-04-28T15:39:49.854Z</time></trkpt><trkpt lat="37.8146144" lon="14.1385022"><ele>1007.0</ele><time>2026-04-28T15:39:50.854Z</time></trkpt><trkpt lat="37.8146435" lon="14.1386852"><ele>1005.0</ele><time>2026-04-28T15:39:51.854Z</time></trkpt><trkpt lat="37.8147093" lon="14.1388663"><ele>1003.0</ele><time>2026-04-28T15:39:52.854Z</time></trkpt><trkpt lat="37.8147914" lon="14.1390459"><ele>1001.0</ele><time>2026-04-28T15:39:53.854Z</time></trkpt><trkpt lat="37.8148776" lon="14.1392052"><ele>998.3333333333334</ele><time>2026-04-28T15:39:54.854Z</time></trkpt><trkpt lat="37.8149615" lon="14.1393675"><ele>995.6666666666667</ele><time>2026-04-28T15:39:55.854Z</time></trkpt><trkpt lat="37.8150406" lon="14.1395397"><ele>993.0</ele><time>2026-04-28T15:39:56.854Z</time></trkpt><trkpt lat="37.8151115" lon="14.1397304"><ele>996.6666666666667</ele><time>2026-04-28T15:39:57.854Z</time></trkpt><trkpt lat="37.8151637" lon="14.139938"><ele>1000.3333333333334</ele><time>2026-04-28T15:39:58.854Z</time></trkpt><trkpt lat="37.8151844" lon="14.1401497"><ele>1004.0</ele><time>2026-04-28T15:39:59.854Z</time></trkpt><trkpt lat="37.8151855" lon="14.1403581"><ele>1004.0</ele><time>2026-04-28T15:40:00.854Z</time></trkpt><trkpt lat="37.8151906" lon="14.140564"><ele>1004.0</ele><time>2026-04-28T15:40:01.854Z</time></trkpt><trkpt lat="37.8152197" lon="14.1407674"><ele>1004.0</ele><time>2026-04-28T15:40:02.854Z</time></trkpt><trkpt lat="37.8152975" lon="14.1409586"><ele>1000.6666666666667</ele><time>2026-04-28T15:40:03.854Z</time></trkpt><trkpt lat="37.8154113" lon="14.1411212"><ele>997.3333333333333</ele><time>2026-04-28T15:40:04.854Z</time></trkpt><trkpt lat="37.8155445" lon="14.1412642"><ele>994.0</ele><time>2026-04-28T15:40:05.854Z</time></trkpt><trkpt lat="37.815683" lon="14.1413946"><ele>994.0</ele><time>2026-04-28T15:40:06.854Z</time></trkpt><trkpt lat="37.8158336" lon="14.1415221"><ele>994.0</ele><time>2026-04-28T15:40:07.854Z</time></trkpt><trkpt lat="37.816" lon="14.1416317"><ele>994.0</ele><time>2026-04-28T15:40:08.854Z</time></trkpt><trkpt lat="37.8161917" lon="14.1417343"><ele>992.0</ele><time>2026-04-28T15:40:09.854Z</time></trkpt><trkpt lat="37.8164052" lon="14.1418398"><ele>990.0</ele><time>2026-04-28T15:40:10.854Z</time></trkpt><trkpt lat="37.8166263" lon="14.1419379"><ele>992.3333333333333</ele><time>2026-04-28T15:40:11.854Z</time></trkpt><trkpt lat="37.8168376" lon="14.1420454"><ele>994.6666666666666</ele><time>2026-04-28T15:40:12.854Z</time></trkpt><trkpt lat="37.8170272" lon="14.1421703"><ele>997.0</ele><time>2026-04-28T15:40:13.854Z</time></trkpt><trkpt lat="37.8171848" lon="14.1423256"><ele>994.3333333333333</ele><time>2026-04-28T15:40:14.854Z</time></trkpt><trkpt lat="37.8172932" lon="14.1425116"><ele>991.6666666666667</ele><time>2026-04-28T15:40:15.854Z</time></trkpt><trkpt lat="37.8173666" lon="14.1427126"><ele>989.0</ele><time>2026-04-28T15:40:16.854Z</time></trkpt><trkpt lat="37.8174381" lon="14.1429098"><ele>989.0</ele><time>2026-04-28T15:40:17.854Z</time></trkpt><trkpt lat="37.8175211" lon="14.1430797"><ele>989.0</ele><time>2026-04-28T15:40:18.854Z</time></trkpt><trkpt lat="37.8176312" lon="14.1431969"><ele>989.0</ele><time>2026-04-28T15:40:19.854Z</time></trkpt><trkpt lat="37.8177832" lon="14.1432672"><ele>988.3333333333334</ele><time>2026-04-28T15:40:20.854Z</time></trkpt><trkpt lat="37.817956" lon="14.1433219"><ele>987.6666666666667</ele><time>2026-04-28T15:40:21.854Z</time></trkpt><trkpt lat="37.8181247" lon="14.1433748"><ele>987.0</ele><time>2026-04-28T15:40:22.854Z</time></trkpt><trkpt lat="37.8182721" lon="14.143451"><ele>987.0</ele><time>2026-04-28T15:40:23.855Z</time></trkpt><trkpt lat="37.8183846" lon="14.1435644"><ele>987.0</ele><time>2026-04-28T15:40:24.854Z</time></trkpt><trkpt lat="37.8184582" lon="14.1437131"><ele>987.0</ele><time>2026-04-28T15:40:25.854Z</time></trkpt><trkpt lat="37.8184922" lon="14.143899"><ele>987.0</ele><time>2026-04-28T15:40:26.854Z</time></trkpt><trkpt lat="37.8184757" lon="14.1441128"><ele>984.0</ele><time>2026-04-28T15:40:27.854Z</time></trkpt><trkpt lat="37.8184371" lon="14.1443398"><ele>981.0</ele><time>2026-04-28T15:40:28.854Z</time></trkpt><trkpt lat="37.818423" lon="14.144573"><ele>978.0</ele><time>2026-04-28T15:40:29.854Z</time></trkpt><trkpt lat="37.8184517" lon="14.1448269"><ele>982.6666666666667</ele><time>2026-04-28T15:40:30.854Z</time></trkpt><trkpt lat="37.8185216" lon="14.1450772"><ele>987.3333333333334</ele><time>2026-04-28T15:40:31.854Z</time></trkpt><trkpt lat="37.8186189" lon="14.1453299"><ele>992.0</ele><time>2026-04-28T15:40:32.854Z</time></trkpt><trkpt lat="37.8187321" lon="14.1456021"><ele>989.0</ele><time>2026-04-28T15:40:33.854Z</time></trkpt><trkpt lat="37.8188443" lon="14.145891"><ele>986.0</ele><time>2026-04-28T15:40:34.854Z</time></trkpt><trkpt lat="37.8189633" lon="14.1461946"><ele>986.0</ele><time>2026-04-28T15:40:35.854Z</time></trkpt><trkpt lat="37.8190873" lon="14.1465084"><ele>986.0</ele><time>2026-04-28T15:40:36.854Z</time></trkpt><trkpt lat="37.8192135" lon="14.1468292"><ele>988.0</ele><time>2026-04-28T15:40:37.854Z</time></trkpt><trkpt lat="37.8193385" lon="14.1471581"><ele>990.0</ele><time>2026-04-28T15:40:38.854Z</time></trkpt><trkpt lat="37.8194654" lon="14.1474929"><ele>990.0</ele><time>2026-04-28T15:40:39.854Z</time></trkpt><trkpt lat="37.8195973" lon="14.1478326"><ele>990.0</ele><time>2026-04-28T15:40:40.854Z</time></trkpt><trkpt lat="37.8197346" lon="14.1481794"><ele>986.5</ele><time>2026-04-28T15:40:41.854Z</time></trkpt><trkpt lat="37.8198772" lon="14.1485251"><ele>983.0</ele><time>2026-04-28T15:40:42.854Z</time></trkpt><trkpt lat="37.8200205" lon="14.1488559"><ele>992.0</ele><time>2026-04-28T15:40:43.854Z</time></trkpt><trkpt lat="37.8201583" lon="14.1491587"><ele>1001.0</ele><time>2026-04-28T15:40:44.854Z</time></trkpt><trkpt lat="37.8202944" lon="14.1494371"><ele>1001.0</ele><time>2026-04-28T15:40:45.854Z</time></trkpt><trkpt lat="37.8204233" lon="14.1496921"><ele>1001.0</ele><time>2026-04-28T15:40:46.854Z</time></trkpt><trkpt lat="37.8205339" lon="14.1499282"><ele>997.3333333333334</ele><time>2026-04-28T15:40:47.854Z</time></trkpt><trkpt lat="37.8206276" lon="14.1501372"><ele>993.6666666666667</ele><time>2026-04-28T15:40:48.854Z</time></trkpt><trkpt lat="37.8206839" lon="14.1503382"><ele>990.0</ele><time>2026-04-28T15:40:49.854Z</time></trkpt><trkpt lat="37.8206868" lon="14.150533"><ele>990.0</ele><time>2026-04-28T15:40:50.854Z</time></trkpt><trkpt lat="37.8206513" lon="14.1507004"><ele>990.0</ele><time>2026-04-28T15:40:51.854Z</time></trkpt><trkpt lat="37.8205796" lon="14.1508307"><ele>990.0</ele><time>2026-04-28T15:40:52.855Z</time></trkpt><trkpt lat="37.8204762" lon="14.1509592"><ele>990.0</ele><time>2026-04-28T15:40:53.854Z</time></trkpt><trkpt lat="37.8203616" lon="14.1511085"><ele>990.0</ele><time>2026-04-28T15:40:54.854Z</time></trkpt><trkpt lat="37.8202412" lon="14.1512773"><ele>990.0</ele><time>2026-04-28T15:40:55.854Z</time></trkpt><trkpt lat="37.8201053" lon="14.1514646"><ele>990.0</ele><time>2026-04-28T15:40:56.854Z</time></trkpt><trkpt lat="37.8199674" lon="14.1516625"><ele>993.3333333333333</ele><time>2026-04-28T15:40:57.854Z</time></trkpt><trkpt lat="37.8198225" lon="14.1518663"><ele>996.6666666666666</ele><time>2026-04-28T15:40:58.854Z</time></trkpt><trkpt lat="37.8196727" lon="14.1520809"><ele>1000.0</ele><time>2026-04-28T15:40:59.854Z</time></trkpt><trkpt lat="37.8195193" lon="14.1523023"><ele>1001.0</ele><time>2026-04-28T15:41:00.854Z</time></trkpt><trkpt lat="37.8193602" lon="14.1525127"><ele>1002.0</ele><time>2026-04-28T15:41:01.854Z</time></trkpt><trkpt lat="37.8191915" lon="14.1527111"><ele>1002.0</ele><time>2026-04-28T15:41:02.854Z</time></trkpt><trkpt lat="37.8190221" lon="14.1528979"><ele>1002.0</ele><time>2026-04-28T15:41:03.854Z</time></trkpt><trkpt lat="37.8188623" lon="14.153081"><ele>1002.0</ele><time>2026-04-28T15:41:04.854Z</time></trkpt><trkpt lat="37.8187155" lon="14.1532548"><ele>1003.3333333333333</ele><time>2026-04-28T15:41:05.854Z</time></trkpt><trkpt lat="37.8185807" lon="14.153413"><ele>1004.6666666666666</ele><time>2026-04-28T15:41:06.854Z</time></trkpt><trkpt lat="37.8184458" lon="14.153569"><ele>1006.0</ele><time>2026-04-28T15:41:07.854Z</time></trkpt><trkpt lat="37.8183111" lon="14.1537174"><ele>1006.0</ele><time>2026-04-28T15:41:08.854Z</time></trkpt><trkpt lat="37.8181686" lon="14.1538419"><ele>1006.0</ele><time>2026-04-28T15:41:09.854Z</time></trkpt><trkpt lat="37.8180115" lon="14.1539012"><ele>1006.0</ele><time>2026-04-28T15:41:10.854Z</time></trkpt><trkpt lat="37.8178419" lon="14.1539077"><ele>1006.6666666666666</ele><time>2026-04-28T15:41:11.854Z</time></trkpt><trkpt lat="37.8176504" lon="14.1538788"><ele>1007.3333333333333</ele><time>2026-04-28T15:41:12.854Z</time></trkpt><trkpt lat="37.8174524" lon="14.1538415"><ele>1008.0</ele><time>2026-04-28T15:41:13.854Z</time></trkpt><trkpt lat="37.8172447" lon="14.1537982"><ele>1008.0</ele><time>2026-04-28T15:41:14.854Z</time></trkpt><trkpt lat="37.8170262" lon="14.1537597"><ele>1008.0</ele><time>2026-04-28T15:41:15.854Z</time></trkpt><trkpt lat="37.8168038" lon="14.1537188"><ele>1008.0</ele><time>2026-04-28T15:41:16.854Z</time></trkpt><trkpt lat="37.8165833" lon="14.153681"><ele>1009.6666666666667</ele><time>2026-04-28T15:41:17.854Z</time></trkpt><trkpt lat="37.816376" lon="14.1536489"><ele>1011.3333333333334</ele><time>2026-04-28T15:41:18.854Z</time></trkpt><trkpt lat="37.8161896" lon="14.1536209"><ele>1013.0</ele><time>2026-04-28T15:41:19.854Z</time></trkpt><trkpt lat="37.8160243" lon="14.1536034"><ele>1013.25</ele><time>2026-04-28T15:41:20.854Z</time></trkpt><trkpt lat="37.8158802" lon="14.1536062"><ele>1013.5</ele><time>2026-04-28T15:41:21.854Z</time></trkpt><trkpt lat="37.8157459" lon="14.1536427"><ele>1013.75</ele><time>2026-04-28T15:41:22.854Z</time></trkpt><trkpt lat="37.8156216" lon="14.1536972"><ele>1014.0</ele><time>2026-04-28T15:41:23.854Z</time></trkpt><trkpt lat="37.8155145" lon="14.1537592"><ele>1014.0</ele><time>2026-04-28T15:41:24.854Z</time></trkpt><trkpt lat="37.8154146" lon="14.1538178"><ele>1014.0</ele><time>2026-04-28T15:41:25.854Z</time></trkpt><trkpt lat="37.8153114" lon="14.1538721"><ele>1014.0</ele><time>2026-04-28T15:41:26.854Z</time></trkpt><trkpt lat="37.8151966" lon="14.1539384"><ele>1014.0</ele><time>2026-04-28T15:41:27.854Z</time></trkpt><trkpt lat="37.8150701" lon="14.1540088"><ele>1016.8000000000001</ele><time>2026-04-28T15:41:28.854Z</time></trkpt><trkpt lat="37.8149603" lon="14.1540727"><ele>1019.6000000000001</ele><time>2026-04-28T15:41:29.854Z</time></trkpt><trkpt lat="37.8148853" lon="14.1541065"><ele>1022.4</ele><time>2026-04-28T15:41:30.854Z</time></trkpt><trkpt lat="37.8148056" lon="14.1540948"><ele>1025.2</ele><time>2026-04-28T15:41:33.854Z</time></trkpt><trkpt lat="37.8148843" lon="14.1541542"><ele>1028.0</ele><time>2026-04-28T15:42:08.854Z</time></trkpt><trkpt lat="37.8149669" lon="14.1541314"><ele>1028.0</ele><time>2026-04-28T15:42:09.854Z</time></trkpt><trkpt lat="37.8150548" lon="14.1541071"><ele>1028.0</ele><time>2026-04-28T15:42:10.854Z</time></trkpt><trkpt lat="37.815153" lon="14.1540871"><ele>1028.0</ele><time>2026-04-28T15:42:11.854Z</time></trkpt><trkpt lat="37.8152749" lon="14.1540697"><ele>1028.0</ele><time>2026-04-28T15:42:12.854Z</time></trkpt><trkpt lat="37.8154043" lon="14.1540606"><ele>1028.0</ele><time>2026-04-28T15:42:13.854Z</time></trkpt><trkpt lat="37.8155393" lon="14.1540632"><ele>1027.5</ele><time>2026-04-28T15:42:14.854Z</time></trkpt><trkpt lat="37.8156789" lon="14.1540778"><ele>1027.0</ele><time>2026-04-28T15:42:15.854Z</time></trkpt><trkpt lat="37.8158179" lon="14.1541212"><ele>1026.5</ele><time>2026-04-28T15:42:16.854Z</time></trkpt><trkpt lat="37.815964" lon="14.1542033"><ele>1026.0</ele><time>2026-04-28T15:42:17.854Z</time></trkpt><trkpt lat="37.8161102" lon="14.1543201"><ele>1025.0</ele><time>2026-04-28T15:42:18.854Z</time></trkpt><trkpt lat="37.8162536" lon="14.1544439"><ele>1024.0</ele><time>2026-04-28T15:42:19.854Z</time></trkpt><trkpt lat="37.8163992" lon="14.1545569"><ele>1023.0</ele><time>2026-04-28T15:42:20.854Z</time></trkpt><trkpt lat="37.8165537" lon="14.1546553"><ele>1023.0</ele><time>2026-04-28T15:42:21.854Z</time></trkpt><trkpt lat="37.8167122" lon="14.1547374"><ele>1023.0</ele><time>2026-04-28T15:42:22.854Z</time></trkpt><trkpt lat="37.8168735" lon="14.1548193"><ele>1023.0</ele><time>2026-04-28T15:42:23.854Z</time></trkpt><trkpt lat="37.8170338" lon="14.1549041"><ele>1026.6666666666667</ele><time>2026-04-28T15:42:24.854Z</time></trkpt><trkpt lat="37.8171948" lon="14.1550013"><ele>1030.3333333333335</ele><time>2026-04-28T15:42:25.855Z</time></trkpt><trkpt lat="37.8173655" lon="14.1551059"><ele>1034.0</ele><time>2026-04-28T15:42:26.854Z</time></trkpt><trkpt lat="37.8175346" lon="14.1552227"><ele>1033.3333333333335</ele><time>2026-04-28T15:42:27.854Z</time></trkpt><trkpt lat="37.8177062" lon="14.1553416"><ele>1032.6666666666667</ele><time>2026-04-28T15:42:28.854Z</time></trkpt><trkpt lat="37.8178846" lon="14.155447"><ele>1032.0</ele><time>2026-04-28T15:42:29.854Z</time></trkpt><trkpt lat="37.8180782" lon="14.1555326"><ele>1032.0</ele><time>2026-04-28T15:42:30.854Z</time></trkpt><trkpt lat="37.8182694" lon="14.1556055"><ele>1032.0</ele><time>2026-04-28T15:42:31.854Z</time></trkpt><trkpt lat="37.8184453" lon="14.1556813"><ele>1032.0</ele><time>2026-04-28T15:42:32.854Z</time></trkpt><trkpt lat="37.8186141" lon="14.1557645"><ele>1036.0</ele><time>2026-04-28T15:42:33.854Z</time></trkpt><trkpt lat="37.8187822" lon="14.1558482"><ele>1040.0</ele><time>2026-04-28T15:42:34.854Z</time></trkpt><trkpt lat="37.8189491" lon="14.1559342"><ele>1044.0</ele><time>2026-04-28T15:42:35.854Z</time></trkpt><trkpt lat="37.8191169" lon="14.1560193"><ele>1044.0</ele><time>2026-04-28T15:42:36.854Z</time></trkpt><trkpt lat="37.8192816" lon="14.1561034"><ele>1044.0</ele><time>2026-04-28T15:42:37.854Z</time></trkpt><trkpt lat="37.8194369" lon="14.1561881"><ele>1044.0</ele><time>2026-04-28T15:42:38.854Z</time></trkpt><trkpt lat="37.8195772" lon="14.1562721"><ele>1044.0</ele><time>2026-04-28T15:42:39.854Z</time></trkpt><trkpt lat="37.8197109" lon="14.1563438"><ele>1044.0</ele><time>2026-04-28T15:42:40.854Z</time></trkpt><trkpt lat="37.8198467" lon="14.1563885"><ele>1044.0</ele><time>2026-04-28T15:42:41.854Z</time></trkpt><trkpt lat="37.8199858" lon="14.156406"><ele>1044.0</ele><time>2026-04-28T15:42:42.854Z</time></trkpt><trkpt lat="37.8201175" lon="14.1564006"><ele>1047.0</ele><time>2026-04-28T15:42:43.854Z</time></trkpt><trkpt lat="37.8202449" lon="14.1563669"><ele>1050.0</ele><time>2026-04-28T15:42:44.854Z</time></trkpt><trkpt lat="37.8203617" lon="14.156307"><ele>1053.0</ele><time>2026-04-28T15:42:45.854Z</time></trkpt><trkpt lat="37.8204725" lon="14.1562379"><ele>1056.0</ele><time>2026-04-28T15:42:46.854Z</time></trkpt><trkpt lat="37.8205705" lon="14.1561614"><ele>1056.0</ele><time>2026-04-28T15:42:47.854Z</time></trkpt><trkpt lat="37.8206485" lon="14.1560645"><ele>1056.0</ele><time>2026-04-28T15:42:48.854Z</time></trkpt><trkpt lat="37.8207061" lon="14.1559507"><ele>1056.0</ele><time>2026-04-28T15:42:49.854Z</time></trkpt><trkpt lat="37.8207601" lon="14.1558308"><ele>1056.0</ele><time>2026-04-28T15:42:50.854Z</time></trkpt><trkpt lat="37.8208311" lon="14.155724"><ele>1056.0</ele><time>2026-04-28T15:42:51.854Z</time></trkpt><trkpt lat="37.8209223" lon="14.1556481"><ele>1057.5</ele><time>2026-04-28T15:42:52.854Z</time></trkpt><trkpt lat="37.8210336" lon="14.1556059"><ele>1059.0</ele><time>2026-04-28T15:42:53.854Z</time></trkpt><trkpt lat="37.8211508" lon="14.1555941"><ele>1060.5</ele><time>2026-04-28T15:42:54.854Z</time></trkpt><trkpt lat="37.8212682" lon="14.1555959"><ele>1062.0</ele><time>2026-04-28T15:42:55.854Z</time></trkpt><trkpt lat="37.8213792" lon="14.1555959"><ele>1062.0</ele><time>2026-04-28T15:42:56.854Z</time></trkpt><trkpt lat="37.8214838" lon="14.1555781"><ele>1062.0</ele><time>2026-04-28T15:42:57.854Z</time></trkpt><trkpt lat="37.8215779" lon="14.1555339"><ele>1062.0</ele><time>2026-04-28T15:42:58.854Z</time></trkpt><trkpt lat="37.8216641" lon="14.1554491"><ele>1062.0</ele><time>2026-04-28T15:42:59.854Z</time></trkpt><trkpt lat="37.8217283" lon="14.1553378"><ele>1062.0</ele><time>2026-04-28T15:43:00.854Z</time></trkpt><trkpt lat="37.8217693" lon="14.1552102"><ele>1062.0</ele><time>2026-04-28T15:43:01.854Z</time></trkpt><trkpt lat="37.8218048" lon="14.1550794"><ele>1062.0</ele><time>2026-04-28T15:43:02.854Z</time></trkpt><trkpt lat="37.8218503" lon="14.1549604"><ele>1062.0</ele><time>2026-04-28T15:43:03.854Z</time></trkpt><trkpt lat="37.8219129" lon="14.1548653"><ele>1062.0</ele><time>2026-04-28T15:43:04.854Z</time></trkpt><trkpt lat="37.8220022" lon="14.1548044"><ele>1062.0</ele><time>2026-04-28T15:43:05.855Z</time></trkpt><trkpt lat="37.8221086" lon="14.1547849"><ele>1061.75</ele><time>2026-04-28T15:43:06.854Z</time></trkpt><trkpt lat="37.8222226" lon="14.1547964"><ele>1061.5</ele><time>2026-04-28T15:43:07.854Z</time></trkpt><trkpt lat="37.8223491" lon="14.1548329"><ele>1061.25</ele><time>2026-04-28T15:43:08.854Z</time></trkpt><trkpt lat="37.8224958" lon="14.1548896"><ele>1061.0</ele><time>2026-04-28T15:43:09.854Z</time></trkpt><trkpt lat="37.8226577" lon="14.1549641"><ele>1061.0</ele><time>2026-04-28T15:43:10.854Z</time></trkpt><trkpt lat="37.8228295" lon="14.155065"><ele>1061.0</ele><time>2026-04-28T15:43:11.854Z</time></trkpt><trkpt lat="37.8229964" lon="14.1551976"><ele>1061.0</ele><time>2026-04-28T15:43:12.854Z</time></trkpt><trkpt lat="37.8231353" lon="14.1553518"><ele>1061.0</ele><time>2026-04-28T15:43:13.854Z</time></trkpt><trkpt lat="37.823247" lon="14.1555044"><ele>1061.0</ele><time>2026-04-28T15:43:14.854Z</time></trkpt><trkpt lat="37.8233486" lon="14.1556412"><ele>1061.0</ele><time>2026-04-28T15:43:15.854Z</time></trkpt><trkpt lat="37.8234613" lon="14.1557465"><ele>1064.25</ele><time>2026-04-28T15:43:16.854Z</time></trkpt><trkpt lat="37.8235942" lon="14.1557986"><ele>1067.5</ele><time>2026-04-28T15:43:17.854Z</time></trkpt><trkpt lat="37.8237329" lon="14.1557881"><ele>1070.75</ele><time>2026-04-28T15:43:18.854Z</time></trkpt><trkpt lat="37.8238752" lon="14.1557343"><ele>1074.0</ele><time>2026-04-28T15:43:19.854Z</time></trkpt><trkpt lat="37.8240053" lon="14.1556356"><ele>1074.0</ele><time>2026-04-28T15:43:20.854Z</time></trkpt><trkpt lat="37.8241194" lon="14.1555063"><ele>1074.0</ele><time>2026-04-28T15:43:21.854Z</time></trkpt><trkpt lat="37.824209" lon="14.1553387"><ele>1074.0</ele><time>2026-04-28T15:43:22.854Z</time></trkpt><trkpt lat="37.8242752" lon="14.155132"><ele>1075.0</ele><time>2026-04-28T15:43:23.854Z</time></trkpt><trkpt lat="37.8243315" lon="14.154917"><ele>1076.0</ele><time>2026-04-28T15:43:24.854Z</time></trkpt><trkpt lat="37.8244038" lon="14.1547161"><ele>1077.0</ele><time>2026-04-28T15:43:25.854Z</time></trkpt><trkpt lat="37.8245001" lon="14.1545349"><ele>1077.0</ele><time>2026-04-28T15:43:26.854Z</time></trkpt><trkpt lat="37.8246209" lon="14.1543856"><ele>1077.0</ele><time>2026-04-28T15:43:27.854Z</time></trkpt><trkpt lat="37.8247615" lon="14.1542845"><ele>1077.0</ele><time>2026-04-28T15:43:28.853Z</time></trkpt><trkpt lat="37.8249071" lon="14.1542567"><ele>1077.0</ele><time>2026-04-28T15:43:29.853Z</time></trkpt><trkpt lat="37.8250452" lon="14.1542797"><ele>1077.0</ele><time>2026-04-28T15:43:30.853Z</time></trkpt><trkpt lat="37.8251824" lon="14.154343"><ele>1077.0</ele><time>2026-04-28T15:43:31.853Z</time></trkpt><trkpt lat="37.8253258" lon="14.1544008"><ele>1077.0</ele><time>2026-04-28T15:43:32.853Z</time></trkpt><trkpt lat="37.8254715" lon="14.1544053"><ele>1080.6666666666667</ele><time>2026-04-28T15:43:33.853Z</time></trkpt><trkpt lat="37.8256207" lon="14.1543472"><ele>1084.3333333333335</ele><time>2026-04-28T15:43:34.853Z</time></trkpt><trkpt lat="37.8257622" lon="14.1542586"><ele>1088.0</ele><time>2026-04-28T15:43:35.853Z</time></trkpt><trkpt lat="37.8259025" lon="14.1541672"><ele>1088.0</ele><time>2026-04-28T15:43:36.853Z</time></trkpt><trkpt lat="37.8260388" lon="14.1540698"><ele>1088.0</ele><time>2026-04-28T15:43:37.853Z</time></trkpt><trkpt lat="37.8261542" lon="14.1539471"><ele>1088.0</ele><time>2026-04-28T15:43:38.853Z</time></trkpt><trkpt lat="37.8262442" lon="14.1537884"><ele>1088.0</ele><time>2026-04-28T15:43:39.853Z</time></trkpt><trkpt lat="37.8263299" lon="14.1536255"><ele>1088.0</ele><time>2026-04-28T15:43:40.853Z</time></trkpt><trkpt lat="37.8264533" lon="14.1534966"><ele>1088.0</ele><time>2026-04-28T15:43:41.853Z</time></trkpt><trkpt lat="37.826613" lon="14.1534041"><ele>1088.0</ele><time>2026-04-28T15:43:42.854Z</time></trkpt><trkpt lat="37.8267991" lon="14.1533671"><ele>1088.0</ele><time>2026-04-28T15:43:43.853Z</time></trkpt><trkpt lat="37.8269946" lon="14.1533775"><ele>1088.0</ele><time>2026-04-28T15:43:44.853Z</time></trkpt><trkpt lat="37.8271927" lon="14.1534034"><ele>1090.6666666666667</ele><time>2026-04-28T15:43:45.853Z</time></trkpt><trkpt lat="37.8273789" lon="14.1534256"><ele>1093.3333333333333</ele><time>2026-04-28T15:43:46.853Z</time></trkpt><trkpt lat="37.8275503" lon="14.1534597"><ele>1096.0</ele><time>2026-04-28T15:43:47.853Z</time></trkpt><trkpt lat="37.8277038" lon="14.1535054"><ele>1097.3999999999999</ele><time>2026-04-28T15:43:48.853Z</time></trkpt><trkpt lat="37.8278368" lon="14.1535533"><ele>1098.8</ele><time>2026-04-28T15:43:49.853Z</time></trkpt><trkpt lat="37.8279594" lon="14.1535931"><ele>1100.1999999999998</ele><time>2026-04-28T15:43:50.853Z</time></trkpt><trkpt lat="37.8280534" lon="14.1536225"><ele>1101.6</ele><time>2026-04-28T15:43:51.853Z</time></trkpt><trkpt lat="37.8281135" lon="14.1536471"><ele>1103.0</ele><time>2026-04-28T15:43:52.853Z</time></trkpt><trkpt lat="37.8281621" lon="14.1537045"><ele>1103.0</ele><time>2026-04-28T15:43:54.853Z</time></trkpt><trkpt lat="37.828168" lon="14.1537882"><ele>1103.0</ele><time>2026-04-28T15:43:57.853Z</time></trkpt><trkpt lat="37.8280941" lon="14.1537592"><ele>1103.0</ele><time>2026-04-28T15:44:09.853Z</time></trkpt><trkpt lat="37.8280212" lon="14.1537387"><ele>1103.0</ele><time>2026-04-28T15:44:11.853Z</time></trkpt><trkpt lat="37.8279278" lon="14.1538181"><ele>1103.0</ele><time>2026-04-28T15:50:49.853Z</time></trkpt><trkpt lat="37.8279429" lon="14.1539088"><ele>1103.0</ele><time>2026-04-28T15:50:53.853Z</time></trkpt><trkpt lat="37.8280388" lon="14.1539401"><ele>1103.0</ele><time>2026-04-28T15:50:55.853Z</time></trkpt><trkpt lat="37.8281152" lon="14.153902"><ele>1103.0</ele><time>2026-04-28T15:50:57.853Z</time></trkpt><trkpt lat="37.8281568" lon="14.1538226"><ele>1103.0</ele><time>2026-04-28T15:50:59.853Z</time></trkpt><trkpt lat="37.8282008" lon="14.1537567"><ele>1103.0</ele><time>2026-04-28T15:51:01.853Z</time></trkpt><trkpt lat="37.8283563" lon="14.1537015"><ele>1103.0</ele><time>2026-04-28T15:51:12.853Z</time></trkpt><trkpt lat="37.8284438" lon="14.1537087"><ele>1102.75</ele><time>2026-04-28T15:51:13.853Z</time></trkpt><trkpt lat="37.8285392" lon="14.1537223"><ele>1102.5</ele><time>2026-04-28T15:51:14.853Z</time></trkpt><trkpt lat="37.8286525" lon="14.1537211"><ele>1102.25</ele><time>2026-04-28T15:51:15.853Z</time></trkpt><trkpt lat="37.8287759" lon="14.153712"><ele>1102.0</ele><time>2026-04-28T15:51:16.854Z</time></trkpt><trkpt lat="37.8289044" lon="14.1536957"><ele>1102.0</ele><time>2026-04-28T15:51:17.853Z</time></trkpt><trkpt lat="37.8290359" lon="14.1536664"><ele>1102.0</ele><time>2026-04-28T15:51:18.853Z</time></trkpt><trkpt lat="37.8291694" lon="14.1536158"><ele>1102.0</ele><time>2026-04-28T15:51:19.853Z</time></trkpt><trkpt lat="37.8292897" lon="14.1535251"><ele>1102.0</ele><time>2026-04-28T15:51:20.853Z</time></trkpt><trkpt lat="37.829393" lon="14.1534246"><ele>1099.0</ele><time>2026-04-28T15:51:21.853Z</time></trkpt><trkpt lat="37.8294806" lon="14.1533224"><ele>1096.0</ele><time>2026-04-28T15:51:22.853Z</time></trkpt><trkpt lat="37.8295658" lon="14.1532287"><ele>1093.0</ele><time>2026-04-28T15:51:23.853Z</time></trkpt><trkpt lat="37.8296487" lon="14.1531365"><ele>1090.0</ele><time>2026-04-28T15:51:24.853Z</time></trkpt><trkpt lat="37.8297353" lon="14.1530487"><ele>1096.0</ele><time>2026-04-28T15:51:25.853Z</time></trkpt><trkpt lat="37.8298311" lon="14.1529831"><ele>1102.0</ele><time>2026-04-28T15:51:26.853Z</time></trkpt><trkpt lat="37.829932" lon="14.1529648"><ele>1108.0</ele><time>2026-04-28T15:51:27.853Z</time></trkpt><trkpt lat="37.8300433" lon="14.1529878"><ele>1114.0</ele><time>2026-04-28T15:51:28.853Z</time></trkpt><trkpt lat="37.8301674" lon="14.1530023"><ele>1120.0</ele><time>2026-04-28T15:51:29.853Z</time></trkpt><trkpt lat="37.830303" lon="14.1530127"><ele>1121.5</ele><time>2026-04-28T15:51:30.853Z</time></trkpt><trkpt lat="37.830438" lon="14.1530383"><ele>1123.0</ele><time>2026-04-28T15:51:31.853Z</time></trkpt><trkpt lat="37.8305683" lon="14.1530964"><ele>1124.5</ele><time>2026-04-28T15:51:32.853Z</time></trkpt><trkpt lat="37.830698" lon="14.1531815"><ele>1126.0</ele><time>2026-04-28T15:51:33.853Z</time></trkpt><trkpt lat="37.8308217" lon="14.1532768"><ele>1125.25</ele><time>2026-04-28T15:51:34.853Z</time></trkpt><trkpt lat="37.8309375" lon="14.1533969"><ele>1124.5</ele><time>2026-04-28T15:51:35.853Z</time></trkpt><trkpt lat="37.831021" lon="14.1535418"><ele>1123.75</ele><time>2026-04-28T15:51:36.853Z</time></trkpt><trkpt lat="37.8311078" lon="14.1536893"><ele>1123.0</ele><time>2026-04-28T15:51:37.853Z</time></trkpt><trkpt lat="37.8312123" lon="14.1538249"><ele>1123.0</ele><time>2026-04-28T15:51:38.853Z</time></trkpt><trkpt lat="37.8313468" lon="14.1539328"><ele>1123.0</ele><time>2026-04-28T15:51:39.853Z</time></trkpt><trkpt lat="37.831493" lon="14.1539785"><ele>1123.0</ele><time>2026-04-28T15:51:40.853Z</time></trkpt><trkpt lat="37.831646" lon="14.1539721"><ele>1123.0</ele><time>2026-04-28T15:51:41.853Z</time></trkpt><trkpt lat="37.8318059" lon="14.1539329"><ele>1123.0</ele><time>2026-04-28T15:51:42.853Z</time></trkpt><trkpt lat="37.831957" lon="14.1538878"><ele>1123.0</ele><time>2026-04-28T15:51:43.853Z</time></trkpt><trkpt lat="37.8320955" lon="14.1538581"><ele>1124.5</ele><time>2026-04-28T15:51:44.853Z</time></trkpt><trkpt lat="37.8322205" lon="14.1538735"><ele>1126.0</ele><time>2026-04-28T15:51:45.853Z</time></trkpt><trkpt lat="37.8323214" lon="14.1539464"><ele>1127.5</ele><time>2026-04-28T15:51:46.853Z</time></trkpt><trkpt lat="37.8323811" lon="14.1540664"><ele>1129.0</ele><time>2026-04-28T15:51:47.853Z</time></trkpt><trkpt lat="37.8324169" lon="14.154237"><ele>1122.3333333333333</ele><time>2026-04-28T15:51:48.853Z</time></trkpt><trkpt lat="37.8324536" lon="14.1544331"><ele>1115.6666666666667</ele><time>2026-04-28T15:51:49.853Z</time></trkpt><trkpt lat="37.8324982" lon="14.1546306"><ele>1109.0</ele><time>2026-04-28T15:51:50.853Z</time></trkpt><trkpt lat="37.8325577" lon="14.1547994"><ele>1109.75</ele><time>2026-04-28T15:51:51.853Z</time></trkpt><trkpt lat="37.8326563" lon="14.154928"><ele>1110.5</ele><time>2026-04-28T15:51:52.853Z</time></trkpt><trkpt lat="37.8327916" lon="14.155015"><ele>1111.25</ele><time>2026-04-28T15:51:53.853Z</time></trkpt><trkpt lat="37.8329368" lon="14.1550258"><ele>1112.0</ele><time>2026-04-28T15:51:54.853Z</time></trkpt><trkpt lat="37.8330644" lon="14.1550029"><ele>1112.0</ele><time>2026-04-28T15:51:55.853Z</time></trkpt><trkpt lat="37.8331948" lon="14.1549825"><ele>1112.0</ele><time>2026-04-28T15:51:56.853Z</time></trkpt><trkpt lat="37.8333205" lon="14.1549947"><ele>1112.0</ele><time>2026-04-28T15:51:57.853Z</time></trkpt><trkpt lat="37.8334384" lon="14.1550448"><ele>1112.0</ele><time>2026-04-28T15:51:58.853Z</time></trkpt><trkpt lat="37.8335382" lon="14.1551213"><ele>1114.25</ele><time>2026-04-28T15:51:59.853Z</time></trkpt><trkpt lat="37.8336001" lon="14.1552492"><ele>1116.5</ele><time>2026-04-28T15:52:00.853Z</time></trkpt><trkpt lat="37.8336365" lon="14.1554236"><ele>1118.75</ele><time>2026-04-28T15:52:01.853Z</time></trkpt><trkpt lat="37.833671" lon="14.1556219"><ele>1121.0</ele><time>2026-04-28T15:52:02.853Z</time></trkpt><trkpt lat="37.8336947" lon="14.155837"><ele>1121.0</ele><time>2026-04-28T15:52:03.853Z</time></trkpt><trkpt lat="37.8337013" lon="14.156051"><ele>1121.0</ele><time>2026-04-28T15:52:04.853Z</time></trkpt><trkpt lat="37.8336939" lon="14.1562611"><ele>1121.0</ele><time>2026-04-28T15:52:05.853Z</time></trkpt><trkpt lat="37.8336947" lon="14.1564491"><ele>1118.2</ele><time>2026-04-28T15:52:06.853Z</time></trkpt><trkpt lat="37.8337382" lon="14.1565962"><ele>1115.3999999999999</ele><time>2026-04-28T15:52:07.853Z</time></trkpt><trkpt lat="37.8337903" lon="14.1566691"><ele>1112.6</ele><time>2026-04-28T15:52:08.853Z</time></trkpt><trkpt lat="37.8339231" lon="14.1566776"><ele>1109.8</ele><time>2026-04-28T15:52:10.853Z</time></trkpt><trkpt lat="37.8340053" lon="14.1566493"><ele>1107.0</ele><time>2026-04-28T15:52:11.853Z</time></trkpt><trkpt lat="37.8341115" lon="14.1566182"><ele>1107.0</ele><time>2026-04-28T15:52:12.853Z</time></trkpt><trkpt lat="37.8342282" lon="14.1566123"><ele>1107.0</ele><time>2026-04-28T15:52:13.853Z</time></trkpt><trkpt lat="37.8343431" lon="14.1566408"><ele>1107.0</ele><time>2026-04-28T15:52:14.853Z</time></trkpt><trkpt lat="37.8344522" lon="14.1566973"><ele>1107.0</ele><time>2026-04-28T15:52:15.853Z</time></trkpt><trkpt lat="37.8345608" lon="14.156779"><ele>1108.3333333333333</ele><time>2026-04-28T15:52:16.854Z</time></trkpt><trkpt lat="37.834679" lon="14.1568402"><ele>1109.6666666666665</ele><time>2026-04-28T15:52:17.853Z</time></trkpt><trkpt lat="37.8348312" lon="14.1568648"><ele>1111.0</ele><time>2026-04-28T15:52:18.853Z</time></trkpt><trkpt lat="37.835003" lon="14.156865"><ele>1112.3333333333333</ele><time>2026-04-28T15:52:19.853Z</time></trkpt><trkpt lat="37.8351779" lon="14.1568568"><ele>1113.6666666666667</ele><time>2026-04-28T15:52:20.853Z</time></trkpt><trkpt lat="37.8353496" lon="14.1568496"><ele>1115.0</ele><time>2026-04-28T15:52:21.853Z</time></trkpt><trkpt lat="37.8355072" lon="14.1568553"><ele>1115.0</ele><time>2026-04-28T15:52:22.853Z</time></trkpt><trkpt lat="37.8356322" lon="14.1568863"><ele>1115.0</ele><time>2026-04-28T15:52:23.853Z</time></trkpt><trkpt lat="37.8357172" lon="14.1569566"><ele>1115.0</ele><time>2026-04-28T15:52:24.853Z</time></trkpt><trkpt lat="37.835757" lon="14.1570651"><ele>1115.0</ele><time>2026-04-28T15:52:25.853Z</time></trkpt><trkpt lat="37.8357963" lon="14.1571769"><ele>1115.0</ele><time>2026-04-28T15:52:26.853Z</time></trkpt><trkpt lat="37.8358573" lon="14.1572668"><ele>1115.0</ele><time>2026-04-28T15:52:27.853Z</time></trkpt><trkpt lat="37.8359438" lon="14.1573085"><ele>1115.0</ele><time>2026-04-28T15:52:28.853Z</time></trkpt><trkpt lat="37.8360527" lon="14.1572927"><ele>1115.0</ele><time>2026-04-28T15:52:29.853Z</time></trkpt><trkpt lat="37.8361653" lon="14.1572416"><ele>1115.0</ele><time>2026-04-28T15:52:30.853Z</time></trkpt><trkpt lat="37.8362762" lon="14.1571776"><ele>1115.0</ele><time>2026-04-28T15:52:31.853Z</time></trkpt><trkpt lat="37.8363862" lon="14.1571327"><ele>1115.5</ele><time>2026-04-28T15:52:32.853Z</time></trkpt><trkpt lat="37.8365012" lon="14.1571337"><ele>1116.0</ele><time>2026-04-28T15:52:33.853Z</time></trkpt><trkpt lat="37.8366094" lon="14.1571966"><ele>1116.5</ele><time>2026-04-28T15:52:34.853Z</time></trkpt><trkpt lat="37.8367095" lon="14.1572994"><ele>1117.0</ele><time>2026-04-28T15:52:35.853Z</time></trkpt><trkpt lat="37.836802" lon="14.1574205"><ele>1111.5</ele><time>2026-04-28T15:52:36.853Z</time></trkpt><trkpt lat="37.8368949" lon="14.1575174"><ele>1106.0</ele><time>2026-04-28T15:52:37.853Z</time></trkpt><trkpt lat="37.8370008" lon="14.1575427"><ele>1100.5</ele><time>2026-04-28T15:52:38.853Z</time></trkpt><trkpt lat="37.8371026" lon="14.157495"><ele>1095.0</ele><time>2026-04-28T15:52:39.854Z</time></trkpt><trkpt lat="37.8372015" lon="14.157395"><ele>1100.0</ele><time>2026-04-28T15:52:40.853Z</time></trkpt><trkpt lat="37.8373026" lon="14.1572761"><ele>1105.0</ele><time>2026-04-28T15:52:41.853Z</time></trkpt><trkpt lat="37.8374154" lon="14.1571676"><ele>1110.0</ele><time>2026-04-28T15:52:42.853Z</time></trkpt><trkpt lat="37.8375417" lon="14.1571127"><ele>1115.0</ele><time>2026-04-28T15:52:43.853Z</time></trkpt><trkpt lat="37.837697" lon="14.1570964"><ele>1116.6666666666667</ele><time>2026-04-28T15:52:44.853Z</time></trkpt><trkpt lat="37.8378577" lon="14.1571176"><ele>1118.3333333333333</ele><time>2026-04-28T15:52:45.853Z</time></trkpt><trkpt lat="37.838017" lon="14.1571723"><ele>1120.0</ele><time>2026-04-28T15:52:46.853Z</time></trkpt><trkpt lat="37.8381535" lon="14.1572493"><ele>1120.0</ele><time>2026-04-28T15:52:47.853Z</time></trkpt><trkpt lat="37.8382803" lon="14.1573355"><ele>1120.0</ele><time>2026-04-28T15:52:48.853Z</time></trkpt><trkpt lat="37.8384085" lon="14.1573944"><ele>1120.0</ele><time>2026-04-28T15:52:49.853Z</time></trkpt><trkpt lat="37.8385525" lon="14.1574105"><ele>1120.0</ele><time>2026-04-28T15:52:50.852Z</time></trkpt><trkpt lat="37.838707" lon="14.15738"><ele>1119.5</ele><time>2026-04-28T15:52:51.853Z</time></trkpt><trkpt lat="37.8388551" lon="14.1573176"><ele>1119.0</ele><time>2026-04-28T15:52:52.852Z</time></trkpt><trkpt lat="37.8389858" lon="14.1572429"><ele>1118.5</ele><time>2026-04-28T15:52:53.852Z</time></trkpt><trkpt lat="37.8391087" lon="14.1571714"><ele>1118.0</ele><time>2026-04-28T15:52:54.852Z</time></trkpt><trkpt lat="37.839225" lon="14.1571321"><ele>1117.75</ele><time>2026-04-28T15:52:55.853Z</time></trkpt><trkpt lat="37.8393266" lon="14.1571433"><ele>1117.5</ele><time>2026-04-28T15:52:56.852Z</time></trkpt><trkpt lat="37.8394081" lon="14.1572143"><ele>1117.25</ele><time>2026-04-28T15:52:57.852Z</time></trkpt><trkpt lat="37.83949" lon="14.1573347"><ele>1117.0</ele><time>2026-04-28T15:52:58.852Z</time></trkpt><trkpt lat="37.8395842" lon="14.1574437"><ele>1112.8</ele><time>2026-04-28T15:52:59.852Z</time></trkpt><trkpt lat="37.8396773" lon="14.1575219"><ele>1108.6</ele><time>2026-04-28T15:53:00.852Z</time></trkpt><trkpt lat="37.8397803" lon="14.1575511"><ele>1104.3999999999999</ele><time>2026-04-28T15:53:01.852Z</time></trkpt><trkpt lat="37.8398885" lon="14.157541"><ele>1100.2</ele><time>2026-04-28T15:53:02.852Z</time></trkpt><trkpt lat="37.8399994" lon="14.157505"><ele>1096.0</ele><time>2026-04-28T15:53:03.852Z</time></trkpt><trkpt lat="37.8401139" lon="14.1574634"><ele>1097.0</ele><time>2026-04-28T15:53:04.852Z</time></trkpt><trkpt lat="37.8402361" lon="14.1574156"><ele>1098.0</ele><time>2026-04-28T15:53:05.852Z</time></trkpt><trkpt lat="37.8403801" lon="14.1573639"><ele>1099.0</ele><time>2026-04-28T15:53:06.852Z</time></trkpt><trkpt lat="37.840536" lon="14.1573036"><ele>1100.0</ele><time>2026-04-28T15:53:07.852Z</time></trkpt><trkpt lat="37.8406948" lon="14.1572483"><ele>1100.0</ele><time>2026-04-28T15:53:08.852Z</time></trkpt><trkpt lat="37.8408359" lon="14.1571883"><ele>1100.0</ele><time>2026-04-28T15:53:09.852Z</time></trkpt><trkpt lat="37.8409434" lon="14.1571205"><ele>1100.0</ele><time>2026-04-28T15:53:10.852Z</time></trkpt><trkpt lat="37.8410071" lon="14.1570236"><ele>1100.0</ele><time>2026-04-28T15:53:11.852Z</time></trkpt><trkpt lat="37.841031" lon="14.1568981"><ele>1099.75</ele><time>2026-04-28T15:53:12.852Z</time></trkpt><trkpt lat="37.8410194" lon="14.1567392"><ele>1099.5</ele><time>2026-04-28T15:53:13.852Z</time></trkpt><trkpt lat="37.8409874" lon="14.1565672"><ele>1099.25</ele><time>2026-04-28T15:53:14.852Z</time></trkpt><trkpt lat="37.8409603" lon="14.1563838"><ele>1099.0</ele><time>2026-04-28T15:53:15.852Z</time></trkpt><trkpt lat="37.8409355" lon="14.1562054"><ele>1099.0</ele><time>2026-04-28T15:53:16.852Z</time></trkpt><trkpt lat="37.8409187" lon="14.1560358"><ele>1099.0</ele><time>2026-04-28T15:53:17.852Z</time></trkpt><trkpt lat="37.8408998" lon="14.155876"><ele>1099.0</ele><time>2026-04-28T15:53:18.852Z</time></trkpt><trkpt lat="37.8408898" lon="14.1557136"><ele>1099.0</ele><time>2026-04-28T15:53:19.852Z</time></trkpt><trkpt lat="37.8408989" lon="14.1555392"><ele>1103.6666666666665</ele><time>2026-04-28T15:53:20.852Z</time></trkpt><trkpt lat="37.8409547" lon="14.155364"><ele>1108.3333333333333</ele><time>2026-04-28T15:53:21.852Z</time></trkpt><trkpt lat="37.8410484" lon="14.1551998"><ele>1113.0</ele><time>2026-04-28T15:53:22.852Z</time></trkpt><trkpt lat="37.841152" lon="14.1550422"><ele>1108.0</ele><time>2026-04-28T15:53:23.852Z</time></trkpt><trkpt lat="37.8412562" lon="14.1549103"><ele>1103.0</ele><time>2026-04-28T15:53:24.852Z</time></trkpt><trkpt lat="37.8413612" lon="14.1547989"><ele>1098.0</ele><time>2026-04-28T15:53:25.852Z</time></trkpt><trkpt lat="37.8414774" lon="14.1546975"><ele>1093.0</ele><time>2026-04-28T15:53:26.852Z</time></trkpt><trkpt lat="37.8415893" lon="14.1545694"><ele>1093.0</ele><time>2026-04-28T15:53:27.852Z</time></trkpt><trkpt lat="37.8416768" lon="14.154394"><ele>1093.0</ele><time>2026-04-28T15:53:28.852Z</time></trkpt><trkpt lat="37.8417313" lon="14.1541984"><ele>1093.0</ele><time>2026-04-28T15:53:29.852Z</time></trkpt><trkpt lat="37.841774" lon="14.1539981"><ele>1086.0</ele><time>2026-04-28T15:53:30.852Z</time></trkpt><trkpt lat="37.8418374" lon="14.15381"><ele>1079.0</ele><time>2026-04-28T15:53:31.853Z</time></trkpt><trkpt lat="37.8419204" lon="14.1536327"><ele>1072.0</ele><time>2026-04-28T15:53:32.852Z</time></trkpt><trkpt lat="37.8420013" lon="14.1534382"><ele>1072.0</ele><time>2026-04-28T15:53:33.853Z</time></trkpt><trkpt lat="37.8420642" lon="14.1532272"><ele>1072.0</ele><time>2026-04-28T15:53:34.852Z</time></trkpt><trkpt lat="37.8421155" lon="14.1530092"><ele>1072.0</ele><time>2026-04-28T15:53:35.852Z</time></trkpt><trkpt lat="37.8421522" lon="14.1527857"><ele>1075.0</ele><time>2026-04-28T15:53:36.852Z</time></trkpt><trkpt lat="37.842181" lon="14.1525604"><ele>1078.0</ele><time>2026-04-28T15:53:37.852Z</time></trkpt><trkpt lat="37.8422088" lon="14.1523445"><ele>1081.0</ele><time>2026-04-28T15:53:38.852Z</time></trkpt><trkpt lat="37.8422349" lon="14.1521402"><ele>1082.0</ele><time>2026-04-28T15:53:39.852Z</time></trkpt><trkpt lat="37.8422634" lon="14.1519511"><ele>1083.0</ele><time>2026-04-28T15:53:40.852Z</time></trkpt><trkpt lat="37.842292" lon="14.151771"><ele>1084.0</ele><time>2026-04-28T15:53:41.852Z</time></trkpt><trkpt lat="37.8423242" lon="14.1516045"><ele>1085.0</ele><time>2026-04-28T15:53:42.852Z</time></trkpt><trkpt lat="37.8423737" lon="14.1514675"><ele>1087.0</ele><time>2026-04-28T15:53:43.852Z</time></trkpt><trkpt lat="37.8424431" lon="14.1513834"><ele>1089.0</ele><time>2026-04-28T15:53:44.852Z</time></trkpt><trkpt lat="37.8425471" lon="14.1513269"><ele>1091.0</ele><time>2026-04-28T15:53:45.852Z</time></trkpt><trkpt lat="37.8426784" lon="14.1512644"><ele>1093.0</ele><time>2026-04-28T15:53:46.852Z</time></trkpt><trkpt lat="37.8428194" lon="14.1511915"><ele>1093.0</ele><time>2026-04-28T15:53:47.852Z</time></trkpt><trkpt lat="37.8429548" lon="14.151119"><ele>1093.0</ele><time>2026-04-28T15:53:48.852Z</time></trkpt><trkpt lat="37.843086" lon="14.1510647"><ele>1093.0</ele><time>2026-04-28T15:53:49.852Z</time></trkpt><trkpt lat="37.843213" lon="14.1510499"><ele>1093.0</ele><time>2026-04-28T15:53:50.852Z</time></trkpt><trkpt lat="37.8433404" lon="14.1511012"><ele>1099.0</ele><time>2026-04-28T15:53:51.852Z</time></trkpt><trkpt lat="37.8434652" lon="14.1511923"><ele>1105.0</ele><time>2026-04-28T15:53:52.852Z</time></trkpt><trkpt lat="37.8436047" lon="14.1513106"><ele>1111.0</ele><time>2026-04-28T15:53:53.852Z</time></trkpt><trkpt lat="37.8437642" lon="14.1514134"><ele>1111.0</ele><time>2026-04-28T15:53:54.852Z</time></trkpt><trkpt lat="37.8439439" lon="14.1514913"><ele>1111.0</ele><time>2026-04-28T15:53:55.852Z</time></trkpt><trkpt lat="37.8441377" lon="14.1515436"><ele>1111.0</ele><time>2026-04-28T15:53:56.852Z</time></trkpt><trkpt lat="37.8443486" lon="14.1515831"><ele>1105.3333333333333</ele><time>2026-04-28T15:53:57.852Z</time></trkpt><trkpt lat="37.8445468" lon="14.1516235"><ele>1099.6666666666667</ele><time>2026-04-28T15:53:58.852Z</time></trkpt><trkpt lat="37.8447371" lon="14.151684"><ele>1094.0</ele><time>2026-04-28T15:53:59.852Z</time></trkpt><trkpt lat="37.8449147" lon="14.1517728"><ele>1094.0</ele><time>2026-04-28T15:54:00.852Z</time></trkpt><trkpt lat="37.8450948" lon="14.151886"><ele>1094.0</ele><time>2026-04-28T15:54:01.852Z</time></trkpt><trkpt lat="37.8452685" lon="14.1520155"><ele>1094.0</ele><time>2026-04-28T15:54:02.852Z</time></trkpt><trkpt lat="37.8454358" lon="14.152142"><ele>1095.5</ele><time>2026-04-28T15:54:03.852Z</time></trkpt><trkpt lat="37.8455843" lon="14.1522554"><ele>1097.0</ele><time>2026-04-28T15:54:04.852Z</time></trkpt><trkpt lat="37.8457156" lon="14.1523233"><ele>1098.5</ele><time>2026-04-28T15:54:05.852Z</time></trkpt><trkpt lat="37.8458402" lon="14.1523307"><ele>1100.0</ele><time>2026-04-28T15:54:06.852Z</time></trkpt><trkpt lat="37.8459459" lon="14.1522753"><ele>1101.75</ele><time>2026-04-28T15:54:07.852Z</time></trkpt><trkpt lat="37.8460448" lon="14.1522259"><ele>1103.5</ele><time>2026-04-28T15:54:08.852Z</time></trkpt><trkpt lat="37.8461459" lon="14.152212"><ele>1105.25</ele><time>2026-04-28T15:54:09.852Z</time></trkpt><trkpt lat="37.8462686" lon="14.1522462"><ele>1107.0</ele><time>2026-04-28T15:54:10.852Z</time></trkpt><trkpt lat="37.8463776" lon="14.1523225"><ele>1099.3333333333333</ele><time>2026-04-28T15:54:11.852Z</time></trkpt><trkpt lat="37.846473" lon="14.152447"><ele>1091.6666666666665</ele><time>2026-04-28T15:54:12.852Z</time></trkpt><trkpt lat="37.8465685" lon="14.1526102"><ele>1084.0</ele><time>2026-04-28T15:54:13.852Z</time></trkpt><trkpt lat="37.8466861" lon="14.1527969"><ele>1085.0</ele><time>2026-04-28T15:54:14.852Z</time></trkpt><trkpt lat="37.8468033" lon="14.1530008"><ele>1086.0</ele><time>2026-04-28T15:54:15.852Z</time></trkpt><trkpt lat="37.8469311" lon="14.15321"><ele>1087.0</ele><time>2026-04-28T15:54:16.852Z</time></trkpt><trkpt lat="37.8470711" lon="14.1534132"><ele>1087.0</ele><time>2026-04-28T15:54:17.852Z</time></trkpt><trkpt lat="37.847222" lon="14.153601"><ele>1087.0</ele><time>2026-04-28T15:54:18.852Z</time></trkpt><trkpt lat="37.8473671" lon="14.153758"><ele>1087.0</ele><time>2026-04-28T15:54:19.852Z</time></trkpt><trkpt lat="37.8474923" lon="14.1538891"><ele>1087.0</ele><time>2026-04-28T15:54:20.852Z</time></trkpt><trkpt lat="37.8475959" lon="14.1539918"><ele>1087.0</ele><time>2026-04-28T15:54:21.852Z</time></trkpt><trkpt lat="37.8476814" lon="14.1540794"><ele>1087.0</ele><time>2026-04-28T15:54:22.852Z</time></trkpt><trkpt lat="37.8477556" lon="14.1541569"><ele>1087.0</ele><time>2026-04-28T15:54:23.852Z</time></trkpt><trkpt lat="37.8478202" lon="14.1542144"><ele>1087.0</ele><time>2026-04-28T15:54:24.852Z</time></trkpt><trkpt lat="37.847893" lon="14.1542466"><ele>1088.0</ele><time>2026-04-28T15:54:25.852Z</time></trkpt><trkpt lat="37.8479757" lon="14.1542425"><ele>1089.0</ele><time>2026-04-28T15:54:26.852Z</time></trkpt><trkpt lat="37.8480708" lon="14.1541913"><ele>1090.0</ele><time>2026-04-28T15:54:27.852Z</time></trkpt><trkpt lat="37.8481659" lon="14.154119"><ele>1091.0</ele><time>2026-04-28T15:54:28.852Z</time></trkpt><trkpt lat="37.848253" lon="14.1540524"><ele>1092.0</ele><time>2026-04-28T15:54:29.852Z</time></trkpt><trkpt lat="37.8483456" lon="14.1539855"><ele>1092.0</ele><time>2026-04-28T15:54:30.852Z</time></trkpt><trkpt lat="37.8484393" lon="14.153916"><ele>1092.0</ele><time>2026-04-28T15:54:31.852Z</time></trkpt><trkpt lat="37.8485375" lon="14.1538469"><ele>1092.0</ele><time>2026-04-28T15:54:32.852Z</time></trkpt><trkpt lat="37.8486384" lon="14.1537919"><ele>1092.0</ele><time>2026-04-28T15:54:33.852Z</time></trkpt><trkpt lat="37.84875" lon="14.1537631"><ele>1092.0</ele><time>2026-04-28T15:54:34.852Z</time></trkpt><trkpt lat="37.8488735" lon="14.1537634"><ele>1091.75</ele><time>2026-04-28T15:54:35.852Z</time></trkpt><trkpt lat="37.8489941" lon="14.1537842"><ele>1091.5</ele><time>2026-04-28T15:54:36.852Z</time></trkpt><trkpt lat="37.8491186" lon="14.1538122"><ele>1091.25</ele><time>2026-04-28T15:54:37.852Z</time></trkpt><trkpt lat="37.8492409" lon="14.1538365"><ele>1091.0</ele><time>2026-04-28T15:54:38.852Z</time></trkpt><trkpt lat="37.8493661" lon="14.1538564"><ele>1091.0</ele><time>2026-04-28T15:54:39.852Z</time></trkpt><trkpt lat="37.8494905" lon="14.1538706"><ele>1091.0</ele><time>2026-04-28T15:54:40.852Z</time></trkpt><trkpt lat="37.8496161" lon="14.153878"><ele>1091.0</ele><time>2026-04-28T15:54:41.852Z</time></trkpt><trkpt lat="37.8497404" lon="14.1538604"><ele>1091.0</ele><time>2026-04-28T15:54:42.852Z</time></trkpt><trkpt lat="37.8498677" lon="14.1538093"><ele>1091.0</ele><time>2026-04-28T15:54:43.852Z</time></trkpt><trkpt lat="37.8499973" lon="14.1537425"><ele>1091.0</ele><time>2026-04-28T15:54:44.852Z</time></trkpt><trkpt lat="37.8501243" lon="14.1536584"><ele>1091.0</ele><time>2026-04-28T15:54:45.852Z</time></trkpt><trkpt lat="37.8502494" lon="14.1535773"><ele>1091.0</ele><time>2026-04-28T15:54:46.852Z</time></trkpt><trkpt lat="37.8503739" lon="14.1534992"><ele>1087.75</ele><time>2026-04-28T15:54:47.852Z</time></trkpt><trkpt lat="37.8504932" lon="14.1534202"><ele>1084.5</ele><time>2026-04-28T15:54:48.852Z</time></trkpt><trkpt lat="37.850607" lon="14.1533437"><ele>1081.25</ele><time>2026-04-28T15:54:49.852Z</time></trkpt><trkpt lat="37.8507098" lon="14.1532722"><ele>1078.0</ele><time>2026-04-28T15:54:50.853Z</time></trkpt><trkpt lat="37.850811" lon="14.1532074"><ele>1079.4</ele><time>2026-04-28T15:54:51.852Z</time></trkpt><trkpt lat="37.8509142" lon="14.1531423"><ele>1080.8</ele><time>2026-04-28T15:54:52.852Z</time></trkpt><trkpt lat="37.8510146" lon="14.153083"><ele>1082.2</ele><time>2026-04-28T15:54:53.852Z</time></trkpt><trkpt lat="37.8511111" lon="14.1530261"><ele>1083.6</ele><time>2026-04-28T15:54:54.852Z</time></trkpt><trkpt lat="37.8512137" lon="14.1529656"><ele>1085.0</ele><time>2026-04-28T15:54:55.852Z</time></trkpt><trkpt lat="37.8513159" lon="14.1529099"><ele>1085.0</ele><time>2026-04-28T15:54:56.852Z</time></trkpt><trkpt lat="37.8514141" lon="14.1528706"><ele>1085.0</ele><time>2026-04-28T15:54:57.852Z</time></trkpt><trkpt lat="37.8515075" lon="14.1528539"><ele>1085.0</ele><time>2026-04-28T15:54:58.852Z</time></trkpt><trkpt lat="37.8516007" lon="14.1528655"><ele>1085.0</ele><time>2026-04-28T15:54:59.852Z</time></trkpt><trkpt lat="37.8516866" lon="14.1528926"><ele>1085.0</ele><time>2026-04-28T15:55:00.852Z</time></trkpt><trkpt lat="37.8517682" lon="14.1529348"><ele>1084.8</ele><time>2026-04-28T15:55:01.852Z</time></trkpt><trkpt lat="37.8518537" lon="14.1529696"><ele>1084.6</ele><time>2026-04-28T15:55:02.852Z</time></trkpt><trkpt lat="37.8519493" lon="14.1529909"><ele>1084.4</ele><time>2026-04-28T15:55:03.852Z</time></trkpt><trkpt lat="37.8520624" lon="14.1529652"><ele>1084.2</ele><time>2026-04-28T15:55:04.852Z</time></trkpt><trkpt lat="37.8521737" lon="14.1528956"><ele>1084.0</ele><time>2026-04-28T15:55:05.852Z</time></trkpt><trkpt lat="37.852292" lon="14.1527959"><ele>1084.0</ele><time>2026-04-28T15:55:06.852Z</time></trkpt><trkpt lat="37.8524342" lon="14.1526766"><ele>1084.0</ele><time>2026-04-28T15:55:07.852Z</time></trkpt><trkpt lat="37.8525991" lon="14.1525543"><ele>1084.0</ele><time>2026-04-28T15:55:08.852Z</time></trkpt><trkpt lat="37.8527665" lon="14.1524345"><ele>1077.6666666666665</ele><time>2026-04-28T15:55:09.852Z</time></trkpt><trkpt lat="37.8529403" lon="14.1523064"><ele>1071.3333333333333</ele><time>2026-04-28T15:55:10.852Z</time></trkpt><trkpt lat="37.8531148" lon="14.1521801"><ele>1065.0</ele><time>2026-04-28T15:55:11.852Z</time></trkpt><trkpt lat="37.8532864" lon="14.152058"><ele>1066.0</ele><time>2026-04-28T15:55:12.852Z</time></trkpt><trkpt lat="37.8534648" lon="14.1519526"><ele>1067.0</ele><time>2026-04-28T15:55:13.852Z</time></trkpt><trkpt lat="37.8536568" lon="14.1518765"><ele>1068.0</ele><time>2026-04-28T15:55:14.852Z</time></trkpt><trkpt lat="37.8538404" lon="14.1518108"><ele>1068.0</ele><time>2026-04-28T15:55:15.852Z</time></trkpt><trkpt lat="37.8540233" lon="14.1517662"><ele>1068.0</ele><time>2026-04-28T15:55:16.852Z</time></trkpt><trkpt lat="37.8541911" lon="14.1517626"><ele>1068.0</ele><time>2026-04-28T15:55:17.852Z</time></trkpt><trkpt lat="37.8543678" lon="14.1517902"><ele>1061.3333333333333</ele><time>2026-04-28T15:55:18.852Z</time></trkpt><trkpt lat="37.8545415" lon="14.1518631"><ele>1054.6666666666665</ele><time>2026-04-28T15:55:19.852Z</time></trkpt><trkpt lat="37.8547079" lon="14.1519657"><ele>1048.0</ele><time>2026-04-28T15:55:20.852Z</time></trkpt><trkpt lat="37.8548693" lon="14.1520835"><ele>1048.0</ele><time>2026-04-28T15:55:21.852Z</time></trkpt><trkpt lat="37.8550191" lon="14.1522056"><ele>1048.0</ele><time>2026-04-28T15:55:22.852Z</time></trkpt><trkpt lat="37.8551763" lon="14.1523284"><ele>1048.0</ele><time>2026-04-28T15:55:23.852Z</time></trkpt><trkpt lat="37.8553336" lon="14.1524516"><ele>1053.0</ele><time>2026-04-28T15:55:24.852Z</time></trkpt><trkpt lat="37.855485" lon="14.152566"><ele>1058.0</ele><time>2026-04-28T15:55:25.852Z</time></trkpt><trkpt lat="37.855637" lon="14.1526817"><ele>1063.0</ele><time>2026-04-28T15:55:26.852Z</time></trkpt><trkpt lat="37.8557857" lon="14.1527862"><ele>1063.0</ele><time>2026-04-28T15:55:27.852Z</time></trkpt><trkpt lat="37.855936" lon="14.1528784"><ele>1063.0</ele><time>2026-04-28T15:55:28.852Z</time></trkpt><trkpt lat="37.8560874" lon="14.1529566"><ele>1063.0</ele><time>2026-04-28T15:55:29.852Z</time></trkpt><trkpt lat="37.8562331" lon="14.1530178"><ele>1057.5</ele><time>2026-04-28T15:55:30.852Z</time></trkpt><trkpt lat="37.8563785" lon="14.1530634"><ele>1052.0</ele><time>2026-04-28T15:55:31.852Z</time></trkpt><trkpt lat="37.8565177" lon="14.1531018"><ele>1046.5</ele><time>2026-04-28T15:55:32.852Z</time></trkpt><trkpt lat="37.8566501" lon="14.1531308"><ele>1041.0</ele><time>2026-04-28T15:55:33.852Z</time></trkpt><trkpt lat="37.8567771" lon="14.1531537"><ele>1044.2</ele><time>2026-04-28T15:55:34.852Z</time></trkpt><trkpt lat="37.8568956" lon="14.1531732"><ele>1047.3999999999999</ele><time>2026-04-28T15:55:35.852Z</time></trkpt><trkpt lat="37.8570035" lon="14.1531925"><ele>1050.6</ele><time>2026-04-28T15:55:36.852Z</time></trkpt><trkpt lat="37.8570999" lon="14.1532059"><ele>1053.8</ele><time>2026-04-28T15:55:37.852Z</time></trkpt><trkpt lat="37.8571853" lon="14.1532213"><ele>1057.0</ele><time>2026-04-28T15:55:38.852Z</time></trkpt><trkpt lat="37.8572826" lon="14.1532364"><ele>1057.0</ele><time>2026-04-28T15:55:39.853Z</time></trkpt><trkpt lat="37.857408" lon="14.1532628"><ele>1057.0</ele><time>2026-04-28T15:55:40.852Z</time></trkpt><trkpt lat="37.8575508" lon="14.1532962"><ele>1057.0</ele><time>2026-04-28T15:55:41.852Z</time></trkpt><trkpt lat="37.8576967" lon="14.1533388"><ele>1057.0</ele><time>2026-04-28T15:55:42.852Z</time></trkpt><trkpt lat="37.8578439" lon="14.1533853"><ele>1055.25</ele><time>2026-04-28T15:55:43.852Z</time></trkpt><trkpt lat="37.8579798" lon="14.1534327"><ele>1053.5</ele><time>2026-04-28T15:55:44.852Z</time></trkpt><trkpt lat="37.8581071" lon="14.1534789"><ele>1051.75</ele><time>2026-04-28T15:55:45.852Z</time></trkpt><trkpt lat="37.8582181" lon="14.1535113"><ele>1050.0</ele><time>2026-04-28T15:55:46.852Z</time></trkpt><trkpt lat="37.8583277" lon="14.1535276"><ele>1050.0</ele><time>2026-04-28T15:55:47.852Z</time></trkpt><trkpt lat="37.8584293" lon="14.153505"><ele>1050.0</ele><time>2026-04-28T15:55:48.852Z</time></trkpt><trkpt lat="37.8585289" lon="14.153431"><ele>1050.0</ele><time>2026-04-28T15:55:49.852Z</time></trkpt><trkpt lat="37.8586309" lon="14.1533312"><ele>1050.0</ele><time>2026-04-28T15:55:50.852Z</time></trkpt><trkpt lat="37.8587392" lon="14.1532118"><ele>1041.0</ele><time>2026-04-28T15:55:51.852Z</time></trkpt><trkpt lat="37.8588586" lon="14.153092"><ele>1032.0</ele><time>2026-04-28T15:55:52.852Z</time></trkpt><trkpt lat="37.8589839" lon="14.1529686"><ele>1023.0</ele><time>2026-04-28T15:55:53.852Z</time></trkpt><trkpt lat="37.8591125" lon="14.1528646"><ele>1023.0</ele><time>2026-04-28T15:55:54.852Z</time></trkpt><trkpt lat="37.8592469" lon="14.1527816"><ele>1023.0</ele><time>2026-04-28T15:55:55.852Z</time></trkpt><trkpt lat="37.8593807" lon="14.1527371"><ele>1023.0</ele><time>2026-04-28T15:55:56.852Z</time></trkpt><trkpt lat="37.8595264" lon="14.1527388"><ele>1023.0</ele><time>2026-04-28T15:55:57.852Z</time></trkpt><trkpt lat="37.8597022" lon="14.1527784"><ele>1020.0</ele><time>2026-04-28T15:55:58.852Z</time></trkpt><trkpt lat="37.8598804" lon="14.1528552"><ele>1017.0</ele><time>2026-04-28T15:55:59.852Z</time></trkpt><trkpt lat="37.8600596" lon="14.152947"><ele>1014.0</ele><time>2026-04-28T15:56:00.852Z</time></trkpt><trkpt lat="37.860224" lon="14.1530593"><ele>1013.0</ele><time>2026-04-28T15:56:01.852Z</time></trkpt><trkpt lat="37.8603796" lon="14.1531857"><ele>1012.0</ele><time>2026-04-28T15:56:02.852Z</time></trkpt><trkpt lat="37.8605137" lon="14.1533267"><ele>1011.0</ele><time>2026-04-28T15:56:03.852Z</time></trkpt><trkpt lat="37.8606238" lon="14.1534645"><ele>1011.0</ele><time>2026-04-28T15:56:04.852Z</time></trkpt><trkpt lat="37.8607175" lon="14.1536094"><ele>1011.0</ele><time>2026-04-28T15:56:05.852Z</time></trkpt><trkpt lat="37.8607817" lon="14.153756"><ele>1011.0</ele><time>2026-04-28T15:56:06.852Z</time></trkpt><trkpt lat="37.8608158" lon="14.1539365"><ele>1011.0</ele><time>2026-04-28T15:56:07.852Z</time></trkpt><trkpt lat="37.8608319" lon="14.1541275"><ele>1008.0</ele><time>2026-04-28T15:56:08.852Z</time></trkpt><trkpt lat="37.8608558" lon="14.154311"><ele>1005.0</ele><time>2026-04-28T15:56:09.852Z</time></trkpt><trkpt lat="37.8608966" lon="14.1544956"><ele>1002.0</ele><time>2026-04-28T15:56:10.852Z</time></trkpt><trkpt lat="37.8609648" lon="14.1546856"><ele>1002.0</ele><time>2026-04-28T15:56:11.852Z</time></trkpt><trkpt lat="37.8610583" lon="14.1548707"><ele>1002.0</ele><time>2026-04-28T15:56:12.852Z</time></trkpt><trkpt lat="37.86116" lon="14.1550477"><ele>1002.0</ele><time>2026-04-28T15:56:13.852Z</time></trkpt><trkpt lat="37.8612691" lon="14.1552127"><ele>1005.75</ele><time>2026-04-28T15:56:14.852Z</time></trkpt><trkpt lat="37.8613739" lon="14.1553469"><ele>1009.5</ele><time>2026-04-28T15:56:15.852Z</time></trkpt><trkpt lat="37.8614637" lon="14.15545"><ele>1013.25</ele><time>2026-04-28T15:56:16.852Z</time></trkpt><trkpt lat="37.8615558" lon="14.1555124"><ele>1017.0</ele><time>2026-04-28T15:56:17.852Z</time></trkpt><trkpt lat="37.8616544" lon="14.1555245"><ele>1017.0</ele><time>2026-04-28T15:56:18.852Z</time></trkpt><trkpt lat="37.8617519" lon="14.1554836"><ele>1017.0</ele><time>2026-04-28T15:56:19.853Z</time></trkpt><trkpt lat="37.861835" lon="14.1554022"><ele>1017.0</ele><time>2026-04-28T15:56:20.852Z</time></trkpt><trkpt lat="37.8618883" lon="14.1552665"><ele>1017.0</ele><time>2026-04-28T15:56:21.852Z</time></trkpt><trkpt lat="37.86193" lon="14.1551132"><ele>1016.75</ele><time>2026-04-28T15:56:22.852Z</time></trkpt><trkpt lat="37.8619563" lon="14.1549447"><ele>1016.5</ele><time>2026-04-28T15:56:23.852Z</time></trkpt><trkpt lat="37.8619858" lon="14.1547696"><ele>1016.25</ele><time>2026-04-28T15:56:24.852Z</time></trkpt><trkpt lat="37.8620197" lon="14.1545905"><ele>1016.0</ele><time>2026-04-28T15:56:25.852Z</time></trkpt><trkpt lat="37.862063" lon="14.1544109"><ele>1014.5</ele><time>2026-04-28T15:56:26.852Z</time></trkpt><trkpt lat="37.862123" lon="14.1542519"><ele>1013.0</ele><time>2026-04-28T15:56:27.852Z</time></trkpt><trkpt lat="37.8621965" lon="14.1541084"><ele>1011.5</ele><time>2026-04-28T15:56:28.852Z</time></trkpt><trkpt lat="37.8623029" lon="14.1539976"><ele>1010.0</ele><time>2026-04-28T15:56:29.852Z</time></trkpt><trkpt lat="37.8624228" lon="14.153902"><ele>1007.0</ele><time>2026-04-28T15:56:30.852Z</time></trkpt><trkpt lat="37.8625365" lon="14.1538233"><ele>1004.0</ele><time>2026-04-28T15:56:31.852Z</time></trkpt><trkpt lat="37.8626444" lon="14.1537513"><ele>1001.0</ele><time>2026-04-28T15:56:32.852Z</time></trkpt><trkpt lat="37.8627455" lon="14.153713"><ele>998.0</ele><time>2026-04-28T15:56:33.852Z</time></trkpt><trkpt lat="37.862847" lon="14.153736"><ele>997.5</ele><time>2026-04-28T15:56:34.852Z</time></trkpt><trkpt lat="37.8629395" lon="14.1538094"><ele>997.0</ele><time>2026-04-28T15:56:35.852Z</time></trkpt><trkpt lat="37.8630066" lon="14.1539371"><ele>996.5</ele><time>2026-04-28T15:56:36.852Z</time></trkpt><trkpt lat="37.8630649" lon="14.154097"><ele>996.0</ele><time>2026-04-28T15:56:37.852Z</time></trkpt><trkpt lat="37.8631189" lon="14.1542702"><ele>997.5</ele><time>2026-04-28T15:56:38.852Z</time></trkpt><trkpt lat="37.8631711" lon="14.1544548"><ele>999.0</ele><time>2026-04-28T15:56:39.852Z</time></trkpt><trkpt lat="37.8632209" lon="14.1546296"><ele>1000.5</ele><time>2026-04-28T15:56:40.852Z</time></trkpt><trkpt lat="37.8632677" lon="14.1547943"><ele>1002.0</ele><time>2026-04-28T15:56:41.852Z</time></trkpt><trkpt lat="37.86332" lon="14.1549476"><ele>1002.25</ele><time>2026-04-28T15:56:42.852Z</time></trkpt><trkpt lat="37.8633774" lon="14.1550873"><ele>1002.5</ele><time>2026-04-28T15:56:43.852Z</time></trkpt><trkpt lat="37.863455" lon="14.1552049"><ele>1002.75</ele><time>2026-04-28T15:56:44.852Z</time></trkpt><trkpt lat="37.8635607" lon="14.1552935"><ele>1003.0</ele><time>2026-04-28T15:56:45.852Z</time></trkpt><trkpt lat="37.8636933" lon="14.1553375"><ele>1001.75</ele><time>2026-04-28T15:56:46.852Z</time></trkpt><trkpt lat="37.863821" lon="14.1553333"><ele>1000.5</ele><time>2026-04-28T15:56:47.852Z</time></trkpt><trkpt lat="37.8639353" lon="14.1552868"><ele>999.25</ele><time>2026-04-28T15:56:48.852Z</time></trkpt><trkpt lat="37.8640364" lon="14.1552115"><ele>998.0</ele><time>2026-04-28T15:56:49.852Z</time></trkpt><trkpt lat="37.8641209" lon="14.1550814"><ele>998.0</ele><time>2026-04-28T15:56:50.852Z</time></trkpt><trkpt lat="37.8641716" lon="14.1549284"><ele>998.0</ele><time>2026-04-28T15:56:51.852Z</time></trkpt><trkpt lat="37.8641892" lon="14.154744"><ele>998.0</ele><time>2026-04-28T15:56:52.852Z</time></trkpt><trkpt lat="37.8641951" lon="14.1545278"><ele>998.0</ele><time>2026-04-28T15:56:53.852Z</time></trkpt><trkpt lat="37.8641972" lon="14.1542976"><ele>997.0</ele><time>2026-04-28T15:56:54.852Z</time></trkpt><trkpt lat="37.8642049" lon="14.1540664"><ele>996.0</ele><time>2026-04-28T15:56:55.852Z</time></trkpt><trkpt lat="37.8642305" lon="14.1538389"><ele>995.0</ele><time>2026-04-28T15:56:56.852Z</time></trkpt><trkpt lat="37.8642817" lon="14.1536207"><ele>993.6666666666667</ele><time>2026-04-28T15:56:57.853Z</time></trkpt><trkpt lat="37.8643392" lon="14.1534105"><ele>992.3333333333333</ele><time>2026-04-28T15:56:58.852Z</time></trkpt><trkpt lat="37.8643963" lon="14.1531912"><ele>991.0</ele><time>2026-04-28T15:56:59.852Z</time></trkpt><trkpt lat="37.8644338" lon="14.1529643"><ele>991.0</ele><time>2026-04-28T15:57:00.852Z</time></trkpt><trkpt lat="37.8644667" lon="14.1527385"><ele>991.0</ele><time>2026-04-28T15:57:01.852Z</time></trkpt><trkpt lat="37.8645048" lon="14.1525283"><ele>991.0</ele><time>2026-04-28T15:57:02.852Z</time></trkpt><trkpt lat="37.8645774" lon="14.152346"><ele>978.6666666666666</ele><time>2026-04-28T15:57:03.852Z</time></trkpt><trkpt lat="37.8646822" lon="14.1521973"><ele>966.3333333333333</ele><time>2026-04-28T15:57:04.852Z</time></trkpt><trkpt lat="37.8648191" lon="14.1521139"><ele>954.0</ele><time>2026-04-28T15:57:05.852Z</time></trkpt><trkpt lat="37.8649685" lon="14.1520637"><ele>953.0</ele><time>2026-04-28T15:57:06.852Z</time></trkpt><trkpt lat="37.8651379" lon="14.1520404"><ele>952.0</ele><time>2026-04-28T15:57:07.852Z</time></trkpt><trkpt lat="37.8653071" lon="14.1520276"><ele>951.0</ele><time>2026-04-28T15:57:08.852Z</time></trkpt><trkpt lat="37.8654739" lon="14.1520341"><ele>951.0</ele><time>2026-04-28T15:57:09.852Z</time></trkpt><trkpt lat="37.8656313" lon="14.1520708"><ele>951.0</ele><time>2026-04-28T15:57:10.852Z</time></trkpt><trkpt lat="37.8657808" lon="14.1521371"><ele>951.0</ele><time>2026-04-28T15:57:11.852Z</time></trkpt><trkpt lat="37.8659316" lon="14.1522236"><ele>953.6666666666667</ele><time>2026-04-28T15:57:12.852Z</time></trkpt><trkpt lat="37.866082" lon="14.1523049"><ele>956.3333333333334</ele><time>2026-04-28T15:57:13.852Z</time></trkpt><trkpt lat="37.8662226" lon="14.1523931"><ele>959.0</ele><time>2026-04-28T15:57:14.852Z</time></trkpt><trkpt lat="37.8663486" lon="14.1524919"><ele>959.0</ele><time>2026-04-28T15:57:15.852Z</time></trkpt><trkpt lat="37.8664518" lon="14.1526183"><ele>959.0</ele><time>2026-04-28T15:57:16.852Z</time></trkpt><trkpt lat="37.8665209" lon="14.1527718"><ele>959.0</ele><time>2026-04-28T15:57:17.852Z</time></trkpt><trkpt lat="37.8665625" lon="14.152965"><ele>959.0</ele><time>2026-04-28T15:57:18.852Z</time></trkpt><trkpt lat="37.8666093" lon="14.1531582"><ele>957.75</ele><time>2026-04-28T15:57:19.852Z</time></trkpt><trkpt lat="37.8666513" lon="14.1533435"><ele>956.5</ele><time>2026-04-28T15:57:20.852Z</time></trkpt><trkpt lat="37.8666973" lon="14.1535106"><ele>955.25</ele><time>2026-04-28T15:57:21.852Z</time></trkpt><trkpt lat="37.8667619" lon="14.1536511"><ele>954.0</ele><time>2026-04-28T15:57:22.852Z</time></trkpt><trkpt lat="37.8668578" lon="14.1537596"><ele>954.0</ele><time>2026-04-28T15:57:23.852Z</time></trkpt><trkpt lat="37.8669721" lon="14.1538147"><ele>954.0</ele><time>2026-04-28T15:57:24.852Z</time></trkpt><trkpt lat="37.8671001" lon="14.153826"><ele>954.0</ele><time>2026-04-28T15:57:25.852Z</time></trkpt><trkpt lat="37.8672415" lon="14.1538104"><ele>954.0</ele><time>2026-04-28T15:57:26.852Z</time></trkpt><trkpt lat="37.867391" lon="14.1537892"><ele>954.0</ele><time>2026-04-28T15:57:27.853Z</time></trkpt><trkpt lat="37.8675271" lon="14.1537852"><ele>954.0</ele><time>2026-04-28T15:57:28.852Z</time></trkpt><trkpt lat="37.8676483" lon="14.1538151"><ele>954.0</ele><time>2026-04-28T15:57:29.852Z</time></trkpt><trkpt lat="37.8677457" lon="14.1538896"><ele>954.0</ele><time>2026-04-28T15:57:30.852Z</time></trkpt><trkpt lat="37.8678111" lon="14.1540124"><ele>954.75</ele><time>2026-04-28T15:57:31.852Z</time></trkpt><trkpt lat="37.8678837" lon="14.1541572"><ele>955.5</ele><time>2026-04-28T15:57:32.852Z</time></trkpt><trkpt lat="37.8679567" lon="14.1543133"><ele>956.25</ele><time>2026-04-28T15:57:33.852Z</time></trkpt><trkpt lat="37.8680204" lon="14.1544412"><ele>957.0</ele><time>2026-04-28T15:57:34.852Z</time></trkpt><trkpt lat="37.8680705" lon="14.1545561"><ele>957.0</ele><time>2026-04-28T15:57:35.852Z</time></trkpt><trkpt lat="37.8681208" lon="14.1546646"><ele>957.0</ele><time>2026-04-28T15:57:36.852Z</time></trkpt><trkpt lat="37.8681705" lon="14.1547676"><ele>957.0</ele><time>2026-04-28T15:57:37.852Z</time></trkpt><trkpt lat="37.868211" lon="14.1548574"><ele>957.0</ele><time>2026-04-28T15:57:38.852Z</time></trkpt><trkpt lat="37.8682527" lon="14.1549443"><ele>957.0</ele><time>2026-04-28T15:57:39.852Z</time></trkpt><trkpt lat="37.868297" lon="14.1550253"><ele>957.0</ele><time>2026-04-28T15:57:40.852Z</time></trkpt><trkpt lat="37.8683424" lon="14.1550904"><ele>957.0</ele><time>2026-04-28T15:57:41.852Z</time></trkpt><trkpt lat="37.8684153" lon="14.155142"><ele>957.0</ele><time>2026-04-28T15:57:43.852Z</time></trkpt><trkpt lat="37.8685366" lon="14.1551334"><ele>957.0</ele><time>2026-04-28T15:57:45.852Z</time></trkpt><trkpt lat="37.8686623" lon="14.1550868"><ele>957.0</ele><time>2026-04-28T15:57:46.999Z</time></trkpt><trkpt lat="37.8687267" lon="14.15504"><ele>957.0</ele><time>2026-04-28T15:57:47.999Z</time></trkpt><trkpt lat="37.8687986" lon="14.1549837"><ele>954.6</ele><time>2026-04-28T15:57:48.999Z</time></trkpt><trkpt lat="37.8688778" lon="14.154911"><ele>952.2</ele><time>2026-04-28T15:57:49.999Z</time></trkpt><trkpt lat="37.8689555" lon="14.1548276"><ele>949.8</ele><time>2026-04-28T15:57:50.999Z</time></trkpt><trkpt lat="37.8690157" lon="14.1547268"><ele>947.4</ele><time>2026-04-28T15:57:51.999Z</time></trkpt><trkpt lat="37.8690444" lon="14.154602"><ele>945.0</ele><time>2026-04-28T15:57:52.999Z</time></trkpt><trkpt lat="37.8690478" lon="14.1544734"><ele>945.0</ele><time>2026-04-28T15:57:53.999Z</time></trkpt><trkpt lat="37.8690388" lon="14.1543698"><ele>945.0</ele><time>2026-04-28T15:57:54.999Z</time></trkpt><trkpt lat="37.8690244" lon="14.154292"><ele>945.0</ele><time>2026-04-28T15:57:56.999Z</time></trkpt><trkpt lat="37.8689566" lon="14.1542738"><ele>945.0</ele><time>2026-04-28T15:58:02.999Z</time></trkpt><trkpt lat="37.8690235" lon="14.1541756"><ele>945.0</ele><time>2026-04-28T15:58:21.999Z</time></trkpt><trkpt lat="37.8690403" lon="14.1540742"><ele>945.0</ele><time>2026-04-28T15:58:22.999Z</time></trkpt><trkpt lat="37.8690731" lon="14.1539794"><ele>943.5</ele><time>2026-04-28T15:58:23.999Z</time></trkpt><trkpt lat="37.8691424" lon="14.1538871"><ele>942.0</ele><time>2026-04-28T15:58:24.999Z</time></trkpt><trkpt lat="37.8692335" lon="14.1538119"><ele>940.5</ele><time>2026-04-28T15:58:25.999Z</time></trkpt><trkpt lat="37.8693405" lon="14.153743"><ele>939.0</ele><time>2026-04-28T15:58:26.999Z</time></trkpt><trkpt lat="37.8694535" lon="14.1536726"><ele>939.0</ele><time>2026-04-28T15:58:27.999Z</time></trkpt><trkpt lat="37.8695798" lon="14.1535934"><ele>939.0</ele><time>2026-04-28T15:58:28.999Z</time></trkpt><trkpt lat="37.869712" lon="14.1535058"><ele>939.0</ele><time>2026-04-28T15:58:29.999Z</time></trkpt><trkpt lat="37.8698444" lon="14.1534159"><ele>939.0</ele><time>2026-04-28T15:58:30.999Z</time></trkpt><trkpt lat="37.8699725" lon="14.1533286"><ele>939.0</ele><time>2026-04-28T15:58:31.999Z</time></trkpt><trkpt lat="37.8700914" lon="14.1532522"><ele>939.0</ele><time>2026-04-28T15:58:32.999Z</time></trkpt><trkpt lat="37.870208" lon="14.1531875"><ele>939.0</ele><time>2026-04-28T15:58:33.998Z</time></trkpt><trkpt lat="37.870328" lon="14.1531743"><ele>939.0</ele><time>2026-04-28T15:58:34.999Z</time></trkpt><trkpt lat="37.8704554" lon="14.1532136"><ele>939.6666666666667</ele><time>2026-04-28T15:58:35.998Z</time></trkpt><trkpt lat="37.8705942" lon="14.1532975"><ele>940.3333333333334</ele><time>2026-04-28T15:58:36.999Z</time></trkpt><trkpt lat="37.8707337" lon="14.1534086"><ele>941.0</ele><time>2026-04-28T15:58:37.999Z</time></trkpt><trkpt lat="37.8708731" lon="14.1535226"><ele>943.0</ele><time>2026-04-28T15:58:38.999Z</time></trkpt><trkpt lat="37.8710212" lon="14.1536238"><ele>945.0</ele><time>2026-04-28T15:58:39.999Z</time></trkpt><trkpt lat="37.8711752" lon="14.1537108"><ele>947.0</ele><time>2026-04-28T15:58:40.998Z</time></trkpt><trkpt lat="37.8713343" lon="14.153768"><ele>947.0</ele><time>2026-04-28T15:58:41.999Z</time></trkpt><trkpt lat="37.8714964" lon="14.1537662"><ele>947.0</ele><time>2026-04-28T15:58:42.999Z</time></trkpt><trkpt lat="37.8716508" lon="14.153727"><ele>947.0</ele><time>2026-04-28T15:58:43.999Z</time></trkpt><trkpt lat="37.8717993" lon="14.1536791"><ele>946.3333333333334</ele><time>2026-04-28T15:58:44.998Z</time></trkpt><trkpt lat="37.871949" lon="14.1536555"><ele>945.6666666666667</ele><time>2026-04-28T15:58:45.999Z</time></trkpt><trkpt lat="37.8720936" lon="14.1537001"><ele>945.0</ele><time>2026-04-28T15:58:46.999Z</time></trkpt><trkpt lat="37.8722476" lon="14.1537918"><ele>945.0</ele><time>2026-04-28T15:58:47.999Z</time></trkpt><trkpt lat="37.8724069" lon="14.1538755"><ele>945.0</ele><time>2026-04-28T15:58:48.998Z</time></trkpt><trkpt lat="37.8725846" lon="14.1539187"><ele>945.0</ele><time>2026-04-28T15:58:49.999Z</time></trkpt><trkpt lat="37.8727639" lon="14.1539312"><ele>948.0</ele><time>2026-04-28T15:58:50.999Z</time></trkpt><trkpt lat="37.8729401" lon="14.1539378"><ele>951.0</ele><time>2026-04-28T15:58:51.999Z</time></trkpt><trkpt lat="37.873109" lon="14.1539747"><ele>954.0</ele><time>2026-04-28T15:58:52.998Z</time></trkpt><trkpt lat="37.8732802" lon="14.1540481"><ele>947.0</ele><time>2026-04-28T15:58:53.999Z</time></trkpt><trkpt lat="37.8734442" lon="14.1541399"><ele>940.0</ele><time>2026-04-28T15:58:54.998Z</time></trkpt><trkpt lat="37.8735903" lon="14.1542367"><ele>933.0</ele><time>2026-04-28T15:58:55.999Z</time></trkpt><trkpt lat="37.8737143" lon="14.1543472"><ele>933.0</ele><time>2026-04-28T15:58:56.999Z</time></trkpt><trkpt lat="37.8738144" lon="14.1544715"><ele>933.0</ele><time>2026-04-28T15:58:57.999Z</time></trkpt><trkpt lat="37.873891" lon="14.1546201"><ele>933.0</ele><time>2026-04-28T15:58:58.999Z</time></trkpt><trkpt lat="37.8739653" lon="14.1547672"><ele>933.0</ele><time>2026-04-28T15:58:59.998Z</time></trkpt><trkpt lat="37.8740631" lon="14.15487"><ele>933.25</ele><time>2026-04-28T15:59:00.999Z</time></trkpt><trkpt lat="37.8741992" lon="14.1549081"><ele>933.5</ele><time>2026-04-28T15:59:01.998Z</time></trkpt><trkpt lat="37.8743315" lon="14.1549324"><ele>933.75</ele><time>2026-04-28T15:59:02.998Z</time></trkpt><trkpt lat="37.8744496" lon="14.1549677"><ele>934.0</ele><time>2026-04-28T15:59:03.999Z</time></trkpt><trkpt lat="37.874537" lon="14.1550376"><ele>934.0</ele><time>2026-04-28T15:59:04.998Z</time></trkpt><trkpt lat="37.8745804" lon="14.1551645"><ele>934.0</ele><time>2026-04-28T15:59:05.999Z</time></trkpt><trkpt lat="37.8745997" lon="14.1553405"><ele>934.0</ele><time>2026-04-28T15:59:06.999Z</time></trkpt><trkpt lat="37.8746378" lon="14.1555264"><ele>934.0</ele><time>2026-04-28T15:59:07.999Z</time></trkpt><trkpt lat="37.8747067" lon="14.1557154"><ele>928.0</ele><time>2026-04-28T15:59:08.999Z</time></trkpt><trkpt lat="37.8748107" lon="14.1558958"><ele>922.0</ele><time>2026-04-28T15:59:09.998Z</time></trkpt><trkpt lat="37.8749254" lon="14.1560599"><ele>916.0</ele><time>2026-04-28T15:59:10.999Z</time></trkpt><trkpt lat="37.8750382" lon="14.156201"><ele>920.3333333333333</ele><time>2026-04-28T15:59:11.999Z</time></trkpt><trkpt lat="37.8751593" lon="14.1563121"><ele>924.6666666666667</ele><time>2026-04-28T15:59:12.999Z</time></trkpt><trkpt lat="37.8753093" lon="14.1564094"><ele>929.0</ele><time>2026-04-28T15:59:13.998Z</time></trkpt><trkpt lat="37.8755046" lon="14.1564986"><ele>917.0</ele><time>2026-04-28T15:59:14.999Z</time></trkpt><trkpt lat="37.8757256" lon="14.1566022"><ele>905.0</ele><time>2026-04-28T15:59:15.999Z</time></trkpt><trkpt lat="37.8759469" lon="14.1567139"><ele>905.0</ele><time>2026-04-28T15:59:16.998Z</time></trkpt><trkpt lat="37.8761547" lon="14.1568218"><ele>905.0</ele><time>2026-04-28T15:59:17.999Z</time></trkpt><trkpt lat="37.8763424" lon="14.156923"><ele>905.0</ele><time>2026-04-28T15:59:18.999Z</time></trkpt><trkpt lat="37.8765075" lon="14.1570093"><ele>905.0</ele><time>2026-04-28T15:59:19.999Z</time></trkpt><trkpt lat="37.8766515" lon="14.1570802"><ele>905.0</ele><time>2026-04-28T15:59:20.998Z</time></trkpt><trkpt lat="37.876783" lon="14.1571273"><ele>905.0</ele><time>2026-04-28T15:59:21.999Z</time></trkpt><trkpt lat="37.8769066" lon="14.1571412"><ele>905.0</ele><time>2026-04-28T15:59:22.999Z</time></trkpt><trkpt lat="37.8770376" lon="14.1571111"><ele>902.6666666666667</ele><time>2026-04-28T15:59:23.999Z</time></trkpt><trkpt lat="37.8771866" lon="14.1570635"><ele>900.3333333333333</ele><time>2026-04-28T15:59:24.999Z</time></trkpt><trkpt lat="37.8773372" lon="14.1570099"><ele>898.0</ele><time>2026-04-28T15:59:25.999Z</time></trkpt><trkpt lat="37.8774785" lon="14.1569402"><ele>898.0</ele><time>2026-04-28T15:59:26.999Z</time></trkpt><trkpt lat="37.877589" lon="14.1568376"><ele>898.0</ele><time>2026-04-28T15:59:27.999Z</time></trkpt><trkpt lat="37.877664" lon="14.1566974"><ele>898.0</ele><time>2026-04-28T15:59:28.999Z</time></trkpt><trkpt lat="37.8776931" lon="14.1565427"><ele>898.0</ele><time>2026-04-28T15:59:29.998Z</time></trkpt><trkpt lat="37.8777327" lon="14.1563937"><ele>896.75</ele><time>2026-04-28T15:59:30.999Z</time></trkpt><trkpt lat="37.8778002" lon="14.1562569"><ele>895.5</ele><time>2026-04-28T15:59:31.999Z</time></trkpt><trkpt lat="37.8779177" lon="14.1561642"><ele>894.25</ele><time>2026-04-28T15:59:32.999Z</time></trkpt><trkpt lat="37.8780538" lon="14.1561251"><ele>893.0</ele><time>2026-04-28T15:59:33.999Z</time></trkpt><trkpt lat="37.8782" lon="14.1561142"><ele>893.0</ele><time>2026-04-28T15:59:34.998Z</time></trkpt><trkpt lat="37.8783368" lon="14.1560781"><ele>893.0</ele><time>2026-04-28T15:59:35.999Z</time></trkpt><trkpt lat="37.8784599" lon="14.1559783"><ele>893.0</ele><time>2026-04-28T15:59:36.998Z</time></trkpt><trkpt lat="37.878597" lon="14.1558629"><ele>893.0</ele><time>2026-04-28T15:59:37.999Z</time></trkpt><trkpt lat="37.878753" lon="14.1557628"><ele>893.0</ele><time>2026-04-28T15:59:38.998Z</time></trkpt><trkpt lat="37.8789068" lon="14.1556882"><ele>893.0</ele><time>2026-04-28T15:59:39.999Z</time></trkpt><trkpt lat="37.8790654" lon="14.1556142"><ele>893.0</ele><time>2026-04-28T15:59:40.999Z</time></trkpt><trkpt lat="37.8792267" lon="14.1555062"><ele>893.0</ele><time>2026-04-28T15:59:41.999Z</time></trkpt><trkpt lat="37.879378" lon="14.1553551"><ele>893.0</ele><time>2026-04-28T15:59:42.999Z</time></trkpt><trkpt lat="37.879519" lon="14.155194"><ele>889.3333333333334</ele><time>2026-04-28T15:59:43.999Z</time></trkpt><trkpt lat="37.8796555" lon="14.1550223"><ele>885.6666666666667</ele><time>2026-04-28T15:59:44.999Z</time></trkpt><trkpt lat="37.8797803" lon="14.1548378"><ele>882.0</ele><time>2026-04-28T15:59:45.999Z</time></trkpt><trkpt lat="37.8798848" lon="14.1546273"><ele>882.0</ele><time>2026-04-28T15:59:46.999Z</time></trkpt><trkpt lat="37.8799901" lon="14.1544175"><ele>882.0</ele><time>2026-04-28T15:59:47.999Z</time></trkpt><trkpt lat="37.8801053" lon="14.1542243"><ele>882.0</ele><time>2026-04-28T15:59:48.999Z</time></trkpt><trkpt lat="37.8802217" lon="14.1540514"><ele>879.3333333333333</ele><time>2026-04-28T15:59:49.999Z</time></trkpt><trkpt lat="37.8803262" lon="14.1538817"><ele>876.6666666666666</ele><time>2026-04-28T15:59:50.998Z</time></trkpt><trkpt lat="37.8804207" lon="14.153712"><ele>874.0</ele><time>2026-04-28T15:59:51.999Z</time></trkpt><trkpt lat="37.8805269" lon="14.153563"><ele>874.0</ele><time>2026-04-28T15:59:52.999Z</time></trkpt><trkpt lat="37.8806692" lon="14.1534552"><ele>874.0</ele><time>2026-04-28T15:59:53.999Z</time></trkpt><trkpt lat="37.8808431" lon="14.1533533"><ele>874.0</ele><time>2026-04-28T15:59:54.999Z</time></trkpt><trkpt lat="37.8810294" lon="14.1532202"><ele>875.0</ele><time>2026-04-28T15:59:55.999Z</time></trkpt><trkpt lat="37.8812147" lon="14.1530673"><ele>876.0</ele><time>2026-04-28T15:59:56.999Z</time></trkpt><trkpt lat="37.8814027" lon="14.152921"><ele>877.0</ele><time>2026-04-28T15:59:57.998Z</time></trkpt><trkpt lat="37.8815964" lon="14.1528091"><ele>868.6666666666666</ele><time>2026-04-28T15:59:58.999Z</time></trkpt><trkpt lat="37.8817847" lon="14.1527146"><ele>860.3333333333333</ele><time>2026-04-28T15:59:59.999Z</time></trkpt><trkpt lat="37.8819638" lon="14.1526216"><ele>852.0</ele><time>2026-04-28T16:00:00.998Z</time></trkpt><trkpt lat="37.8821299" lon="14.1525119"><ele>852.0</ele><time>2026-04-28T16:00:01.999Z</time></trkpt><trkpt lat="37.8822654" lon="14.1523779"><ele>852.0</ele><time>2026-04-28T16:00:02.999Z</time></trkpt><trkpt lat="37.8823895" lon="14.1522552"><ele>852.0</ele><time>2026-04-28T16:00:03.999Z</time></trkpt><trkpt lat="37.8825217" lon="14.1521842"><ele>851.75</ele><time>2026-04-28T16:00:04.998Z</time></trkpt><trkpt lat="37.8826629" lon="14.1521418"><ele>851.5</ele><time>2026-04-28T16:00:05.999Z</time></trkpt><trkpt lat="37.8828037" lon="14.1520855"><ele>851.25</ele><time>2026-04-28T16:00:06.999Z</time></trkpt><trkpt lat="37.8829176" lon="14.151979"><ele>851.0</ele><time>2026-04-28T16:00:07.999Z</time></trkpt><trkpt lat="37.8829951" lon="14.1518259"><ele>851.0</ele><time>2026-04-28T16:00:08.998Z</time></trkpt><trkpt lat="37.8830676" lon="14.151656"><ele>851.0</ele><time>2026-04-28T16:00:09.999Z</time></trkpt><trkpt lat="37.8831343" lon="14.1514809"><ele>851.0</ele><time>2026-04-28T16:00:10.999Z</time></trkpt><trkpt lat="37.8832001" lon="14.1513216"><ele>851.0</ele><time>2026-04-28T16:00:11.999Z</time></trkpt><trkpt lat="37.8832823" lon="14.1511966"><ele>852.0</ele><time>2026-04-28T16:00:12.999Z</time></trkpt><trkpt lat="37.8833895" lon="14.1511152"><ele>853.0</ele><time>2026-04-28T16:00:13.999Z</time></trkpt><trkpt lat="37.8835406" lon="14.1510562"><ele>854.0</ele><time>2026-04-28T16:00:14.998Z</time></trkpt><trkpt lat="37.8837181" lon="14.1509988"><ele>854.0</ele><time>2026-04-28T16:00:15.999Z</time></trkpt><trkpt lat="37.8838949" lon="14.1509414"><ele>854.0</ele><time>2026-04-28T16:00:16.999Z</time></trkpt><trkpt lat="37.8840617" lon="14.1508965"><ele>854.0</ele><time>2026-04-28T16:00:17.998Z</time></trkpt><trkpt lat="37.8842215" lon="14.150885"><ele>849.5</ele><time>2026-04-28T16:00:18.998Z</time></trkpt><trkpt lat="37.8843524" lon="14.1509048"><ele>845.0</ele><time>2026-04-28T16:00:19.999Z</time></trkpt><trkpt lat="37.8844671" lon="14.1509242"><ele>840.5</ele><time>2026-04-28T16:00:20.999Z</time></trkpt><trkpt lat="37.8845722" lon="14.1509114"><ele>836.0</ele><time>2026-04-28T16:00:21.998Z</time></trkpt><trkpt lat="37.8846794" lon="14.1508444"><ele>836.0</ele><time>2026-04-28T16:00:22.998Z</time></trkpt><trkpt lat="37.8847656" lon="14.1507245"><ele>836.0</ele><time>2026-04-28T16:00:23.998Z</time></trkpt><trkpt lat="37.884845" lon="14.1505884"><ele>836.0</ele><time>2026-04-28T16:00:24.999Z</time></trkpt><trkpt lat="37.8849231" lon="14.1504539"><ele>836.0</ele><time>2026-04-28T16:00:25.999Z</time></trkpt><trkpt lat="37.8850274" lon="14.1503482"><ele>836.0</ele><time>2026-04-28T16:00:26.999Z</time></trkpt><trkpt lat="37.8851647" lon="14.1502909"><ele>836.0</ele><time>2026-04-28T16:00:27.999Z</time></trkpt><trkpt lat="37.8853182" lon="14.1502416"><ele>836.0</ele><time>2026-04-28T16:00:28.999Z</time></trkpt><trkpt lat="37.8854631" lon="14.150185"><ele>836.0</ele><time>2026-04-28T16:00:29.999Z</time></trkpt><trkpt lat="37.8856053" lon="14.1501012"><ele>836.0</ele><time>2026-04-28T16:00:30.999Z</time></trkpt><trkpt lat="37.8857417" lon="14.1500004"><ele>836.0</ele><time>2026-04-28T16:00:31.999Z</time></trkpt><trkpt lat="37.8858692" lon="14.149891"><ele>837.3333333333334</ele><time>2026-04-28T16:00:32.998Z</time></trkpt><trkpt lat="37.8859799" lon="14.1497695"><ele>838.6666666666667</ele><time>2026-04-28T16:00:33.998Z</time></trkpt><trkpt lat="37.8860884" lon="14.1496385"><ele>840.0</ele><time>2026-04-28T16:00:34.999Z</time></trkpt><trkpt lat="37.8862005" lon="14.1495047"><ele>840.0</ele><time>2026-04-28T16:00:35.998Z</time></trkpt><trkpt lat="37.8863442" lon="14.14938"><ele>840.0</ele><time>2026-04-28T16:00:36.999Z</time></trkpt><trkpt lat="37.8865138" lon="14.1493036"><ele>840.0</ele><time>2026-04-28T16:00:37.999Z</time></trkpt><trkpt lat="37.8866955" lon="14.1492724"><ele>836.3333333333333</ele><time>2026-04-28T16:00:38.999Z</time></trkpt><trkpt lat="37.8868764" lon="14.1492681"><ele>832.6666666666666</ele><time>2026-04-28T16:00:39.999Z</time></trkpt><trkpt lat="37.8870557" lon="14.1492666"><ele>829.0</ele><time>2026-04-28T16:00:40.999Z</time></trkpt><trkpt lat="37.8872278" lon="14.1492546"><ele>829.0</ele><time>2026-04-28T16:00:41.999Z</time></trkpt><trkpt lat="37.8873924" lon="14.149226"><ele>829.0</ele><time>2026-04-28T16:00:42.998Z</time></trkpt><trkpt lat="37.8875491" lon="14.1491563"><ele>829.0</ele><time>2026-04-28T16:00:43.999Z</time></trkpt><trkpt lat="37.8876947" lon="14.1490544"><ele>831.0</ele><time>2026-04-28T16:00:44.999Z</time></trkpt><trkpt lat="37.8878372" lon="14.1489629"><ele>833.0</ele><time>2026-04-28T16:00:45.999Z</time></trkpt><trkpt lat="37.8879768" lon="14.1489237"><ele>835.0</ele><time>2026-04-28T16:00:46.999Z</time></trkpt><trkpt lat="37.8881175" lon="14.1489611"><ele>837.0</ele><time>2026-04-28T16:00:47.999Z</time></trkpt><trkpt lat="37.8882648" lon="14.1489856"><ele>837.0</ele><time>2026-04-28T16:00:48.999Z</time></trkpt><trkpt lat="37.8884129" lon="14.148961"><ele>837.0</ele><time>2026-04-28T16:00:49.998Z</time></trkpt><trkpt lat="37.8885404" lon="14.1488655"><ele>837.0</ele><time>2026-04-28T16:00:50.999Z</time></trkpt><trkpt lat="37.8886538" lon="14.1487307"><ele>834.0</ele><time>2026-04-28T16:00:51.999Z</time></trkpt><trkpt lat="37.8887257" lon="14.1485825"><ele>831.0</ele><time>2026-04-28T16:00:52.999Z</time></trkpt><trkpt lat="37.8887901" lon="14.1484432"><ele>828.0</ele><time>2026-04-28T16:00:53.999Z</time></trkpt><trkpt lat="37.8888704" lon="14.1483585"><ele>825.0</ele><time>2026-04-28T16:00:54.998Z</time></trkpt><trkpt lat="37.8889541" lon="14.1483547"><ele>825.0</ele><time>2026-04-28T16:00:55.999Z</time></trkpt><trkpt lat="37.8890499" lon="14.1484112"><ele>825.0</ele><time>2026-04-28T16:00:56.998Z</time></trkpt><trkpt lat="37.8891654" lon="14.148476"><ele>825.0</ele><time>2026-04-28T16:00:57.999Z</time></trkpt><trkpt lat="37.88928" lon="14.1484926"><ele>825.0</ele><time>2026-04-28T16:00:58.999Z</time></trkpt><trkpt lat="37.8893982" lon="14.1484463"><ele>824.8</ele><time>2026-04-28T16:00:59.998Z</time></trkpt><trkpt lat="37.88951" lon="14.1483814"><ele>824.6</ele><time>2026-04-28T16:01:00.999Z</time></trkpt><trkpt lat="37.8896122" lon="14.1483394"><ele>824.4000000000001</ele><time>2026-04-28T16:01:01.999Z</time></trkpt><trkpt lat="37.8896979" lon="14.1483549"><ele>824.2</ele><time>2026-04-28T16:01:02.999Z</time></trkpt><trkpt lat="37.8897853" lon="14.1484473"><ele>824.0</ele><time>2026-04-28T16:01:03.999Z</time></trkpt><trkpt lat="37.8898766" lon="14.1485656"><ele>824.0</ele><time>2026-04-28T16:01:04.998Z</time></trkpt><trkpt lat="37.8899723" lon="14.1486684"><ele>824.0</ele><time>2026-04-28T16:01:05.998Z</time></trkpt><trkpt lat="37.8900721" lon="14.148751"><ele>824.0</ele><time>2026-04-28T16:01:06.999Z</time></trkpt><trkpt lat="37.8901693" lon="14.1487877"><ele>824.0</ele><time>2026-04-28T16:01:07.999Z</time></trkpt><trkpt lat="37.8902594" lon="14.1487659"><ele>824.0</ele><time>2026-04-28T16:01:08.999Z</time></trkpt><trkpt lat="37.8903835" lon="14.1487007"><ele>818.6666666666667</ele><time>2026-04-28T16:01:09.998Z</time></trkpt><trkpt lat="37.8905213" lon="14.1486189"><ele>813.3333333333333</ele><time>2026-04-28T16:01:10.998Z</time></trkpt><trkpt lat="37.8906727" lon="14.1485174"><ele>808.0</ele><time>2026-04-28T16:01:11.999Z</time></trkpt><trkpt lat="37.8908423" lon="14.148404"><ele>807.3333333333333</ele><time>2026-04-28T16:01:12.999Z</time></trkpt><trkpt lat="37.8910218" lon="14.1482783"><ele>806.6666666666667</ele><time>2026-04-28T16:01:13.999Z</time></trkpt><trkpt lat="37.891209" lon="14.1481523"><ele>806.0</ele><time>2026-04-28T16:01:14.999Z</time></trkpt><trkpt lat="37.8913917" lon="14.1480261"><ele>806.0</ele><time>2026-04-28T16:01:15.999Z</time></trkpt><trkpt lat="37.8915578" lon="14.1479012"><ele>806.0</ele><time>2026-04-28T16:01:16.999Z</time></trkpt><trkpt lat="37.8916984" lon="14.1477599"><ele>806.0</ele><time>2026-04-28T16:01:17.999Z</time></trkpt><trkpt lat="37.8918141" lon="14.1475944"><ele>807.3333333333334</ele><time>2026-04-28T16:01:18.999Z</time></trkpt><trkpt lat="37.8919121" lon="14.1474327"><ele>808.6666666666667</ele><time>2026-04-28T16:01:19.998Z</time></trkpt><trkpt lat="37.8920174" lon="14.1472717"><ele>810.0</ele><time>2026-04-28T16:01:20.999Z</time></trkpt><trkpt lat="37.8921382" lon="14.1471308"><ele>810.0</ele><time>2026-04-28T16:01:21.999Z</time></trkpt><trkpt lat="37.8922902" lon="14.1470312"><ele>810.0</ele><time>2026-04-28T16:01:22.999Z</time></trkpt><trkpt lat="37.8924617" lon="14.1469711"><ele>810.0</ele><time>2026-04-28T16:01:23.999Z</time></trkpt><trkpt lat="37.8926269" lon="14.1469217"><ele>803.25</ele><time>2026-04-28T16:01:24.999Z</time></trkpt><trkpt lat="37.892786" lon="14.1468771"><ele>796.5</ele><time>2026-04-28T16:01:25.998Z</time></trkpt><trkpt lat="37.8929313" lon="14.1468538"><ele>789.75</ele><time>2026-04-28T16:01:26.999Z</time></trkpt><trkpt lat="37.8930656" lon="14.146852"><ele>783.0</ele><time>2026-04-28T16:01:27.998Z</time></trkpt><trkpt lat="37.8931738" lon="14.1468445"><ele>783.0</ele><time>2026-04-28T16:01:28.999Z</time></trkpt><trkpt lat="37.8932523" lon="14.1468218"><ele>783.0</ele><time>2026-04-28T16:01:29.999Z</time></trkpt><trkpt lat="37.893298" lon="14.1467534"><ele>783.0</ele><time>2026-04-28T16:01:30.999Z</time></trkpt><trkpt lat="37.8933013" lon="14.1466426"><ele>783.0</ele><time>2026-04-28T16:01:31.999Z</time></trkpt><trkpt lat="37.8932509" lon="14.1465012"><ele>783.0</ele><time>2026-04-28T16:01:32.999Z</time></trkpt><trkpt lat="37.8931871" lon="14.1463505"><ele>781.75</ele><time>2026-04-28T16:01:33.999Z</time></trkpt><trkpt lat="37.8931114" lon="14.1461959"><ele>780.5</ele><time>2026-04-28T16:01:34.999Z</time></trkpt><trkpt lat="37.8930327" lon="14.1460547"><ele>779.25</ele><time>2026-04-28T16:01:35.999Z</time></trkpt><trkpt lat="37.892954" lon="14.1459284"><ele>778.0</ele><time>2026-04-28T16:01:36.999Z</time></trkpt><trkpt lat="37.8928724" lon="14.1458144"><ele>780.0</ele><time>2026-04-28T16:01:37.999Z</time></trkpt><trkpt lat="37.8927948" lon="14.1457066"><ele>782.0</ele><time>2026-04-28T16:01:38.999Z</time></trkpt><trkpt lat="37.8927347" lon="14.1455989"><ele>784.0</ele><time>2026-04-28T16:01:39.999Z</time></trkpt><trkpt lat="37.8927023" lon="14.1454886"><ele>786.0</ele><time>2026-04-28T16:01:40.999Z</time></trkpt><trkpt lat="37.8927091" lon="14.1453741"><ele>788.0</ele><time>2026-04-28T16:01:41.999Z</time></trkpt><trkpt lat="37.8927663" lon="14.1452668"><ele>788.0</ele><time>2026-04-28T16:01:42.999Z</time></trkpt><trkpt lat="37.8928534" lon="14.1451736"><ele>788.0</ele><time>2026-04-28T16:01:43.999Z</time></trkpt><trkpt lat="37.8929544" lon="14.1450887"><ele>788.0</ele><time>2026-04-28T16:01:44.999Z</time></trkpt><trkpt lat="37.8930765" lon="14.1450315"><ele>788.0</ele><time>2026-04-28T16:01:45.999Z</time></trkpt><trkpt lat="37.8932241" lon="14.1449899"><ele>788.0</ele><time>2026-04-28T16:01:46.998Z</time></trkpt><trkpt lat="37.8933844" lon="14.144969"><ele>788.0</ele><time>2026-04-28T16:01:47.999Z</time></trkpt><trkpt lat="37.8935439" lon="14.1449574"><ele>788.0</ele><time>2026-04-28T16:01:48.999Z</time></trkpt><trkpt lat="37.89371" lon="14.1449454"><ele>791.0</ele><time>2026-04-28T16:01:49.999Z</time></trkpt><trkpt lat="37.8938805" lon="14.1449329"><ele>794.0</ele><time>2026-04-28T16:01:50.999Z</time></trkpt><trkpt lat="37.8940539" lon="14.1449049"><ele>797.0</ele><time>2026-04-28T16:01:51.999Z</time></trkpt><trkpt lat="37.8942274" lon="14.1448436"><ele>791.6666666666667</ele><time>2026-04-28T16:01:52.999Z</time></trkpt><trkpt lat="37.894387" lon="14.1447535"><ele>786.3333333333333</ele><time>2026-04-28T16:01:53.999Z</time></trkpt><trkpt lat="37.8945476" lon="14.1446479"><ele>781.0</ele><time>2026-04-28T16:01:54.999Z</time></trkpt><trkpt lat="37.894715" lon="14.1445564"><ele>781.0</ele><time>2026-04-28T16:01:55.999Z</time></trkpt><trkpt lat="37.8948952" lon="14.1444852"><ele>781.0</ele><time>2026-04-28T16:01:56.999Z</time></trkpt><trkpt lat="37.8950652" lon="14.1444277"><ele>781.0</ele><time>2026-04-28T16:01:57.999Z</time></trkpt><trkpt lat="37.8952242" lon="14.1443593"><ele>776.0</ele><time>2026-04-28T16:01:58.999Z</time></trkpt><trkpt lat="37.8953751" lon="14.1442912"><ele>771.0</ele><time>2026-04-28T16:01:59.998Z</time></trkpt><trkpt lat="37.8955113" lon="14.1442332"><ele>766.0</ele><time>2026-04-28T16:02:00.998Z</time></trkpt><trkpt lat="37.8956223" lon="14.144178"><ele>761.0</ele><time>2026-04-28T16:02:01.999Z</time></trkpt><trkpt lat="37.8957084" lon="14.1441099"><ele>759.0</ele><time>2026-04-28T16:02:02.999Z</time></trkpt><trkpt lat="37.8957542" lon="14.1440107"><ele>757.0</ele><time>2026-04-28T16:02:03.999Z</time></trkpt><trkpt lat="37.8957447" lon="14.1438958"><ele>755.0</ele><time>2026-04-28T16:02:04.999Z</time></trkpt><trkpt lat="37.8956846" lon="14.1437712"><ele>753.0</ele><time>2026-04-28T16:02:05.999Z</time></trkpt><trkpt lat="37.8955846" lon="14.1436702"><ele>751.0</ele><time>2026-04-28T16:02:06.999Z</time></trkpt><trkpt lat="37.8954779" lon="14.1435726"><ele>751.0</ele><time>2026-04-28T16:02:07.999Z</time></trkpt><trkpt lat="37.8953722" lon="14.1434618"><ele>751.0</ele><time>2026-04-28T16:02:08.999Z</time></trkpt><trkpt lat="37.8952755" lon="14.1433419"><ele>751.0</ele><time>2026-04-28T16:02:09.999Z</time></trkpt><trkpt lat="37.8952068" lon="14.143191"><ele>751.0</ele><time>2026-04-28T16:02:10.998Z</time></trkpt><trkpt lat="37.8951711" lon="14.1430249"><ele>752.25</ele><time>2026-04-28T16:02:11.999Z</time></trkpt><trkpt lat="37.8951436" lon="14.1428456"><ele>753.5</ele><time>2026-04-28T16:02:12.999Z</time></trkpt><trkpt lat="37.895117" lon="14.1426778"><ele>754.75</ele><time>2026-04-28T16:02:13.999Z</time></trkpt><trkpt lat="37.8950775" lon="14.14253"><ele>756.0</ele><time>2026-04-28T16:02:14.999Z</time></trkpt><trkpt lat="37.8950051" lon="14.1424198"><ele>756.0</ele><time>2026-04-28T16:02:15.999Z</time></trkpt><trkpt lat="37.8949062" lon="14.1423648"><ele>756.0</ele><time>2026-04-28T16:02:16.999Z</time></trkpt><trkpt lat="37.8947895" lon="14.1423607"><ele>756.0</ele><time>2026-04-28T16:02:17.999Z</time></trkpt><trkpt lat="37.8946443" lon="14.1423889"><ele>756.0</ele><time>2026-04-28T16:02:18.998Z</time></trkpt><trkpt lat="37.8945062" lon="14.1424145"><ele>756.0</ele><time>2026-04-28T16:02:19.998Z</time></trkpt><trkpt lat="37.8943737" lon="14.1424322"><ele>756.0</ele><time>2026-04-28T16:02:20.999Z</time></trkpt><trkpt lat="37.8942513" lon="14.1424403"><ele>756.0</ele><time>2026-04-28T16:02:21.999Z</time></trkpt><trkpt lat="37.8941416" lon="14.1424333"><ele>756.0</ele><time>2026-04-28T16:02:22.999Z</time></trkpt><trkpt lat="37.8940555" lon="14.1423874"><ele>754.25</ele><time>2026-04-28T16:02:23.999Z</time></trkpt><trkpt lat="37.8940136" lon="14.1422785"><ele>752.5</ele><time>2026-04-28T16:02:24.999Z</time></trkpt><trkpt lat="37.8940032" lon="14.1421199"><ele>750.75</ele><time>2026-04-28T16:02:25.999Z</time></trkpt><trkpt lat="37.8940005" lon="14.1419566"><ele>749.0</ele><time>2026-04-28T16:02:26.998Z</time></trkpt><trkpt lat="37.8940028" lon="14.1418009"><ele>749.0</ele><time>2026-04-28T16:02:27.999Z</time></trkpt><trkpt lat="37.8940125" lon="14.141653"><ele>749.0</ele><time>2026-04-28T16:02:28.999Z</time></trkpt><trkpt lat="37.8940164" lon="14.1415125"><ele>749.0</ele><time>2026-04-28T16:02:29.999Z</time></trkpt><trkpt lat="37.8940238" lon="14.1413781"><ele>749.0</ele><time>2026-04-28T16:02:30.999Z</time></trkpt><trkpt lat="37.8940231" lon="14.1412553"><ele>749.0</ele><time>2026-04-28T16:02:31.999Z</time></trkpt><trkpt lat="37.8940012" lon="14.1411203"><ele>747.0</ele><time>2026-04-28T16:02:32.999Z</time></trkpt><trkpt lat="37.8939497" lon="14.1409839"><ele>745.0</ele><time>2026-04-28T16:02:33.998Z</time></trkpt><trkpt lat="37.8938823" lon="14.140856"><ele>743.0</ele><time>2026-04-28T16:02:34.999Z</time></trkpt><trkpt lat="37.8938179" lon="14.1407365"><ele>741.0</ele><time>2026-04-28T16:02:35.999Z</time></trkpt><trkpt lat="37.8937571" lon="14.1406207"><ele>741.0</ele><time>2026-04-28T16:02:36.999Z</time></trkpt><trkpt lat="37.8936929" lon="14.1405074"><ele>741.0</ele><time>2026-04-28T16:02:37.998Z</time></trkpt><trkpt lat="37.8936248" lon="14.1403979"><ele>741.0</ele><time>2026-04-28T16:02:38.999Z</time></trkpt><trkpt lat="37.8935442" lon="14.1402976"><ele>741.0</ele><time>2026-04-28T16:02:39.999Z</time></trkpt><trkpt lat="37.8934543" lon="14.1402203"><ele>741.0</ele><time>2026-04-28T16:02:40.998Z</time></trkpt><trkpt lat="37.8933568" lon="14.1401581"><ele>741.0</ele><time>2026-04-28T16:02:41.999Z</time></trkpt><trkpt lat="37.8932666" lon="14.1401028"><ele>741.0</ele><time>2026-04-28T16:02:42.999Z</time></trkpt><trkpt lat="37.8931866" lon="14.1400336"><ele>741.0</ele><time>2026-04-28T16:02:43.998Z</time></trkpt><trkpt lat="37.893124" lon="14.1399329"><ele>741.0</ele><time>2026-04-28T16:02:44.999Z</time></trkpt><trkpt lat="37.89308" lon="14.1398204"><ele>741.0</ele><time>2026-04-28T16:02:45.999Z</time></trkpt><trkpt lat="37.8930475" lon="14.139719"><ele>737.8333333333334</ele><time>2026-04-28T16:02:46.999Z</time></trkpt><trkpt lat="37.8930149" lon="14.1396261"><ele>734.6666666666666</ele><time>2026-04-28T16:02:47.999Z</time></trkpt><trkpt lat="37.8929861" lon="14.1395344"><ele>731.5</ele><time>2026-04-28T16:02:48.998Z</time></trkpt><trkpt lat="37.8929593" lon="14.1394427"><ele>728.3333333333333</ele><time>2026-04-28T16:02:49.998Z</time></trkpt><trkpt lat="37.8929323" lon="14.1393471"><ele>725.1666666666666</ele><time>2026-04-28T16:02:50.999Z</time></trkpt><trkpt lat="37.8928936" lon="14.1392465"><ele>722.0</ele><time>2026-04-28T16:02:51.998Z</time></trkpt><trkpt lat="37.8928246" lon="14.139138"><ele>722.0</ele><time>2026-04-28T16:02:52.999Z</time></trkpt><trkpt lat="37.8927025" lon="14.1390513"><ele>722.0</ele><time>2026-04-28T16:02:53.999Z</time></trkpt><trkpt lat="37.8925574" lon="14.1389619"><ele>722.0</ele><time>2026-04-28T16:02:54.998Z</time></trkpt><trkpt lat="37.892401" lon="14.13887"><ele>720.0</ele><time>2026-04-28T16:02:55.999Z</time></trkpt><trkpt lat="37.8922582" lon="14.1387679"><ele>718.0</ele><time>2026-04-28T16:02:56.999Z</time></trkpt><trkpt lat="37.8921132" lon="14.1386776"><ele>716.0</ele><time>2026-04-28T16:02:57.999Z</time></trkpt><trkpt lat="37.8919587" lon="14.1386213"><ele>716.0</ele><time>2026-04-28T16:02:58.999Z</time></trkpt><trkpt lat="37.8918004" lon="14.138584"><ele>716.0</ele><time>2026-04-28T16:02:59.999Z</time></trkpt><trkpt lat="37.8916352" lon="14.1385351"><ele>716.0</ele><time>2026-04-28T16:03:00.999Z</time></trkpt><trkpt lat="37.8914772" lon="14.1384432"><ele>720.0</ele><time>2026-04-28T16:03:01.999Z</time></trkpt><trkpt lat="37.8913199" lon="14.1383519"><ele>724.0</ele><time>2026-04-28T16:03:02.999Z</time></trkpt><trkpt lat="37.8911501" lon="14.1382846"><ele>728.0</ele><time>2026-04-28T16:03:03.999Z</time></trkpt><trkpt lat="37.8909878" lon="14.1382599"><ele>730.3333333333333</ele><time>2026-04-28T16:03:04.999Z</time></trkpt><trkpt lat="37.8908236" lon="14.1382455"><ele>732.6666666666666</ele><time>2026-04-28T16:03:05.999Z</time></trkpt><trkpt lat="37.8906639" lon="14.1382173"><ele>735.0</ele><time>2026-04-28T16:03:06.999Z</time></trkpt><trkpt lat="37.8905133" lon="14.138161"><ele>726.6666666666666</ele><time>2026-04-28T16:03:07.999Z</time></trkpt><trkpt lat="37.8903807" lon="14.1380826"><ele>718.3333333333333</ele><time>2026-04-28T16:03:08.999Z</time></trkpt><trkpt lat="37.8902723" lon="14.1379634"><ele>710.0</ele><time>2026-04-28T16:03:09.999Z</time></trkpt><trkpt lat="37.8901846" lon="14.1377868"><ele>710.0</ele><time>2026-04-28T16:03:10.999Z</time></trkpt><trkpt lat="37.8900986" lon="14.1375625"><ele>710.0</ele><time>2026-04-28T16:03:11.998Z</time></trkpt><trkpt lat="37.8900051" lon="14.1373412"><ele>710.0</ele><time>2026-04-28T16:03:12.998Z</time></trkpt><trkpt lat="37.889904" lon="14.1371322"><ele>710.3333333333333</ele><time>2026-04-28T16:03:13.999Z</time></trkpt><trkpt lat="37.8897991" lon="14.1369352"><ele>710.6666666666666</ele><time>2026-04-28T16:03:14.999Z</time></trkpt><trkpt lat="37.8897036" lon="14.1367478"><ele>711.0</ele><time>2026-04-28T16:03:15.999Z</time></trkpt><trkpt lat="37.8896108" lon="14.1365755"><ele>708.6666666666666</ele><time>2026-04-28T16:03:16.999Z</time></trkpt><trkpt lat="37.8895245" lon="14.136406"><ele>706.3333333333333</ele><time>2026-04-28T16:03:17.999Z</time></trkpt><trkpt lat="37.8894415" lon="14.1362466"><ele>704.0</ele><time>2026-04-28T16:03:18.998Z</time></trkpt><trkpt lat="37.8893646" lon="14.1360926"><ele>704.0</ele><time>2026-04-28T16:03:19.998Z</time></trkpt><trkpt lat="37.8892914" lon="14.135947"><ele>704.0</ele><time>2026-04-28T16:03:20.999Z</time></trkpt><trkpt lat="37.8892219" lon="14.1358076"><ele>704.0</ele><time>2026-04-28T16:03:21.999Z</time></trkpt><trkpt lat="37.8891695" lon="14.1356709"><ele>704.0</ele><time>2026-04-28T16:03:22.999Z</time></trkpt><trkpt lat="37.8891463" lon="14.1355217"><ele>703.5</ele><time>2026-04-28T16:03:23.999Z</time></trkpt><trkpt lat="37.8891746" lon="14.1353699"><ele>703.0</ele><time>2026-04-28T16:03:24.998Z</time></trkpt><trkpt lat="37.8892547" lon="14.1352344"><ele>702.5</ele><time>2026-04-28T16:03:25.999Z</time></trkpt><trkpt lat="37.889365" lon="14.1351067"><ele>702.0</ele><time>2026-04-28T16:03:26.999Z</time></trkpt><trkpt lat="37.8894887" lon="14.1349932"><ele>701.0</ele><time>2026-04-28T16:03:27.999Z</time></trkpt><trkpt lat="37.889632" lon="14.1349129"><ele>700.0</ele><time>2026-04-28T16:03:28.999Z</time></trkpt><trkpt lat="37.889769" lon="14.1348896"><ele>699.0</ele><time>2026-04-28T16:03:29.999Z</time></trkpt><trkpt lat="37.8898847" lon="14.1349227"><ele>698.0</ele><time>2026-04-28T16:03:30.999Z</time></trkpt><trkpt lat="37.8899631" lon="14.1350016"><ele>698.0</ele><time>2026-04-28T16:03:31.999Z</time></trkpt><trkpt lat="37.8900021" lon="14.1351159"><ele>698.0</ele><time>2026-04-28T16:03:32.999Z</time></trkpt><trkpt lat="37.890009" lon="14.1352854"><ele>698.0</ele><time>2026-04-28T16:03:33.999Z</time></trkpt><trkpt lat="37.8900209" lon="14.1354837"><ele>698.0</ele><time>2026-04-28T16:03:34.998Z</time></trkpt><trkpt lat="37.8900454" lon="14.1356806"><ele>699.5</ele><time>2026-04-28T16:03:35.999Z</time></trkpt><trkpt lat="37.8900692" lon="14.135867"><ele>701.0</ele><time>2026-04-28T16:03:36.999Z</time></trkpt><trkpt lat="37.8900904" lon="14.1360473"><ele>702.5</ele><time>2026-04-28T16:03:37.998Z</time></trkpt><trkpt lat="37.8901188" lon="14.1362259"><ele>704.0</ele><time>2026-04-28T16:03:38.998Z</time></trkpt><trkpt lat="37.8901632" lon="14.1363804"><ele>701.75</ele><time>2026-04-28T16:03:39.999Z</time></trkpt><trkpt lat="37.8902593" lon="14.1364892"><ele>699.5</ele><time>2026-04-28T16:03:40.999Z</time></trkpt><trkpt lat="37.8903831" lon="14.1365851"><ele>697.25</ele><time>2026-04-28T16:03:41.999Z</time></trkpt><trkpt lat="37.8905416" lon="14.1366576"><ele>695.0</ele><time>2026-04-28T16:03:42.999Z</time></trkpt><trkpt lat="37.8907109" lon="14.1367348"><ele>695.0</ele><time>2026-04-28T16:03:43.999Z</time></trkpt><trkpt lat="37.8908824" lon="14.1368057"><ele>695.0</ele><time>2026-04-28T16:03:44.999Z</time></trkpt><trkpt lat="37.8910662" lon="14.136872"><ele>695.0</ele><time>2026-04-28T16:03:45.999Z</time></trkpt><trkpt lat="37.8912565" lon="14.1369424"><ele>693.6666666666666</ele><time>2026-04-28T16:03:46.999Z</time></trkpt><trkpt lat="37.8914379" lon="14.1369976"><ele>692.3333333333334</ele><time>2026-04-28T16:03:47.999Z</time></trkpt><trkpt lat="37.8916136" lon="14.1370352"><ele>691.0</ele><time>2026-04-28T16:03:48.999Z</time></trkpt><trkpt lat="37.891783" lon="14.1370437"><ele>684.3333333333334</ele><time>2026-04-28T16:03:49.999Z</time></trkpt><trkpt lat="37.8919434" lon="14.1370486"><ele>677.6666666666666</ele><time>2026-04-28T16:03:50.998Z</time></trkpt><trkpt lat="37.8920919" lon="14.1370755"><ele>671.0</ele><time>2026-04-28T16:03:51.998Z</time></trkpt><trkpt lat="37.8922433" lon="14.1371574"><ele>671.0</ele><time>2026-04-28T16:03:52.998Z</time></trkpt><trkpt lat="37.8923853" lon="14.1372766"><ele>671.0</ele><time>2026-04-28T16:03:53.999Z</time></trkpt><trkpt lat="37.8925241" lon="14.1374235"><ele>671.0</ele><time>2026-04-28T16:03:54.999Z</time></trkpt><trkpt lat="37.8926646" lon="14.1375814"><ele>670.6666666666666</ele><time>2026-04-28T16:03:55.998Z</time></trkpt><trkpt lat="37.8928154" lon="14.137702"><ele>670.3333333333334</ele><time>2026-04-28T16:03:56.999Z</time></trkpt><trkpt lat="37.8929699" lon="14.1378"><ele>670.0</ele><time>2026-04-28T16:03:57.999Z</time></trkpt><trkpt lat="37.8931038" lon="14.1379085"><ele>670.0</ele><time>2026-04-28T16:03:58.999Z</time></trkpt><trkpt lat="37.893226" lon="14.1380289"><ele>670.0</ele><time>2026-04-28T16:03:59.999Z</time></trkpt><trkpt lat="37.8933467" lon="14.1381152"><ele>670.0</ele><time>2026-04-28T16:04:00.999Z</time></trkpt><trkpt lat="37.8934851" lon="14.1381488"><ele>670.0</ele><time>2026-04-28T16:04:01.999Z</time></trkpt><trkpt lat="37.8936426" lon="14.1381499"><ele>667.3333333333334</ele><time>2026-04-28T16:04:02.999Z</time></trkpt><trkpt lat="37.8938119" lon="14.1381162"><ele>664.6666666666666</ele><time>2026-04-28T16:04:03.998Z</time></trkpt><trkpt lat="37.8939831" lon="14.1380739"><ele>662.0</ele><time>2026-04-28T16:04:04.999Z</time></trkpt><trkpt lat="37.8941607" lon="14.1380395"><ele>661.3333333333333</ele><time>2026-04-28T16:04:05.999Z</time></trkpt><trkpt lat="37.8943322" lon="14.1380075"><ele>660.6666666666666</ele><time>2026-04-28T16:04:06.998Z</time></trkpt><trkpt lat="37.8945021" lon="14.1379782"><ele>660.0</ele><time>2026-04-28T16:04:07.999Z</time></trkpt><trkpt lat="37.8946609" lon="14.1379532"><ele>660.0</ele><time>2026-04-28T16:04:08.998Z</time></trkpt><trkpt lat="37.894806" lon="14.1379302"><ele>660.0</ele><time>2026-04-28T16:04:09.999Z</time></trkpt><trkpt lat="37.8949372" lon="14.1379307"><ele>660.0</ele><time>2026-04-28T16:04:10.999Z</time></trkpt><trkpt lat="37.8950496" lon="14.1379755"><ele>660.0</ele><time>2026-04-28T16:04:11.999Z</time></trkpt><trkpt lat="37.89514" lon="14.1380896"><ele>659.3333333333334</ele><time>2026-04-28T16:04:12.999Z</time></trkpt><trkpt lat="37.895226" lon="14.1382531"><ele>658.6666666666667</ele><time>2026-04-28T16:04:13.999Z</time></trkpt><trkpt lat="37.8953088" lon="14.1384326"><ele>658.0</ele><time>2026-04-28T16:04:14.999Z</time></trkpt><trkpt lat="37.8953892" lon="14.1385913"><ele>658.0</ele><time>2026-04-28T16:04:15.999Z</time></trkpt><trkpt lat="37.8954685" lon="14.1387394"><ele>658.0</ele><time>2026-04-28T16:04:16.998Z</time></trkpt><trkpt lat="37.8955379" lon="14.138871"><ele>658.0</ele><time>2026-04-28T16:04:17.999Z</time></trkpt><trkpt lat="37.8956035" lon="14.138982"><ele>658.0</ele><time>2026-04-28T16:04:18.999Z</time></trkpt><trkpt lat="37.8956684" lon="14.1390613"><ele>658.0</ele><time>2026-04-28T16:04:19.998Z</time></trkpt><trkpt lat="37.8957399" lon="14.1390897"><ele>658.0</ele><time>2026-04-28T16:04:20.999Z</time></trkpt><trkpt lat="37.8958066" lon="14.1390828"><ele>658.0</ele><time>2026-04-28T16:04:21.999Z</time></trkpt><trkpt lat="37.8958652" lon="14.1390471"><ele>658.0</ele><time>2026-04-28T16:04:23.999Z</time></trkpt><trkpt lat="37.8958821" lon="14.1389463"><ele>658.0</ele><time>2026-04-28T16:04:26.999Z</time></trkpt><trkpt lat="37.8958529" lon="14.1388084"><ele>658.0</ele><time>2026-04-28T16:04:28.999Z</time></trkpt><trkpt lat="37.8958292" lon="14.1386949"><ele>658.0</ele><time>2026-04-28T16:04:29.999Z</time></trkpt><trkpt lat="37.8958001" lon="14.1385639"><ele>658.0</ele><time>2026-04-28T16:04:30.999Z</time></trkpt><trkpt lat="37.895767" lon="14.1384143"><ele>658.0</ele><time>2026-04-28T16:04:31.999Z</time></trkpt><trkpt lat="37.8957349" lon="14.1382634"><ele>658.0</ele><time>2026-04-28T16:04:32.999Z</time></trkpt><trkpt lat="37.8957023" lon="14.1381184"><ele>656.2</ele><time>2026-04-28T16:04:33.999Z</time></trkpt><trkpt lat="37.8956723" lon="14.137991"><ele>654.4</ele><time>2026-04-28T16:04:34.999Z</time></trkpt><trkpt lat="37.8956353" lon="14.1378733"><ele>652.6</ele><time>2026-04-28T16:04:35.999Z</time></trkpt><trkpt lat="37.895593" lon="14.13775"><ele>650.8000000000001</ele><time>2026-04-28T16:04:36.999Z</time></trkpt><trkpt lat="37.8955327" lon="14.1376161"><ele>649.0</ele><time>2026-04-28T16:04:37.998Z</time></trkpt><trkpt lat="37.8954492" lon="14.1374724"><ele>646.75</ele><time>2026-04-28T16:04:38.999Z</time></trkpt><trkpt lat="37.895349" lon="14.1373494"><ele>644.5</ele><time>2026-04-28T16:04:39.999Z</time></trkpt><trkpt lat="37.89523" lon="14.1372727"><ele>642.25</ele><time>2026-04-28T16:04:40.999Z</time></trkpt><trkpt lat="37.8951025" lon="14.1372459"><ele>640.0</ele><time>2026-04-28T16:04:41.999Z</time></trkpt><trkpt lat="37.8949753" lon="14.1372672"><ele>640.0</ele><time>2026-04-28T16:04:42.999Z</time></trkpt><trkpt lat="37.8948528" lon="14.1373317"><ele>640.0</ele><time>2026-04-28T16:04:43.999Z</time></trkpt><trkpt lat="37.894737" lon="14.1374061"><ele>640.0</ele><time>2026-04-28T16:04:44.999Z</time></trkpt><trkpt lat="37.8946064" lon="14.1374664"><ele>640.0</ele><time>2026-04-28T16:04:45.999Z</time></trkpt><trkpt lat="37.8944745" lon="14.1374801"><ele>639.5</ele><time>2026-04-28T16:04:46.999Z</time></trkpt><trkpt lat="37.8943414" lon="14.1374642"><ele>639.0</ele><time>2026-04-28T16:04:47.999Z</time></trkpt><trkpt lat="37.8942094" lon="14.1374417"><ele>638.5</ele><time>2026-04-28T16:04:48.999Z</time></trkpt><trkpt lat="37.8940774" lon="14.1373973"><ele>638.0</ele><time>2026-04-28T16:04:49.998Z</time></trkpt><trkpt lat="37.8939496" lon="14.1373418"><ele>638.0</ele><time>2026-04-28T16:04:50.999Z</time></trkpt><trkpt lat="37.8938325" lon="14.1372356"><ele>638.0</ele><time>2026-04-28T16:04:51.999Z</time></trkpt><trkpt lat="37.8937252" lon="14.1371122"><ele>638.0</ele><time>2026-04-28T16:04:52.999Z</time></trkpt><trkpt lat="37.8936169" lon="14.1369953"><ele>638.0</ele><time>2026-04-28T16:04:53.999Z</time></trkpt><trkpt lat="37.8935019" lon="14.1368969"><ele>637.75</ele><time>2026-04-28T16:04:54.999Z</time></trkpt><trkpt lat="37.8933857" lon="14.1368223"><ele>637.5</ele><time>2026-04-28T16:04:55.999Z</time></trkpt><trkpt lat="37.8932681" lon="14.1367446"><ele>637.25</ele><time>2026-04-28T16:04:56.999Z</time></trkpt><trkpt lat="37.8931522" lon="14.1366331"><ele>637.0</ele><time>2026-04-28T16:04:57.999Z</time></trkpt><trkpt lat="37.8930406" lon="14.1365023"><ele>637.0</ele><time>2026-04-28T16:04:58.998Z</time></trkpt><trkpt lat="37.8929519" lon="14.1363626"><ele>637.0</ele><time>2026-04-28T16:04:59.998Z</time></trkpt><trkpt lat="37.8928792" lon="14.1362171"><ele>637.0</ele><time>2026-04-28T16:05:00.999Z</time></trkpt><trkpt lat="37.8928337" lon="14.1360601"><ele>637.0</ele><time>2026-04-28T16:05:01.999Z</time></trkpt><trkpt lat="37.8928076" lon="14.1358966"><ele>637.0</ele><time>2026-04-28T16:05:02.999Z</time></trkpt><trkpt lat="37.8927867" lon="14.1357298"><ele>637.0</ele><time>2026-04-28T16:05:03.999Z</time></trkpt><trkpt lat="37.8927478" lon="14.1355727"><ele>637.0</ele><time>2026-04-28T16:05:04.998Z</time></trkpt><trkpt lat="37.8926947" lon="14.13541"><ele>637.0</ele><time>2026-04-28T16:05:05.999Z</time></trkpt><trkpt lat="37.8926615" lon="14.1352279"><ele>635.0</ele><time>2026-04-28T16:05:06.999Z</time></trkpt><trkpt lat="37.8926428" lon="14.1350154"><ele>633.0</ele><time>2026-04-28T16:05:07.999Z</time></trkpt><trkpt lat="37.892628" lon="14.1348023"><ele>631.0</ele><time>2026-04-28T16:05:08.998Z</time></trkpt><trkpt lat="37.8926158" lon="14.1346084"><ele>630.5</ele><time>2026-04-28T16:05:09.999Z</time></trkpt><trkpt lat="37.8926126" lon="14.134421"><ele>630.0</ele><time>2026-04-28T16:05:10.999Z</time></trkpt><trkpt lat="37.8926075" lon="14.1342471"><ele>629.5</ele><time>2026-04-28T16:05:11.999Z</time></trkpt><trkpt lat="37.8925878" lon="14.1340793"><ele>629.0</ele><time>2026-04-28T16:05:12.999Z</time></trkpt><trkpt lat="37.8925482" lon="14.1339071"><ele>630.3333333333333</ele><time>2026-04-28T16:05:13.999Z</time></trkpt><trkpt lat="37.8924681" lon="14.1337426"><ele>631.6666666666666</ele><time>2026-04-28T16:05:14.999Z</time></trkpt><trkpt lat="37.8923646" lon="14.1335899"><ele>633.0</ele><time>2026-04-28T16:05:15.998Z</time></trkpt><trkpt lat="37.8922318" lon="14.1334547"><ele>633.0</ele><time>2026-04-28T16:05:16.998Z</time></trkpt><trkpt lat="37.8920886" lon="14.1333293"><ele>633.0</ele><time>2026-04-28T16:05:17.999Z</time></trkpt><trkpt lat="37.8919472" lon="14.1332211"><ele>633.0</ele><time>2026-04-28T16:05:18.999Z</time></trkpt><trkpt lat="37.8918139" lon="14.1331309"><ele>629.25</ele><time>2026-04-28T16:05:19.998Z</time></trkpt><trkpt lat="37.8916912" lon="14.1330492"><ele>625.5</ele><time>2026-04-28T16:05:20.999Z</time></trkpt><trkpt lat="37.8915941" lon="14.132949"><ele>621.75</ele><time>2026-04-28T16:05:21.999Z</time></trkpt><trkpt lat="37.8915238" lon="14.1328153"><ele>618.0</ele><time>2026-04-28T16:05:22.999Z</time></trkpt><trkpt lat="37.8914568" lon="14.1326683"><ele>618.0</ele><time>2026-04-28T16:05:23.999Z</time></trkpt><trkpt lat="37.8913699" lon="14.132526"><ele>618.0</ele><time>2026-04-28T16:05:24.998Z</time></trkpt><trkpt lat="37.8912457" lon="14.1324285"><ele>618.0</ele><time>2026-04-28T16:05:25.999Z</time></trkpt><trkpt lat="37.8911104" lon="14.1323814"><ele>618.0</ele><time>2026-04-28T16:05:26.999Z</time></trkpt><trkpt lat="37.8909709" lon="14.1323736"><ele>614.75</ele><time>2026-04-28T16:05:27.999Z</time></trkpt><trkpt lat="37.890823" lon="14.1323712"><ele>611.5</ele><time>2026-04-28T16:05:28.999Z</time></trkpt><trkpt lat="37.8906845" lon="14.1323398"><ele>608.25</ele><time>2026-04-28T16:05:29.999Z</time></trkpt><trkpt lat="37.8905589" lon="14.1322861"><ele>605.0</ele><time>2026-04-28T16:05:30.999Z</time></trkpt><trkpt lat="37.8904264" lon="14.1322441"><ele>605.0</ele><time>2026-04-28T16:05:31.999Z</time></trkpt><trkpt lat="37.8902695" lon="14.1322402"><ele>605.0</ele><time>2026-04-28T16:05:32.999Z</time></trkpt><trkpt lat="37.8901326" lon="14.132292"><ele>605.0</ele><time>2026-04-28T16:05:33.999Z</time></trkpt><trkpt lat="37.8899929" lon="14.1323568"><ele>605.0</ele><time>2026-04-28T16:05:34.999Z</time></trkpt><trkpt lat="37.8898508" lon="14.1324065"><ele>612.3333333333333</ele><time>2026-04-28T16:05:35.999Z</time></trkpt><trkpt lat="37.8896955" lon="14.1324279"><ele>619.6666666666666</ele><time>2026-04-28T16:05:36.999Z</time></trkpt><trkpt lat="37.8895388" lon="14.1324184"><ele>627.0</ele><time>2026-04-28T16:05:37.999Z</time></trkpt><trkpt lat="37.8893827" lon="14.1323961"><ele>617.0</ele><time>2026-04-28T16:05:38.999Z</time></trkpt><trkpt lat="37.8892259" lon="14.1323601"><ele>607.0</ele><time>2026-04-28T16:05:39.999Z</time></trkpt><trkpt lat="37.8890803" lon="14.132305"><ele>597.0</ele><time>2026-04-28T16:05:40.999Z</time></trkpt><trkpt lat="37.8889476" lon="14.1322262"><ele>597.0</ele><time>2026-04-28T16:05:41.999Z</time></trkpt><trkpt lat="37.8888295" lon="14.1321365"><ele>597.0</ele><time>2026-04-28T16:05:42.999Z</time></trkpt><trkpt lat="37.8887265" lon="14.1320441"><ele>597.0</ele><time>2026-04-28T16:05:43.998Z</time></trkpt><trkpt lat="37.888639" lon="14.1319506"><ele>597.0</ele><time>2026-04-28T16:05:44.999Z</time></trkpt><trkpt lat="37.8885731" lon="14.1318497"><ele>597.0</ele><time>2026-04-28T16:05:45.999Z</time></trkpt><trkpt lat="37.8885346" lon="14.13172"><ele>597.0</ele><time>2026-04-28T16:05:46.999Z</time></trkpt><trkpt lat="37.8885451" lon="14.1316094"><ele>597.0</ele><time>2026-04-28T16:05:47.999Z</time></trkpt><trkpt lat="37.8886059" lon="14.1315544"><ele>597.0</ele><time>2026-04-28T16:05:48.999Z</time></trkpt><trkpt lat="37.8886925" lon="14.1315603"><ele>597.0</ele><time>2026-04-28T16:05:49.999Z</time></trkpt><trkpt lat="37.8887902" lon="14.1316114"><ele>597.0</ele><time>2026-04-28T16:05:50.999Z</time></trkpt><trkpt lat="37.8888996" lon="14.1316981"><ele>597.0</ele><time>2026-04-28T16:05:51.998Z</time></trkpt><trkpt lat="37.8890004" lon="14.1318053"><ele>597.0</ele><time>2026-04-28T16:05:52.999Z</time></trkpt><trkpt lat="37.8891007" lon="14.1319148"><ele>597.0</ele><time>2026-04-28T16:05:53.999Z</time></trkpt><trkpt lat="37.889201" lon="14.1320196"><ele>596.25</ele><time>2026-04-28T16:05:54.999Z</time></trkpt><trkpt lat="37.889308" lon="14.132093"><ele>595.5</ele><time>2026-04-28T16:05:55.998Z</time></trkpt><trkpt lat="37.8894465" lon="14.1321047"><ele>594.75</ele><time>2026-04-28T16:05:56.999Z</time></trkpt><trkpt lat="37.8895902" lon="14.1320814"><ele>594.0</ele><time>2026-04-28T16:05:57.999Z</time></trkpt><trkpt lat="37.8897488" lon="14.1320237"><ele>594.0</ele><time>2026-04-28T16:05:58.999Z</time></trkpt><trkpt lat="37.8899043" lon="14.1319625"><ele>594.0</ele><time>2026-04-28T16:05:59.999Z</time></trkpt><trkpt lat="37.8900546" lon="14.1319067"><ele>594.0</ele><time>2026-04-28T16:06:00.999Z</time></trkpt><trkpt lat="37.890195" lon="14.1318408"><ele>592.3333333333334</ele><time>2026-04-28T16:06:01.999Z</time></trkpt><trkpt lat="37.8903284" lon="14.1317381"><ele>590.6666666666667</ele><time>2026-04-28T16:06:02.999Z</time></trkpt><trkpt lat="37.8904551" lon="14.1315893"><ele>589.0</ele><time>2026-04-28T16:06:03.998Z</time></trkpt><trkpt lat="37.890573" lon="14.1314307"><ele>589.0</ele><time>2026-04-28T16:06:04.999Z</time></trkpt><trkpt lat="37.8906777" lon="14.1312792"><ele>589.0</ele><time>2026-04-28T16:06:05.999Z</time></trkpt><trkpt lat="37.8907627" lon="14.1311449"><ele>589.0</ele><time>2026-04-28T16:06:06.999Z</time></trkpt><trkpt lat="37.8908119" lon="14.1310137"><ele>589.0</ele><time>2026-04-28T16:06:07.999Z</time></trkpt><trkpt lat="37.8908286" lon="14.1308823"><ele>589.0</ele><time>2026-04-28T16:06:08.999Z</time></trkpt><trkpt lat="37.8908438" lon="14.1307528"><ele>589.0</ele><time>2026-04-28T16:06:09.999Z</time></trkpt><trkpt lat="37.890876" lon="14.1306408"><ele>589.0</ele><time>2026-04-28T16:06:10.999Z</time></trkpt><trkpt lat="37.8909436" lon="14.1305471"><ele>589.0</ele><time>2026-04-28T16:06:11.999Z</time></trkpt><trkpt lat="37.8910428" lon="14.1305053"><ele>589.0</ele><time>2026-04-28T16:06:12.998Z</time></trkpt><trkpt lat="37.8911632" lon="14.1305213"><ele>589.3333333333334</ele><time>2026-04-28T16:06:13.999Z</time></trkpt><trkpt lat="37.8913013" lon="14.1305802"><ele>589.6666666666666</ele><time>2026-04-28T16:06:14.999Z</time></trkpt><trkpt lat="37.891453" lon="14.1306517"><ele>590.0</ele><time>2026-04-28T16:06:15.998Z</time></trkpt><trkpt lat="37.8916032" lon="14.1307266"><ele>590.0</ele><time>2026-04-28T16:06:16.999Z</time></trkpt><trkpt lat="37.891737" lon="14.1308137"><ele>590.0</ele><time>2026-04-28T16:06:17.999Z</time></trkpt><trkpt lat="37.8918545" lon="14.1309207"><ele>590.0</ele><time>2026-04-28T16:06:18.999Z</time></trkpt><trkpt lat="37.8919516" lon="14.1310472"><ele>590.0</ele><time>2026-04-28T16:06:19.999Z</time></trkpt><trkpt lat="37.8920646" lon="14.1311585"><ele>584.75</ele><time>2026-04-28T16:06:20.998Z</time></trkpt><trkpt lat="37.8921987" lon="14.1312267"><ele>579.5</ele><time>2026-04-28T16:06:21.999Z</time></trkpt><trkpt lat="37.8923386" lon="14.1312649"><ele>574.25</ele><time>2026-04-28T16:06:22.998Z</time></trkpt><trkpt lat="37.8924703" lon="14.1313205"><ele>569.0</ele><time>2026-04-28T16:06:23.999Z</time></trkpt><trkpt lat="37.8926038" lon="14.1313825"><ele>569.0</ele><time>2026-04-28T16:06:24.999Z</time></trkpt><trkpt lat="37.8927559" lon="14.1314086"><ele>569.0</ele><time>2026-04-28T16:06:25.998Z</time></trkpt><trkpt lat="37.8929152" lon="14.1313997"><ele>569.0</ele><time>2026-04-28T16:06:26.998Z</time></trkpt><trkpt lat="37.8930668" lon="14.1313698"><ele>569.0</ele><time>2026-04-28T16:06:27.999Z</time></trkpt><trkpt lat="37.8932093" lon="14.1313278"><ele>569.0</ele><time>2026-04-28T16:06:28.999Z</time></trkpt><trkpt lat="37.8933266" lon="14.1312547"><ele>569.0</ele><time>2026-04-28T16:06:29.998Z</time></trkpt><trkpt lat="37.8934225" lon="14.1311351"><ele>569.0</ele><time>2026-04-28T16:06:30.999Z</time></trkpt><trkpt lat="37.8935082" lon="14.1310035"><ele>569.5</ele><time>2026-04-28T16:06:31.999Z</time></trkpt><trkpt lat="37.8935984" lon="14.1308823"><ele>570.0</ele><time>2026-04-28T16:06:32.998Z</time></trkpt><trkpt lat="37.8937022" lon="14.1307881"><ele>570.5</ele><time>2026-04-28T16:06:33.999Z</time></trkpt><trkpt lat="37.8938238" lon="14.1307341"><ele>571.0</ele><time>2026-04-28T16:06:34.999Z</time></trkpt><trkpt lat="37.8939503" lon="14.1307622"><ele>571.0</ele><time>2026-04-28T16:06:35.999Z</time></trkpt><trkpt lat="37.8940771" lon="14.1308329"><ele>571.0</ele><time>2026-04-28T16:06:36.999Z</time></trkpt><trkpt lat="37.8942054" lon="14.1309128"><ele>571.0</ele><time>2026-04-28T16:06:37.998Z</time></trkpt><trkpt lat="37.8943351" lon="14.1309319"><ele>571.0</ele><time>2026-04-28T16:06:38.999Z</time></trkpt><trkpt lat="37.8944442" lon="14.1308872"><ele>569.25</ele><time>2026-04-28T16:06:39.999Z</time></trkpt><trkpt lat="37.894545" lon="14.1308228"><ele>567.5</ele><time>2026-04-28T16:06:40.999Z</time></trkpt><trkpt lat="37.8946542" lon="14.1307655"><ele>565.75</ele><time>2026-04-28T16:06:41.999Z</time></trkpt><trkpt lat="37.8947859" lon="14.1307626"><ele>564.0</ele><time>2026-04-28T16:06:42.998Z</time></trkpt><trkpt lat="37.8949339" lon="14.1307971"><ele>564.0</ele><time>2026-04-28T16:06:43.999Z</time></trkpt><trkpt lat="37.8950836" lon="14.1308315"><ele>564.0</ele><time>2026-04-28T16:06:44.999Z</time></trkpt><trkpt lat="37.8952143" lon="14.1308759"><ele>564.0</ele><time>2026-04-28T16:06:45.998Z</time></trkpt><trkpt lat="37.8953169" lon="14.1309434"><ele>564.0</ele><time>2026-04-28T16:06:46.999Z</time></trkpt><trkpt lat="37.8953883" lon="14.1310471"><ele>562.5</ele><time>2026-04-28T16:06:47.999Z</time></trkpt><trkpt lat="37.8954496" lon="14.1311827"><ele>561.0</ele><time>2026-04-28T16:06:48.999Z</time></trkpt><trkpt lat="37.8955254" lon="14.1313377"><ele>559.5</ele><time>2026-04-28T16:06:49.998Z</time></trkpt><trkpt lat="37.8956165" lon="14.1314919"><ele>558.0</ele><time>2026-04-28T16:06:50.999Z</time></trkpt><trkpt lat="37.8957187" lon="14.1316394"><ele>558.0</ele><time>2026-04-28T16:06:51.999Z</time></trkpt><trkpt lat="37.8958214" lon="14.1317713"><ele>558.0</ele><time>2026-04-28T16:06:52.999Z</time></trkpt><trkpt lat="37.8959114" lon="14.1319019"><ele>558.0</ele><time>2026-04-28T16:06:53.998Z</time></trkpt><trkpt lat="37.8959851" lon="14.1320537"><ele>558.0</ele><time>2026-04-28T16:06:54.999Z</time></trkpt><trkpt lat="37.8960354" lon="14.1322359"><ele>551.6666666666666</ele><time>2026-04-28T16:06:55.998Z</time></trkpt><trkpt lat="37.8960779" lon="14.132422"><ele>545.3333333333333</ele><time>2026-04-28T16:06:56.999Z</time></trkpt><trkpt lat="37.896116" lon="14.1326127"><ele>539.0</ele><time>2026-04-28T16:06:57.999Z</time></trkpt><trkpt lat="37.8961547" lon="14.1327968"><ele>539.0</ele><time>2026-04-28T16:06:58.998Z</time></trkpt><trkpt lat="37.8961908" lon="14.1329719"><ele>539.0</ele><time>2026-04-28T16:06:59.999Z</time></trkpt><trkpt lat="37.8962072" lon="14.1331443"><ele>539.0</ele><time>2026-04-28T16:07:00.998Z</time></trkpt><trkpt lat="37.8961951" lon="14.1333204"><ele>539.0</ele><time>2026-04-28T16:07:01.999Z</time></trkpt><trkpt lat="37.896145" lon="14.1334849"><ele>538.2</ele><time>2026-04-28T16:07:02.999Z</time></trkpt><trkpt lat="37.896067" lon="14.1336313"><ele>537.4</ele><time>2026-04-28T16:07:03.999Z</time></trkpt><trkpt lat="37.8959859" lon="14.1337427"><ele>536.6</ele><time>2026-04-28T16:07:04.999Z</time></trkpt><trkpt lat="37.8959364" lon="14.1338372"><ele>535.8</ele><time>2026-04-28T16:07:05.999Z</time></trkpt><trkpt lat="37.895923" lon="14.1339295"><ele>535.0</ele><time>2026-04-28T16:07:06.999Z</time></trkpt><trkpt lat="37.8959649" lon="14.1340175"><ele>535.0</ele><time>2026-04-28T16:07:07.999Z</time></trkpt><trkpt lat="37.8960512" lon="14.13404"><ele>535.0</ele><time>2026-04-28T16:07:08.999Z</time></trkpt><trkpt lat="37.8961561" lon="14.1340302"><ele>535.0</ele><time>2026-04-28T16:07:09.999Z</time></trkpt><trkpt lat="37.8962713" lon="14.1340396"><ele>535.0</ele><time>2026-04-28T16:07:10.999Z</time></trkpt><trkpt lat="37.8963733" lon="14.1340805"><ele>535.0</ele><time>2026-04-28T16:07:11.999Z</time></trkpt><trkpt lat="37.8964538" lon="14.1341651"><ele>536.25</ele><time>2026-04-28T16:07:12.999Z</time></trkpt><trkpt lat="37.8965244" lon="14.1342781"><ele>537.5</ele><time>2026-04-28T16:07:13.999Z</time></trkpt><trkpt lat="37.8966189" lon="14.1343845"><ele>538.75</ele><time>2026-04-28T16:07:14.998Z</time></trkpt><trkpt lat="37.8967285" lon="14.1344614"><ele>540.0</ele><time>2026-04-28T16:07:15.999Z</time></trkpt><trkpt lat="37.8968817" lon="14.1345326"><ele>534.6666666666666</ele><time>2026-04-28T16:07:16.999Z</time></trkpt><trkpt lat="37.8970556" lon="14.1345876"><ele>529.3333333333333</ele><time>2026-04-28T16:07:17.999Z</time></trkpt><trkpt lat="37.8972445" lon="14.1346228"><ele>524.0</ele><time>2026-04-28T16:07:18.999Z</time></trkpt><trkpt lat="37.8974289" lon="14.1346247"><ele>520.0</ele><time>2026-04-28T16:07:19.999Z</time></trkpt><trkpt lat="37.8976075" lon="14.1346159"><ele>516.0</ele><time>2026-04-28T16:07:20.999Z</time></trkpt><trkpt lat="37.8977843" lon="14.1346021"><ele>512.0</ele><time>2026-04-28T16:07:21.999Z</time></trkpt><trkpt lat="37.8979615" lon="14.1345969"><ele>512.0</ele><time>2026-04-28T16:07:22.999Z</time></trkpt><trkpt lat="37.8981477" lon="14.1346042"><ele>512.0</ele><time>2026-04-28T16:07:23.998Z</time></trkpt><trkpt lat="37.89833" lon="14.1346397"><ele>512.0</ele><time>2026-04-28T16:07:24.999Z</time></trkpt><trkpt lat="37.8985098" lon="14.1346869"><ele>509.3333333333333</ele><time>2026-04-28T16:07:25.999Z</time></trkpt><trkpt lat="37.8986772" lon="14.1347417"><ele>506.66666666666663</ele><time>2026-04-28T16:07:26.999Z</time></trkpt><trkpt lat="37.8988422" lon="14.1348031"><ele>504.0</ele><time>2026-04-28T16:07:27.998Z</time></trkpt><trkpt lat="37.8989958" lon="14.1348514"><ele>504.0</ele><time>2026-04-28T16:07:28.999Z</time></trkpt><trkpt lat="37.8991411" lon="14.1348486"><ele>504.0</ele><time>2026-04-28T16:07:29.999Z</time></trkpt><trkpt lat="37.8992747" lon="14.1348169"><ele>504.0</ele><time>2026-04-28T16:07:30.999Z</time></trkpt><trkpt lat="37.899404" lon="14.134768"><ele>504.0</ele><time>2026-04-28T16:07:31.998Z</time></trkpt><trkpt lat="37.8995349" lon="14.1347389"><ele>503.0</ele><time>2026-04-28T16:07:32.999Z</time></trkpt><trkpt lat="37.8996622" lon="14.1347554"><ele>502.0</ele><time>2026-04-28T16:07:33.999Z</time></trkpt><trkpt lat="37.8997674" lon="14.1348191"><ele>501.0</ele><time>2026-04-28T16:07:34.998Z</time></trkpt><trkpt lat="37.899828" lon="14.1349188"><ele>500.0</ele><time>2026-04-28T16:07:35.999Z</time></trkpt><trkpt lat="37.8998705" lon="14.1350082"><ele>499.0</ele><time>2026-04-28T16:07:36.998Z</time></trkpt><trkpt lat="37.8999235" lon="14.1350885"><ele>498.0</ele><time>2026-04-28T16:07:37.999Z</time></trkpt><trkpt lat="37.9000043" lon="14.1351049"><ele>497.0</ele><time>2026-04-28T16:07:38.998Z</time></trkpt><trkpt lat="37.9001034" lon="14.1350665"><ele>496.0</ele><time>2026-04-28T16:07:39.999Z</time></trkpt><trkpt lat="37.9002115" lon="14.1350004"><ele>495.0</ele><time>2026-04-28T16:07:40.999Z</time></trkpt><trkpt lat="37.9003177" lon="14.1349366"><ele>494.0</ele><time>2026-04-28T16:07:41.999Z</time></trkpt><trkpt lat="37.9004198" lon="14.1348745"><ele>494.0</ele><time>2026-04-28T16:07:42.999Z</time></trkpt><trkpt lat="37.9005355" lon="14.1348274"><ele>494.0</ele><time>2026-04-28T16:07:43.999Z</time></trkpt><trkpt lat="37.9006776" lon="14.1348139"><ele>494.0</ele><time>2026-04-28T16:07:44.998Z</time></trkpt><trkpt lat="37.9008481" lon="14.1348037"><ele>494.0</ele><time>2026-04-28T16:07:45.998Z</time></trkpt><trkpt lat="37.901031" lon="14.1347909"><ele>492.0</ele><time>2026-04-28T16:07:46.998Z</time></trkpt><trkpt lat="37.9012048" lon="14.1347551"><ele>490.0</ele><time>2026-04-28T16:07:47.999Z</time></trkpt><trkpt lat="37.9013552" lon="14.1347256"><ele>488.0</ele><time>2026-04-28T16:07:48.999Z</time></trkpt><trkpt lat="37.9014727" lon="14.1347238"><ele>486.0</ele><time>2026-04-28T16:07:49.998Z</time></trkpt><trkpt lat="37.9015767" lon="14.134772"><ele>486.0</ele><time>2026-04-28T16:07:50.998Z</time></trkpt><trkpt lat="37.9016643" lon="14.1348565"><ele>486.0</ele><time>2026-04-28T16:07:51.999Z</time></trkpt><trkpt lat="37.9017127" lon="14.1349701"><ele>486.0</ele><time>2026-04-28T16:07:52.998Z</time></trkpt><trkpt lat="37.9017126" lon="14.1351056"><ele>486.0</ele><time>2026-04-28T16:07:53.999Z</time></trkpt><trkpt lat="37.9016691" lon="14.1352649"><ele>491.25</ele><time>2026-04-28T16:07:54.999Z</time></trkpt><trkpt lat="37.9016239" lon="14.1354464"><ele>496.5</ele><time>2026-04-28T16:07:55.999Z</time></trkpt><trkpt lat="37.9015967" lon="14.1356335"><ele>501.75</ele><time>2026-04-28T16:07:56.999Z</time></trkpt><trkpt lat="37.9015801" lon="14.1358077"><ele>507.0</ele><time>2026-04-28T16:07:57.999Z</time></trkpt><trkpt lat="37.901573" lon="14.1359784"><ele>507.40000000000003</ele><time>2026-04-28T16:07:58.999Z</time></trkpt><trkpt lat="37.901578" lon="14.1361233"><ele>507.80000000000007</ele><time>2026-04-28T16:07:59.999Z</time></trkpt><trkpt lat="37.9016112" lon="14.1362215"><ele>508.2</ele><time>2026-04-28T16:08:00.999Z</time></trkpt><trkpt lat="37.9016891" lon="14.1362865"><ele>508.6</ele><time>2026-04-28T16:08:01.999Z</time></trkpt><trkpt lat="37.9017952" lon="14.1363281"><ele>509.0</ele><time>2026-04-28T16:08:02.998Z</time></trkpt><trkpt lat="37.9019086" lon="14.1363474"><ele>505.6</ele><time>2026-04-28T16:08:03.999Z</time></trkpt><trkpt lat="37.9020224" lon="14.1363623"><ele>502.2</ele><time>2026-04-28T16:08:04.998Z</time></trkpt><trkpt lat="37.9021297" lon="14.1363752"><ele>498.80000000000007</ele><time>2026-04-28T16:08:05.999Z</time></trkpt><trkpt lat="37.9022339" lon="14.1363902"><ele>495.40000000000003</ele><time>2026-04-28T16:08:06.998Z</time></trkpt><trkpt lat="37.9023364" lon="14.1364093"><ele>492.0</ele><time>2026-04-28T16:08:07.999Z</time></trkpt><trkpt lat="37.9024392" lon="14.1364578"><ele>492.75</ele><time>2026-04-28T16:08:08.999Z</time></trkpt><trkpt lat="37.9024973" lon="14.1365651"><ele>493.5</ele><time>2026-04-28T16:08:09.999Z</time></trkpt><trkpt lat="37.9025056" lon="14.1367143"><ele>494.25</ele><time>2026-04-28T16:08:10.999Z</time></trkpt><trkpt lat="37.9024714" lon="14.1368952"><ele>495.0</ele><time>2026-04-28T16:08:11.999Z</time></trkpt><trkpt lat="37.9024388" lon="14.1370708"><ele>495.0</ele><time>2026-04-28T16:08:12.999Z</time></trkpt><trkpt lat="37.9023855" lon="14.1372376"><ele>495.0</ele><time>2026-04-28T16:08:13.999Z</time></trkpt><trkpt lat="37.9023283" lon="14.137376"><ele>495.0</ele><time>2026-04-28T16:08:14.999Z</time></trkpt><trkpt lat="37.9022918" lon="14.1375085"><ele>495.0</ele><time>2026-04-28T16:08:15.999Z</time></trkpt><trkpt lat="37.902296" lon="14.1376547"><ele>494.75</ele><time>2026-04-28T16:08:16.998Z</time></trkpt><trkpt lat="37.9023297" lon="14.1378089"><ele>494.5</ele><time>2026-04-28T16:08:17.999Z</time></trkpt><trkpt lat="37.9024009" lon="14.1379436"><ele>494.25</ele><time>2026-04-28T16:08:18.999Z</time></trkpt><trkpt lat="37.9024938" lon="14.1380369"><ele>494.0</ele><time>2026-04-28T16:08:19.999Z</time></trkpt><trkpt lat="37.9026089" lon="14.1380935"><ele>491.75</ele><time>2026-04-28T16:08:20.999Z</time></trkpt><trkpt lat="37.9027438" lon="14.138143"><ele>489.5</ele><time>2026-04-28T16:08:21.999Z</time></trkpt><trkpt lat="37.9028676" lon="14.1381962"><ele>487.25</ele><time>2026-04-28T16:08:22.999Z</time></trkpt><trkpt lat="37.902985" lon="14.1382885"><ele>485.0</ele><time>2026-04-28T16:08:23.999Z</time></trkpt><trkpt lat="37.9030804" lon="14.1383918"><ele>485.0</ele><time>2026-04-28T16:08:24.999Z</time></trkpt><trkpt lat="37.9031653" lon="14.1384687"><ele>485.0</ele><time>2026-04-28T16:08:25.999Z</time></trkpt><trkpt lat="37.9032679" lon="14.1384765"><ele>485.0</ele><time>2026-04-28T16:08:26.999Z</time></trkpt><trkpt lat="37.9033694" lon="14.1384086"><ele>485.0</ele><time>2026-04-28T16:08:27.999Z</time></trkpt><trkpt lat="37.9034735" lon="14.1383027"><ele>477.75</ele><time>2026-04-28T16:08:28.999Z</time></trkpt><trkpt lat="37.9035707" lon="14.1381953"><ele>470.5</ele><time>2026-04-28T16:08:29.999Z</time></trkpt><trkpt lat="37.9036733" lon="14.1380986"><ele>463.25</ele><time>2026-04-28T16:08:30.999Z</time></trkpt><trkpt lat="37.9037985" lon="14.1380456"><ele>456.0</ele><time>2026-04-28T16:08:31.998Z</time></trkpt><trkpt lat="37.9039338" lon="14.1380681"><ele>456.0</ele><time>2026-04-28T16:08:32.999Z</time></trkpt><trkpt lat="37.9040731" lon="14.1381383"><ele>456.0</ele><time>2026-04-28T16:08:33.999Z</time></trkpt><trkpt lat="37.9041958" lon="14.1382414"><ele>456.0</ele><time>2026-04-28T16:08:34.999Z</time></trkpt><trkpt lat="37.9042974" lon="14.1383618"><ele>456.0</ele><time>2026-04-28T16:08:35.999Z</time></trkpt><trkpt lat="37.9043594" lon="14.1385091"><ele>456.25</ele><time>2026-04-28T16:08:36.999Z</time></trkpt><trkpt lat="37.9043959" lon="14.1386893"><ele>456.5</ele><time>2026-04-28T16:08:37.999Z</time></trkpt><trkpt lat="37.9044266" lon="14.1388687"><ele>456.75</ele><time>2026-04-28T16:08:38.999Z</time></trkpt><trkpt lat="37.9044511" lon="14.1390455"><ele>457.0</ele><time>2026-04-28T16:08:39.999Z</time></trkpt><trkpt lat="37.9044554" lon="14.1392284"><ele>457.5</ele><time>2026-04-28T16:08:40.998Z</time></trkpt><trkpt lat="37.9044168" lon="14.1394095"><ele>458.0</ele><time>2026-04-28T16:08:41.999Z</time></trkpt><trkpt lat="37.9043625" lon="14.1395768"><ele>458.5</ele><time>2026-04-28T16:08:42.999Z</time></trkpt><trkpt lat="37.9043126" lon="14.1397516"><ele>459.0</ele><time>2026-04-28T16:08:43.998Z</time></trkpt><trkpt lat="37.9042845" lon="14.1399374"><ele>456.33333333333337</ele><time>2026-04-28T16:08:44.998Z</time></trkpt><trkpt lat="37.9042757" lon="14.1401393"><ele>453.6666666666667</ele><time>2026-04-28T16:08:45.998Z</time></trkpt><trkpt lat="37.9042707" lon="14.1403546"><ele>451.0</ele><time>2026-04-28T16:08:46.997Z</time></trkpt><trkpt lat="37.9042633" lon="14.1405753"><ele>451.33333333333337</ele><time>2026-04-28T16:08:47.997Z</time></trkpt><trkpt lat="37.9042582" lon="14.1407861"><ele>451.66666666666663</ele><time>2026-04-28T16:08:48.998Z</time></trkpt><trkpt lat="37.9042524" lon="14.1409845"><ele>452.0</ele><time>2026-04-28T16:08:49.998Z</time></trkpt><trkpt lat="37.9042593" lon="14.141171"><ele>452.0</ele><time>2026-04-28T16:08:50.998Z</time></trkpt><trkpt lat="37.9042943" lon="14.1413307"><ele>452.0</ele><time>2026-04-28T16:08:51.998Z</time></trkpt><trkpt lat="37.904382" lon="14.1414753"><ele>452.0</ele><time>2026-04-28T16:08:52.997Z</time></trkpt><trkpt lat="37.9045054" lon="14.1416121"><ele>452.0</ele><time>2026-04-28T16:08:53.998Z</time></trkpt><trkpt lat="37.9046333" lon="14.1417439"><ele>453.0</ele><time>2026-04-28T16:08:54.998Z</time></trkpt><trkpt lat="37.9047524" lon="14.1418707"><ele>454.0</ele><time>2026-04-28T16:08:55.998Z</time></trkpt><trkpt lat="37.9048585" lon="14.1419926"><ele>455.0</ele><time>2026-04-28T16:08:56.998Z</time></trkpt><trkpt lat="37.9049554" lon="14.1421043"><ele>456.0</ele><time>2026-04-28T16:08:57.998Z</time></trkpt><trkpt lat="37.9050474" lon="14.1422053"><ele>452.0</ele><time>2026-04-28T16:08:58.997Z</time></trkpt><trkpt lat="37.9051387" lon="14.1422921"><ele>448.0</ele><time>2026-04-28T16:08:59.998Z</time></trkpt><trkpt lat="37.9052324" lon="14.1423379"><ele>444.0</ele><time>2026-04-28T16:09:00.998Z</time></trkpt><trkpt lat="37.9053362" lon="14.1423396"><ele>440.0</ele><time>2026-04-28T16:09:01.997Z</time></trkpt><trkpt lat="37.9054324" lon="14.1422771"><ele>436.0</ele><time>2026-04-28T16:09:02.997Z</time></trkpt><trkpt lat="37.9054941" lon="14.1421721"><ele>436.0</ele><time>2026-04-28T16:09:03.997Z</time></trkpt><trkpt lat="37.905523" lon="14.1420256"><ele>436.0</ele><time>2026-04-28T16:09:04.998Z</time></trkpt><trkpt lat="37.9055103" lon="14.1418618"><ele>436.0</ele><time>2026-04-28T16:09:05.998Z</time></trkpt><trkpt lat="37.9054816" lon="14.1416623"><ele>436.0</ele><time>2026-04-28T16:09:06.998Z</time></trkpt><trkpt lat="37.9054479" lon="14.1414481"><ele>435.0</ele><time>2026-04-28T16:09:07.998Z</time></trkpt><trkpt lat="37.9054087" lon="14.1412326"><ele>434.0</ele><time>2026-04-28T16:09:08.997Z</time></trkpt><trkpt lat="37.905367" lon="14.141014"><ele>433.0</ele><time>2026-04-28T16:09:09.998Z</time></trkpt><trkpt lat="37.9053272" lon="14.1407965"><ele>433.0</ele><time>2026-04-28T16:09:10.998Z</time></trkpt><trkpt lat="37.9052907" lon="14.1405913"><ele>433.0</ele><time>2026-04-28T16:09:11.998Z</time></trkpt><trkpt lat="37.9052629" lon="14.1403867"><ele>433.0</ele><time>2026-04-28T16:09:12.998Z</time></trkpt><trkpt lat="37.9052516" lon="14.1401722"><ele>433.0</ele><time>2026-04-28T16:09:13.998Z</time></trkpt><trkpt lat="37.9052661" lon="14.1399561"><ele>433.0</ele><time>2026-04-28T16:09:14.998Z</time></trkpt><trkpt lat="37.905311" lon="14.1397418"><ele>433.0</ele><time>2026-04-28T16:09:15.998Z</time></trkpt><trkpt lat="37.9053627" lon="14.1395221"><ele>434.33333333333337</ele><time>2026-04-28T16:09:16.998Z</time></trkpt><trkpt lat="37.9054205" lon="14.1392984"><ele>435.66666666666663</ele><time>2026-04-28T16:09:17.998Z</time></trkpt><trkpt lat="37.9054783" lon="14.139073"><ele>437.0</ele><time>2026-04-28T16:09:18.998Z</time></trkpt><trkpt lat="37.9055325" lon="14.1388466"><ele>437.3333333333333</ele><time>2026-04-28T16:09:19.998Z</time></trkpt><trkpt lat="37.9055889" lon="14.1386229"><ele>437.66666666666663</ele><time>2026-04-28T16:09:20.998Z</time></trkpt><trkpt lat="37.9056491" lon="14.1383993"><ele>438.0</ele><time>2026-04-28T16:09:21.997Z</time></trkpt><trkpt lat="37.9057075" lon="14.1381863"><ele>438.0</ele><time>2026-04-28T16:09:22.998Z</time></trkpt><trkpt lat="37.905763" lon="14.1379803"><ele>438.0</ele><time>2026-04-28T16:09:23.998Z</time></trkpt><trkpt lat="37.9058115" lon="14.1377925"><ele>438.0</ele><time>2026-04-28T16:09:24.998Z</time></trkpt><trkpt lat="37.9058548" lon="14.1376348"><ele>438.0</ele><time>2026-04-28T16:09:25.998Z</time></trkpt><trkpt lat="37.9058625" lon="14.1374879"><ele>438.0</ele><time>2026-04-28T16:09:26.998Z</time></trkpt><trkpt lat="37.9058229" lon="14.1373429"><ele>438.0</ele><time>2026-04-28T16:09:27.998Z</time></trkpt><trkpt lat="37.9057448" lon="14.1372125"><ele>438.0</ele><time>2026-04-28T16:09:28.998Z</time></trkpt><trkpt lat="37.9056314" lon="14.1371115"><ele>435.75</ele><time>2026-04-28T16:09:29.998Z</time></trkpt><trkpt lat="37.9055127" lon="14.1370468"><ele>433.5</ele><time>2026-04-28T16:09:30.998Z</time></trkpt><trkpt lat="37.9054015" lon="14.1370258"><ele>431.25</ele><time>2026-04-28T16:09:31.997Z</time></trkpt><trkpt lat="37.9052955" lon="14.1370501"><ele>429.0</ele><time>2026-04-28T16:09:32.998Z</time></trkpt><trkpt lat="37.9051895" lon="14.1371109"><ele>429.0</ele><time>2026-04-28T16:09:33.998Z</time></trkpt><trkpt lat="37.9050818" lon="14.137165"><ele>429.0</ele><time>2026-04-28T16:09:34.997Z</time></trkpt><trkpt lat="37.9049566" lon="14.1371752"><ele>429.0</ele><time>2026-04-28T16:09:35.997Z</time></trkpt><trkpt lat="37.9048368" lon="14.1371604"><ele>429.0</ele><time>2026-04-28T16:09:36.997Z</time></trkpt><trkpt lat="37.9047156" lon="14.13713"><ele>429.0</ele><time>2026-04-28T16:09:37.998Z</time></trkpt><trkpt lat="37.9045981" lon="14.1370774"><ele>429.0</ele><time>2026-04-28T16:09:38.998Z</time></trkpt><trkpt lat="37.9044916" lon="14.1370041"><ele>429.0</ele><time>2026-04-28T16:09:39.998Z</time></trkpt><trkpt lat="37.9044033" lon="14.1369069"><ele>429.0</ele><time>2026-04-28T16:09:40.997Z</time></trkpt><trkpt lat="37.9043509" lon="14.1367917"><ele>429.0</ele><time>2026-04-28T16:09:41.998Z</time></trkpt><trkpt lat="37.9043427" lon="14.1366357"><ele>429.0</ele><time>2026-04-28T16:09:42.998Z</time></trkpt><trkpt lat="37.9043474" lon="14.1364534"><ele>429.0</ele><time>2026-04-28T16:09:43.998Z</time></trkpt><trkpt lat="37.9043741" lon="14.1362538"><ele>429.0</ele><time>2026-04-28T16:09:44.998Z</time></trkpt><trkpt lat="37.904423" lon="14.136066"><ele>426.33333333333337</ele><time>2026-04-28T16:09:45.998Z</time></trkpt><trkpt lat="37.9044865" lon="14.1358908"><ele>423.6666666666667</ele><time>2026-04-28T16:09:46.998Z</time></trkpt><trkpt lat="37.9045523" lon="14.1357142"><ele>421.0</ele><time>2026-04-28T16:09:47.998Z</time></trkpt><trkpt lat="37.9046217" lon="14.1355407"><ele>420.25</ele><time>2026-04-28T16:09:48.998Z</time></trkpt><trkpt lat="37.9046852" lon="14.1353646"><ele>419.5</ele><time>2026-04-28T16:09:49.998Z</time></trkpt><trkpt lat="37.9047253" lon="14.1351811"><ele>418.75</ele><time>2026-04-28T16:09:50.997Z</time></trkpt><trkpt lat="37.9047401" lon="14.1350027"><ele>418.0</ele><time>2026-04-28T16:09:51.998Z</time></trkpt><trkpt lat="37.9047187" lon="14.1348265"><ele>416.75</ele><time>2026-04-28T16:09:52.998Z</time></trkpt><trkpt lat="37.9046722" lon="14.1346663"><ele>415.5</ele><time>2026-04-28T16:09:53.998Z</time></trkpt><trkpt lat="37.9046128" lon="14.1345004"><ele>414.25</ele><time>2026-04-28T16:09:54.998Z</time></trkpt><trkpt lat="37.9045699" lon="14.1343252"><ele>413.0</ele><time>2026-04-28T16:09:55.998Z</time></trkpt><trkpt lat="37.9045419" lon="14.1341392"><ele>411.25</ele><time>2026-04-28T16:09:56.998Z</time></trkpt><trkpt lat="37.9045305" lon="14.1339418"><ele>409.5</ele><time>2026-04-28T16:09:57.998Z</time></trkpt><trkpt lat="37.9045115" lon="14.1337654"><ele>407.75</ele><time>2026-04-28T16:09:58.998Z</time></trkpt><trkpt lat="37.9044782" lon="14.1336028"><ele>406.0</ele><time>2026-04-28T16:09:59.998Z</time></trkpt><trkpt lat="37.9044149" lon="14.1334593"><ele>406.0</ele><time>2026-04-28T16:10:00.998Z</time></trkpt><trkpt lat="37.9043253" lon="14.1333205"><ele>406.0</ele><time>2026-04-28T16:10:01.998Z</time></trkpt><trkpt lat="37.9042243" lon="14.1331963"><ele>406.0</ele><time>2026-04-28T16:10:02.998Z</time></trkpt><trkpt lat="37.9041202" lon="14.1330774"><ele>406.0</ele><time>2026-04-28T16:10:03.998Z</time></trkpt><trkpt lat="37.9040021" lon="14.1329721"><ele>405.5</ele><time>2026-04-28T16:10:04.998Z</time></trkpt><trkpt lat="37.9038668" lon="14.1328962"><ele>405.0</ele><time>2026-04-28T16:10:05.998Z</time></trkpt><trkpt lat="37.9037275" lon="14.1328458"><ele>404.5</ele><time>2026-04-28T16:10:06.998Z</time></trkpt><trkpt lat="37.9035913" lon="14.1328101"><ele>404.0</ele><time>2026-04-28T16:10:07.998Z</time></trkpt><trkpt lat="37.9034638" lon="14.1327961"><ele>405.79999999999995</ele><time>2026-04-28T16:10:08.998Z</time></trkpt><trkpt lat="37.9033369" lon="14.1327957"><ele>407.59999999999997</ele><time>2026-04-28T16:10:09.998Z</time></trkpt><trkpt lat="37.9032137" lon="14.1328015"><ele>409.4</ele><time>2026-04-28T16:10:10.998Z</time></trkpt><trkpt lat="37.903121" lon="14.1327951"><ele>411.2</ele><time>2026-04-28T16:10:11.998Z</time></trkpt><trkpt lat="37.9030637" lon="14.1327206"><ele>413.0</ele><time>2026-04-28T16:10:12.997Z</time></trkpt><trkpt lat="37.9030588" lon="14.1326251"><ele>413.0</ele><time>2026-04-28T16:10:13.998Z</time></trkpt><trkpt lat="37.903049" lon="14.1324917"><ele>413.0</ele><time>2026-04-28T16:10:14.997Z</time></trkpt><trkpt lat="37.9030508" lon="14.1323026"><ele>413.0</ele><time>2026-04-28T16:10:15.998Z</time></trkpt><trkpt lat="37.9030448" lon="14.1321018"><ele>413.0</ele><time>2026-04-28T16:10:16.998Z</time></trkpt><trkpt lat="37.9030402" lon="14.1318999"><ele>410.25</ele><time>2026-04-28T16:10:17.998Z</time></trkpt><trkpt lat="37.9030394" lon="14.1317016"><ele>407.5</ele><time>2026-04-28T16:10:18.998Z</time></trkpt><trkpt lat="37.903056" lon="14.1315151"><ele>404.75</ele><time>2026-04-28T16:10:19.997Z</time></trkpt><trkpt lat="37.9030624" lon="14.1313532"><ele>402.0</ele><time>2026-04-28T16:10:20.998Z</time></trkpt><trkpt lat="37.9030277" lon="14.131201"><ele>399.25</ele><time>2026-04-28T16:10:21.997Z</time></trkpt><trkpt lat="37.9029511" lon="14.1311017"><ele>396.5</ele><time>2026-04-28T16:10:22.998Z</time></trkpt><trkpt lat="37.9028486" lon="14.1310152"><ele>393.75</ele><time>2026-04-28T16:10:23.998Z</time></trkpt><trkpt lat="37.9027445" lon="14.1309408"><ele>391.0</ele><time>2026-04-28T16:10:24.998Z</time></trkpt><trkpt lat="37.9026406" lon="14.1308631"><ele>390.8</ele><time>2026-04-28T16:10:25.998Z</time></trkpt><trkpt lat="37.902534" lon="14.1307967"><ele>390.6</ele><time>2026-04-28T16:10:26.998Z</time></trkpt><trkpt lat="37.9024301" lon="14.1307483"><ele>390.4</ele><time>2026-04-28T16:10:27.998Z</time></trkpt><trkpt lat="37.9023352" lon="14.1306851"><ele>390.2</ele><time>2026-04-28T16:10:28.998Z</time></trkpt><trkpt lat="37.9022765" lon="14.1305908"><ele>390.0</ele><time>2026-04-28T16:10:29.998Z</time></trkpt><trkpt lat="37.9022751" lon="14.130463"><ele>390.0</ele><time>2026-04-28T16:10:30.998Z</time></trkpt><trkpt lat="37.9022902" lon="14.1303177"><ele>390.0</ele><time>2026-04-28T16:10:31.998Z</time></trkpt><trkpt lat="37.9022972" lon="14.1301807"><ele>390.0</ele><time>2026-04-28T16:10:32.998Z</time></trkpt><trkpt lat="37.9022976" lon="14.1300508"><ele>390.0</ele><time>2026-04-28T16:10:33.998Z</time></trkpt><trkpt lat="37.9022581" lon="14.1299565"><ele>390.0</ele><time>2026-04-28T16:10:34.998Z</time></trkpt><trkpt lat="37.9021733" lon="14.1299013"><ele>390.0</ele><time>2026-04-28T16:10:35.997Z</time></trkpt><trkpt lat="37.9020719" lon="14.1298996"><ele>390.0</ele><time>2026-04-28T16:10:36.998Z</time></trkpt><trkpt lat="37.9019471" lon="14.1299396"><ele>390.0</ele><time>2026-04-28T16:10:37.998Z</time></trkpt><trkpt lat="37.9018226" lon="14.1300084"><ele>390.0</ele><time>2026-04-28T16:10:38.998Z</time></trkpt><trkpt lat="37.9016965" lon="14.130084"><ele>389.75</ele><time>2026-04-28T16:10:39.997Z</time></trkpt><trkpt lat="37.9015784" lon="14.1301725"><ele>389.5</ele><time>2026-04-28T16:10:40.998Z</time></trkpt><trkpt lat="37.9014804" lon="14.1302743"><ele>389.25</ele><time>2026-04-28T16:10:41.997Z</time></trkpt><trkpt lat="37.9014095" lon="14.1303763"><ele>389.0</ele><time>2026-04-28T16:10:42.997Z</time></trkpt><trkpt lat="37.9013491" lon="14.1304627"><ele>389.0</ele><time>2026-04-28T16:10:43.997Z</time></trkpt><trkpt lat="37.9012735" lon="14.1305096"><ele>389.0</ele><time>2026-04-28T16:10:44.998Z</time></trkpt><trkpt lat="37.9012004" lon="14.1304865"><ele>389.0</ele><time>2026-04-28T16:10:45.998Z</time></trkpt><trkpt lat="37.9011376" lon="14.1304119"><ele>389.0</ele><time>2026-04-28T16:10:46.998Z</time></trkpt><trkpt lat="37.9011152" lon="14.1302832"><ele>389.0</ele><time>2026-04-28T16:10:47.997Z</time></trkpt><trkpt lat="37.9011" lon="14.1301124"><ele>389.0</ele><time>2026-04-28T16:10:48.997Z</time></trkpt><trkpt lat="37.9010959" lon="14.1299291"><ele>389.0</ele><time>2026-04-28T16:10:49.998Z</time></trkpt><trkpt lat="37.9010961" lon="14.12974"><ele>389.0</ele><time>2026-04-28T16:10:50.997Z</time></trkpt><trkpt lat="37.9011122" lon="14.1295458"><ele>389.0</ele><time>2026-04-28T16:10:51.997Z</time></trkpt><trkpt lat="37.9011375" lon="14.1293555"><ele>385.25</ele><time>2026-04-28T16:10:52.998Z</time></trkpt><trkpt lat="37.9011657" lon="14.1291744"><ele>381.5</ele><time>2026-04-28T16:10:53.998Z</time></trkpt><trkpt lat="37.9011926" lon="14.1289968"><ele>377.75</ele><time>2026-04-28T16:10:54.998Z</time></trkpt><trkpt lat="37.9012095" lon="14.1288092"><ele>374.0</ele><time>2026-04-28T16:10:55.997Z</time></trkpt><trkpt lat="37.9012109" lon="14.1286298"><ele>370.75</ele><time>2026-04-28T16:10:56.998Z</time></trkpt><trkpt lat="37.9012007" lon="14.1284546"><ele>367.5</ele><time>2026-04-28T16:10:57.997Z</time></trkpt><trkpt lat="37.901175" lon="14.1282943"><ele>364.25</ele><time>2026-04-28T16:10:58.997Z</time></trkpt><trkpt lat="37.9011168" lon="14.1281496"><ele>361.0</ele><time>2026-04-28T16:10:59.997Z</time></trkpt><trkpt lat="37.9010269" lon="14.1280482"><ele>361.5</ele><time>2026-04-28T16:11:00.997Z</time></trkpt><trkpt lat="37.9009051" lon="14.1279594"><ele>362.0</ele><time>2026-04-28T16:11:01.998Z</time></trkpt><trkpt lat="37.9007736" lon="14.1278653"><ele>362.5</ele><time>2026-04-28T16:11:02.997Z</time></trkpt><trkpt lat="37.9006534" lon="14.1277476"><ele>363.0</ele><time>2026-04-28T16:11:03.997Z</time></trkpt><trkpt lat="37.9005511" lon="14.1276238"><ele>363.0</ele><time>2026-04-28T16:11:04.998Z</time></trkpt><trkpt lat="37.9004587" lon="14.1274994"><ele>363.0</ele><time>2026-04-28T16:11:05.998Z</time></trkpt><trkpt lat="37.900369" lon="14.1273896"><ele>363.0</ele><time>2026-04-28T16:11:06.998Z</time></trkpt><trkpt lat="37.9002785" lon="14.1273003"><ele>363.0</ele><time>2026-04-28T16:11:07.998Z</time></trkpt><trkpt lat="37.9001725" lon="14.1272536"><ele>358.75</ele><time>2026-04-28T16:11:08.997Z</time></trkpt><trkpt lat="37.9000601" lon="14.127252"><ele>354.5</ele><time>2026-04-28T16:11:09.998Z</time></trkpt><trkpt lat="37.8999347" lon="14.1272822"><ele>350.25</ele><time>2026-04-28T16:11:10.998Z</time></trkpt><trkpt lat="37.899806" lon="14.12731"><ele>346.0</ele><time>2026-04-28T16:11:11.997Z</time></trkpt><trkpt lat="37.8996757" lon="14.1273063"><ele>346.0</ele><time>2026-04-28T16:11:12.998Z</time></trkpt><trkpt lat="37.8995505" lon="14.1272778"><ele>346.0</ele><time>2026-04-28T16:11:13.998Z</time></trkpt><trkpt lat="37.8994262" lon="14.127215"><ele>346.0</ele><time>2026-04-28T16:11:14.998Z</time></trkpt><trkpt lat="37.8993116" lon="14.1271287"><ele>346.0</ele><time>2026-04-28T16:11:15.998Z</time></trkpt><trkpt lat="37.8992024" lon="14.1270335"><ele>349.75</ele><time>2026-04-28T16:11:16.998Z</time></trkpt><trkpt lat="37.899101" lon="14.1269284"><ele>353.5</ele><time>2026-04-28T16:11:17.998Z</time></trkpt><trkpt lat="37.8990119" lon="14.1268068"><ele>357.25</ele><time>2026-04-28T16:11:18.997Z</time></trkpt><trkpt lat="37.8989371" lon="14.1266724"><ele>361.0</ele><time>2026-04-28T16:11:19.998Z</time></trkpt><trkpt lat="37.898883" lon="14.1265304"><ele>361.0</ele><time>2026-04-28T16:11:20.998Z</time></trkpt><trkpt lat="37.898841" lon="14.126387"><ele>361.0</ele><time>2026-04-28T16:11:21.998Z</time></trkpt><trkpt lat="37.8988114" lon="14.1262435"><ele>361.0</ele><time>2026-04-28T16:11:22.998Z</time></trkpt><trkpt lat="37.8988015" lon="14.1260969"><ele>361.0</ele><time>2026-04-28T16:11:23.998Z</time></trkpt><trkpt lat="37.8988197" lon="14.1259446"><ele>361.0</ele><time>2026-04-28T16:11:24.998Z</time></trkpt><trkpt lat="37.8988569" lon="14.1258129"><ele>361.0</ele><time>2026-04-28T16:11:25.998Z</time></trkpt><trkpt lat="37.898903" lon="14.1256963"><ele>361.0</ele><time>2026-04-28T16:11:26.998Z</time></trkpt><trkpt lat="37.8989762" lon="14.1256256"><ele>361.0</ele><time>2026-04-28T16:11:27.997Z</time></trkpt><trkpt lat="37.8990554" lon="14.1256154"><ele>361.0</ele><time>2026-04-28T16:11:28.998Z</time></trkpt><trkpt lat="37.8991633" lon="14.1256457"><ele>359.75</ele><time>2026-04-28T16:11:29.998Z</time></trkpt><trkpt lat="37.8992868" lon="14.1256973"><ele>358.5</ele><time>2026-04-28T16:11:30.997Z</time></trkpt><trkpt lat="37.8994176" lon="14.1257519"><ele>357.25</ele><time>2026-04-28T16:11:31.998Z</time></trkpt><trkpt lat="37.8995424" lon="14.1257906"><ele>356.0</ele><time>2026-04-28T16:11:32.998Z</time></trkpt><trkpt lat="37.8996659" lon="14.1257918"><ele>356.0</ele><time>2026-04-28T16:11:33.997Z</time></trkpt><trkpt lat="37.8997954" lon="14.1257541"><ele>356.0</ele><time>2026-04-28T16:11:34.997Z</time></trkpt><trkpt lat="37.8999336" lon="14.1256903"><ele>356.0</ele><time>2026-04-28T16:11:35.998Z</time></trkpt><trkpt lat="37.9000769" lon="14.1256227"><ele>356.0</ele><time>2026-04-28T16:11:36.998Z</time></trkpt><trkpt lat="37.9002252" lon="14.1255757"><ele>364.33333333333337</ele><time>2026-04-28T16:11:37.998Z</time></trkpt><trkpt lat="37.9003809" lon="14.1255686"><ele>372.6666666666667</ele><time>2026-04-28T16:11:38.998Z</time></trkpt><trkpt lat="37.9005355" lon="14.1255907"><ele>381.0</ele><time>2026-04-28T16:11:39.998Z</time></trkpt><trkpt lat="37.90069" lon="14.1256422"><ele>381.0</ele><time>2026-04-28T16:11:40.998Z</time></trkpt><trkpt lat="37.9008518" lon="14.1257027"><ele>381.0</ele><time>2026-04-28T16:11:41.997Z</time></trkpt><trkpt lat="37.9010212" lon="14.1257441"><ele>381.0</ele><time>2026-04-28T16:11:42.997Z</time></trkpt><trkpt lat="37.9012008" lon="14.1257518"><ele>379.3333333333333</ele><time>2026-04-28T16:11:43.998Z</time></trkpt><trkpt lat="37.901385" lon="14.1257343"><ele>377.66666666666663</ele><time>2026-04-28T16:11:44.998Z</time></trkpt><trkpt lat="37.9015756" lon="14.1257079"><ele>376.0</ele><time>2026-04-28T16:11:45.997Z</time></trkpt><trkpt lat="37.9017636" lon="14.1256708"><ele>370.3333333333333</ele><time>2026-04-28T16:11:46.998Z</time></trkpt><trkpt lat="37.9019401" lon="14.1256298"><ele>364.6666666666667</ele><time>2026-04-28T16:11:47.997Z</time></trkpt><trkpt lat="37.9021101" lon="14.1255951"><ele>359.0</ele><time>2026-04-28T16:11:48.998Z</time></trkpt><trkpt lat="37.9022709" lon="14.1255643"><ele>359.0</ele><time>2026-04-28T16:11:49.997Z</time></trkpt><trkpt lat="37.9024097" lon="14.1255228"><ele>359.0</ele><time>2026-04-28T16:11:50.998Z</time></trkpt><trkpt lat="37.902519" lon="14.1254557"><ele>359.0</ele><time>2026-04-28T16:11:51.998Z</time></trkpt><trkpt lat="37.902594" lon="14.125347"><ele>359.0</ele><time>2026-04-28T16:11:52.998Z</time></trkpt><trkpt lat="37.9026548" lon="14.1251916"><ele>354.6666666666667</ele><time>2026-04-28T16:11:53.997Z</time></trkpt><trkpt lat="37.9027344" lon="14.1250219"><ele>350.3333333333333</ele><time>2026-04-28T16:11:54.998Z</time></trkpt><trkpt lat="37.9028411" lon="14.1248775"><ele>346.0</ele><time>2026-04-28T16:11:55.998Z</time></trkpt><trkpt lat="37.902972" lon="14.1247688"><ele>346.0</ele><time>2026-04-28T16:11:56.998Z</time></trkpt><trkpt lat="37.9031069" lon="14.1246927"><ele>346.0</ele><time>2026-04-28T16:11:57.997Z</time></trkpt><trkpt lat="37.9032273" lon="14.1246071"><ele>346.0</ele><time>2026-04-28T16:11:58.998Z</time></trkpt><trkpt lat="37.9033375" lon="14.1245047"><ele>346.0</ele><time>2026-04-28T16:11:59.998Z</time></trkpt><trkpt lat="37.903423" lon="14.1243697"><ele>340.3333333333333</ele><time>2026-04-28T16:12:00.998Z</time></trkpt><trkpt lat="37.9034935" lon="14.1241962"><ele>334.6666666666667</ele><time>2026-04-28T16:12:01.997Z</time></trkpt><trkpt lat="37.9035519" lon="14.1240111"><ele>329.0</ele><time>2026-04-28T16:12:02.998Z</time></trkpt><trkpt lat="37.9036142" lon="14.1238207"><ele>329.0</ele><time>2026-04-28T16:12:03.998Z</time></trkpt><trkpt lat="37.9036946" lon="14.1236284"><ele>329.0</ele><time>2026-04-28T16:12:04.997Z</time></trkpt><trkpt lat="37.9037848" lon="14.123438"><ele>329.0</ele><time>2026-04-28T16:12:05.997Z</time></trkpt><trkpt lat="37.9038864" lon="14.1232569"><ele>334.0</ele><time>2026-04-28T16:12:06.998Z</time></trkpt><trkpt lat="37.9039845" lon="14.1230733"><ele>339.0</ele><time>2026-04-28T16:12:07.998Z</time></trkpt><trkpt lat="37.9040772" lon="14.1228844"><ele>344.0</ele><time>2026-04-28T16:12:08.998Z</time></trkpt><trkpt lat="37.9041617" lon="14.1226912"><ele>344.0</ele><time>2026-04-28T16:12:09.998Z</time></trkpt><trkpt lat="37.9042345" lon="14.122505"><ele>344.0</ele><time>2026-04-28T16:12:10.998Z</time></trkpt><trkpt lat="37.9042954" lon="14.1223171"><ele>344.0</ele><time>2026-04-28T16:12:11.998Z</time></trkpt><trkpt lat="37.9043601" lon="14.122139"><ele>342.5</ele><time>2026-04-28T16:12:12.998Z</time></trkpt><trkpt lat="37.9044439" lon="14.1219825"><ele>341.0</ele><time>2026-04-28T16:12:13.998Z</time></trkpt><trkpt lat="37.9045331" lon="14.1218348"><ele>339.5</ele><time>2026-04-28T16:12:14.998Z</time></trkpt><trkpt lat="37.9046194" lon="14.1216746"><ele>338.0</ele><time>2026-04-28T16:12:15.998Z</time></trkpt><trkpt lat="37.9046935" lon="14.121512"><ele>338.0</ele><time>2026-04-28T16:12:16.998Z</time></trkpt><trkpt lat="37.9047619" lon="14.1213621"><ele>338.0</ele><time>2026-04-28T16:12:17.997Z</time></trkpt><trkpt lat="37.9048281" lon="14.1212356"><ele>338.0</ele><time>2026-04-28T16:12:18.998Z</time></trkpt><trkpt lat="37.904884" lon="14.1211276"><ele>338.0</ele><time>2026-04-28T16:12:19.998Z</time></trkpt><trkpt lat="37.904953" lon="14.1210468"><ele>338.0</ele><time>2026-04-28T16:12:20.997Z</time></trkpt><trkpt lat="37.9050366" lon="14.1210338"><ele>338.0</ele><time>2026-04-28T16:12:21.998Z</time></trkpt><trkpt lat="37.9051164" lon="14.1210593"><ele>338.0</ele><time>2026-04-28T16:12:22.997Z</time></trkpt><trkpt lat="37.9051921" lon="14.1211534"><ele>338.0</ele><time>2026-04-28T16:12:23.998Z</time></trkpt><trkpt lat="37.9052664" lon="14.1212737"><ele>338.0</ele><time>2026-04-28T16:12:24.998Z</time></trkpt><trkpt lat="37.90532" lon="14.1214077"><ele>341.5</ele><time>2026-04-28T16:12:25.998Z</time></trkpt><trkpt lat="37.905316" lon="14.1215632"><ele>345.0</ele><time>2026-04-28T16:12:26.998Z</time></trkpt><trkpt lat="37.9052929" lon="14.12172"><ele>348.5</ele><time>2026-04-28T16:12:27.998Z</time></trkpt><trkpt lat="37.9052746" lon="14.1218708"><ele>352.0</ele><time>2026-04-28T16:12:28.998Z</time></trkpt><trkpt lat="37.905283" lon="14.1220336"><ele>352.0</ele><time>2026-04-28T16:12:29.998Z</time></trkpt><trkpt lat="37.905318" lon="14.1222045"><ele>352.0</ele><time>2026-04-28T16:12:30.998Z</time></trkpt><trkpt lat="37.9053494" lon="14.1223603"><ele>352.0</ele><time>2026-04-28T16:12:31.997Z</time></trkpt><trkpt lat="37.9053456" lon="14.1225362"><ele>352.0</ele><time>2026-04-28T16:12:32.998Z</time></trkpt><trkpt lat="37.9053124" lon="14.1227319"><ele>352.66666666666663</ele><time>2026-04-28T16:12:33.998Z</time></trkpt><trkpt lat="37.9052583" lon="14.1229264"><ele>353.3333333333333</ele><time>2026-04-28T16:12:34.998Z</time></trkpt><trkpt lat="37.905201" lon="14.123113"><ele>354.0</ele><time>2026-04-28T16:12:35.998Z</time></trkpt><trkpt lat="37.905151" lon="14.1232916"><ele>355.0</ele><time>2026-04-28T16:12:36.998Z</time></trkpt><trkpt lat="37.9051109" lon="14.123474"><ele>356.0</ele><time>2026-04-28T16:12:37.998Z</time></trkpt><trkpt lat="37.9050855" lon="14.1236698"><ele>357.0</ele><time>2026-04-28T16:12:38.997Z</time></trkpt><trkpt lat="37.9050738" lon="14.1238763"><ele>350.3333333333333</ele><time>2026-04-28T16:12:39.997Z</time></trkpt><trkpt lat="37.9050657" lon="14.1240859"><ele>343.66666666666663</ele><time>2026-04-28T16:12:40.997Z</time></trkpt><trkpt lat="37.9050591" lon="14.124293"><ele>337.0</ele><time>2026-04-28T16:12:41.997Z</time></trkpt><trkpt lat="37.9050531" lon="14.1244993"><ele>337.0</ele><time>2026-04-28T16:12:42.998Z</time></trkpt><trkpt lat="37.9050539" lon="14.1247019"><ele>337.0</ele><time>2026-04-28T16:12:43.998Z</time></trkpt><trkpt lat="37.905069" lon="14.1248987"><ele>337.0</ele><time>2026-04-28T16:12:44.998Z</time></trkpt><trkpt lat="37.9051091" lon="14.1250839"><ele>341.25</ele><time>2026-04-28T16:12:45.998Z</time></trkpt><trkpt lat="37.9051601" lon="14.1252638"><ele>345.5</ele><time>2026-04-28T16:12:46.998Z</time></trkpt><trkpt lat="37.9052192" lon="14.1254131"><ele>349.75</ele><time>2026-04-28T16:12:47.998Z</time></trkpt><trkpt lat="37.9052945" lon="14.1255316"><ele>354.0</ele><time>2026-04-28T16:12:48.998Z</time></trkpt><trkpt lat="37.9053978" lon="14.1256024"><ele>354.0</ele><time>2026-04-28T16:12:49.998Z</time></trkpt><trkpt lat="37.9055157" lon="14.1256262"><ele>354.0</ele><time>2026-04-28T16:12:50.998Z</time></trkpt><trkpt lat="37.9056631" lon="14.1256193"><ele>354.0</ele><time>2026-04-28T16:12:51.998Z</time></trkpt><trkpt lat="37.9058134" lon="14.1256073"><ele>354.0</ele><time>2026-04-28T16:12:52.998Z</time></trkpt><trkpt lat="37.9059521" lon="14.1255796"><ele>351.25</ele><time>2026-04-28T16:12:53.998Z</time></trkpt><trkpt lat="37.9060572" lon="14.1255123"><ele>348.5</ele><time>2026-04-28T16:12:54.998Z</time></trkpt><trkpt lat="37.9061249" lon="14.1254121"><ele>345.75</ele><time>2026-04-28T16:12:55.998Z</time></trkpt><trkpt lat="37.9061554" lon="14.1252631"><ele>343.0</ele><time>2026-04-28T16:12:56.998Z</time></trkpt><trkpt lat="37.9061811" lon="14.1250854"><ele>345.66666666666663</ele><time>2026-04-28T16:12:57.998Z</time></trkpt><trkpt lat="37.9062038" lon="14.1248807"><ele>348.3333333333333</ele><time>2026-04-28T16:12:58.998Z</time></trkpt><trkpt lat="37.9062315" lon="14.1246817"><ele>351.0</ele><time>2026-04-28T16:12:59.998Z</time></trkpt><trkpt lat="37.906252" lon="14.1244951"><ele>351.0</ele><time>2026-04-28T16:13:00.998Z</time></trkpt><trkpt lat="37.9062802" lon="14.1243394"><ele>351.0</ele><time>2026-04-28T16:13:01.998Z</time></trkpt><trkpt lat="37.906328" lon="14.1242197"><ele>351.0</ele><time>2026-04-28T16:13:02.997Z</time></trkpt><trkpt lat="37.9064239" lon="14.1241682"><ele>351.0</ele><time>2026-04-28T16:13:03.998Z</time></trkpt><trkpt lat="37.9065516" lon="14.1241421"><ele>351.0</ele><time>2026-04-28T16:13:04.998Z</time></trkpt><trkpt lat="37.906685" lon="14.1241188"><ele>351.0</ele><time>2026-04-28T16:13:05.998Z</time></trkpt><trkpt lat="37.9068093" lon="14.1240683"><ele>351.0</ele><time>2026-04-28T16:13:06.998Z</time></trkpt><trkpt lat="37.9069218" lon="14.12397"><ele>351.0</ele><time>2026-04-28T16:13:07.998Z</time></trkpt><trkpt lat="37.9070275" lon="14.1238371"><ele>351.6666666666667</ele><time>2026-04-28T16:13:08.998Z</time></trkpt><trkpt lat="37.9071126" lon="14.1236673"><ele>352.33333333333337</ele><time>2026-04-28T16:13:09.998Z</time></trkpt><trkpt lat="37.9071795" lon="14.1234856"><ele>353.0</ele><time>2026-04-28T16:13:10.998Z</time></trkpt><trkpt lat="37.9072218" lon="14.1232919"><ele>351.75</ele><time>2026-04-28T16:13:11.997Z</time></trkpt><trkpt lat="37.9072232" lon="14.1231079"><ele>350.5</ele><time>2026-04-28T16:13:12.998Z</time></trkpt><trkpt lat="37.9071916" lon="14.1229206"><ele>349.25</ele><time>2026-04-28T16:13:13.998Z</time></trkpt><trkpt lat="37.9071406" lon="14.1227664"><ele>348.0</ele><time>2026-04-28T16:13:14.998Z</time></trkpt><trkpt lat="37.9070915" lon="14.1226273"><ele>348.0</ele><time>2026-04-28T16:13:15.998Z</time></trkpt><trkpt lat="37.907082" lon="14.1224991"><ele>348.0</ele><time>2026-04-28T16:13:16.998Z</time></trkpt><trkpt lat="37.9071124" lon="14.1223628"><ele>348.0</ele><time>2026-04-28T16:13:17.998Z</time></trkpt><trkpt lat="37.9071799" lon="14.1222331"><ele>348.0</ele><time>2026-04-28T16:13:18.997Z</time></trkpt><trkpt lat="37.9072562" lon="14.1220959"><ele>349.5</ele><time>2026-04-28T16:13:19.997Z</time></trkpt><trkpt lat="37.9073074" lon="14.1219336"><ele>351.0</ele><time>2026-04-28T16:13:20.998Z</time></trkpt><trkpt lat="37.90732" lon="14.1217637"><ele>352.5</ele><time>2026-04-28T16:13:21.998Z</time></trkpt><trkpt lat="37.9073102" lon="14.1216029"><ele>354.0</ele><time>2026-04-28T16:13:22.998Z</time></trkpt><trkpt lat="37.9073144" lon="14.1214484"><ele>353.0</ele><time>2026-04-28T16:13:23.998Z</time></trkpt><trkpt lat="37.9073532" lon="14.121318"><ele>352.0</ele><time>2026-04-28T16:13:24.998Z</time></trkpt><trkpt lat="37.9074239" lon="14.1212348"><ele>351.0</ele><time>2026-04-28T16:13:25.997Z</time></trkpt><trkpt lat="37.9075237" lon="14.1211472"><ele>350.0</ele><time>2026-04-28T16:13:26.998Z</time></trkpt><trkpt lat="37.9076389" lon="14.1210527"><ele>350.0</ele><time>2026-04-28T16:13:27.998Z</time></trkpt><trkpt lat="37.9077489" lon="14.1209552"><ele>350.0</ele><time>2026-04-28T16:13:28.998Z</time></trkpt><trkpt lat="37.9078445" lon="14.120861"><ele>350.0</ele><time>2026-04-28T16:13:29.998Z</time></trkpt><trkpt lat="37.9079284" lon="14.1207715"><ele>350.0</ele><time>2026-04-28T16:13:30.998Z</time></trkpt><trkpt lat="37.9079876" lon="14.1206684"><ele>350.5</ele><time>2026-04-28T16:13:31.998Z</time></trkpt><trkpt lat="37.9079979" lon="14.1205249"><ele>351.0</ele><time>2026-04-28T16:13:32.998Z</time></trkpt><trkpt lat="37.9079721" lon="14.1203546"><ele>351.5</ele><time>2026-04-28T16:13:33.998Z</time></trkpt><trkpt lat="37.9079324" lon="14.1201556"><ele>352.0</ele><time>2026-04-28T16:13:34.998Z</time></trkpt><trkpt lat="37.9078744" lon="14.1199523"><ele>353.66666666666663</ele><time>2026-04-28T16:13:35.998Z</time></trkpt><trkpt lat="37.907818" lon="14.1197504"><ele>355.3333333333333</ele><time>2026-04-28T16:13:36.998Z</time></trkpt><trkpt lat="37.9077712" lon="14.1195712"><ele>357.0</ele><time>2026-04-28T16:13:37.998Z</time></trkpt><trkpt lat="37.907724" lon="14.1194055"><ele>357.0</ele><time>2026-04-28T16:13:38.998Z</time></trkpt><trkpt lat="37.9076706" lon="14.1192598"><ele>357.0</ele><time>2026-04-28T16:13:39.998Z</time></trkpt><trkpt lat="37.9075948" lon="14.1191322"><ele>357.0</ele><time>2026-04-28T16:13:40.998Z</time></trkpt><trkpt lat="37.9074961" lon="14.1190253"><ele>357.0</ele><time>2026-04-28T16:13:41.998Z</time></trkpt><trkpt lat="37.9073965" lon="14.1189305"><ele>360.0</ele><time>2026-04-28T16:13:42.998Z</time></trkpt><trkpt lat="37.9073148" lon="14.1188499"><ele>363.0</ele><time>2026-04-28T16:13:43.998Z</time></trkpt><trkpt lat="37.9072745" lon="14.118754"><ele>366.0</ele><time>2026-04-28T16:13:44.998Z</time></trkpt><trkpt lat="37.9072843" lon="14.1186601"><ele>369.0</ele><time>2026-04-28T16:13:45.998Z</time></trkpt><trkpt lat="37.9073523" lon="14.1186178"><ele>372.0</ele><time>2026-04-28T16:13:46.997Z</time></trkpt><trkpt lat="37.9074404" lon="14.1186265"><ele>375.0</ele><time>2026-04-28T16:13:47.998Z</time></trkpt><trkpt lat="37.9075404" lon="14.1186452"><ele>374.0</ele><time>2026-04-28T16:13:48.998Z</time></trkpt><trkpt lat="37.9076331" lon="14.1186499"><ele>373.0</ele><time>2026-04-28T16:13:49.998Z</time></trkpt><trkpt lat="37.90773" lon="14.1186031"><ele>372.0</ele><time>2026-04-28T16:13:50.998Z</time></trkpt><trkpt lat="37.9078153" lon="14.1185667"><ele>371.0</ele><time>2026-04-28T16:13:51.998Z</time></trkpt><trkpt lat="37.9078967" lon="14.1185843"><ele>370.0</ele><time>2026-04-28T16:13:52.997Z</time></trkpt><trkpt lat="37.9079711" lon="14.1186449"><ele>370.0</ele><time>2026-04-28T16:13:53.998Z</time></trkpt><trkpt lat="37.9080588" lon="14.1187124"><ele>370.0</ele><time>2026-04-28T16:13:54.998Z</time></trkpt><trkpt lat="37.9081511" lon="14.1187769"><ele>370.0</ele><time>2026-04-28T16:13:55.998Z</time></trkpt><trkpt lat="37.9082373" lon="14.1188062"><ele>370.0</ele><time>2026-04-28T16:13:56.998Z</time></trkpt><trkpt lat="37.9083138" lon="14.1187698"><ele>370.0</ele><time>2026-04-28T16:13:57.998Z</time></trkpt><trkpt lat="37.908364" lon="14.1186853"><ele>370.0</ele><time>2026-04-28T16:13:58.998Z</time></trkpt><trkpt lat="37.9083931" lon="14.1185619"><ele>370.0</ele><time>2026-04-28T16:13:59.997Z</time></trkpt><trkpt lat="37.9084177" lon="14.1184179"><ele>370.0</ele><time>2026-04-28T16:14:00.998Z</time></trkpt><trkpt lat="37.9084582" lon="14.1182757"><ele>370.0</ele><time>2026-04-28T16:14:01.998Z</time></trkpt><trkpt lat="37.9085243" lon="14.1181624"><ele>370.0</ele><time>2026-04-28T16:14:02.998Z</time></trkpt><trkpt lat="37.9086147" lon="14.1180913"><ele>373.6</ele><time>2026-04-28T16:14:03.998Z</time></trkpt><trkpt lat="37.9086926" lon="14.118079"><ele>377.2</ele><time>2026-04-28T16:14:04.998Z</time></trkpt><trkpt lat="37.9087752" lon="14.1181128"><ele>380.79999999999995</ele><time>2026-04-28T16:14:05.998Z</time></trkpt><trkpt lat="37.9088738" lon="14.1181617"><ele>384.4</ele><time>2026-04-28T16:14:06.997Z</time></trkpt><trkpt lat="37.9089903" lon="14.1182065"><ele>388.0</ele><time>2026-04-28T16:14:07.998Z</time></trkpt><trkpt lat="37.9091065" lon="14.1182307"><ele>388.0</ele><time>2026-04-28T16:14:08.998Z</time></trkpt><trkpt lat="37.9092229" lon="14.1182133"><ele>388.0</ele><time>2026-04-28T16:14:09.998Z</time></trkpt><trkpt lat="37.9093305" lon="14.1181687"><ele>388.0</ele><time>2026-04-28T16:14:10.997Z</time></trkpt><trkpt lat="37.9094277" lon="14.1180914"><ele>388.0</ele><time>2026-04-28T16:14:11.998Z</time></trkpt><trkpt lat="37.9095021" lon="14.117989"><ele>385.5</ele><time>2026-04-28T16:14:12.997Z</time></trkpt><trkpt lat="37.9095663" lon="14.1178647"><ele>383.0</ele><time>2026-04-28T16:14:13.998Z</time></trkpt><trkpt lat="37.9096335" lon="14.1177398"><ele>380.5</ele><time>2026-04-28T16:14:14.998Z</time></trkpt><trkpt lat="37.9097016" lon="14.1176098"><ele>378.0</ele><time>2026-04-28T16:14:15.998Z</time></trkpt><trkpt lat="37.9097651" lon="14.1174791"><ele>380.2</ele><time>2026-04-28T16:14:16.997Z</time></trkpt><trkpt lat="37.9098277" lon="14.1173564"><ele>382.4</ele><time>2026-04-28T16:14:17.997Z</time></trkpt><trkpt lat="37.9098917" lon="14.1172465"><ele>384.59999999999997</ele><time>2026-04-28T16:14:18.998Z</time></trkpt><trkpt lat="37.9099652" lon="14.1171669"><ele>386.79999999999995</ele><time>2026-04-28T16:14:19.998Z</time></trkpt><trkpt lat="37.9100529" lon="14.1171418"><ele>389.0</ele><time>2026-04-28T16:14:20.998Z</time></trkpt><trkpt lat="37.9101124" lon="14.1171711"><ele>390.0</ele><time>2026-04-28T16:14:21.997Z</time></trkpt><trkpt lat="37.9101473" lon="14.1172584"><ele>391.0</ele><time>2026-04-28T16:14:22.998Z</time></trkpt><trkpt lat="37.9101434" lon="14.1174047"><ele>392.0</ele><time>2026-04-28T16:14:23.998Z</time></trkpt><trkpt lat="37.9101293" lon="14.1175842"><ele>393.0</ele><time>2026-04-28T16:14:24.998Z</time></trkpt><trkpt lat="37.9101232" lon="14.1177797"><ele>390.75</ele><time>2026-04-28T16:14:25.998Z</time></trkpt><trkpt lat="37.9101253" lon="14.1179706"><ele>388.5</ele><time>2026-04-28T16:14:26.998Z</time></trkpt><trkpt lat="37.9101297" lon="14.1181486"><ele>386.25</ele><time>2026-04-28T16:14:27.998Z</time></trkpt><trkpt lat="37.9101376" lon="14.1183023"><ele>384.0</ele><time>2026-04-28T16:14:28.997Z</time></trkpt><trkpt lat="37.910161" lon="14.1184402"><ele>382.0</ele><time>2026-04-28T16:14:29.998Z</time></trkpt><trkpt lat="37.9102205" lon="14.1185649"><ele>380.0</ele><time>2026-04-28T16:14:30.997Z</time></trkpt><trkpt lat="37.9103141" lon="14.1186472"><ele>378.0</ele><time>2026-04-28T16:14:31.998Z</time></trkpt><trkpt lat="37.9104411" lon="14.1186733"><ele>376.0</ele><time>2026-04-28T16:14:32.998Z</time></trkpt><trkpt lat="37.9105857" lon="14.1186398"><ele>376.0</ele><time>2026-04-28T16:14:33.998Z</time></trkpt><trkpt lat="37.91073" lon="14.1185806"><ele>376.0</ele><time>2026-04-28T16:14:34.998Z</time></trkpt><trkpt lat="37.9108537" lon="14.118493"><ele>376.0</ele><time>2026-04-28T16:14:35.998Z</time></trkpt><trkpt lat="37.9109608" lon="14.1183671"><ele>376.0</ele><time>2026-04-28T16:14:36.998Z</time></trkpt><trkpt lat="37.9110399" lon="14.1182055"><ele>375.0</ele><time>2026-04-28T16:14:37.998Z</time></trkpt><trkpt lat="37.9110952" lon="14.1180411"><ele>374.0</ele><time>2026-04-28T16:14:38.998Z</time></trkpt><trkpt lat="37.9111437" lon="14.1178745"><ele>373.0</ele><time>2026-04-28T16:14:39.998Z</time></trkpt><trkpt lat="37.9111958" lon="14.1177205"><ele>372.0</ele><time>2026-04-28T16:14:40.997Z</time></trkpt><trkpt lat="37.9112467" lon="14.1175765"><ele>372.0</ele><time>2026-04-28T16:14:41.998Z</time></trkpt><trkpt lat="37.911285" lon="14.1174266"><ele>372.0</ele><time>2026-04-28T16:14:42.998Z</time></trkpt><trkpt lat="37.911302" lon="14.1172637"><ele>372.0</ele><time>2026-04-28T16:14:43.998Z</time></trkpt><trkpt lat="37.9112918" lon="14.1170855"><ele>372.0</ele><time>2026-04-28T16:14:44.998Z</time></trkpt><trkpt lat="37.9112755" lon="14.1169058"><ele>371.75</ele><time>2026-04-28T16:14:45.998Z</time></trkpt><trkpt lat="37.9112621" lon="14.1167402"><ele>371.5</ele><time>2026-04-28T16:14:46.997Z</time></trkpt><trkpt lat="37.9112677" lon="14.1165642"><ele>371.25</ele><time>2026-04-28T16:14:47.998Z</time></trkpt><trkpt lat="37.9113027" lon="14.1163906"><ele>371.0</ele><time>2026-04-28T16:14:48.998Z</time></trkpt><trkpt lat="37.9113711" lon="14.1162136"><ele>373.25</ele><time>2026-04-28T16:14:49.998Z</time></trkpt><trkpt lat="37.9114481" lon="14.116049"><ele>375.5</ele><time>2026-04-28T16:14:50.997Z</time></trkpt><trkpt lat="37.9115201" lon="14.1158874"><ele>377.75</ele><time>2026-04-28T16:14:51.998Z</time></trkpt><trkpt lat="37.9115887" lon="14.115717"><ele>380.0</ele><time>2026-04-28T16:14:52.998Z</time></trkpt><trkpt lat="37.911642" lon="14.1155455"><ele>381.25</ele><time>2026-04-28T16:14:53.998Z</time></trkpt><trkpt lat="37.9116727" lon="14.1153785"><ele>382.5</ele><time>2026-04-28T16:14:54.998Z</time></trkpt><trkpt lat="37.9116755" lon="14.115217"><ele>383.75</ele><time>2026-04-28T16:14:55.998Z</time></trkpt><trkpt lat="37.9116482" lon="14.115045"><ele>385.0</ele><time>2026-04-28T16:14:56.997Z</time></trkpt><trkpt lat="37.9115904" lon="14.1148793"><ele>381.75</ele><time>2026-04-28T16:14:57.998Z</time></trkpt><trkpt lat="37.9115287" lon="14.1147196"><ele>378.5</ele><time>2026-04-28T16:14:58.998Z</time></trkpt><trkpt lat="37.9114649" lon="14.1145697"><ele>375.25</ele><time>2026-04-28T16:14:59.998Z</time></trkpt><trkpt lat="37.9114019" lon="14.1144305"><ele>372.0</ele><time>2026-04-28T16:15:00.998Z</time></trkpt><trkpt lat="37.9113317" lon="14.1143039"><ele>372.0</ele><time>2026-04-28T16:15:01.998Z</time></trkpt><trkpt lat="37.9112421" lon="14.1141975"><ele>372.0</ele><time>2026-04-28T16:15:02.998Z</time></trkpt><trkpt lat="37.9111221" lon="14.1141278"><ele>372.0</ele><time>2026-04-28T16:15:03.997Z</time></trkpt><trkpt lat="37.910987" lon="14.1140754"><ele>372.0</ele><time>2026-04-28T16:15:04.998Z</time></trkpt><trkpt lat="37.9108619" lon="14.1140253"><ele>370.75</ele><time>2026-04-28T16:15:05.998Z</time></trkpt><trkpt lat="37.9107492" lon="14.1139789"><ele>369.5</ele><time>2026-04-28T16:15:06.998Z</time></trkpt><trkpt lat="37.9106461" lon="14.1139058"><ele>368.25</ele><time>2026-04-28T16:15:07.998Z</time></trkpt><trkpt lat="37.9105481" lon="14.1138143"><ele>367.0</ele><time>2026-04-28T16:15:08.998Z</time></trkpt><trkpt lat="37.910456" lon="14.1137166"><ele>367.0</ele><time>2026-04-28T16:15:09.998Z</time></trkpt><trkpt lat="37.9103707" lon="14.113618"><ele>367.0</ele><time>2026-04-28T16:15:10.998Z</time></trkpt><trkpt lat="37.910305" lon="14.1135245"><ele>367.0</ele><time>2026-04-28T16:15:11.998Z</time></trkpt><trkpt lat="37.9102794" lon="14.1134396"><ele>367.0</ele><time>2026-04-28T16:15:12.998Z</time></trkpt><trkpt lat="37.9102845" lon="14.1133514"><ele>367.0</ele><time>2026-04-28T16:15:13.998Z</time></trkpt><trkpt lat="37.9103202" lon="14.1132289"><ele>367.75</ele><time>2026-04-28T16:15:14.998Z</time></trkpt><trkpt lat="37.9103712" lon="14.1131078"><ele>368.5</ele><time>2026-04-28T16:15:15.997Z</time></trkpt><trkpt lat="37.9104151" lon="14.1129772"><ele>369.25</ele><time>2026-04-28T16:15:16.998Z</time></trkpt><trkpt lat="37.9104304" lon="14.112832"><ele>370.0</ele><time>2026-04-28T16:15:17.997Z</time></trkpt><trkpt lat="37.9104137" lon="14.1126778"><ele>370.0</ele><time>2026-04-28T16:15:18.997Z</time></trkpt><trkpt lat="37.9104026" lon="14.1125226"><ele>370.0</ele><time>2026-04-28T16:15:19.998Z</time></trkpt><trkpt lat="37.9103957" lon="14.1124028"><ele>370.0</ele><time>2026-04-28T16:15:20.998Z</time></trkpt><trkpt lat="37.9104844" lon="14.1123357"><ele>370.0</ele><time>2026-04-28T16:15:22.998Z</time></trkpt><trkpt lat="37.9105663" lon="14.1123514"><ele>370.0</ele><time>2026-04-28T16:15:23.998Z</time></trkpt><trkpt lat="37.9106619" lon="14.1123907"><ele>370.0</ele><time>2026-04-28T16:15:24.998Z</time></trkpt><trkpt lat="37.9107637" lon="14.112436"><ele>370.0</ele><time>2026-04-28T16:15:25.998Z</time></trkpt><trkpt lat="37.9108697" lon="14.112459"><ele>370.0</ele><time>2026-04-28T16:15:26.998Z</time></trkpt><trkpt lat="37.9109801" lon="14.1124375"><ele>370.0</ele><time>2026-04-28T16:15:27.998Z</time></trkpt><trkpt lat="37.9111012" lon="14.112368"><ele>368.0</ele><time>2026-04-28T16:15:28.998Z</time></trkpt><trkpt lat="37.9112331" lon="14.1122711"><ele>366.0</ele><time>2026-04-28T16:15:29.998Z</time></trkpt><trkpt lat="37.911368" lon="14.1121655"><ele>364.0</ele><time>2026-04-28T16:15:30.998Z</time></trkpt><trkpt lat="37.9114938" lon="14.1120615"><ele>364.0</ele><time>2026-04-28T16:15:31.997Z</time></trkpt><trkpt lat="37.9116101" lon="14.1119531"><ele>364.0</ele><time>2026-04-28T16:15:32.998Z</time></trkpt><trkpt lat="37.9117024" lon="14.1118415"><ele>364.0</ele><time>2026-04-28T16:15:33.998Z</time></trkpt><trkpt lat="37.9117458" lon="14.1117103"><ele>364.0</ele><time>2026-04-28T16:15:34.998Z</time></trkpt><trkpt lat="37.9117517" lon="14.1115736"><ele>363.75</ele><time>2026-04-28T16:15:35.998Z</time></trkpt><trkpt lat="37.9117215" lon="14.1114377"><ele>363.5</ele><time>2026-04-28T16:15:36.998Z</time></trkpt><trkpt lat="37.9116671" lon="14.1113017"><ele>363.25</ele><time>2026-04-28T16:15:37.998Z</time></trkpt><trkpt lat="37.9116096" lon="14.1111678"><ele>363.0</ele><time>2026-04-28T16:15:38.998Z</time></trkpt><trkpt lat="37.9115606" lon="14.1110425"><ele>363.0</ele><time>2026-04-28T16:15:39.998Z</time></trkpt><trkpt lat="37.9115344" lon="14.1109138"><ele>363.0</ele><time>2026-04-28T16:15:40.998Z</time></trkpt><trkpt lat="37.9115309" lon="14.1107803"><ele>363.0</ele><time>2026-04-28T16:15:41.998Z</time></trkpt><trkpt lat="37.9115631" lon="14.1106724"><ele>363.0</ele><time>2026-04-28T16:15:42.998Z</time></trkpt><trkpt lat="37.9116325" lon="14.1105812"><ele>363.0</ele><time>2026-04-28T16:15:43.998Z</time></trkpt><trkpt lat="37.9117231" lon="14.1105038"><ele>364.59999999999997</ele><time>2026-04-28T16:15:44.998Z</time></trkpt><trkpt lat="37.9118204" lon="14.1104478"><ele>366.2</ele><time>2026-04-28T16:15:45.997Z</time></trkpt><trkpt lat="37.9119175" lon="14.1104447"><ele>367.8</ele><time>2026-04-28T16:15:46.997Z</time></trkpt><trkpt lat="37.9120192" lon="14.1105017"><ele>369.4</ele><time>2026-04-28T16:15:47.998Z</time></trkpt><trkpt lat="37.9121265" lon="14.1105743"><ele>371.0</ele><time>2026-04-28T16:15:48.998Z</time></trkpt><trkpt lat="37.9122452" lon="14.1106217"><ele>371.0</ele><time>2026-04-28T16:15:49.998Z</time></trkpt><trkpt lat="37.9123829" lon="14.110628"><ele>371.0</ele><time>2026-04-28T16:15:50.997Z</time></trkpt><trkpt lat="37.9125376" lon="14.1106115"><ele>371.0</ele><time>2026-04-28T16:15:51.998Z</time></trkpt><trkpt lat="37.9126985" lon="14.1105752"><ele>366.33333333333337</ele><time>2026-04-28T16:15:52.998Z</time></trkpt><trkpt lat="37.9128548" lon="14.110519"><ele>361.6666666666667</ele><time>2026-04-28T16:15:53.998Z</time></trkpt><trkpt lat="37.9130076" lon="14.1104405"><ele>357.0</ele><time>2026-04-28T16:15:54.997Z</time></trkpt><trkpt lat="37.9131456" lon="14.1103442"><ele>357.0</ele><time>2026-04-28T16:15:55.998Z</time></trkpt><trkpt lat="37.9132726" lon="14.1102401"><ele>357.0</ele><time>2026-04-28T16:15:56.998Z</time></trkpt><trkpt lat="37.9133765" lon="14.1101092"><ele>357.0</ele><time>2026-04-28T16:15:57.998Z</time></trkpt><trkpt lat="37.9134593" lon="14.1099552"><ele>357.0</ele><time>2026-04-28T16:15:58.998Z</time></trkpt><trkpt lat="37.9135267" lon="14.1097934"><ele>355.75</ele><time>2026-04-28T16:15:59.998Z</time></trkpt><trkpt lat="37.9136013" lon="14.1096467"><ele>354.5</ele><time>2026-04-28T16:16:00.997Z</time></trkpt><trkpt lat="37.9137002" lon="14.1095272"><ele>353.25</ele><time>2026-04-28T16:16:01.998Z</time></trkpt><trkpt lat="37.9138481" lon="14.1094366"><ele>352.0</ele><time>2026-04-28T16:16:02.998Z</time></trkpt><trkpt lat="37.9140097" lon="14.1093526"><ele>352.0</ele><time>2026-04-28T16:16:03.997Z</time></trkpt><trkpt lat="37.9141644" lon="14.1092714"><ele>352.0</ele><time>2026-04-28T16:16:04.998Z</time></trkpt><trkpt lat="37.9143096" lon="14.1091981"><ele>352.0</ele><time>2026-04-28T16:16:05.998Z</time></trkpt><trkpt lat="37.9144352" lon="14.1091226"><ele>353.6</ele><time>2026-04-28T16:16:06.998Z</time></trkpt><trkpt lat="37.9145551" lon="14.1090627"><ele>355.20000000000005</ele><time>2026-04-28T16:16:07.998Z</time></trkpt><trkpt lat="37.9146658" lon="14.1090498"><ele>356.8</ele><time>2026-04-28T16:16:08.998Z</time></trkpt><trkpt lat="37.9147497" lon="14.1090875"><ele>358.4</ele><time>2026-04-28T16:16:09.997Z</time></trkpt><trkpt lat="37.9148074" lon="14.109165"><ele>360.0</ele><time>2026-04-28T16:16:10.998Z</time></trkpt><trkpt lat="37.9148547" lon="14.1093038"><ele>360.0</ele><time>2026-04-28T16:16:11.998Z</time></trkpt><trkpt lat="37.9149145" lon="14.1094675"><ele>360.0</ele><time>2026-04-28T16:16:12.998Z</time></trkpt><trkpt lat="37.9149798" lon="14.1096333"><ele>360.0</ele><time>2026-04-28T16:16:13.998Z</time></trkpt><trkpt lat="37.9150508" lon="14.1097983"><ele>360.0</ele><time>2026-04-28T16:16:14.998Z</time></trkpt><trkpt lat="37.9151157" lon="14.1099525"><ele>357.25</ele><time>2026-04-28T16:16:15.998Z</time></trkpt><trkpt lat="37.9151878" lon="14.110089"><ele>354.5</ele><time>2026-04-28T16:16:16.998Z</time></trkpt><trkpt lat="37.9152799" lon="14.1102028"><ele>351.75</ele><time>2026-04-28T16:16:17.998Z</time></trkpt><trkpt lat="37.9153928" lon="14.1102609"><ele>349.0</ele><time>2026-04-28T16:16:18.998Z</time></trkpt><trkpt lat="37.915538" lon="14.110281"><ele>349.0</ele><time>2026-04-28T16:16:19.997Z</time></trkpt><trkpt lat="37.9156918" lon="14.1102841"><ele>349.0</ele><time>2026-04-28T16:16:20.997Z</time></trkpt><trkpt lat="37.9158411" lon="14.1102794"><ele>349.0</ele><time>2026-04-28T16:16:21.998Z</time></trkpt><trkpt lat="37.9159777" lon="14.1102537"><ele>349.0</ele><time>2026-04-28T16:16:22.998Z</time></trkpt><trkpt lat="37.9160999" lon="14.110178"><ele>348.3333333333333</ele><time>2026-04-28T16:16:23.998Z</time></trkpt><trkpt lat="37.9162249" lon="14.1100892"><ele>347.6666666666667</ele><time>2026-04-28T16:16:24.997Z</time></trkpt><trkpt lat="37.9163566" lon="14.1099843"><ele>347.0</ele><time>2026-04-28T16:16:25.998Z</time></trkpt><trkpt lat="37.9164918" lon="14.1098908"><ele>347.0</ele><time>2026-04-28T16:16:26.998Z</time></trkpt><trkpt lat="37.9166365" lon="14.1098046"><ele>347.0</ele><time>2026-04-28T16:16:27.998Z</time></trkpt><trkpt lat="37.9167847" lon="14.1097232"><ele>347.0</ele><time>2026-04-28T16:16:28.998Z</time></trkpt><trkpt lat="37.916939" lon="14.1096407"><ele>346.6666666666667</ele><time>2026-04-28T16:16:29.998Z</time></trkpt><trkpt lat="37.9170941" lon="14.1095555"><ele>346.3333333333333</ele><time>2026-04-28T16:16:30.998Z</time></trkpt><trkpt lat="37.9172427" lon="14.1094779"><ele>346.0</ele><time>2026-04-28T16:16:31.998Z</time></trkpt><trkpt lat="37.9173861" lon="14.1094108"><ele>346.0</ele><time>2026-04-28T16:16:32.998Z</time></trkpt><trkpt lat="37.9175207" lon="14.1093816"><ele>346.0</ele><time>2026-04-28T16:16:33.997Z</time></trkpt><trkpt lat="37.9176693" lon="14.1094019"><ele>346.0</ele><time>2026-04-28T16:16:34.998Z</time></trkpt><trkpt lat="37.9178177" lon="14.1094538"><ele>346.0</ele><time>2026-04-28T16:16:35.998Z</time></trkpt><trkpt lat="37.9179649" lon="14.1095164"><ele>349.0</ele><time>2026-04-28T16:16:36.998Z</time></trkpt><trkpt lat="37.9181179" lon="14.1095775"><ele>352.0</ele><time>2026-04-28T16:16:37.998Z</time></trkpt><trkpt lat="37.918278" lon="14.1096313"><ele>355.0</ele><time>2026-04-28T16:16:38.998Z</time></trkpt><trkpt lat="37.9184404" lon="14.1096816"><ele>349.0</ele><time>2026-04-28T16:16:39.998Z</time></trkpt><trkpt lat="37.9185983" lon="14.1097285"><ele>343.0</ele><time>2026-04-28T16:16:40.998Z</time></trkpt><trkpt lat="37.9187519" lon="14.1097667"><ele>337.0</ele><time>2026-04-28T16:16:41.998Z</time></trkpt><trkpt lat="37.9188928" lon="14.1097921"><ele>337.0</ele><time>2026-04-28T16:16:42.998Z</time></trkpt><trkpt lat="37.9190108" lon="14.1098099"><ele>337.0</ele><time>2026-04-28T16:16:43.998Z</time></trkpt><trkpt lat="37.9191021" lon="14.1098164"><ele>337.0</ele><time>2026-04-28T16:16:44.998Z</time></trkpt><trkpt lat="37.9191788" lon="14.109798"><ele>337.0</ele><time>2026-04-28T16:16:45.998Z</time></trkpt><trkpt lat="37.9192373" lon="14.1097452"><ele>337.0</ele><time>2026-04-28T16:16:46.998Z</time></trkpt><trkpt lat="37.919285" lon="14.1096757"><ele>337.0</ele><time>2026-04-28T16:16:47.998Z</time></trkpt><trkpt lat="37.9193289" lon="14.1095597"><ele>332.25</ele><time>2026-04-28T16:16:48.998Z</time></trkpt><trkpt lat="37.9193869" lon="14.1094201"><ele>327.5</ele><time>2026-04-28T16:16:49.998Z</time></trkpt><trkpt lat="37.9194544" lon="14.1092797"><ele>322.75</ele><time>2026-04-28T16:16:50.997Z</time></trkpt><trkpt lat="37.9195071" lon="14.1091315"><ele>318.0</ele><time>2026-04-28T16:16:51.998Z</time></trkpt><trkpt lat="37.9195165" lon="14.1089685"><ele>318.0</ele><time>2026-04-28T16:16:52.998Z</time></trkpt><trkpt lat="37.9194937" lon="14.1087981"><ele>318.0</ele><time>2026-04-28T16:16:53.998Z</time></trkpt><trkpt lat="37.9194867" lon="14.1086341"><ele>318.0</ele><time>2026-04-28T16:16:54.998Z</time></trkpt><trkpt lat="37.9194981" lon="14.1084711"><ele>318.0</ele><time>2026-04-28T16:16:55.998Z</time></trkpt><trkpt lat="37.9195296" lon="14.1083203"><ele>318.5</ele><time>2026-04-28T16:16:56.998Z</time></trkpt><trkpt lat="37.9195638" lon="14.108178"><ele>319.0</ele><time>2026-04-28T16:16:57.998Z</time></trkpt><trkpt lat="37.9195937" lon="14.1080414"><ele>319.5</ele><time>2026-04-28T16:16:58.998Z</time></trkpt><trkpt lat="37.9195903" lon="14.1078859"><ele>320.0</ele><time>2026-04-28T16:16:59.998Z</time></trkpt><trkpt lat="37.919546" lon="14.1077097"><ele>320.0</ele><time>2026-04-28T16:17:00.997Z</time></trkpt><trkpt lat="37.9194878" lon="14.1075408"><ele>320.0</ele><time>2026-04-28T16:17:01.998Z</time></trkpt><trkpt lat="37.9194284" lon="14.1073847"><ele>320.0</ele><time>2026-04-28T16:17:02.998Z</time></trkpt><trkpt lat="37.919374" lon="14.1072445"><ele>320.0</ele><time>2026-04-28T16:17:03.998Z</time></trkpt><trkpt lat="37.9193468" lon="14.1071117"><ele>322.4</ele><time>2026-04-28T16:17:04.998Z</time></trkpt><trkpt lat="37.9193548" lon="14.1069891"><ele>324.8</ele><time>2026-04-28T16:17:05.998Z</time></trkpt><trkpt lat="37.9193945" lon="14.1068882"><ele>327.20000000000005</ele><time>2026-04-28T16:17:06.998Z</time></trkpt><trkpt lat="37.9194784" lon="14.1068185"><ele>329.6</ele><time>2026-04-28T16:17:07.998Z</time></trkpt><trkpt lat="37.9195823" lon="14.10678"><ele>332.0</ele><time>2026-04-28T16:17:08.998Z</time></trkpt><trkpt lat="37.9196855" lon="14.106794"><ele>332.0</ele><time>2026-04-28T16:17:09.998Z</time></trkpt><trkpt lat="37.9197961" lon="14.1068575"><ele>332.0</ele><time>2026-04-28T16:17:10.998Z</time></trkpt><trkpt lat="37.9199187" lon="14.1069167"><ele>332.0</ele><time>2026-04-28T16:17:11.998Z</time></trkpt><trkpt lat="37.9200384" lon="14.106966"><ele>332.0</ele><time>2026-04-28T16:17:12.998Z</time></trkpt><trkpt lat="37.9201706" lon="14.1069852"><ele>332.6666666666667</ele><time>2026-04-28T16:17:13.997Z</time></trkpt><trkpt lat="37.9203146" lon="14.1069671"><ele>333.3333333333333</ele><time>2026-04-28T16:17:14.998Z</time></trkpt><trkpt lat="37.9204702" lon="14.1069253"><ele>334.0</ele><time>2026-04-28T16:17:15.998Z</time></trkpt><trkpt lat="37.9206479" lon="14.1068729"><ele>334.0</ele><time>2026-04-28T16:17:16.998Z</time></trkpt><trkpt lat="37.9208338" lon="14.1068149"><ele>334.0</ele><time>2026-04-28T16:17:17.998Z</time></trkpt><trkpt lat="37.9210183" lon="14.1067623"><ele>334.0</ele><time>2026-04-28T16:17:18.997Z</time></trkpt><trkpt lat="37.9212029" lon="14.106712"><ele>333.66666666666663</ele><time>2026-04-28T16:17:19.998Z</time></trkpt><trkpt lat="37.9213834" lon="14.1066662"><ele>333.3333333333333</ele><time>2026-04-28T16:17:20.998Z</time></trkpt><trkpt lat="37.9215514" lon="14.106623"><ele>333.0</ele><time>2026-04-28T16:17:21.998Z</time></trkpt><trkpt lat="37.9217073" lon="14.1065816"><ele>333.0</ele><time>2026-04-28T16:17:22.998Z</time></trkpt><trkpt lat="37.9218526" lon="14.1065384"><ele>333.0</ele><time>2026-04-28T16:17:23.998Z</time></trkpt><trkpt lat="37.9219907" lon="14.1064767"><ele>333.0</ele><time>2026-04-28T16:17:24.997Z</time></trkpt><trkpt lat="37.9221101" lon="14.106392"><ele>333.0</ele><time>2026-04-28T16:17:25.997Z</time></trkpt><trkpt lat="37.9222001" lon="14.1062574"><ele>333.0</ele><time>2026-04-28T16:17:26.997Z</time></trkpt><trkpt lat="37.9222601" lon="14.1060773"><ele>333.0</ele><time>2026-04-28T16:17:27.998Z</time></trkpt><trkpt lat="37.922306" lon="14.1058708"><ele>333.0</ele><time>2026-04-28T16:17:28.998Z</time></trkpt><trkpt lat="37.9223605" lon="14.1056545"><ele>336.0</ele><time>2026-04-28T16:17:29.998Z</time></trkpt><trkpt lat="37.9224159" lon="14.1054386"><ele>339.0</ele><time>2026-04-28T16:17:30.998Z</time></trkpt><trkpt lat="37.9224785" lon="14.1052282"><ele>342.0</ele><time>2026-04-28T16:17:31.998Z</time></trkpt><trkpt lat="37.9225355" lon="14.1050265"><ele>338.3333333333333</ele><time>2026-04-28T16:17:32.998Z</time></trkpt><trkpt lat="37.9225891" lon="14.1048371"><ele>334.66666666666663</ele><time>2026-04-28T16:17:33.998Z</time></trkpt><trkpt lat="37.9226393" lon="14.1046518"><ele>331.0</ele><time>2026-04-28T16:17:34.998Z</time></trkpt><trkpt lat="37.9226841" lon="14.1044683"><ele>331.0</ele><time>2026-04-28T16:17:35.997Z</time></trkpt><trkpt lat="37.9226987" lon="14.1042772"><ele>331.0</ele><time>2026-04-28T16:17:36.998Z</time></trkpt><trkpt lat="37.9227015" lon="14.1040683"><ele>331.0</ele><time>2026-04-28T16:17:37.997Z</time></trkpt><trkpt lat="37.9226828" lon="14.1038566"><ele>333.0</ele><time>2026-04-28T16:17:38.998Z</time></trkpt><trkpt lat="37.9226383" lon="14.1036453"><ele>335.0</ele><time>2026-04-28T16:17:39.997Z</time></trkpt><trkpt lat="37.9225782" lon="14.1034567"><ele>337.0</ele><time>2026-04-28T16:17:40.997Z</time></trkpt><trkpt lat="37.922508" lon="14.103283"><ele>340.0</ele><time>2026-04-28T16:17:41.998Z</time></trkpt><trkpt lat="37.9224483" lon="14.1030941"><ele>343.0</ele><time>2026-04-28T16:17:42.998Z</time></trkpt><trkpt lat="37.922417" lon="14.102876"><ele>346.0</ele><time>2026-04-28T16:17:43.998Z</time></trkpt><trkpt lat="37.922401" lon="14.1026569"><ele>346.0</ele><time>2026-04-28T16:17:44.998Z</time></trkpt><trkpt lat="37.9223868" lon="14.1024493"><ele>346.0</ele><time>2026-04-28T16:17:45.998Z</time></trkpt><trkpt lat="37.9223783" lon="14.1022675"><ele>346.0</ele><time>2026-04-28T16:17:46.998Z</time></trkpt><trkpt lat="37.9223774" lon="14.1021126"><ele>346.0</ele><time>2026-04-28T16:17:47.997Z</time></trkpt><trkpt lat="37.922397" lon="14.1019947"><ele>346.6</ele><time>2026-04-28T16:17:48.997Z</time></trkpt><trkpt lat="37.9224445" lon="14.1019241"><ele>347.20000000000005</ele><time>2026-04-28T16:17:49.998Z</time></trkpt><trkpt lat="37.9225261" lon="14.1018505"><ele>347.79999999999995</ele><time>2026-04-28T16:17:50.998Z</time></trkpt><trkpt lat="37.9226272" lon="14.1017545"><ele>348.4</ele><time>2026-04-28T16:17:51.998Z</time></trkpt><trkpt lat="37.9227063" lon="14.1016192"><ele>349.0</ele><time>2026-04-28T16:17:52.998Z</time></trkpt><trkpt lat="37.922769" lon="14.1014536"><ele>351.25</ele><time>2026-04-28T16:17:53.998Z</time></trkpt><trkpt lat="37.922801" lon="14.1012663"><ele>353.5</ele><time>2026-04-28T16:17:54.997Z</time></trkpt><trkpt lat="37.9228033" lon="14.1010895"><ele>355.75</ele><time>2026-04-28T16:17:55.997Z</time></trkpt><trkpt lat="37.922797" lon="14.1008989"><ele>358.0</ele><time>2026-04-28T16:17:56.998Z</time></trkpt><trkpt lat="37.9227928" lon="14.1007075"><ele>360.25</ele><time>2026-04-28T16:17:57.997Z</time></trkpt><trkpt lat="37.9227891" lon="14.1005318"><ele>362.5</ele><time>2026-04-28T16:17:58.998Z</time></trkpt><trkpt lat="37.9227838" lon="14.1003812"><ele>364.75</ele><time>2026-04-28T16:17:59.998Z</time></trkpt><trkpt lat="37.9227764" lon="14.1002533"><ele>367.0</ele><time>2026-04-28T16:18:00.998Z</time></trkpt><trkpt lat="37.9227812" lon="14.1001358"><ele>367.0</ele><time>2026-04-28T16:18:01.998Z</time></trkpt><trkpt lat="37.9228133" lon="14.1000395"><ele>367.0</ele><time>2026-04-28T16:18:02.998Z</time></trkpt><trkpt lat="37.9228842" lon="14.0999925"><ele>367.0</ele><time>2026-04-28T16:18:03.998Z</time></trkpt><trkpt lat="37.9229683" lon="14.0999813"><ele>367.0</ele><time>2026-04-28T16:18:04.997Z</time></trkpt><trkpt lat="37.9230551" lon="14.100027"><ele>367.0</ele><time>2026-04-28T16:18:05.998Z</time></trkpt><trkpt lat="37.9231369" lon="14.1000991"><ele>367.0</ele><time>2026-04-28T16:18:06.998Z</time></trkpt><trkpt lat="37.9231946" lon="14.1002042"><ele>367.0</ele><time>2026-04-28T16:18:07.998Z</time></trkpt><trkpt lat="37.923235" lon="14.1003303"><ele>367.0</ele><time>2026-04-28T16:18:08.997Z</time></trkpt><trkpt lat="37.923291" lon="14.1004422"><ele>367.0</ele><time>2026-04-28T16:18:09.998Z</time></trkpt><trkpt lat="37.9233604" lon="14.1005413"><ele>367.0</ele><time>2026-04-28T16:18:10.998Z</time></trkpt><trkpt lat="37.9234484" lon="14.1006293"><ele>367.0</ele><time>2026-04-28T16:18:11.998Z</time></trkpt><trkpt lat="37.9235464" lon="14.1007076"><ele>367.75</ele><time>2026-04-28T16:18:12.998Z</time></trkpt><trkpt lat="37.9236486" lon="14.1007771"><ele>368.5</ele><time>2026-04-28T16:18:13.997Z</time></trkpt><trkpt lat="37.9237569" lon="14.1008435"><ele>369.25</ele><time>2026-04-28T16:18:14.998Z</time></trkpt><trkpt lat="37.9238603" lon="14.100913"><ele>370.0</ele><time>2026-04-28T16:18:15.998Z</time></trkpt><trkpt lat="37.9239643" lon="14.1009831"><ele>370.0</ele><time>2026-04-28T16:18:16.997Z</time></trkpt><trkpt lat="37.9240686" lon="14.1010552"><ele>370.0</ele><time>2026-04-28T16:18:17.998Z</time></trkpt><trkpt lat="37.9241768" lon="14.1011275"><ele>370.0</ele><time>2026-04-28T16:18:18.997Z</time></trkpt><trkpt lat="37.9242844" lon="14.1012017"><ele>370.0</ele><time>2026-04-28T16:18:19.998Z</time></trkpt><trkpt lat="37.924392" lon="14.1012765"><ele>369.5</ele><time>2026-04-28T16:18:20.998Z</time></trkpt><trkpt lat="37.9245008" lon="14.101351"><ele>369.0</ele><time>2026-04-28T16:18:21.998Z</time></trkpt><trkpt lat="37.924613" lon="14.1014277"><ele>368.5</ele><time>2026-04-28T16:18:22.998Z</time></trkpt><trkpt lat="37.924721" lon="14.1015031"><ele>368.0</ele><time>2026-04-28T16:18:23.998Z</time></trkpt><trkpt lat="37.9248172" lon="14.1015828"><ele>368.0</ele><time>2026-04-28T16:18:24.997Z</time></trkpt><trkpt lat="37.9248956" lon="14.1016866"><ele>368.0</ele><time>2026-04-28T16:18:25.998Z</time></trkpt><trkpt lat="37.9249538" lon="14.1018049"><ele>368.0</ele><time>2026-04-28T16:18:26.998Z</time></trkpt><trkpt lat="37.9249864" lon="14.1019282"><ele>368.0</ele><time>2026-04-28T16:18:27.998Z</time></trkpt><trkpt lat="37.9250108" lon="14.1020337"><ele>368.0</ele><time>2026-04-28T16:18:28.998Z</time></trkpt><trkpt lat="37.9250323" lon="14.1021195"><ele>368.0</ele><time>2026-04-28T16:18:29.997Z</time></trkpt><trkpt lat="37.9250585" lon="14.1021977"><ele>368.0</ele><time>2026-04-28T16:18:30.998Z</time></trkpt><trkpt lat="37.9251314" lon="14.1023244"><ele>368.0</ele><time>2026-04-28T16:18:32.998Z</time></trkpt><trkpt lat="37.925221" lon="14.1024065"><ele>368.0</ele><time>2026-04-28T16:18:34.997Z</time></trkpt><trkpt lat="37.925268" lon="14.1024974"><ele>368.0</ele><time>2026-04-28T16:18:36.998Z</time></trkpt><trkpt lat="37.9252809" lon="14.1026109"><ele>367.2</ele><time>2026-04-28T16:18:38.998Z</time></trkpt><trkpt lat="37.9252922" lon="14.1027233"><ele>366.4</ele><time>2026-04-28T16:18:40.998Z</time></trkpt><trkpt lat="37.9253212" lon="14.102832"><ele>365.59999999999997</ele><time>2026-04-28T16:18:42.998Z</time></trkpt><trkpt lat="37.9253884" lon="14.1029024"><ele>364.79999999999995</ele><time>2026-04-28T16:18:44.998Z</time></trkpt><trkpt lat="37.9255134" lon="14.1029049"><ele>364.0</ele><time>2026-04-28T16:18:46.998Z</time></trkpt><trkpt lat="37.9255881" lon="14.102862"><ele>364.0</ele><time>2026-04-28T16:18:47.998Z</time></trkpt><trkpt lat="37.9256655" lon="14.102796"><ele>364.0</ele><time>2026-04-28T16:18:48.998Z</time></trkpt><trkpt lat="37.9257316" lon="14.1026942"><ele>364.0</ele><time>2026-04-28T16:18:49.997Z</time></trkpt><trkpt lat="37.9257935" lon="14.1025764"><ele>364.0</ele><time>2026-04-28T16:18:50.998Z</time></trkpt><trkpt lat="37.9258492" lon="14.1024606"><ele>364.0</ele><time>2026-04-28T16:18:51.997Z</time></trkpt><trkpt lat="37.9259039" lon="14.102348"><ele>361.0</ele><time>2026-04-28T16:18:52.998Z</time></trkpt><trkpt lat="37.9259476" lon="14.1022383"><ele>358.0</ele><time>2026-04-28T16:18:53.998Z</time></trkpt><trkpt lat="37.9259795" lon="14.1021145"><ele>355.0</ele><time>2026-04-28T16:18:54.998Z</time></trkpt><trkpt lat="37.9259919" lon="14.1019768"><ele>352.0</ele><time>2026-04-28T16:18:55.998Z</time></trkpt><trkpt lat="37.925992" lon="14.1018225"><ele>349.0</ele><time>2026-04-28T16:18:56.998Z</time></trkpt><trkpt lat="37.9259857" lon="14.1016628"><ele>347.0</ele><time>2026-04-28T16:18:57.997Z</time></trkpt><trkpt lat="37.9259719" lon="14.1014929"><ele>345.0</ele><time>2026-04-28T16:18:58.998Z</time></trkpt><trkpt lat="37.9259577" lon="14.1013214"><ele>343.0</ele><time>2026-04-28T16:18:59.998Z</time></trkpt><trkpt lat="37.9259524" lon="14.1011413"><ele>341.0</ele><time>2026-04-28T16:19:00.998Z</time></trkpt><trkpt lat="37.9259601" lon="14.1009594"><ele>341.0</ele><time>2026-04-28T16:19:01.998Z</time></trkpt><trkpt lat="37.9259817" lon="14.1007783"><ele>341.0</ele><time>2026-04-28T16:19:02.998Z</time></trkpt><trkpt lat="37.9260161" lon="14.1006025"><ele>341.0</ele><time>2026-04-28T16:19:03.997Z</time></trkpt><trkpt lat="37.9260515" lon="14.1004361"><ele>341.0</ele><time>2026-04-28T16:19:04.998Z</time></trkpt><trkpt lat="37.9260902" lon="14.1002798"><ele>343.25</ele><time>2026-04-28T16:19:05.997Z</time></trkpt><trkpt lat="37.9261445" lon="14.1001421"><ele>345.5</ele><time>2026-04-28T16:19:06.998Z</time></trkpt><trkpt lat="37.9262229" lon="14.1000083"><ele>347.75</ele><time>2026-04-28T16:19:07.998Z</time></trkpt><trkpt lat="37.926317" lon="14.0999108"><ele>350.0</ele><time>2026-04-28T16:19:08.998Z</time></trkpt><trkpt lat="37.9264183" lon="14.0998206"><ele>353.25</ele><time>2026-04-28T16:19:09.998Z</time></trkpt><trkpt lat="37.9265268" lon="14.0997421"><ele>356.5</ele><time>2026-04-28T16:19:10.998Z</time></trkpt><trkpt lat="37.9266473" lon="14.0997048"><ele>359.75</ele><time>2026-04-28T16:19:11.998Z</time></trkpt><trkpt lat="37.9267683" lon="14.0997061"><ele>363.0</ele><time>2026-04-28T16:19:12.998Z</time></trkpt><trkpt lat="37.9269137" lon="14.0997453"><ele>363.0</ele><time>2026-04-28T16:19:13.997Z</time></trkpt><trkpt lat="37.9270562" lon="14.0997889"><ele>363.0</ele><time>2026-04-28T16:19:14.998Z</time></trkpt><trkpt lat="37.9272058" lon="14.0998286"><ele>363.0</ele><time>2026-04-28T16:19:15.998Z</time></trkpt><trkpt lat="37.9273558" lon="14.0998672"><ele>363.0</ele><time>2026-04-28T16:19:16.998Z</time></trkpt><trkpt lat="37.9275107" lon="14.0999066"><ele>363.0</ele><time>2026-04-28T16:19:17.998Z</time></trkpt><trkpt lat="37.9276671" lon="14.0999436"><ele>363.0</ele><time>2026-04-28T16:19:18.997Z</time></trkpt><trkpt lat="37.9278261" lon="14.0999693"><ele>354.6666666666667</ele><time>2026-04-28T16:19:19.998Z</time></trkpt><trkpt lat="37.9279822" lon="14.0999753"><ele>346.33333333333337</ele><time>2026-04-28T16:19:20.998Z</time></trkpt><trkpt lat="37.9281384" lon="14.0999581"><ele>338.0</ele><time>2026-04-28T16:19:21.998Z</time></trkpt><trkpt lat="37.9282895" lon="14.0999256"><ele>336.75</ele><time>2026-04-28T16:19:22.998Z</time></trkpt><trkpt lat="37.9284293" lon="14.0998552"><ele>335.5</ele><time>2026-04-28T16:19:23.998Z</time></trkpt><trkpt lat="37.9285495" lon="14.0997537"><ele>334.25</ele><time>2026-04-28T16:19:24.998Z</time></trkpt><trkpt lat="37.9286548" lon="14.0996298"><ele>333.0</ele><time>2026-04-28T16:19:25.998Z</time></trkpt><trkpt lat="37.9287482" lon="14.0994858"><ele>333.0</ele><time>2026-04-28T16:19:26.998Z</time></trkpt><trkpt lat="37.9288246" lon="14.0993288"><ele>333.0</ele><time>2026-04-28T16:19:27.998Z</time></trkpt><trkpt lat="37.9288751" lon="14.0991558"><ele>333.0</ele><time>2026-04-28T16:19:28.998Z</time></trkpt><trkpt lat="37.9289067" lon="14.0989729"><ele>333.0</ele><time>2026-04-28T16:19:29.998Z</time></trkpt><trkpt lat="37.9289188" lon="14.0987764"><ele>331.0</ele><time>2026-04-28T16:19:30.997Z</time></trkpt><trkpt lat="37.9289101" lon="14.0985804"><ele>329.0</ele><time>2026-04-28T16:19:31.998Z</time></trkpt><trkpt lat="37.9288861" lon="14.0983921"><ele>327.0</ele><time>2026-04-28T16:19:32.998Z</time></trkpt><trkpt lat="37.9288589" lon="14.0982068"><ele>324.75</ele><time>2026-04-28T16:19:33.998Z</time></trkpt><trkpt lat="37.9288339" lon="14.0980303"><ele>322.5</ele><time>2026-04-28T16:19:34.998Z</time></trkpt><trkpt lat="37.9288147" lon="14.0978581"><ele>320.25</ele><time>2026-04-28T16:19:35.998Z</time></trkpt><trkpt lat="37.9288009" lon="14.0976868"><ele>318.0</ele><time>2026-04-28T16:19:36.998Z</time></trkpt><trkpt lat="37.9287972" lon="14.0975094"><ele>319.0</ele><time>2026-04-28T16:19:37.997Z</time></trkpt><trkpt lat="37.9288094" lon="14.0973316"><ele>320.0</ele><time>2026-04-28T16:19:38.997Z</time></trkpt><trkpt lat="37.9288434" lon="14.0971592"><ele>321.0</ele><time>2026-04-28T16:19:39.998Z</time></trkpt><trkpt lat="37.9288954" lon="14.0969893"><ele>322.0</ele><time>2026-04-28T16:19:40.998Z</time></trkpt><trkpt lat="37.9289728" lon="14.0968219"><ele>322.0</ele><time>2026-04-28T16:19:41.998Z</time></trkpt><trkpt lat="37.929079" lon="14.0966535"><ele>322.0</ele><time>2026-04-28T16:19:42.998Z</time></trkpt><trkpt lat="37.9292083" lon="14.096507"><ele>322.0</ele><time>2026-04-28T16:19:43.998Z</time></trkpt><trkpt lat="37.9293563" lon="14.0963878"><ele>322.0</ele><time>2026-04-28T16:19:44.998Z</time></trkpt><trkpt lat="37.9295094" lon="14.0962898"><ele>322.0</ele><time>2026-04-28T16:19:45.998Z</time></trkpt><trkpt lat="37.9296607" lon="14.096198"><ele>322.0</ele><time>2026-04-28T16:19:46.998Z</time></trkpt><trkpt lat="37.9297992" lon="14.0960964"><ele>322.0</ele><time>2026-04-28T16:19:47.998Z</time></trkpt><trkpt lat="37.9299247" lon="14.0959763"><ele>322.0</ele><time>2026-04-28T16:19:48.998Z</time></trkpt><trkpt lat="37.9300482" lon="14.0958363"><ele>322.0</ele><time>2026-04-28T16:19:49.998Z</time></trkpt><trkpt lat="37.9301671" lon="14.0956815"><ele>322.0</ele><time>2026-04-28T16:19:50.998Z</time></trkpt><trkpt lat="37.9302782" lon="14.0955144"><ele>322.0</ele><time>2026-04-28T16:19:51.998Z</time></trkpt><trkpt lat="37.9303892" lon="14.0953383"><ele>322.0</ele><time>2026-04-28T16:19:52.998Z</time></trkpt><trkpt lat="37.9305025" lon="14.0951579"><ele>322.0</ele><time>2026-04-28T16:19:53.997Z</time></trkpt><trkpt lat="37.9306156" lon="14.0949821"><ele>322.0</ele><time>2026-04-28T16:19:54.998Z</time></trkpt><trkpt lat="37.9307294" lon="14.0948094"><ele>322.0</ele><time>2026-04-28T16:19:55.998Z</time></trkpt><trkpt lat="37.9308431" lon="14.0946386"><ele>323.3333333333333</ele><time>2026-04-28T16:19:56.998Z</time></trkpt><trkpt lat="37.9309573" lon="14.0944764"><ele>324.6666666666667</ele><time>2026-04-28T16:19:57.998Z</time></trkpt><trkpt lat="37.9310778" lon="14.0943206"><ele>326.0</ele><time>2026-04-28T16:19:58.998Z</time></trkpt><trkpt lat="37.9312166" lon="14.0941747"><ele>328.33333333333337</ele><time>2026-04-28T16:19:59.998Z</time></trkpt><trkpt lat="37.9313724" lon="14.0940506"><ele>330.6666666666667</ele><time>2026-04-28T16:20:00.998Z</time></trkpt><trkpt lat="37.9315392" lon="14.0939571"><ele>333.0</ele><time>2026-04-28T16:20:01.998Z</time></trkpt><trkpt lat="37.9317085" lon="14.0939012"><ele>333.0</ele><time>2026-04-28T16:20:02.998Z</time></trkpt><trkpt lat="37.9318726" lon="14.0938763"><ele>333.0</ele><time>2026-04-28T16:20:03.998Z</time></trkpt><trkpt lat="37.9320256" lon="14.093872"><ele>333.0</ele><time>2026-04-28T16:20:04.997Z</time></trkpt><trkpt lat="37.9321634" lon="14.0938763"><ele>333.0</ele><time>2026-04-28T16:20:05.997Z</time></trkpt><trkpt lat="37.93229" lon="14.0938777"><ele>333.0</ele><time>2026-04-28T16:20:06.998Z</time></trkpt><trkpt lat="37.9324175" lon="14.0938721"><ele>333.0</ele><time>2026-04-28T16:20:07.997Z</time></trkpt><trkpt lat="37.9325547" lon="14.0938518"><ele>333.0</ele><time>2026-04-28T16:20:08.998Z</time></trkpt><trkpt lat="37.9327065" lon="14.0938169"><ele>333.6666666666667</ele><time>2026-04-28T16:20:09.998Z</time></trkpt><trkpt lat="37.9328752" lon="14.0937831"><ele>334.33333333333337</ele><time>2026-04-28T16:20:10.998Z</time></trkpt><trkpt lat="37.9330477" lon="14.0937583"><ele>335.0</ele><time>2026-04-28T16:20:11.998Z</time></trkpt><trkpt lat="37.9332162" lon="14.0937442"><ele>335.0</ele><time>2026-04-28T16:20:12.998Z</time></trkpt><trkpt lat="37.9333778" lon="14.0937461"><ele>335.0</ele><time>2026-04-28T16:20:13.998Z</time></trkpt><trkpt lat="37.9335401" lon="14.0937699"><ele>335.0</ele><time>2026-04-28T16:20:14.998Z</time></trkpt><trkpt lat="37.9336949" lon="14.0938214"><ele>335.6666666666667</ele><time>2026-04-28T16:20:15.997Z</time></trkpt><trkpt lat="37.9338384" lon="14.09391"><ele>336.3333333333333</ele><time>2026-04-28T16:20:16.998Z</time></trkpt><trkpt lat="37.9339734" lon="14.0940356"><ele>337.0</ele><time>2026-04-28T16:20:17.998Z</time></trkpt><trkpt lat="37.9340874" lon="14.0941989"><ele>338.0</ele><time>2026-04-28T16:20:18.997Z</time></trkpt><trkpt lat="37.9341815" lon="14.0943854"><ele>339.0</ele><time>2026-04-28T16:20:19.998Z</time></trkpt><trkpt lat="37.9342589" lon="14.0945855"><ele>340.0</ele><time>2026-04-28T16:20:20.998Z</time></trkpt><trkpt lat="37.9343258" lon="14.0947917"><ele>337.0</ele><time>2026-04-28T16:20:21.997Z</time></trkpt><trkpt lat="37.9343974" lon="14.0949984"><ele>334.0</ele><time>2026-04-28T16:20:22.998Z</time></trkpt><trkpt lat="37.9344727" lon="14.095207"><ele>331.0</ele><time>2026-04-28T16:20:23.998Z</time></trkpt><trkpt lat="37.9345499" lon="14.0954137"><ele>331.0</ele><time>2026-04-28T16:20:24.998Z</time></trkpt><trkpt lat="37.9346258" lon="14.095619"><ele>331.0</ele><time>2026-04-28T16:20:25.997Z</time></trkpt><trkpt lat="37.9347013" lon="14.0958249"><ele>331.0</ele><time>2026-04-28T16:20:26.997Z</time></trkpt><trkpt lat="37.9347762" lon="14.0960292"><ele>328.0</ele><time>2026-04-28T16:20:27.998Z</time></trkpt><trkpt lat="37.9348477" lon="14.0962276"><ele>325.0</ele><time>2026-04-28T16:20:28.998Z</time></trkpt><trkpt lat="37.9349195" lon="14.0964173"><ele>322.0</ele><time>2026-04-28T16:20:29.998Z</time></trkpt><trkpt lat="37.9349964" lon="14.0966001"><ele>319.66666666666663</ele><time>2026-04-28T16:20:30.998Z</time></trkpt><trkpt lat="37.9350826" lon="14.0967708"><ele>317.3333333333333</ele><time>2026-04-28T16:20:31.997Z</time></trkpt><trkpt lat="37.935183" lon="14.0969327"><ele>315.0</ele><time>2026-04-28T16:20:32.998Z</time></trkpt><trkpt lat="37.9352964" lon="14.097098"><ele>315.0</ele><time>2026-04-28T16:20:33.998Z</time></trkpt><trkpt lat="37.9354187" lon="14.0972753"><ele>315.0</ele><time>2026-04-28T16:20:34.998Z</time></trkpt><trkpt lat="37.935545" lon="14.0974622"><ele>315.0</ele><time>2026-04-28T16:20:35.998Z</time></trkpt><trkpt lat="37.9356713" lon="14.0976536"><ele>313.6666666666667</ele><time>2026-04-28T16:20:36.998Z</time></trkpt><trkpt lat="37.9358016" lon="14.0978457"><ele>312.33333333333337</ele><time>2026-04-28T16:20:37.997Z</time></trkpt><trkpt lat="37.9359337" lon="14.0980342"><ele>311.0</ele><time>2026-04-28T16:20:38.998Z</time></trkpt><trkpt lat="37.9360673" lon="14.0982144"><ele>305.33333333333337</ele><time>2026-04-28T16:20:39.998Z</time></trkpt><trkpt lat="37.9362015" lon="14.0983873"><ele>299.6666666666667</ele><time>2026-04-28T16:20:40.998Z</time></trkpt><trkpt lat="37.936336" lon="14.0985579"><ele>294.0</ele><time>2026-04-28T16:20:41.998Z</time></trkpt><trkpt lat="37.936469" lon="14.0987243"><ele>294.0</ele><time>2026-04-28T16:20:42.998Z</time></trkpt><trkpt lat="37.9366049" lon="14.0988855"><ele>294.0</ele><time>2026-04-28T16:20:43.998Z</time></trkpt><trkpt lat="37.936746" lon="14.0990327"><ele>294.0</ele><time>2026-04-28T16:20:44.998Z</time></trkpt><trkpt lat="37.9368908" lon="14.0991658"><ele>292.3333333333333</ele><time>2026-04-28T16:20:45.998Z</time></trkpt><trkpt lat="37.9370371" lon="14.0992895"><ele>290.66666666666663</ele><time>2026-04-28T16:20:46.998Z</time></trkpt><trkpt lat="37.9371865" lon="14.0994025"><ele>289.0</ele><time>2026-04-28T16:20:47.998Z</time></trkpt><trkpt lat="37.9373457" lon="14.0994989"><ele>289.0</ele><time>2026-04-28T16:20:48.998Z</time></trkpt><trkpt lat="37.9375212" lon="14.0995835"><ele>289.0</ele><time>2026-04-28T16:20:49.998Z</time></trkpt><trkpt lat="37.9377062" lon="14.0996541"><ele>289.0</ele><time>2026-04-28T16:20:50.998Z</time></trkpt><trkpt lat="37.9378908" lon="14.0997106"><ele>288.66666666666663</ele><time>2026-04-28T16:20:51.998Z</time></trkpt><trkpt lat="37.9380673" lon="14.0997546"><ele>288.3333333333333</ele><time>2026-04-28T16:20:52.997Z</time></trkpt><trkpt lat="37.9382346" lon="14.0997945"><ele>288.0</ele><time>2026-04-28T16:20:53.998Z</time></trkpt><trkpt lat="37.9383966" lon="14.0998354"><ele>287.25</ele><time>2026-04-28T16:20:54.998Z</time></trkpt><trkpt lat="37.9385492" lon="14.099875"><ele>286.5</ele><time>2026-04-28T16:20:55.998Z</time></trkpt><trkpt lat="37.9386959" lon="14.0999133"><ele>285.75</ele><time>2026-04-28T16:20:56.998Z</time></trkpt><trkpt lat="37.9388376" lon="14.0999252"><ele>285.0</ele><time>2026-04-28T16:20:57.998Z</time></trkpt><trkpt lat="37.9389708" lon="14.099903"><ele>285.0</ele><time>2026-04-28T16:20:58.998Z</time></trkpt><trkpt lat="37.9390986" lon="14.0998469"><ele>285.0</ele><time>2026-04-28T16:20:59.998Z</time></trkpt><trkpt lat="37.9392381" lon="14.099775"><ele>285.0</ele><time>2026-04-28T16:21:00.997Z</time></trkpt><trkpt lat="37.9393996" lon="14.0996931"><ele>283.6666666666667</ele><time>2026-04-28T16:21:01.998Z</time></trkpt><trkpt lat="37.9395777" lon="14.0996012"><ele>282.33333333333337</ele><time>2026-04-28T16:21:02.998Z</time></trkpt><trkpt lat="37.9397658" lon="14.099502"><ele>281.0</ele><time>2026-04-28T16:21:03.998Z</time></trkpt><trkpt lat="37.9399542" lon="14.099409"><ele>279.6666666666667</ele><time>2026-04-28T16:21:04.998Z</time></trkpt><trkpt lat="37.9401454" lon="14.0993168"><ele>278.3333333333333</ele><time>2026-04-28T16:21:05.998Z</time></trkpt><trkpt lat="37.9403406" lon="14.0992252"><ele>277.0</ele><time>2026-04-28T16:21:06.998Z</time></trkpt><trkpt lat="37.9405333" lon="14.0991281"><ele>280.3333333333333</ele><time>2026-04-28T16:21:07.998Z</time></trkpt><trkpt lat="37.9407144" lon="14.0990321"><ele>283.6666666666667</ele><time>2026-04-28T16:21:08.997Z</time></trkpt><trkpt lat="37.9408788" lon="14.0989542"><ele>287.0</ele><time>2026-04-28T16:21:09.998Z</time></trkpt><trkpt lat="37.9410254" lon="14.0988856"><ele>287.0</ele><time>2026-04-28T16:21:10.997Z</time></trkpt><trkpt lat="37.9411562" lon="14.0988272"><ele>287.0</ele><time>2026-04-28T16:21:11.998Z</time></trkpt><trkpt lat="37.9412734" lon="14.0987788"><ele>287.0</ele><time>2026-04-28T16:21:12.998Z</time></trkpt><trkpt lat="37.9413811" lon="14.0987306"><ele>287.0</ele><time>2026-04-28T16:21:13.997Z</time></trkpt><trkpt lat="37.9414821" lon="14.0986852"><ele>287.0</ele><time>2026-04-28T16:21:14.997Z</time></trkpt><trkpt lat="37.9415734" lon="14.0986333"><ele>287.0</ele><time>2026-04-28T16:21:15.997Z</time></trkpt><trkpt lat="37.9416544" lon="14.0985584"><ele>287.0</ele><time>2026-04-28T16:21:16.998Z</time></trkpt><trkpt lat="37.9417191" lon="14.0984512"><ele>287.0</ele><time>2026-04-28T16:21:17.998Z</time></trkpt><trkpt lat="37.9417675" lon="14.0983303"><ele>287.0</ele><time>2026-04-28T16:21:18.998Z</time></trkpt><trkpt lat="37.9417947" lon="14.0982148"><ele>286.6666666666667</ele><time>2026-04-28T16:21:19.998Z</time></trkpt><trkpt lat="37.9418124" lon="14.0981167"><ele>286.33333333333337</ele><time>2026-04-28T16:21:20.997Z</time></trkpt><trkpt lat="37.9418158" lon="14.0980021"><ele>286.0</ele><time>2026-04-28T16:21:22.998Z</time></trkpt><trkpt lat="37.9418242" lon="14.0978573"><ele>285.6666666666667</ele><time>2026-04-28T16:21:24.998Z</time></trkpt><trkpt lat="37.9418175" lon="14.0977758"><ele>285.3333333333333</ele><time>2026-04-28T16:21:25.998Z</time></trkpt><trkpt lat="37.9417961" lon="14.0976991"><ele>285.0</ele><time>2026-04-28T16:21:26.998Z</time></trkpt><trkpt lat="37.9417562" lon="14.0976302"><ele>286.6666666666667</ele><time>2026-04-28T16:21:27.998Z</time></trkpt><trkpt lat="37.941666" lon="14.0975605"><ele>288.3333333333333</ele><time>2026-04-28T16:21:29.998Z</time></trkpt><trkpt lat="37.9415764" lon="14.0975313"><ele>290.0</ele><time>2026-04-28T16:21:33.998Z</time></trkpt><trkpt lat="37.9414995" lon="14.097559"><ele>291.66666666666663</ele><time>2026-04-28T16:21:34.998Z</time></trkpt><trkpt lat="37.9414216" lon="14.0975999"><ele>293.3333333333333</ele><time>2026-04-28T16:21:35.998Z</time></trkpt><trkpt lat="37.9413488" lon="14.0976433"><ele>295.0</ele><time>2026-04-28T16:21:36.998Z</time></trkpt><trkpt lat="37.9412714" lon="14.0976927"><ele>295.0</ele><time>2026-04-28T16:21:37.997Z</time></trkpt><trkpt lat="37.9411852" lon="14.0977392"><ele>295.0</ele><time>2026-04-28T16:21:38.998Z</time></trkpt><trkpt lat="37.9410863" lon="14.0977804"><ele>295.0</ele><time>2026-04-28T16:21:39.997Z</time></trkpt><trkpt lat="37.940969" lon="14.0978171"><ele>295.0</ele><time>2026-04-28T16:21:40.997Z</time></trkpt><trkpt lat="37.9408368" lon="14.0978522"><ele>298.0</ele><time>2026-04-28T16:21:41.997Z</time></trkpt><trkpt lat="37.9406934" lon="14.0978889"><ele>301.0</ele><time>2026-04-28T16:21:42.997Z</time></trkpt><trkpt lat="37.9405385" lon="14.0979327"><ele>304.0</ele><time>2026-04-28T16:21:43.997Z</time></trkpt><trkpt lat="37.9403835" lon="14.0979766"><ele>304.0</ele><time>2026-04-28T16:21:44.997Z</time></trkpt><trkpt lat="37.9402368" lon="14.0980151"><ele>304.0</ele><time>2026-04-28T16:21:45.996Z</time></trkpt><trkpt lat="37.9400967" lon="14.0980445"><ele>304.0</ele><time>2026-04-28T16:21:46.997Z</time></trkpt><trkpt lat="37.9399639" lon="14.0980504"><ele>304.0</ele><time>2026-04-28T16:21:47.996Z</time></trkpt><trkpt lat="37.9398412" lon="14.0980189"><ele>305.75</ele><time>2026-04-28T16:21:48.997Z</time></trkpt><trkpt lat="37.9397376" lon="14.0979413"><ele>307.5</ele><time>2026-04-28T16:21:49.996Z</time></trkpt><trkpt lat="37.9396408" lon="14.09782"><ele>309.25</ele><time>2026-04-28T16:21:50.996Z</time></trkpt><trkpt lat="37.9395827" lon="14.0976703"><ele>311.0</ele><time>2026-04-28T16:21:51.996Z</time></trkpt><trkpt lat="37.9395732" lon="14.0975256"><ele>313.0</ele><time>2026-04-28T16:21:52.996Z</time></trkpt><trkpt lat="37.9395971" lon="14.0973763"><ele>315.0</ele><time>2026-04-28T16:21:53.997Z</time></trkpt><trkpt lat="37.9396559" lon="14.0972201"><ele>317.0</ele><time>2026-04-28T16:21:54.997Z</time></trkpt><trkpt lat="37.9397333" lon="14.0970458"><ele>319.0</ele><time>2026-04-28T16:21:55.997Z</time></trkpt><trkpt lat="37.9398164" lon="14.0968599"><ele>319.0</ele><time>2026-04-28T16:21:56.997Z</time></trkpt><trkpt lat="37.9399042" lon="14.0966714"><ele>319.0</ele><time>2026-04-28T16:21:57.997Z</time></trkpt><trkpt lat="37.9399904" lon="14.096478"><ele>319.0</ele><time>2026-04-28T16:21:58.996Z</time></trkpt><trkpt lat="37.9400791" lon="14.0962695"><ele>319.3333333333333</ele><time>2026-04-28T16:21:59.996Z</time></trkpt><trkpt lat="37.9401726" lon="14.0960608"><ele>319.6666666666667</ele><time>2026-04-28T16:22:00.997Z</time></trkpt><trkpt lat="37.9402654" lon="14.0958528"><ele>320.0</ele><time>2026-04-28T16:22:01.997Z</time></trkpt><trkpt lat="37.9403566" lon="14.0956468"><ele>321.6666666666667</ele><time>2026-04-28T16:22:02.997Z</time></trkpt><trkpt lat="37.9404467" lon="14.0954443"><ele>323.3333333333333</ele><time>2026-04-28T16:22:03.997Z</time></trkpt><trkpt lat="37.940532" lon="14.095253"><ele>325.0</ele><time>2026-04-28T16:22:04.997Z</time></trkpt><trkpt lat="37.9406129" lon="14.0950754"><ele>325.3333333333333</ele><time>2026-04-28T16:22:05.997Z</time></trkpt><trkpt lat="37.9406915" lon="14.0949039"><ele>325.6666666666667</ele><time>2026-04-28T16:22:06.997Z</time></trkpt><trkpt lat="37.9407661" lon="14.09473"><ele>326.0</ele><time>2026-04-28T16:22:07.997Z</time></trkpt><trkpt lat="37.9408335" lon="14.0945576"><ele>326.75</ele><time>2026-04-28T16:22:08.996Z</time></trkpt><trkpt lat="37.9408834" lon="14.0943879"><ele>327.5</ele><time>2026-04-28T16:22:09.997Z</time></trkpt><trkpt lat="37.9409004" lon="14.0942062"><ele>328.25</ele><time>2026-04-28T16:22:10.997Z</time></trkpt><trkpt lat="37.9408791" lon="14.0940178"><ele>329.0</ele><time>2026-04-28T16:22:11.996Z</time></trkpt><trkpt lat="37.940809" lon="14.0938352"><ele>329.0</ele><time>2026-04-28T16:22:12.996Z</time></trkpt><trkpt lat="37.9406946" lon="14.0936896"><ele>329.0</ele><time>2026-04-28T16:22:13.997Z</time></trkpt><trkpt lat="37.9405584" lon="14.0935821"><ele>329.0</ele><time>2026-04-28T16:22:14.997Z</time></trkpt><trkpt lat="37.9404315" lon="14.0935072"><ele>329.0</ele><time>2026-04-28T16:22:15.997Z</time></trkpt><trkpt lat="37.9403253" lon="14.0934398"><ele>329.0</ele><time>2026-04-28T16:22:16.997Z</time></trkpt><trkpt lat="37.9402305" lon="14.0933691"><ele>329.0</ele><time>2026-04-28T16:22:17.997Z</time></trkpt><trkpt lat="37.9401491" lon="14.0932868"><ele>329.0</ele><time>2026-04-28T16:22:18.996Z</time></trkpt><trkpt lat="37.9401036" lon="14.093205"><ele>329.0</ele><time>2026-04-28T16:22:19.997Z</time></trkpt><trkpt lat="37.9400874" lon="14.0931181"><ele>328.0</ele><time>2026-04-28T16:22:20.997Z</time></trkpt><trkpt lat="37.9400812" lon="14.0930128"><ele>327.0</ele><time>2026-04-28T16:22:21.997Z</time></trkpt><trkpt lat="37.94008" lon="14.0928898"><ele>326.0</ele><time>2026-04-28T16:22:22.997Z</time></trkpt><trkpt lat="37.9400637" lon="14.0927575"><ele>325.0</ele><time>2026-04-28T16:22:23.997Z</time></trkpt><trkpt lat="37.9400351" lon="14.0926362"><ele>324.0</ele><time>2026-04-28T16:22:24.997Z</time></trkpt><trkpt lat="37.9399872" lon="14.0925167"><ele>322.25</ele><time>2026-04-28T16:22:25.997Z</time></trkpt><trkpt lat="37.9399127" lon="14.0923967"><ele>320.5</ele><time>2026-04-28T16:22:26.996Z</time></trkpt><trkpt lat="37.9398123" lon="14.0922724"><ele>318.75</ele><time>2026-04-28T16:22:27.997Z</time></trkpt><trkpt lat="37.9397006" lon="14.0921434"><ele>317.0</ele><time>2026-04-28T16:22:28.997Z</time></trkpt><trkpt lat="37.939579" lon="14.0920143"><ele>317.0</ele><time>2026-04-28T16:22:29.997Z</time></trkpt><trkpt lat="37.9394486" lon="14.0918783"><ele>317.0</ele><time>2026-04-28T16:22:30.997Z</time></trkpt><trkpt lat="37.9393157" lon="14.0917348"><ele>317.0</ele><time>2026-04-28T16:22:31.997Z</time></trkpt><trkpt lat="37.9391758" lon="14.0915873"><ele>316.0</ele><time>2026-04-28T16:22:32.997Z</time></trkpt><trkpt lat="37.9390352" lon="14.0914301"><ele>315.0</ele><time>2026-04-28T16:22:33.997Z</time></trkpt><trkpt lat="37.9388987" lon="14.0912633"><ele>314.0</ele><time>2026-04-28T16:22:34.997Z</time></trkpt><trkpt lat="37.9387664" lon="14.0910916"><ele>314.0</ele><time>2026-04-28T16:22:35.997Z</time></trkpt><trkpt lat="37.9386364" lon="14.0909221"><ele>314.0</ele><time>2026-04-28T16:22:36.997Z</time></trkpt><trkpt lat="37.9385049" lon="14.0907513"><ele>314.0</ele><time>2026-04-28T16:22:37.997Z</time></trkpt><trkpt lat="37.9383705" lon="14.0905843"><ele>314.0</ele><time>2026-04-28T16:22:38.997Z</time></trkpt><trkpt lat="37.9382411" lon="14.0904239"><ele>314.0</ele><time>2026-04-28T16:22:39.997Z</time></trkpt><trkpt lat="37.9381165" lon="14.0902713"><ele>314.0</ele><time>2026-04-28T16:22:40.996Z</time></trkpt><trkpt lat="37.9380019" lon="14.090126"><ele>314.0</ele><time>2026-04-28T16:22:41.997Z</time></trkpt><trkpt lat="37.9378933" lon="14.0899866"><ele>314.0</ele><time>2026-04-28T16:22:42.997Z</time></trkpt><trkpt lat="37.9377937" lon="14.0898533"><ele>314.0</ele><time>2026-04-28T16:22:43.997Z</time></trkpt><trkpt lat="37.9377013" lon="14.0897273"><ele>314.0</ele><time>2026-04-28T16:22:44.997Z</time></trkpt><trkpt lat="37.9376237" lon="14.089597"><ele>312.25</ele><time>2026-04-28T16:22:45.997Z</time></trkpt><trkpt lat="37.9375682" lon="14.0894501"><ele>310.5</ele><time>2026-04-28T16:22:46.997Z</time></trkpt><trkpt lat="37.9375347" lon="14.0892814"><ele>308.75</ele><time>2026-04-28T16:22:47.997Z</time></trkpt><trkpt lat="37.9375307" lon="14.0890955"><ele>307.0</ele><time>2026-04-28T16:22:48.997Z</time></trkpt><trkpt lat="37.9375504" lon="14.0889083"><ele>305.5</ele><time>2026-04-28T16:22:49.997Z</time></trkpt><trkpt lat="37.9375898" lon="14.0887439"><ele>304.0</ele><time>2026-04-28T16:22:50.997Z</time></trkpt><trkpt lat="37.9376334" lon="14.0885954"><ele>302.5</ele><time>2026-04-28T16:22:51.997Z</time></trkpt><trkpt lat="37.9376514" lon="14.0884377"><ele>301.0</ele><time>2026-04-28T16:22:52.996Z</time></trkpt><trkpt lat="37.9376386" lon="14.0882577"><ele>299.3333333333333</ele><time>2026-04-28T16:22:53.997Z</time></trkpt><trkpt lat="37.9375935" lon="14.0880627"><ele>297.6666666666667</ele><time>2026-04-28T16:22:54.997Z</time></trkpt><trkpt lat="37.9375307" lon="14.0878585"><ele>296.0</ele><time>2026-04-28T16:22:55.997Z</time></trkpt><trkpt lat="37.9374662" lon="14.0876555"><ele>302.6666666666667</ele><time>2026-04-28T16:22:56.996Z</time></trkpt><trkpt lat="37.9374013" lon="14.0874538"><ele>309.3333333333333</ele><time>2026-04-28T16:22:57.996Z</time></trkpt><trkpt lat="37.9373393" lon="14.0872535"><ele>316.0</ele><time>2026-04-28T16:22:58.997Z</time></trkpt><trkpt lat="37.9372877" lon="14.0870605"><ele>316.0</ele><time>2026-04-28T16:22:59.997Z</time></trkpt><trkpt lat="37.9372483" lon="14.086861"><ele>316.0</ele><time>2026-04-28T16:23:00.997Z</time></trkpt><trkpt lat="37.9372142" lon="14.0866569"><ele>316.0</ele><time>2026-04-28T16:23:01.997Z</time></trkpt><trkpt lat="37.9371775" lon="14.0864547"><ele>316.0</ele><time>2026-04-28T16:23:02.997Z</time></trkpt><trkpt lat="37.9371405" lon="14.0862529"><ele>316.0</ele><time>2026-04-28T16:23:03.997Z</time></trkpt><trkpt lat="37.9370996" lon="14.0860536"><ele>316.0</ele><time>2026-04-28T16:23:04.996Z</time></trkpt><trkpt lat="37.9370525" lon="14.0858521"><ele>314.3333333333333</ele><time>2026-04-28T16:23:05.996Z</time></trkpt><trkpt lat="37.9369965" lon="14.085657"><ele>312.6666666666667</ele><time>2026-04-28T16:23:06.997Z</time></trkpt><trkpt lat="37.9369315" lon="14.0854676"><ele>311.0</ele><time>2026-04-28T16:23:07.997Z</time></trkpt><trkpt lat="37.9368599" lon="14.0852784"><ele>311.0</ele><time>2026-04-28T16:23:08.997Z</time></trkpt><trkpt lat="37.9367899" lon="14.0850838"><ele>311.0</ele><time>2026-04-28T16:23:09.997Z</time></trkpt><trkpt lat="37.9367275" lon="14.0848906"><ele>311.0</ele><time>2026-04-28T16:23:10.997Z</time></trkpt><trkpt lat="37.9366764" lon="14.0847058"><ele>311.75</ele><time>2026-04-28T16:23:11.997Z</time></trkpt><trkpt lat="37.9366375" lon="14.084531"><ele>312.5</ele><time>2026-04-28T16:23:12.996Z</time></trkpt><trkpt lat="37.9366094" lon="14.0843653"><ele>313.25</ele><time>2026-04-28T16:23:13.997Z</time></trkpt><trkpt lat="37.9365778" lon="14.0842173"><ele>314.0</ele><time>2026-04-28T16:23:14.997Z</time></trkpt><trkpt lat="37.936532" lon="14.084089"><ele>314.0</ele><time>2026-04-28T16:23:15.997Z</time></trkpt><trkpt lat="37.936461" lon="14.083975"><ele>314.0</ele><time>2026-04-28T16:23:16.997Z</time></trkpt><trkpt lat="37.9363545" lon="14.0838844"><ele>314.0</ele><time>2026-04-28T16:23:17.996Z</time></trkpt><trkpt lat="37.9362259" lon="14.0838256"><ele>314.0</ele><time>2026-04-28T16:23:18.997Z</time></trkpt><trkpt lat="37.9360978" lon="14.0838013"><ele>314.0</ele><time>2026-04-28T16:23:19.997Z</time></trkpt><trkpt lat="37.935975" lon="14.0838217"><ele>314.0</ele><time>2026-04-28T16:23:20.996Z</time></trkpt><trkpt lat="37.9358574" lon="14.0838807"><ele>314.0</ele><time>2026-04-28T16:23:21.997Z</time></trkpt><trkpt lat="37.935742" lon="14.0839672"><ele>314.0</ele><time>2026-04-28T16:23:22.996Z</time></trkpt><trkpt lat="37.935624" lon="14.0840583"><ele>317.25</ele><time>2026-04-28T16:23:23.996Z</time></trkpt><trkpt lat="37.9355055" lon="14.0841426"><ele>320.5</ele><time>2026-04-28T16:23:24.997Z</time></trkpt><trkpt lat="37.9353891" lon="14.0842218"><ele>323.75</ele><time>2026-04-28T16:23:25.997Z</time></trkpt><trkpt lat="37.9352737" lon="14.0843002"><ele>327.0</ele><time>2026-04-28T16:23:26.996Z</time></trkpt><trkpt lat="37.9351603" lon="14.0843781"><ele>330.75</ele><time>2026-04-28T16:23:27.997Z</time></trkpt><trkpt lat="37.9350509" lon="14.0844558"><ele>334.5</ele><time>2026-04-28T16:23:28.996Z</time></trkpt><trkpt lat="37.9349424" lon="14.0845327"><ele>338.25</ele><time>2026-04-28T16:23:29.997Z</time></trkpt><trkpt lat="37.9348331" lon="14.0846127"><ele>342.0</ele><time>2026-04-28T16:23:30.996Z</time></trkpt><trkpt lat="37.9347239" lon="14.0846923"><ele>342.0</ele><time>2026-04-28T16:23:31.997Z</time></trkpt><trkpt lat="37.9346104" lon="14.0847724"><ele>342.0</ele><time>2026-04-28T16:23:32.997Z</time></trkpt><trkpt lat="37.9344939" lon="14.0848524"><ele>342.0</ele><time>2026-04-28T16:23:33.997Z</time></trkpt><trkpt lat="37.9343754" lon="14.0849377"><ele>342.0</ele><time>2026-04-28T16:23:34.997Z</time></trkpt><trkpt lat="37.9341497" lon="14.0851279"><ele>344.25</ele><time>2026-04-28T16:23:36.996Z</time></trkpt><trkpt lat="37.9340484" lon="14.0852425"><ele>346.5</ele><time>2026-04-28T16:23:37.997Z</time></trkpt><trkpt lat="37.9339535" lon="14.0853623"><ele>348.75</ele><time>2026-04-28T16:23:38.997Z</time></trkpt><trkpt lat="37.9338561" lon="14.0854656"><ele>351.0</ele><time>2026-04-28T16:23:39.996Z</time></trkpt><trkpt lat="37.933755" lon="14.0855242"><ele>351.0</ele><time>2026-04-28T16:23:40.996Z</time></trkpt><trkpt lat="37.9336459" lon="14.0855316"><ele>351.0</ele><time>2026-04-28T16:23:41.997Z</time></trkpt><trkpt lat="37.9335311" lon="14.0855167"><ele>351.0</ele><time>2026-04-28T16:23:42.996Z</time></trkpt><trkpt lat="37.9334126" lon="14.0854949"><ele>351.0</ele><time>2026-04-28T16:23:43.997Z</time></trkpt><trkpt lat="37.933291" lon="14.0854864"><ele>354.5</ele><time>2026-04-28T16:23:44.996Z</time></trkpt><trkpt lat="37.9331689" lon="14.0854904"><ele>358.0</ele><time>2026-04-28T16:23:45.997Z</time></trkpt><trkpt lat="37.9330552" lon="14.085474"><ele>361.5</ele><time>2026-04-28T16:23:46.996Z</time></trkpt><trkpt lat="37.932958" lon="14.0854158"><ele>365.0</ele><time>2026-04-28T16:23:47.997Z</time></trkpt><trkpt lat="37.932873" lon="14.0853205"><ele>365.0</ele><time>2026-04-28T16:23:48.996Z</time></trkpt><trkpt lat="37.932807" lon="14.0851949"><ele>365.0</ele><time>2026-04-28T16:23:49.997Z</time></trkpt><trkpt lat="37.9327782" lon="14.0850634"><ele>365.0</ele><time>2026-04-28T16:23:50.997Z</time></trkpt><trkpt lat="37.932795" lon="14.0849415"><ele>365.0</ele><time>2026-04-28T16:23:51.997Z</time></trkpt><trkpt lat="37.9328523" lon="14.0848443"><ele>365.0</ele><time>2026-04-28T16:23:52.997Z</time></trkpt><trkpt lat="37.932949" lon="14.0847739"><ele>367.75</ele><time>2026-04-28T16:23:53.996Z</time></trkpt><trkpt lat="37.9330591" lon="14.0847191"><ele>370.5</ele><time>2026-04-28T16:23:54.997Z</time></trkpt><trkpt lat="37.9331522" lon="14.084642"><ele>373.25</ele><time>2026-04-28T16:23:55.997Z</time></trkpt><trkpt lat="37.9332159" lon="14.0845254"><ele>376.0</ele><time>2026-04-28T16:23:56.997Z</time></trkpt><trkpt lat="37.933255" lon="14.0843681"><ele>376.0</ele><time>2026-04-28T16:23:57.997Z</time></trkpt><trkpt lat="37.9332792" lon="14.0841887"><ele>376.0</ele><time>2026-04-28T16:23:58.997Z</time></trkpt><trkpt lat="37.9333046" lon="14.0839949"><ele>376.0</ele><time>2026-04-28T16:23:59.997Z</time></trkpt><trkpt lat="37.933337" lon="14.0837897"><ele>374.3333333333333</ele><time>2026-04-28T16:24:00.997Z</time></trkpt><trkpt lat="37.9333737" lon="14.0835849"><ele>372.6666666666667</ele><time>2026-04-28T16:24:01.997Z</time></trkpt><trkpt lat="37.9334064" lon="14.0833918"><ele>371.0</ele><time>2026-04-28T16:24:02.997Z</time></trkpt><trkpt lat="37.9334327" lon="14.0832119"><ele>371.0</ele><time>2026-04-28T16:24:03.997Z</time></trkpt><trkpt lat="37.9334522" lon="14.0830623"><ele>371.0</ele><time>2026-04-28T16:24:04.996Z</time></trkpt><trkpt lat="37.9334619" lon="14.0829274"><ele>371.0</ele><time>2026-04-28T16:24:05.997Z</time></trkpt><trkpt lat="37.9334688" lon="14.0828152"><ele>371.0</ele><time>2026-04-28T16:24:06.997Z</time></trkpt><trkpt lat="37.9334628" lon="14.082708"><ele>371.0</ele><time>2026-04-28T16:24:07.997Z</time></trkpt><trkpt lat="37.9334432" lon="14.0825986"><ele>371.0</ele><time>2026-04-28T16:24:08.997Z</time></trkpt><trkpt lat="37.9334173" lon="14.0824833"><ele>371.0</ele><time>2026-04-28T16:24:09.997Z</time></trkpt><trkpt lat="37.9333834" lon="14.0823759"><ele>371.0</ele><time>2026-04-28T16:24:10.997Z</time></trkpt><trkpt lat="37.9333509" lon="14.0822784"><ele>371.0</ele><time>2026-04-28T16:24:11.996Z</time></trkpt><trkpt lat="37.9333247" lon="14.0821699"><ele>371.0</ele><time>2026-04-28T16:24:12.996Z</time></trkpt><trkpt lat="37.9333086" lon="14.0820343"><ele>377.75</ele><time>2026-04-28T16:24:13.997Z</time></trkpt><trkpt lat="37.9333091" lon="14.081877"><ele>384.5</ele><time>2026-04-28T16:24:14.997Z</time></trkpt><trkpt lat="37.9333269" lon="14.0816903"><ele>391.25</ele><time>2026-04-28T16:24:15.997Z</time></trkpt><trkpt lat="37.9333498" lon="14.0815009"><ele>398.0</ele><time>2026-04-28T16:24:16.997Z</time></trkpt><trkpt lat="37.9333758" lon="14.0813222"><ele>395.25</ele><time>2026-04-28T16:24:17.997Z</time></trkpt><trkpt lat="37.9333948" lon="14.0811442"><ele>392.5</ele><time>2026-04-28T16:24:18.997Z</time></trkpt><trkpt lat="37.933411" lon="14.0809673"><ele>389.75</ele><time>2026-04-28T16:24:19.997Z</time></trkpt><trkpt lat="37.9334377" lon="14.0807868"><ele>387.0</ele><time>2026-04-28T16:24:20.997Z</time></trkpt><trkpt lat="37.9334753" lon="14.0805951"><ele>387.0</ele><time>2026-04-28T16:24:21.997Z</time></trkpt><trkpt lat="37.933522" lon="14.0803953"><ele>387.0</ele><time>2026-04-28T16:24:22.997Z</time></trkpt><trkpt lat="37.9335717" lon="14.0801912"><ele>387.0</ele><time>2026-04-28T16:24:23.997Z</time></trkpt><trkpt lat="37.9336249" lon="14.0799969"><ele>389.66666666666663</ele><time>2026-04-28T16:24:24.997Z</time></trkpt><trkpt lat="37.9336804" lon="14.079805"><ele>392.3333333333333</ele><time>2026-04-28T16:24:25.997Z</time></trkpt><trkpt lat="37.9337331" lon="14.0796145"><ele>395.0</ele><time>2026-04-28T16:24:26.997Z</time></trkpt><trkpt lat="37.9337933" lon="14.0794218"><ele>395.0</ele><time>2026-04-28T16:24:27.997Z</time></trkpt><trkpt lat="37.933854" lon="14.0792338"><ele>395.0</ele><time>2026-04-28T16:24:28.997Z</time></trkpt><trkpt lat="37.9339166" lon="14.0790488"><ele>395.0</ele><time>2026-04-28T16:24:29.997Z</time></trkpt><trkpt lat="37.933978" lon="14.0788604"><ele>397.0</ele><time>2026-04-28T16:24:30.996Z</time></trkpt><trkpt lat="37.9340408" lon="14.078669"><ele>399.0</ele><time>2026-04-28T16:24:31.996Z</time></trkpt><trkpt lat="37.9340931" lon="14.0784698"><ele>401.0</ele><time>2026-04-28T16:24:32.997Z</time></trkpt><trkpt lat="37.9341257" lon="14.0782618"><ele>403.0</ele><time>2026-04-28T16:24:33.997Z</time></trkpt><trkpt lat="37.9341437" lon="14.0780456"><ele>405.0</ele><time>2026-04-28T16:24:34.996Z</time></trkpt><trkpt lat="37.9341494" lon="14.0778241"><ele>407.0</ele><time>2026-04-28T16:24:35.997Z</time></trkpt><trkpt lat="37.9341442" lon="14.0776047"><ele>408.3333333333333</ele><time>2026-04-28T16:24:36.997Z</time></trkpt><trkpt lat="37.9341398" lon="14.0774026"><ele>409.66666666666663</ele><time>2026-04-28T16:24:37.997Z</time></trkpt><trkpt lat="37.9341423" lon="14.0772077"><ele>411.0</ele><time>2026-04-28T16:24:38.997Z</time></trkpt><trkpt lat="37.934143" lon="14.077027"><ele>411.0</ele><time>2026-04-28T16:24:39.997Z</time></trkpt><trkpt lat="37.9341479" lon="14.0768593"><ele>411.0</ele><time>2026-04-28T16:24:40.996Z</time></trkpt><trkpt lat="37.9341641" lon="14.0767005"><ele>411.0</ele><time>2026-04-28T16:24:41.997Z</time></trkpt><trkpt lat="37.9342014" lon="14.0765608"><ele>411.0</ele><time>2026-04-28T16:24:42.997Z</time></trkpt><trkpt lat="37.9342625" lon="14.0764275"><ele>410.75</ele><time>2026-04-28T16:24:43.997Z</time></trkpt><trkpt lat="37.9343512" lon="14.0762982"><ele>410.5</ele><time>2026-04-28T16:24:44.996Z</time></trkpt><trkpt lat="37.9344616" lon="14.0761729"><ele>410.25</ele><time>2026-04-28T16:24:45.997Z</time></trkpt><trkpt lat="37.9345845" lon="14.076044"><ele>410.0</ele><time>2026-04-28T16:24:46.997Z</time></trkpt><trkpt lat="37.9347093" lon="14.0759063"><ele>415.3333333333333</ele><time>2026-04-28T16:24:47.997Z</time></trkpt><trkpt lat="37.9348311" lon="14.0757567"><ele>420.66666666666663</ele><time>2026-04-28T16:24:48.997Z</time></trkpt><trkpt lat="37.9349461" lon="14.0756014"><ele>426.0</ele><time>2026-04-28T16:24:49.996Z</time></trkpt><trkpt lat="37.9350514" lon="14.075454"><ele>421.5</ele><time>2026-04-28T16:24:50.996Z</time></trkpt><trkpt lat="37.9351482" lon="14.0753127"><ele>417.0</ele><time>2026-04-28T16:24:51.997Z</time></trkpt><trkpt lat="37.9352433" lon="14.0751788"><ele>412.5</ele><time>2026-04-28T16:24:52.997Z</time></trkpt><trkpt lat="37.9353306" lon="14.0750526"><ele>408.0</ele><time>2026-04-28T16:24:53.997Z</time></trkpt><trkpt lat="37.9354016" lon="14.0749226"><ele>408.0</ele><time>2026-04-28T16:24:54.997Z</time></trkpt><trkpt lat="37.9354513" lon="14.0747723"><ele>408.0</ele><time>2026-04-28T16:24:55.997Z</time></trkpt><trkpt lat="37.9354619" lon="14.0746126"><ele>408.0</ele><time>2026-04-28T16:24:56.997Z</time></trkpt><trkpt lat="37.935438" lon="14.07446"><ele>408.0</ele><time>2026-04-28T16:24:57.996Z</time></trkpt><trkpt lat="37.9353754" lon="14.0743098"><ele>408.0</ele><time>2026-04-28T16:24:58.996Z</time></trkpt><trkpt lat="37.9352861" lon="14.0741845"><ele>408.0</ele><time>2026-04-28T16:24:59.997Z</time></trkpt><trkpt lat="37.9351822" lon="14.0740726"><ele>408.0</ele><time>2026-04-28T16:25:00.996Z</time></trkpt><trkpt lat="37.9350916" lon="14.073965"><ele>408.0</ele><time>2026-04-28T16:25:01.997Z</time></trkpt><trkpt lat="37.935033" lon="14.0738492"><ele>410.0</ele><time>2026-04-28T16:25:02.997Z</time></trkpt><trkpt lat="37.9350138" lon="14.0737159"><ele>412.0</ele><time>2026-04-28T16:25:03.997Z</time></trkpt><trkpt lat="37.935036" lon="14.0735677"><ele>414.0</ele><time>2026-04-28T16:25:04.997Z</time></trkpt><trkpt lat="37.9350884" lon="14.0734038"><ele>416.0</ele><time>2026-04-28T16:25:05.996Z</time></trkpt><trkpt lat="37.9351501" lon="14.0732347"><ele>419.25</ele><time>2026-04-28T16:25:06.997Z</time></trkpt><trkpt lat="37.9352132" lon="14.0730557"><ele>422.5</ele><time>2026-04-28T16:25:07.997Z</time></trkpt><trkpt lat="37.9352768" lon="14.0728761"><ele>425.75</ele><time>2026-04-28T16:25:08.997Z</time></trkpt><trkpt lat="37.935349" lon="14.072726"><ele>429.0</ele><time>2026-04-28T16:25:09.997Z</time></trkpt><trkpt lat="37.935452" lon="14.072623"><ele>429.0</ele><time>2026-04-28T16:25:10.997Z</time></trkpt><trkpt lat="37.9355845" lon="14.0725583"><ele>429.0</ele><time>2026-04-28T16:25:11.997Z</time></trkpt><trkpt lat="37.9357222" lon="14.0725301"><ele>429.0</ele><time>2026-04-28T16:25:12.997Z</time></trkpt><trkpt lat="37.9358531" lon="14.072509"><ele>429.0</ele><time>2026-04-28T16:25:13.997Z</time></trkpt><trkpt lat="37.9359722" lon="14.0724739"><ele>426.79999999999995</ele><time>2026-04-28T16:25:14.996Z</time></trkpt><trkpt lat="37.9360761" lon="14.0724184"><ele>424.59999999999997</ele><time>2026-04-28T16:25:15.997Z</time></trkpt><trkpt lat="37.9361717" lon="14.0723545"><ele>422.4</ele><time>2026-04-28T16:25:16.997Z</time></trkpt><trkpt lat="37.9362406" lon="14.0722837"><ele>420.2</ele><time>2026-04-28T16:25:17.996Z</time></trkpt><trkpt lat="37.9362817" lon="14.0722182"><ele>418.0</ele><time>2026-04-28T16:25:18.997Z</time></trkpt><trkpt lat="37.9363202" lon="14.0720583"><ele>418.0</ele><time>2026-04-28T16:25:20.997Z</time></trkpt><trkpt lat="37.9363248" lon="14.0719388"><ele>418.0</ele><time>2026-04-28T16:25:21.997Z</time></trkpt><trkpt lat="37.9363192" lon="14.0718094"><ele>418.0</ele><time>2026-04-28T16:25:22.997Z</time></trkpt><trkpt lat="37.9363015" lon="14.0716788"><ele>418.0</ele><time>2026-04-28T16:25:23.996Z</time></trkpt><trkpt lat="37.9362833" lon="14.0715546"><ele>418.0</ele><time>2026-04-28T16:25:24.997Z</time></trkpt><trkpt lat="37.9362791" lon="14.0714394"><ele>421.0</ele><time>2026-04-28T16:25:25.997Z</time></trkpt><trkpt lat="37.936296" lon="14.0713239"><ele>424.0</ele><time>2026-04-28T16:25:26.997Z</time></trkpt><trkpt lat="37.9363366" lon="14.0711986"><ele>427.0</ele><time>2026-04-28T16:25:27.997Z</time></trkpt><trkpt lat="37.9363871" lon="14.0710554"><ele>430.0</ele><time>2026-04-28T16:25:28.997Z</time></trkpt><trkpt lat="37.9364401" lon="14.0709077"><ele>432.5</ele><time>2026-04-28T16:25:29.997Z</time></trkpt><trkpt lat="37.9364993" lon="14.0707514"><ele>435.0</ele><time>2026-04-28T16:25:30.997Z</time></trkpt><trkpt lat="37.9365596" lon="14.0705809"><ele>437.5</ele><time>2026-04-28T16:25:31.997Z</time></trkpt><trkpt lat="37.9366164" lon="14.0704024"><ele>440.0</ele><time>2026-04-28T16:25:32.997Z</time></trkpt><trkpt lat="37.9366699" lon="14.0702209"><ele>441.3333333333333</ele><time>2026-04-28T16:25:33.997Z</time></trkpt><trkpt lat="37.9367234" lon="14.0700381"><ele>442.66666666666663</ele><time>2026-04-28T16:25:34.996Z</time></trkpt><trkpt lat="37.9367833" lon="14.0698515"><ele>444.0</ele><time>2026-04-28T16:25:35.997Z</time></trkpt><trkpt lat="37.9368517" lon="14.0696609"><ele>444.0</ele><time>2026-04-28T16:25:36.996Z</time></trkpt><trkpt lat="37.936923" lon="14.069486"><ele>444.0</ele><time>2026-04-28T16:25:37.996Z</time></trkpt><trkpt lat="37.9369872" lon="14.0693332"><ele>444.0</ele><time>2026-04-28T16:25:38.997Z</time></trkpt><trkpt lat="37.9370532" lon="14.0692038"><ele>444.0</ele><time>2026-04-28T16:25:39.997Z</time></trkpt><trkpt lat="37.937134" lon="14.0691094"><ele>444.0</ele><time>2026-04-28T16:25:40.996Z</time></trkpt><trkpt lat="37.9372286" lon="14.0690753"><ele>444.0</ele><time>2026-04-28T16:25:41.997Z</time></trkpt><trkpt lat="37.9373343" lon="14.0690952"><ele>444.0</ele><time>2026-04-28T16:25:42.997Z</time></trkpt><trkpt lat="37.9374435" lon="14.069155"><ele>444.0</ele><time>2026-04-28T16:25:43.997Z</time></trkpt><trkpt lat="37.9375361" lon="14.0692463"><ele>444.0</ele><time>2026-04-28T16:25:44.997Z</time></trkpt><trkpt lat="37.9376221" lon="14.0693463"><ele>444.2</ele><time>2026-04-28T16:25:45.997Z</time></trkpt><trkpt lat="37.9377131" lon="14.0694301"><ele>444.4</ele><time>2026-04-28T16:25:46.997Z</time></trkpt><trkpt lat="37.937811" lon="14.0694871"><ele>444.6</ele><time>2026-04-28T16:25:47.996Z</time></trkpt><trkpt lat="37.9379194" lon="14.0695008"><ele>444.8</ele><time>2026-04-28T16:25:48.997Z</time></trkpt><trkpt lat="37.9380344" lon="14.0694827"><ele>445.0</ele><time>2026-04-28T16:25:49.997Z</time></trkpt><trkpt lat="37.9381496" lon="14.0694321"><ele>445.0</ele><time>2026-04-28T16:25:50.997Z</time></trkpt><trkpt lat="37.9382633" lon="14.0693542"><ele>445.0</ele><time>2026-04-28T16:25:51.997Z</time></trkpt><trkpt lat="37.9383664" lon="14.0692467"><ele>445.0</ele><time>2026-04-28T16:25:52.996Z</time></trkpt><trkpt lat="37.9384671" lon="14.0691188"><ele>445.0</ele><time>2026-04-28T16:25:53.997Z</time></trkpt><trkpt lat="37.938569" lon="14.0689821"><ele>443.0</ele><time>2026-04-28T16:25:54.997Z</time></trkpt><trkpt lat="37.9386692" lon="14.0688486"><ele>441.0</ele><time>2026-04-28T16:25:55.997Z</time></trkpt><trkpt lat="37.938761" lon="14.0687277"><ele>439.0</ele><time>2026-04-28T16:25:56.997Z</time></trkpt><trkpt lat="37.9388353" lon="14.0686189"><ele>437.0</ele><time>2026-04-28T16:25:57.997Z</time></trkpt><trkpt lat="37.938887" lon="14.0685004"><ele>437.0</ele><time>2026-04-28T16:25:58.997Z</time></trkpt><trkpt lat="37.9389139" lon="14.068367"><ele>437.00000000000006</ele><time>2026-04-28T16:25:59.997Z</time></trkpt><trkpt lat="37.9389167" lon="14.0682393"><ele>437.00000000000006</ele><time>2026-04-28T16:26:00.997Z</time></trkpt><trkpt lat="37.9389146" lon="14.068114"><ele>437.0</ele><time>2026-04-28T16:26:01.997Z</time></trkpt><trkpt lat="37.9389173" lon="14.0679852"><ele>437.0</ele><time>2026-04-28T16:26:02.997Z</time></trkpt><trkpt lat="37.938933" lon="14.067852"><ele>439.25</ele><time>2026-04-28T16:26:03.997Z</time></trkpt><trkpt lat="37.9389689" lon="14.0677149"><ele>441.5</ele><time>2026-04-28T16:26:04.997Z</time></trkpt><trkpt lat="37.9390263" lon="14.0675673"><ele>443.75</ele><time>2026-04-28T16:26:05.997Z</time></trkpt><trkpt lat="37.9390933" lon="14.0674097"><ele>446.0</ele><time>2026-04-28T16:26:06.997Z</time></trkpt><trkpt lat="37.939159" lon="14.067253"><ele>447.25</ele><time>2026-04-28T16:26:07.997Z</time></trkpt><trkpt lat="37.9392195" lon="14.0670973"><ele>448.5</ele><time>2026-04-28T16:26:08.997Z</time></trkpt><trkpt lat="37.9392753" lon="14.066944"><ele>449.75</ele><time>2026-04-28T16:26:09.997Z</time></trkpt><trkpt lat="37.9393311" lon="14.0667962"><ele>451.0</ele><time>2026-04-28T16:26:10.997Z</time></trkpt><trkpt lat="37.939388" lon="14.0666612"><ele>456.0</ele><time>2026-04-28T16:26:11.996Z</time></trkpt><trkpt lat="37.9394562" lon="14.0665416"><ele>461.0</ele><time>2026-04-28T16:26:12.996Z</time></trkpt><trkpt lat="37.9395463" lon="14.0664512"><ele>466.0</ele><time>2026-04-28T16:26:13.997Z</time></trkpt><trkpt lat="37.9396547" lon="14.0664089"><ele>471.0</ele><time>2026-04-28T16:26:14.997Z</time></trkpt><trkpt lat="37.9397828" lon="14.0664144"><ele>471.0</ele><time>2026-04-28T16:26:15.997Z</time></trkpt><trkpt lat="37.9399305" lon="14.0664375"><ele>471.0</ele><time>2026-04-28T16:26:16.997Z</time></trkpt><trkpt lat="37.940076" lon="14.0664707"><ele>471.0</ele><time>2026-04-28T16:26:17.997Z</time></trkpt><trkpt lat="37.9402046" lon="14.0664915"><ele>471.0</ele><time>2026-04-28T16:26:18.996Z</time></trkpt><trkpt lat="37.9403168" lon="14.0664879"><ele>468.6</ele><time>2026-04-28T16:26:19.997Z</time></trkpt><trkpt lat="37.9404142" lon="14.0664547"><ele>466.20000000000005</ele><time>2026-04-28T16:26:20.997Z</time></trkpt><trkpt lat="37.9404922" lon="14.0663849"><ele>463.79999999999995</ele><time>2026-04-28T16:26:21.996Z</time></trkpt><trkpt lat="37.9405623" lon="14.0662802"><ele>461.4</ele><time>2026-04-28T16:26:22.996Z</time></trkpt><trkpt lat="37.9406263" lon="14.0661512"><ele>459.0</ele><time>2026-04-28T16:26:23.997Z</time></trkpt><trkpt lat="37.9406927" lon="14.0660133"><ele>459.0</ele><time>2026-04-28T16:26:24.996Z</time></trkpt><trkpt lat="37.940771" lon="14.0658803"><ele>459.0</ele><time>2026-04-28T16:26:25.997Z</time></trkpt><trkpt lat="37.9408624" lon="14.0657533"><ele>459.0</ele><time>2026-04-28T16:26:26.997Z</time></trkpt><trkpt lat="37.940968" lon="14.0656353"><ele>459.0</ele><time>2026-04-28T16:26:27.997Z</time></trkpt><trkpt lat="37.9410809" lon="14.065509"><ele>459.0</ele><time>2026-04-28T16:26:28.997Z</time></trkpt><trkpt lat="37.9411967" lon="14.0653761"><ele>459.0</ele><time>2026-04-28T16:26:29.997Z</time></trkpt><trkpt lat="37.9413155" lon="14.0652398"><ele>459.0</ele><time>2026-04-28T16:26:30.997Z</time></trkpt><trkpt lat="37.9414319" lon="14.0651059"><ele>459.0</ele><time>2026-04-28T16:26:31.997Z</time></trkpt><trkpt lat="37.9415405" lon="14.0649798"><ele>459.0</ele><time>2026-04-28T16:26:32.996Z</time></trkpt><trkpt lat="37.9416409" lon="14.0648624"><ele>459.0</ele><time>2026-04-28T16:26:33.997Z</time></trkpt><trkpt lat="37.9417346" lon="14.0647528"><ele>459.0</ele><time>2026-04-28T16:26:34.996Z</time></trkpt><trkpt lat="37.9418199" lon="14.0646554"><ele>458.0</ele><time>2026-04-28T16:26:35.997Z</time></trkpt><trkpt lat="37.9418863" lon="14.064555"><ele>457.0</ele><time>2026-04-28T16:26:36.997Z</time></trkpt><trkpt lat="37.9419293" lon="14.0644508"><ele>456.0</ele><time>2026-04-28T16:26:37.997Z</time></trkpt><trkpt lat="37.941955" lon="14.064332"><ele>455.0</ele><time>2026-04-28T16:26:38.997Z</time></trkpt><trkpt lat="37.941985" lon="14.0641975"><ele>454.0</ele><time>2026-04-28T16:26:39.996Z</time></trkpt><trkpt lat="37.9420146" lon="14.0640463"><ele>453.75</ele><time>2026-04-28T16:26:40.997Z</time></trkpt><trkpt lat="37.9420345" lon="14.0638858"><ele>453.5</ele><time>2026-04-28T16:26:41.997Z</time></trkpt><trkpt lat="37.9420358" lon="14.0637217"><ele>453.25</ele><time>2026-04-28T16:26:42.997Z</time></trkpt><trkpt lat="37.942023" lon="14.0635572"><ele>453.0</ele><time>2026-04-28T16:26:43.997Z</time></trkpt><trkpt lat="37.9420004" lon="14.0633893"><ele>452.25</ele><time>2026-04-28T16:26:44.997Z</time></trkpt><trkpt lat="37.9419697" lon="14.0632183"><ele>451.5</ele><time>2026-04-28T16:26:45.996Z</time></trkpt><trkpt lat="37.9419387" lon="14.0630464"><ele>450.75</ele><time>2026-04-28T16:26:46.996Z</time></trkpt><trkpt lat="37.9419073" lon="14.0628818"><ele>450.0</ele><time>2026-04-28T16:26:47.997Z</time></trkpt><trkpt lat="37.9418879" lon="14.0627212"><ele>450.0</ele><time>2026-04-28T16:26:48.997Z</time></trkpt><trkpt lat="37.9418866" lon="14.0625654"><ele>450.0</ele><time>2026-04-28T16:26:49.997Z</time></trkpt><trkpt lat="37.9419159" lon="14.0624251"><ele>450.0</ele><time>2026-04-28T16:26:50.997Z</time></trkpt><trkpt lat="37.941979" lon="14.0623"><ele>450.0</ele><time>2026-04-28T16:26:51.997Z</time></trkpt><trkpt lat="37.9420749" lon="14.0621942"><ele>452.25</ele><time>2026-04-28T16:26:52.997Z</time></trkpt><trkpt lat="37.9421937" lon="14.0621066"><ele>454.5</ele><time>2026-04-28T16:26:53.997Z</time></trkpt><trkpt lat="37.9423132" lon="14.0620274"><ele>456.75</ele><time>2026-04-28T16:26:54.997Z</time></trkpt><trkpt lat="37.9424122" lon="14.0619151"><ele>459.0</ele><time>2026-04-28T16:26:55.997Z</time></trkpt><trkpt lat="37.9424843" lon="14.0617651"><ele>461.0</ele><time>2026-04-28T16:26:56.997Z</time></trkpt><trkpt lat="37.9425466" lon="14.0615864"><ele>463.0</ele><time>2026-04-28T16:26:57.996Z</time></trkpt><trkpt lat="37.9426037" lon="14.0613878"><ele>465.0</ele><time>2026-04-28T16:26:58.997Z</time></trkpt><trkpt lat="37.9426641" lon="14.0611881"><ele>459.0</ele><time>2026-04-28T16:26:59.996Z</time></trkpt><trkpt lat="37.9427309" lon="14.0609915"><ele>453.0</ele><time>2026-04-28T16:27:00.997Z</time></trkpt><trkpt lat="37.9428026" lon="14.0608115"><ele>447.0</ele><time>2026-04-28T16:27:01.997Z</time></trkpt><trkpt lat="37.9428781" lon="14.0606491"><ele>447.0</ele><time>2026-04-28T16:27:02.997Z</time></trkpt><trkpt lat="37.9429539" lon="14.0604985"><ele>447.0</ele><time>2026-04-28T16:27:03.996Z</time></trkpt><trkpt lat="37.9430204" lon="14.0603618"><ele>447.0</ele><time>2026-04-28T16:27:04.997Z</time></trkpt><trkpt lat="37.943075" lon="14.0602269"><ele>447.0</ele><time>2026-04-28T16:27:05.997Z</time></trkpt><trkpt lat="37.9431057" lon="14.0600863"><ele>446.0</ele><time>2026-04-28T16:27:06.997Z</time></trkpt><trkpt lat="37.9431103" lon="14.0599407"><ele>445.0</ele><time>2026-04-28T16:27:07.997Z</time></trkpt><trkpt lat="37.9430876" lon="14.0597906"><ele>444.0</ele><time>2026-04-28T16:27:08.997Z</time></trkpt><trkpt lat="37.9430482" lon="14.059627"><ele>443.0</ele><time>2026-04-28T16:27:09.997Z</time></trkpt><trkpt lat="37.9430006" lon="14.0594502"><ele>443.0</ele><time>2026-04-28T16:27:10.997Z</time></trkpt><trkpt lat="37.9429458" lon="14.0592872"><ele>443.0</ele><time>2026-04-28T16:27:11.997Z</time></trkpt><trkpt lat="37.9428726" lon="14.0591547"><ele>443.0</ele><time>2026-04-28T16:27:12.997Z</time></trkpt><trkpt lat="37.942784" lon="14.0590652"><ele>443.0</ele><time>2026-04-28T16:27:13.997Z</time></trkpt><trkpt lat="37.9426846" lon="14.0590203"><ele>443.5</ele><time>2026-04-28T16:27:14.997Z</time></trkpt><trkpt lat="37.9425696" lon="14.0590006"><ele>444.0</ele><time>2026-04-28T16:27:15.997Z</time></trkpt><trkpt lat="37.9424448" lon="14.0589884"><ele>444.5</ele><time>2026-04-28T16:27:16.997Z</time></trkpt><trkpt lat="37.9423189" lon="14.05897"><ele>445.0</ele><time>2026-04-28T16:27:17.997Z</time></trkpt><trkpt lat="37.9421944" lon="14.0589475"><ele>445.0</ele><time>2026-04-28T16:27:18.997Z</time></trkpt><trkpt lat="37.9420825" lon="14.0589265"><ele>445.0</ele><time>2026-04-28T16:27:19.997Z</time></trkpt><trkpt lat="37.9419876" lon="14.0588916"><ele>445.0</ele><time>2026-04-28T16:27:20.997Z</time></trkpt><trkpt lat="37.9419115" lon="14.0588349"><ele>445.0</ele><time>2026-04-28T16:27:21.996Z</time></trkpt><trkpt lat="37.9418689" lon="14.0587546"><ele>445.0</ele><time>2026-04-28T16:27:22.997Z</time></trkpt><trkpt lat="37.9418541" lon="14.0586637"><ele>445.00000000000006</ele><time>2026-04-28T16:27:23.996Z</time></trkpt><trkpt lat="37.9418561" lon="14.058557"><ele>445.0</ele><time>2026-04-28T16:27:24.997Z</time></trkpt><trkpt lat="37.9418786" lon="14.058453"><ele>445.0</ele><time>2026-04-28T16:27:25.997Z</time></trkpt><trkpt lat="37.941919" lon="14.0583498"><ele>445.0</ele><time>2026-04-28T16:27:26.997Z</time></trkpt><trkpt lat="37.9419589" lon="14.0582469"><ele>445.00000000000006</ele><time>2026-04-28T16:27:27.997Z</time></trkpt><trkpt lat="37.9419956" lon="14.0581483"><ele>445.0</ele><time>2026-04-28T16:27:28.997Z</time></trkpt><trkpt lat="37.9420292" lon="14.0580399"><ele>444.4</ele><time>2026-04-28T16:27:29.997Z</time></trkpt><trkpt lat="37.9420667" lon="14.0579212"><ele>443.8</ele><time>2026-04-28T16:27:30.996Z</time></trkpt><trkpt lat="37.9421073" lon="14.0578012"><ele>443.20000000000005</ele><time>2026-04-28T16:27:31.997Z</time></trkpt><trkpt lat="37.9421495" lon="14.0576899"><ele>442.6</ele><time>2026-04-28T16:27:32.997Z</time></trkpt><trkpt lat="37.9421915" lon="14.0575796"><ele>442.0</ele><time>2026-04-28T16:27:33.997Z</time></trkpt><trkpt lat="37.9422284" lon="14.0574664"><ele>442.20000000000005</ele><time>2026-04-28T16:27:34.997Z</time></trkpt><trkpt lat="37.9422654" lon="14.0573505"><ele>442.40000000000003</ele><time>2026-04-28T16:27:35.997Z</time></trkpt><trkpt lat="37.9423018" lon="14.0572317"><ele>442.59999999999997</ele><time>2026-04-28T16:27:36.997Z</time></trkpt><trkpt lat="37.9423405" lon="14.0571132"><ele>442.79999999999995</ele><time>2026-04-28T16:27:37.997Z</time></trkpt><trkpt lat="37.9423703" lon="14.0569918"><ele>443.0</ele><time>2026-04-28T16:27:38.997Z</time></trkpt><trkpt lat="37.9423896" lon="14.0568654"><ele>443.0</ele><time>2026-04-28T16:27:39.997Z</time></trkpt><trkpt lat="37.9424053" lon="14.0567412"><ele>442.99999999999994</ele><time>2026-04-28T16:27:40.997Z</time></trkpt><trkpt lat="37.9424104" lon="14.0566096"><ele>442.99999999999994</ele><time>2026-04-28T16:27:41.997Z</time></trkpt><trkpt lat="37.942404" lon="14.0564673"><ele>443.0</ele><time>2026-04-28T16:27:42.997Z</time></trkpt><trkpt lat="37.9423875" lon="14.0563191"><ele>443.0</ele><time>2026-04-28T16:27:43.996Z</time></trkpt><trkpt lat="37.9423708" lon="14.0561676"><ele>442.0</ele><time>2026-04-28T16:27:44.997Z</time></trkpt><trkpt lat="37.9423567" lon="14.0560074"><ele>441.0</ele><time>2026-04-28T16:27:45.997Z</time></trkpt><trkpt lat="37.9423338" lon="14.0558475"><ele>440.0</ele><time>2026-04-28T16:27:46.997Z</time></trkpt><trkpt lat="37.9422976" lon="14.0556946"><ele>439.0</ele><time>2026-04-28T16:27:47.997Z</time></trkpt><trkpt lat="37.9422449" lon="14.0555565"><ele>437.75</ele><time>2026-04-28T16:27:48.997Z</time></trkpt><trkpt lat="37.9421774" lon="14.0554259"><ele>436.5</ele><time>2026-04-28T16:27:49.997Z</time></trkpt><trkpt lat="37.9421154" lon="14.0552871"><ele>435.25</ele><time>2026-04-28T16:27:50.997Z</time></trkpt><trkpt lat="37.942072" lon="14.0551382"><ele>434.0</ele><time>2026-04-28T16:27:51.997Z</time></trkpt><trkpt lat="37.942064" lon="14.0549917"><ele>434.75</ele><time>2026-04-28T16:27:52.997Z</time></trkpt><trkpt lat="37.9420833" lon="14.0548341"><ele>435.5</ele><time>2026-04-28T16:27:53.997Z</time></trkpt><trkpt lat="37.9421204" lon="14.054681"><ele>436.25</ele><time>2026-04-28T16:27:54.997Z</time></trkpt><trkpt lat="37.9421385" lon="14.0545298"><ele>437.0</ele><time>2026-04-28T16:27:55.996Z</time></trkpt><trkpt lat="37.9421286" lon="14.054398"><ele>437.0</ele><time>2026-04-28T16:27:56.997Z</time></trkpt><trkpt lat="37.9420911" lon="14.0542904"><ele>437.0</ele><time>2026-04-28T16:27:57.997Z</time></trkpt><trkpt lat="37.9420131" lon="14.0542012"><ele>437.0</ele><time>2026-04-28T16:27:59.997Z</time></trkpt><trkpt lat="37.9418795" lon="14.0541395"><ele>437.0</ele><time>2026-04-28T16:28:01.997Z</time></trkpt><trkpt lat="37.941766" lon="14.0540924"><ele>435.5</ele><time>2026-04-28T16:28:02.997Z</time></trkpt><trkpt lat="37.9416514" lon="14.0540383"><ele>434.0</ele><time>2026-04-28T16:28:03.997Z</time></trkpt><trkpt lat="37.9415346" lon="14.0539864"><ele>432.5</ele><time>2026-04-28T16:28:04.997Z</time></trkpt><trkpt lat="37.9414232" lon="14.0539366"><ele>431.0</ele><time>2026-04-28T16:28:05.997Z</time></trkpt><trkpt lat="37.941323" lon="14.0538774"><ele>431.0</ele><time>2026-04-28T16:28:06.997Z</time></trkpt><trkpt lat="37.9412307" lon="14.0538077"><ele>431.0</ele><time>2026-04-28T16:28:07.996Z</time></trkpt><trkpt lat="37.9411427" lon="14.0537094"><ele>431.0</ele><time>2026-04-28T16:28:08.996Z</time></trkpt><trkpt lat="37.9410624" lon="14.053606"><ele>431.0</ele><time>2026-04-28T16:28:09.997Z</time></trkpt><trkpt lat="37.9409858" lon="14.0535055"><ele>431.0</ele><time>2026-04-28T16:28:10.997Z</time></trkpt><trkpt lat="37.940907" lon="14.0534132"><ele>433.25</ele><time>2026-04-28T16:28:11.997Z</time></trkpt><trkpt lat="37.940816" lon="14.0533299"><ele>435.5</ele><time>2026-04-28T16:28:12.996Z</time></trkpt><trkpt lat="37.9407117" lon="14.0532613"><ele>437.75</ele><time>2026-04-28T16:28:13.997Z</time></trkpt><trkpt lat="37.9405879" lon="14.0532241"><ele>440.0</ele><time>2026-04-28T16:28:14.996Z</time></trkpt><trkpt lat="37.9404582" lon="14.0532165"><ele>441.5</ele><time>2026-04-28T16:28:15.997Z</time></trkpt><trkpt lat="37.9403242" lon="14.0532336"><ele>443.0</ele><time>2026-04-28T16:28:16.996Z</time></trkpt><trkpt lat="37.9401948" lon="14.0532614"><ele>444.5</ele><time>2026-04-28T16:28:17.997Z</time></trkpt><trkpt lat="37.9400747" lon="14.0532814"><ele>446.0</ele><time>2026-04-28T16:28:18.997Z</time></trkpt><trkpt lat="37.9399651" lon="14.0533006"><ele>446.0</ele><time>2026-04-28T16:28:19.997Z</time></trkpt><trkpt lat="37.9398672" lon="14.0532979"><ele>446.0</ele><time>2026-04-28T16:28:20.997Z</time></trkpt><trkpt lat="37.9397758" lon="14.0532618"><ele>446.0</ele><time>2026-04-28T16:28:21.996Z</time></trkpt><trkpt lat="37.9397122" lon="14.0531894"><ele>446.0</ele><time>2026-04-28T16:28:22.997Z</time></trkpt><trkpt lat="37.939665" lon="14.0530845"><ele>446.0</ele><time>2026-04-28T16:28:23.997Z</time></trkpt><trkpt lat="37.9396444" lon="14.052966"><ele>441.75</ele><time>2026-04-28T16:28:24.997Z</time></trkpt><trkpt lat="37.9396364" lon="14.0528383"><ele>437.5</ele><time>2026-04-28T16:28:25.996Z</time></trkpt><trkpt lat="37.9396205" lon="14.0526834"><ele>433.25</ele><time>2026-04-28T16:28:26.997Z</time></trkpt><trkpt lat="37.9396059" lon="14.0525161"><ele>429.0</ele><time>2026-04-28T16:28:27.997Z</time></trkpt><trkpt lat="37.9395889" lon="14.0523478"><ele>427.75</ele><time>2026-04-28T16:28:28.996Z</time></trkpt><trkpt lat="37.9395761" lon="14.0521828"><ele>426.5</ele><time>2026-04-28T16:28:29.997Z</time></trkpt><trkpt lat="37.9395689" lon="14.0520191"><ele>425.25</ele><time>2026-04-28T16:28:30.997Z</time></trkpt><trkpt lat="37.9395891" lon="14.0518538"><ele>424.0</ele><time>2026-04-28T16:28:31.997Z</time></trkpt><trkpt lat="37.9396362" lon="14.0516805"><ele>426.0</ele><time>2026-04-28T16:28:32.997Z</time></trkpt><trkpt lat="37.9397061" lon="14.051486"><ele>428.0</ele><time>2026-04-28T16:28:33.996Z</time></trkpt><trkpt lat="37.9397727" lon="14.0512734"><ele>430.0</ele><time>2026-04-28T16:28:34.997Z</time></trkpt><trkpt lat="37.9398406" lon="14.0510714"><ele>430.0</ele><time>2026-04-28T16:28:35.996Z</time></trkpt><trkpt lat="37.9399087" lon="14.0508875"><ele>430.0</ele><time>2026-04-28T16:28:36.997Z</time></trkpt><trkpt lat="37.9399734" lon="14.0507251"><ele>430.0</ele><time>2026-04-28T16:28:37.997Z</time></trkpt><trkpt lat="37.9400371" lon="14.0505954"><ele>430.0</ele><time>2026-04-28T16:28:38.997Z</time></trkpt><trkpt lat="37.9401136" lon="14.0505009"><ele>427.83333333333337</ele><time>2026-04-28T16:28:39.997Z</time></trkpt><trkpt lat="37.9401805" lon="14.0504352"><ele>425.6666666666667</ele><time>2026-04-28T16:28:40.996Z</time></trkpt><trkpt lat="37.9402464" lon="14.0503897"><ele>423.5</ele><time>2026-04-28T16:28:41.997Z</time></trkpt><trkpt lat="37.940319" lon="14.0503556"><ele>421.33333333333337</ele><time>2026-04-28T16:28:42.997Z</time></trkpt><trkpt lat="37.9404066" lon="14.0503169"><ele>419.1666666666667</ele><time>2026-04-28T16:28:43.996Z</time></trkpt><trkpt lat="37.9405059" lon="14.0502643"><ele>417.0</ele><time>2026-04-28T16:28:44.996Z</time></trkpt><trkpt lat="37.9405917" lon="14.0501759"><ele>417.0</ele><time>2026-04-28T16:28:45.997Z</time></trkpt><trkpt lat="37.9406576" lon="14.0500718"><ele>417.0</ele><time>2026-04-28T16:28:46.997Z</time></trkpt><trkpt lat="37.9407109" lon="14.0499421"><ele>417.0</ele><time>2026-04-28T16:28:47.997Z</time></trkpt><trkpt lat="37.9407456" lon="14.0498002"><ele>417.0</ele><time>2026-04-28T16:28:48.997Z</time></trkpt><trkpt lat="37.9407663" lon="14.0496608"><ele>417.8</ele><time>2026-04-28T16:28:49.997Z</time></trkpt><trkpt lat="37.9407845" lon="14.0495256"><ele>418.6</ele><time>2026-04-28T16:28:50.997Z</time></trkpt><trkpt lat="37.9408045" lon="14.0493962"><ele>419.40000000000003</ele><time>2026-04-28T16:28:51.997Z</time></trkpt><trkpt lat="37.940825" lon="14.049271"><ele>420.20000000000005</ele><time>2026-04-28T16:28:52.996Z</time></trkpt><trkpt lat="37.9408462" lon="14.049153"><ele>421.0</ele><time>2026-04-28T16:28:53.997Z</time></trkpt><trkpt lat="37.9408656" lon="14.0490449"><ele>419.6666666666667</ele><time>2026-04-28T16:28:54.997Z</time></trkpt><trkpt lat="37.9408787" lon="14.0489374"><ele>418.33333333333337</ele><time>2026-04-28T16:28:55.997Z</time></trkpt><trkpt lat="37.9408826" lon="14.0488379"><ele>417.0</ele><time>2026-04-28T16:28:56.997Z</time></trkpt><trkpt lat="37.9408726" lon="14.0487396"><ele>415.66666666666663</ele><time>2026-04-28T16:28:57.996Z</time></trkpt><trkpt lat="37.9408458" lon="14.0486368"><ele>414.3333333333333</ele><time>2026-04-28T16:28:58.997Z</time></trkpt><trkpt lat="37.9407943" lon="14.0485229"><ele>413.0</ele><time>2026-04-28T16:28:59.996Z</time></trkpt><trkpt lat="37.9407461" lon="14.0484109"><ele>413.0</ele><time>2026-04-28T16:29:00.997Z</time></trkpt><trkpt lat="37.9406952" lon="14.0483006"><ele>413.0</ele><time>2026-04-28T16:29:01.997Z</time></trkpt><trkpt lat="37.9406444" lon="14.0481864"><ele>413.0</ele><time>2026-04-28T16:29:02.996Z</time></trkpt><trkpt lat="37.9405919" lon="14.0480695"><ele>413.0</ele><time>2026-04-28T16:29:03.997Z</time></trkpt><trkpt lat="37.9405489" lon="14.0479455"><ele>413.0</ele><time>2026-04-28T16:29:04.997Z</time></trkpt><trkpt lat="37.9405267" lon="14.0478301"><ele>412.79999999999995</ele><time>2026-04-28T16:29:05.997Z</time></trkpt><trkpt lat="37.9405302" lon="14.0477339"><ele>412.6</ele><time>2026-04-28T16:29:06.996Z</time></trkpt><trkpt lat="37.9405679" lon="14.0476267"><ele>412.4</ele><time>2026-04-28T16:29:07.997Z</time></trkpt><trkpt lat="37.9406328" lon="14.0474982"><ele>412.20000000000005</ele><time>2026-04-28T16:29:08.997Z</time></trkpt><trkpt lat="37.9407123" lon="14.0473587"><ele>412.0</ele><time>2026-04-28T16:29:09.997Z</time></trkpt><trkpt lat="37.9407979" lon="14.0472022"><ele>409.6666666666667</ele><time>2026-04-28T16:29:10.997Z</time></trkpt><trkpt lat="37.9408839" lon="14.0470459"><ele>407.33333333333337</ele><time>2026-04-28T16:29:11.996Z</time></trkpt><trkpt lat="37.9409945" lon="14.0468973"><ele>405.0</ele><time>2026-04-28T16:29:12.996Z</time></trkpt><trkpt lat="37.9411298" lon="14.0467638"><ele>405.0</ele><time>2026-04-28T16:29:13.997Z</time></trkpt><trkpt lat="37.9412711" lon="14.0466482"><ele>405.0</ele><time>2026-04-28T16:29:14.997Z</time></trkpt><trkpt lat="37.9414097" lon="14.0465407"><ele>405.0</ele><time>2026-04-28T16:29:15.997Z</time></trkpt><trkpt lat="37.9415389" lon="14.046444"><ele>402.5</ele><time>2026-04-28T16:29:16.997Z</time></trkpt><trkpt lat="37.9416516" lon="14.0463568"><ele>400.0</ele><time>2026-04-28T16:29:17.997Z</time></trkpt><trkpt lat="37.9417504" lon="14.0462669"><ele>397.5</ele><time>2026-04-28T16:29:18.997Z</time></trkpt><trkpt lat="37.9418183" lon="14.0461511"><ele>395.0</ele><time>2026-04-28T16:29:19.997Z</time></trkpt><trkpt lat="37.9418455" lon="14.0460271"><ele>395.0</ele><time>2026-04-28T16:29:20.997Z</time></trkpt><trkpt lat="37.9418414" lon="14.0458755"><ele>395.0</ele><time>2026-04-28T16:29:21.997Z</time></trkpt><trkpt lat="37.941822" lon="14.0457027"><ele>395.0</ele><time>2026-04-28T16:29:22.997Z</time></trkpt><trkpt lat="37.9418076" lon="14.0455321"><ele>395.0</ele><time>2026-04-28T16:29:23.997Z</time></trkpt><trkpt lat="37.941809" lon="14.0453766"><ele>396.75</ele><time>2026-04-28T16:29:24.997Z</time></trkpt><trkpt lat="37.9418409" lon="14.0452114"><ele>398.5</ele><time>2026-04-28T16:29:25.997Z</time></trkpt><trkpt lat="37.9418979" lon="14.0450408"><ele>400.25</ele><time>2026-04-28T16:29:26.997Z</time></trkpt><trkpt lat="37.9419723" lon="14.0448741"><ele>402.0</ele><time>2026-04-28T16:29:27.996Z</time></trkpt><trkpt lat="37.9420589" lon="14.0447224"><ele>406.25</ele><time>2026-04-28T16:29:28.997Z</time></trkpt><trkpt lat="37.9421499" lon="14.0445792"><ele>410.5</ele><time>2026-04-28T16:29:29.997Z</time></trkpt><trkpt lat="37.9422459" lon="14.0444468"><ele>414.75</ele><time>2026-04-28T16:29:30.997Z</time></trkpt><trkpt lat="37.942332" lon="14.0443283"><ele>419.0</ele><time>2026-04-28T16:29:31.997Z</time></trkpt><trkpt lat="37.9424108" lon="14.0442119"><ele>422.0</ele><time>2026-04-28T16:29:32.997Z</time></trkpt><trkpt lat="37.9424925" lon="14.0440856"><ele>425.0</ele><time>2026-04-28T16:29:33.996Z</time></trkpt><trkpt lat="37.9425845" lon="14.0439473"><ele>428.0</ele><time>2026-04-28T16:29:34.997Z</time></trkpt><trkpt lat="37.9426847" lon="14.0438087"><ele>431.0</ele><time>2026-04-28T16:29:35.997Z</time></trkpt><trkpt lat="37.9427754" lon="14.0436872"><ele>428.16666666666663</ele><time>2026-04-28T16:29:36.997Z</time></trkpt><trkpt lat="37.942849" lon="14.0435827"><ele>425.3333333333333</ele><time>2026-04-28T16:29:37.997Z</time></trkpt><trkpt lat="37.9429089" lon="14.0434919"><ele>422.5</ele><time>2026-04-28T16:29:38.997Z</time></trkpt><trkpt lat="37.9429421" lon="14.0434044"><ele>419.66666666666663</ele><time>2026-04-28T16:29:39.997Z</time></trkpt><trkpt lat="37.9429497" lon="14.0433017"><ele>416.8333333333333</ele><time>2026-04-28T16:29:40.997Z</time></trkpt><trkpt lat="37.942931" lon="14.0431938"><ele>414.0</ele><time>2026-04-28T16:29:41.997Z</time></trkpt><trkpt lat="37.9428829" lon="14.0430816"><ele>414.0</ele><time>2026-04-28T16:29:42.997Z</time></trkpt><trkpt lat="37.9428068" lon="14.0429625"><ele>414.0</ele><time>2026-04-28T16:29:43.997Z</time></trkpt><trkpt lat="37.9427194" lon="14.0428479"><ele>414.0</ele><time>2026-04-28T16:29:44.996Z</time></trkpt><trkpt lat="37.9426317" lon="14.0427265"><ele>414.0</ele><time>2026-04-28T16:29:45.996Z</time></trkpt><trkpt lat="37.9425387" lon="14.042598"><ele>416.25</ele><time>2026-04-28T16:29:46.997Z</time></trkpt><trkpt lat="37.9424471" lon="14.0424638"><ele>418.5</ele><time>2026-04-28T16:29:47.997Z</time></trkpt><trkpt lat="37.942359" lon="14.0423354"><ele>420.75</ele><time>2026-04-28T16:29:48.997Z</time></trkpt><trkpt lat="37.9422748" lon="14.0422098"><ele>423.0</ele><time>2026-04-28T16:29:49.996Z</time></trkpt><trkpt lat="37.9421899" lon="14.0420809"><ele>423.0</ele><time>2026-04-28T16:29:50.997Z</time></trkpt><trkpt lat="37.9421029" lon="14.0419516"><ele>423.0</ele><time>2026-04-28T16:29:51.996Z</time></trkpt><trkpt lat="37.9420091" lon="14.0418321"><ele>423.0</ele><time>2026-04-28T16:29:52.996Z</time></trkpt><trkpt lat="37.9419029" lon="14.0417281"><ele>423.0</ele><time>2026-04-28T16:29:53.997Z</time></trkpt><trkpt lat="37.9417795" lon="14.0416344"><ele>422.33333333333337</ele><time>2026-04-28T16:29:54.996Z</time></trkpt><trkpt lat="37.9416416" lon="14.0415462"><ele>421.6666666666667</ele><time>2026-04-28T16:29:55.996Z</time></trkpt><trkpt lat="37.941503" lon="14.0414606"><ele>421.0</ele><time>2026-04-28T16:29:56.997Z</time></trkpt><trkpt lat="37.9413682" lon="14.0413832"><ele>421.0</ele><time>2026-04-28T16:29:57.997Z</time></trkpt><trkpt lat="37.9412383" lon="14.0413028"><ele>421.0</ele><time>2026-04-28T16:29:58.997Z</time></trkpt><trkpt lat="37.9411082" lon="14.0412261"><ele>421.0</ele><time>2026-04-28T16:29:59.997Z</time></trkpt><trkpt lat="37.9409871" lon="14.0411422"><ele>421.0</ele><time>2026-04-28T16:30:00.997Z</time></trkpt><trkpt lat="37.9408772" lon="14.0410536"><ele>421.0</ele><time>2026-04-28T16:30:01.996Z</time></trkpt><trkpt lat="37.940787" lon="14.0409585"><ele>421.0</ele><time>2026-04-28T16:30:02.997Z</time></trkpt><trkpt lat="37.9407301" lon="14.0408417"><ele>421.0</ele><time>2026-04-28T16:30:03.996Z</time></trkpt><trkpt lat="37.9407031" lon="14.0407085"><ele>421.0</ele><time>2026-04-28T16:30:04.997Z</time></trkpt><trkpt lat="37.9406897" lon="14.0405486"><ele>421.0</ele><time>2026-04-28T16:30:05.997Z</time></trkpt><trkpt lat="37.9406731" lon="14.0403771"><ele>421.0</ele><time>2026-04-28T16:30:06.997Z</time></trkpt><trkpt lat="37.9406589" lon="14.0402076"><ele>421.0</ele><time>2026-04-28T16:30:07.997Z</time></trkpt><trkpt lat="37.9406406" lon="14.0400461"><ele>421.0</ele><time>2026-04-28T16:30:08.997Z</time></trkpt><trkpt lat="37.9406277" lon="14.0398966"><ele>421.4</ele><time>2026-04-28T16:30:09.997Z</time></trkpt><trkpt lat="37.9406196" lon="14.0397542"><ele>421.8</ele><time>2026-04-28T16:30:10.997Z</time></trkpt><trkpt lat="37.9406271" lon="14.0396191"><ele>422.2</ele><time>2026-04-28T16:30:11.997Z</time></trkpt><trkpt lat="37.9406561" lon="14.0395037"><ele>422.59999999999997</ele><time>2026-04-28T16:30:12.997Z</time></trkpt><trkpt lat="37.9407039" lon="14.0394165"><ele>423.0</ele><time>2026-04-28T16:30:13.997Z</time></trkpt><trkpt lat="37.9407653" lon="14.0393323"><ele>423.0</ele><time>2026-04-28T16:30:14.997Z</time></trkpt><trkpt lat="37.9408227" lon="14.0392623"><ele>423.0</ele><time>2026-04-28T16:30:15.996Z</time></trkpt><trkpt lat="37.9408824" lon="14.0392042"><ele>423.0</ele><time>2026-04-28T16:30:16.997Z</time></trkpt><trkpt lat="37.940937" lon="14.0391634"><ele>423.0</ele><time>2026-04-28T16:30:17.997Z</time></trkpt><trkpt lat="37.9410523" lon="14.0391131"><ele>423.0</ele><time>2026-04-28T16:30:19.997Z</time></trkpt><trkpt lat="37.9411284" lon="14.0390809"><ele>423.0</ele><time>2026-04-28T16:30:20.997Z</time></trkpt><trkpt lat="37.9412131" lon="14.0390377"><ele>423.0</ele><time>2026-04-28T16:30:21.997Z</time></trkpt><trkpt lat="37.9413004" lon="14.038988"><ele>423.0</ele><time>2026-04-28T16:30:22.997Z</time></trkpt><trkpt lat="37.9413858" lon="14.0389386"><ele>423.0</ele><time>2026-04-28T16:30:23.997Z</time></trkpt><trkpt lat="37.9414754" lon="14.0388865"><ele>423.0</ele><time>2026-04-28T16:30:24.996Z</time></trkpt><trkpt lat="37.94158" lon="14.0388251"><ele>423.0</ele><time>2026-04-28T16:30:25.997Z</time></trkpt><trkpt lat="37.9416874" lon="14.0387638"><ele>421.2</ele><time>2026-04-28T16:30:26.997Z</time></trkpt><trkpt lat="37.941799" lon="14.0387061"><ele>419.4</ele><time>2026-04-28T16:30:27.997Z</time></trkpt><trkpt lat="37.9419068" lon="14.038649"><ele>417.59999999999997</ele><time>2026-04-28T16:30:28.997Z</time></trkpt><trkpt lat="37.942001" lon="14.0385844"><ele>415.79999999999995</ele><time>2026-04-28T16:30:29.997Z</time></trkpt><trkpt lat="37.9420718" lon="14.0384983"><ele>414.0</ele><time>2026-04-28T16:30:30.996Z</time></trkpt><trkpt lat="37.9421244" lon="14.0383947"><ele>412.2</ele><time>2026-04-28T16:30:31.996Z</time></trkpt><trkpt lat="37.9421416" lon="14.038271"><ele>410.4</ele><time>2026-04-28T16:30:32.997Z</time></trkpt><trkpt lat="37.9421341" lon="14.0381429"><ele>408.6</ele><time>2026-04-28T16:30:33.996Z</time></trkpt><trkpt lat="37.9421053" lon="14.038024"><ele>406.8</ele><time>2026-04-28T16:30:34.997Z</time></trkpt><trkpt lat="37.9420538" lon="14.0379238"><ele>405.0</ele><time>2026-04-28T16:30:35.997Z</time></trkpt><trkpt lat="37.9419826" lon="14.03783"><ele>405.0</ele><time>2026-04-28T16:30:36.997Z</time></trkpt><trkpt lat="37.9419029" lon="14.037747"><ele>405.0</ele><time>2026-04-28T16:30:37.997Z</time></trkpt><trkpt lat="37.9418237" lon="14.037669"><ele>405.0</ele><time>2026-04-28T16:30:38.997Z</time></trkpt><trkpt lat="37.941754" lon="14.0375885"><ele>405.0</ele><time>2026-04-28T16:30:39.997Z</time></trkpt><trkpt lat="37.9416876" lon="14.0375092"><ele>405.0</ele><time>2026-04-28T16:30:40.997Z</time></trkpt><trkpt lat="37.9416221" lon="14.0374352"><ele>404.2</ele><time>2026-04-28T16:30:41.997Z</time></trkpt><trkpt lat="37.9415524" lon="14.0373602"><ele>403.4</ele><time>2026-04-28T16:30:42.996Z</time></trkpt><trkpt lat="37.9414838" lon="14.0372827"><ele>402.6</ele><time>2026-04-28T16:30:43.996Z</time></trkpt><trkpt lat="37.9414129" lon="14.0372069"><ele>401.8</ele><time>2026-04-28T16:30:44.997Z</time></trkpt><trkpt lat="37.941342" lon="14.0371334"><ele>401.0</ele><time>2026-04-28T16:30:45.997Z</time></trkpt><trkpt lat="37.9412787" lon="14.0370583"><ele>401.0</ele><time>2026-04-28T16:30:46.997Z</time></trkpt><trkpt lat="37.9412231" lon="14.0369748"><ele>401.0</ele><time>2026-04-28T16:30:47.997Z</time></trkpt><trkpt lat="37.9411768" lon="14.0368673"><ele>401.0</ele><time>2026-04-28T16:30:48.997Z</time></trkpt><trkpt lat="37.9411447" lon="14.0367292"><ele>401.0</ele><time>2026-04-28T16:30:49.997Z</time></trkpt><trkpt lat="37.9411258" lon="14.0365835"><ele>401.0</ele><time>2026-04-28T16:30:50.997Z</time></trkpt><trkpt lat="37.9411114" lon="14.0364398"><ele>400.0</ele><time>2026-04-28T16:30:51.997Z</time></trkpt><trkpt lat="37.9411124" lon="14.0363146"><ele>399.0</ele><time>2026-04-28T16:30:52.996Z</time></trkpt><trkpt lat="37.9411223" lon="14.0362019"><ele>398.0</ele><time>2026-04-28T16:30:53.997Z</time></trkpt><trkpt lat="37.9411462" lon="14.036083"><ele>397.0</ele><time>2026-04-28T16:30:54.997Z</time></trkpt><trkpt lat="37.9411717" lon="14.0359618"><ele>396.0</ele><time>2026-04-28T16:30:55.996Z</time></trkpt><trkpt lat="37.9412007" lon="14.0358372"><ele>395.0</ele><time>2026-04-28T16:30:56.997Z</time></trkpt><trkpt lat="37.9412315" lon="14.035726"><ele>394.0</ele><time>2026-04-28T16:30:57.996Z</time></trkpt><trkpt lat="37.9412531" lon="14.0356425"><ele>393.0</ele><time>2026-04-28T16:30:58.996Z</time></trkpt><trkpt lat="37.9412838" lon="14.035518"><ele>392.0</ele><time>2026-04-28T16:31:00.996Z</time></trkpt><trkpt lat="37.9412657" lon="14.0354336"><ele>391.0</ele><time>2026-04-28T16:31:42.996Z</time></trkpt><trkpt lat="37.9412659" lon="14.0355742"><ele>390.0</ele><time>2026-04-28T16:31:50.997Z</time></trkpt><trkpt lat="37.941239" lon="14.0356682"><ele>390.0</ele><time>2026-04-28T16:31:52.996Z</time></trkpt><trkpt lat="37.9412145" lon="14.0357863"><ele>390.0</ele><time>2026-04-28T16:31:54.997Z</time></trkpt><trkpt lat="37.9411861" lon="14.0359067"><ele>390.0</ele><time>2026-04-28T16:31:56.996Z</time></trkpt><trkpt lat="37.9411592" lon="14.0360052"><ele>390.0</ele><time>2026-04-28T16:31:58.997Z</time></trkpt><trkpt lat="37.9411341" lon="14.0361187"><ele>390.0</ele><time>2026-04-28T16:32:01.996Z</time></trkpt><trkpt lat="37.9411078" lon="14.036208"><ele>390.0</ele><time>2026-04-28T16:32:03.997Z</time></trkpt><trkpt lat="37.9410853" lon="14.0363025"><ele>391.2</ele><time>2026-04-28T16:32:05.997Z</time></trkpt><trkpt lat="37.9411003" lon="14.0363871"><ele>392.4</ele><time>2026-04-28T16:32:47.997Z</time></trkpt><trkpt lat="37.9410994" lon="14.0365147"><ele>393.6</ele><time>2026-04-28T16:32:49.997Z</time></trkpt><trkpt lat="37.9411107" lon="14.0366612"><ele>394.8</ele><time>2026-04-28T16:32:51.997Z</time></trkpt><trkpt lat="37.9411429" lon="14.0368034"><ele>396.0</ele><time>2026-04-28T16:32:53.997Z</time></trkpt><trkpt lat="37.9411903" lon="14.0369415"><ele>396.8333333333333</ele><time>2026-04-28T16:32:55.996Z</time></trkpt><trkpt lat="37.9412517" lon="14.0370564"><ele>397.66666666666663</ele><time>2026-04-28T16:32:57.997Z</time></trkpt><trkpt lat="37.9413382" lon="14.0371556"><ele>398.5</ele><time>2026-04-28T16:32:59.997Z</time></trkpt><trkpt lat="37.9413892" lon="14.0372063"><ele>399.3333333333333</ele><time>2026-04-28T16:33:00.997Z</time></trkpt><trkpt lat="37.9414426" lon="14.037264"><ele>400.16666666666663</ele><time>2026-04-28T16:33:01.997Z</time></trkpt><trkpt lat="37.9414997" lon="14.0373229"><ele>401.0</ele><time>2026-04-28T16:33:02.997Z</time></trkpt><trkpt lat="37.9415529" lon="14.0373776"><ele>400.99999999999994</ele><time>2026-04-28T16:33:03.996Z</time></trkpt><trkpt lat="37.941601" lon="14.0374331"><ele>401.0</ele><time>2026-04-28T16:33:04.997Z</time></trkpt><trkpt lat="37.9416463" lon="14.0374922"><ele>401.0</ele><time>2026-04-28T16:33:05.997Z</time></trkpt><trkpt lat="37.9417228" lon="14.0376039"><ele>401.0</ele><time>2026-04-28T16:33:07.997Z</time></trkpt><trkpt lat="37.941776" lon="14.0376735"><ele>400.99999999999994</ele><time>2026-04-28T16:33:09.997Z</time></trkpt><trkpt lat="37.9418624" lon="14.0377668"><ele>401.0</ele><time>2026-04-28T16:34:06.997Z</time></trkpt><trkpt lat="37.9419201" lon="14.0378258"><ele>401.8</ele><time>2026-04-28T16:34:07.997Z</time></trkpt><trkpt lat="37.9419683" lon="14.0378784"><ele>402.6</ele><time>2026-04-28T16:34:08.997Z</time></trkpt><trkpt lat="37.9420398" lon="14.037971"><ele>403.4</ele><time>2026-04-28T16:34:10.997Z</time></trkpt><trkpt lat="37.942087" lon="14.038083"><ele>404.2</ele><time>2026-04-28T16:34:12.996Z</time></trkpt><trkpt lat="37.9421068" lon="14.038239"><ele>405.0</ele><time>2026-04-28T16:34:14.997Z</time></trkpt><trkpt lat="37.9421002" lon="14.0383279"><ele>406.8</ele><time>2026-04-28T16:34:15.997Z</time></trkpt><trkpt lat="37.9420826" lon="14.0384113"><ele>408.6</ele><time>2026-04-28T16:34:16.997Z</time></trkpt><trkpt lat="37.9420535" lon="14.0384839"><ele>410.4</ele><time>2026-04-28T16:34:17.996Z</time></trkpt><trkpt lat="37.9419638" lon="14.0385911"><ele>412.2</ele><time>2026-04-28T16:34:19.997Z</time></trkpt><trkpt lat="37.9418876" lon="14.0386388"><ele>414.0</ele><time>2026-04-28T16:34:20.997Z</time></trkpt><trkpt lat="37.9417851" lon="14.0386989"><ele>415.79999999999995</ele><time>2026-04-28T16:34:21.997Z</time></trkpt><trkpt lat="37.9416723" lon="14.038766"><ele>417.59999999999997</ele><time>2026-04-28T16:34:22.996Z</time></trkpt><trkpt lat="37.9415725" lon="14.0388256"><ele>419.4</ele><time>2026-04-28T16:34:23.997Z</time></trkpt><trkpt lat="37.9414879" lon="14.0388767"><ele>421.2</ele><time>2026-04-28T16:34:24.996Z</time></trkpt><trkpt lat="37.9414138" lon="14.0389186"><ele>423.0</ele><time>2026-04-28T16:34:25.997Z</time></trkpt><trkpt lat="37.9413462" lon="14.0389552"><ele>423.0</ele><time>2026-04-28T16:34:26.996Z</time></trkpt><trkpt lat="37.9412442" lon="14.0390205"><ele>423.0</ele><time>2026-04-28T16:34:28.996Z</time></trkpt><trkpt lat="37.9411379" lon="14.0390791"><ele>423.0</ele><time>2026-04-28T16:34:30.995Z</time></trkpt><trkpt lat="37.9410222" lon="14.039139"><ele>423.0</ele><time>2026-04-28T16:34:32.995Z</time></trkpt><trkpt lat="37.9409618" lon="14.0391667"><ele>423.0</ele><time>2026-04-28T16:34:33.996Z</time></trkpt><trkpt lat="37.9408991" lon="14.0392018"><ele>423.0</ele><time>2026-04-28T16:34:34.996Z</time></trkpt><trkpt lat="37.9408403" lon="14.03924"><ele>423.0</ele><time>2026-04-28T16:34:35.996Z</time></trkpt><trkpt lat="37.9407399" lon="14.0393342"><ele>423.0</ele><time>2026-04-28T16:34:37.996Z</time></trkpt><trkpt lat="37.9406967" lon="14.0393948"><ele>423.0</ele><time>2026-04-28T16:34:38.996Z</time></trkpt><trkpt lat="37.9406622" lon="14.0394619"><ele>423.0</ele><time>2026-04-28T16:34:39.996Z</time></trkpt><trkpt lat="37.9406367" lon="14.0395361"><ele>423.0</ele><time>2026-04-28T16:34:40.996Z</time></trkpt><trkpt lat="37.9406001" lon="14.039682"><ele>423.0</ele><time>2026-04-28T16:34:42.996Z</time></trkpt><trkpt lat="37.9405948" lon="14.0398173"><ele>423.0</ele><time>2026-04-28T16:34:44.995Z</time></trkpt><trkpt lat="37.9406078" lon="14.0399657"><ele>423.0</ele><time>2026-04-28T16:34:46.996Z</time></trkpt><trkpt lat="37.9406182" lon="14.0400453"><ele>423.0</ele><time>2026-04-28T16:34:47.996Z</time></trkpt><trkpt lat="37.9406289" lon="14.0401304"><ele>423.0</ele><time>2026-04-28T16:34:48.996Z</time></trkpt><trkpt lat="37.9406387" lon="14.0402169"><ele>423.0</ele><time>2026-04-28T16:34:49.996Z</time></trkpt><trkpt lat="37.9406513" lon="14.0403064"><ele>423.1428571428571</ele><time>2026-04-28T16:34:50.995Z</time></trkpt><trkpt lat="37.9406634" lon="14.0404016"><ele>423.28571428571433</ele><time>2026-04-28T16:34:51.996Z</time></trkpt><trkpt lat="37.9406739" lon="14.0404949"><ele>423.42857142857144</ele><time>2026-04-28T16:34:52.995Z</time></trkpt><trkpt lat="37.9406832" lon="14.0405861"><ele>423.57142857142856</ele><time>2026-04-28T16:34:53.995Z</time></trkpt><trkpt lat="37.9406946" lon="14.0406758"><ele>423.71428571428567</ele><time>2026-04-28T16:34:54.996Z</time></trkpt><trkpt lat="37.9407057" lon="14.040769"><ele>423.8571428571429</ele><time>2026-04-28T16:34:55.996Z</time></trkpt><trkpt lat="37.9407227" lon="14.0408593"><ele>424.0</ele><time>2026-04-28T16:34:56.995Z</time></trkpt><trkpt lat="37.9407541" lon="14.0409383"><ele>424.0</ele><time>2026-04-28T16:34:57.995Z</time></trkpt><trkpt lat="37.9407996" lon="14.0410149"><ele>424.0</ele><time>2026-04-28T16:34:58.996Z</time></trkpt><trkpt lat="37.9408635" lon="14.0410867"><ele>424.0</ele><time>2026-04-28T16:34:59.996Z</time></trkpt><trkpt lat="37.9409469" lon="14.0411508"><ele>424.0</ele><time>2026-04-28T16:35:00.996Z</time></trkpt><trkpt lat="37.9410389" lon="14.0412094"><ele>424.0</ele><time>2026-04-28T16:35:01.995Z</time></trkpt><trkpt lat="37.9411374" lon="14.0412651"><ele>423.4</ele><time>2026-04-28T16:35:02.996Z</time></trkpt><trkpt lat="37.9412406" lon="14.0413223"><ele>422.79999999999995</ele><time>2026-04-28T16:35:03.996Z</time></trkpt><trkpt lat="37.9413398" lon="14.0413828"><ele>422.20000000000005</ele><time>2026-04-28T16:35:04.996Z</time></trkpt><trkpt lat="37.9414333" lon="14.0414477"><ele>421.6</ele><time>2026-04-28T16:35:05.995Z</time></trkpt><trkpt lat="37.9415311" lon="14.0415158"><ele>421.0</ele><time>2026-04-28T16:35:06.996Z</time></trkpt><trkpt lat="37.9416363" lon="14.0415857"><ele>421.5</ele><time>2026-04-28T16:35:07.996Z</time></trkpt><trkpt lat="37.9417476" lon="14.0416573"><ele>422.0</ele><time>2026-04-28T16:35:08.996Z</time></trkpt><trkpt lat="37.9418555" lon="14.0417372"><ele>422.5</ele><time>2026-04-28T16:35:09.995Z</time></trkpt><trkpt lat="37.9419585" lon="14.0418224"><ele>423.0</ele><time>2026-04-28T16:35:10.996Z</time></trkpt><trkpt lat="37.9420538" lon="14.0419242"><ele>423.0</ele><time>2026-04-28T16:35:11.995Z</time></trkpt><trkpt lat="37.9421445" lon="14.0420421"><ele>423.0</ele><time>2026-04-28T16:35:12.996Z</time></trkpt><trkpt lat="37.9422344" lon="14.0421728"><ele>423.0</ele><time>2026-04-28T16:35:13.995Z</time></trkpt><trkpt lat="37.9423214" lon="14.0423048"><ele>423.0</ele><time>2026-04-28T16:35:14.996Z</time></trkpt><trkpt lat="37.9424012" lon="14.0424268"><ele>423.4</ele><time>2026-04-28T16:35:15.995Z</time></trkpt><trkpt lat="37.9424757" lon="14.0425391"><ele>423.79999999999995</ele><time>2026-04-28T16:35:16.996Z</time></trkpt><trkpt lat="37.9425486" lon="14.0426428"><ele>424.2</ele><time>2026-04-28T16:35:17.995Z</time></trkpt><trkpt lat="37.9426191" lon="14.0427435"><ele>424.6</ele><time>2026-04-28T16:35:18.996Z</time></trkpt><trkpt lat="37.9426895" lon="14.0428519"><ele>425.0</ele><time>2026-04-28T16:35:19.995Z</time></trkpt><trkpt lat="37.9427582" lon="14.042963"><ele>423.16666666666663</ele><time>2026-04-28T16:35:20.996Z</time></trkpt><trkpt lat="37.9428228" lon="14.0430696"><ele>421.3333333333333</ele><time>2026-04-28T16:35:21.996Z</time></trkpt><trkpt lat="37.9428788" lon="14.0431667"><ele>419.5</ele><time>2026-04-28T16:35:22.996Z</time></trkpt><trkpt lat="37.9429173" lon="14.0432628"><ele>417.66666666666663</ele><time>2026-04-28T16:35:23.996Z</time></trkpt><trkpt lat="37.9429249" lon="14.0433598"><ele>415.8333333333333</ele><time>2026-04-28T16:35:24.995Z</time></trkpt><trkpt lat="37.9429009" lon="14.0434639"><ele>414.0</ele><time>2026-04-28T16:35:25.996Z</time></trkpt><trkpt lat="37.9428327" lon="14.0435787"><ele>412.25</ele><time>2026-04-28T16:35:26.996Z</time></trkpt><trkpt lat="37.9427466" lon="14.0437061"><ele>410.5</ele><time>2026-04-28T16:35:27.996Z</time></trkpt><trkpt lat="37.9426529" lon="14.0438331"><ele>408.75</ele><time>2026-04-28T16:35:28.995Z</time></trkpt><trkpt lat="37.9425591" lon="14.0439605"><ele>407.0</ele><time>2026-04-28T16:35:29.996Z</time></trkpt><trkpt lat="37.9424625" lon="14.0440923"><ele>410.0</ele><time>2026-04-28T16:35:30.996Z</time></trkpt><trkpt lat="37.9423642" lon="14.0442322"><ele>413.0</ele><time>2026-04-28T16:35:31.996Z</time></trkpt><trkpt lat="37.9422645" lon="14.0443718"><ele>416.0</ele><time>2026-04-28T16:35:32.995Z</time></trkpt><trkpt lat="37.9421666" lon="14.0445081"><ele>419.0</ele><time>2026-04-28T16:35:33.996Z</time></trkpt><trkpt lat="37.9420703" lon="14.044648"><ele>419.0</ele><time>2026-04-28T16:35:34.996Z</time></trkpt><trkpt lat="37.9419833" lon="14.044792"><ele>419.0</ele><time>2026-04-28T16:35:35.995Z</time></trkpt><trkpt lat="37.9419078" lon="14.0449449"><ele>419.0</ele><time>2026-04-28T16:35:36.995Z</time></trkpt><trkpt lat="37.9418464" lon="14.0451076"><ele>419.0</ele><time>2026-04-28T16:35:37.996Z</time></trkpt><trkpt lat="37.9417961" lon="14.045269"><ele>414.75</ele><time>2026-04-28T16:35:38.996Z</time></trkpt><trkpt lat="37.9417627" lon="14.0454224"><ele>410.5</ele><time>2026-04-28T16:35:39.996Z</time></trkpt><trkpt lat="37.9417575" lon="14.0455727"><ele>406.25</ele><time>2026-04-28T16:35:40.996Z</time></trkpt><trkpt lat="37.9417695" lon="14.0457213"><ele>402.0</ele><time>2026-04-28T16:35:41.996Z</time></trkpt><trkpt lat="37.9417944" lon="14.0458626"><ele>400.6</ele><time>2026-04-28T16:35:42.996Z</time></trkpt><trkpt lat="37.9418062" lon="14.0459888"><ele>399.20000000000005</ele><time>2026-04-28T16:35:43.996Z</time></trkpt><trkpt lat="37.9417998" lon="14.0461035"><ele>397.8</ele><time>2026-04-28T16:35:44.996Z</time></trkpt><trkpt lat="37.9417677" lon="14.0461995"><ele>396.4</ele><time>2026-04-28T16:35:45.996Z</time></trkpt><trkpt lat="37.9417014" lon="14.0462842"><ele>395.0</ele><time>2026-04-28T16:35:46.996Z</time></trkpt><trkpt lat="37.9415966" lon="14.0463731"><ele>397.5</ele><time>2026-04-28T16:35:47.995Z</time></trkpt><trkpt lat="37.9414741" lon="14.0464696"><ele>400.0</ele><time>2026-04-28T16:35:48.996Z</time></trkpt><trkpt lat="37.9413475" lon="14.0465735"><ele>402.5</ele><time>2026-04-28T16:35:49.996Z</time></trkpt><trkpt lat="37.9412234" lon="14.046677"><ele>405.0</ele><time>2026-04-28T16:35:50.996Z</time></trkpt><trkpt lat="37.9411048" lon="14.0467737"><ele>405.0</ele><time>2026-04-28T16:35:51.995Z</time></trkpt><trkpt lat="37.9409882" lon="14.0468787"><ele>405.0</ele><time>2026-04-28T16:35:52.996Z</time></trkpt><trkpt lat="37.9408806" lon="14.0470086"><ele>405.0</ele><time>2026-04-28T16:35:53.996Z</time></trkpt><trkpt lat="37.9407838" lon="14.0471617"><ele>405.0</ele><time>2026-04-28T16:35:54.996Z</time></trkpt><trkpt lat="37.9406977" lon="14.0473294"><ele>406.75</ele><time>2026-04-28T16:35:55.996Z</time></trkpt><trkpt lat="37.9406198" lon="14.047487"><ele>408.5</ele><time>2026-04-28T16:35:56.996Z</time></trkpt><trkpt lat="37.9405544" lon="14.0476246"><ele>410.25</ele><time>2026-04-28T16:35:57.996Z</time></trkpt><trkpt lat="37.940501" lon="14.0477574"><ele>412.0</ele><time>2026-04-28T16:35:58.996Z</time></trkpt><trkpt lat="37.940484" lon="14.0478884"><ele>412.0</ele><time>2026-04-28T16:35:59.996Z</time></trkpt><trkpt lat="37.9405032" lon="14.0480074"><ele>412.0</ele><time>2026-04-28T16:36:00.996Z</time></trkpt><trkpt lat="37.9405488" lon="14.0481267"><ele>412.0</ele><time>2026-04-28T16:36:01.996Z</time></trkpt><trkpt lat="37.9406172" lon="14.048248"><ele>412.0</ele><time>2026-04-28T16:36:02.996Z</time></trkpt><trkpt lat="37.9406928" lon="14.0483698"><ele>412.0</ele><time>2026-04-28T16:36:03.995Z</time></trkpt><trkpt lat="37.940761" lon="14.048498"><ele>412.20000000000005</ele><time>2026-04-28T16:36:04.996Z</time></trkpt><trkpt lat="37.9408204" lon="14.0486202"><ele>412.4</ele><time>2026-04-28T16:36:05.996Z</time></trkpt><trkpt lat="37.9408619" lon="14.0487435"><ele>412.6</ele><time>2026-04-28T16:36:06.996Z</time></trkpt><trkpt lat="37.9408841" lon="14.0488718"><ele>412.79999999999995</ele><time>2026-04-28T16:36:07.996Z</time></trkpt><trkpt lat="37.9408806" lon="14.0490107"><ele>413.0</ele><time>2026-04-28T16:36:08.996Z</time></trkpt><trkpt lat="37.940853" lon="14.049159"><ele>415.0</ele><time>2026-04-28T16:36:09.996Z</time></trkpt><trkpt lat="37.9408106" lon="14.049328"><ele>417.0</ele><time>2026-04-28T16:36:10.996Z</time></trkpt><trkpt lat="37.9407688" lon="14.0495027"><ele>419.0</ele><time>2026-04-28T16:36:11.996Z</time></trkpt><trkpt lat="37.9407305" lon="14.0496759"><ele>421.0</ele><time>2026-04-28T16:36:12.996Z</time></trkpt><trkpt lat="37.9406949" lon="14.0498444"><ele>420.0</ele><time>2026-04-28T16:36:13.996Z</time></trkpt><trkpt lat="37.9406553" lon="14.0500054"><ele>419.0</ele><time>2026-04-28T16:36:14.996Z</time></trkpt><trkpt lat="37.9406039" lon="14.0501455"><ele>418.0</ele><time>2026-04-28T16:36:15.996Z</time></trkpt><trkpt lat="37.9405303" lon="14.0502508"><ele>417.0</ele><time>2026-04-28T16:36:16.996Z</time></trkpt><trkpt lat="37.9404392" lon="14.0503129"><ele>417.0</ele><time>2026-04-28T16:36:17.995Z</time></trkpt><trkpt lat="37.9403432" lon="14.0503572"><ele>417.0</ele><time>2026-04-28T16:36:18.996Z</time></trkpt><trkpt lat="37.9402407" lon="14.0504025"><ele>417.0</ele><time>2026-04-28T16:36:19.995Z</time></trkpt><trkpt lat="37.9401384" lon="14.0504577"><ele>417.0</ele><time>2026-04-28T16:36:20.996Z</time></trkpt><trkpt lat="37.9400461" lon="14.0505371"><ele>417.0</ele><time>2026-04-28T16:36:21.996Z</time></trkpt><trkpt lat="37.9399743" lon="14.0506378"><ele>420.25</ele><time>2026-04-28T16:36:22.996Z</time></trkpt><trkpt lat="37.9399184" lon="14.0507633"><ele>423.5</ele><time>2026-04-28T16:36:23.996Z</time></trkpt><trkpt lat="37.9398679" lon="14.0509146"><ele>426.75</ele><time>2026-04-28T16:36:24.996Z</time></trkpt><trkpt lat="37.9398229" lon="14.0510763"><ele>430.0</ele><time>2026-04-28T16:36:25.996Z</time></trkpt><trkpt lat="37.9397773" lon="14.0512413"><ele>430.0</ele><time>2026-04-28T16:36:26.995Z</time></trkpt><trkpt lat="37.9397255" lon="14.0513989"><ele>430.0</ele><time>2026-04-28T16:36:27.996Z</time></trkpt><trkpt lat="37.939665" lon="14.0515541"><ele>430.0</ele><time>2026-04-28T16:36:28.996Z</time></trkpt><trkpt lat="37.9396075" lon="14.051706"><ele>430.0</ele><time>2026-04-28T16:36:29.996Z</time></trkpt><trkpt lat="37.9395656" lon="14.0518572"><ele>428.5</ele><time>2026-04-28T16:36:30.996Z</time></trkpt><trkpt lat="37.9395466" lon="14.0520013"><ele>427.0</ele><time>2026-04-28T16:36:31.996Z</time></trkpt><trkpt lat="37.9395406" lon="14.0521441"><ele>425.5</ele><time>2026-04-28T16:36:32.995Z</time></trkpt><trkpt lat="37.9395463" lon="14.0522923"><ele>424.0</ele><time>2026-04-28T16:36:33.996Z</time></trkpt><trkpt lat="37.9395629" lon="14.0524501"><ele>425.25</ele><time>2026-04-28T16:36:34.996Z</time></trkpt><trkpt lat="37.9395838" lon="14.0526211"><ele>426.5</ele><time>2026-04-28T16:36:35.995Z</time></trkpt><trkpt lat="37.9396064" lon="14.0527931"><ele>427.75</ele><time>2026-04-28T16:36:36.996Z</time></trkpt><trkpt lat="37.9396266" lon="14.0529479"><ele>429.0</ele><time>2026-04-28T16:36:37.996Z</time></trkpt><trkpt lat="37.9396483" lon="14.0530792"><ele>429.0</ele><time>2026-04-28T16:36:38.996Z</time></trkpt><trkpt lat="37.9396821" lon="14.0531975"><ele>429.0</ele><time>2026-04-28T16:36:39.996Z</time></trkpt><trkpt lat="37.9397415" lon="14.053295"><ele>429.0</ele><time>2026-04-28T16:36:40.996Z</time></trkpt><trkpt lat="37.9398356" lon="14.0533492"><ele>429.0</ele><time>2026-04-28T16:36:41.996Z</time></trkpt><trkpt lat="37.9399439" lon="14.0533624"><ele>429.0</ele><time>2026-04-28T16:36:42.996Z</time></trkpt><trkpt lat="37.94006" lon="14.0533467"><ele>427.0</ele><time>2026-04-28T16:36:43.996Z</time></trkpt><trkpt lat="37.9401798" lon="14.0533149"><ele>425.0</ele><time>2026-04-28T16:36:44.995Z</time></trkpt><trkpt lat="37.9402993" lon="14.0532883"><ele>423.0</ele><time>2026-04-28T16:36:45.996Z</time></trkpt><trkpt lat="37.9404146" lon="14.0532676"><ele>421.0</ele><time>2026-04-28T16:36:46.996Z</time></trkpt><trkpt lat="37.9405254" lon="14.0532541"><ele>421.0</ele><time>2026-04-28T16:36:47.996Z</time></trkpt><trkpt lat="37.9406336" lon="14.0532592"><ele>421.0</ele><time>2026-04-28T16:36:48.996Z</time></trkpt><trkpt lat="37.9407404" lon="14.0532955"><ele>421.0</ele><time>2026-04-28T16:36:49.996Z</time></trkpt><trkpt lat="37.9408447" lon="14.053358"><ele>421.0</ele><time>2026-04-28T16:36:50.996Z</time></trkpt><trkpt lat="37.940936" lon="14.0534458"><ele>421.0</ele><time>2026-04-28T16:36:51.996Z</time></trkpt><trkpt lat="37.9410192" lon="14.0535493"><ele>423.0</ele><time>2026-04-28T16:36:52.995Z</time></trkpt><trkpt lat="37.9410995" lon="14.053654"><ele>425.0</ele><time>2026-04-28T16:36:53.995Z</time></trkpt><trkpt lat="37.9411775" lon="14.0537589"><ele>427.0</ele><time>2026-04-28T16:36:54.996Z</time></trkpt><trkpt lat="37.9412574" lon="14.0538526"><ele>429.0</ele><time>2026-04-28T16:36:55.996Z</time></trkpt><trkpt lat="37.941345" lon="14.0539345"><ele>431.0</ele><time>2026-04-28T16:36:56.996Z</time></trkpt><trkpt lat="37.9414453" lon="14.053997"><ele>431.0</ele><time>2026-04-28T16:36:57.996Z</time></trkpt><trkpt lat="37.9415522" lon="14.0540432"><ele>431.0</ele><time>2026-04-28T16:36:58.996Z</time></trkpt><trkpt lat="37.9416532" lon="14.0540888"><ele>431.0</ele><time>2026-04-28T16:36:59.996Z</time></trkpt><trkpt lat="37.9417521" lon="14.0541345"><ele>431.0</ele><time>2026-04-28T16:37:00.996Z</time></trkpt><trkpt lat="37.9418512" lon="14.0541781"><ele>431.0</ele><time>2026-04-28T16:37:01.995Z</time></trkpt><trkpt lat="37.9419458" lon="14.0542278"><ele>431.99999999999994</ele><time>2026-04-28T16:37:02.995Z</time></trkpt><trkpt lat="37.9420276" lon="14.0542919"><ele>433.0</ele><time>2026-04-28T16:37:03.995Z</time></trkpt><trkpt lat="37.9420885" lon="14.0543754"><ele>434.0</ele><time>2026-04-28T16:37:04.996Z</time></trkpt><trkpt lat="37.9421204" lon="14.0544752"><ele>435.0</ele><time>2026-04-28T16:37:05.996Z</time></trkpt><trkpt lat="37.942128" lon="14.0545858"><ele>435.99999999999994</ele><time>2026-04-28T16:37:06.996Z</time></trkpt><trkpt lat="37.9421152" lon="14.0546978"><ele>437.0</ele><time>2026-04-28T16:37:07.996Z</time></trkpt><trkpt lat="37.9420892" lon="14.054816"><ele>437.0</ele><time>2026-04-28T16:37:08.995Z</time></trkpt><trkpt lat="37.9420606" lon="14.0549356"><ele>437.00000000000006</ele><time>2026-04-28T16:37:09.996Z</time></trkpt><trkpt lat="37.9420411" lon="14.0550582"><ele>437.00000000000006</ele><time>2026-04-28T16:37:10.995Z</time></trkpt><trkpt lat="37.9420421" lon="14.0551835"><ele>437.0</ele><time>2026-04-28T16:37:11.996Z</time></trkpt><trkpt lat="37.9420655" lon="14.0553128"><ele>437.0</ele><time>2026-04-28T16:37:12.996Z</time></trkpt><trkpt lat="37.9421145" lon="14.0554349"><ele>437.40000000000003</ele><time>2026-04-28T16:37:13.996Z</time></trkpt><trkpt lat="37.9421731" lon="14.0555489"><ele>437.80000000000007</ele><time>2026-04-28T16:37:14.996Z</time></trkpt><trkpt lat="37.942233" lon="14.0556646"><ele>438.2</ele><time>2026-04-28T16:37:15.996Z</time></trkpt><trkpt lat="37.9422853" lon="14.0557851"><ele>438.6</ele><time>2026-04-28T16:37:16.996Z</time></trkpt><trkpt lat="37.9423208" lon="14.055911"><ele>439.0</ele><time>2026-04-28T16:37:17.996Z</time></trkpt><trkpt lat="37.9423402" lon="14.0560474"><ele>439.0</ele><time>2026-04-28T16:37:18.995Z</time></trkpt><trkpt lat="37.9423478" lon="14.0561855"><ele>439.0</ele><time>2026-04-28T16:37:19.995Z</time></trkpt><trkpt lat="37.942357" lon="14.0563254"><ele>439.0</ele><time>2026-04-28T16:37:20.996Z</time></trkpt><trkpt lat="37.9423658" lon="14.056467"><ele>439.0</ele><time>2026-04-28T16:37:21.996Z</time></trkpt><trkpt lat="37.9423738" lon="14.0565962"><ele>439.0</ele><time>2026-04-28T16:37:22.996Z</time></trkpt><trkpt lat="37.9423734" lon="14.0566937"><ele>439.6666666666667</ele><time>2026-04-28T16:37:23.996Z</time></trkpt><trkpt lat="37.9423688" lon="14.0567898"><ele>440.33333333333337</ele><time>2026-04-28T16:37:25.996Z</time></trkpt><trkpt lat="37.9423686" lon="14.056898"><ele>441.0</ele><time>2026-04-28T16:37:29.995Z</time></trkpt><trkpt lat="37.9423398" lon="14.0569911"><ele>441.66666666666663</ele><time>2026-04-28T16:37:32.996Z</time></trkpt><trkpt lat="37.9423216" lon="14.0570796"><ele>442.3333333333333</ele><time>2026-04-28T16:37:35.996Z</time></trkpt><trkpt lat="37.9423045" lon="14.0571824"><ele>443.0</ele><time>2026-04-28T16:37:38.996Z</time></trkpt><trkpt lat="37.9422537" lon="14.0573288"><ele>442.99999999999994</ele><time>2026-04-28T16:37:40.996Z</time></trkpt><trkpt lat="37.9422253" lon="14.0574162"><ele>443.0</ele><time>2026-04-28T16:37:41.995Z</time></trkpt><trkpt lat="37.9421978" lon="14.0575079"><ele>443.0</ele><time>2026-04-28T16:37:42.996Z</time></trkpt><trkpt lat="37.9421642" lon="14.0576117"><ele>443.0</ele><time>2026-04-28T16:37:43.995Z</time></trkpt><trkpt lat="37.9421305" lon="14.0577131"><ele>442.99999999999994</ele><time>2026-04-28T16:37:44.996Z</time></trkpt><trkpt lat="37.9421082" lon="14.0577985"><ele>443.0</ele><time>2026-04-28T16:37:45.996Z</time></trkpt><trkpt lat="37.9420683" lon="14.0579525"><ele>442.8333333333333</ele><time>2026-04-28T16:37:47.996Z</time></trkpt><trkpt lat="37.9420413" lon="14.0580417"><ele>442.66666666666663</ele><time>2026-04-28T16:37:48.996Z</time></trkpt><trkpt lat="37.94201" lon="14.0581434"><ele>442.5</ele><time>2026-04-28T16:37:49.996Z</time></trkpt><trkpt lat="37.9419711" lon="14.0582396"><ele>442.33333333333337</ele><time>2026-04-28T16:37:50.996Z</time></trkpt><trkpt lat="37.9419367" lon="14.0583258"><ele>442.1666666666667</ele><time>2026-04-28T16:37:51.996Z</time></trkpt><trkpt lat="37.9418986" lon="14.0584172"><ele>442.0</ele><time>2026-04-28T16:37:52.996Z</time></trkpt><trkpt lat="37.9418642" lon="14.058517"><ele>442.50000000000006</ele><time>2026-04-28T16:37:53.995Z</time></trkpt><trkpt lat="37.9418451" lon="14.0586197"><ele>443.0</ele><time>2026-04-28T16:37:54.995Z</time></trkpt><trkpt lat="37.9418541" lon="14.058729"><ele>443.5</ele><time>2026-04-28T16:37:55.995Z</time></trkpt><trkpt lat="37.9418913" lon="14.0588259"><ele>444.0</ele><time>2026-04-28T16:37:56.996Z</time></trkpt><trkpt lat="37.9419577" lon="14.0589071"><ele>444.50000000000006</ele><time>2026-04-28T16:37:57.995Z</time></trkpt><trkpt lat="37.9420409" lon="14.058955"><ele>445.0</ele><time>2026-04-28T16:37:58.996Z</time></trkpt><trkpt lat="37.9421419" lon="14.0589792"><ele>445.0</ele><time>2026-04-28T16:37:59.996Z</time></trkpt><trkpt lat="37.9422556" lon="14.0589967"><ele>445.0</ele><time>2026-04-28T16:38:00.996Z</time></trkpt><trkpt lat="37.9423652" lon="14.0590197"><ele>445.0</ele><time>2026-04-28T16:38:01.996Z</time></trkpt><trkpt lat="37.9424833" lon="14.0590477"><ele>445.0</ele><time>2026-04-28T16:38:02.995Z</time></trkpt><trkpt lat="37.9425984" lon="14.0590725"><ele>444.6</ele><time>2026-04-28T16:38:03.995Z</time></trkpt><trkpt lat="37.9427034" lon="14.0591021"><ele>444.2</ele><time>2026-04-28T16:38:04.995Z</time></trkpt><trkpt lat="37.9427957" lon="14.0591436"><ele>443.79999999999995</ele><time>2026-04-28T16:38:05.996Z</time></trkpt><trkpt lat="37.9428727" lon="14.0592123"><ele>443.4</ele><time>2026-04-28T16:38:06.996Z</time></trkpt><trkpt lat="37.9429237" lon="14.0593287"><ele>443.0</ele><time>2026-04-28T16:38:07.996Z</time></trkpt><trkpt lat="37.9429604" lon="14.0594675"><ele>443.0</ele><time>2026-04-28T16:38:08.995Z</time></trkpt><trkpt lat="37.9429949" lon="14.0596149"><ele>443.0</ele><time>2026-04-28T16:38:09.996Z</time></trkpt><trkpt lat="37.9430295" lon="14.0597645"><ele>443.0</ele><time>2026-04-28T16:38:10.996Z</time></trkpt><trkpt lat="37.9430556" lon="14.0599059"><ele>443.0</ele><time>2026-04-28T16:38:11.996Z</time></trkpt><trkpt lat="37.9430654" lon="14.0600369"><ele>443.79999999999995</ele><time>2026-04-28T16:38:12.996Z</time></trkpt><trkpt lat="37.9430588" lon="14.0601622"><ele>444.59999999999997</ele><time>2026-04-28T16:38:13.995Z</time></trkpt><trkpt lat="37.9430337" lon="14.0602859"><ele>445.40000000000003</ele><time>2026-04-28T16:38:14.996Z</time></trkpt><trkpt lat="37.9429929" lon="14.0604101"><ele>446.20000000000005</ele><time>2026-04-28T16:38:15.996Z</time></trkpt><trkpt lat="37.942922" lon="14.060552"><ele>447.0</ele><time>2026-04-28T16:38:16.996Z</time></trkpt><trkpt lat="37.9428388" lon="14.0607125"><ele>445.66666666666663</ele><time>2026-04-28T16:38:17.996Z</time></trkpt><trkpt lat="37.9427599" lon="14.0608888"><ele>444.3333333333333</ele><time>2026-04-28T16:38:18.996Z</time></trkpt><trkpt lat="37.9426845" lon="14.0610725"><ele>443.0</ele><time>2026-04-28T16:38:19.996Z</time></trkpt><trkpt lat="37.942618" lon="14.061254"><ele>443.0</ele><time>2026-04-28T16:38:20.996Z</time></trkpt><trkpt lat="37.9425638" lon="14.0614178"><ele>443.0</ele><time>2026-04-28T16:38:21.996Z</time></trkpt><trkpt lat="37.9425175" lon="14.0615706"><ele>443.0</ele><time>2026-04-28T16:38:22.996Z</time></trkpt><trkpt lat="37.9424689" lon="14.0617128"><ele>443.0</ele><time>2026-04-28T16:38:23.995Z</time></trkpt><trkpt lat="37.9424205" lon="14.0618372"><ele>446.2</ele><time>2026-04-28T16:38:24.996Z</time></trkpt><trkpt lat="37.9423586" lon="14.0619434"><ele>449.4</ele><time>2026-04-28T16:38:25.996Z</time></trkpt><trkpt lat="37.9422832" lon="14.0620382"><ele>452.59999999999997</ele><time>2026-04-28T16:38:26.996Z</time></trkpt><trkpt lat="37.94219" lon="14.0621151"><ele>455.79999999999995</ele><time>2026-04-28T16:38:27.996Z</time></trkpt><trkpt lat="37.9420923" lon="14.062192"><ele>459.0</ele><time>2026-04-28T16:38:28.996Z</time></trkpt><trkpt lat="37.9420031" lon="14.0622754"><ele>459.0</ele><time>2026-04-28T16:38:29.996Z</time></trkpt><trkpt lat="37.9419249" lon="14.0623967"><ele>459.0</ele><time>2026-04-28T16:38:30.996Z</time></trkpt><trkpt lat="37.9418749" lon="14.0625293"><ele>459.0</ele><time>2026-04-28T16:38:31.995Z</time></trkpt><trkpt lat="37.9418517" lon="14.0626567"><ele>459.0</ele><time>2026-04-28T16:38:32.996Z</time></trkpt><trkpt lat="37.9418502" lon="14.0627966"><ele>457.5</ele><time>2026-04-28T16:38:33.996Z</time></trkpt><trkpt lat="37.9418722" lon="14.06294"><ele>456.0</ele><time>2026-04-28T16:38:34.996Z</time></trkpt><trkpt lat="37.9419004" lon="14.0631017"><ele>454.5</ele><time>2026-04-28T16:38:35.996Z</time></trkpt><trkpt lat="37.9419344" lon="14.0632742"><ele>453.0</ele><time>2026-04-28T16:38:36.996Z</time></trkpt><trkpt lat="37.9419651" lon="14.0634499"><ele>453.0</ele><time>2026-04-28T16:38:37.996Z</time></trkpt><trkpt lat="37.9419908" lon="14.0636195"><ele>453.0</ele><time>2026-04-28T16:38:38.996Z</time></trkpt><trkpt lat="37.9420038" lon="14.063772"><ele>453.0</ele><time>2026-04-28T16:38:39.996Z</time></trkpt><trkpt lat="37.9420065" lon="14.0639096"><ele>453.0</ele><time>2026-04-28T16:38:40.996Z</time></trkpt><trkpt lat="37.9419937" lon="14.0640336"><ele>453.1666666666667</ele><time>2026-04-28T16:38:41.995Z</time></trkpt><trkpt lat="37.9419709" lon="14.064128"><ele>453.33333333333337</ele><time>2026-04-28T16:38:42.996Z</time></trkpt><trkpt lat="37.9419228" lon="14.0641803"><ele>453.5</ele><time>2026-04-28T16:38:44.996Z</time></trkpt><trkpt lat="37.9418518" lon="14.0642228"><ele>453.6666666666667</ele><time>2026-04-28T16:38:53.995Z</time></trkpt><trkpt lat="37.9419112" lon="14.0641794"><ele>453.83333333333337</ele><time>2026-04-28T16:39:56.996Z</time></trkpt><trkpt lat="37.9419665" lon="14.0642371"><ele>454.0</ele><time>2026-04-28T16:40:04.996Z</time></trkpt><trkpt lat="37.9420621" lon="14.0643233"><ele>454.00000000000006</ele><time>2026-04-28T16:40:06.996Z</time></trkpt><trkpt lat="37.9421759" lon="14.0644031"><ele>454.0</ele><time>2026-04-28T16:40:08.996Z</time></trkpt><trkpt lat="37.9422426" lon="14.0644412"><ele>454.0</ele><time>2026-04-28T16:40:09.996Z</time></trkpt><trkpt lat="37.9423152" lon="14.0644776"><ele>454.0</ele><time>2026-04-28T16:40:10.996Z</time></trkpt><trkpt lat="37.9423751" lon="14.0645105"><ele>454.00000000000006</ele><time>2026-04-28T16:40:11.996Z</time></trkpt><trkpt lat="37.9424635" lon="14.0645653"><ele>454.0</ele><time>2026-04-28T16:40:13.996Z</time></trkpt><trkpt lat="37.9425235" lon="14.0645987"><ele>452.2</ele><time>2026-04-28T16:40:15.996Z</time></trkpt><trkpt lat="37.9426257" lon="14.0646353"><ele>450.4</ele><time>2026-04-28T16:40:38.996Z</time></trkpt><trkpt lat="37.9427422" lon="14.0647076"><ele>448.6</ele><time>2026-04-28T16:40:40.996Z</time></trkpt><trkpt lat="37.9428024" lon="14.0647822"><ele>446.8</ele><time>2026-04-28T16:40:41.996Z</time></trkpt><trkpt lat="37.9428549" lon="14.0648763"><ele>445.0</ele><time>2026-04-28T16:40:42.996Z</time></trkpt><trkpt lat="37.9429078" lon="14.064981"><ele>445.00000000000006</ele><time>2026-04-28T16:40:43.995Z</time></trkpt><trkpt lat="37.9429698" lon="14.065066"><ele>445.0</ele><time>2026-04-28T16:40:44.996Z</time></trkpt><trkpt lat="37.9430367" lon="14.0651331"><ele>445.0</ele><time>2026-04-28T16:40:45.995Z</time></trkpt><trkpt lat="37.9430913" lon="14.065191"><ele>445.0</ele><time>2026-04-28T16:40:46.995Z</time></trkpt><trkpt lat="37.9431409" lon="14.0652534"><ele>445.00000000000006</ele><time>2026-04-28T16:40:47.996Z</time></trkpt><trkpt lat="37.943196" lon="14.0653276"><ele>445.0</ele><time>2026-04-28T16:40:48.996Z</time></trkpt><trkpt lat="37.9432558" lon="14.0654008"><ele>445.00000000000006</ele><time>2026-04-28T16:40:49.996Z</time></trkpt><trkpt lat="37.943317" lon="14.0654709"><ele>445.0</ele><time>2026-04-28T16:40:50.996Z</time></trkpt><trkpt lat="37.9433774" lon="14.0655441"><ele>445.0</ele><time>2026-04-28T16:40:51.996Z</time></trkpt><trkpt lat="37.9434264" lon="14.0656273"><ele>445.0</ele><time>2026-04-28T16:40:52.996Z</time></trkpt><trkpt lat="37.9434537" lon="14.0657252"><ele>445.00000000000006</ele><time>2026-04-28T16:40:53.995Z</time></trkpt><trkpt lat="37.9434723" lon="14.0658539"><ele>445.0</ele><time>2026-04-28T16:40:54.996Z</time></trkpt><trkpt lat="37.9434815" lon="14.0659942"><ele>448.2</ele><time>2026-04-28T16:40:55.996Z</time></trkpt><trkpt lat="37.943483" lon="14.0661294"><ele>451.4</ele><time>2026-04-28T16:40:56.995Z</time></trkpt><trkpt lat="37.9434827" lon="14.0662543"><ele>454.6</ele><time>2026-04-28T16:40:57.996Z</time></trkpt><trkpt lat="37.9434859" lon="14.0663693"><ele>457.8</ele><time>2026-04-28T16:40:58.996Z</time></trkpt><trkpt lat="37.9434989" lon="14.0664729"><ele>461.0</ele><time>2026-04-28T16:40:59.996Z</time></trkpt><trkpt lat="37.9435224" lon="14.0665709"><ele>460.5714285714286</ele><time>2026-04-28T16:41:00.996Z</time></trkpt><trkpt lat="37.9435544" lon="14.0666607"><ele>460.1428571428572</ele><time>2026-04-28T16:41:01.996Z</time></trkpt><trkpt lat="37.9435858" lon="14.06675"><ele>459.7142857142857</ele><time>2026-04-28T16:41:02.996Z</time></trkpt><trkpt lat="37.9436194" lon="14.0668363"><ele>459.28571428571433</ele><time>2026-04-28T16:41:03.995Z</time></trkpt><trkpt lat="37.9436508" lon="14.0669201"><ele>458.8571428571429</ele><time>2026-04-28T16:41:04.996Z</time></trkpt><trkpt lat="37.94368" lon="14.0670038"><ele>458.42857142857144</ele><time>2026-04-28T16:41:05.996Z</time></trkpt><trkpt lat="37.9437064" lon="14.0670885"><ele>458.0</ele><time>2026-04-28T16:41:06.996Z</time></trkpt><trkpt lat="37.9437326" lon="14.0671702"><ele>458.0</ele><time>2026-04-28T16:41:07.996Z</time></trkpt><trkpt lat="37.9437566" lon="14.0672559"><ele>458.0</ele><time>2026-04-28T16:41:08.995Z</time></trkpt><trkpt lat="37.9437782" lon="14.0673415"><ele>458.0</ele><time>2026-04-28T16:41:09.996Z</time></trkpt><trkpt lat="37.9437962" lon="14.067431"><ele>458.0</ele><time>2026-04-28T16:41:10.996Z</time></trkpt><trkpt lat="37.9438111" lon="14.0675187"><ele>458.0</ele><time>2026-04-28T16:41:11.995Z</time></trkpt><trkpt lat="37.9438269" lon="14.0676029"><ele>458.0</ele><time>2026-04-28T16:41:12.996Z</time></trkpt><trkpt lat="37.9438393" lon="14.0676898"><ele>458.0</ele><time>2026-04-28T16:41:13.995Z</time></trkpt><trkpt lat="37.9438513" lon="14.067781"><ele>455.99999999999994</ele><time>2026-04-28T16:41:14.996Z</time></trkpt><trkpt lat="37.9438643" lon="14.0678736"><ele>454.0</ele><time>2026-04-28T16:41:15.996Z</time></trkpt><trkpt lat="37.9438708" lon="14.0679676"><ele>452.0</ele><time>2026-04-28T16:41:16.996Z</time></trkpt><trkpt lat="37.9438693" lon="14.0680674"><ele>450.0</ele><time>2026-04-28T16:41:17.996Z</time></trkpt><trkpt lat="37.9438634" lon="14.0681713"><ele>447.99999999999994</ele><time>2026-04-28T16:41:18.996Z</time></trkpt><trkpt lat="37.9438547" lon="14.0682756"><ele>446.0</ele><time>2026-04-28T16:41:19.996Z</time></trkpt><trkpt lat="37.9438442" lon="14.06838"><ele>444.16666666666663</ele><time>2026-04-28T16:41:20.996Z</time></trkpt><trkpt lat="37.9438298" lon="14.0684831"><ele>442.3333333333333</ele><time>2026-04-28T16:41:21.996Z</time></trkpt><trkpt lat="37.9438175" lon="14.0685879"><ele>440.5</ele><time>2026-04-28T16:41:22.996Z</time></trkpt><trkpt lat="37.9438032" lon="14.0686878"><ele>438.66666666666663</ele><time>2026-04-28T16:41:23.995Z</time></trkpt><trkpt lat="37.9437962" lon="14.0687837"><ele>436.8333333333333</ele><time>2026-04-28T16:41:24.996Z</time></trkpt><trkpt lat="37.9438006" lon="14.0688792"><ele>435.0</ele><time>2026-04-28T16:41:25.996Z</time></trkpt><trkpt lat="37.9438099" lon="14.0689719"><ele>435.0</ele><time>2026-04-28T16:41:26.996Z</time></trkpt><trkpt lat="37.9438336" lon="14.069072"><ele>435.0</ele><time>2026-04-28T16:41:27.996Z</time></trkpt><trkpt lat="37.9438739" lon="14.0691821"><ele>435.0</ele><time>2026-04-28T16:41:28.996Z</time></trkpt><trkpt lat="37.9439171" lon="14.0692986"><ele>435.0</ele><time>2026-04-28T16:41:29.996Z</time></trkpt><trkpt lat="37.9439493" lon="14.069413"><ele>435.0</ele><time>2026-04-28T16:41:30.996Z</time></trkpt><trkpt lat="37.9439786" lon="14.0695198"><ele>434.2</ele><time>2026-04-28T16:41:31.996Z</time></trkpt><trkpt lat="37.9440121" lon="14.0696178"><ele>433.4</ele><time>2026-04-28T16:41:32.995Z</time></trkpt><trkpt lat="37.9440685" lon="14.0696965"><ele>432.6</ele><time>2026-04-28T16:41:33.996Z</time></trkpt><trkpt lat="37.9441429" lon="14.0697605"><ele>431.8</ele><time>2026-04-28T16:41:34.996Z</time></trkpt><trkpt lat="37.9442275" lon="14.0698159"><ele>431.0</ele><time>2026-04-28T16:41:35.996Z</time></trkpt><trkpt lat="37.9443128" lon="14.0698731"><ele>431.0</ele><time>2026-04-28T16:41:36.996Z</time></trkpt><trkpt lat="37.9443889" lon="14.0699376"><ele>431.0</ele><time>2026-04-28T16:41:37.996Z</time></trkpt><trkpt lat="37.9444548" lon="14.0700259"><ele>431.0</ele><time>2026-04-28T16:41:38.996Z</time></trkpt><trkpt lat="37.9445121" lon="14.070132"><ele>431.0</ele><time>2026-04-28T16:41:39.996Z</time></trkpt><trkpt lat="37.9445637" lon="14.0702445"><ele>431.0</ele><time>2026-04-28T16:41:40.996Z</time></trkpt><trkpt lat="37.944617" lon="14.0703484"><ele>427.0</ele><time>2026-04-28T16:41:41.995Z</time></trkpt><trkpt lat="37.9446682" lon="14.0704452"><ele>423.0</ele><time>2026-04-28T16:41:42.995Z</time></trkpt><trkpt lat="37.9447071" lon="14.0705329"><ele>419.0</ele><time>2026-04-28T16:41:43.996Z</time></trkpt><trkpt lat="37.9447461" lon="14.0706107"><ele>415.0</ele><time>2026-04-28T16:41:44.995Z</time></trkpt><trkpt lat="37.9447652" lon="14.0707352"><ele>411.0</ele><time>2026-04-28T16:41:46.995Z</time></trkpt><trkpt lat="37.9447083" lon="14.0708616"><ele>407.25</ele><time>2026-04-28T16:41:48.996Z</time></trkpt><trkpt lat="37.944643" lon="14.0709926"><ele>403.5</ele><time>2026-04-28T16:41:50.995Z</time></trkpt><trkpt lat="37.9446106" lon="14.071135"><ele>399.75</ele><time>2026-04-28T16:41:52.996Z</time></trkpt><trkpt lat="37.9446228" lon="14.0712847"><ele>396.0</ele><time>2026-04-28T16:41:54.996Z</time></trkpt><trkpt lat="37.9446605" lon="14.0714178"><ele>396.0</ele><time>2026-04-28T16:41:56.996Z</time></trkpt><trkpt lat="37.9446961" lon="14.0715436"><ele>396.0</ele><time>2026-04-28T16:41:58.995Z</time></trkpt><trkpt lat="37.9447294" lon="14.071679"><ele>396.0</ele><time>2026-04-28T16:42:00.995Z</time></trkpt><trkpt lat="37.944762" lon="14.0718074"><ele>396.0</ele><time>2026-04-28T16:42:02.995Z</time></trkpt><trkpt lat="37.9447794" lon="14.0719341"><ele>396.0</ele><time>2026-04-28T16:42:04.996Z</time></trkpt><trkpt lat="37.9447759" lon="14.0720569"><ele>392.20000000000005</ele><time>2026-04-28T16:42:06.996Z</time></trkpt><trkpt lat="37.944767" lon="14.0721681"><ele>388.40000000000003</ele><time>2026-04-28T16:42:08.995Z</time></trkpt><trkpt lat="37.9447661" lon="14.0722756"><ele>384.6</ele><time>2026-04-28T16:42:10.996Z</time></trkpt><trkpt lat="37.9447673" lon="14.0724159"><ele>380.8</ele><time>2026-04-28T16:42:12.996Z</time></trkpt><trkpt lat="37.944756" lon="14.0725372"><ele>377.0</ele><time>2026-04-28T16:42:14.995Z</time></trkpt><trkpt lat="37.9447234" lon="14.072644"><ele>374.20000000000005</ele><time>2026-04-28T16:42:16.996Z</time></trkpt><trkpt lat="37.9446813" lon="14.0727367"><ele>371.4</ele><time>2026-04-28T16:42:18.996Z</time></trkpt><trkpt lat="37.9446332" lon="14.072821"><ele>368.6</ele><time>2026-04-28T16:42:20.996Z</time></trkpt><trkpt lat="37.9445871" lon="14.0729134"><ele>365.79999999999995</ele><time>2026-04-28T16:42:22.995Z</time></trkpt><trkpt lat="37.9445496" lon="14.0730081"><ele>363.0</ele><time>2026-04-28T16:42:24.996Z</time></trkpt><trkpt lat="37.9444906" lon="14.0731405"><ele>363.0</ele><time>2026-04-28T16:42:27.996Z</time></trkpt><trkpt lat="37.944451" lon="14.0732376"><ele>363.0</ele><time>2026-04-28T16:42:29.996Z</time></trkpt><trkpt lat="37.9444112" lon="14.0733408"><ele>363.0</ele><time>2026-04-28T16:42:31.996Z</time></trkpt><trkpt lat="37.9443709" lon="14.0734524"><ele>363.0</ele><time>2026-04-28T16:42:33.996Z</time></trkpt><trkpt lat="37.9443134" lon="14.0735694"><ele>363.0</ele><time>2026-04-28T16:42:35.996Z</time></trkpt><trkpt lat="37.9442764" lon="14.0736408"><ele>359.79999999999995</ele><time>2026-04-28T16:42:37.996Z</time></trkpt><trkpt lat="37.9441752" lon="14.0737117"><ele>356.6</ele><time>2026-04-28T16:42:40.996Z</time></trkpt><trkpt lat="37.9441138" lon="14.0737388"><ele>353.4</ele><time>2026-04-28T16:42:41.996Z</time></trkpt><trkpt lat="37.9440473" lon="14.0737815"><ele>350.20000000000005</ele><time>2026-04-28T16:42:42.996Z</time></trkpt><trkpt lat="37.9439687" lon="14.0738531"><ele>347.0</ele><time>2026-04-28T16:42:43.996Z</time></trkpt><trkpt lat="37.9438895" lon="14.0739268"><ele>347.0</ele><time>2026-04-28T16:42:44.996Z</time></trkpt><trkpt lat="37.9438176" lon="14.0740052"><ele>347.0</ele><time>2026-04-28T16:42:45.996Z</time></trkpt><trkpt lat="37.9437532" lon="14.0740834"><ele>347.0</ele><time>2026-04-28T16:42:46.996Z</time></trkpt><trkpt lat="37.9436946" lon="14.0741515"><ele>347.0</ele><time>2026-04-28T16:42:47.996Z</time></trkpt><trkpt lat="37.9436417" lon="14.0742311"><ele>347.0</ele><time>2026-04-28T16:42:48.996Z</time></trkpt><trkpt lat="37.9435962" lon="14.0743325"><ele>347.0</ele><time>2026-04-28T16:42:49.996Z</time></trkpt><trkpt lat="37.943561" lon="14.0744554"><ele>346.0</ele><time>2026-04-28T16:42:50.996Z</time></trkpt><trkpt lat="37.9435295" lon="14.0745895"><ele>345.0</ele><time>2026-04-28T16:42:51.995Z</time></trkpt><trkpt lat="37.9434983" lon="14.0747409"><ele>344.0</ele><time>2026-04-28T16:42:52.996Z</time></trkpt><trkpt lat="37.9434603" lon="14.0749112"><ele>343.0</ele><time>2026-04-28T16:42:53.996Z</time></trkpt><trkpt lat="37.9434145" lon="14.075098"><ele>340.66666666666663</ele><time>2026-04-28T16:42:54.996Z</time></trkpt><trkpt lat="37.9433685" lon="14.0752941"><ele>338.3333333333333</ele><time>2026-04-28T16:42:55.995Z</time></trkpt><trkpt lat="37.9433196" lon="14.0754889"><ele>336.0</ele><time>2026-04-28T16:42:56.995Z</time></trkpt><trkpt lat="37.9432693" lon="14.0756764"><ele>334.0</ele><time>2026-04-28T16:42:57.995Z</time></trkpt><trkpt lat="37.9432217" lon="14.0758544"><ele>332.0</ele><time>2026-04-28T16:42:58.996Z</time></trkpt><trkpt lat="37.9431733" lon="14.076025"><ele>330.0</ele><time>2026-04-28T16:42:59.996Z</time></trkpt><trkpt lat="37.9431251" lon="14.0761965"><ele>328.0</ele><time>2026-04-28T16:43:00.996Z</time></trkpt><trkpt lat="37.9430715" lon="14.0763731"><ele>328.0</ele><time>2026-04-28T16:43:01.996Z</time></trkpt><trkpt lat="37.9430085" lon="14.0765558"><ele>328.0</ele><time>2026-04-28T16:43:02.995Z</time></trkpt><trkpt lat="37.9429366" lon="14.0767419"><ele>328.0</ele><time>2026-04-28T16:43:03.996Z</time></trkpt><trkpt lat="37.9428536" lon="14.0769258"><ele>326.3333333333333</ele><time>2026-04-28T16:43:04.996Z</time></trkpt><trkpt lat="37.9427668" lon="14.0771045"><ele>324.6666666666667</ele><time>2026-04-28T16:43:05.996Z</time></trkpt><trkpt lat="37.942683" lon="14.0772833"><ele>323.0</ele><time>2026-04-28T16:43:06.996Z</time></trkpt><trkpt lat="37.9426028" lon="14.0774572"><ele>323.5</ele><time>2026-04-28T16:43:07.995Z</time></trkpt><trkpt lat="37.942528" lon="14.0776222"><ele>324.0</ele><time>2026-04-28T16:43:08.996Z</time></trkpt><trkpt lat="37.9424578" lon="14.07778"><ele>324.5</ele><time>2026-04-28T16:43:09.996Z</time></trkpt><trkpt lat="37.9423913" lon="14.0779282"><ele>325.0</ele><time>2026-04-28T16:43:10.996Z</time></trkpt><trkpt lat="37.9423258" lon="14.0780737"><ele>325.0</ele><time>2026-04-28T16:43:11.995Z</time></trkpt><trkpt lat="37.9422636" lon="14.0782097"><ele>325.0</ele><time>2026-04-28T16:43:12.995Z</time></trkpt><trkpt lat="37.9422035" lon="14.0783419"><ele>325.0</ele><time>2026-04-28T16:43:13.996Z</time></trkpt><trkpt lat="37.9421595" lon="14.0784752"><ele>325.0</ele><time>2026-04-28T16:43:14.996Z</time></trkpt><trkpt lat="37.9421338" lon="14.0786103"><ele>325.25</ele><time>2026-04-28T16:43:15.996Z</time></trkpt><trkpt lat="37.9421235" lon="14.0787667"><ele>325.5</ele><time>2026-04-28T16:43:16.996Z</time></trkpt><trkpt lat="37.9421191" lon="14.0789348"><ele>325.75</ele><time>2026-04-28T16:43:17.996Z</time></trkpt><trkpt lat="37.9421155" lon="14.0790992"><ele>326.0</ele><time>2026-04-28T16:43:18.996Z</time></trkpt><trkpt lat="37.9421157" lon="14.0792585"><ele>326.0</ele><time>2026-04-28T16:43:19.995Z</time></trkpt><trkpt lat="37.9421111" lon="14.0794062"><ele>326.0</ele><time>2026-04-28T16:43:20.996Z</time></trkpt><trkpt lat="37.9421105" lon="14.0795458"><ele>326.0</ele><time>2026-04-28T16:43:21.996Z</time></trkpt><trkpt lat="37.942104" lon="14.0796755"><ele>326.0</ele><time>2026-04-28T16:43:22.996Z</time></trkpt><trkpt lat="37.9420892" lon="14.0798032"><ele>326.0</ele><time>2026-04-28T16:43:23.996Z</time></trkpt><trkpt lat="37.9420658" lon="14.0799225"><ele>325.8</ele><time>2026-04-28T16:43:24.996Z</time></trkpt><trkpt lat="37.9420234" lon="14.080032"><ele>325.6</ele><time>2026-04-28T16:43:25.996Z</time></trkpt><trkpt lat="37.9419674" lon="14.0801178"><ele>325.4</ele><time>2026-04-28T16:43:26.996Z</time></trkpt><trkpt lat="37.9419057" lon="14.0802003"><ele>325.2</ele><time>2026-04-28T16:43:27.995Z</time></trkpt><trkpt lat="37.9418523" lon="14.0802925"><ele>325.0</ele><time>2026-04-28T16:43:28.996Z</time></trkpt><trkpt lat="37.9418181" lon="14.0803992"><ele>325.0</ele><time>2026-04-28T16:43:29.996Z</time></trkpt><trkpt lat="37.9417915" lon="14.0805146"><ele>325.0</ele><time>2026-04-28T16:43:30.995Z</time></trkpt><trkpt lat="37.9417557" lon="14.0806362"><ele>325.0</ele><time>2026-04-28T16:43:31.996Z</time></trkpt><trkpt lat="37.9417041" lon="14.0807684"><ele>325.0</ele><time>2026-04-28T16:43:32.996Z</time></trkpt><trkpt lat="37.9416213" lon="14.080884"><ele>325.0</ele><time>2026-04-28T16:43:33.995Z</time></trkpt><trkpt lat="37.9415212" lon="14.0810025"><ele>321.0</ele><time>2026-04-28T16:43:34.996Z</time></trkpt><trkpt lat="37.9414215" lon="14.0811181"><ele>317.0</ele><time>2026-04-28T16:43:35.996Z</time></trkpt><trkpt lat="37.9413239" lon="14.0812232"><ele>313.0</ele><time>2026-04-28T16:43:36.996Z</time></trkpt><trkpt lat="37.9412284" lon="14.0813239"><ele>309.0</ele><time>2026-04-28T16:43:37.996Z</time></trkpt><trkpt lat="37.9411372" lon="14.081425"><ele>309.0</ele><time>2026-04-28T16:43:38.996Z</time></trkpt><trkpt lat="37.9410467" lon="14.0815215"><ele>309.0</ele><time>2026-04-28T16:43:39.996Z</time></trkpt><trkpt lat="37.9409691" lon="14.0816181"><ele>309.0</ele><time>2026-04-28T16:43:40.995Z</time></trkpt><trkpt lat="37.9409017" lon="14.0817242"><ele>309.0</ele><time>2026-04-28T16:43:41.996Z</time></trkpt><trkpt lat="37.9408461" lon="14.0818481"><ele>309.0</ele><time>2026-04-28T16:43:42.995Z</time></trkpt><trkpt lat="37.9408046" lon="14.0819982"><ele>304.25</ele><time>2026-04-28T16:43:43.996Z</time></trkpt><trkpt lat="37.9407605" lon="14.0821654"><ele>299.5</ele><time>2026-04-28T16:43:44.996Z</time></trkpt><trkpt lat="37.9407062" lon="14.0823369"><ele>294.75</ele><time>2026-04-28T16:43:45.996Z</time></trkpt><trkpt lat="37.9406412" lon="14.0825151"><ele>290.0</ele><time>2026-04-28T16:43:46.996Z</time></trkpt><trkpt lat="37.9405747" lon="14.082692"><ele>289.75</ele><time>2026-04-28T16:43:47.995Z</time></trkpt><trkpt lat="37.9405084" lon="14.0828615"><ele>289.5</ele><time>2026-04-28T16:43:48.996Z</time></trkpt><trkpt lat="37.9404367" lon="14.0830145"><ele>289.25</ele><time>2026-04-28T16:43:49.996Z</time></trkpt><trkpt lat="37.9403607" lon="14.083143"><ele>289.0</ele><time>2026-04-28T16:43:50.996Z</time></trkpt><trkpt lat="37.940272" lon="14.083246"><ele>288.25</ele><time>2026-04-28T16:43:51.996Z</time></trkpt><trkpt lat="37.9401683" lon="14.0833299"><ele>287.5</ele><time>2026-04-28T16:43:52.996Z</time></trkpt><trkpt lat="37.9400551" lon="14.0833967"><ele>286.75</ele><time>2026-04-28T16:43:53.996Z</time></trkpt><trkpt lat="37.9399401" lon="14.0834672"><ele>286.0</ele><time>2026-04-28T16:43:54.996Z</time></trkpt><trkpt lat="37.9398355" lon="14.0835644"><ele>286.0</ele><time>2026-04-28T16:43:55.996Z</time></trkpt><trkpt lat="37.9397385" lon="14.0836811"><ele>286.0</ele><time>2026-04-28T16:43:56.996Z</time></trkpt><trkpt lat="37.9396453" lon="14.0837972"><ele>286.0</ele><time>2026-04-28T16:43:57.995Z</time></trkpt><trkpt lat="37.9395374" lon="14.0838822"><ele>286.0</ele><time>2026-04-28T16:43:58.996Z</time></trkpt><trkpt lat="37.9394288" lon="14.083958"><ele>286.0</ele><time>2026-04-28T16:43:59.996Z</time></trkpt><trkpt lat="37.9393259" lon="14.0840515"><ele>286.0</ele><time>2026-04-28T16:44:00.996Z</time></trkpt><trkpt lat="37.9392275" lon="14.0841763"><ele>286.0</ele><time>2026-04-28T16:44:01.995Z</time></trkpt><trkpt lat="37.9391318" lon="14.084327"><ele>286.0</ele><time>2026-04-28T16:44:02.996Z</time></trkpt><trkpt lat="37.9390394" lon="14.0844815"><ele>287.75</ele><time>2026-04-28T16:44:03.996Z</time></trkpt><trkpt lat="37.9389576" lon="14.0846216"><ele>289.5</ele><time>2026-04-28T16:44:04.996Z</time></trkpt><trkpt lat="37.9388885" lon="14.0847442"><ele>291.25</ele><time>2026-04-28T16:44:05.996Z</time></trkpt><trkpt lat="37.9388454" lon="14.0848582"><ele>293.0</ele><time>2026-04-28T16:44:06.996Z</time></trkpt><trkpt lat="37.9388284" lon="14.0849807"><ele>293.0</ele><time>2026-04-28T16:44:07.996Z</time></trkpt><trkpt lat="37.9388187" lon="14.0851037"><ele>293.0</ele><time>2026-04-28T16:44:08.995Z</time></trkpt><trkpt lat="37.9387864" lon="14.0852061"><ele>293.0</ele><time>2026-04-28T16:44:09.996Z</time></trkpt><trkpt lat="37.9387223" lon="14.0852928"><ele>293.0</ele><time>2026-04-28T16:44:10.996Z</time></trkpt><trkpt lat="37.9386286" lon="14.0853858"><ele>293.0</ele><time>2026-04-28T16:44:11.996Z</time></trkpt><trkpt lat="37.9385217" lon="14.0854801"><ele>293.0</ele><time>2026-04-28T16:44:12.996Z</time></trkpt><trkpt lat="37.9384088" lon="14.0855739"><ele>293.0</ele><time>2026-04-28T16:44:13.996Z</time></trkpt><trkpt lat="37.9382976" lon="14.0856487"><ele>293.0</ele><time>2026-04-28T16:44:14.996Z</time></trkpt><trkpt lat="37.9381844" lon="14.085693"><ele>293.0</ele><time>2026-04-28T16:44:15.995Z</time></trkpt><trkpt lat="37.9380725" lon="14.0857258"><ele>296.25</ele><time>2026-04-28T16:44:16.995Z</time></trkpt><trkpt lat="37.9379616" lon="14.0857615"><ele>299.5</ele><time>2026-04-28T16:44:17.995Z</time></trkpt><trkpt lat="37.937852" lon="14.0858008"><ele>302.75</ele><time>2026-04-28T16:44:18.996Z</time></trkpt><trkpt lat="37.9377429" lon="14.085841"><ele>306.0</ele><time>2026-04-28T16:44:19.996Z</time></trkpt><trkpt lat="37.9376365" lon="14.0858742"><ele>307.6666666666667</ele><time>2026-04-28T16:44:20.996Z</time></trkpt><trkpt lat="37.9375352" lon="14.0858975"><ele>309.3333333333333</ele><time>2026-04-28T16:44:21.996Z</time></trkpt><trkpt lat="37.937448" lon="14.0859221"><ele>311.0</ele><time>2026-04-28T16:44:22.995Z</time></trkpt><trkpt lat="37.9373697" lon="14.0859446"><ele>312.66666666666663</ele><time>2026-04-28T16:44:23.996Z</time></trkpt><trkpt lat="37.9373006" lon="14.0859665"><ele>314.3333333333333</ele><time>2026-04-28T16:44:24.996Z</time></trkpt><trkpt lat="37.9372301" lon="14.0859761"><ele>316.0</ele><time>2026-04-28T16:44:25.996Z</time></trkpt><trkpt lat="37.9371309" lon="14.0859856"><ele>316.0</ele><time>2026-04-28T16:44:27.996Z</time></trkpt><trkpt lat="37.9370851" lon="14.0860591"><ele>316.0</ele><time>2026-04-28T16:44:36.995Z</time></trkpt><trkpt lat="37.9371084" lon="14.0862085"><ele>316.0</ele><time>2026-04-28T16:44:38.994Z</time></trkpt><trkpt lat="37.9371387" lon="14.0863562"><ele>316.0</ele><time>2026-04-28T16:44:40.995Z</time></trkpt><trkpt lat="37.937155" lon="14.0864545"><ele>316.0</ele><time>2026-04-28T16:44:41.995Z</time></trkpt><trkpt lat="37.9371695" lon="14.0865594"><ele>316.0</ele><time>2026-04-28T16:44:42.995Z</time></trkpt><trkpt lat="37.9371888" lon="14.086671"><ele>316.0</ele><time>2026-04-28T16:44:43.995Z</time></trkpt><trkpt lat="37.937208" lon="14.0867875"><ele>316.0</ele><time>2026-04-28T16:44:44.995Z</time></trkpt><trkpt lat="37.9372273" lon="14.0869105"><ele>316.0</ele><time>2026-04-28T16:44:45.994Z</time></trkpt><trkpt lat="37.9372495" lon="14.0870306"><ele>316.0</ele><time>2026-04-28T16:44:46.995Z</time></trkpt><trkpt lat="37.9372745" lon="14.0871456"><ele>316.0</ele><time>2026-04-28T16:44:47.995Z</time></trkpt><trkpt lat="37.9373036" lon="14.0872624"><ele>316.0</ele><time>2026-04-28T16:44:48.995Z</time></trkpt><trkpt lat="37.9373402" lon="14.0873727"><ele>316.0</ele><time>2026-04-28T16:44:49.995Z</time></trkpt><trkpt lat="37.9373781" lon="14.0874844"><ele>316.0</ele><time>2026-04-28T16:44:50.994Z</time></trkpt><trkpt lat="37.937414" lon="14.0875983"><ele>316.0</ele><time>2026-04-28T16:44:51.995Z</time></trkpt><trkpt lat="37.9374506" lon="14.0877146"><ele>316.6</ele><time>2026-04-28T16:44:52.995Z</time></trkpt><trkpt lat="37.9374883" lon="14.0878335"><ele>317.20000000000005</ele><time>2026-04-28T16:44:53.994Z</time></trkpt><trkpt lat="37.9375214" lon="14.0879526"><ele>317.79999999999995</ele><time>2026-04-28T16:44:54.995Z</time></trkpt><trkpt lat="37.9375572" lon="14.0880778"><ele>318.4</ele><time>2026-04-28T16:44:55.995Z</time></trkpt><trkpt lat="37.9375884" lon="14.0882024"><ele>319.0</ele><time>2026-04-28T16:44:56.994Z</time></trkpt><trkpt lat="37.9376134" lon="14.0883302"><ele>320.2</ele><time>2026-04-28T16:44:57.995Z</time></trkpt><trkpt lat="37.9376248" lon="14.0884623"><ele>321.4</ele><time>2026-04-28T16:44:58.995Z</time></trkpt><trkpt lat="37.9376207" lon="14.088593"><ele>322.6</ele><time>2026-04-28T16:44:59.995Z</time></trkpt><trkpt lat="37.9376056" lon="14.0887116"><ele>323.8</ele><time>2026-04-28T16:45:00.995Z</time></trkpt><trkpt lat="37.9375765" lon="14.088826"><ele>325.0</ele><time>2026-04-28T16:45:01.995Z</time></trkpt><trkpt lat="37.9375474" lon="14.0889445"><ele>325.0</ele><time>2026-04-28T16:45:02.994Z</time></trkpt><trkpt lat="37.937524" lon="14.089067"><ele>325.0</ele><time>2026-04-28T16:45:03.995Z</time></trkpt><trkpt lat="37.9375135" lon="14.0892141"><ele>325.0</ele><time>2026-04-28T16:45:04.995Z</time></trkpt><trkpt lat="37.9375227" lon="14.0893538"><ele>325.0</ele><time>2026-04-28T16:45:05.995Z</time></trkpt><trkpt lat="37.9375495" lon="14.089487"><ele>325.0</ele><time>2026-04-28T16:45:06.995Z</time></trkpt><trkpt lat="37.9375958" lon="14.089615"><ele>322.25</ele><time>2026-04-28T16:45:07.995Z</time></trkpt><trkpt lat="37.9376542" lon="14.0897295"><ele>319.5</ele><time>2026-04-28T16:45:08.995Z</time></trkpt><trkpt lat="37.9377316" lon="14.0898387"><ele>316.75</ele><time>2026-04-28T16:45:09.995Z</time></trkpt><trkpt lat="37.9378299" lon="14.0899632"><ele>314.0</ele><time>2026-04-28T16:45:10.995Z</time></trkpt><trkpt lat="37.9379468" lon="14.0901098"><ele>314.0</ele><time>2026-04-28T16:45:11.994Z</time></trkpt><trkpt lat="37.9380736" lon="14.090262"><ele>314.0</ele><time>2026-04-28T16:45:12.994Z</time></trkpt><trkpt lat="37.9382076" lon="14.0904307"><ele>314.0</ele><time>2026-04-28T16:45:13.995Z</time></trkpt><trkpt lat="37.9383504" lon="14.0906106"><ele>314.0</ele><time>2026-04-28T16:45:14.994Z</time></trkpt><trkpt lat="37.9384964" lon="14.0907985"><ele>314.0</ele><time>2026-04-28T16:45:15.995Z</time></trkpt><trkpt lat="37.9386517" lon="14.0909906"><ele>314.0</ele><time>2026-04-28T16:45:16.994Z</time></trkpt><trkpt lat="37.938808" lon="14.0911812"><ele>314.0</ele><time>2026-04-28T16:45:17.995Z</time></trkpt><trkpt lat="37.9389542" lon="14.091354"><ele>314.0</ele><time>2026-04-28T16:45:18.994Z</time></trkpt><trkpt lat="37.9390879" lon="14.0915135"><ele>314.0</ele><time>2026-04-28T16:45:19.994Z</time></trkpt><trkpt lat="37.9392074" lon="14.0916534"><ele>314.75</ele><time>2026-04-28T16:45:20.995Z</time></trkpt><trkpt lat="37.9393204" lon="14.0917863"><ele>315.5</ele><time>2026-04-28T16:45:21.995Z</time></trkpt><trkpt lat="37.9394298" lon="14.0919117"><ele>316.25</ele><time>2026-04-28T16:45:22.995Z</time></trkpt><trkpt lat="37.9395382" lon="14.0920284"><ele>317.0</ele><time>2026-04-28T16:45:23.995Z</time></trkpt><trkpt lat="37.9396472" lon="14.092146"><ele>317.0</ele><time>2026-04-28T16:45:24.995Z</time></trkpt><trkpt lat="37.9397544" lon="14.0922638"><ele>317.0</ele><time>2026-04-28T16:45:25.995Z</time></trkpt><trkpt lat="37.9398523" lon="14.0923869"><ele>317.0</ele><time>2026-04-28T16:45:26.995Z</time></trkpt><trkpt lat="37.9399395" lon="14.0925046"><ele>317.0</ele><time>2026-04-28T16:45:27.995Z</time></trkpt><trkpt lat="37.9400117" lon="14.0926231"><ele>318.4</ele><time>2026-04-28T16:45:28.995Z</time></trkpt><trkpt lat="37.9400496" lon="14.0927425"><ele>319.79999999999995</ele><time>2026-04-28T16:45:29.994Z</time></trkpt><trkpt lat="37.9400668" lon="14.0928522"><ele>321.2</ele><time>2026-04-28T16:45:30.995Z</time></trkpt><trkpt lat="37.9400625" lon="14.092966"><ele>322.59999999999997</ele><time>2026-04-28T16:45:31.994Z</time></trkpt><trkpt lat="37.940047" lon="14.0930753"><ele>324.0</ele><time>2026-04-28T16:45:32.995Z</time></trkpt><trkpt lat="37.9400313" lon="14.0931794"><ele>324.8333333333333</ele><time>2026-04-28T16:45:33.995Z</time></trkpt><trkpt lat="37.9400141" lon="14.093271"><ele>325.6666666666667</ele><time>2026-04-28T16:45:34.994Z</time></trkpt><trkpt lat="37.9400039" lon="14.0934034"><ele>326.5</ele><time>2026-04-28T16:45:36.994Z</time></trkpt><trkpt lat="37.9401101" lon="14.0934938"><ele>327.33333333333337</ele><time>2026-04-28T16:46:01.995Z</time></trkpt><trkpt lat="37.9401741" lon="14.0935084"><ele>328.1666666666667</ele><time>2026-04-28T16:46:02.995Z</time></trkpt><trkpt lat="37.9402437" lon="14.093514"><ele>329.0</ele><time>2026-04-28T16:46:03.995Z</time></trkpt><trkpt lat="37.9403169" lon="14.0935294"><ele>329.0</ele><time>2026-04-28T16:46:04.995Z</time></trkpt><trkpt lat="37.9404123" lon="14.0935653"><ele>329.0</ele><time>2026-04-28T16:46:05.994Z</time></trkpt><trkpt lat="37.9405182" lon="14.0936244"><ele>329.0</ele><time>2026-04-28T16:46:06.995Z</time></trkpt><trkpt lat="37.9406179" lon="14.0937067"><ele>329.0</ele><time>2026-04-28T16:46:07.995Z</time></trkpt><trkpt lat="37.9406967" lon="14.093796"><ele>329.0</ele><time>2026-04-28T16:46:08.995Z</time></trkpt><trkpt lat="37.9407712" lon="14.0939015"><ele>329.0</ele><time>2026-04-28T16:46:09.995Z</time></trkpt><trkpt lat="37.9408246" lon="14.0940244"><ele>329.0</ele><time>2026-04-28T16:46:10.995Z</time></trkpt><trkpt lat="37.9408556" lon="14.0941777"><ele>329.0</ele><time>2026-04-28T16:46:11.995Z</time></trkpt><trkpt lat="37.9408609" lon="14.0943446"><ele>329.0</ele><time>2026-04-28T16:46:12.995Z</time></trkpt><trkpt lat="37.9408305" lon="14.0945128"><ele>328.0</ele><time>2026-04-28T16:46:13.995Z</time></trkpt><trkpt lat="37.9407778" lon="14.0946748"><ele>327.0</ele><time>2026-04-28T16:46:14.994Z</time></trkpt><trkpt lat="37.9407038" lon="14.0948464"><ele>326.0</ele><time>2026-04-28T16:46:15.994Z</time></trkpt><trkpt lat="37.9406215" lon="14.0950235"><ele>325.6666666666667</ele><time>2026-04-28T16:46:16.995Z</time></trkpt><trkpt lat="37.940534" lon="14.0952127"><ele>325.3333333333333</ele><time>2026-04-28T16:46:17.995Z</time></trkpt><trkpt lat="37.9404436" lon="14.0954183"><ele>325.0</ele><time>2026-04-28T16:46:18.995Z</time></trkpt><trkpt lat="37.94035" lon="14.0956344"><ele>323.3333333333333</ele><time>2026-04-28T16:46:19.995Z</time></trkpt><trkpt lat="37.9402523" lon="14.0958546"><ele>321.6666666666667</ele><time>2026-04-28T16:46:20.995Z</time></trkpt><trkpt lat="37.9401608" lon="14.0960678"><ele>320.0</ele><time>2026-04-28T16:46:21.994Z</time></trkpt><trkpt lat="37.9400743" lon="14.0962775"><ele>319.6666666666667</ele><time>2026-04-28T16:46:22.995Z</time></trkpt><trkpt lat="37.9399866" lon="14.0964845"><ele>319.3333333333333</ele><time>2026-04-28T16:46:23.995Z</time></trkpt><trkpt lat="37.9398967" lon="14.0966855"><ele>319.0</ele><time>2026-04-28T16:46:24.995Z</time></trkpt><trkpt lat="37.9398083" lon="14.0968804"><ele>319.0</ele><time>2026-04-28T16:46:25.995Z</time></trkpt><trkpt lat="37.9397221" lon="14.097061"><ele>319.0</ele><time>2026-04-28T16:46:26.995Z</time></trkpt><trkpt lat="37.9396474" lon="14.0972276"><ele>319.0</ele><time>2026-04-28T16:46:27.995Z</time></trkpt><trkpt lat="37.9395954" lon="14.097376"><ele>319.0</ele><time>2026-04-28T16:46:28.994Z</time></trkpt><trkpt lat="37.9395686" lon="14.0975228"><ele>317.0</ele><time>2026-04-28T16:46:29.995Z</time></trkpt><trkpt lat="37.9395753" lon="14.0976701"><ele>315.0</ele><time>2026-04-28T16:46:30.995Z</time></trkpt><trkpt lat="37.9396204" lon="14.0978206"><ele>313.0</ele><time>2026-04-28T16:46:31.995Z</time></trkpt><trkpt lat="37.9397135" lon="14.0979441"><ele>311.0</ele><time>2026-04-28T16:46:32.995Z</time></trkpt><trkpt lat="37.9398389" lon="14.0980345"><ele>311.0</ele><time>2026-04-28T16:46:33.995Z</time></trkpt><trkpt lat="37.939971" lon="14.0980801"><ele>311.0</ele><time>2026-04-28T16:46:34.995Z</time></trkpt><trkpt lat="37.9401037" lon="14.0980828"><ele>311.0</ele><time>2026-04-28T16:46:35.995Z</time></trkpt><trkpt lat="37.940245" lon="14.0980547"><ele>311.0</ele><time>2026-04-28T16:46:36.995Z</time></trkpt><trkpt lat="37.9403862" lon="14.0980171"><ele>309.25</ele><time>2026-04-28T16:46:37.994Z</time></trkpt><trkpt lat="37.9405206" lon="14.0979832"><ele>307.5</ele><time>2026-04-28T16:46:38.995Z</time></trkpt><trkpt lat="37.9406495" lon="14.0979507"><ele>305.75</ele><time>2026-04-28T16:46:39.995Z</time></trkpt><trkpt lat="37.9407771" lon="14.0979177"><ele>304.0</ele><time>2026-04-28T16:46:40.995Z</time></trkpt><trkpt lat="37.9408989" lon="14.0978846"><ele>302.2</ele><time>2026-04-28T16:46:41.994Z</time></trkpt><trkpt lat="37.9410126" lon="14.0978622"><ele>300.4</ele><time>2026-04-28T16:46:42.995Z</time></trkpt><trkpt lat="37.941124" lon="14.0978432"><ele>298.6</ele><time>2026-04-28T16:46:43.995Z</time></trkpt><trkpt lat="37.9412263" lon="14.0978188"><ele>296.8</ele><time>2026-04-28T16:46:44.994Z</time></trkpt><trkpt lat="37.9413192" lon="14.0977819"><ele>295.0</ele><time>2026-04-28T16:46:45.995Z</time></trkpt><trkpt lat="37.9414055" lon="14.0977375"><ele>295.0</ele><time>2026-04-28T16:46:46.995Z</time></trkpt><trkpt lat="37.9414884" lon="14.0976858"><ele>295.0</ele><time>2026-04-28T16:46:47.995Z</time></trkpt><trkpt lat="37.9415718" lon="14.0976204"><ele>295.0</ele><time>2026-04-28T16:46:48.995Z</time></trkpt><trkpt lat="37.9416607" lon="14.0975333"><ele>295.0</ele><time>2026-04-28T16:46:49.995Z</time></trkpt><trkpt lat="37.9417734" lon="14.0974243"><ele>295.0</ele><time>2026-04-28T16:46:50.995Z</time></trkpt><trkpt lat="37.9418982" lon="14.0973099"><ele>292.3333333333333</ele><time>2026-04-28T16:46:51.994Z</time></trkpt><trkpt lat="37.9420273" lon="14.0971902"><ele>289.6666666666667</ele><time>2026-04-28T16:46:52.995Z</time></trkpt><trkpt lat="37.942152" lon="14.0970748"><ele>287.0</ele><time>2026-04-28T16:46:53.995Z</time></trkpt><trkpt lat="37.942277" lon="14.0969726"><ele>287.0</ele><time>2026-04-28T16:46:54.995Z</time></trkpt><trkpt lat="37.9423955" lon="14.0968725"><ele>287.0</ele><time>2026-04-28T16:46:55.995Z</time></trkpt><trkpt lat="37.942488" lon="14.0967779"><ele>287.0</ele><time>2026-04-28T16:46:56.995Z</time></trkpt><trkpt lat="37.9425614" lon="14.0966656"><ele>287.0</ele><time>2026-04-28T16:46:57.995Z</time></trkpt><trkpt lat="37.942598" lon="14.0965235"><ele>283.0</ele><time>2026-04-28T16:46:58.995Z</time></trkpt><trkpt lat="37.9426157" lon="14.0963726"><ele>279.0</ele><time>2026-04-28T16:46:59.995Z</time></trkpt><trkpt lat="37.9426332" lon="14.0962304"><ele>275.0</ele><time>2026-04-28T16:47:00.995Z</time></trkpt><trkpt lat="37.9426931" lon="14.0961036"><ele>271.0</ele><time>2026-04-28T16:47:01.995Z</time></trkpt><trkpt lat="37.9427865" lon="14.0960038"><ele>271.0</ele><time>2026-04-28T16:47:02.995Z</time></trkpt><trkpt lat="37.9429185" lon="14.0958844"><ele>271.0</ele><time>2026-04-28T16:47:03.994Z</time></trkpt><trkpt lat="37.9430642" lon="14.0957443"><ele>271.0</ele><time>2026-04-28T16:47:04.995Z</time></trkpt><trkpt lat="37.9432059" lon="14.0956022"><ele>267.0</ele><time>2026-04-28T16:47:05.995Z</time></trkpt><trkpt lat="37.9433449" lon="14.0954716"><ele>263.0</ele><time>2026-04-28T16:47:06.994Z</time></trkpt><trkpt lat="37.9434716" lon="14.0953528"><ele>259.0</ele><time>2026-04-28T16:47:07.995Z</time></trkpt><trkpt lat="37.9435788" lon="14.0952442"><ele>259.0</ele><time>2026-04-28T16:47:08.994Z</time></trkpt><trkpt lat="37.943665" lon="14.0951385"><ele>259.0</ele><time>2026-04-28T16:47:09.995Z</time></trkpt><trkpt lat="37.9437355" lon="14.095027"><ele>259.0</ele><time>2026-04-28T16:47:10.995Z</time></trkpt><trkpt lat="37.9437853" lon="14.0948933"><ele>259.0</ele><time>2026-04-28T16:47:11.995Z</time></trkpt><trkpt lat="37.9438052" lon="14.0947287"><ele>257.75</ele><time>2026-04-28T16:47:12.995Z</time></trkpt><trkpt lat="37.9438117" lon="14.0945438"><ele>256.5</ele><time>2026-04-28T16:47:13.995Z</time></trkpt><trkpt lat="37.9438076" lon="14.0943601"><ele>255.25</ele><time>2026-04-28T16:47:14.995Z</time></trkpt><trkpt lat="37.943779" lon="14.0941783"><ele>254.0</ele><time>2026-04-28T16:47:15.995Z</time></trkpt><trkpt lat="37.9437367" lon="14.0940144"><ele>252.5</ele><time>2026-04-28T16:47:16.995Z</time></trkpt><trkpt lat="37.9437063" lon="14.09385"><ele>251.0</ele><time>2026-04-28T16:47:17.994Z</time></trkpt><trkpt lat="37.9436939" lon="14.0936829"><ele>249.5</ele><time>2026-04-28T16:47:18.995Z</time></trkpt><trkpt lat="37.9436935" lon="14.0935182"><ele>248.0</ele><time>2026-04-28T16:47:19.995Z</time></trkpt><trkpt lat="37.9436802" lon="14.0933616"><ele>246.5</ele><time>2026-04-28T16:47:20.995Z</time></trkpt><trkpt lat="37.9436366" lon="14.0932157"><ele>245.0</ele><time>2026-04-28T16:47:21.995Z</time></trkpt><trkpt lat="37.9435683" lon="14.0930747"><ele>243.5</ele><time>2026-04-28T16:47:22.995Z</time></trkpt><trkpt lat="37.9434838" lon="14.0929492"><ele>242.0</ele><time>2026-04-28T16:47:23.994Z</time></trkpt><trkpt lat="37.9434016" lon="14.0928229"><ele>245.0</ele><time>2026-04-28T16:47:24.995Z</time></trkpt><trkpt lat="37.9433411" lon="14.0926976"><ele>248.0</ele><time>2026-04-28T16:47:25.995Z</time></trkpt><trkpt lat="37.9433068" lon="14.0925505"><ele>251.0</ele><time>2026-04-28T16:47:26.994Z</time></trkpt><trkpt lat="37.943301" lon="14.0923921"><ele>254.0</ele><time>2026-04-28T16:47:27.995Z</time></trkpt><trkpt lat="37.9433043" lon="14.092232"><ele>254.0</ele><time>2026-04-28T16:47:28.995Z</time></trkpt><trkpt lat="37.9433144" lon="14.0920734"><ele>254.0</ele><time>2026-04-28T16:47:29.995Z</time></trkpt><trkpt lat="37.9433196" lon="14.0919262"><ele>254.0</ele><time>2026-04-28T16:47:30.995Z</time></trkpt><trkpt lat="37.9432986" lon="14.0917678"><ele>254.0</ele><time>2026-04-28T16:47:31.994Z</time></trkpt><trkpt lat="37.9432409" lon="14.0916123"><ele>252.25</ele><time>2026-04-28T16:47:32.995Z</time></trkpt><trkpt lat="37.9431473" lon="14.0914703"><ele>250.5</ele><time>2026-04-28T16:47:33.995Z</time></trkpt><trkpt lat="37.9430513" lon="14.0913467"><ele>248.75</ele><time>2026-04-28T16:47:34.995Z</time></trkpt><trkpt lat="37.9429611" lon="14.0912368"><ele>247.0</ele><time>2026-04-28T16:47:35.994Z</time></trkpt><trkpt lat="37.9428828" lon="14.0911248"><ele>247.0</ele><time>2026-04-28T16:47:36.995Z</time></trkpt><trkpt lat="37.9428242" lon="14.0909969"><ele>247.0</ele><time>2026-04-28T16:47:37.995Z</time></trkpt><trkpt lat="37.9427993" lon="14.0908329"><ele>247.0</ele><time>2026-04-28T16:47:38.995Z</time></trkpt><trkpt lat="37.9427899" lon="14.0906506"><ele>247.0</ele><time>2026-04-28T16:47:39.995Z</time></trkpt><trkpt lat="37.9427985" lon="14.0904251"><ele>247.0</ele><time>2026-04-28T16:47:40.995Z</time></trkpt><trkpt lat="37.9428082" lon="14.0901897"><ele>247.0</ele><time>2026-04-28T16:47:41.995Z</time></trkpt><trkpt lat="37.9428164" lon="14.0899578"><ele>247.0</ele><time>2026-04-28T16:47:42.995Z</time></trkpt><trkpt lat="37.9428228" lon="14.0897332"><ele>246.66666666666666</ele><time>2026-04-28T16:47:43.995Z</time></trkpt><trkpt lat="37.9428294" lon="14.0895222"><ele>246.33333333333331</ele><time>2026-04-28T16:47:44.995Z</time></trkpt><trkpt lat="37.9428349" lon="14.0893247"><ele>246.0</ele><time>2026-04-28T16:47:45.995Z</time></trkpt><trkpt lat="37.9428464" lon="14.0891418"><ele>247.5</ele><time>2026-04-28T16:47:46.995Z</time></trkpt><trkpt lat="37.9428732" lon="14.0889823"><ele>249.0</ele><time>2026-04-28T16:47:47.995Z</time></trkpt><trkpt lat="37.9429263" lon="14.0888436"><ele>250.5</ele><time>2026-04-28T16:47:48.994Z</time></trkpt><trkpt lat="37.9430068" lon="14.0887241"><ele>252.0</ele><time>2026-04-28T16:47:49.995Z</time></trkpt><trkpt lat="37.9431079" lon="14.0886122"><ele>252.0</ele><time>2026-04-28T16:47:50.995Z</time></trkpt><trkpt lat="37.9432243" lon="14.0885045"><ele>252.0</ele><time>2026-04-28T16:47:51.995Z</time></trkpt><trkpt lat="37.9433422" lon="14.0883952"><ele>252.0</ele><time>2026-04-28T16:47:52.994Z</time></trkpt><trkpt lat="37.9434636" lon="14.0882803"><ele>252.0</ele><time>2026-04-28T16:47:53.994Z</time></trkpt><trkpt lat="37.9435828" lon="14.0881569"><ele>251.25</ele><time>2026-04-28T16:47:54.995Z</time></trkpt><trkpt lat="37.943683" lon="14.0880213"><ele>250.5</ele><time>2026-04-28T16:47:55.995Z</time></trkpt><trkpt lat="37.9437512" lon="14.0878768"><ele>249.75</ele><time>2026-04-28T16:47:56.995Z</time></trkpt><trkpt lat="37.9438112" lon="14.0877386"><ele>249.0</ele><time>2026-04-28T16:47:57.995Z</time></trkpt><trkpt lat="37.943875" lon="14.0876078"><ele>249.0</ele><time>2026-04-28T16:47:58.995Z</time></trkpt><trkpt lat="37.943961" lon="14.0875149"><ele>249.0</ele><time>2026-04-28T16:47:59.995Z</time></trkpt><trkpt lat="37.9440669" lon="14.0874694"><ele>249.0</ele><time>2026-04-28T16:48:00.995Z</time></trkpt><trkpt lat="37.9441811" lon="14.0874724"><ele>249.0</ele><time>2026-04-28T16:48:01.994Z</time></trkpt><trkpt lat="37.9443122" lon="14.0875093"><ele>251.0</ele><time>2026-04-28T16:48:02.995Z</time></trkpt><trkpt lat="37.9444671" lon="14.0875761"><ele>253.0</ele><time>2026-04-28T16:48:03.995Z</time></trkpt><trkpt lat="37.9446452" lon="14.0876458"><ele>255.0</ele><time>2026-04-28T16:48:04.995Z</time></trkpt><trkpt lat="37.944835" lon="14.0877119"><ele>255.0</ele><time>2026-04-28T16:48:05.995Z</time></trkpt><trkpt lat="37.945029" lon="14.0877786"><ele>255.0</ele><time>2026-04-28T16:48:06.995Z</time></trkpt><trkpt lat="37.94523" lon="14.0878451"><ele>255.0</ele><time>2026-04-28T16:48:07.995Z</time></trkpt><trkpt lat="37.9454295" lon="14.0879106"><ele>255.0</ele><time>2026-04-28T16:48:08.995Z</time></trkpt><trkpt lat="37.9456267" lon="14.0879754"><ele>255.0</ele><time>2026-04-28T16:48:09.995Z</time></trkpt><trkpt lat="37.9458183" lon="14.088038"><ele>255.0</ele><time>2026-04-28T16:48:10.994Z</time></trkpt><trkpt lat="37.9459995" lon="14.0880957"><ele>253.0</ele><time>2026-04-28T16:48:11.995Z</time></trkpt><trkpt lat="37.9461683" lon="14.0881551"><ele>251.0</ele><time>2026-04-28T16:48:12.995Z</time></trkpt><trkpt lat="37.9463216" lon="14.08823"><ele>249.0</ele><time>2026-04-28T16:48:13.994Z</time></trkpt><trkpt lat="37.9464498" lon="14.0883448"><ele>247.33333333333331</ele><time>2026-04-28T16:48:14.995Z</time></trkpt><trkpt lat="37.9465494" lon="14.0885012"><ele>245.66666666666666</ele><time>2026-04-28T16:48:15.995Z</time></trkpt><trkpt lat="37.9466121" lon="14.0886825"><ele>244.0</ele><time>2026-04-28T16:48:16.994Z</time></trkpt><trkpt lat="37.9466457" lon="14.0888877"><ele>244.0</ele><time>2026-04-28T16:48:17.995Z</time></trkpt><trkpt lat="37.9466721" lon="14.0891226"><ele>244.0</ele><time>2026-04-28T16:48:18.994Z</time></trkpt><trkpt lat="37.9467052" lon="14.0893741"><ele>244.0</ele><time>2026-04-28T16:48:19.995Z</time></trkpt><trkpt lat="37.9467463" lon="14.0896256"><ele>244.0</ele><time>2026-04-28T16:48:20.995Z</time></trkpt><trkpt lat="37.9467873" lon="14.08988"><ele>244.0</ele><time>2026-04-28T16:48:21.994Z</time></trkpt><trkpt lat="37.9468274" lon="14.0901229"><ele>244.0</ele><time>2026-04-28T16:48:22.995Z</time></trkpt><trkpt lat="37.9468655" lon="14.0903535"><ele>244.66666666666666</ele><time>2026-04-28T16:48:23.995Z</time></trkpt><trkpt lat="37.9469021" lon="14.0905765"><ele>245.33333333333331</ele><time>2026-04-28T16:48:24.995Z</time></trkpt><trkpt lat="37.9469359" lon="14.0907921"><ele>246.0</ele><time>2026-04-28T16:48:25.994Z</time></trkpt><trkpt lat="37.9469704" lon="14.0909981"><ele>245.0</ele><time>2026-04-28T16:48:26.995Z</time></trkpt><trkpt lat="37.9470002" lon="14.0911915"><ele>244.0</ele><time>2026-04-28T16:48:27.995Z</time></trkpt><trkpt lat="37.9470172" lon="14.0913758"><ele>243.0</ele><time>2026-04-28T16:48:28.994Z</time></trkpt><trkpt lat="37.947009" lon="14.0915422"><ele>242.0</ele><time>2026-04-28T16:48:29.995Z</time></trkpt><trkpt lat="37.9469734" lon="14.0917028"><ele>241.0</ele><time>2026-04-28T16:48:30.994Z</time></trkpt><trkpt lat="37.9469197" lon="14.0918686"><ele>240.0</ele><time>2026-04-28T16:48:31.995Z</time></trkpt><trkpt lat="37.9468559" lon="14.0920447"><ele>239.0</ele><time>2026-04-28T16:48:32.995Z</time></trkpt><trkpt lat="37.9467941" lon="14.0922237"><ele>238.0</ele><time>2026-04-28T16:48:33.995Z</time></trkpt><trkpt lat="37.9467339" lon="14.0923961"><ele>235.5</ele><time>2026-04-28T16:48:34.995Z</time></trkpt><trkpt lat="37.9466768" lon="14.0925588"><ele>233.0</ele><time>2026-04-28T16:48:35.995Z</time></trkpt><trkpt lat="37.9466292" lon="14.0927069"><ele>230.5</ele><time>2026-04-28T16:48:36.995Z</time></trkpt><trkpt lat="37.946597" lon="14.0928387"><ele>228.0</ele><time>2026-04-28T16:48:37.995Z</time></trkpt><trkpt lat="37.9465958" lon="14.0929591"><ele>228.0</ele><time>2026-04-28T16:48:38.995Z</time></trkpt><trkpt lat="37.9466484" lon="14.0930602"><ele>228.0</ele><time>2026-04-28T16:48:39.995Z</time></trkpt><trkpt lat="37.9467362" lon="14.0931301"><ele>228.0</ele><time>2026-04-28T16:48:40.995Z</time></trkpt><trkpt lat="37.9468512" lon="14.0931527"><ele>228.0</ele><time>2026-04-28T16:48:41.994Z</time></trkpt><trkpt lat="37.9469871" lon="14.0931556"><ele>227.0</ele><time>2026-04-28T16:48:42.995Z</time></trkpt><trkpt lat="37.9471293" lon="14.0931607"><ele>226.0</ele><time>2026-04-28T16:48:43.995Z</time></trkpt><trkpt lat="37.9472718" lon="14.0931759"><ele>225.0</ele><time>2026-04-28T16:48:44.994Z</time></trkpt><trkpt lat="37.9474213" lon="14.0932266"><ele>224.0</ele><time>2026-04-28T16:48:45.995Z</time></trkpt><trkpt lat="37.9475667" lon="14.0933032"><ele>224.0</ele><time>2026-04-28T16:48:46.995Z</time></trkpt><trkpt lat="37.9477" lon="14.0934014"><ele>224.0</ele><time>2026-04-28T16:48:47.995Z</time></trkpt><trkpt lat="37.947814" lon="14.0935072"><ele>224.0</ele><time>2026-04-28T16:48:48.995Z</time></trkpt><trkpt lat="37.9479165" lon="14.0936446"><ele>224.0</ele><time>2026-04-28T16:48:49.995Z</time></trkpt><trkpt lat="37.9480129" lon="14.0938166"><ele>224.0</ele><time>2026-04-28T16:48:50.995Z</time></trkpt><trkpt lat="37.9481129" lon="14.0939944"><ele>224.0</ele><time>2026-04-28T16:48:51.995Z</time></trkpt><trkpt lat="37.9482229" lon="14.0941728"><ele>224.0</ele><time>2026-04-28T16:48:52.995Z</time></trkpt><trkpt lat="37.9483403" lon="14.0943273"><ele>220.66666666666669</ele><time>2026-04-28T16:48:53.994Z</time></trkpt><trkpt lat="37.9484665" lon="14.0944697"><ele>217.33333333333331</ele><time>2026-04-28T16:48:54.995Z</time></trkpt><trkpt lat="37.948604" lon="14.094598"><ele>214.0</ele><time>2026-04-28T16:48:55.995Z</time></trkpt><trkpt lat="37.9487356" lon="14.0947163"><ele>214.0</ele><time>2026-04-28T16:48:56.995Z</time></trkpt><trkpt lat="37.9488613" lon="14.0948298"><ele>214.0</ele><time>2026-04-28T16:48:57.995Z</time></trkpt><trkpt lat="37.9489732" lon="14.0949298"><ele>214.0</ele><time>2026-04-28T16:48:58.995Z</time></trkpt><trkpt lat="37.9490794" lon="14.0949929"><ele>214.0</ele><time>2026-04-28T16:48:59.995Z</time></trkpt><trkpt lat="37.94918" lon="14.0949918"><ele>211.6</ele><time>2026-04-28T16:49:00.995Z</time></trkpt><trkpt lat="37.9492556" lon="14.0949338"><ele>209.2</ele><time>2026-04-28T16:49:01.995Z</time></trkpt><trkpt lat="37.949333" lon="14.0948472"><ele>206.79999999999998</ele><time>2026-04-28T16:49:02.995Z</time></trkpt><trkpt lat="37.9494067" lon="14.0947358"><ele>204.39999999999998</ele><time>2026-04-28T16:49:03.995Z</time></trkpt><trkpt lat="37.9494709" lon="14.0946136"><ele>202.0</ele><time>2026-04-28T16:49:04.995Z</time></trkpt><trkpt lat="37.9495434" lon="14.0944979"><ele>202.0</ele><time>2026-04-28T16:49:05.995Z</time></trkpt><trkpt lat="37.9496323" lon="14.09442"><ele>202.0</ele><time>2026-04-28T16:49:06.995Z</time></trkpt><trkpt lat="37.9497336" lon="14.0943883"><ele>202.0</ele><time>2026-04-28T16:49:07.994Z</time></trkpt><trkpt lat="37.9498559" lon="14.094409"><ele>202.0</ele><time>2026-04-28T16:49:08.995Z</time></trkpt><trkpt lat="37.9499954" lon="14.0944733"><ele>200.33333333333331</ele><time>2026-04-28T16:49:09.995Z</time></trkpt><trkpt lat="37.9501306" lon="14.0945716"><ele>198.66666666666669</ele><time>2026-04-28T16:49:10.995Z</time></trkpt><trkpt lat="37.9502614" lon="14.0946624"><ele>197.0</ele><time>2026-04-28T16:49:11.995Z</time></trkpt><trkpt lat="37.9503951" lon="14.0947495"><ele>197.0</ele><time>2026-04-28T16:49:12.995Z</time></trkpt><trkpt lat="37.950529" lon="14.0948404"><ele>197.0</ele><time>2026-04-28T16:49:13.994Z</time></trkpt><trkpt lat="37.9506672" lon="14.0949319"><ele>197.0</ele><time>2026-04-28T16:49:14.994Z</time></trkpt><trkpt lat="37.950806" lon="14.0950271"><ele>202.0</ele><time>2026-04-28T16:49:15.994Z</time></trkpt><trkpt lat="37.9509462" lon="14.0951173"><ele>207.0</ele><time>2026-04-28T16:49:16.994Z</time></trkpt><trkpt lat="37.9510918" lon="14.0952028"><ele>212.0</ele><time>2026-04-28T16:49:17.995Z</time></trkpt><trkpt lat="37.9512333" lon="14.0952926"><ele>212.0</ele><time>2026-04-28T16:49:18.994Z</time></trkpt><trkpt lat="37.9513744" lon="14.0953825"><ele>212.0</ele><time>2026-04-28T16:49:19.995Z</time></trkpt><trkpt lat="37.9515029" lon="14.095464"><ele>212.0</ele><time>2026-04-28T16:49:20.995Z</time></trkpt><trkpt lat="37.951618" lon="14.0955416"><ele>212.0</ele><time>2026-04-28T16:49:21.995Z</time></trkpt><trkpt lat="37.951716" lon="14.0956192"><ele>212.6</ele><time>2026-04-28T16:49:22.995Z</time></trkpt><trkpt lat="37.9518012" lon="14.0957144"><ele>213.2</ele><time>2026-04-28T16:49:23.994Z</time></trkpt><trkpt lat="37.9518626" lon="14.0958052"><ele>213.8</ele><time>2026-04-28T16:49:24.995Z</time></trkpt><trkpt lat="37.9519066" lon="14.0958966"><ele>214.4</ele><time>2026-04-28T16:49:25.995Z</time></trkpt><trkpt lat="37.9519199" lon="14.0960055"><ele>215.0</ele><time>2026-04-28T16:49:26.995Z</time></trkpt><trkpt lat="37.9519012" lon="14.0961349"><ele>215.2</ele><time>2026-04-28T16:49:27.995Z</time></trkpt><trkpt lat="37.9518729" lon="14.0962641"><ele>215.4</ele><time>2026-04-28T16:49:28.994Z</time></trkpt><trkpt lat="37.9518361" lon="14.096389"><ele>215.60000000000002</ele><time>2026-04-28T16:49:29.994Z</time></trkpt><trkpt lat="37.9517976" lon="14.0965098"><ele>215.8</ele><time>2026-04-28T16:49:30.995Z</time></trkpt><trkpt lat="37.9517564" lon="14.0966364"><ele>216.0</ele><time>2026-04-28T16:49:31.995Z</time></trkpt><trkpt lat="37.9517176" lon="14.0967606"><ele>215.8</ele><time>2026-04-28T16:49:32.995Z</time></trkpt><trkpt lat="37.9516798" lon="14.0968841"><ele>215.60000000000002</ele><time>2026-04-28T16:49:33.995Z</time></trkpt><trkpt lat="37.9516501" lon="14.0970131"><ele>215.4</ele><time>2026-04-28T16:49:34.995Z</time></trkpt><trkpt lat="37.9516342" lon="14.0971497"><ele>215.2</ele><time>2026-04-28T16:49:35.995Z</time></trkpt><trkpt lat="37.9516512" lon="14.0973065"><ele>215.0</ele><time>2026-04-28T16:49:36.995Z</time></trkpt><trkpt lat="37.9517093" lon="14.097455"><ele>215.0</ele><time>2026-04-28T16:49:37.994Z</time></trkpt><trkpt lat="37.9517985" lon="14.0976037"><ele>215.0</ele><time>2026-04-28T16:49:38.995Z</time></trkpt><trkpt lat="37.9519195" lon="14.0977061"><ele>215.0</ele><time>2026-04-28T16:49:39.995Z</time></trkpt><trkpt lat="37.9520615" lon="14.0977854"><ele>215.0</ele><time>2026-04-28T16:49:40.995Z</time></trkpt><trkpt lat="37.9522094" lon="14.0978568"><ele>215.0</ele><time>2026-04-28T16:49:41.995Z</time></trkpt><trkpt lat="37.9523564" lon="14.0979326"><ele>215.0</ele><time>2026-04-28T16:49:42.995Z</time></trkpt><trkpt lat="37.9525101" lon="14.0980082"><ele>215.0</ele><time>2026-04-28T16:49:43.994Z</time></trkpt><trkpt lat="37.9526912" lon="14.0980913"><ele>216.66666666666669</ele><time>2026-04-28T16:49:44.995Z</time></trkpt><trkpt lat="37.9528911" lon="14.098183"><ele>218.33333333333331</ele><time>2026-04-28T16:49:45.994Z</time></trkpt><trkpt lat="37.9530845" lon="14.0982854"><ele>220.0</ele><time>2026-04-28T16:49:46.995Z</time></trkpt><trkpt lat="37.9532812" lon="14.0983894"><ele>223.33333333333331</ele><time>2026-04-28T16:49:47.995Z</time></trkpt><trkpt lat="37.9534764" lon="14.0985033"><ele>226.66666666666669</ele><time>2026-04-28T16:49:48.995Z</time></trkpt><trkpt lat="37.9536678" lon="14.098613"><ele>230.0</ele><time>2026-04-28T16:49:49.994Z</time></trkpt><trkpt lat="37.9538528" lon="14.0987122"><ele>230.0</ele><time>2026-04-28T16:49:50.994Z</time></trkpt><trkpt lat="37.9540351" lon="14.0988134"><ele>230.0</ele><time>2026-04-28T16:49:51.995Z</time></trkpt><trkpt lat="37.9542105" lon="14.0989018"><ele>230.0</ele><time>2026-04-28T16:49:52.995Z</time></trkpt><trkpt lat="37.954375" lon="14.0989933"><ele>232.0</ele><time>2026-04-28T16:49:53.995Z</time></trkpt><trkpt lat="37.9545104" lon="14.099111"><ele>234.0</ele><time>2026-04-28T16:49:54.995Z</time></trkpt><trkpt lat="37.9546254" lon="14.0992521"><ele>236.0</ele><time>2026-04-28T16:49:55.995Z</time></trkpt><trkpt lat="37.9547305" lon="14.0994182"><ele>236.0</ele><time>2026-04-28T16:49:56.995Z</time></trkpt><trkpt lat="37.954817" lon="14.0996101"><ele>236.0</ele><time>2026-04-28T16:49:57.995Z</time></trkpt><trkpt lat="37.9548841" lon="14.099833"><ele>236.0</ele><time>2026-04-28T16:49:58.995Z</time></trkpt><trkpt lat="37.9549408" lon="14.1000767"><ele>233.66666666666669</ele><time>2026-04-28T16:49:59.995Z</time></trkpt><trkpt lat="37.9549986" lon="14.1003334"><ele>231.33333333333331</ele><time>2026-04-28T16:50:00.995Z</time></trkpt><trkpt lat="37.9550597" lon="14.1005844"><ele>229.0</ele><time>2026-04-28T16:50:01.995Z</time></trkpt><trkpt lat="37.9551221" lon="14.10083"><ele>234.0</ele><time>2026-04-28T16:50:02.995Z</time></trkpt><trkpt lat="37.9551841" lon="14.1010739"><ele>239.0</ele><time>2026-04-28T16:50:03.994Z</time></trkpt><trkpt lat="37.9552445" lon="14.1013115"><ele>244.0</ele><time>2026-04-28T16:50:04.995Z</time></trkpt><trkpt lat="37.9553012" lon="14.1015379"><ele>244.33333333333331</ele><time>2026-04-28T16:50:05.995Z</time></trkpt><trkpt lat="37.9553557" lon="14.1017627"><ele>244.66666666666669</ele><time>2026-04-28T16:50:06.995Z</time></trkpt><trkpt lat="37.9554057" lon="14.1019643"><ele>245.0</ele><time>2026-04-28T16:50:07.994Z</time></trkpt><trkpt lat="37.9554518" lon="14.102131"><ele>245.0</ele><time>2026-04-28T16:50:08.994Z</time></trkpt><trkpt lat="37.9555097" lon="14.1022584"><ele>245.0</ele><time>2026-04-28T16:50:09.994Z</time></trkpt><trkpt lat="37.9555976" lon="14.1023622"><ele>245.0</ele><time>2026-04-28T16:50:10.994Z</time></trkpt><trkpt lat="37.9556731" lon="14.1023271"><ele>245.0</ele><time>2026-04-28T16:50:11.994Z</time></trkpt><trkpt lat="37.9561622" lon="14.1022795"><ele>245.0</ele><time>2026-04-28T16:50:14.994Z</time></trkpt><trkpt lat="37.9563039" lon="14.1021973"><ele>245.0</ele><time>2026-04-28T16:50:15.995Z</time></trkpt><trkpt lat="37.9564455" lon="14.1021146"><ele>245.0</ele><time>2026-04-28T16:50:16.995Z</time></trkpt><trkpt lat="37.9565839" lon="14.1020623"><ele>246.75</ele><time>2026-04-28T16:50:17.995Z</time></trkpt><trkpt lat="37.9567187" lon="14.1020438"><ele>248.5</ele><time>2026-04-28T16:50:18.994Z</time></trkpt><trkpt lat="37.9568617" lon="14.1020588"><ele>250.25</ele><time>2026-04-28T16:50:19.995Z</time></trkpt><trkpt lat="37.9570202" lon="14.1021088"><ele>252.0</ele><time>2026-04-28T16:50:20.995Z</time></trkpt><trkpt lat="37.9571823" lon="14.102185"><ele>252.0</ele><time>2026-04-28T16:50:21.995Z</time></trkpt><trkpt lat="37.9573333" lon="14.1022648"><ele>252.0</ele><time>2026-04-28T16:50:22.995Z</time></trkpt><trkpt lat="37.957486" lon="14.1023372"><ele>252.0</ele><time>2026-04-28T16:50:23.995Z</time></trkpt><trkpt lat="37.9576528" lon="14.1023967"><ele>249.66666666666669</ele><time>2026-04-28T16:50:24.995Z</time></trkpt><trkpt lat="37.9578272" lon="14.1024388"><ele>247.33333333333334</ele><time>2026-04-28T16:50:25.994Z</time></trkpt><trkpt lat="37.9580106" lon="14.1024575"><ele>245.0</ele><time>2026-04-28T16:50:26.995Z</time></trkpt><trkpt lat="37.9582015" lon="14.1024612"><ele>244.66666666666669</ele><time>2026-04-28T16:50:27.995Z</time></trkpt><trkpt lat="37.9583966" lon="14.1024522"><ele>244.33333333333331</ele><time>2026-04-28T16:50:28.995Z</time></trkpt><trkpt lat="37.9585952" lon="14.1024377"><ele>244.0</ele><time>2026-04-28T16:50:29.995Z</time></trkpt><trkpt lat="37.9587922" lon="14.102423"><ele>248.33333333333331</ele><time>2026-04-28T16:50:30.995Z</time></trkpt><trkpt lat="37.9589904" lon="14.1024097"><ele>252.66666666666669</ele><time>2026-04-28T16:50:31.995Z</time></trkpt><trkpt lat="37.959186" lon="14.1023982"><ele>257.0</ele><time>2026-04-28T16:50:32.995Z</time></trkpt><trkpt lat="37.9593803" lon="14.1023909"><ele>257.0</ele><time>2026-04-28T16:50:33.995Z</time></trkpt><trkpt lat="37.9595593" lon="14.1023782"><ele>257.0</ele><time>2026-04-28T16:50:34.994Z</time></trkpt><trkpt lat="37.9597211" lon="14.1023279"><ele>257.0</ele><time>2026-04-28T16:50:35.995Z</time></trkpt><trkpt lat="37.9598628" lon="14.1022352"><ele>257.0</ele><time>2026-04-28T16:50:36.994Z</time></trkpt><trkpt lat="37.9599977" lon="14.1021006"><ele>257.0</ele><time>2026-04-28T16:50:37.994Z</time></trkpt><trkpt lat="37.9601254" lon="14.1019524"><ele>257.0</ele><time>2026-04-28T16:50:38.994Z</time></trkpt><trkpt lat="37.9602451" lon="14.1018051"><ele>255.33333333333334</ele><time>2026-04-28T16:50:39.995Z</time></trkpt><trkpt lat="37.9603691" lon="14.101686"><ele>253.66666666666669</ele><time>2026-04-28T16:50:40.995Z</time></trkpt><trkpt lat="37.9605103" lon="14.1016204"><ele>252.0</ele><time>2026-04-28T16:50:41.995Z</time></trkpt><trkpt lat="37.9606537" lon="14.1016033"><ele>252.0</ele><time>2026-04-28T16:50:42.995Z</time></trkpt><trkpt lat="37.9608192" lon="14.1016479"><ele>252.0</ele><time>2026-04-28T16:50:43.995Z</time></trkpt><trkpt lat="37.9609806" lon="14.1017233"><ele>252.0</ele><time>2026-04-28T16:50:44.995Z</time></trkpt><trkpt lat="37.9611358" lon="14.1017981"><ele>251.25</ele><time>2026-04-28T16:50:45.995Z</time></trkpt><trkpt lat="37.9612779" lon="14.1018577"><ele>250.5</ele><time>2026-04-28T16:50:46.995Z</time></trkpt><trkpt lat="37.9614108" lon="14.101899"><ele>249.75</ele><time>2026-04-28T16:50:47.995Z</time></trkpt><trkpt lat="37.9615361" lon="14.1019063"><ele>249.0</ele><time>2026-04-28T16:50:48.995Z</time></trkpt><trkpt lat="37.9616485" lon="14.1018509"><ele>248.5</ele><time>2026-04-28T16:50:49.995Z</time></trkpt><trkpt lat="37.9617322" lon="14.1017354"><ele>248.0</ele><time>2026-04-28T16:50:50.995Z</time></trkpt><trkpt lat="37.9617776" lon="14.1015859"><ele>247.5</ele><time>2026-04-28T16:50:51.995Z</time></trkpt><trkpt lat="37.9617804" lon="14.1014075"><ele>247.0</ele><time>2026-04-28T16:50:52.995Z</time></trkpt><trkpt lat="37.9617787" lon="14.1012106"><ele>248.66666666666666</ele><time>2026-04-28T16:50:53.995Z</time></trkpt><trkpt lat="37.961776" lon="14.1010119"><ele>250.33333333333331</ele><time>2026-04-28T16:50:54.995Z</time></trkpt><trkpt lat="37.9617793" lon="14.1008025"><ele>252.0</ele><time>2026-04-28T16:50:55.995Z</time></trkpt><trkpt lat="37.961792" lon="14.1005971"><ele>253.0</ele><time>2026-04-28T16:50:56.995Z</time></trkpt><trkpt lat="37.9618353" lon="14.1003806"><ele>254.0</ele><time>2026-04-28T16:50:57.995Z</time></trkpt><trkpt lat="37.9618955" lon="14.100165"><ele>255.0</ele><time>2026-04-28T16:50:58.995Z</time></trkpt><trkpt lat="37.9619599" lon="14.0999508"><ele>256.6666666666667</ele><time>2026-04-28T16:50:59.995Z</time></trkpt><trkpt lat="37.9620307" lon="14.0997362"><ele>258.33333333333337</ele><time>2026-04-28T16:51:00.995Z</time></trkpt><trkpt lat="37.9620974" lon="14.0995226"><ele>260.0</ele><time>2026-04-28T16:51:01.995Z</time></trkpt><trkpt lat="37.962158" lon="14.0993179"><ele>260.0</ele><time>2026-04-28T16:51:02.995Z</time></trkpt><trkpt lat="37.962205" lon="14.0991193"><ele>260.0</ele><time>2026-04-28T16:51:03.994Z</time></trkpt><trkpt lat="37.9622344" lon="14.0989272"><ele>260.0</ele><time>2026-04-28T16:51:04.995Z</time></trkpt><trkpt lat="37.9622458" lon="14.0987437"><ele>261.75</ele><time>2026-04-28T16:51:05.994Z</time></trkpt><trkpt lat="37.9622358" lon="14.0985719"><ele>263.5</ele><time>2026-04-28T16:51:06.995Z</time></trkpt><trkpt lat="37.9622319" lon="14.098425"><ele>265.25</ele><time>2026-04-28T16:51:07.995Z</time></trkpt><trkpt lat="37.9622447" lon="14.0983202"><ele>267.0</ele><time>2026-04-28T16:51:08.995Z</time></trkpt><trkpt lat="37.9623668" lon="14.0982382"><ele>267.0</ele><time>2026-04-28T16:51:10.994Z</time></trkpt><trkpt lat="37.9624619" lon="14.0982627"><ele>267.0</ele><time>2026-04-28T16:51:11.994Z</time></trkpt><trkpt lat="37.9625736" lon="14.0983118"><ele>267.0</ele><time>2026-04-28T16:51:12.995Z</time></trkpt><trkpt lat="37.9626623" lon="14.0984139"><ele>267.0</ele><time>2026-04-28T16:51:13.995Z</time></trkpt><trkpt lat="37.962741" lon="14.0985558"><ele>271.6666666666667</ele><time>2026-04-28T16:51:14.995Z</time></trkpt><trkpt lat="37.9628122" lon="14.0987339"><ele>276.33333333333337</ele><time>2026-04-28T16:51:15.995Z</time></trkpt><trkpt lat="37.9629046" lon="14.0989292"><ele>281.0</ele><time>2026-04-28T16:51:16.995Z</time></trkpt><trkpt lat="37.9629956" lon="14.0991271"><ele>281.0</ele><time>2026-04-28T16:51:17.994Z</time></trkpt><trkpt lat="37.9630889" lon="14.0993293"><ele>281.0</ele><time>2026-04-28T16:51:18.995Z</time></trkpt><trkpt lat="37.9631842" lon="14.0995305"><ele>281.0</ele><time>2026-04-28T16:51:19.995Z</time></trkpt><trkpt lat="37.9632771" lon="14.0997348"><ele>285.33333333333337</ele><time>2026-04-28T16:51:20.995Z</time></trkpt><trkpt lat="37.9633706" lon="14.0999343"><ele>289.6666666666667</ele><time>2026-04-28T16:51:21.994Z</time></trkpt><trkpt lat="37.9634552" lon="14.1001147"><ele>294.0</ele><time>2026-04-28T16:51:22.995Z</time></trkpt><trkpt lat="37.9635318" lon="14.1002788"><ele>294.0</ele><time>2026-04-28T16:51:23.994Z</time></trkpt><trkpt lat="37.9636066" lon="14.1004388"><ele>294.0</ele><time>2026-04-28T16:51:24.995Z</time></trkpt><trkpt lat="37.9636993" lon="14.1005818"><ele>294.0</ele><time>2026-04-28T16:51:25.995Z</time></trkpt><trkpt lat="37.9638303" lon="14.100708"><ele>297.0</ele><time>2026-04-28T16:51:26.994Z</time></trkpt><trkpt lat="37.9639898" lon="14.1008067"><ele>300.0</ele><time>2026-04-28T16:51:27.995Z</time></trkpt><trkpt lat="37.9641492" lon="14.1009153"><ele>303.0</ele><time>2026-04-28T16:51:28.995Z</time></trkpt><trkpt lat="37.9643069" lon="14.1010305"><ele>303.0</ele><time>2026-04-28T16:51:29.995Z</time></trkpt><trkpt lat="37.9644621" lon="14.1011417"><ele>303.0</ele><time>2026-04-28T16:51:30.995Z</time></trkpt><trkpt lat="37.9646215" lon="14.1012505"><ele>303.0</ele><time>2026-04-28T16:51:31.995Z</time></trkpt><trkpt lat="37.9647833" lon="14.1013415"><ele>303.0</ele><time>2026-04-28T16:51:32.995Z</time></trkpt><trkpt lat="37.9649561" lon="14.101403"><ele>303.0</ele><time>2026-04-28T16:51:33.995Z</time></trkpt><trkpt lat="37.9651387" lon="14.1014453"><ele>303.0</ele><time>2026-04-28T16:51:34.995Z</time></trkpt><trkpt lat="37.9653207" lon="14.1014776"><ele>309.0</ele><time>2026-04-28T16:51:35.995Z</time></trkpt><trkpt lat="37.9654926" lon="14.101504"><ele>315.0</ele><time>2026-04-28T16:51:36.994Z</time></trkpt><trkpt lat="37.9656463" lon="14.1015352"><ele>321.0</ele><time>2026-04-28T16:51:37.995Z</time></trkpt><trkpt lat="37.9657876" lon="14.101562"><ele>317.0</ele><time>2026-04-28T16:51:38.995Z</time></trkpt><trkpt lat="37.9659119" lon="14.1015963"><ele>313.0</ele><time>2026-04-28T16:51:39.995Z</time></trkpt><trkpt lat="37.9660052" lon="14.1016578"><ele>309.0</ele><time>2026-04-28T16:51:40.995Z</time></trkpt><trkpt lat="37.9660509" lon="14.1017441"><ele>305.0</ele><time>2026-04-28T16:51:41.995Z</time></trkpt><trkpt lat="37.966055" lon="14.1018506"><ele>301.0</ele><time>2026-04-28T16:51:42.995Z</time></trkpt><trkpt lat="37.9660348" lon="14.1019788"><ele>301.0</ele><time>2026-04-28T16:51:43.995Z</time></trkpt><trkpt lat="37.9659936" lon="14.1021424"><ele>301.0</ele><time>2026-04-28T16:51:44.995Z</time></trkpt><trkpt lat="37.9659461" lon="14.1023099"><ele>301.0</ele><time>2026-04-28T16:51:45.995Z</time></trkpt><trkpt lat="37.9658992" lon="14.102485"><ele>301.0</ele><time>2026-04-28T16:51:46.995Z</time></trkpt><trkpt lat="37.9658491" lon="14.1026546"><ele>297.5</ele><time>2026-04-28T16:51:47.995Z</time></trkpt><trkpt lat="37.9657888" lon="14.1028104"><ele>294.0</ele><time>2026-04-28T16:51:48.995Z</time></trkpt><trkpt lat="37.9656972" lon="14.1029254"><ele>290.5</ele><time>2026-04-28T16:51:49.995Z</time></trkpt><trkpt lat="37.9655756" lon="14.1030089"><ele>287.0</ele><time>2026-04-28T16:51:50.995Z</time></trkpt><trkpt lat="37.9654411" lon="14.1030983"><ele>287.0</ele><time>2026-04-28T16:51:51.995Z</time></trkpt><trkpt lat="37.9653095" lon="14.1032154"><ele>287.0</ele><time>2026-04-28T16:51:52.995Z</time></trkpt><trkpt lat="37.9651899" lon="14.103347"><ele>287.0</ele><time>2026-04-28T16:51:53.994Z</time></trkpt><trkpt lat="37.965084" lon="14.1034847"><ele>288.0</ele><time>2026-04-28T16:51:54.994Z</time></trkpt><trkpt lat="37.965027" lon="14.1036391"><ele>289.0</ele><time>2026-04-28T16:51:55.995Z</time></trkpt><trkpt lat="37.9650164" lon="14.1038027"><ele>290.0</ele><time>2026-04-28T16:51:56.994Z</time></trkpt><trkpt lat="37.9650505" lon="14.1039831"><ele>291.0</ele><time>2026-04-28T16:51:57.995Z</time></trkpt><trkpt lat="37.965132" lon="14.1041415"><ele>298.3333333333333</ele><time>2026-04-28T16:51:58.994Z</time></trkpt><trkpt lat="37.9652631" lon="14.1042804"><ele>305.66666666666663</ele><time>2026-04-28T16:51:59.995Z</time></trkpt><trkpt lat="37.9654157" lon="14.1044157"><ele>313.0</ele><time>2026-04-28T16:52:00.994Z</time></trkpt><trkpt lat="37.9655733" lon="14.1045165"><ele>313.0</ele><time>2026-04-28T16:52:01.995Z</time></trkpt><trkpt lat="37.9657441" lon="14.104569"><ele>313.0</ele><time>2026-04-28T16:52:02.995Z</time></trkpt><trkpt lat="37.9659099" lon="14.1046134"><ele>313.0</ele><time>2026-04-28T16:52:03.995Z</time></trkpt><trkpt lat="37.9660684" lon="14.1046862"><ele>313.3333333333333</ele><time>2026-04-28T16:52:04.995Z</time></trkpt><trkpt lat="37.9662176" lon="14.1047748"><ele>313.6666666666667</ele><time>2026-04-28T16:52:05.994Z</time></trkpt><trkpt lat="37.9663563" lon="14.1048877"><ele>314.0</ele><time>2026-04-28T16:52:06.994Z</time></trkpt><trkpt lat="37.9664894" lon="14.1050159"><ele>314.0</ele><time>2026-04-28T16:52:07.995Z</time></trkpt><trkpt lat="37.9666191" lon="14.1051475"><ele>314.0</ele><time>2026-04-28T16:52:08.995Z</time></trkpt><trkpt lat="37.9667489" lon="14.1052806"><ele>314.0</ele><time>2026-04-28T16:52:09.995Z</time></trkpt><trkpt lat="37.9668701" lon="14.105414"><ele>315.33333333333337</ele><time>2026-04-28T16:52:10.995Z</time></trkpt><trkpt lat="37.9669942" lon="14.1055574"><ele>316.6666666666667</ele><time>2026-04-28T16:52:11.995Z</time></trkpt><trkpt lat="37.9671159" lon="14.1056979"><ele>318.0</ele><time>2026-04-28T16:52:12.995Z</time></trkpt><trkpt lat="37.9672391" lon="14.1058274"><ele>314.6666666666667</ele><time>2026-04-28T16:52:13.994Z</time></trkpt><trkpt lat="37.9673687" lon="14.1059539"><ele>311.33333333333337</ele><time>2026-04-28T16:52:14.995Z</time></trkpt><trkpt lat="37.9675051" lon="14.1060602"><ele>308.0</ele><time>2026-04-28T16:52:15.995Z</time></trkpt><trkpt lat="37.9676512" lon="14.1061435"><ele>303.0</ele><time>2026-04-28T16:52:16.995Z</time></trkpt><trkpt lat="37.967809" lon="14.1062019"><ele>298.0</ele><time>2026-04-28T16:52:17.995Z</time></trkpt><trkpt lat="37.9679733" lon="14.1062234"><ele>293.0</ele><time>2026-04-28T16:52:18.995Z</time></trkpt><trkpt lat="37.9681395" lon="14.1062151"><ele>293.0</ele><time>2026-04-28T16:52:19.994Z</time></trkpt><trkpt lat="37.9682897" lon="14.1062064"><ele>293.0</ele><time>2026-04-28T16:52:20.995Z</time></trkpt><trkpt lat="37.9684301" lon="14.106216"><ele>293.0</ele><time>2026-04-28T16:52:21.995Z</time></trkpt><trkpt lat="37.9685631" lon="14.1062431"><ele>293.0</ele><time>2026-04-28T16:52:22.995Z</time></trkpt><trkpt lat="37.9686824" lon="14.1063251"><ele>290.5</ele><time>2026-04-28T16:52:23.995Z</time></trkpt><trkpt lat="37.9687758" lon="14.1064519"><ele>288.0</ele><time>2026-04-28T16:52:24.995Z</time></trkpt><trkpt lat="37.9688404" lon="14.1065918"><ele>285.5</ele><time>2026-04-28T16:52:25.995Z</time></trkpt><trkpt lat="37.9688938" lon="14.1067194"><ele>283.0</ele><time>2026-04-28T16:52:26.995Z</time></trkpt><trkpt lat="37.9689611" lon="14.1068154"><ele>285.8</ele><time>2026-04-28T16:52:27.995Z</time></trkpt><trkpt lat="37.9690349" lon="14.1068461"><ele>288.6</ele><time>2026-04-28T16:52:28.995Z</time></trkpt><trkpt lat="37.969109" lon="14.1068078"><ele>291.4</ele><time>2026-04-28T16:52:29.995Z</time></trkpt><trkpt lat="37.9691885" lon="14.1067134"><ele>294.2</ele><time>2026-04-28T16:52:30.995Z</time></trkpt><trkpt lat="37.9692807" lon="14.1065585"><ele>297.0</ele><time>2026-04-28T16:52:31.995Z</time></trkpt><trkpt lat="37.969379" lon="14.1063993"><ele>297.0</ele><time>2026-04-28T16:52:32.994Z</time></trkpt><trkpt lat="37.9694741" lon="14.1062418"><ele>297.0</ele><time>2026-04-28T16:52:33.995Z</time></trkpt><trkpt lat="37.969566" lon="14.1060924"><ele>297.0</ele><time>2026-04-28T16:52:34.995Z</time></trkpt><trkpt lat="37.969639" lon="14.1059378"><ele>297.0</ele><time>2026-04-28T16:52:35.994Z</time></trkpt><trkpt lat="37.9696985" lon="14.1057852"><ele>291.0</ele><time>2026-04-28T16:52:36.995Z</time></trkpt><trkpt lat="37.9697588" lon="14.1056249"><ele>285.0</ele><time>2026-04-28T16:52:37.994Z</time></trkpt><trkpt lat="37.9698347" lon="14.1054744"><ele>279.0</ele><time>2026-04-28T16:52:38.995Z</time></trkpt><trkpt lat="37.9699456" lon="14.1053396"><ele>273.0</ele><time>2026-04-28T16:52:39.995Z</time></trkpt><trkpt lat="37.9700826" lon="14.1052316"><ele>273.0</ele><time>2026-04-28T16:52:40.995Z</time></trkpt><trkpt lat="37.9702303" lon="14.1051496"><ele>273.0</ele><time>2026-04-28T16:52:41.995Z</time></trkpt><trkpt lat="37.9703659" lon="14.1050755"><ele>273.0</ele><time>2026-04-28T16:52:42.995Z</time></trkpt><trkpt lat="37.9704904" lon="14.1050283"><ele>273.0</ele><time>2026-04-28T16:52:43.995Z</time></trkpt><trkpt lat="37.9706006" lon="14.1050022"><ele>273.0</ele><time>2026-04-28T16:52:44.995Z</time></trkpt><trkpt lat="37.9707034" lon="14.1050278"><ele>273.0</ele><time>2026-04-28T16:52:45.995Z</time></trkpt><trkpt lat="37.9708142" lon="14.1051096"><ele>273.0</ele><time>2026-04-28T16:52:46.995Z</time></trkpt><trkpt lat="37.9709186" lon="14.1052039"><ele>273.0</ele><time>2026-04-28T16:52:47.995Z</time></trkpt><trkpt lat="37.9710335" lon="14.1052689"><ele>271.4</ele><time>2026-04-28T16:52:48.995Z</time></trkpt><trkpt lat="37.9711439" lon="14.1052766"><ele>269.8</ele><time>2026-04-28T16:52:49.995Z</time></trkpt><trkpt lat="37.971253" lon="14.1052511"><ele>268.2</ele><time>2026-04-28T16:52:50.994Z</time></trkpt><trkpt lat="37.9713511" lon="14.1052296"><ele>266.6</ele><time>2026-04-28T16:52:51.994Z</time></trkpt><trkpt lat="37.9714535" lon="14.1052552"><ele>265.0</ele><time>2026-04-28T16:52:52.995Z</time></trkpt><trkpt lat="37.9715501" lon="14.1053255"><ele>265.0</ele><time>2026-04-28T16:52:53.995Z</time></trkpt><trkpt lat="37.9716272" lon="14.1054245"><ele>265.0</ele><time>2026-04-28T16:52:54.995Z</time></trkpt><trkpt lat="37.9716778" lon="14.1055447"><ele>265.0</ele><time>2026-04-28T16:52:55.995Z</time></trkpt><trkpt lat="37.9717227" lon="14.1056604"><ele>265.0</ele><time>2026-04-28T16:52:56.994Z</time></trkpt><trkpt lat="37.971776" lon="14.1057692"><ele>265.0</ele><time>2026-04-28T16:52:57.995Z</time></trkpt><trkpt lat="37.9718486" lon="14.1058569"><ele>266.5</ele><time>2026-04-28T16:52:58.995Z</time></trkpt><trkpt lat="37.9719574" lon="14.1059028"><ele>268.0</ele><time>2026-04-28T16:52:59.995Z</time></trkpt><trkpt lat="37.972069" lon="14.1059058"><ele>269.5</ele><time>2026-04-28T16:53:00.995Z</time></trkpt><trkpt lat="37.9721812" lon="14.1058754"><ele>271.0</ele><time>2026-04-28T16:53:01.995Z</time></trkpt><trkpt lat="37.9722856" lon="14.1058206"><ele>271.0</ele><time>2026-04-28T16:53:02.995Z</time></trkpt><trkpt lat="37.9723891" lon="14.1057629"><ele>271.0</ele><time>2026-04-28T16:53:03.994Z</time></trkpt><trkpt lat="37.9724901" lon="14.105698"><ele>271.0</ele><time>2026-04-28T16:53:04.995Z</time></trkpt><trkpt lat="37.9725866" lon="14.105609"><ele>271.0</ele><time>2026-04-28T16:53:05.995Z</time></trkpt><trkpt lat="37.9726742" lon="14.1054913"><ele>268.5</ele><time>2026-04-28T16:53:06.995Z</time></trkpt><trkpt lat="37.9727653" lon="14.1053418"><ele>266.0</ele><time>2026-04-28T16:53:07.995Z</time></trkpt><trkpt lat="37.9728408" lon="14.1051967"><ele>263.5</ele><time>2026-04-28T16:53:08.995Z</time></trkpt><trkpt lat="37.9729138" lon="14.105054"><ele>261.0</ele><time>2026-04-28T16:53:09.995Z</time></trkpt><trkpt lat="37.972986" lon="14.1049162"><ele>255.75</ele><time>2026-04-28T16:53:10.995Z</time></trkpt><trkpt lat="37.9730719" lon="14.1047806"><ele>250.5</ele><time>2026-04-28T16:53:11.994Z</time></trkpt><trkpt lat="37.9731832" lon="14.1046747"><ele>245.25</ele><time>2026-04-28T16:53:12.995Z</time></trkpt><trkpt lat="37.9733229" lon="14.1046257"><ele>240.0</ele><time>2026-04-28T16:53:13.995Z</time></trkpt><trkpt lat="37.9734746" lon="14.1046335"><ele>239.66666666666669</ele><time>2026-04-28T16:53:14.995Z</time></trkpt><trkpt lat="37.9736307" lon="14.1046583"><ele>239.33333333333334</ele><time>2026-04-28T16:53:15.995Z</time></trkpt><trkpt lat="37.9737787" lon="14.1047335"><ele>239.0</ele><time>2026-04-28T16:53:16.995Z</time></trkpt><trkpt lat="37.9739088" lon="14.1048047"><ele>239.0</ele><time>2026-04-28T16:53:17.994Z</time></trkpt><trkpt lat="37.9740374" lon="14.104862"><ele>239.0</ele><time>2026-04-28T16:53:18.995Z</time></trkpt><trkpt lat="37.9741639" lon="14.1049029"><ele>239.0</ele><time>2026-04-28T16:53:19.995Z</time></trkpt><trkpt lat="37.9742665" lon="14.1049203"><ele>239.0</ele><time>2026-04-28T16:53:20.995Z</time></trkpt><trkpt lat="37.9743455" lon="14.1048984"><ele>242.79999999999998</ele><time>2026-04-28T16:53:21.995Z</time></trkpt><trkpt lat="37.9744145" lon="14.1048286"><ele>246.59999999999997</ele><time>2026-04-28T16:53:22.994Z</time></trkpt><trkpt lat="37.97445" lon="14.1047385"><ele>250.4</ele><time>2026-04-28T16:53:23.994Z</time></trkpt><trkpt lat="37.9744589" lon="14.1046096"><ele>254.2</ele><time>2026-04-28T16:53:24.994Z</time></trkpt><trkpt lat="37.9744374" lon="14.1044714"><ele>258.0</ele><time>2026-04-28T16:53:25.995Z</time></trkpt><trkpt lat="37.974415" lon="14.1043353"><ele>258.0</ele><time>2026-04-28T16:53:26.994Z</time></trkpt><trkpt lat="37.9744048" lon="14.1041986"><ele>258.0</ele><time>2026-04-28T16:53:27.995Z</time></trkpt><trkpt lat="37.9744111" lon="14.1040545"><ele>258.0</ele><time>2026-04-28T16:53:28.995Z</time></trkpt><trkpt lat="37.9744434" lon="14.1039152"><ele>258.0</ele><time>2026-04-28T16:53:29.995Z</time></trkpt><trkpt lat="37.9744991" lon="14.1037878"><ele>253.75</ele><time>2026-04-28T16:53:30.995Z</time></trkpt><trkpt lat="37.9745821" lon="14.1036686"><ele>249.5</ele><time>2026-04-28T16:53:31.994Z</time></trkpt><trkpt lat="37.9746925" lon="14.1035662"><ele>245.25</ele><time>2026-04-28T16:53:32.995Z</time></trkpt><trkpt lat="37.9748102" lon="14.1034706"><ele>241.0</ele><time>2026-04-28T16:53:33.994Z</time></trkpt><trkpt lat="37.9749288" lon="14.1033885"><ele>242.75</ele><time>2026-04-28T16:53:34.995Z</time></trkpt><trkpt lat="37.9750449" lon="14.1033063"><ele>244.5</ele><time>2026-04-28T16:53:35.995Z</time></trkpt><trkpt lat="37.9751597" lon="14.1032158"><ele>246.25</ele><time>2026-04-28T16:53:36.995Z</time></trkpt><trkpt lat="37.9752617" lon="14.1030951"><ele>248.0</ele><time>2026-04-28T16:53:37.995Z</time></trkpt><trkpt lat="37.9753478" lon="14.1029387"><ele>244.5</ele><time>2026-04-28T16:53:38.995Z</time></trkpt><trkpt lat="37.9754228" lon="14.1027739"><ele>241.0</ele><time>2026-04-28T16:53:39.995Z</time></trkpt><trkpt lat="37.9754909" lon="14.102611"><ele>237.5</ele><time>2026-04-28T16:53:40.994Z</time></trkpt><trkpt lat="37.975557" lon="14.1024498"><ele>234.0</ele><time>2026-04-28T16:53:41.995Z</time></trkpt><trkpt lat="37.975626" lon="14.1022887"><ele>231.25</ele><time>2026-04-28T16:53:42.994Z</time></trkpt><trkpt lat="37.9756962" lon="14.1021288"><ele>228.5</ele><time>2026-04-28T16:53:43.994Z</time></trkpt><trkpt lat="37.9757747" lon="14.1019765"><ele>225.75</ele><time>2026-04-28T16:53:44.995Z</time></trkpt><trkpt lat="37.9758699" lon="14.1018343"><ele>223.0</ele><time>2026-04-28T16:53:45.995Z</time></trkpt><trkpt lat="37.9759898" lon="14.1017068"><ele>222.66666666666666</ele><time>2026-04-28T16:53:46.994Z</time></trkpt><trkpt lat="37.9761198" lon="14.1015857"><ele>222.33333333333331</ele><time>2026-04-28T16:53:47.995Z</time></trkpt><trkpt lat="37.976256" lon="14.101481"><ele>222.0</ele><time>2026-04-28T16:53:48.995Z</time></trkpt><trkpt lat="37.976392" lon="14.1013925"><ele>220.25</ele><time>2026-04-28T16:53:49.995Z</time></trkpt><trkpt lat="37.9765263" lon="14.1013159"><ele>218.5</ele><time>2026-04-28T16:53:50.995Z</time></trkpt><trkpt lat="37.9766569" lon="14.1012449"><ele>216.75</ele><time>2026-04-28T16:53:51.995Z</time></trkpt><trkpt lat="37.9767795" lon="14.1011837"><ele>215.0</ele><time>2026-04-28T16:53:52.995Z</time></trkpt><trkpt lat="37.9768801" lon="14.1011371"><ele>213.50000000000003</ele><time>2026-04-28T16:53:53.995Z</time></trkpt><trkpt lat="37.9769648" lon="14.1011153"><ele>212.0</ele><time>2026-04-28T16:53:54.995Z</time></trkpt><trkpt lat="37.9770417" lon="14.1011239"><ele>210.5</ele><time>2026-04-28T16:53:55.995Z</time></trkpt><trkpt lat="37.9771129" lon="14.101178"><ele>209.0</ele><time>2026-04-28T16:53:56.995Z</time></trkpt><trkpt lat="37.9771492" lon="14.1012844"><ele>207.50000000000003</ele><time>2026-04-28T16:53:57.995Z</time></trkpt><trkpt lat="37.9771493" lon="14.101405"><ele>206.0</ele><time>2026-04-28T16:53:58.995Z</time></trkpt><trkpt lat="37.9771136" lon="14.1015273"><ele>206.60000000000002</ele><time>2026-04-28T16:53:59.995Z</time></trkpt><trkpt lat="37.9770687" lon="14.1016385"><ele>207.2</ele><time>2026-04-28T16:54:00.995Z</time></trkpt><trkpt lat="37.9770195" lon="14.1017605"><ele>207.8</ele><time>2026-04-28T16:54:01.995Z</time></trkpt><trkpt lat="37.9769755" lon="14.1018809"><ele>208.39999999999998</ele><time>2026-04-28T16:54:02.994Z</time></trkpt><trkpt lat="37.9769475" lon="14.1019992"><ele>209.0</ele><time>2026-04-28T16:54:03.995Z</time></trkpt><trkpt lat="37.976948" lon="14.1021101"><ele>209.0</ele><time>2026-04-28T16:54:04.995Z</time></trkpt><trkpt lat="37.9769799" lon="14.1022102"><ele>209.0</ele><time>2026-04-28T16:54:05.995Z</time></trkpt><trkpt lat="37.9770423" lon="14.1023071"><ele>209.0</ele><time>2026-04-28T16:54:06.994Z</time></trkpt><trkpt lat="37.9771195" lon="14.1023888"><ele>209.0</ele><time>2026-04-28T16:54:07.994Z</time></trkpt><trkpt lat="37.977205" lon="14.1024475"><ele>209.0</ele><time>2026-04-28T16:54:08.994Z</time></trkpt><trkpt lat="37.9772972" lon="14.1024606"><ele>209.0</ele><time>2026-04-28T16:54:09.995Z</time></trkpt><trkpt lat="37.9773947" lon="14.1024292"><ele>209.0</ele><time>2026-04-28T16:54:10.995Z</time></trkpt><trkpt lat="37.9774861" lon="14.1023627"><ele>209.0</ele><time>2026-04-28T16:54:11.995Z</time></trkpt><trkpt lat="37.9775795" lon="14.1022791"><ele>209.0</ele><time>2026-04-28T16:54:12.995Z</time></trkpt><trkpt lat="37.9776748" lon="14.1021789"><ele>209.0</ele><time>2026-04-28T16:54:13.995Z</time></trkpt><trkpt lat="37.9777954" lon="14.1020481"><ele>212.66666666666669</ele><time>2026-04-28T16:54:14.994Z</time></trkpt><trkpt lat="37.9779291" lon="14.1019022"><ele>216.33333333333331</ele><time>2026-04-28T16:54:15.994Z</time></trkpt><trkpt lat="37.9780834" lon="14.1017521"><ele>220.0</ele><time>2026-04-28T16:54:16.995Z</time></trkpt><trkpt lat="37.9782415" lon="14.101611"><ele>223.33333333333331</ele><time>2026-04-28T16:54:17.995Z</time></trkpt><trkpt lat="37.9783855" lon="14.101478"><ele>226.66666666666669</ele><time>2026-04-28T16:54:18.995Z</time></trkpt><trkpt lat="37.9785059" lon="14.1013446"><ele>230.0</ele><time>2026-04-28T16:54:19.995Z</time></trkpt><trkpt lat="37.9785975" lon="14.1011897"><ele>230.0</ele><time>2026-04-28T16:54:20.995Z</time></trkpt><trkpt lat="37.9786469" lon="14.101008"><ele>230.0</ele><time>2026-04-28T16:54:21.995Z</time></trkpt><trkpt lat="37.9786721" lon="14.1008017"><ele>230.0</ele><time>2026-04-28T16:54:22.995Z</time></trkpt><trkpt lat="37.978684" lon="14.1005891"><ele>226.66666666666669</ele><time>2026-04-28T16:54:23.995Z</time></trkpt><trkpt lat="37.978698" lon="14.1003805"><ele>223.33333333333331</ele><time>2026-04-28T16:54:24.995Z</time></trkpt><trkpt lat="37.9787347" lon="14.1001794"><ele>220.0</ele><time>2026-04-28T16:54:25.995Z</time></trkpt><trkpt lat="37.9788079" lon="14.0999985"><ele>215.0</ele><time>2026-04-28T16:54:26.995Z</time></trkpt><trkpt lat="37.9789158" lon="14.0998269"><ele>210.0</ele><time>2026-04-28T16:54:27.994Z</time></trkpt><trkpt lat="37.9790491" lon="14.0996582"><ele>205.0</ele><time>2026-04-28T16:54:28.995Z</time></trkpt><trkpt lat="37.9791829" lon="14.0994821"><ele>203.66666666666666</ele><time>2026-04-28T16:54:29.995Z</time></trkpt><trkpt lat="37.9793162" lon="14.0993034"><ele>202.33333333333331</ele><time>2026-04-28T16:54:30.995Z</time></trkpt><trkpt lat="37.9794512" lon="14.0991256"><ele>201.0</ele><time>2026-04-28T16:54:31.995Z</time></trkpt><trkpt lat="37.9795866" lon="14.0989442"><ele>201.0</ele><time>2026-04-28T16:54:32.995Z</time></trkpt><trkpt lat="37.9797181" lon="14.0987669"><ele>201.0</ele><time>2026-04-28T16:54:33.995Z</time></trkpt><trkpt lat="37.9798287" lon="14.098576"><ele>201.0</ele><time>2026-04-28T16:54:34.994Z</time></trkpt><trkpt lat="37.9799132" lon="14.0983662"><ele>200.66666666666669</ele><time>2026-04-28T16:54:35.994Z</time></trkpt><trkpt lat="37.9799848" lon="14.0981528"><ele>200.33333333333334</ele><time>2026-04-28T16:54:36.995Z</time></trkpt><trkpt lat="37.9800597" lon="14.0979416"><ele>200.0</ele><time>2026-04-28T16:54:37.995Z</time></trkpt><trkpt lat="37.9801558" lon="14.0977376"><ele>200.0</ele><time>2026-04-28T16:54:38.995Z</time></trkpt><trkpt lat="37.9802866" lon="14.0975557"><ele>200.0</ele><time>2026-04-28T16:54:39.995Z</time></trkpt><trkpt lat="37.980439" lon="14.0973884"><ele>200.0</ele><time>2026-04-28T16:54:40.994Z</time></trkpt><trkpt lat="37.9805871" lon="14.0972219"><ele>196.0</ele><time>2026-04-28T16:54:41.995Z</time></trkpt><trkpt lat="37.9807285" lon="14.0970601"><ele>192.0</ele><time>2026-04-28T16:54:42.994Z</time></trkpt><trkpt lat="37.980861" lon="14.0969075"><ele>188.0</ele><time>2026-04-28T16:54:43.994Z</time></trkpt><trkpt lat="37.9809922" lon="14.0967656"><ele>188.0</ele><time>2026-04-28T16:54:44.995Z</time></trkpt><trkpt lat="37.981129" lon="14.0966461"><ele>188.0</ele><time>2026-04-28T16:54:45.994Z</time></trkpt><trkpt lat="37.9812778" lon="14.0965848"><ele>188.0</ele><time>2026-04-28T16:54:46.995Z</time></trkpt><trkpt lat="37.9814361" lon="14.0965635"><ele>185.25</ele><time>2026-04-28T16:54:47.995Z</time></trkpt><trkpt lat="37.9815886" lon="14.096565"><ele>182.5</ele><time>2026-04-28T16:54:48.994Z</time></trkpt><trkpt lat="37.9817392" lon="14.0965663"><ele>179.75</ele><time>2026-04-28T16:54:49.995Z</time></trkpt><trkpt lat="37.9818775" lon="14.0965288"><ele>177.0</ele><time>2026-04-28T16:54:50.994Z</time></trkpt><trkpt lat="37.9820175" lon="14.0964399"><ele>177.0</ele><time>2026-04-28T16:54:51.995Z</time></trkpt><trkpt lat="37.9821579" lon="14.0963152"><ele>177.0</ele><time>2026-04-28T16:54:52.995Z</time></trkpt><trkpt lat="37.9822901" lon="14.0961756"><ele>177.0</ele><time>2026-04-28T16:54:53.995Z</time></trkpt><trkpt lat="37.9824143" lon="14.0960298"><ele>175.66666666666666</ele><time>2026-04-28T16:54:54.995Z</time></trkpt><trkpt lat="37.982526" lon="14.0958782"><ele>174.33333333333331</ele><time>2026-04-28T16:54:55.995Z</time></trkpt><trkpt lat="37.9826196" lon="14.0957273"><ele>173.0</ele><time>2026-04-28T16:54:56.995Z</time></trkpt><trkpt lat="37.9827083" lon="14.0955903"><ele>173.0</ele><time>2026-04-28T16:54:57.995Z</time></trkpt><trkpt lat="37.9828181" lon="14.0954692"><ele>173.0</ele><time>2026-04-28T16:54:58.995Z</time></trkpt><trkpt lat="37.9829553" lon="14.0953872"><ele>173.0</ele><time>2026-04-28T16:54:59.995Z</time></trkpt><trkpt lat="37.9831051" lon="14.0953057"><ele>173.0</ele><time>2026-04-28T16:55:00.995Z</time></trkpt><trkpt lat="37.9832503" lon="14.0951979"><ele>173.0</ele><time>2026-04-28T16:55:01.994Z</time></trkpt><trkpt lat="37.9833815" lon="14.0950711"><ele>173.0</ele><time>2026-04-28T16:55:02.994Z</time></trkpt><trkpt lat="37.9834995" lon="14.0949394"><ele>168.33333333333331</ele><time>2026-04-28T16:55:03.995Z</time></trkpt><trkpt lat="37.9836174" lon="14.0948156"><ele>163.66666666666666</ele><time>2026-04-28T16:55:04.994Z</time></trkpt><trkpt lat="37.9837448" lon="14.0947086"><ele>159.0</ele><time>2026-04-28T16:55:05.995Z</time></trkpt><trkpt lat="37.9838889" lon="14.0946433"><ele>159.0</ele><time>2026-04-28T16:55:06.994Z</time></trkpt><trkpt lat="37.9840515" lon="14.0945965"><ele>159.0</ele><time>2026-04-28T16:55:07.995Z</time></trkpt><trkpt lat="37.9842232" lon="14.0945493"><ele>159.0</ele><time>2026-04-28T16:55:08.994Z</time></trkpt><trkpt lat="37.9843882" lon="14.0944806"><ele>160.0</ele><time>2026-04-28T16:55:09.995Z</time></trkpt><trkpt lat="37.9845507" lon="14.0943987"><ele>161.0</ele><time>2026-04-28T16:55:10.995Z</time></trkpt><trkpt lat="37.9847245" lon="14.0943303"><ele>162.0</ele><time>2026-04-28T16:55:11.995Z</time></trkpt><trkpt lat="37.9849136" lon="14.0942832"><ele>160.66666666666666</ele><time>2026-04-28T16:55:12.995Z</time></trkpt><trkpt lat="37.9851031" lon="14.0942409"><ele>159.33333333333331</ele><time>2026-04-28T16:55:13.995Z</time></trkpt><trkpt lat="37.9852858" lon="14.0942"><ele>158.0</ele><time>2026-04-28T16:55:14.995Z</time></trkpt><trkpt lat="37.9854614" lon="14.0941613"><ele>158.0</ele><time>2026-04-28T16:55:15.995Z</time></trkpt><trkpt lat="37.9856272" lon="14.0941252"><ele>158.0</ele><time>2026-04-28T16:55:16.995Z</time></trkpt><trkpt lat="37.9857865" lon="14.094098"><ele>158.0</ele><time>2026-04-28T16:55:17.994Z</time></trkpt><trkpt lat="37.9859386" lon="14.0940854"><ele>155.33333333333331</ele><time>2026-04-28T16:55:18.995Z</time></trkpt><trkpt lat="37.9860899" lon="14.0941304"><ele>152.66666666666666</ele><time>2026-04-28T16:55:19.995Z</time></trkpt><trkpt lat="37.9862569" lon="14.0942041"><ele>150.0</ele><time>2026-04-28T16:55:20.995Z</time></trkpt><trkpt lat="37.9864263" lon="14.0942869"><ele>150.0</ele><time>2026-04-28T16:55:21.995Z</time></trkpt><trkpt lat="37.9865856" lon="14.0943616"><ele>150.0</ele><time>2026-04-28T16:55:22.994Z</time></trkpt><trkpt lat="37.9867362" lon="14.094433"><ele>150.0</ele><time>2026-04-28T16:55:23.994Z</time></trkpt><trkpt lat="37.9868819" lon="14.0945025"><ele>147.5</ele><time>2026-04-28T16:55:24.995Z</time></trkpt><trkpt lat="37.9870199" lon="14.0945783"><ele>145.0</ele><time>2026-04-28T16:55:25.995Z</time></trkpt><trkpt lat="37.987152" lon="14.0946427"><ele>142.5</ele><time>2026-04-28T16:55:26.995Z</time></trkpt><trkpt lat="37.9872826" lon="14.0947101"><ele>140.0</ele><time>2026-04-28T16:55:27.995Z</time></trkpt><trkpt lat="37.9874069" lon="14.0947842"><ele>140.25</ele><time>2026-04-28T16:55:28.995Z</time></trkpt><trkpt lat="37.9875298" lon="14.094866"><ele>140.5</ele><time>2026-04-28T16:55:29.995Z</time></trkpt><trkpt lat="37.9876608" lon="14.0949614"><ele>140.75</ele><time>2026-04-28T16:55:30.995Z</time></trkpt><trkpt lat="37.987786" lon="14.0950696"><ele>141.0</ele><time>2026-04-28T16:55:31.994Z</time></trkpt><trkpt lat="37.9879029" lon="14.0951825"><ele>140.25</ele><time>2026-04-28T16:55:32.995Z</time></trkpt><trkpt lat="37.9880112" lon="14.095287"><ele>139.5</ele><time>2026-04-28T16:55:33.995Z</time></trkpt><trkpt lat="37.9881189" lon="14.095364"><ele>138.75</ele><time>2026-04-28T16:55:34.995Z</time></trkpt><trkpt lat="37.9882421" lon="14.0954021"><ele>138.0</ele><time>2026-04-28T16:55:35.995Z</time></trkpt><trkpt lat="37.9883802" lon="14.0954021"><ele>136.33333333333334</ele><time>2026-04-28T16:55:36.995Z</time></trkpt><trkpt lat="37.9885236" lon="14.0954322"><ele>134.66666666666669</ele><time>2026-04-28T16:55:37.995Z</time></trkpt><trkpt lat="37.9886721" lon="14.0955101"><ele>133.0</ele><time>2026-04-28T16:55:38.995Z</time></trkpt><trkpt lat="37.9888233" lon="14.0956064"><ele>133.0</ele><time>2026-04-28T16:55:39.995Z</time></trkpt><trkpt lat="37.9889737" lon="14.0957095"><ele>133.0</ele><time>2026-04-28T16:55:40.995Z</time></trkpt><trkpt lat="37.9891344" lon="14.0958007"><ele>133.0</ele><time>2026-04-28T16:55:41.995Z</time></trkpt><trkpt lat="37.9893069" lon="14.0958566"><ele>133.66666666666669</ele><time>2026-04-28T16:55:42.995Z</time></trkpt><trkpt lat="37.9894914" lon="14.0958663"><ele>134.33333333333334</ele><time>2026-04-28T16:55:43.994Z</time></trkpt><trkpt lat="37.9896822" lon="14.0958465"><ele>135.0</ele><time>2026-04-28T16:55:44.995Z</time></trkpt><trkpt lat="37.9898734" lon="14.0958076"><ele>134.0</ele><time>2026-04-28T16:55:45.995Z</time></trkpt><trkpt lat="37.9900574" lon="14.0957717"><ele>133.0</ele><time>2026-04-28T16:55:46.995Z</time></trkpt><trkpt lat="37.9902308" lon="14.0957321"><ele>132.0</ele><time>2026-04-28T16:55:47.995Z</time></trkpt><trkpt lat="37.9904044" lon="14.0957037"><ele>132.0</ele><time>2026-04-28T16:55:48.995Z</time></trkpt><trkpt lat="37.9905788" lon="14.0956845"><ele>132.0</ele><time>2026-04-28T16:55:49.995Z</time></trkpt><trkpt lat="37.9907507" lon="14.0956961"><ele>132.0</ele><time>2026-04-28T16:55:50.994Z</time></trkpt><trkpt lat="37.9909094" lon="14.0957535"><ele>129.66666666666666</ele><time>2026-04-28T16:55:51.995Z</time></trkpt><trkpt lat="37.9910587" lon="14.0958442"><ele>127.33333333333333</ele><time>2026-04-28T16:55:52.995Z</time></trkpt><trkpt lat="37.9911999" lon="14.095969"><ele>125.0</ele><time>2026-04-28T16:55:53.995Z</time></trkpt><trkpt lat="37.9913391" lon="14.096101"><ele>125.0</ele><time>2026-04-28T16:55:54.995Z</time></trkpt><trkpt lat="37.9914785" lon="14.0962145"><ele>125.0</ele><time>2026-04-28T16:55:55.995Z</time></trkpt><trkpt lat="37.9916286" lon="14.0962931"><ele>125.0</ele><time>2026-04-28T16:55:56.995Z</time></trkpt><trkpt lat="37.9917747" lon="14.0963454"><ele>124.5</ele><time>2026-04-28T16:55:57.995Z</time></trkpt><trkpt lat="37.9919175" lon="14.0963789"><ele>124.0</ele><time>2026-04-28T16:55:58.995Z</time></trkpt><trkpt lat="37.9920556" lon="14.0963959"><ele>123.5</ele><time>2026-04-28T16:55:59.995Z</time></trkpt><trkpt lat="37.9921867" lon="14.0963859"><ele>123.0</ele><time>2026-04-28T16:56:00.995Z</time></trkpt><trkpt lat="37.9923101" lon="14.0963491"><ele>123.0</ele><time>2026-04-28T16:56:01.994Z</time></trkpt><trkpt lat="37.9924179" lon="14.0963154"><ele>123.00000000000001</ele><time>2026-04-28T16:56:02.994Z</time></trkpt><trkpt lat="37.992518" lon="14.0963043"><ele>123.00000000000001</ele><time>2026-04-28T16:56:03.995Z</time></trkpt><trkpt lat="37.9926106" lon="14.096307"><ele>123.0</ele><time>2026-04-28T16:56:04.994Z</time></trkpt><trkpt lat="37.9926964" lon="14.0963045"><ele>123.0</ele><time>2026-04-28T16:56:05.995Z</time></trkpt><trkpt lat="37.9927913" lon="14.096282"><ele>123.4</ele><time>2026-04-28T16:56:06.995Z</time></trkpt><trkpt lat="37.9928922" lon="14.0962481"><ele>123.80000000000001</ele><time>2026-04-28T16:56:07.995Z</time></trkpt><trkpt lat="37.9929857" lon="14.0961925"><ele>124.2</ele><time>2026-04-28T16:56:08.995Z</time></trkpt><trkpt lat="37.9930705" lon="14.0961236"><ele>124.6</ele><time>2026-04-28T16:56:09.995Z</time></trkpt><trkpt lat="37.9931539" lon="14.0960488"><ele>125.0</ele><time>2026-04-28T16:56:10.995Z</time></trkpt><trkpt lat="37.9932402" lon="14.0959925"><ele>125.0</ele><time>2026-04-28T16:56:11.994Z</time></trkpt><trkpt lat="37.993338" lon="14.0959613"><ele>125.0</ele><time>2026-04-28T16:56:12.994Z</time></trkpt><trkpt lat="37.9934391" lon="14.0959634"><ele>125.0</ele><time>2026-04-28T16:56:13.995Z</time></trkpt><trkpt lat="37.9935591" lon="14.0960022"><ele>125.0</ele><time>2026-04-28T16:56:14.995Z</time></trkpt><trkpt lat="37.9936719" lon="14.0960551"><ele>125.0</ele><time>2026-04-28T16:56:15.995Z</time></trkpt><trkpt lat="37.9937744" lon="14.0960992"><ele>125.25</ele><time>2026-04-28T16:56:16.995Z</time></trkpt><trkpt lat="37.9938771" lon="14.0961293"><ele>125.5</ele><time>2026-04-28T16:56:17.995Z</time></trkpt><trkpt lat="37.9939855" lon="14.0961277"><ele>125.75</ele><time>2026-04-28T16:56:18.995Z</time></trkpt><trkpt lat="37.994097" lon="14.0960896"><ele>126.0</ele><time>2026-04-28T16:56:19.995Z</time></trkpt><trkpt lat="37.9942192" lon="14.0960139"><ele>128.0</ele><time>2026-04-28T16:56:20.995Z</time></trkpt><trkpt lat="37.9943488" lon="14.0958879"><ele>130.0</ele><time>2026-04-28T16:56:21.995Z</time></trkpt><trkpt lat="37.9945065" lon="14.0957593"><ele>132.0</ele><time>2026-04-28T16:56:22.995Z</time></trkpt><trkpt lat="37.9946767" lon="14.0956363"><ele>127.66666666666666</ele><time>2026-04-28T16:56:23.994Z</time></trkpt><trkpt lat="37.9948358" lon="14.0955112"><ele>123.33333333333333</ele><time>2026-04-28T16:56:24.995Z</time></trkpt><trkpt lat="37.9949775" lon="14.0954053"><ele>119.0</ele><time>2026-04-28T16:56:25.995Z</time></trkpt><trkpt lat="37.9950972" lon="14.0953175"><ele>118.25</ele><time>2026-04-28T16:56:26.995Z</time></trkpt><trkpt lat="37.9952074" lon="14.095273"><ele>117.5</ele><time>2026-04-28T16:56:27.995Z</time></trkpt><trkpt lat="37.9953183" lon="14.095268"><ele>116.75</ele><time>2026-04-28T16:56:28.995Z</time></trkpt><trkpt lat="37.9954197" lon="14.0953208"><ele>116.0</ele><time>2026-04-28T16:56:29.994Z</time></trkpt><trkpt lat="37.9955271" lon="14.0954159"><ele>116.0</ele><time>2026-04-28T16:56:30.995Z</time></trkpt><trkpt lat="37.9956359" lon="14.095516"><ele>116.0</ele><time>2026-04-28T16:56:31.995Z</time></trkpt><trkpt lat="37.9957629" lon="14.0955898"><ele>116.0</ele><time>2026-04-28T16:56:32.995Z</time></trkpt><trkpt lat="37.9959155" lon="14.0956061"><ele>116.0</ele><time>2026-04-28T16:56:33.995Z</time></trkpt><trkpt lat="37.9960854" lon="14.0955887"><ele>115.0</ele><time>2026-04-28T16:56:34.995Z</time></trkpt><trkpt lat="37.9962627" lon="14.0955602"><ele>114.0</ele><time>2026-04-28T16:56:35.995Z</time></trkpt><trkpt lat="37.9964463" lon="14.0955272"><ele>113.0</ele><time>2026-04-28T16:56:36.994Z</time></trkpt><trkpt lat="37.9966262" lon="14.0954934"><ele>112.0</ele><time>2026-04-28T16:56:37.994Z</time></trkpt><trkpt lat="37.996802" lon="14.0954601"><ele>111.0</ele><time>2026-04-28T16:56:38.995Z</time></trkpt><trkpt lat="37.9969747" lon="14.0954281"><ele>110.0</ele><time>2026-04-28T16:56:39.995Z</time></trkpt><trkpt lat="37.9971409" lon="14.0954088"><ele>110.0</ele><time>2026-04-28T16:56:40.995Z</time></trkpt><trkpt lat="37.9973049" lon="14.0954188"><ele>110.0</ele><time>2026-04-28T16:56:41.995Z</time></trkpt><trkpt lat="37.997468" lon="14.09547"><ele>110.0</ele><time>2026-04-28T16:56:42.995Z</time></trkpt><trkpt lat="37.9976432" lon="14.0955571"><ele>111.0</ele><time>2026-04-28T16:56:43.995Z</time></trkpt><trkpt lat="37.9978322" lon="14.0956669"><ele>112.0</ele><time>2026-04-28T16:56:44.994Z</time></trkpt><trkpt lat="37.9980288" lon="14.0957873"><ele>113.0</ele><time>2026-04-28T16:56:45.995Z</time></trkpt><trkpt lat="37.9982276" lon="14.0959121"><ele>107.0</ele><time>2026-04-28T16:56:46.995Z</time></trkpt><trkpt lat="37.998431" lon="14.0960393"><ele>101.0</ele><time>2026-04-28T16:56:47.995Z</time></trkpt><trkpt lat="37.9986394" lon="14.0961745"><ele>101.0</ele><time>2026-04-28T16:56:48.995Z</time></trkpt><trkpt lat="37.9988403" lon="14.0963084"><ele>101.0</ele><time>2026-04-28T16:56:49.995Z</time></trkpt><trkpt lat="37.9990386" lon="14.0964463"><ele>102.0</ele><time>2026-04-28T16:56:50.995Z</time></trkpt><trkpt lat="37.9992375" lon="14.0965773"><ele>103.0</ele><time>2026-04-28T16:56:51.994Z</time></trkpt><trkpt lat="37.9994363" lon="14.0966981"><ele>104.0</ele><time>2026-04-28T16:56:52.995Z</time></trkpt><trkpt lat="37.9996285" lon="14.0967892"><ele>104.0</ele><time>2026-04-28T16:56:53.995Z</time></trkpt><trkpt lat="37.9998165" lon="14.096871"><ele>104.0</ele><time>2026-04-28T16:56:54.995Z</time></trkpt><trkpt lat="37.9999944" lon="14.0969443"><ele>104.0</ele><time>2026-04-28T16:56:55.995Z</time></trkpt><trkpt lat="38.0001668" lon="14.0970267"><ele>104.0</ele><time>2026-04-28T16:56:56.995Z</time></trkpt><trkpt lat="38.0003309" lon="14.0971293"><ele>104.0</ele><time>2026-04-28T16:56:57.995Z</time></trkpt><trkpt lat="38.0004887" lon="14.0972618"><ele>104.0</ele><time>2026-04-28T16:56:58.995Z</time></trkpt><trkpt lat="38.00064" lon="14.0974189"><ele>104.33333333333333</ele><time>2026-04-28T16:56:59.995Z</time></trkpt><trkpt lat="38.0007925" lon="14.0975912"><ele>104.66666666666666</ele><time>2026-04-28T16:57:00.995Z</time></trkpt><trkpt lat="38.0009427" lon="14.0977606"><ele>105.0</ele><time>2026-04-28T16:57:01.995Z</time></trkpt><trkpt lat="38.0010889" lon="14.0979235"><ele>105.0</ele><time>2026-04-28T16:57:02.995Z</time></trkpt><trkpt lat="38.0012303" lon="14.0980783"><ele>105.0</ele><time>2026-04-28T16:57:03.995Z</time></trkpt><trkpt lat="38.0013659" lon="14.0982273"><ele>105.0</ele><time>2026-04-28T16:57:04.995Z</time></trkpt><trkpt lat="38.0015063" lon="14.0983747"><ele>104.0</ele><time>2026-04-28T16:57:05.995Z</time></trkpt><trkpt lat="38.0016621" lon="14.0985231"><ele>103.0</ele><time>2026-04-28T16:57:06.995Z</time></trkpt><trkpt lat="38.0018315" lon="14.0986689"><ele>102.0</ele><time>2026-04-28T16:57:07.995Z</time></trkpt><trkpt lat="38.002002" lon="14.0988094"><ele>102.0</ele><time>2026-04-28T16:57:08.995Z</time></trkpt><trkpt lat="38.0021721" lon="14.0989426"><ele>102.0</ele><time>2026-04-28T16:57:09.994Z</time></trkpt><trkpt lat="38.0023397" lon="14.0990732"><ele>102.0</ele><time>2026-04-28T16:57:10.995Z</time></trkpt><trkpt lat="38.0025015" lon="14.0991936"><ele>101.66666666666666</ele><time>2026-04-28T16:57:11.995Z</time></trkpt><trkpt lat="38.0026561" lon="14.0993029"><ele>101.33333333333333</ele><time>2026-04-28T16:57:12.995Z</time></trkpt><trkpt lat="38.0028039" lon="14.0994054"><ele>101.0</ele><time>2026-04-28T16:57:13.995Z</time></trkpt><trkpt lat="38.0029599" lon="14.0994806"><ele>101.0</ele><time>2026-04-28T16:57:14.995Z</time></trkpt><trkpt lat="38.0031327" lon="14.0995167"><ele>101.0</ele><time>2026-04-28T16:57:15.995Z</time></trkpt><trkpt lat="38.0033268" lon="14.099534"><ele>101.0</ele><time>2026-04-28T16:57:16.995Z</time></trkpt><trkpt lat="38.0035286" lon="14.0995463"><ele>99.33333333333333</ele><time>2026-04-28T16:57:17.995Z</time></trkpt><trkpt lat="38.0037341" lon="14.0995677"><ele>97.66666666666666</ele><time>2026-04-28T16:57:18.994Z</time></trkpt><trkpt lat="38.0039405" lon="14.0996025"><ele>96.0</ele><time>2026-04-28T16:57:19.995Z</time></trkpt><trkpt lat="38.0041419" lon="14.0996379"><ele>94.66666666666667</ele><time>2026-04-28T16:57:20.995Z</time></trkpt><trkpt lat="38.0043408" lon="14.0996803"><ele>93.33333333333334</ele><time>2026-04-28T16:57:21.995Z</time></trkpt><trkpt lat="38.0045265" lon="14.0997276"><ele>92.0</ele><time>2026-04-28T16:57:22.994Z</time></trkpt><trkpt lat="38.0047009" lon="14.0997566"><ele>92.0</ele><time>2026-04-28T16:57:23.995Z</time></trkpt><trkpt lat="38.0048633" lon="14.0997634"><ele>92.0</ele><time>2026-04-28T16:57:24.995Z</time></trkpt><trkpt lat="38.005025" lon="14.0997589"><ele>92.0</ele><time>2026-04-28T16:57:25.995Z</time></trkpt><trkpt lat="38.0051937" lon="14.0997405"><ele>89.66666666666667</ele><time>2026-04-28T16:57:26.995Z</time></trkpt><trkpt lat="38.0053669" lon="14.0997255"><ele>87.33333333333333</ele><time>2026-04-28T16:57:27.995Z</time></trkpt><trkpt lat="38.0055461" lon="14.0997122"><ele>85.0</ele><time>2026-04-28T16:57:28.995Z</time></trkpt><trkpt lat="38.0057341" lon="14.0996908"><ele>84.66666666666666</ele><time>2026-04-28T16:57:29.995Z</time></trkpt><trkpt lat="38.0059268" lon="14.0996695"><ele>84.33333333333333</ele><time>2026-04-28T16:57:30.995Z</time></trkpt><trkpt lat="38.0061247" lon="14.0996512"><ele>84.0</ele><time>2026-04-28T16:57:31.994Z</time></trkpt><trkpt lat="38.006322" lon="14.0996275"><ele>84.0</ele><time>2026-04-28T16:57:32.995Z</time></trkpt><trkpt lat="38.0065245" lon="14.0996086"><ele>84.0</ele><time>2026-04-28T16:57:33.995Z</time></trkpt><trkpt lat="38.0067284" lon="14.0995854"><ele>84.0</ele><time>2026-04-28T16:57:34.995Z</time></trkpt><trkpt lat="38.0069303" lon="14.0995537"><ele>84.33333333333333</ele><time>2026-04-28T16:57:35.994Z</time></trkpt><trkpt lat="38.0071364" lon="14.0995255"><ele>84.66666666666666</ele><time>2026-04-28T16:57:36.994Z</time></trkpt><trkpt lat="38.0073497" lon="14.0995128"><ele>85.0</ele><time>2026-04-28T16:57:37.994Z</time></trkpt><trkpt lat="38.0075661" lon="14.0995197"><ele>85.66666666666666</ele><time>2026-04-28T16:57:38.995Z</time></trkpt><trkpt lat="38.0077794" lon="14.0995411"><ele>86.33333333333333</ele><time>2026-04-28T16:57:39.995Z</time></trkpt><trkpt lat="38.0079805" lon="14.0995749"><ele>87.0</ele><time>2026-04-28T16:57:40.995Z</time></trkpt><trkpt lat="38.0081585" lon="14.099624"><ele>87.0</ele><time>2026-04-28T16:57:41.995Z</time></trkpt><trkpt lat="38.0083192" lon="14.0996877"><ele>87.0</ele><time>2026-04-28T16:57:42.994Z</time></trkpt><trkpt lat="38.0084659" lon="14.0997742"><ele>87.0</ele><time>2026-04-28T16:57:43.994Z</time></trkpt><trkpt lat="38.0086108" lon="14.0998519"><ele>87.0</ele><time>2026-04-28T16:57:44.994Z</time></trkpt><trkpt lat="38.0087577" lon="14.0999036"><ele>87.0</ele><time>2026-04-28T16:57:45.995Z</time></trkpt><trkpt lat="38.008898" lon="14.099912"><ele>87.0</ele><time>2026-04-28T16:57:46.995Z</time></trkpt><trkpt lat="38.0090358" lon="14.0998647"><ele>87.0</ele><time>2026-04-28T16:57:47.995Z</time></trkpt><trkpt lat="38.009155" lon="14.0997875"><ele>84.75</ele><time>2026-04-28T16:57:48.995Z</time></trkpt><trkpt lat="38.0092591" lon="14.0997121"><ele>82.5</ele><time>2026-04-28T16:57:49.995Z</time></trkpt><trkpt lat="38.0093499" lon="14.0996815"><ele>80.25</ele><time>2026-04-28T16:57:50.995Z</time></trkpt><trkpt lat="38.0094627" lon="14.0996913"><ele>78.0</ele><time>2026-04-28T16:57:51.995Z</time></trkpt><trkpt lat="38.0095859" lon="14.0997551"><ele>78.0</ele><time>2026-04-28T16:57:52.995Z</time></trkpt><trkpt lat="38.0097348" lon="14.0998559"><ele>78.0</ele><time>2026-04-28T16:57:53.995Z</time></trkpt><trkpt lat="38.0098928" lon="14.0999622"><ele>78.0</ele><time>2026-04-28T16:57:54.994Z</time></trkpt><trkpt lat="38.0100509" lon="14.1001026"><ele>73.66666666666667</ele><time>2026-04-28T16:57:55.995Z</time></trkpt><trkpt lat="38.0102052" lon="14.1002507"><ele>69.33333333333334</ele><time>2026-04-28T16:57:56.995Z</time></trkpt><trkpt lat="38.010348" lon="14.1004009"><ele>65.0</ele><time>2026-04-28T16:57:57.995Z</time></trkpt><trkpt lat="38.0104747" lon="14.1005573"><ele>65.0</ele><time>2026-04-28T16:57:58.995Z</time></trkpt><trkpt lat="38.0105841" lon="14.1007321"><ele>65.0</ele><time>2026-04-28T16:57:59.995Z</time></trkpt><trkpt lat="38.0106836" lon="14.1009154"><ele>65.0</ele><time>2026-04-28T16:58:00.995Z</time></trkpt><trkpt lat="38.0107832" lon="14.1010809"><ele>61.66666666666667</ele><time>2026-04-28T16:58:01.995Z</time></trkpt><trkpt lat="38.0108909" lon="14.1012327"><ele>58.33333333333333</ele><time>2026-04-28T16:58:02.994Z</time></trkpt><trkpt lat="38.0110033" lon="14.1013746"><ele>55.0</ele><time>2026-04-28T16:58:03.995Z</time></trkpt><trkpt lat="38.0111093" lon="14.101523"><ele>56.33333333333333</ele><time>2026-04-28T16:58:04.995Z</time></trkpt><trkpt lat="38.0111907" lon="14.101693"><ele>57.66666666666667</ele><time>2026-04-28T16:58:05.995Z</time></trkpt><trkpt lat="38.0112378" lon="14.101886"><ele>59.0</ele><time>2026-04-28T16:58:06.994Z</time></trkpt><trkpt lat="38.01125" lon="14.1021018"><ele>59.0</ele><time>2026-04-28T16:58:07.995Z</time></trkpt><trkpt lat="38.0112181" lon="14.1023119"><ele>59.0</ele><time>2026-04-28T16:58:08.994Z</time></trkpt><trkpt lat="38.0111751" lon="14.1025202"><ele>59.0</ele><time>2026-04-28T16:58:09.995Z</time></trkpt><trkpt lat="38.0111278" lon="14.1027157"><ele>59.5</ele><time>2026-04-28T16:58:10.994Z</time></trkpt><trkpt lat="38.0111043" lon="14.1029039"><ele>60.0</ele><time>2026-04-28T16:58:11.995Z</time></trkpt><trkpt lat="38.011127" lon="14.1030881"><ele>60.5</ele><time>2026-04-28T16:58:12.994Z</time></trkpt><trkpt lat="38.0111958" lon="14.1032595"><ele>61.0</ele><time>2026-04-28T16:58:13.995Z</time></trkpt><trkpt lat="38.0112948" lon="14.1034122"><ele>62.33333333333333</ele><time>2026-04-28T16:58:14.995Z</time></trkpt><trkpt lat="38.0114245" lon="14.1035323"><ele>63.66666666666667</ele><time>2026-04-28T16:58:15.995Z</time></trkpt><trkpt lat="38.0115861" lon="14.103625"><ele>65.0</ele><time>2026-04-28T16:58:16.995Z</time></trkpt><trkpt lat="38.0117744" lon="14.1037099"><ele>56.66666666666667</ele><time>2026-04-28T16:58:17.995Z</time></trkpt><trkpt lat="38.0119814" lon="14.1037871"><ele>48.333333333333336</ele><time>2026-04-28T16:58:18.995Z</time></trkpt><trkpt lat="38.0121825" lon="14.1038647"><ele>40.0</ele><time>2026-04-28T16:58:19.995Z</time></trkpt><trkpt lat="38.0123714" lon="14.1039445"><ele>37.0</ele><time>2026-04-28T16:58:20.995Z</time></trkpt><trkpt lat="38.0125446" lon="14.104032"><ele>34.0</ele><time>2026-04-28T16:58:21.995Z</time></trkpt><trkpt lat="38.0127137" lon="14.1041265"><ele>31.0</ele><time>2026-04-28T16:58:22.995Z</time></trkpt><trkpt lat="38.0128884" lon="14.1042256"><ele>31.0</ele><time>2026-04-28T16:58:23.995Z</time></trkpt><trkpt lat="38.0130658" lon="14.1043417"><ele>31.0</ele><time>2026-04-28T16:58:24.995Z</time></trkpt><trkpt lat="38.0132411" lon="14.1044679"><ele>31.0</ele><time>2026-04-28T16:58:25.995Z</time></trkpt><trkpt lat="38.0134122" lon="14.1045944"><ele>28.333333333333336</ele><time>2026-04-28T16:58:26.995Z</time></trkpt><trkpt lat="38.0135783" lon="14.1046982"><ele>25.666666666666668</ele><time>2026-04-28T16:58:27.994Z</time></trkpt><trkpt lat="38.0137397" lon="14.1047701"><ele>23.0</ele><time>2026-04-28T16:58:28.994Z</time></trkpt><trkpt lat="38.0138927" lon="14.1047926"><ele>23.0</ele><time>2026-04-28T16:58:29.994Z</time></trkpt><trkpt lat="38.014043" lon="14.1047543"><ele>23.0</ele><time>2026-04-28T16:58:30.995Z</time></trkpt><trkpt lat="38.0141781" lon="14.1046685"><ele>23.0</ele><time>2026-04-28T16:58:31.995Z</time></trkpt><trkpt lat="38.0142682" lon="14.1045818"><ele>23.0</ele><time>2026-04-28T16:58:32.995Z</time></trkpt><trkpt lat="38.0143332" lon="14.1044995"><ele>21.857142857142858</ele><time>2026-04-28T16:58:33.994Z</time></trkpt><trkpt lat="38.0143804" lon="14.1044295"><ele>20.71428571428571</ele><time>2026-04-28T16:58:34.994Z</time></trkpt><trkpt lat="38.0144219" lon="14.1043598"><ele>19.57142857142857</ele><time>2026-04-28T16:58:35.995Z</time></trkpt><trkpt lat="38.0144645" lon="14.1042943"><ele>18.42857142857143</ele><time>2026-04-28T16:58:36.995Z</time></trkpt><trkpt lat="38.0145076" lon="14.1042327"><ele>17.285714285714285</ele><time>2026-04-28T16:58:37.995Z</time></trkpt><trkpt lat="38.0145556" lon="14.1041762"><ele>16.142857142857142</ele><time>2026-04-28T16:58:38.995Z</time></trkpt><trkpt lat="38.0146105" lon="14.1041336"><ele>15.0</ele><time>2026-04-28T16:58:39.995Z</time></trkpt><trkpt lat="38.0146708" lon="14.1041022"><ele>15.0</ele><time>2026-04-28T16:58:40.995Z</time></trkpt><trkpt lat="38.0147851" lon="14.104094"><ele>15.0</ele><time>2026-04-28T16:58:42.995Z</time></trkpt><trkpt lat="38.0148787" lon="14.1041146"><ele>15.0</ele><time>2026-04-28T16:58:44.994Z</time></trkpt><trkpt lat="38.0149847" lon="14.104113"><ele>15.0</ele><time>2026-04-28T16:58:46.995Z</time></trkpt><trkpt lat="38.0150723" lon="14.1040388"><ele>15.0</ele><time>2026-04-28T16:58:48.994Z</time></trkpt><trkpt lat="38.0151382" lon="14.1039808"><ele>14.333333333333334</ele><time>2026-04-28T16:58:51.994Z</time></trkpt><trkpt lat="38.0151914" lon="14.1039127"><ele>13.666666666666666</ele><time>2026-04-28T16:58:54.995Z</time></trkpt><trkpt lat="38.015234" lon="14.103816"><ele>13.0</ele><time>2026-04-28T16:58:56.995Z</time></trkpt><trkpt lat="38.0153065" lon="14.10368"><ele>12.333333333333332</ele><time>2026-04-28T16:58:58.995Z</time></trkpt><trkpt lat="38.0153576" lon="14.1036176"><ele>11.666666666666666</ele><time>2026-04-28T16:58:59.994Z</time></trkpt><trkpt lat="38.0154057" lon="14.1035306"><ele>11.0</ele><time>2026-04-28T16:59:00.995Z</time></trkpt><trkpt lat="38.0154363" lon="14.1034483"><ele>11.0</ele><time>2026-04-28T16:59:01.995Z</time></trkpt><trkpt lat="38.0154558" lon="14.1033557"><ele>11.0</ele><time>2026-04-28T16:59:02.995Z</time></trkpt><trkpt lat="38.0154794" lon="14.1032551"><ele>11.0</ele><time>2026-04-28T16:59:03.995Z</time></trkpt><trkpt lat="38.0155053" lon="14.1031509"><ele>11.0</ele><time>2026-04-28T16:59:04.995Z</time></trkpt><trkpt lat="38.0155296" lon="14.1030371"><ele>11.0</ele><time>2026-04-28T16:59:05.995Z</time></trkpt><trkpt lat="38.0155587" lon="14.10292"><ele>11.0</ele><time>2026-04-28T16:59:06.994Z</time></trkpt><trkpt lat="38.0155794" lon="14.1028118"><ele>16.6</ele><time>2026-04-28T16:59:07.994Z</time></trkpt><trkpt lat="38.0156146" lon="14.1026983"><ele>22.2</ele><time>2026-04-28T16:59:09.994Z</time></trkpt><trkpt lat="38.0156517" lon="14.1026324"><ele>27.799999999999997</ele><time>2026-04-28T16:59:12.994Z</time></trkpt><trkpt lat="38.0156557" lon="14.1025068"><ele>33.4</ele><time>2026-04-28T17:00:49.994Z</time></trkpt><trkpt lat="38.0156773" lon="14.1024"><ele>39.0</ele><time>2026-04-28T17:00:50.995Z</time></trkpt><trkpt lat="38.0157071" lon="14.102268"><ele>34.25</ele><time>2026-04-28T17:00:51.995Z</time></trkpt><trkpt lat="38.0157472" lon="14.1021121"><ele>29.5</ele><time>2026-04-28T17:00:52.995Z</time></trkpt><trkpt lat="38.0157884" lon="14.1019561"><ele>24.75</ele><time>2026-04-28T17:00:53.995Z</time></trkpt><trkpt lat="38.0158376" lon="14.1017996"><ele>20.0</ele><time>2026-04-28T17:00:54.995Z</time></trkpt><trkpt lat="38.0158847" lon="14.1016384"><ele>22.75</ele><time>2026-04-28T17:00:55.995Z</time></trkpt><trkpt lat="38.0159343" lon="14.1014689"><ele>25.5</ele><time>2026-04-28T17:00:56.995Z</time></trkpt><trkpt lat="38.0159766" lon="14.1012893"><ele>28.25</ele><time>2026-04-28T17:00:57.994Z</time></trkpt><trkpt lat="38.0160179" lon="14.1010969"><ele>31.0</ele><time>2026-04-28T17:00:58.995Z</time></trkpt><trkpt lat="38.0160513" lon="14.1009002"><ele>35.333333333333336</ele><time>2026-04-28T17:00:59.995Z</time></trkpt><trkpt lat="38.0160852" lon="14.1007064"><ele>39.666666666666664</ele><time>2026-04-28T17:01:00.995Z</time></trkpt><trkpt lat="38.0161203" lon="14.1005188"><ele>44.0</ele><time>2026-04-28T17:01:01.995Z</time></trkpt><trkpt lat="38.016168" lon="14.1003367"><ele>44.0</ele><time>2026-04-28T17:01:02.995Z</time></trkpt><trkpt lat="38.0162304" lon="14.1001684"><ele>44.0</ele><time>2026-04-28T17:01:03.994Z</time></trkpt><trkpt lat="38.0163004" lon="14.1000021"><ele>44.0</ele><time>2026-04-28T17:01:04.994Z</time></trkpt><trkpt lat="38.0163716" lon="14.0998286"><ele>44.0</ele><time>2026-04-28T17:01:05.994Z</time></trkpt><trkpt lat="38.0164419" lon="14.0996508"><ele>47.25</ele><time>2026-04-28T17:01:06.995Z</time></trkpt><trkpt lat="38.0165089" lon="14.0994863"><ele>50.5</ele><time>2026-04-28T17:01:07.995Z</time></trkpt><trkpt lat="38.0165722" lon="14.0993352"><ele>53.75</ele><time>2026-04-28T17:01:08.995Z</time></trkpt><trkpt lat="38.0166257" lon="14.0991951"><ele>57.0</ele><time>2026-04-28T17:01:09.994Z</time></trkpt><trkpt lat="38.0166696" lon="14.09904"><ele>48.25</ele><time>2026-04-28T17:01:10.994Z</time></trkpt><trkpt lat="38.0167057" lon="14.0988754"><ele>39.5</ele><time>2026-04-28T17:01:11.994Z</time></trkpt><trkpt lat="38.016738" lon="14.0987174"><ele>30.75</ele><time>2026-04-28T17:01:12.994Z</time></trkpt><trkpt lat="38.0167716" lon="14.0985647"><ele>22.0</ele><time>2026-04-28T17:01:13.995Z</time></trkpt><trkpt lat="38.0168138" lon="14.0984151"><ele>22.0</ele><time>2026-04-28T17:01:14.995Z</time></trkpt><trkpt lat="38.0168617" lon="14.0982604"><ele>22.0</ele><time>2026-04-28T17:01:15.995Z</time></trkpt><trkpt lat="38.0169083" lon="14.098097"><ele>22.0</ele><time>2026-04-28T17:01:16.994Z</time></trkpt><trkpt lat="38.0169499" lon="14.097924"><ele>22.0</ele><time>2026-04-28T17:01:17.995Z</time></trkpt><trkpt lat="38.0169886" lon="14.0977539"><ele>24.75</ele><time>2026-04-28T17:01:18.995Z</time></trkpt><trkpt lat="38.017025" lon="14.0975848"><ele>27.5</ele><time>2026-04-28T17:01:19.995Z</time></trkpt><trkpt lat="38.0170532" lon="14.0974078"><ele>30.25</ele><time>2026-04-28T17:01:20.995Z</time></trkpt><trkpt lat="38.0170709" lon="14.0972187"><ele>33.0</ele><time>2026-04-28T17:01:21.994Z</time></trkpt><trkpt lat="38.0170873" lon="14.0970274"><ele>35.0</ele><time>2026-04-28T17:01:22.995Z</time></trkpt><trkpt lat="38.017107" lon="14.0968336"><ele>37.0</ele><time>2026-04-28T17:01:23.995Z</time></trkpt><trkpt lat="38.0171354" lon="14.0966378"><ele>39.0</ele><time>2026-04-28T17:01:24.995Z</time></trkpt><trkpt lat="38.0171776" lon="14.0964548"><ele>41.0</ele><time>2026-04-28T17:01:25.995Z</time></trkpt><trkpt lat="38.0172365" lon="14.0962867"><ele>43.0</ele><time>2026-04-28T17:01:26.995Z</time></trkpt><trkpt lat="38.0173057" lon="14.0961253"><ele>45.0</ele><time>2026-04-28T17:01:27.995Z</time></trkpt><trkpt lat="38.0173792" lon="14.0959539"><ele>47.0</ele><time>2026-04-28T17:01:28.995Z</time></trkpt><trkpt lat="38.0174494" lon="14.0957663"><ele>36.0</ele><time>2026-04-28T17:01:29.995Z</time></trkpt><trkpt lat="38.0175132" lon="14.0955642"><ele>25.0</ele><time>2026-04-28T17:01:30.994Z</time></trkpt><trkpt lat="38.0175569" lon="14.0953574"><ele>14.0</ele><time>2026-04-28T17:01:31.995Z</time></trkpt><trkpt lat="38.0175781" lon="14.0951499"><ele>14.0</ele><time>2026-04-28T17:01:32.995Z</time></trkpt><trkpt lat="38.0175838" lon="14.0949458"><ele>14.0</ele><time>2026-04-28T17:01:33.994Z</time></trkpt><trkpt lat="38.0175799" lon="14.0947544"><ele>14.0</ele><time>2026-04-28T17:01:34.995Z</time></trkpt><trkpt lat="38.0175849" lon="14.0945739"><ele>16.75</ele><time>2026-04-28T17:01:35.995Z</time></trkpt><trkpt lat="38.0176157" lon="14.0944074"><ele>19.5</ele><time>2026-04-28T17:01:36.995Z</time></trkpt><trkpt lat="38.0176776" lon="14.0942508"><ele>22.25</ele><time>2026-04-28T17:01:37.995Z</time></trkpt><trkpt lat="38.017754" lon="14.0940711"><ele>25.0</ele><time>2026-04-28T17:01:38.995Z</time></trkpt><trkpt lat="38.0178082" lon="14.0938655"><ele>29.666666666666668</ele><time>2026-04-28T17:01:39.995Z</time></trkpt><trkpt lat="38.0178539" lon="14.0936511"><ele>34.333333333333336</ele><time>2026-04-28T17:01:40.994Z</time></trkpt><trkpt lat="38.0179031" lon="14.0934288"><ele>39.0</ele><time>2026-04-28T17:01:41.995Z</time></trkpt><trkpt lat="38.0179702" lon="14.0932131"><ele>47.33333333333333</ele><time>2026-04-28T17:01:42.995Z</time></trkpt><trkpt lat="38.0180583" lon="14.0930111"><ele>55.666666666666664</ele><time>2026-04-28T17:01:43.995Z</time></trkpt><trkpt lat="38.0181583" lon="14.092815"><ele>64.0</ele><time>2026-04-28T17:01:44.995Z</time></trkpt><trkpt lat="38.0182726" lon="14.0926223"><ele>56.666666666666664</ele><time>2026-04-28T17:01:45.995Z</time></trkpt><trkpt lat="38.0183979" lon="14.092423"><ele>49.33333333333333</ele><time>2026-04-28T17:01:46.995Z</time></trkpt><trkpt lat="38.0185249" lon="14.0922398"><ele>42.0</ele><time>2026-04-28T17:01:47.995Z</time></trkpt><trkpt lat="38.0186499" lon="14.0920569"><ele>42.0</ele><time>2026-04-28T17:01:48.994Z</time></trkpt><trkpt lat="38.0187763" lon="14.0918791"><ele>42.0</ele><time>2026-04-28T17:01:49.994Z</time></trkpt><trkpt lat="38.0188949" lon="14.0917131"><ele>42.0</ele><time>2026-04-28T17:01:50.993Z</time></trkpt><trkpt lat="38.0190057" lon="14.0915482"><ele>35.0</ele><time>2026-04-28T17:01:51.994Z</time></trkpt><trkpt lat="38.0191112" lon="14.0913727"><ele>28.0</ele><time>2026-04-28T17:01:52.994Z</time></trkpt><trkpt lat="38.0192024" lon="14.0911892"><ele>21.0</ele><time>2026-04-28T17:01:53.994Z</time></trkpt><trkpt lat="38.0192835" lon="14.091021"><ele>21.0</ele><time>2026-04-28T17:01:54.994Z</time></trkpt><trkpt lat="38.0193594" lon="14.0908677"><ele>21.0</ele><time>2026-04-28T17:01:55.994Z</time></trkpt><trkpt lat="38.019413" lon="14.0907161"><ele>21.0</ele><time>2026-04-28T17:01:56.994Z</time></trkpt><trkpt lat="38.0194486" lon="14.0905756"><ele>21.0</ele><time>2026-04-28T17:01:57.993Z</time></trkpt><trkpt lat="38.0194773" lon="14.0904344"><ele>25.0</ele><time>2026-04-28T17:01:58.993Z</time></trkpt><trkpt lat="38.0195014" lon="14.0902985"><ele>29.0</ele><time>2026-04-28T17:01:59.994Z</time></trkpt><trkpt lat="38.0195289" lon="14.0901549"><ele>33.0</ele><time>2026-04-28T17:02:00.994Z</time></trkpt><trkpt lat="38.0195618" lon="14.0900065"><ele>37.0</ele><time>2026-04-28T17:02:01.994Z</time></trkpt><trkpt lat="38.0195969" lon="14.0898672"><ele>40.400000000000006</ele><time>2026-04-28T17:02:02.994Z</time></trkpt><trkpt lat="38.0196365" lon="14.0897403"><ele>43.800000000000004</ele><time>2026-04-28T17:02:03.994Z</time></trkpt><trkpt lat="38.019673" lon="14.0896238"><ele>47.2</ele><time>2026-04-28T17:02:04.994Z</time></trkpt><trkpt lat="38.0197134" lon="14.0895136"><ele>50.6</ele><time>2026-04-28T17:02:05.994Z</time></trkpt><trkpt lat="38.0197708" lon="14.0894078"><ele>54.0</ele><time>2026-04-28T17:02:06.994Z</time></trkpt><trkpt lat="38.0198418" lon="14.0893031"><ele>54.0</ele><time>2026-04-28T17:02:07.994Z</time></trkpt><trkpt lat="38.0199325" lon="14.0892046"><ele>54.0</ele><time>2026-04-28T17:02:08.994Z</time></trkpt><trkpt lat="38.0200322" lon="14.0890882"><ele>54.0</ele><time>2026-04-28T17:02:09.993Z</time></trkpt><trkpt lat="38.0201167" lon="14.0889571"><ele>54.0</ele><time>2026-04-28T17:02:10.994Z</time></trkpt><trkpt lat="38.0201804" lon="14.0888209"><ele>48.6</ele><time>2026-04-28T17:02:11.994Z</time></trkpt><trkpt lat="38.0202321" lon="14.0886856"><ele>43.2</ele><time>2026-04-28T17:02:12.994Z</time></trkpt><trkpt lat="38.0202815" lon="14.0885545"><ele>37.800000000000004</ele><time>2026-04-28T17:02:13.994Z</time></trkpt><trkpt lat="38.0203241" lon="14.0884467"><ele>32.400000000000006</ele><time>2026-04-28T17:02:14.994Z</time></trkpt><trkpt lat="38.0203575" lon="14.088365"><ele>27.0</ele><time>2026-04-28T17:02:15.994Z</time></trkpt><trkpt lat="38.020384" lon="14.0882912"><ele>27.8</ele><time>2026-04-28T17:02:16.994Z</time></trkpt><trkpt lat="38.020408" lon="14.0881718"><ele>28.6</ele><time>2026-04-28T17:02:18.994Z</time></trkpt><trkpt lat="38.0204276" lon="14.0880833"><ele>29.400000000000002</ele><time>2026-04-28T17:02:21.994Z</time></trkpt><trkpt lat="38.0203999" lon="14.0879946"><ele>30.200000000000003</ele><time>2026-04-28T17:03:39.993Z</time></trkpt><trkpt lat="38.0203863" lon="14.0878784"><ele>31.0</ele><time>2026-04-28T17:03:40.994Z</time></trkpt><trkpt lat="38.0203716" lon="14.0877299"><ele>31.0</ele><time>2026-04-28T17:03:41.994Z</time></trkpt><trkpt lat="38.0203487" lon="14.0875345"><ele>31.0</ele><time>2026-04-28T17:03:42.994Z</time></trkpt><trkpt lat="38.0203145" lon="14.0873264"><ele>31.0</ele><time>2026-04-28T17:03:43.994Z</time></trkpt><trkpt lat="38.0202664" lon="14.0871174"><ele>26.666666666666668</ele><time>2026-04-28T17:03:44.993Z</time></trkpt><trkpt lat="38.0202037" lon="14.0869068"><ele>22.333333333333336</ele><time>2026-04-28T17:03:45.994Z</time></trkpt><trkpt lat="38.0201334" lon="14.0867221"><ele>18.0</ele><time>2026-04-28T17:03:46.993Z</time></trkpt><trkpt lat="38.020063" lon="14.0865574"><ele>14.75</ele><time>2026-04-28T17:03:47.994Z</time></trkpt><trkpt lat="38.0199996" lon="14.0863942"><ele>11.5</ele><time>2026-04-28T17:03:48.994Z</time></trkpt><trkpt lat="38.0199467" lon="14.0862429"><ele>8.25</ele><time>2026-04-28T17:03:49.994Z</time></trkpt><trkpt lat="38.0199099" lon="14.086085"><ele>5.0</ele><time>2026-04-28T17:03:50.993Z</time></trkpt><trkpt lat="38.0198947" lon="14.0859216"><ele>11.25</ele><time>2026-04-28T17:03:51.994Z</time></trkpt><trkpt lat="38.0198867" lon="14.0857576"><ele>17.5</ele><time>2026-04-28T17:03:52.994Z</time></trkpt><trkpt lat="38.0198648" lon="14.085602"><ele>23.75</ele><time>2026-04-28T17:03:53.994Z</time></trkpt><trkpt lat="38.0198274" lon="14.0854548"><ele>30.0</ele><time>2026-04-28T17:03:54.994Z</time></trkpt><trkpt lat="38.0197718" lon="14.085318"><ele>30.0</ele><time>2026-04-28T17:03:55.994Z</time></trkpt><trkpt lat="38.0196956" lon="14.0851943"><ele>30.0</ele><time>2026-04-28T17:03:56.994Z</time></trkpt><trkpt lat="38.019604" lon="14.0850898"><ele>30.0</ele><time>2026-04-28T17:03:57.994Z</time></trkpt><trkpt lat="38.0195033" lon="14.0849996"><ele>30.0</ele><time>2026-04-28T17:03:58.994Z</time></trkpt><trkpt lat="38.0194091" lon="14.0849144"><ele>25.5</ele><time>2026-04-28T17:03:59.994Z</time></trkpt><trkpt lat="38.0193201" lon="14.0848185"><ele>21.0</ele><time>2026-04-28T17:04:00.994Z</time></trkpt><trkpt lat="38.0192351" lon="14.0847027"><ele>16.5</ele><time>2026-04-28T17:04:01.994Z</time></trkpt><trkpt lat="38.01917" lon="14.0845542"><ele>12.0</ele><time>2026-04-28T17:04:02.994Z</time></trkpt><trkpt lat="38.0191143" lon="14.0843736"><ele>22.333333333333336</ele><time>2026-04-28T17:04:03.994Z</time></trkpt><trkpt lat="38.0190709" lon="14.0841492"><ele>32.66666666666667</ele><time>2026-04-28T17:04:04.993Z</time></trkpt><trkpt lat="38.0190177" lon="14.0839324"><ele>43.0</ele><time>2026-04-28T17:04:05.994Z</time></trkpt><trkpt lat="38.018965" lon="14.0837309"><ele>43.0</ele><time>2026-04-28T17:04:06.994Z</time></trkpt><trkpt lat="38.0189185" lon="14.0835468"><ele>43.0</ele><time>2026-04-28T17:04:07.994Z</time></trkpt><trkpt lat="38.0188796" lon="14.0833736"><ele>43.0</ele><time>2026-04-28T17:04:08.994Z</time></trkpt><trkpt lat="38.0188685" lon="14.0832015"><ele>43.0</ele><time>2026-04-28T17:04:09.994Z</time></trkpt><trkpt lat="38.0188927" lon="14.0830133"><ele>43.66666666666667</ele><time>2026-04-28T17:04:10.994Z</time></trkpt><trkpt lat="38.0189345" lon="14.0828276"><ele>44.333333333333336</ele><time>2026-04-28T17:04:11.994Z</time></trkpt><trkpt lat="38.0189719" lon="14.08263"><ele>45.0</ele><time>2026-04-28T17:04:12.994Z</time></trkpt><trkpt lat="38.0189837" lon="14.0824191"><ele>42.5</ele><time>2026-04-28T17:04:13.993Z</time></trkpt><trkpt lat="38.0189669" lon="14.0822154"><ele>40.0</ele><time>2026-04-28T17:04:14.993Z</time></trkpt><trkpt lat="38.0189233" lon="14.082031"><ele>37.5</ele><time>2026-04-28T17:04:15.994Z</time></trkpt><trkpt lat="38.0188492" lon="14.0818887"><ele>35.0</ele><time>2026-04-28T17:04:16.994Z</time></trkpt><trkpt lat="38.0187726" lon="14.0817578"><ele>35.0</ele><time>2026-04-28T17:04:17.994Z</time></trkpt><trkpt lat="38.0187034" lon="14.081618"><ele>35.0</ele><time>2026-04-28T17:04:18.994Z</time></trkpt><trkpt lat="38.0186413" lon="14.0814708"><ele>35.0</ele><time>2026-04-28T17:04:19.994Z</time></trkpt><trkpt lat="38.0185753" lon="14.0813332"><ele>35.0</ele><time>2026-04-28T17:04:20.994Z</time></trkpt><trkpt lat="38.0184961" lon="14.0812206"><ele>35.8</ele><time>2026-04-28T17:04:21.994Z</time></trkpt><trkpt lat="38.0184206" lon="14.0811317"><ele>36.6</ele><time>2026-04-28T17:04:22.994Z</time></trkpt><trkpt lat="38.018339" lon="14.0810563"><ele>37.4</ele><time>2026-04-28T17:04:23.994Z</time></trkpt><trkpt lat="38.0182576" lon="14.0809888"><ele>38.2</ele><time>2026-04-28T17:04:24.994Z</time></trkpt><trkpt lat="38.0181875" lon="14.0809171"><ele>39.0</ele><time>2026-04-28T17:04:25.993Z</time></trkpt><trkpt lat="38.0181291" lon="14.0808248"><ele>40.0</ele><time>2026-04-28T17:04:26.994Z</time></trkpt><trkpt lat="38.0180863" lon="14.0807041"><ele>41.0</ele><time>2026-04-28T17:04:27.994Z</time></trkpt><trkpt lat="38.0180713" lon="14.0805446"><ele>42.0</ele><time>2026-04-28T17:04:28.994Z</time></trkpt><trkpt lat="38.0180892" lon="14.0803533"><ele>43.0</ele><time>2026-04-28T17:04:29.994Z</time></trkpt><trkpt lat="38.0181055" lon="14.0801238"><ele>44.0</ele><time>2026-04-28T17:04:30.994Z</time></trkpt><trkpt lat="38.0181103" lon="14.0798909"><ele>45.0</ele><time>2026-04-28T17:04:31.994Z</time></trkpt><trkpt lat="38.0181096" lon="14.0796336"><ele>46.0</ele><time>2026-04-28T17:04:32.993Z</time></trkpt><trkpt lat="38.0181022" lon="14.0793638"><ele>44.66666666666667</ele><time>2026-04-28T17:04:33.994Z</time></trkpt><trkpt lat="38.01809" lon="14.0790842"><ele>43.333333333333336</ele><time>2026-04-28T17:04:34.994Z</time></trkpt><trkpt lat="38.0180729" lon="14.0788055"><ele>42.0</ele><time>2026-04-28T17:04:35.994Z</time></trkpt><trkpt lat="38.0180484" lon="14.0785182"><ele>37.0</ele><time>2026-04-28T17:04:36.994Z</time></trkpt><trkpt lat="38.0180194" lon="14.0782296"><ele>32.0</ele><time>2026-04-28T17:04:37.994Z</time></trkpt><trkpt lat="38.0179971" lon="14.0779489"><ele>32.0</ele><time>2026-04-28T17:04:38.994Z</time></trkpt><trkpt lat="38.0179827" lon="14.0776749"><ele>32.0</ele><time>2026-04-28T17:04:39.994Z</time></trkpt><trkpt lat="38.0179783" lon="14.0774177"><ele>32.0</ele><time>2026-04-28T17:04:40.994Z</time></trkpt><trkpt lat="38.0179708" lon="14.0771693"><ele>29.666666666666664</ele><time>2026-04-28T17:04:41.993Z</time></trkpt><trkpt lat="38.0179677" lon="14.0769515"><ele>27.333333333333336</ele><time>2026-04-28T17:04:42.994Z</time></trkpt><trkpt lat="38.0179561" lon="14.0767555"><ele>25.0</ele><time>2026-04-28T17:04:43.994Z</time></trkpt><trkpt lat="38.0179223" lon="14.0765732"><ele>24.25</ele><time>2026-04-28T17:04:44.994Z</time></trkpt><trkpt lat="38.0178719" lon="14.0764151"><ele>23.5</ele><time>2026-04-28T17:04:45.993Z</time></trkpt><trkpt lat="38.0177979" lon="14.0762639"><ele>22.75</ele><time>2026-04-28T17:04:46.994Z</time></trkpt><trkpt lat="38.017721" lon="14.0761209"><ele>22.0</ele><time>2026-04-28T17:04:47.994Z</time></trkpt><trkpt lat="38.0176456" lon="14.0759833"><ele>22.0</ele><time>2026-04-28T17:04:48.994Z</time></trkpt><trkpt lat="38.0175776" lon="14.0758433"><ele>22.0</ele><time>2026-04-28T17:04:49.994Z</time></trkpt><trkpt lat="38.0175255" lon="14.0756948"><ele>22.0</ele><time>2026-04-28T17:04:50.994Z</time></trkpt><trkpt lat="38.0174861" lon="14.0755315"><ele>22.0</ele><time>2026-04-28T17:04:51.994Z</time></trkpt><trkpt lat="38.0174624" lon="14.07535"><ele>29.0</ele><time>2026-04-28T17:04:52.993Z</time></trkpt><trkpt lat="38.0174568" lon="14.0751472"><ele>36.0</ele><time>2026-04-28T17:04:53.993Z</time></trkpt><trkpt lat="38.0174547" lon="14.0749457"><ele>43.0</ele><time>2026-04-28T17:04:54.993Z</time></trkpt><trkpt lat="38.0174676" lon="14.0747533"><ele>43.0</ele><time>2026-04-28T17:04:55.994Z</time></trkpt><trkpt lat="38.0174874" lon="14.0745802"><ele>43.0</ele><time>2026-04-28T17:04:56.994Z</time></trkpt><trkpt lat="38.0174963" lon="14.0743942"><ele>43.0</ele><time>2026-04-28T17:04:57.994Z</time></trkpt><trkpt lat="38.0174848" lon="14.0741927"><ele>43.0</ele><time>2026-04-28T17:04:58.994Z</time></trkpt><trkpt lat="38.0174551" lon="14.0739706"><ele>43.333333333333336</ele><time>2026-04-28T17:04:59.994Z</time></trkpt><trkpt lat="38.0174084" lon="14.0737545"><ele>43.666666666666664</ele><time>2026-04-28T17:05:00.994Z</time></trkpt><trkpt lat="38.0173587" lon="14.0735366"><ele>44.0</ele><time>2026-04-28T17:05:01.993Z</time></trkpt><trkpt lat="38.0173114" lon="14.0733195"><ele>43.0</ele><time>2026-04-28T17:05:02.994Z</time></trkpt><trkpt lat="38.0172726" lon="14.0730953"><ele>42.0</ele><time>2026-04-28T17:05:03.993Z</time></trkpt><trkpt lat="38.0172416" lon="14.0728521"><ele>41.0</ele><time>2026-04-28T17:05:04.994Z</time></trkpt><trkpt lat="38.0172161" lon="14.072602"><ele>40.0</ele><time>2026-04-28T17:05:05.993Z</time></trkpt><trkpt lat="38.0171938" lon="14.0723563"><ele>39.0</ele><time>2026-04-28T17:05:06.993Z</time></trkpt><trkpt lat="38.017179" lon="14.0721222"><ele>38.0</ele><time>2026-04-28T17:05:07.993Z</time></trkpt><trkpt lat="38.0171695" lon="14.0719018"><ele>38.0</ele><time>2026-04-28T17:05:08.994Z</time></trkpt><trkpt lat="38.0171684" lon="14.0716843"><ele>38.0</ele><time>2026-04-28T17:05:09.994Z</time></trkpt><trkpt lat="38.0171899" lon="14.0714621"><ele>38.0</ele><time>2026-04-28T17:05:10.994Z</time></trkpt><trkpt lat="38.0172307" lon="14.0712222"><ele>41.0</ele><time>2026-04-28T17:05:11.994Z</time></trkpt><trkpt lat="38.0172919" lon="14.0709599"><ele>44.0</ele><time>2026-04-28T17:05:12.994Z</time></trkpt><trkpt lat="38.017353" lon="14.0706807"><ele>47.0</ele><time>2026-04-28T17:05:13.993Z</time></trkpt><trkpt lat="38.0174073" lon="14.0703941"><ele>51.0</ele><time>2026-04-28T17:05:14.993Z</time></trkpt><trkpt lat="38.0174652" lon="14.0701233"><ele>55.0</ele><time>2026-04-28T17:05:15.994Z</time></trkpt><trkpt lat="38.0175312" lon="14.0698616"><ele>59.0</ele><time>2026-04-28T17:05:16.994Z</time></trkpt><trkpt lat="38.0176015" lon="14.069618"><ele>50.66666666666667</ele><time>2026-04-28T17:05:17.994Z</time></trkpt><trkpt lat="38.017681" lon="14.0693725"><ele>42.333333333333336</ele><time>2026-04-28T17:05:18.993Z</time></trkpt><trkpt lat="38.0177477" lon="14.0691129"><ele>34.0</ele><time>2026-04-28T17:05:19.994Z</time></trkpt><trkpt lat="38.0177947" lon="14.0688256"><ele>34.0</ele><time>2026-04-28T17:05:20.994Z</time></trkpt><trkpt lat="38.0178252" lon="14.0685544"><ele>34.0</ele><time>2026-04-28T17:05:21.994Z</time></trkpt><trkpt lat="38.0178466" lon="14.0682952"><ele>34.0</ele><time>2026-04-28T17:05:22.994Z</time></trkpt><trkpt lat="38.0178556" lon="14.0680409"><ele>32.66666666666667</ele><time>2026-04-28T17:05:23.994Z</time></trkpt><trkpt lat="38.0178444" lon="14.0677729"><ele>31.333333333333336</ele><time>2026-04-28T17:05:24.994Z</time></trkpt><trkpt lat="38.0178149" lon="14.0675032"><ele>30.0</ele><time>2026-04-28T17:05:25.994Z</time></trkpt><trkpt lat="38.0177789" lon="14.0672348"><ele>29.666666666666664</ele><time>2026-04-28T17:05:26.994Z</time></trkpt><trkpt lat="38.0177621" lon="14.0669632"><ele>29.333333333333332</ele><time>2026-04-28T17:05:27.993Z</time></trkpt><trkpt lat="38.0177688" lon="14.0666845"><ele>29.0</ele><time>2026-04-28T17:05:28.994Z</time></trkpt><trkpt lat="38.0177813" lon="14.0664123"><ele>29.0</ele><time>2026-04-28T17:05:29.994Z</time></trkpt><trkpt lat="38.0177934" lon="14.0661375"><ele>29.0</ele><time>2026-04-28T17:05:30.994Z</time></trkpt><trkpt lat="38.0178151" lon="14.0658642"><ele>29.0</ele><time>2026-04-28T17:05:31.993Z</time></trkpt><trkpt lat="38.017851" lon="14.0655835"><ele>32.0</ele><time>2026-04-28T17:05:32.994Z</time></trkpt><trkpt lat="38.0178969" lon="14.0652922"><ele>35.0</ele><time>2026-04-28T17:05:33.994Z</time></trkpt><trkpt lat="38.0179519" lon="14.0650033"><ele>39.0</ele><time>2026-04-28T17:05:34.994Z</time></trkpt><trkpt lat="38.0180019" lon="14.064718"><ele>43.0</ele><time>2026-04-28T17:05:35.994Z</time></trkpt><trkpt lat="38.0180473" lon="14.0644417"><ele>43.0</ele><time>2026-04-28T17:05:36.994Z</time></trkpt><trkpt lat="38.0180855" lon="14.0641745"><ele>43.0</ele><time>2026-04-28T17:05:37.994Z</time></trkpt><trkpt lat="38.0181248" lon="14.0639099"><ele>43.0</ele><time>2026-04-28T17:05:38.994Z</time></trkpt><trkpt lat="38.0181751" lon="14.0636451"><ele>47.333333333333336</ele><time>2026-04-28T17:05:39.994Z</time></trkpt><trkpt lat="38.0182451" lon="14.0633896"><ele>51.66666666666667</ele><time>2026-04-28T17:05:40.994Z</time></trkpt><trkpt lat="38.0183432" lon="14.0631409"><ele>56.0</ele><time>2026-04-28T17:05:41.994Z</time></trkpt><trkpt lat="38.0184529" lon="14.0629114"><ele>52.66666666666667</ele><time>2026-04-28T17:05:42.994Z</time></trkpt><trkpt lat="38.0185569" lon="14.0626936"><ele>49.333333333333336</ele><time>2026-04-28T17:05:43.993Z</time></trkpt><trkpt lat="38.0186757" lon="14.0624813"><ele>46.0</ele><time>2026-04-28T17:05:44.994Z</time></trkpt><trkpt lat="38.0188203" lon="14.0622791"><ele>46.0</ele><time>2026-04-28T17:05:45.994Z</time></trkpt><trkpt lat="38.0189832" lon="14.0620832"><ele>46.0</ele><time>2026-04-28T17:05:46.994Z</time></trkpt><trkpt lat="38.0191548" lon="14.0618895"><ele>42.5</ele><time>2026-04-28T17:05:47.994Z</time></trkpt><trkpt lat="38.019329" lon="14.0616942"><ele>39.0</ele><time>2026-04-28T17:05:48.994Z</time></trkpt><trkpt lat="38.0195034" lon="14.0614957"><ele>39.0</ele><time>2026-04-28T17:05:49.994Z</time></trkpt><trkpt lat="38.0196769" lon="14.0612933"><ele>39.0</ele><time>2026-04-28T17:05:50.994Z</time></trkpt><trkpt lat="38.0198492" lon="14.0610945"><ele>33.5</ele><time>2026-04-28T17:05:51.994Z</time></trkpt><trkpt lat="38.0200226" lon="14.0608984"><ele>28.0</ele><time>2026-04-28T17:05:52.993Z</time></trkpt><trkpt lat="38.0201877" lon="14.0606888"><ele>28.0</ele><time>2026-04-28T17:05:53.994Z</time></trkpt><trkpt lat="38.0203439" lon="14.060471"><ele>28.0</ele><time>2026-04-28T17:05:54.994Z</time></trkpt><trkpt lat="38.0204751" lon="14.0602433"><ele>28.0</ele><time>2026-04-28T17:05:55.994Z</time></trkpt><trkpt lat="38.0205816" lon="14.060019"><ele>28.0</ele><time>2026-04-28T17:05:56.994Z</time></trkpt><trkpt lat="38.0206732" lon="14.0598001"><ele>28.0</ele><time>2026-04-28T17:05:57.994Z</time></trkpt><trkpt lat="38.0207494" lon="14.0595922"><ele>25.0</ele><time>2026-04-28T17:05:58.994Z</time></trkpt><trkpt lat="38.020817" lon="14.0593932"><ele>22.0</ele><time>2026-04-28T17:05:59.994Z</time></trkpt><trkpt lat="38.0208654" lon="14.0592154"><ele>19.0</ele><time>2026-04-28T17:06:00.993Z</time></trkpt><trkpt lat="38.0208898" lon="14.0590643"><ele>16.0</ele><time>2026-04-28T17:06:01.993Z</time></trkpt><trkpt lat="38.0209054" lon="14.0589365"><ele>15.999999999999998</ele><time>2026-04-28T17:06:02.994Z</time></trkpt><trkpt lat="38.0209141" lon="14.0588296"><ele>16.0</ele><time>2026-04-28T17:06:03.993Z</time></trkpt><trkpt lat="38.0209335" lon="14.0587426"><ele>16.0</ele><time>2026-04-28T17:06:04.994Z</time></trkpt><trkpt lat="38.0209651" lon="14.0586648"><ele>16.0</ele><time>2026-04-28T17:06:05.993Z</time></trkpt><trkpt lat="38.0210067" lon="14.0585897"><ele>15.999999999999998</ele><time>2026-04-28T17:06:06.993Z</time></trkpt><trkpt lat="38.0210646" lon="14.0584872"><ele>16.0</ele><time>2026-04-28T17:06:07.994Z</time></trkpt><trkpt lat="38.021133" lon="14.0583745"><ele>19.200000000000003</ele><time>2026-04-28T17:06:08.994Z</time></trkpt><trkpt lat="38.0212059" lon="14.0582663"><ele>22.400000000000002</ele><time>2026-04-28T17:06:09.994Z</time></trkpt><trkpt lat="38.0212753" lon="14.0581624"><ele>25.6</ele><time>2026-04-28T17:06:10.993Z</time></trkpt><trkpt lat="38.0213414" lon="14.0580707"><ele>28.8</ele><time>2026-04-28T17:06:11.994Z</time></trkpt><trkpt lat="38.0214114" lon="14.058002"><ele>32.0</ele><time>2026-04-28T17:06:12.994Z</time></trkpt><trkpt lat="38.02148" lon="14.0579429"><ele>31.999999999999996</ele><time>2026-04-28T17:06:13.993Z</time></trkpt><trkpt lat="38.0215502" lon="14.0578968"><ele>32.0</ele><time>2026-04-28T17:06:14.994Z</time></trkpt><trkpt lat="38.0216187" lon="14.0578602"><ele>32.0</ele><time>2026-04-28T17:06:15.994Z</time></trkpt><trkpt lat="38.0216911" lon="14.057829"><ele>32.0</ele><time>2026-04-28T17:06:16.994Z</time></trkpt><trkpt lat="38.0217579" lon="14.05779"><ele>31.999999999999996</ele><time>2026-04-28T17:06:17.994Z</time></trkpt><trkpt lat="38.0218249" lon="14.0576914"><ele>32.0</ele><time>2026-04-28T17:06:18.994Z</time></trkpt><trkpt lat="38.021889" lon="14.0575424"><ele>32.666666666666664</ele><time>2026-04-28T17:06:19.994Z</time></trkpt><trkpt lat="38.0219615" lon="14.0573547"><ele>33.333333333333336</ele><time>2026-04-28T17:06:20.994Z</time></trkpt><trkpt lat="38.0220516" lon="14.0571611"><ele>34.0</ele><time>2026-04-28T17:06:21.994Z</time></trkpt><trkpt lat="38.0221393" lon="14.0569639"><ele>34.0</ele><time>2026-04-28T17:06:22.994Z</time></trkpt><trkpt lat="38.0222283" lon="14.0567528"><ele>34.0</ele><time>2026-04-28T17:06:23.994Z</time></trkpt><trkpt lat="38.0223118" lon="14.0565529"><ele>34.0</ele><time>2026-04-28T17:06:24.994Z</time></trkpt><trkpt lat="38.0224005" lon="14.0563712"><ele>30.666666666666668</ele><time>2026-04-28T17:06:25.994Z</time></trkpt><trkpt lat="38.0225071" lon="14.0562075"><ele>27.333333333333336</ele><time>2026-04-28T17:06:26.994Z</time></trkpt><trkpt lat="38.0226455" lon="14.0560493"><ele>24.0</ele><time>2026-04-28T17:06:27.994Z</time></trkpt><trkpt lat="38.0228028" lon="14.055903"><ele>33.66666666666667</ele><time>2026-04-28T17:06:28.994Z</time></trkpt><trkpt lat="38.0229648" lon="14.0557639"><ele>43.333333333333336</ele><time>2026-04-28T17:06:29.993Z</time></trkpt><trkpt lat="38.0231233" lon="14.0556232"><ele>53.0</ele><time>2026-04-28T17:06:30.993Z</time></trkpt><trkpt lat="38.0232776" lon="14.055494"><ele>47.0</ele><time>2026-04-28T17:06:31.994Z</time></trkpt><trkpt lat="38.0234427" lon="14.0554035"><ele>41.0</ele><time>2026-04-28T17:06:32.994Z</time></trkpt><trkpt lat="38.0236111" lon="14.0553308"><ele>35.0</ele><time>2026-04-28T17:06:33.994Z</time></trkpt><trkpt lat="38.0237816" lon="14.0552525"><ele>35.0</ele><time>2026-04-28T17:06:34.994Z</time></trkpt><trkpt lat="38.0239527" lon="14.0551448"><ele>35.0</ele><time>2026-04-28T17:06:35.994Z</time></trkpt><trkpt lat="38.0241189" lon="14.0550107"><ele>35.0</ele><time>2026-04-28T17:06:36.993Z</time></trkpt><trkpt lat="38.0242715" lon="14.0548663"><ele>33.666666666666664</ele><time>2026-04-28T17:06:37.994Z</time></trkpt><trkpt lat="38.0244033" lon="14.0547235"><ele>32.333333333333336</ele><time>2026-04-28T17:06:38.994Z</time></trkpt><trkpt lat="38.0245149" lon="14.0545675"><ele>31.0</ele><time>2026-04-28T17:06:39.994Z</time></trkpt><trkpt lat="38.0245924" lon="14.054395"><ele>31.0</ele><time>2026-04-28T17:06:40.994Z</time></trkpt><trkpt lat="38.0246381" lon="14.0541831"><ele>31.0</ele><time>2026-04-28T17:06:41.994Z</time></trkpt><trkpt lat="38.0246703" lon="14.0539474"><ele>31.0</ele><time>2026-04-28T17:06:42.994Z</time></trkpt><trkpt lat="38.0246946" lon="14.0537046"><ele>36.333333333333336</ele><time>2026-04-28T17:06:43.994Z</time></trkpt><trkpt lat="38.0247155" lon="14.0534724"><ele>41.666666666666664</ele><time>2026-04-28T17:06:44.994Z</time></trkpt><trkpt lat="38.0247377" lon="14.0532496"><ele>47.0</ele><time>2026-04-28T17:06:45.994Z</time></trkpt><trkpt lat="38.0247718" lon="14.0530439"><ele>52.33333333333333</ele><time>2026-04-28T17:06:46.994Z</time></trkpt><trkpt lat="38.0248373" lon="14.0528447"><ele>57.666666666666664</ele><time>2026-04-28T17:06:47.993Z</time></trkpt><trkpt lat="38.0249492" lon="14.0526781"><ele>63.0</ele><time>2026-04-28T17:06:48.994Z</time></trkpt><trkpt lat="38.0250964" lon="14.052555"><ele>54.666666666666664</ele><time>2026-04-28T17:06:49.994Z</time></trkpt><trkpt lat="38.0252659" lon="14.0524379"><ele>46.33333333333333</ele><time>2026-04-28T17:06:50.993Z</time></trkpt><trkpt lat="38.025449" lon="14.0523048"><ele>38.0</ele><time>2026-04-28T17:06:51.993Z</time></trkpt><trkpt lat="38.0256202" lon="14.0521581"><ele>38.0</ele><time>2026-04-28T17:06:52.994Z</time></trkpt><trkpt lat="38.025781" lon="14.0519813"><ele>38.0</ele><time>2026-04-28T17:06:53.994Z</time></trkpt><trkpt lat="38.0259203" lon="14.0518017"><ele>38.0</ele><time>2026-04-28T17:06:54.994Z</time></trkpt><trkpt lat="38.0260331" lon="14.0516222"><ele>34.666666666666664</ele><time>2026-04-28T17:06:55.994Z</time></trkpt><trkpt lat="38.0261167" lon="14.0514392"><ele>31.333333333333336</ele><time>2026-04-28T17:06:56.993Z</time></trkpt><trkpt lat="38.0261787" lon="14.0512253"><ele>28.0</ele><time>2026-04-28T17:06:57.994Z</time></trkpt><trkpt lat="38.0262266" lon="14.0509945"><ele>32.333333333333336</ele><time>2026-04-28T17:06:58.994Z</time></trkpt><trkpt lat="38.0262686" lon="14.050764"><ele>36.666666666666664</ele><time>2026-04-28T17:06:59.994Z</time></trkpt><trkpt lat="38.0263116" lon="14.0505388"><ele>41.0</ele><time>2026-04-28T17:07:00.994Z</time></trkpt><trkpt lat="38.0263505" lon="14.0503136"><ele>41.0</ele><time>2026-04-28T17:07:01.994Z</time></trkpt><trkpt lat="38.02639" lon="14.0500955"><ele>41.0</ele><time>2026-04-28T17:07:02.994Z</time></trkpt><trkpt lat="38.0264497" lon="14.0498894"><ele>41.0</ele><time>2026-04-28T17:07:03.994Z</time></trkpt><trkpt lat="38.0265347" lon="14.049692"><ele>39.666666666666664</ele><time>2026-04-28T17:07:04.994Z</time></trkpt><trkpt lat="38.02663" lon="14.0494862"><ele>38.333333333333336</ele><time>2026-04-28T17:07:05.994Z</time></trkpt><trkpt lat="38.0267341" lon="14.0492931"><ele>37.0</ele><time>2026-04-28T17:07:06.994Z</time></trkpt><trkpt lat="38.0268516" lon="14.0491102"><ele>37.0</ele><time>2026-04-28T17:07:07.994Z</time></trkpt><trkpt lat="38.0269754" lon="14.0489264"><ele>37.0</ele><time>2026-04-28T17:07:08.993Z</time></trkpt><trkpt lat="38.0270986" lon="14.0487498"><ele>37.0</ele><time>2026-04-28T17:07:09.994Z</time></trkpt><trkpt lat="38.0272183" lon="14.0485584"><ele>37.0</ele><time>2026-04-28T17:07:10.994Z</time></trkpt><trkpt lat="38.0273244" lon="14.048355"><ele>37.0</ele><time>2026-04-28T17:07:11.994Z</time></trkpt><trkpt lat="38.0274152" lon="14.0481334"><ele>37.0</ele><time>2026-04-28T17:07:12.994Z</time></trkpt><trkpt lat="38.0274918" lon="14.0479136"><ele>36.0</ele><time>2026-04-28T17:07:13.994Z</time></trkpt><trkpt lat="38.0275563" lon="14.0476907"><ele>35.0</ele><time>2026-04-28T17:07:14.993Z</time></trkpt><trkpt lat="38.027617" lon="14.0474538"><ele>34.0</ele><time>2026-04-28T17:07:15.993Z</time></trkpt><trkpt lat="38.0276845" lon="14.0472177"><ele>34.0</ele><time>2026-04-28T17:07:16.993Z</time></trkpt><trkpt lat="38.0277791" lon="14.0469857"><ele>34.0</ele><time>2026-04-28T17:07:17.994Z</time></trkpt><trkpt lat="38.0278974" lon="14.0467719"><ele>34.0</ele><time>2026-04-28T17:07:18.994Z</time></trkpt><trkpt lat="38.0280189" lon="14.0465661"><ele>30.0</ele><time>2026-04-28T17:07:19.993Z</time></trkpt><trkpt lat="38.0281303" lon="14.0463689"><ele>26.0</ele><time>2026-04-28T17:07:20.994Z</time></trkpt><trkpt lat="38.0282452" lon="14.0461897"><ele>22.0</ele><time>2026-04-28T17:07:21.994Z</time></trkpt><trkpt lat="38.0283865" lon="14.0460336"><ele>22.0</ele><time>2026-04-28T17:07:22.994Z</time></trkpt><trkpt lat="38.0285387" lon="14.0458847"><ele>22.0</ele><time>2026-04-28T17:07:23.994Z</time></trkpt><trkpt lat="38.0286934" lon="14.0457375"><ele>22.0</ele><time>2026-04-28T17:07:24.994Z</time></trkpt><trkpt lat="38.0288311" lon="14.0455866"><ele>28.333333333333332</ele><time>2026-04-28T17:07:25.994Z</time></trkpt><trkpt lat="38.0289399" lon="14.0454366"><ele>34.666666666666664</ele><time>2026-04-28T17:07:26.994Z</time></trkpt><trkpt lat="38.0290073" lon="14.0452655"><ele>41.0</ele><time>2026-04-28T17:07:27.994Z</time></trkpt><trkpt lat="38.0290469" lon="14.0450747"><ele>46.33333333333333</ele><time>2026-04-28T17:07:28.994Z</time></trkpt><trkpt lat="38.0290529" lon="14.0448631"><ele>51.666666666666664</ele><time>2026-04-28T17:07:29.994Z</time></trkpt><trkpt lat="38.0290457" lon="14.0446356"><ele>57.0</ele><time>2026-04-28T17:07:30.994Z</time></trkpt><trkpt lat="38.0290407" lon="14.0444102"><ele>57.0</ele><time>2026-04-28T17:07:31.994Z</time></trkpt><trkpt lat="38.029043" lon="14.0441833"><ele>57.0</ele><time>2026-04-28T17:07:32.994Z</time></trkpt><trkpt lat="38.0290532" lon="14.0439545"><ele>57.0</ele><time>2026-04-28T17:07:33.994Z</time></trkpt><trkpt lat="38.0290928" lon="14.0437277"><ele>50.0</ele><time>2026-04-28T17:07:34.994Z</time></trkpt><trkpt lat="38.0291484" lon="14.0435056"><ele>43.0</ele><time>2026-04-28T17:07:35.994Z</time></trkpt><trkpt lat="38.0291903" lon="14.0432865"><ele>36.0</ele><time>2026-04-28T17:07:36.994Z</time></trkpt><trkpt lat="38.0292229" lon="14.0430626"><ele>36.0</ele><time>2026-04-28T17:07:37.994Z</time></trkpt><trkpt lat="38.0292643" lon="14.0428462"><ele>36.0</ele><time>2026-04-28T17:07:38.993Z</time></trkpt><trkpt lat="38.0293363" lon="14.0426472"><ele>36.0</ele><time>2026-04-28T17:07:39.994Z</time></trkpt><trkpt lat="38.0294313" lon="14.0424562"><ele>42.66666666666667</ele><time>2026-04-28T17:07:40.994Z</time></trkpt><trkpt lat="38.0295566" lon="14.0422989"><ele>49.333333333333336</ele><time>2026-04-28T17:07:41.994Z</time></trkpt><trkpt lat="38.0296909" lon="14.042149"><ele>56.0</ele><time>2026-04-28T17:07:42.994Z</time></trkpt><trkpt lat="38.0298212" lon="14.0419838"><ele>56.0</ele><time>2026-04-28T17:07:43.994Z</time></trkpt><trkpt lat="38.0299405" lon="14.0417939"><ele>56.0</ele><time>2026-04-28T17:07:44.994Z</time></trkpt><trkpt lat="38.0300485" lon="14.041584"><ele>56.0</ele><time>2026-04-28T17:07:45.994Z</time></trkpt><trkpt lat="38.030141" lon="14.0413562"><ele>57.66666666666667</ele><time>2026-04-28T17:07:46.994Z</time></trkpt><trkpt lat="38.0302326" lon="14.041125"><ele>59.33333333333333</ele><time>2026-04-28T17:07:47.994Z</time></trkpt><trkpt lat="38.0303435" lon="14.0408974"><ele>61.0</ele><time>2026-04-28T17:07:48.994Z</time></trkpt><trkpt lat="38.0304598" lon="14.0406734"><ele>61.0</ele><time>2026-04-28T17:07:49.993Z</time></trkpt><trkpt lat="38.0305778" lon="14.0404527"><ele>61.0</ele><time>2026-04-28T17:07:50.994Z</time></trkpt><trkpt lat="38.030703" lon="14.0402297"><ele>61.0</ele><time>2026-04-28T17:07:51.994Z</time></trkpt><trkpt lat="38.0308443" lon="14.0400046"><ele>55.5</ele><time>2026-04-28T17:07:52.994Z</time></trkpt><trkpt lat="38.031003" lon="14.0397882"><ele>50.0</ele><time>2026-04-28T17:07:53.994Z</time></trkpt><trkpt lat="38.0311712" lon="14.03958"><ele>50.0</ele><time>2026-04-28T17:07:54.993Z</time></trkpt><trkpt lat="38.0313276" lon="14.0393737"><ele>50.0</ele><time>2026-04-28T17:07:55.994Z</time></trkpt><trkpt lat="38.0314735" lon="14.0391857"><ele>50.0</ele><time>2026-04-28T17:07:56.994Z</time></trkpt><trkpt lat="38.0316046" lon="14.0390152"><ele>49.333333333333336</ele><time>2026-04-28T17:07:57.994Z</time></trkpt><trkpt lat="38.0317311" lon="14.0388598"><ele>48.66666666666667</ele><time>2026-04-28T17:07:58.994Z</time></trkpt><trkpt lat="38.0318568" lon="14.0387216"><ele>48.0</ele><time>2026-04-28T17:07:59.994Z</time></trkpt><trkpt lat="38.0319883" lon="14.038619"><ele>48.0</ele><time>2026-04-28T17:08:00.993Z</time></trkpt><trkpt lat="38.0321266" lon="14.038538"><ele>48.0</ele><time>2026-04-28T17:08:01.994Z</time></trkpt><trkpt lat="38.0322819" lon="14.0384663"><ele>48.0</ele><time>2026-04-28T17:08:02.994Z</time></trkpt><trkpt lat="38.0324375" lon="14.0384061"><ele>47.25</ele><time>2026-04-28T17:08:03.994Z</time></trkpt><trkpt lat="38.0325859" lon="14.0383459"><ele>46.5</ele><time>2026-04-28T17:08:04.994Z</time></trkpt><trkpt lat="38.0327145" lon="14.038282"><ele>45.75</ele><time>2026-04-28T17:08:05.994Z</time></trkpt><trkpt lat="38.03282" lon="14.038189"><ele>45.0</ele><time>2026-04-28T17:08:06.994Z</time></trkpt><trkpt lat="38.0328831" lon="14.0380725"><ele>45.0</ele><time>2026-04-28T17:08:07.994Z</time></trkpt><trkpt lat="38.032908" lon="14.0379217"><ele>45.0</ele><time>2026-04-28T17:08:08.994Z</time></trkpt><trkpt lat="38.0328988" lon="14.0377747"><ele>45.0</ele><time>2026-04-28T17:08:09.994Z</time></trkpt><trkpt lat="38.0328676" lon="14.0376244"><ele>45.0</ele><time>2026-04-28T17:08:10.994Z</time></trkpt><trkpt lat="38.0328252" lon="14.0374767"><ele>46.25</ele><time>2026-04-28T17:08:11.993Z</time></trkpt><trkpt lat="38.0328034" lon="14.0373224"><ele>47.5</ele><time>2026-04-28T17:08:12.994Z</time></trkpt><trkpt lat="38.0328244" lon="14.0371638"><ele>48.75</ele><time>2026-04-28T17:08:13.994Z</time></trkpt><trkpt lat="38.0328707" lon="14.0370278"><ele>50.0</ele><time>2026-04-28T17:08:14.994Z</time></trkpt><trkpt lat="38.0329168" lon="14.0368878"><ele>50.0</ele><time>2026-04-28T17:08:15.994Z</time></trkpt><trkpt lat="38.0329535" lon="14.0367286"><ele>50.0</ele><time>2026-04-28T17:08:16.994Z</time></trkpt><trkpt lat="38.0329672" lon="14.0365528"><ele>50.0</ele><time>2026-04-28T17:08:17.994Z</time></trkpt><trkpt lat="38.0329568" lon="14.0363683"><ele>50.0</ele><time>2026-04-28T17:08:18.994Z</time></trkpt><trkpt lat="38.0329333" lon="14.0361685"><ele>50.66666666666667</ele><time>2026-04-28T17:08:19.994Z</time></trkpt><trkpt lat="38.0328974" lon="14.0359647"><ele>51.33333333333333</ele><time>2026-04-28T17:08:20.993Z</time></trkpt><trkpt lat="38.0328591" lon="14.035752"><ele>52.0</ele><time>2026-04-28T17:08:21.994Z</time></trkpt><trkpt lat="38.032827" lon="14.0355332"><ele>53.0</ele><time>2026-04-28T17:08:22.994Z</time></trkpt><trkpt lat="38.0328008" lon="14.0353129"><ele>54.0</ele><time>2026-04-28T17:08:23.994Z</time></trkpt><trkpt lat="38.0327651" lon="14.0350932"><ele>55.0</ele><time>2026-04-28T17:08:24.994Z</time></trkpt><trkpt lat="38.0327216" lon="14.0348725"><ele>57.33333333333333</ele><time>2026-04-28T17:08:25.994Z</time></trkpt><trkpt lat="38.0326862" lon="14.0346592"><ele>59.66666666666667</ele><time>2026-04-28T17:08:26.994Z</time></trkpt><trkpt lat="38.0326634" lon="14.0344476"><ele>62.0</ele><time>2026-04-28T17:08:27.994Z</time></trkpt><trkpt lat="38.0326556" lon="14.0342312"><ele>63.66666666666667</ele><time>2026-04-28T17:08:28.994Z</time></trkpt><trkpt lat="38.0326587" lon="14.0340082"><ele>65.33333333333333</ele><time>2026-04-28T17:08:29.994Z</time></trkpt><trkpt lat="38.0326649" lon="14.0337838"><ele>67.0</ele><time>2026-04-28T17:08:30.994Z</time></trkpt><trkpt lat="38.0326727" lon="14.0335536"><ele>67.0</ele><time>2026-04-28T17:08:31.994Z</time></trkpt><trkpt lat="38.0326777" lon="14.0333275"><ele>67.0</ele><time>2026-04-28T17:08:32.994Z</time></trkpt><trkpt lat="38.032681" lon="14.0331063"><ele>67.0</ele><time>2026-04-28T17:08:33.994Z</time></trkpt><trkpt lat="38.0326808" lon="14.0328882"><ele>67.33333333333333</ele><time>2026-04-28T17:08:34.994Z</time></trkpt><trkpt lat="38.0326739" lon="14.0326765"><ele>67.66666666666667</ele><time>2026-04-28T17:08:35.994Z</time></trkpt><trkpt lat="38.0326592" lon="14.0324662"><ele>68.0</ele><time>2026-04-28T17:08:36.994Z</time></trkpt><trkpt lat="38.0326318" lon="14.0322521"><ele>68.0</ele><time>2026-04-28T17:08:37.994Z</time></trkpt><trkpt lat="38.0326018" lon="14.0320389"><ele>68.0</ele><time>2026-04-28T17:08:38.993Z</time></trkpt><trkpt lat="38.0325725" lon="14.0318348"><ele>68.0</ele><time>2026-04-28T17:08:39.994Z</time></trkpt><trkpt lat="38.0325471" lon="14.0316376"><ele>67.33333333333334</ele><time>2026-04-28T17:08:40.994Z</time></trkpt><trkpt lat="38.0325316" lon="14.0314487"><ele>66.66666666666667</ele><time>2026-04-28T17:08:41.994Z</time></trkpt><trkpt lat="38.0325309" lon="14.0312634"><ele>66.0</ele><time>2026-04-28T17:08:42.994Z</time></trkpt><trkpt lat="38.0325544" lon="14.0310637"><ele>66.0</ele><time>2026-04-28T17:08:43.993Z</time></trkpt><trkpt lat="38.0326032" lon="14.0308638"><ele>66.0</ele><time>2026-04-28T17:08:44.994Z</time></trkpt><trkpt lat="38.0326938" lon="14.0306704"><ele>66.0</ele><time>2026-04-28T17:08:45.994Z</time></trkpt><trkpt lat="38.0328079" lon="14.0304805"><ele>69.0</ele><time>2026-04-28T17:08:46.994Z</time></trkpt><trkpt lat="38.032905" lon="14.0302783"><ele>72.0</ele><time>2026-04-28T17:08:47.994Z</time></trkpt><trkpt lat="38.0329913" lon="14.0300599"><ele>75.0</ele><time>2026-04-28T17:08:48.994Z</time></trkpt><trkpt lat="38.0330719" lon="14.0298242"><ele>80.33333333333333</ele><time>2026-04-28T17:08:49.993Z</time></trkpt><trkpt lat="38.0331364" lon="14.0295821"><ele>85.66666666666666</ele><time>2026-04-28T17:08:50.994Z</time></trkpt><trkpt lat="38.0331883" lon="14.0293314"><ele>91.0</ele><time>2026-04-28T17:08:51.994Z</time></trkpt><trkpt lat="38.0332197" lon="14.0290855"><ele>94.0</ele><time>2026-04-28T17:08:52.994Z</time></trkpt><trkpt lat="38.0332551" lon="14.0288384"><ele>97.0</ele><time>2026-04-28T17:08:53.994Z</time></trkpt><trkpt lat="38.0329726" lon="14.0265834"><ele>90.75</ele><time>2026-04-28T17:09:02.994Z</time></trkpt><trkpt lat="38.0329511" lon="14.0263639"><ele>84.5</ele><time>2026-04-28T17:09:03.994Z</time></trkpt><trkpt lat="38.0329304" lon="14.0261905"><ele>78.25</ele><time>2026-04-28T17:09:04.994Z</time></trkpt><trkpt lat="38.0329244" lon="14.0260498"><ele>72.0</ele><time>2026-04-28T17:09:05.993Z</time></trkpt><trkpt lat="38.0329164" lon="14.0259553"><ele>72.0</ele><time>2026-04-28T17:09:06.994Z</time></trkpt><trkpt lat="38.0329102" lon="14.0258391"><ele>72.0</ele><time>2026-04-28T17:09:08.994Z</time></trkpt><trkpt lat="38.0329023" lon="14.025749"><ele>72.0</ele><time>2026-04-28T17:09:10.994Z</time></trkpt><trkpt lat="38.032899" lon="14.025623"><ele>72.0</ele><time>2026-04-28T17:09:12.994Z</time></trkpt><trkpt lat="38.0328951" lon="14.0254833"><ele>72.0</ele><time>2026-04-28T17:09:14.994Z</time></trkpt><trkpt lat="38.0329004" lon="14.0253341"><ele>71.16666666666667</ele><time>2026-04-28T17:09:16.994Z</time></trkpt><trkpt lat="38.0329076" lon="14.0252526"><ele>70.33333333333333</ele><time>2026-04-28T17:09:17.994Z</time></trkpt><trkpt lat="38.0329157" lon="14.0251719"><ele>69.5</ele><time>2026-04-28T17:09:18.994Z</time></trkpt><trkpt lat="38.0329267" lon="14.0250917"><ele>68.66666666666666</ele><time>2026-04-28T17:09:19.993Z</time></trkpt><trkpt lat="38.0329436" lon="14.0250124"><ele>67.83333333333333</ele><time>2026-04-28T17:09:20.994Z</time></trkpt><trkpt lat="38.0329753" lon="14.0248671"><ele>67.0</ele><time>2026-04-28T17:09:22.994Z</time></trkpt><trkpt lat="38.0329902" lon="14.0247306"><ele>65.6</ele><time>2026-04-28T17:09:24.994Z</time></trkpt><trkpt lat="38.0329474" lon="14.0246096"><ele>64.2</ele><time>2026-04-28T17:09:26.994Z</time></trkpt><trkpt lat="38.032836" lon="14.0245477"><ele>62.8</ele><time>2026-04-28T17:09:36.994Z</time></trkpt><trkpt lat="38.0327674" lon="14.0245021"><ele>61.4</ele><time>2026-04-28T17:09:37.994Z</time></trkpt><trkpt lat="38.0326859" lon="14.0244478"><ele>60.0</ele><time>2026-04-28T17:09:38.994Z</time></trkpt><trkpt lat="38.032595" lon="14.0243649"><ele>60.0</ele><time>2026-04-28T17:09:39.994Z</time></trkpt><trkpt lat="38.0325171" lon="14.0242605"><ele>60.0</ele><time>2026-04-28T17:09:40.994Z</time></trkpt><trkpt lat="38.03245" lon="14.0241451"><ele>60.0</ele><time>2026-04-28T17:09:41.994Z</time></trkpt><trkpt lat="38.032387" lon="14.0240294"><ele>60.0</ele><time>2026-04-28T17:09:42.994Z</time></trkpt><trkpt lat="38.0323212" lon="14.0239221"><ele>60.0</ele><time>2026-04-28T17:09:43.994Z</time></trkpt><trkpt lat="38.0322578" lon="14.0238174"><ele>63.4</ele><time>2026-04-28T17:09:44.994Z</time></trkpt><trkpt lat="38.032194" lon="14.0237156"><ele>66.8</ele><time>2026-04-28T17:09:45.993Z</time></trkpt><trkpt lat="38.0321366" lon="14.023618"><ele>70.2</ele><time>2026-04-28T17:09:46.994Z</time></trkpt><trkpt lat="38.0320786" lon="14.0235252"><ele>73.6</ele><time>2026-04-28T17:09:47.994Z</time></trkpt><trkpt lat="38.0320231" lon="14.0234288"><ele>77.0</ele><time>2026-04-28T17:09:48.994Z</time></trkpt><trkpt lat="38.031963" lon="14.0233367"><ele>75.0</ele><time>2026-04-28T17:09:49.994Z</time></trkpt><trkpt lat="38.0318988" lon="14.0232352"><ele>73.0</ele><time>2026-04-28T17:09:50.994Z</time></trkpt><trkpt lat="38.0318291" lon="14.0231255"><ele>71.0</ele><time>2026-04-28T17:09:51.994Z</time></trkpt><trkpt lat="38.0317636" lon="14.023013"><ele>69.0</ele><time>2026-04-28T17:09:52.994Z</time></trkpt><trkpt lat="38.0316969" lon="14.0229015"><ele>67.0</ele><time>2026-04-28T17:09:53.993Z</time></trkpt><trkpt lat="38.0316305" lon="14.0227917"><ele>71.0</ele><time>2026-04-28T17:09:54.994Z</time></trkpt><trkpt lat="38.031575" lon="14.0226686"><ele>75.0</ele><time>2026-04-28T17:09:55.994Z</time></trkpt><trkpt lat="38.0315317" lon="14.0225552"><ele>79.0</ele><time>2026-04-28T17:09:56.993Z</time></trkpt><trkpt lat="38.0315166" lon="14.0224467"><ele>83.0</ele><time>2026-04-28T17:09:57.993Z</time></trkpt><trkpt lat="38.0315066" lon="14.022341"><ele>87.0</ele><time>2026-04-28T17:09:58.994Z</time></trkpt><trkpt lat="38.0314898" lon="14.0222405"><ele>87.0</ele><time>2026-04-28T17:09:59.994Z</time></trkpt><trkpt lat="38.0314635" lon="14.0221385"><ele>87.0</ele><time>2026-04-28T17:10:00.994Z</time></trkpt><trkpt lat="38.031422" lon="14.0220386"><ele>87.0</ele><time>2026-04-28T17:10:01.994Z</time></trkpt><trkpt lat="38.0313671" lon="14.0219476"><ele>87.0</ele><time>2026-04-28T17:10:02.993Z</time></trkpt><trkpt lat="38.0313114" lon="14.0218573"><ele>87.0</ele><time>2026-04-28T17:10:03.994Z</time></trkpt><trkpt lat="38.0312578" lon="14.0217753"><ele>87.0</ele><time>2026-04-28T17:10:04.994Z</time></trkpt><trkpt lat="38.0312089" lon="14.0216976"><ele>85.16666666666667</ele><time>2026-04-28T17:10:05.993Z</time></trkpt><trkpt lat="38.0311584" lon="14.0216262"><ele>83.33333333333333</ele><time>2026-04-28T17:10:06.994Z</time></trkpt><trkpt lat="38.0311081" lon="14.0215517"><ele>81.5</ele><time>2026-04-28T17:10:07.994Z</time></trkpt><trkpt lat="38.0310565" lon="14.0214785"><ele>79.66666666666666</ele><time>2026-04-28T17:10:08.994Z</time></trkpt><trkpt lat="38.0310031" lon="14.0214034"><ele>77.83333333333333</ele><time>2026-04-28T17:10:09.994Z</time></trkpt><trkpt lat="38.0309525" lon="14.0213293"><ele>76.0</ele><time>2026-04-28T17:10:10.993Z</time></trkpt><trkpt lat="38.0308988" lon="14.0212487"><ele>76.0</ele><time>2026-04-28T17:10:11.994Z</time></trkpt><trkpt lat="38.0308419" lon="14.0211593"><ele>76.0</ele><time>2026-04-28T17:10:12.994Z</time></trkpt><trkpt lat="38.0307852" lon="14.0210729"><ele>76.0</ele><time>2026-04-28T17:10:13.994Z</time></trkpt><trkpt lat="38.0307304" lon="14.020986"><ele>76.0</ele><time>2026-04-28T17:10:14.994Z</time></trkpt><trkpt lat="38.0306776" lon="14.0208901"><ele>76.0</ele><time>2026-04-28T17:10:15.994Z</time></trkpt><trkpt lat="38.0306249" lon="14.0207898"><ele>78.8</ele><time>2026-04-28T17:10:16.994Z</time></trkpt><trkpt lat="38.0305726" lon="14.0206801"><ele>81.6</ele><time>2026-04-28T17:10:17.994Z</time></trkpt><trkpt lat="38.0305227" lon="14.020568"><ele>84.4</ele><time>2026-04-28T17:10:18.994Z</time></trkpt><trkpt lat="38.0304692" lon="14.0204646"><ele>87.2</ele><time>2026-04-28T17:10:19.994Z</time></trkpt><trkpt lat="38.0304215" lon="14.0203588"><ele>90.0</ele><time>2026-04-28T17:10:20.993Z</time></trkpt><trkpt lat="38.0303723" lon="14.0202546"><ele>90.0</ele><time>2026-04-28T17:10:21.993Z</time></trkpt><trkpt lat="38.0303229" lon="14.0201465"><ele>90.0</ele><time>2026-04-28T17:10:22.993Z</time></trkpt><trkpt lat="38.0302694" lon="14.0200352"><ele>90.0</ele><time>2026-04-28T17:10:23.994Z</time></trkpt><trkpt lat="38.030214" lon="14.0199225"><ele>90.0</ele><time>2026-04-28T17:10:24.993Z</time></trkpt><trkpt lat="38.0301475" lon="14.0198074"><ele>90.0</ele><time>2026-04-28T17:10:25.993Z</time></trkpt><trkpt lat="38.0300536" lon="14.0196782"><ele>95.66666666666666</ele><time>2026-04-28T17:10:26.994Z</time></trkpt><trkpt lat="38.0299372" lon="14.0195235"><ele>101.33333333333333</ele><time>2026-04-28T17:10:27.994Z</time></trkpt><trkpt lat="38.029814" lon="14.0193558"><ele>107.0</ele><time>2026-04-28T17:10:28.994Z</time></trkpt><trkpt lat="38.0296953" lon="14.0191808"><ele>102.0</ele><time>2026-04-28T17:10:29.993Z</time></trkpt><trkpt lat="38.0295784" lon="14.0190027"><ele>97.0</ele><time>2026-04-28T17:10:30.994Z</time></trkpt><trkpt lat="38.0294622" lon="14.018834"><ele>92.0</ele><time>2026-04-28T17:10:31.994Z</time></trkpt><trkpt lat="38.0293566" lon="14.0186801"><ele>92.0</ele><time>2026-04-28T17:10:32.994Z</time></trkpt><trkpt lat="38.0292606" lon="14.0185401"><ele>92.0</ele><time>2026-04-28T17:10:33.994Z</time></trkpt><trkpt lat="38.0291733" lon="14.018413"><ele>92.0</ele><time>2026-04-28T17:10:34.994Z</time></trkpt><trkpt lat="38.0290963" lon="14.0182885"><ele>92.0</ele><time>2026-04-28T17:10:35.994Z</time></trkpt><trkpt lat="38.0290262" lon="14.018172"><ele>94.0</ele><time>2026-04-28T17:10:36.994Z</time></trkpt><trkpt lat="38.0289646" lon="14.0180494"><ele>96.0</ele><time>2026-04-28T17:10:37.993Z</time></trkpt><trkpt lat="38.0289045" lon="14.0179285"><ele>98.0</ele><time>2026-04-28T17:10:38.994Z</time></trkpt><trkpt lat="38.0288465" lon="14.0178171"><ele>100.0</ele><time>2026-04-28T17:10:39.994Z</time></trkpt><trkpt lat="38.028794" lon="14.0177118"><ele>102.0</ele><time>2026-04-28T17:10:40.994Z</time></trkpt><trkpt lat="38.0287497" lon="14.0176169"><ele>102.0</ele><time>2026-04-28T17:10:41.994Z</time></trkpt><trkpt lat="38.0287086" lon="14.017534"><ele>102.0</ele><time>2026-04-28T17:10:42.994Z</time></trkpt><trkpt lat="38.0286633" lon="14.017465"><ele>102.0</ele><time>2026-04-28T17:10:43.994Z</time></trkpt><trkpt lat="38.0285808" lon="14.0173939"><ele>102.0</ele><time>2026-04-28T17:10:45.993Z</time></trkpt><trkpt lat="38.0285043" lon="14.0173152"><ele>102.0</ele><time>2026-04-28T17:10:47.994Z</time></trkpt><trkpt lat="38.0284416" lon="14.0172381"><ele>102.0</ele><time>2026-04-28T17:10:48.994Z</time></trkpt><trkpt lat="38.0283535" lon="14.0171517"><ele>104.0</ele><time>2026-04-28T17:10:49.993Z</time></trkpt><trkpt lat="38.0282395" lon="14.0170579"><ele>106.0</ele><time>2026-04-28T17:10:50.994Z</time></trkpt><trkpt lat="38.0281087" lon="14.0169573"><ele>108.0</ele><time>2026-04-28T17:10:51.994Z</time></trkpt><trkpt lat="38.0279742" lon="14.0168517"><ele>110.0</ele><time>2026-04-28T17:10:52.994Z</time></trkpt><trkpt lat="38.0278382" lon="14.0167422"><ele>110.0</ele><time>2026-04-28T17:10:53.993Z</time></trkpt><trkpt lat="38.027704" lon="14.0166318"><ele>110.0</ele><time>2026-04-28T17:10:54.994Z</time></trkpt><trkpt lat="38.0275762" lon="14.0165166"><ele>110.0</ele><time>2026-04-28T17:10:55.994Z</time></trkpt><trkpt lat="38.0274599" lon="14.0164156"><ele>110.0</ele><time>2026-04-28T17:10:56.994Z</time></trkpt><trkpt lat="38.0273563" lon="14.0163232"><ele>110.0</ele><time>2026-04-28T17:10:57.993Z</time></trkpt><trkpt lat="38.0272598" lon="14.0162461"><ele>110.0</ele><time>2026-04-28T17:10:58.994Z</time></trkpt><trkpt lat="38.0271807" lon="14.0161728"><ele>110.0</ele><time>2026-04-28T17:10:59.994Z</time></trkpt><trkpt lat="38.0271206" lon="14.0161096"><ele>110.0</ele><time>2026-04-28T17:11:00.994Z</time></trkpt><trkpt lat="38.0270687" lon="14.0160543"><ele>109.99999999999999</ele><time>2026-04-28T17:11:01.994Z</time></trkpt><trkpt lat="38.0270456" lon="14.0159692"><ele>110.0</ele><time>2026-04-28T17:11:03.994Z</time></trkpt><trkpt lat="38.0270881" lon="14.0157992"><ele>110.0</ele><time>2026-04-28T17:11:18.993Z</time></trkpt><trkpt lat="38.0270561" lon="14.0157222"><ele>110.0</ele><time>2026-04-28T17:11:22.993Z</time></trkpt><trkpt lat="38.0269981" lon="14.0156635"><ele>109.99999999999999</ele><time>2026-04-28T17:11:24.994Z</time></trkpt><trkpt lat="38.0269342" lon="14.0156238"><ele>110.0</ele><time>2026-04-28T17:11:26.993Z</time></trkpt><trkpt lat="38.0268767" lon="14.0157224"><ele>109.99999999999999</ele><time>2026-04-28T17:11:33.993Z</time></trkpt><trkpt lat="38.0267708" lon="14.0157445"><ele>110.0</ele><time>2026-04-28T17:11:40.994Z</time></trkpt><trkpt lat="38.0267047" lon="14.0156961"><ele>110.0</ele><time>2026-04-28T17:11:41.994Z</time></trkpt><trkpt lat="38.0266388" lon="14.0156467"><ele>110.0</ele><time>2026-04-28T17:11:42.994Z</time></trkpt><trkpt lat="38.026577" lon="14.0155716"><ele>109.99999999999999</ele><time>2026-04-28T17:11:43.994Z</time></trkpt><trkpt lat="38.0265133" lon="14.0154727"><ele>110.0</ele><time>2026-04-28T17:11:44.994Z</time></trkpt><trkpt lat="38.0264548" lon="14.0153572"><ele>110.0</ele><time>2026-04-28T17:11:45.993Z</time></trkpt><trkpt lat="38.0263986" lon="14.0152377"><ele>110.0</ele><time>2026-04-28T17:11:46.994Z</time></trkpt><trkpt lat="38.0263554" lon="14.0151136"><ele>110.0</ele><time>2026-04-28T17:11:47.994Z</time></trkpt><trkpt lat="38.0263268" lon="14.0149821"><ele>110.0</ele><time>2026-04-28T17:11:48.994Z</time></trkpt><trkpt lat="38.0263123" lon="14.0148516"><ele>110.0</ele><time>2026-04-28T17:11:49.994Z</time></trkpt><trkpt lat="38.026311" lon="14.014723"><ele>109.2</ele><time>2026-04-28T17:11:50.994Z</time></trkpt><trkpt lat="38.0263181" lon="14.0145868"><ele>108.4</ele><time>2026-04-28T17:11:51.994Z</time></trkpt><trkpt lat="38.0263351" lon="14.0144445"><ele>107.6</ele><time>2026-04-28T17:11:52.994Z</time></trkpt><trkpt lat="38.0263693" lon="14.0143186"><ele>106.8</ele><time>2026-04-28T17:11:53.994Z</time></trkpt><trkpt lat="38.0264143" lon="14.0142241"><ele>106.0</ele><time>2026-04-28T17:11:54.994Z</time></trkpt><trkpt lat="38.0264636" lon="14.0141435"><ele>106.50000000000001</ele><time>2026-04-28T17:11:55.994Z</time></trkpt><trkpt lat="38.0265185" lon="14.0140811"><ele>107.0</ele><time>2026-04-28T17:11:56.994Z</time></trkpt><trkpt lat="38.0265786" lon="14.0140283"><ele>107.5</ele><time>2026-04-28T17:11:57.994Z</time></trkpt><trkpt lat="38.0266399" lon="14.0139653"><ele>108.0</ele><time>2026-04-28T17:11:58.994Z</time></trkpt><trkpt lat="38.0266974" lon="14.0138656"><ele>108.50000000000001</ele><time>2026-04-28T17:11:59.994Z</time></trkpt><trkpt lat="38.0267599" lon="14.0137625"><ele>109.0</ele><time>2026-04-28T17:12:00.994Z</time></trkpt><trkpt lat="38.0268515" lon="14.0136656"><ele>109.0</ele><time>2026-04-28T17:12:01.994Z</time></trkpt><trkpt lat="38.0269527" lon="14.0135716"><ele>109.0</ele><time>2026-04-28T17:12:02.994Z</time></trkpt><trkpt lat="38.0270542" lon="14.0134701"><ele>109.0</ele><time>2026-04-28T17:12:03.994Z</time></trkpt><trkpt lat="38.0271488" lon="14.0133535"><ele>109.0</ele><time>2026-04-28T17:12:04.994Z</time></trkpt><trkpt lat="38.0272397" lon="14.0132247"><ele>112.75</ele><time>2026-04-28T17:12:05.994Z</time></trkpt><trkpt lat="38.0273224" lon="14.013085"><ele>116.5</ele><time>2026-04-28T17:12:06.994Z</time></trkpt><trkpt lat="38.0273875" lon="14.012932"><ele>120.25</ele><time>2026-04-28T17:12:07.994Z</time></trkpt><trkpt lat="38.0274395" lon="14.0127495"><ele>124.0</ele><time>2026-04-28T17:12:08.993Z</time></trkpt><trkpt lat="38.0274797" lon="14.0125377"><ele>112.33333333333334</ele><time>2026-04-28T17:12:09.994Z</time></trkpt><trkpt lat="38.0275021" lon="14.0122987"><ele>100.66666666666667</ele><time>2026-04-28T17:12:10.994Z</time></trkpt><trkpt lat="38.0275208" lon="14.012023"><ele>89.0</ele><time>2026-04-28T17:12:11.994Z</time></trkpt><trkpt lat="38.0275294" lon="14.0117436"><ele>88.0</ele><time>2026-04-28T17:12:12.994Z</time></trkpt><trkpt lat="38.0275412" lon="14.0114567"><ele>87.0</ele><time>2026-04-28T17:12:13.994Z</time></trkpt><trkpt lat="38.0275502" lon="14.0111469"><ele>87.0</ele><time>2026-04-28T17:12:14.994Z</time></trkpt><trkpt lat="38.0275598" lon="14.0108327"><ele>87.0</ele><time>2026-04-28T17:12:15.993Z</time></trkpt><trkpt lat="38.0275688" lon="14.0105303"><ele>87.33333333333333</ele><time>2026-04-28T17:12:16.993Z</time></trkpt><trkpt lat="38.0275843" lon="14.0102486"><ele>87.66666666666666</ele><time>2026-04-28T17:12:17.994Z</time></trkpt><trkpt lat="38.0275949" lon="14.0099891"><ele>88.0</ele><time>2026-04-28T17:12:18.994Z</time></trkpt><trkpt lat="38.0276094" lon="14.0097442"><ele>90.0</ele><time>2026-04-28T17:12:19.994Z</time></trkpt><trkpt lat="38.0276177" lon="14.0095218"><ele>92.0</ele><time>2026-04-28T17:12:20.994Z</time></trkpt><trkpt lat="38.0276236" lon="14.0093086"><ele>94.0</ele><time>2026-04-28T17:12:21.994Z</time></trkpt><trkpt lat="38.0276292" lon="14.009078"><ele>94.0</ele><time>2026-04-28T17:12:22.994Z</time></trkpt><trkpt lat="38.027637" lon="14.0088231"><ele>94.0</ele><time>2026-04-28T17:12:23.993Z</time></trkpt><trkpt lat="38.0276539" lon="14.0085645"><ele>94.0</ele><time>2026-04-28T17:12:24.994Z</time></trkpt><trkpt lat="38.0276715" lon="14.0083105"><ele>92.33333333333333</ele><time>2026-04-28T17:12:25.994Z</time></trkpt><trkpt lat="38.0276882" lon="14.008062"><ele>90.66666666666667</ele><time>2026-04-28T17:12:26.994Z</time></trkpt><trkpt lat="38.0277005" lon="14.0078357"><ele>89.0</ele><time>2026-04-28T17:12:27.994Z</time></trkpt><trkpt lat="38.0277188" lon="14.0076125"><ele>91.0</ele><time>2026-04-28T17:12:28.993Z</time></trkpt><trkpt lat="38.0277412" lon="14.0073867"><ele>93.0</ele><time>2026-04-28T17:12:29.994Z</time></trkpt><trkpt lat="38.0277822" lon="14.0071602"><ele>95.0</ele><time>2026-04-28T17:12:30.994Z</time></trkpt><trkpt lat="38.0278475" lon="14.0069301"><ele>95.0</ele><time>2026-04-28T17:12:31.994Z</time></trkpt><trkpt lat="38.0279312" lon="14.0066943"><ele>95.0</ele><time>2026-04-28T17:12:32.994Z</time></trkpt><trkpt lat="38.0280335" lon="14.0064565"><ele>95.0</ele><time>2026-04-28T17:12:33.994Z</time></trkpt><trkpt lat="38.0281518" lon="14.006233"><ele>91.33333333333334</ele><time>2026-04-28T17:12:34.994Z</time></trkpt><trkpt lat="38.0282958" lon="14.0060361"><ele>87.66666666666667</ele><time>2026-04-28T17:12:35.994Z</time></trkpt><trkpt lat="38.0284566" lon="14.0058505"><ele>84.0</ele><time>2026-04-28T17:12:36.994Z</time></trkpt><trkpt lat="38.0286193" lon="14.0056851"><ele>84.0</ele><time>2026-04-28T17:12:37.994Z</time></trkpt><trkpt lat="38.0287776" lon="14.0055282"><ele>84.0</ele><time>2026-04-28T17:12:38.993Z</time></trkpt><trkpt lat="38.0289228" lon="14.0053768"><ele>84.0</ele><time>2026-04-28T17:12:39.993Z</time></trkpt><trkpt lat="38.0290487" lon="14.0052197"><ele>84.0</ele><time>2026-04-28T17:12:40.994Z</time></trkpt><trkpt lat="38.0291411" lon="14.0050408"><ele>84.0</ele><time>2026-04-28T17:12:41.993Z</time></trkpt><trkpt lat="38.0291974" lon="14.0048483"><ele>84.0</ele><time>2026-04-28T17:12:42.993Z</time></trkpt><trkpt lat="38.0292304" lon="14.0046382"><ele>81.5</ele><time>2026-04-28T17:12:43.994Z</time></trkpt><trkpt lat="38.0292372" lon="14.0044338"><ele>79.0</ele><time>2026-04-28T17:12:44.994Z</time></trkpt><trkpt lat="38.0292037" lon="14.0042847"><ele>76.5</ele><time>2026-04-28T17:12:45.993Z</time></trkpt><trkpt lat="38.0291471" lon="14.0041643"><ele>74.0</ele><time>2026-04-28T17:12:46.994Z</time></trkpt><trkpt lat="38.0290756" lon="14.0040769"><ele>78.4</ele><time>2026-04-28T17:12:47.994Z</time></trkpt><trkpt lat="38.0290159" lon="14.0040291"><ele>82.80000000000001</ele><time>2026-04-28T17:12:48.994Z</time></trkpt><trkpt lat="38.0289393" lon="14.0039478"><ele>87.19999999999999</ele><time>2026-04-28T17:12:50.994Z</time></trkpt><trkpt lat="38.0289014" lon="14.0038226"><ele>91.6</ele><time>2026-04-28T17:12:52.994Z</time></trkpt><trkpt lat="38.0289091" lon="14.0037232"><ele>96.0</ele><time>2026-04-28T17:12:53.994Z</time></trkpt><trkpt lat="38.0289384" lon="14.0035983"><ele>96.0</ele><time>2026-04-28T17:12:54.994Z</time></trkpt><trkpt lat="38.0289857" lon="14.003473"><ele>96.0</ele><time>2026-04-28T17:12:55.994Z</time></trkpt><trkpt lat="38.0290511" lon="14.0033536"><ele>96.0</ele><time>2026-04-28T17:12:56.993Z</time></trkpt><trkpt lat="38.0291126" lon="14.0032128"><ele>96.0</ele><time>2026-04-28T17:12:57.994Z</time></trkpt><trkpt lat="38.029145" lon="14.0030557"><ele>89.75</ele><time>2026-04-28T17:12:58.994Z</time></trkpt><trkpt lat="38.0291578" lon="14.002887"><ele>83.5</ele><time>2026-04-28T17:12:59.994Z</time></trkpt><trkpt lat="38.029175" lon="14.0027182"><ele>77.25</ele><time>2026-04-28T17:13:00.993Z</time></trkpt><trkpt lat="38.0291958" lon="14.0025485"><ele>71.0</ele><time>2026-04-28T17:13:01.994Z</time></trkpt><trkpt lat="38.029231" lon="14.0023945"><ele>71.0</ele><time>2026-04-28T17:13:02.994Z</time></trkpt><trkpt lat="38.0292992" lon="14.0022712"><ele>71.0</ele><time>2026-04-28T17:13:03.994Z</time></trkpt><trkpt lat="38.0293922" lon="14.0021603"><ele>71.0</ele><time>2026-04-28T17:13:04.993Z</time></trkpt><trkpt lat="38.029497" lon="14.0020405"><ele>71.0</ele><time>2026-04-28T17:13:05.993Z</time></trkpt><trkpt lat="38.0295732" lon="14.0019009"><ele>71.0</ele><time>2026-04-28T17:13:06.994Z</time></trkpt><trkpt lat="38.0296135" lon="14.0017637"><ele>71.0</ele><time>2026-04-28T17:13:07.994Z</time></trkpt><trkpt lat="38.0296247" lon="14.0016497"><ele>71.0</ele><time>2026-04-28T17:13:08.994Z</time></trkpt><trkpt lat="38.0296309" lon="14.0015668"><ele>71.0</ele><time>2026-04-28T17:13:09.994Z</time></trkpt><trkpt lat="38.0296995" lon="14.0014694"><ele>71.0</ele><time>2026-04-28T17:13:11.993Z</time></trkpt><trkpt lat="38.0297925" lon="14.0015553"><ele>71.0</ele><time>2026-04-28T17:13:13.994Z</time></trkpt><trkpt lat="38.0297955" lon="14.0016405"><ele>71.0</ele><time>2026-04-28T17:13:14.994Z</time></trkpt><trkpt lat="38.0297721" lon="14.0017475"><ele>71.0</ele><time>2026-04-28T17:13:15.994Z</time></trkpt><trkpt lat="38.0297393" lon="14.0018622"><ele>71.0</ele><time>2026-04-28T17:13:16.994Z</time></trkpt><trkpt lat="38.0297077" lon="14.001976"><ele>71.0</ele><time>2026-04-28T17:13:17.994Z</time></trkpt><trkpt lat="38.0296771" lon="14.0020833"><ele>71.0</ele><time>2026-04-28T17:13:18.994Z</time></trkpt><trkpt lat="38.0296345" lon="14.0021775"><ele>71.0</ele><time>2026-04-28T17:13:19.994Z</time></trkpt><trkpt lat="38.0295815" lon="14.0022381"><ele>71.0</ele><time>2026-04-28T17:13:20.994Z</time></trkpt><trkpt lat="38.0295209" lon="14.0022883"><ele>71.0</ele><time>2026-04-28T17:13:21.993Z</time></trkpt><trkpt lat="38.0294746" lon="14.0023471"><ele>71.0</ele><time>2026-04-28T17:13:22.994Z</time></trkpt><trkpt lat="38.029485" lon="14.0025003"><ele>71.0</ele><time>2026-04-28T17:13:24.993Z</time></trkpt><trkpt lat="38.0295323" lon="14.0025683"><ele>71.0</ele><time>2026-04-28T17:13:25.994Z</time></trkpt><trkpt lat="38.0295965" lon="14.0025969"><ele>71.0</ele><time>2026-04-28T17:13:26.994Z</time></trkpt><trkpt lat="38.0296707" lon="14.0025836"><ele>71.0</ele><time>2026-04-28T17:13:27.993Z</time></trkpt><trkpt lat="38.0297327" lon="14.0025227"><ele>71.0</ele><time>2026-04-28T17:13:28.993Z</time></trkpt><trkpt lat="38.0297795" lon="14.0024306"><ele>71.0</ele><time>2026-04-28T17:13:29.994Z</time></trkpt><trkpt lat="38.0298154" lon="14.002325"><ele>71.0</ele><time>2026-04-28T17:13:30.994Z</time></trkpt><trkpt lat="38.0298539" lon="14.002198"><ele>71.0</ele><time>2026-04-28T17:13:31.994Z</time></trkpt><trkpt lat="38.0298931" lon="14.002062"><ele>71.0</ele><time>2026-04-28T17:13:32.993Z</time></trkpt><trkpt lat="38.0299562" lon="14.0019391"><ele>71.0</ele><time>2026-04-28T17:13:33.994Z</time></trkpt><trkpt lat="38.0300505" lon="14.0018273"><ele>71.0</ele><time>2026-04-28T17:13:34.993Z</time></trkpt><trkpt lat="38.030151" lon="14.0017185"><ele>71.0</ele><time>2026-04-28T17:13:35.994Z</time></trkpt><trkpt lat="38.0302494" lon="14.0016055"><ele>65.75</ele><time>2026-04-28T17:13:36.994Z</time></trkpt><trkpt lat="38.0303302" lon="14.0014833"><ele>60.5</ele><time>2026-04-28T17:13:37.994Z</time></trkpt><trkpt lat="38.0304065" lon="14.0013711"><ele>55.25</ele><time>2026-04-28T17:13:38.994Z</time></trkpt><trkpt lat="38.0304945" lon="14.0012704"><ele>50.0</ele><time>2026-04-28T17:13:39.993Z</time></trkpt><trkpt lat="38.0305779" lon="14.0012055"><ele>50.0</ele><time>2026-04-28T17:13:40.994Z</time></trkpt><trkpt lat="38.0306555" lon="14.0011553"><ele>50.0</ele><time>2026-04-28T17:13:41.994Z</time></trkpt><trkpt lat="38.0307485" lon="14.0011203"><ele>50.0</ele><time>2026-04-28T17:13:43.994Z</time></trkpt><trkpt lat="38.0308242" lon="14.0010948"><ele>50.0</ele><time>2026-04-28T17:13:50.994Z</time></trkpt><trkpt lat="38.0308622" lon="14.0009531"><ele>50.0</ele><time>2026-04-28T17:13:52.994Z</time></trkpt><trkpt lat="38.0308581" lon="14.0008633"><ele>48.0</ele><time>2026-04-28T17:13:53.994Z</time></trkpt><trkpt lat="38.0308503" lon="14.0007675"><ele>46.0</ele><time>2026-04-28T17:13:54.994Z</time></trkpt><trkpt lat="38.030841" lon="14.0006568"><ele>44.0</ele><time>2026-04-28T17:13:55.994Z</time></trkpt><trkpt lat="38.0308335" lon="14.0005313"><ele>42.0</ele><time>2026-04-28T17:13:56.994Z</time></trkpt><trkpt lat="38.03083" lon="14.0003995"><ele>40.0</ele><time>2026-04-28T17:13:57.994Z</time></trkpt><trkpt lat="38.0308208" lon="14.0002854"><ele>40.0</ele><time>2026-04-28T17:13:58.994Z</time></trkpt><trkpt lat="38.0308133" lon="14.0001794"><ele>40.0</ele><time>2026-04-28T17:13:59.993Z</time></trkpt><trkpt lat="38.0307997" lon="14.0000816"><ele>40.0</ele><time>2026-04-28T17:14:00.993Z</time></trkpt><trkpt lat="38.0307452" lon="13.9999872"><ele>40.0</ele><time>2026-04-28T17:14:02.994Z</time></trkpt><trkpt lat="38.0306486" lon="13.999924"><ele>40.0</ele><time>2026-04-28T17:14:13.994Z</time></trkpt><trkpt lat="38.0306404" lon="13.9998352"><ele>40.0</ele><time>2026-04-28T17:14:17.993Z</time></trkpt><trkpt lat="38.0306355" lon="13.999744"><ele>41.0</ele><time>2026-04-28T17:14:19.993Z</time></trkpt><trkpt lat="38.0306312" lon="13.999659"><ele>42.0</ele><time>2026-04-28T17:14:21.994Z</time></trkpt><trkpt lat="38.0306494" lon="13.9995786"><ele>43.0</ele><time>2026-04-28T17:14:24.994Z</time></trkpt><trkpt lat="38.0306026" lon="13.9994991"><ele>44.0</ele><time>2026-04-28T17:14:28.994Z</time></trkpt><trkpt lat="38.0305993" lon="13.9995892"><ele>45.0</ele><time>2026-04-28T17:14:42.993Z</time></trkpt><trkpt lat="38.0306169" lon="13.9996735"><ele>46.0</ele><time>2026-04-28T17:14:45.993Z</time></trkpt><trkpt lat="38.0306236" lon="13.9997698"><ele>47.0</ele><time>2026-04-28T17:14:47.993Z</time></trkpt><trkpt lat="38.0306154" lon="13.9998712"><ele>47.0</ele><time>2026-04-28T17:14:49.993Z</time></trkpt><trkpt lat="38.0305691" lon="13.9999521"><ele>47.0</ele><time>2026-04-28T17:14:53.994Z</time></trkpt><trkpt lat="38.0306296" lon="14.0000262"><ele>47.0</ele><time>2026-04-28T17:14:58.994Z</time></trkpt><trkpt lat="38.0306952" lon="14.0000737"><ele>47.0</ele><time>2026-04-28T17:15:00.994Z</time></trkpt><trkpt lat="38.0307224" lon="13.9999679"><ele>47.0</ele><time>2026-04-28T17:15:12.994Z</time></trkpt><trkpt lat="38.0306634" lon="13.9999034"><ele>47.0</ele><time>2026-04-28T17:15:18.994Z</time></trkpt><trkpt lat="38.030632" lon="13.999834"><ele>47.0</ele><time>2026-04-28T17:15:22.994Z</time></trkpt><trkpt lat="38.030626" lon="13.9997256"><ele>47.0</ele><time>2026-04-28T17:15:25.994Z</time></trkpt><trkpt lat="38.0306229" lon="13.9996072"><ele>47.0</ele><time>2026-04-28T17:16:31.994Z</time></trkpt><trkpt lat="38.0306931" lon="13.999546"><ele>47.0</ele><time>2026-04-28T17:16:34.994Z</time></trkpt><trkpt lat="38.0307491" lon="13.9995042"><ele>47.0</ele><time>2026-04-28T17:16:38.994Z</time></trkpt><trkpt lat="38.0307799" lon="13.999356"><ele>47.0</ele><time>2026-04-28T17:16:40.994Z</time></trkpt><trkpt lat="38.0307755" lon="13.9992661"><ele>47.0</ele><time>2026-04-28T17:16:41.994Z</time></trkpt><trkpt lat="38.0307673" lon="13.9991471"><ele>47.0</ele><time>2026-04-28T17:16:42.994Z</time></trkpt><trkpt lat="38.0307618" lon="13.9989957"><ele>47.0</ele><time>2026-04-28T17:16:43.994Z</time></trkpt><trkpt lat="38.0307483" lon="13.9988374"><ele>47.0</ele><time>2026-04-28T17:16:44.994Z</time></trkpt><trkpt lat="38.0307444" lon="13.9986809"><ele>46.75</ele><time>2026-04-28T17:16:45.994Z</time></trkpt><trkpt lat="38.03074" lon="13.9985245"><ele>46.5</ele><time>2026-04-28T17:16:46.994Z</time></trkpt><trkpt lat="38.0307315" lon="13.9983714"><ele>46.25</ele><time>2026-04-28T17:16:47.994Z</time></trkpt><trkpt lat="38.0307222" lon="13.9982169"><ele>46.0</ele><time>2026-04-28T17:16:48.993Z</time></trkpt><trkpt lat="38.0307096" lon="13.9980591"><ele>45.5</ele><time>2026-04-28T17:16:49.994Z</time></trkpt><trkpt lat="38.030691" lon="13.9979023"><ele>45.0</ele><time>2026-04-28T17:16:50.994Z</time></trkpt><trkpt lat="38.0306512" lon="13.9977347"><ele>44.5</ele><time>2026-04-28T17:16:51.994Z</time></trkpt><trkpt lat="38.0305854" lon="13.9975531"><ele>44.0</ele><time>2026-04-28T17:16:52.994Z</time></trkpt><trkpt lat="38.0305041" lon="13.9973677"><ele>44.0</ele><time>2026-04-28T17:16:53.994Z</time></trkpt><trkpt lat="38.0304147" lon="13.9971662"><ele>44.0</ele><time>2026-04-28T17:16:54.994Z</time></trkpt><trkpt lat="38.0303192" lon="13.9969653"><ele>44.0</ele><time>2026-04-28T17:16:55.994Z</time></trkpt><trkpt lat="38.0302189" lon="13.9967681"><ele>43.0</ele><time>2026-04-28T17:16:56.994Z</time></trkpt><trkpt lat="38.0301187" lon="13.9965639"><ele>42.0</ele><time>2026-04-28T17:16:57.994Z</time></trkpt><trkpt lat="38.0300228" lon="13.9963554"><ele>41.0</ele><time>2026-04-28T17:16:58.994Z</time></trkpt><trkpt lat="38.0299267" lon="13.9961471"><ele>45.0</ele><time>2026-04-28T17:16:59.993Z</time></trkpt><trkpt lat="38.0298267" lon="13.9959415"><ele>49.0</ele><time>2026-04-28T17:17:00.994Z</time></trkpt><trkpt lat="38.0297269" lon="13.9957402"><ele>53.0</ele><time>2026-04-28T17:17:01.994Z</time></trkpt><trkpt lat="38.0296273" lon="13.9955369"><ele>53.0</ele><time>2026-04-28T17:17:02.994Z</time></trkpt><trkpt lat="38.0295403" lon="13.9953295"><ele>53.0</ele><time>2026-04-28T17:17:03.994Z</time></trkpt><trkpt lat="38.0294613" lon="13.9951282"><ele>53.0</ele><time>2026-04-28T17:17:04.994Z</time></trkpt><trkpt lat="38.0293871" lon="13.9949281"><ele>51.66666666666667</ele><time>2026-04-28T17:17:05.994Z</time></trkpt><trkpt lat="38.0293171" lon="13.9947311"><ele>50.33333333333333</ele><time>2026-04-28T17:17:06.994Z</time></trkpt><trkpt lat="38.0292468" lon="13.9945342"><ele>49.0</ele><time>2026-04-28T17:17:07.994Z</time></trkpt><trkpt lat="38.0291823" lon="13.9943376"><ele>54.0</ele><time>2026-04-28T17:17:08.994Z</time></trkpt><trkpt lat="38.0291067" lon="13.994146"><ele>59.0</ele><time>2026-04-28T17:17:09.994Z</time></trkpt><trkpt lat="38.0290446" lon="13.9939515"><ele>64.0</ele><time>2026-04-28T17:17:10.994Z</time></trkpt><trkpt lat="38.0289859" lon="13.9937508"><ele>64.0</ele><time>2026-04-28T17:17:11.994Z</time></trkpt><trkpt lat="38.0289529" lon="13.9935528"><ele>64.0</ele><time>2026-04-28T17:17:12.994Z</time></trkpt><trkpt lat="38.0289528" lon="13.9933594"><ele>64.0</ele><time>2026-04-28T17:17:13.994Z</time></trkpt><trkpt lat="38.0290004" lon="13.993161"><ele>63.666666666666664</ele><time>2026-04-28T17:17:14.994Z</time></trkpt><trkpt lat="38.0290718" lon="13.9929654"><ele>63.33333333333333</ele><time>2026-04-28T17:17:15.993Z</time></trkpt><trkpt lat="38.029149" lon="13.9927504"><ele>63.0</ele><time>2026-04-28T17:17:16.994Z</time></trkpt><trkpt lat="38.0292189" lon="13.9925342"><ele>59.66666666666667</ele><time>2026-04-28T17:17:17.993Z</time></trkpt><trkpt lat="38.0292749" lon="13.9923213"><ele>56.333333333333336</ele><time>2026-04-28T17:17:18.994Z</time></trkpt><trkpt lat="38.0293134" lon="13.9921198"><ele>53.0</ele><time>2026-04-28T17:17:19.994Z</time></trkpt><trkpt lat="38.0293307" lon="13.9919355"><ele>53.0</ele><time>2026-04-28T17:17:20.993Z</time></trkpt><trkpt lat="38.0293244" lon="13.9917571"><ele>53.0</ele><time>2026-04-28T17:17:21.994Z</time></trkpt><trkpt lat="38.0292861" lon="13.9916011"><ele>53.0</ele><time>2026-04-28T17:17:22.994Z</time></trkpt><trkpt lat="38.029222" lon="13.9914509"><ele>53.0</ele><time>2026-04-28T17:17:23.994Z</time></trkpt><trkpt lat="38.0291252" lon="13.9912964"><ele>58.333333333333336</ele><time>2026-04-28T17:17:24.994Z</time></trkpt><trkpt lat="38.0290092" lon="13.9911439"><ele>63.66666666666667</ele><time>2026-04-28T17:17:25.993Z</time></trkpt><trkpt lat="38.0288798" lon="13.9909944"><ele>69.0</ele><time>2026-04-28T17:17:26.994Z</time></trkpt><trkpt lat="38.0287395" lon="13.9908676"><ele>67.0</ele><time>2026-04-28T17:17:27.994Z</time></trkpt><trkpt lat="38.028597" lon="13.9907756"><ele>65.0</ele><time>2026-04-28T17:17:28.994Z</time></trkpt><trkpt lat="38.0284725" lon="13.9906869"><ele>63.0</ele><time>2026-04-28T17:17:29.994Z</time></trkpt><trkpt lat="38.0283729" lon="13.9905784"><ele>61.0</ele><time>2026-04-28T17:17:30.994Z</time></trkpt><trkpt lat="38.0283104" lon="13.9904367"><ele>65.0</ele><time>2026-04-28T17:17:31.994Z</time></trkpt><trkpt lat="38.0282802" lon="13.9902507"><ele>69.0</ele><time>2026-04-28T17:17:32.994Z</time></trkpt><trkpt lat="38.0282692" lon="13.9900422"><ele>73.0</ele><time>2026-04-28T17:17:33.994Z</time></trkpt><trkpt lat="38.028256" lon="13.9898214"><ele>73.0</ele><time>2026-04-28T17:17:34.994Z</time></trkpt><trkpt lat="38.0282286" lon="13.9896025"><ele>73.0</ele><time>2026-04-28T17:17:35.993Z</time></trkpt><trkpt lat="38.0281808" lon="13.9893881"><ele>73.0</ele><time>2026-04-28T17:17:36.993Z</time></trkpt><trkpt lat="38.0281167" lon="13.9891776"><ele>71.33333333333333</ele><time>2026-04-28T17:17:37.993Z</time></trkpt><trkpt lat="38.028041" lon="13.9889768"><ele>69.66666666666667</ele><time>2026-04-28T17:17:38.993Z</time></trkpt><trkpt lat="38.0279527" lon="13.9887786"><ele>68.0</ele><time>2026-04-28T17:17:39.994Z</time></trkpt><trkpt lat="38.0278516" lon="13.9885858"><ele>68.0</ele><time>2026-04-28T17:17:40.994Z</time></trkpt><trkpt lat="38.0277464" lon="13.9884014"><ele>68.0</ele><time>2026-04-28T17:17:41.994Z</time></trkpt><trkpt lat="38.0276353" lon="13.9882317"><ele>68.0</ele><time>2026-04-28T17:17:42.993Z</time></trkpt><trkpt lat="38.0275237" lon="13.9880606"><ele>67.0</ele><time>2026-04-28T17:17:43.993Z</time></trkpt><trkpt lat="38.0274196" lon="13.9878882"><ele>66.0</ele><time>2026-04-28T17:17:44.994Z</time></trkpt><trkpt lat="38.0273196" lon="13.9877135"><ele>65.0</ele><time>2026-04-28T17:17:45.994Z</time></trkpt><trkpt lat="38.0272301" lon="13.987528"><ele>62.0</ele><time>2026-04-28T17:17:46.994Z</time></trkpt><trkpt lat="38.0271649" lon="13.9873219"><ele>59.0</ele><time>2026-04-28T17:17:47.994Z</time></trkpt><trkpt lat="38.0271146" lon="13.9871"><ele>56.0</ele><time>2026-04-28T17:17:48.993Z</time></trkpt><trkpt lat="38.0270714" lon="13.9868562"><ele>54.333333333333336</ele><time>2026-04-28T17:17:49.994Z</time></trkpt><trkpt lat="38.0270302" lon="13.9866035"><ele>52.66666666666667</ele><time>2026-04-28T17:17:50.994Z</time></trkpt><trkpt lat="38.0269885" lon="13.9863446"><ele>51.0</ele><time>2026-04-28T17:17:51.994Z</time></trkpt><trkpt lat="38.026922" lon="13.9861269"><ele>51.0</ele><time>2026-04-28T17:17:52.994Z</time></trkpt><trkpt lat="38.0268822" lon="13.9858852"><ele>51.0</ele><time>2026-04-28T17:17:53.993Z</time></trkpt><trkpt lat="38.0268472" lon="13.9856514"><ele>51.0</ele><time>2026-04-28T17:17:54.994Z</time></trkpt><trkpt lat="38.0268181" lon="13.9854363"><ele>50.0</ele><time>2026-04-28T17:17:55.994Z</time></trkpt><trkpt lat="38.0267821" lon="13.985211"><ele>49.0</ele><time>2026-04-28T17:17:56.994Z</time></trkpt><trkpt lat="38.0267464" lon="13.9849765"><ele>48.0</ele><time>2026-04-28T17:17:57.993Z</time></trkpt><trkpt lat="38.0267113" lon="13.9847293"><ele>48.33333333333333</ele><time>2026-04-28T17:17:58.994Z</time></trkpt><trkpt lat="38.0266673" lon="13.9844702"><ele>48.666666666666664</ele><time>2026-04-28T17:17:59.993Z</time></trkpt><trkpt lat="38.0266208" lon="13.9842074"><ele>49.0</ele><time>2026-04-28T17:18:00.993Z</time></trkpt><trkpt lat="38.0265748" lon="13.9839428"><ele>49.0</ele><time>2026-04-28T17:18:01.994Z</time></trkpt><trkpt lat="38.0265306" lon="13.9836755"><ele>49.0</ele><time>2026-04-28T17:18:02.994Z</time></trkpt><trkpt lat="38.0264856" lon="13.983411"><ele>49.0</ele><time>2026-04-28T17:18:03.994Z</time></trkpt><trkpt lat="38.0264371" lon="13.9831429"><ele>49.0</ele><time>2026-04-28T17:18:04.994Z</time></trkpt><trkpt lat="38.0263895" lon="13.9828726"><ele>49.0</ele><time>2026-04-28T17:18:05.994Z</time></trkpt><trkpt lat="38.0263478" lon="13.9825986"><ele>49.0</ele><time>2026-04-28T17:18:06.994Z</time></trkpt><trkpt lat="38.0263014" lon="13.9823247"><ele>48.5</ele><time>2026-04-28T17:18:07.994Z</time></trkpt><trkpt lat="38.0262483" lon="13.9820466"><ele>48.0</ele><time>2026-04-28T17:18:08.993Z</time></trkpt><trkpt lat="38.0262008" lon="13.9817434"><ele>48.5</ele><time>2026-04-28T17:18:09.994Z</time></trkpt><trkpt lat="38.0261532" lon="13.9814395"><ele>49.0</ele><time>2026-04-28T17:18:10.994Z</time></trkpt><trkpt lat="38.0261032" lon="13.9811436"><ele>46.5</ele><time>2026-04-28T17:18:11.994Z</time></trkpt><trkpt lat="38.0260526" lon="13.9808354"><ele>44.0</ele><time>2026-04-28T17:18:12.993Z</time></trkpt><trkpt lat="38.0260008" lon="13.9805217"><ele>44.0</ele><time>2026-04-28T17:18:13.994Z</time></trkpt><trkpt lat="38.0259423" lon="13.9802174"><ele>44.0</ele><time>2026-04-28T17:18:14.994Z</time></trkpt><trkpt lat="38.0258944" lon="13.9799062"><ele>43.5</ele><time>2026-04-28T17:18:15.993Z</time></trkpt><trkpt lat="38.0258357" lon="13.9795976"><ele>43.0</ele><time>2026-04-28T17:18:16.994Z</time></trkpt><trkpt lat="38.0257836" lon="13.979297"><ele>47.0</ele><time>2026-04-28T17:18:17.993Z</time></trkpt><trkpt lat="38.0257331" lon="13.9790105"><ele>51.0</ele><time>2026-04-28T17:18:18.994Z</time></trkpt><trkpt lat="38.0256872" lon="13.9787343"><ele>51.0</ele><time>2026-04-28T17:18:19.994Z</time></trkpt><trkpt lat="38.0256523" lon="13.9784581"><ele>51.0</ele><time>2026-04-28T17:18:20.994Z</time></trkpt><trkpt lat="38.025626" lon="13.9781802"><ele>51.0</ele><time>2026-04-28T17:18:21.994Z</time></trkpt><trkpt lat="38.0256121" lon="13.9779001"><ele>50.66666666666667</ele><time>2026-04-28T17:18:22.994Z</time></trkpt><trkpt lat="38.0256086" lon="13.9776174"><ele>50.333333333333336</ele><time>2026-04-28T17:18:23.993Z</time></trkpt><trkpt lat="38.0256189" lon="13.9773303"><ele>50.0</ele><time>2026-04-28T17:18:24.993Z</time></trkpt><trkpt lat="38.02564" lon="13.9770442"><ele>50.0</ele><time>2026-04-28T17:18:25.994Z</time></trkpt><trkpt lat="38.0256726" lon="13.976755"><ele>50.0</ele><time>2026-04-28T17:18:26.994Z</time></trkpt><trkpt lat="38.0257246" lon="13.9764605"><ele>50.5</ele><time>2026-04-28T17:18:27.994Z</time></trkpt><trkpt lat="38.0257863" lon="13.9761634"><ele>51.0</ele><time>2026-04-28T17:18:28.994Z</time></trkpt><trkpt lat="38.0258585" lon="13.975862"><ele>47.0</ele><time>2026-04-28T17:18:29.994Z</time></trkpt><trkpt lat="38.0259362" lon="13.9755621"><ele>43.0</ele><time>2026-04-28T17:18:30.994Z</time></trkpt><trkpt lat="38.0260106" lon="13.9752749"><ele>44.0</ele><time>2026-04-28T17:18:31.994Z</time></trkpt><trkpt lat="38.0260896" lon="13.9749956"><ele>45.0</ele><time>2026-04-28T17:18:32.994Z</time></trkpt><trkpt lat="38.026169" lon="13.974715"><ele>45.0</ele><time>2026-04-28T17:18:33.994Z</time></trkpt><trkpt lat="38.0262447" lon="13.9744344"><ele>45.0</ele><time>2026-04-28T17:18:34.994Z</time></trkpt><trkpt lat="38.0263155" lon="13.9741585"><ele>46.0</ele><time>2026-04-28T17:18:35.993Z</time></trkpt><trkpt lat="38.0263849" lon="13.9738826"><ele>47.0</ele><time>2026-04-28T17:18:36.994Z</time></trkpt><trkpt lat="38.0264481" lon="13.9736082"><ele>48.33333333333333</ele><time>2026-04-28T17:18:37.994Z</time></trkpt><trkpt lat="38.0265018" lon="13.9733344"><ele>49.666666666666664</ele><time>2026-04-28T17:18:38.994Z</time></trkpt><trkpt lat="38.026548" lon="13.9730607"><ele>51.0</ele><time>2026-04-28T17:18:39.994Z</time></trkpt><trkpt lat="38.0265793" lon="13.9727775"><ele>51.0</ele><time>2026-04-28T17:18:40.994Z</time></trkpt><trkpt lat="38.0265965" lon="13.9724851"><ele>51.0</ele><time>2026-04-28T17:18:41.992Z</time></trkpt><trkpt lat="38.0265995" lon="13.9721887"><ele>51.0</ele><time>2026-04-28T17:18:42.993Z</time></trkpt><trkpt lat="38.026589" lon="13.9718957"><ele>51.0</ele><time>2026-04-28T17:18:43.993Z</time></trkpt><trkpt lat="38.0265662" lon="13.9715948"><ele>48.5</ele><time>2026-04-28T17:18:44.993Z</time></trkpt><trkpt lat="38.0265394" lon="13.9712963"><ele>46.0</ele><time>2026-04-28T17:18:45.993Z</time></trkpt><trkpt lat="38.0265225" lon="13.9709859"><ele>44.5</ele><time>2026-04-28T17:18:46.993Z</time></trkpt><trkpt lat="38.0265048" lon="13.9706672"><ele>43.0</ele><time>2026-04-28T17:18:47.993Z</time></trkpt><trkpt lat="38.0264821" lon="13.9703447"><ele>44.0</ele><time>2026-04-28T17:18:48.993Z</time></trkpt><trkpt lat="38.0264579" lon="13.9700144"><ele>45.0</ele><time>2026-04-28T17:18:49.993Z</time></trkpt><trkpt lat="38.0264323" lon="13.9696799"><ele>45.0</ele><time>2026-04-28T17:18:50.993Z</time></trkpt><trkpt lat="38.026406" lon="13.9693434"><ele>45.0</ele><time>2026-04-28T17:18:51.993Z</time></trkpt><trkpt lat="38.0263794" lon="13.9689931"><ele>44.0</ele><time>2026-04-28T17:18:52.993Z</time></trkpt><trkpt lat="38.0263494" lon="13.96863"><ele>43.0</ele><time>2026-04-28T17:18:53.993Z</time></trkpt><trkpt lat="38.0263144" lon="13.9682468"><ele>42.0</ele><time>2026-04-28T17:18:54.993Z</time></trkpt><trkpt lat="38.0262688" lon="13.9678342"><ele>41.0</ele><time>2026-04-28T17:18:55.993Z</time></trkpt><trkpt lat="38.0262487" lon="13.9674753"><ele>40.0</ele><time>2026-04-28T17:18:56.992Z</time></trkpt><trkpt lat="38.0262308" lon="13.967134"><ele>39.0</ele><time>2026-04-28T17:18:57.993Z</time></trkpt><trkpt lat="38.026209" lon="13.9668132"><ele>39.0</ele><time>2026-04-28T17:18:58.993Z</time></trkpt><trkpt lat="38.0261897" lon="13.9665006"><ele>39.0</ele><time>2026-04-28T17:18:59.993Z</time></trkpt><trkpt lat="38.0261774" lon="13.9661887"><ele>39.0</ele><time>2026-04-28T17:19:00.993Z</time></trkpt><trkpt lat="38.026169" lon="13.9658784"><ele>39.0</ele><time>2026-04-28T17:19:01.993Z</time></trkpt><trkpt lat="38.0261716" lon="13.9655617"><ele>39.0</ele><time>2026-04-28T17:19:02.992Z</time></trkpt><trkpt lat="38.0261855" lon="13.965243"><ele>39.0</ele><time>2026-04-28T17:19:03.993Z</time></trkpt><trkpt lat="38.0262067" lon="13.9649249"><ele>39.0</ele><time>2026-04-28T17:19:04.993Z</time></trkpt><trkpt lat="38.0262321" lon="13.9646137"><ele>39.0</ele><time>2026-04-28T17:19:05.993Z</time></trkpt><trkpt lat="38.0262571" lon="13.9643057"><ele>39.0</ele><time>2026-04-28T17:19:06.993Z</time></trkpt><trkpt lat="38.0262792" lon="13.9639951"><ele>39.0</ele><time>2026-04-28T17:19:07.992Z</time></trkpt><trkpt lat="38.0263027" lon="13.963681"><ele>39.0</ele><time>2026-04-28T17:19:08.993Z</time></trkpt><trkpt lat="38.0263211" lon="13.9633667"><ele>39.0</ele><time>2026-04-28T17:19:09.992Z</time></trkpt><trkpt lat="38.0263367" lon="13.9630479"><ele>39.5</ele><time>2026-04-28T17:19:10.993Z</time></trkpt><trkpt lat="38.0263435" lon="13.9627286"><ele>40.0</ele><time>2026-04-28T17:19:11.993Z</time></trkpt><trkpt lat="38.0263374" lon="13.9624106"><ele>40.0</ele><time>2026-04-28T17:19:12.993Z</time></trkpt><trkpt lat="38.0263238" lon="13.9620947"><ele>40.0</ele><time>2026-04-28T17:19:13.993Z</time></trkpt><trkpt lat="38.0262987" lon="13.9617841"><ele>39.5</ele><time>2026-04-28T17:19:14.992Z</time></trkpt><trkpt lat="38.0262592" lon="13.9614738"><ele>39.0</ele><time>2026-04-28T17:19:15.993Z</time></trkpt><trkpt lat="38.0262067" lon="13.9611674"><ele>39.0</ele><time>2026-04-28T17:19:16.993Z</time></trkpt><trkpt lat="38.0261489" lon="13.9608809"><ele>39.0</ele><time>2026-04-28T17:19:17.993Z</time></trkpt><trkpt lat="38.0260959" lon="13.9606067"><ele>39.0</ele><time>2026-04-28T17:19:18.993Z</time></trkpt><trkpt lat="38.0260432" lon="13.960345"><ele>39.0</ele><time>2026-04-28T17:19:19.993Z</time></trkpt><trkpt lat="38.0259868" lon="13.9600861"><ele>39.0</ele><time>2026-04-28T17:19:20.993Z</time></trkpt><trkpt lat="38.0259295" lon="13.959822"><ele>38.333333333333336</ele><time>2026-04-28T17:19:21.993Z</time></trkpt><trkpt lat="38.0258724" lon="13.9595535"><ele>37.66666666666667</ele><time>2026-04-28T17:19:22.993Z</time></trkpt><trkpt lat="38.0258276" lon="13.9592849"><ele>37.0</ele><time>2026-04-28T17:19:23.993Z</time></trkpt><trkpt lat="38.0257903" lon="13.9590107"><ele>43.0</ele><time>2026-04-28T17:19:24.993Z</time></trkpt><trkpt lat="38.0257627" lon="13.958715"><ele>49.0</ele><time>2026-04-28T17:19:25.993Z</time></trkpt><trkpt lat="38.0257479" lon="13.9584054"><ele>49.0</ele><time>2026-04-28T17:19:26.992Z</time></trkpt><trkpt lat="38.0257485" lon="13.9580965"><ele>49.0</ele><time>2026-04-28T17:19:27.993Z</time></trkpt><trkpt lat="38.0257615" lon="13.9577804"><ele>50.0</ele><time>2026-04-28T17:19:28.993Z</time></trkpt><trkpt lat="38.025784" lon="13.9574584"><ele>51.0</ele><time>2026-04-28T17:19:29.993Z</time></trkpt><trkpt lat="38.0258071" lon="13.9571396"><ele>45.0</ele><time>2026-04-28T17:19:30.993Z</time></trkpt><trkpt lat="38.0258331" lon="13.9568304"><ele>39.0</ele><time>2026-04-28T17:19:31.993Z</time></trkpt><trkpt lat="38.0258593" lon="13.9565407"><ele>38.666666666666664</ele><time>2026-04-28T17:19:32.993Z</time></trkpt><trkpt lat="38.0258798" lon="13.9562649"><ele>38.33333333333333</ele><time>2026-04-28T17:19:33.993Z</time></trkpt><trkpt lat="38.0258976" lon="13.955985"><ele>38.0</ele><time>2026-04-28T17:19:34.993Z</time></trkpt><trkpt lat="38.0259122" lon="13.9557089"><ele>38.0</ele><time>2026-04-28T17:19:35.993Z</time></trkpt><trkpt lat="38.0259312" lon="13.9554413"><ele>38.0</ele><time>2026-04-28T17:19:36.993Z</time></trkpt><trkpt lat="38.0259444" lon="13.9551906"><ele>38.0</ele><time>2026-04-28T17:19:37.993Z</time></trkpt><trkpt lat="38.0259424" lon="13.9549546"><ele>38.0</ele><time>2026-04-28T17:19:38.993Z</time></trkpt><trkpt lat="38.0259305" lon="13.9547334"><ele>38.0</ele><time>2026-04-28T17:19:39.992Z</time></trkpt><trkpt lat="38.0259168" lon="13.9545338"><ele>38.0</ele><time>2026-04-28T17:19:40.993Z</time></trkpt><trkpt lat="38.0259063" lon="13.954355"><ele>37.8</ele><time>2026-04-28T17:19:41.993Z</time></trkpt><trkpt lat="38.0258993" lon="13.9541989"><ele>37.599999999999994</ele><time>2026-04-28T17:19:42.993Z</time></trkpt><trkpt lat="38.0258991" lon="13.9540636"><ele>37.400000000000006</ele><time>2026-04-28T17:19:43.993Z</time></trkpt><trkpt lat="38.0258982" lon="13.9539474"><ele>37.2</ele><time>2026-04-28T17:19:44.993Z</time></trkpt><trkpt lat="38.0258895" lon="13.9538543"><ele>37.0</ele><time>2026-04-28T17:19:45.993Z</time></trkpt><trkpt lat="38.0258724" lon="13.953763"><ele>37.0</ele><time>2026-04-28T17:19:46.992Z</time></trkpt><trkpt lat="38.0258482" lon="13.9536436"><ele>37.0</ele><time>2026-04-28T17:19:47.993Z</time></trkpt><trkpt lat="38.0258181" lon="13.9534855"><ele>37.0</ele><time>2026-04-28T17:19:48.993Z</time></trkpt><trkpt lat="38.025799" lon="13.953298"><ele>37.0</ele><time>2026-04-28T17:19:49.993Z</time></trkpt><trkpt lat="38.0257892" lon="13.9530763"><ele>39.0</ele><time>2026-04-28T17:19:50.992Z</time></trkpt><trkpt lat="38.0257739" lon="13.9528265"><ele>41.0</ele><time>2026-04-28T17:19:51.993Z</time></trkpt><trkpt lat="38.0257528" lon="13.9525663"><ele>43.0</ele><time>2026-04-28T17:19:52.993Z</time></trkpt><trkpt lat="38.025736" lon="13.9522885"><ele>43.0</ele><time>2026-04-28T17:19:53.992Z</time></trkpt><trkpt lat="38.0257124" lon="13.9520046"><ele>43.0</ele><time>2026-04-28T17:19:54.992Z</time></trkpt><trkpt lat="38.0256868" lon="13.9517167"><ele>43.0</ele><time>2026-04-28T17:19:55.993Z</time></trkpt><trkpt lat="38.0256506" lon="13.9514311"><ele>43.0</ele><time>2026-04-28T17:19:56.993Z</time></trkpt><trkpt lat="38.025599" lon="13.9511457"><ele>42.0</ele><time>2026-04-28T17:19:57.993Z</time></trkpt><trkpt lat="38.0255369" lon="13.950865"><ele>41.0</ele><time>2026-04-28T17:19:58.993Z</time></trkpt><trkpt lat="38.0254662" lon="13.9505876"><ele>41.0</ele><time>2026-04-28T17:19:59.993Z</time></trkpt><trkpt lat="38.025383" lon="13.9503112"><ele>41.0</ele><time>2026-04-28T17:20:00.992Z</time></trkpt><trkpt lat="38.0252852" lon="13.9500428"><ele>40.0</ele><time>2026-04-28T17:20:01.993Z</time></trkpt><trkpt lat="38.0251843" lon="13.9497787"><ele>39.0</ele><time>2026-04-28T17:20:02.992Z</time></trkpt><trkpt lat="38.0250692" lon="13.9495214"><ele>39.5</ele><time>2026-04-28T17:20:03.993Z</time></trkpt><trkpt lat="38.0249468" lon="13.9492726"><ele>40.0</ele><time>2026-04-28T17:20:04.993Z</time></trkpt><trkpt lat="38.02481" lon="13.9490153"><ele>40.0</ele><time>2026-04-28T17:20:05.993Z</time></trkpt><trkpt lat="38.024658" lon="13.9487411"><ele>40.0</ele><time>2026-04-28T17:20:06.992Z</time></trkpt><trkpt lat="38.0245016" lon="13.9484617"><ele>37.5</ele><time>2026-04-28T17:20:07.993Z</time></trkpt><trkpt lat="38.0243466" lon="13.9481732"><ele>35.0</ele><time>2026-04-28T17:20:08.993Z</time></trkpt><trkpt lat="38.0241961" lon="13.9478831"><ele>35.0</ele><time>2026-04-28T17:20:09.993Z</time></trkpt><trkpt lat="38.0240442" lon="13.9475963"><ele>35.0</ele><time>2026-04-28T17:20:10.993Z</time></trkpt><trkpt lat="38.0238909" lon="13.9473083"><ele>35.0</ele><time>2026-04-28T17:20:11.993Z</time></trkpt><trkpt lat="38.0237409" lon="13.947019"><ele>35.0</ele><time>2026-04-28T17:20:12.993Z</time></trkpt><trkpt lat="38.023595" lon="13.9467433"><ele>32.0</ele><time>2026-04-28T17:20:13.993Z</time></trkpt><trkpt lat="38.0234484" lon="13.9464829"><ele>29.0</ele><time>2026-04-28T17:20:14.993Z</time></trkpt><trkpt lat="38.0232879" lon="13.9462256"><ele>29.0</ele><time>2026-04-28T17:20:15.993Z</time></trkpt><trkpt lat="38.0231096" lon="13.9459708"><ele>29.0</ele><time>2026-04-28T17:20:16.993Z</time></trkpt><trkpt lat="38.0229168" lon="13.9457212"><ele>26.0</ele><time>2026-04-28T17:20:17.993Z</time></trkpt><trkpt lat="38.0227083" lon="13.9454815"><ele>23.0</ele><time>2026-04-28T17:20:18.993Z</time></trkpt><trkpt lat="38.0224809" lon="13.9452568"><ele>22.5</ele><time>2026-04-28T17:20:19.993Z</time></trkpt><trkpt lat="38.0222343" lon="13.9450459"><ele>22.0</ele><time>2026-04-28T17:20:20.993Z</time></trkpt><trkpt lat="38.0219761" lon="13.9448472"><ele>21.0</ele><time>2026-04-28T17:20:21.993Z</time></trkpt><trkpt lat="38.0217104" lon="13.9446547"><ele>20.0</ele><time>2026-04-28T17:20:22.993Z</time></trkpt><trkpt lat="38.0214356" lon="13.944467"><ele>22.0</ele><time>2026-04-28T17:20:23.993Z</time></trkpt><trkpt lat="38.0211641" lon="13.9442844"><ele>24.0</ele><time>2026-04-28T17:20:24.993Z</time></trkpt><trkpt lat="38.0208922" lon="13.9441"><ele>24.5</ele><time>2026-04-28T17:20:25.993Z</time></trkpt><trkpt lat="38.0206211" lon="13.9439125"><ele>25.0</ele><time>2026-04-28T17:20:26.993Z</time></trkpt><trkpt lat="38.0203516" lon="13.9437229"><ele>25.0</ele><time>2026-04-28T17:20:27.993Z</time></trkpt><trkpt lat="38.0200863" lon="13.9435382"><ele>25.0</ele><time>2026-04-28T17:20:28.992Z</time></trkpt><trkpt lat="38.019824" lon="13.9433571"><ele>27.0</ele><time>2026-04-28T17:20:29.993Z</time></trkpt><trkpt lat="38.0195665" lon="13.9431759"><ele>29.0</ele><time>2026-04-28T17:20:30.993Z</time></trkpt><trkpt lat="38.0193105" lon="13.9430007"><ele>31.0</ele><time>2026-04-28T17:20:31.993Z</time></trkpt><trkpt lat="38.019062" lon="13.9428338"><ele>33.0</ele><time>2026-04-28T17:20:32.992Z</time></trkpt><trkpt lat="38.0188204" lon="13.9426692"><ele>33.0</ele><time>2026-04-28T17:20:33.992Z</time></trkpt><trkpt lat="38.0185872" lon="13.9425112"><ele>33.0</ele><time>2026-04-28T17:20:34.993Z</time></trkpt><trkpt lat="38.0183603" lon="13.9423522"><ele>34.5</ele><time>2026-04-28T17:20:35.993Z</time></trkpt><trkpt lat="38.0181405" lon="13.9421876"><ele>36.0</ele><time>2026-04-28T17:20:36.993Z</time></trkpt><trkpt lat="38.0179309" lon="13.9420107"><ele>36.0</ele><time>2026-04-28T17:20:37.993Z</time></trkpt><trkpt lat="38.0177245" lon="13.9418118"><ele>36.0</ele><time>2026-04-28T17:20:38.993Z</time></trkpt><trkpt lat="38.0175193" lon="13.9415853"><ele>37.5</ele><time>2026-04-28T17:20:39.993Z</time></trkpt><trkpt lat="38.0173173" lon="13.9413413"><ele>39.0</ele><time>2026-04-28T17:20:40.993Z</time></trkpt><trkpt lat="38.0171187" lon="13.941081"><ele>38.5</ele><time>2026-04-28T17:20:41.993Z</time></trkpt><trkpt lat="38.0169214" lon="13.9408173"><ele>38.0</ele><time>2026-04-28T17:20:42.992Z</time></trkpt><trkpt lat="38.0167237" lon="13.9405514"><ele>38.5</ele><time>2026-04-28T17:20:43.992Z</time></trkpt><trkpt lat="38.0165248" lon="13.9402856"><ele>39.0</ele><time>2026-04-28T17:20:44.993Z</time></trkpt><trkpt lat="38.0163278" lon="13.9400163"><ele>39.0</ele><time>2026-04-28T17:20:45.993Z</time></trkpt><trkpt lat="38.0161186" lon="13.9397402"><ele>39.0</ele><time>2026-04-28T17:20:46.993Z</time></trkpt><trkpt lat="38.015906" lon="13.9394554"><ele>39.5</ele><time>2026-04-28T17:20:47.993Z</time></trkpt><trkpt lat="38.0156921" lon="13.9391636"><ele>40.0</ele><time>2026-04-28T17:20:48.993Z</time></trkpt><trkpt lat="38.0154802" lon="13.9388625"><ele>40.0</ele><time>2026-04-28T17:20:49.993Z</time></trkpt><trkpt lat="38.0152646" lon="13.9385565"><ele>40.0</ele><time>2026-04-28T17:20:50.992Z</time></trkpt><trkpt lat="38.0150496" lon="13.9382556"><ele>40.0</ele><time>2026-04-28T17:20:51.993Z</time></trkpt><trkpt lat="38.01484" lon="13.9379584"><ele>40.0</ele><time>2026-04-28T17:20:52.993Z</time></trkpt><trkpt lat="38.0146286" lon="13.937668"><ele>32.5</ele><time>2026-04-28T17:20:53.993Z</time></trkpt><trkpt lat="38.0144235" lon="13.9373809"><ele>25.0</ele><time>2026-04-28T17:20:54.992Z</time></trkpt><trkpt lat="38.0142284" lon="13.9371019"><ele>27.0</ele><time>2026-04-28T17:20:55.993Z</time></trkpt><trkpt lat="38.0140485" lon="13.9368357"><ele>29.0</ele><time>2026-04-28T17:20:56.992Z</time></trkpt><trkpt lat="38.0138732" lon="13.9365749"><ele>29.0</ele><time>2026-04-28T17:20:57.993Z</time></trkpt><trkpt lat="38.0137071" lon="13.936309"><ele>29.0</ele><time>2026-04-28T17:20:58.993Z</time></trkpt><trkpt lat="38.013547" lon="13.9360457"><ele>25.5</ele><time>2026-04-28T17:20:59.993Z</time></trkpt><trkpt lat="38.0134021" lon="13.9357945"><ele>22.0</ele><time>2026-04-28T17:21:00.993Z</time></trkpt><trkpt lat="38.0132652" lon="13.9355489"><ele>27.5</ele><time>2026-04-28T17:21:01.993Z</time></trkpt><trkpt lat="38.0131304" lon="13.9352982"><ele>33.0</ele><time>2026-04-28T17:21:02.992Z</time></trkpt><trkpt lat="38.01299" lon="13.9350396"><ele>33.0</ele><time>2026-04-28T17:21:03.992Z</time></trkpt><trkpt lat="38.0128593" lon="13.9347803"><ele>33.0</ele><time>2026-04-28T17:21:04.992Z</time></trkpt><trkpt lat="38.0127349" lon="13.9345304"><ele>33.0</ele><time>2026-04-28T17:21:05.993Z</time></trkpt><trkpt lat="38.0126073" lon="13.9342762"><ele>33.0</ele><time>2026-04-28T17:21:06.993Z</time></trkpt><trkpt lat="38.0124679" lon="13.9340138"><ele>34.5</ele><time>2026-04-28T17:21:07.993Z</time></trkpt><trkpt lat="38.0123252" lon="13.9337344"><ele>36.0</ele><time>2026-04-28T17:21:08.993Z</time></trkpt><trkpt lat="38.012174" lon="13.9334404"><ele>27.0</ele><time>2026-04-28T17:21:09.993Z</time></trkpt><trkpt lat="38.0120272" lon="13.9331256"><ele>18.0</ele><time>2026-04-28T17:21:10.993Z</time></trkpt><trkpt lat="38.0118894" lon="13.9327965"><ele>16.5</ele><time>2026-04-28T17:21:11.993Z</time></trkpt><trkpt lat="38.0117669" lon="13.9324559"><ele>15.0</ele><time>2026-04-28T17:21:12.993Z</time></trkpt><trkpt lat="38.0116647" lon="13.9321089"><ele>15.5</ele><time>2026-04-28T17:21:13.993Z</time></trkpt><trkpt lat="38.011584" lon="13.931762"><ele>16.0</ele><time>2026-04-28T17:21:14.993Z</time></trkpt><trkpt lat="38.0115078" lon="13.9314224"><ele>16.0</ele><time>2026-04-28T17:21:15.993Z</time></trkpt><trkpt lat="38.011439" lon="13.9310926"><ele>16.0</ele><time>2026-04-28T17:21:16.993Z</time></trkpt><trkpt lat="38.0113705" lon="13.9307841"><ele>15.0</ele><time>2026-04-28T17:21:17.993Z</time></trkpt><trkpt lat="38.0113062" lon="13.9304933"><ele>14.0</ele><time>2026-04-28T17:21:18.993Z</time></trkpt><trkpt lat="38.0112452" lon="13.930221"><ele>14.0</ele><time>2026-04-28T17:21:19.993Z</time></trkpt><trkpt lat="38.0111896" lon="13.9299601"><ele>14.0</ele><time>2026-04-28T17:21:20.993Z</time></trkpt><trkpt lat="38.0111312" lon="13.9297011"><ele>14.0</ele><time>2026-04-28T17:21:21.993Z</time></trkpt><trkpt lat="38.0110749" lon="13.929427"><ele>13.5</ele><time>2026-04-28T17:21:22.993Z</time></trkpt><trkpt lat="38.0110082" lon="13.9291324"><ele>13.0</ele><time>2026-04-28T17:21:23.993Z</time></trkpt><trkpt lat="38.0109402" lon="13.9288349"><ele>13.0</ele><time>2026-04-28T17:21:24.993Z</time></trkpt><trkpt lat="38.0108712" lon="13.9285273"><ele>13.0</ele><time>2026-04-28T17:21:25.993Z</time></trkpt><trkpt lat="38.0107963" lon="13.9282143"><ele>13.0</ele><time>2026-04-28T17:21:26.993Z</time></trkpt><trkpt lat="38.0107103" lon="13.9279019"><ele>13.0</ele><time>2026-04-28T17:21:27.993Z</time></trkpt><trkpt lat="38.0106236" lon="13.9275928"><ele>12.5</ele><time>2026-04-28T17:21:28.993Z</time></trkpt><trkpt lat="38.0105315" lon="13.9272891"><ele>12.0</ele><time>2026-04-28T17:21:29.993Z</time></trkpt><trkpt lat="38.010426" lon="13.9269966"><ele>13.0</ele><time>2026-04-28T17:21:30.993Z</time></trkpt><trkpt lat="38.0103211" lon="13.9267051"><ele>14.0</ele><time>2026-04-28T17:21:31.993Z</time></trkpt><trkpt lat="38.0102132" lon="13.9264136"><ele>14.0</ele><time>2026-04-28T17:21:32.993Z</time></trkpt><trkpt lat="38.0101041" lon="13.9261445"><ele>14.0</ele><time>2026-04-28T17:21:33.993Z</time></trkpt><trkpt lat="38.0100106" lon="13.9258813"><ele>12.666666666666668</ele><time>2026-04-28T17:21:34.992Z</time></trkpt><trkpt lat="38.0099279" lon="13.9256347"><ele>11.333333333333334</ele><time>2026-04-28T17:21:35.993Z</time></trkpt><trkpt lat="38.0098437" lon="13.9254035"><ele>10.0</ele><time>2026-04-28T17:21:36.993Z</time></trkpt><trkpt lat="38.0097621" lon="13.9251819"><ele>10.666666666666668</ele><time>2026-04-28T17:21:37.993Z</time></trkpt><trkpt lat="38.0096827" lon="13.9249674"><ele>11.333333333333334</ele><time>2026-04-28T17:21:38.992Z</time></trkpt><trkpt lat="38.0096008" lon="13.9247413"><ele>12.0</ele><time>2026-04-28T17:21:39.993Z</time></trkpt><trkpt lat="38.0095075" lon="13.9244909"><ele>11.5</ele><time>2026-04-28T17:21:40.993Z</time></trkpt><trkpt lat="38.009408" lon="13.9242252"><ele>11.0</ele><time>2026-04-28T17:21:41.992Z</time></trkpt><trkpt lat="38.0093084" lon="13.9239559"><ele>11.0</ele><time>2026-04-28T17:21:42.993Z</time></trkpt><trkpt lat="38.0092102" lon="13.9236824"><ele>11.0</ele><time>2026-04-28T17:21:43.993Z</time></trkpt><trkpt lat="38.0091043" lon="13.9233999"><ele>10.5</ele><time>2026-04-28T17:21:44.993Z</time></trkpt><trkpt lat="38.0089946" lon="13.9231043"><ele>10.0</ele><time>2026-04-28T17:21:45.993Z</time></trkpt><trkpt lat="38.0088771" lon="13.9228002"><ele>9.5</ele><time>2026-04-28T17:21:46.993Z</time></trkpt><trkpt lat="38.0087593" lon="13.9224893"><ele>9.0</ele><time>2026-04-28T17:21:47.993Z</time></trkpt><trkpt lat="38.0086407" lon="13.9221683"><ele>9.0</ele><time>2026-04-28T17:21:48.993Z</time></trkpt><trkpt lat="38.0085225" lon="13.9218503"><ele>9.0</ele><time>2026-04-28T17:21:49.992Z</time></trkpt><trkpt lat="38.0084033" lon="13.921528"><ele>8.0</ele><time>2026-04-28T17:21:50.993Z</time></trkpt><trkpt lat="38.0082835" lon="13.9212065"><ele>7.0</ele><time>2026-04-28T17:21:51.993Z</time></trkpt><trkpt lat="38.0081664" lon="13.9208847"><ele>7.0</ele><time>2026-04-28T17:21:52.993Z</time></trkpt><trkpt lat="38.0080469" lon="13.9205684"><ele>7.0</ele><time>2026-04-28T17:21:53.993Z</time></trkpt><trkpt lat="38.00793" lon="13.9202594"><ele>7.5</ele><time>2026-04-28T17:21:54.992Z</time></trkpt><trkpt lat="38.007817" lon="13.9199517"><ele>8.0</ele><time>2026-04-28T17:21:55.993Z</time></trkpt><trkpt lat="38.0077086" lon="13.9196457"><ele>8.0</ele><time>2026-04-28T17:21:56.992Z</time></trkpt><trkpt lat="38.0075985" lon="13.9193431"><ele>8.0</ele><time>2026-04-28T17:21:57.992Z</time></trkpt><trkpt lat="38.0074905" lon="13.9190409"><ele>7.0</ele><time>2026-04-28T17:21:58.993Z</time></trkpt><trkpt lat="38.0073781" lon="13.9187395"><ele>6.0</ele><time>2026-04-28T17:21:59.993Z</time></trkpt><trkpt lat="38.0072648" lon="13.9184379"><ele>6.5</ele><time>2026-04-28T17:22:00.993Z</time></trkpt><trkpt lat="38.007149" lon="13.9181397"><ele>7.0</ele><time>2026-04-28T17:22:01.993Z</time></trkpt><trkpt lat="38.0070366" lon="13.917834"><ele>5.5</ele><time>2026-04-28T17:22:02.993Z</time></trkpt><trkpt lat="38.0069237" lon="13.9175276"><ele>4.0</ele><time>2026-04-28T17:22:03.993Z</time></trkpt><trkpt lat="38.0068086" lon="13.9172223"><ele>4.0</ele><time>2026-04-28T17:22:04.993Z</time></trkpt><trkpt lat="38.0066962" lon="13.9169171"><ele>4.0</ele><time>2026-04-28T17:22:05.993Z</time></trkpt><trkpt lat="38.0065837" lon="13.9166106"><ele>4.0</ele><time>2026-04-28T17:22:06.993Z</time></trkpt><trkpt lat="38.006471" lon="13.9162966"><ele>4.0</ele><time>2026-04-28T17:22:07.992Z</time></trkpt><trkpt lat="38.0063562" lon="13.9159861"><ele>3.5</ele><time>2026-04-28T17:22:08.993Z</time></trkpt><trkpt lat="38.0062415" lon="13.9156745"><ele>3.0</ele><time>2026-04-28T17:22:09.992Z</time></trkpt><trkpt lat="38.0061248" lon="13.9153632"><ele>3.5</ele><time>2026-04-28T17:22:10.992Z</time></trkpt><trkpt lat="38.0060088" lon="13.9150511"><ele>4.0</ele><time>2026-04-28T17:22:11.993Z</time></trkpt><trkpt lat="38.00589" lon="13.9147414"><ele>4.0</ele><time>2026-04-28T17:22:12.993Z</time></trkpt><trkpt lat="38.0057744" lon="13.9144309"><ele>4.0</ele><time>2026-04-28T17:22:13.993Z</time></trkpt><trkpt lat="38.0056567" lon="13.9141194"><ele>4.0</ele><time>2026-04-28T17:22:14.993Z</time></trkpt><trkpt lat="38.0055407" lon="13.9138108"><ele>4.0</ele><time>2026-04-28T17:22:15.993Z</time></trkpt><trkpt lat="38.0054232" lon="13.913502"><ele>4.0</ele><time>2026-04-28T17:22:16.993Z</time></trkpt><trkpt lat="38.0053091" lon="13.9131955"><ele>4.0</ele><time>2026-04-28T17:22:17.993Z</time></trkpt><trkpt lat="38.0052001" lon="13.9129006"><ele>4.0</ele><time>2026-04-28T17:22:18.993Z</time></trkpt><trkpt lat="38.0050958" lon="13.9126218"><ele>4.0</ele><time>2026-04-28T17:22:19.993Z</time></trkpt><trkpt lat="38.0049963" lon="13.912361"><ele>4.5</ele><time>2026-04-28T17:22:20.993Z</time></trkpt><trkpt lat="38.0048933" lon="13.9121006"><ele>5.0</ele><time>2026-04-28T17:22:21.993Z</time></trkpt><trkpt lat="38.0047887" lon="13.9118268"><ele>5.0</ele><time>2026-04-28T17:22:22.993Z</time></trkpt><trkpt lat="38.0046913" lon="13.9115599"><ele>5.0</ele><time>2026-04-28T17:22:23.993Z</time></trkpt><trkpt lat="38.0045996" lon="13.9113051"><ele>5.0</ele><time>2026-04-28T17:22:24.993Z</time></trkpt><trkpt lat="38.0045124" lon="13.9110663"><ele>5.0</ele><time>2026-04-28T17:22:25.993Z</time></trkpt><trkpt lat="38.0044306" lon="13.9108339"><ele>5.0</ele><time>2026-04-28T17:22:26.992Z</time></trkpt><trkpt lat="38.004344" lon="13.9106024"><ele>5.0</ele><time>2026-04-28T17:22:27.992Z</time></trkpt><trkpt lat="38.0042617" lon="13.9103743"><ele>5.0</ele><time>2026-04-28T17:22:28.992Z</time></trkpt><trkpt lat="38.004178" lon="13.9101441"><ele>5.0</ele><time>2026-04-28T17:22:29.993Z</time></trkpt><trkpt lat="38.0040925" lon="13.9099117"><ele>5.333333333333334</ele><time>2026-04-28T17:22:30.993Z</time></trkpt><trkpt lat="38.0040044" lon="13.9096749"><ele>5.666666666666667</ele><time>2026-04-28T17:22:31.992Z</time></trkpt><trkpt lat="38.0039146" lon="13.9094356"><ele>6.0</ele><time>2026-04-28T17:22:32.993Z</time></trkpt><trkpt lat="38.0038175" lon="13.9091862"><ele>6.0</ele><time>2026-04-28T17:22:33.992Z</time></trkpt><trkpt lat="38.0037092" lon="13.9089191"><ele>6.0</ele><time>2026-04-28T17:22:34.993Z</time></trkpt><trkpt lat="38.0036023" lon="13.9086413"><ele>5.5</ele><time>2026-04-28T17:22:35.993Z</time></trkpt><trkpt lat="38.0035095" lon="13.9083665"><ele>5.0</ele><time>2026-04-28T17:22:36.993Z</time></trkpt><trkpt lat="38.0034093" lon="13.9081035"><ele>5.5</ele><time>2026-04-28T17:22:37.993Z</time></trkpt><trkpt lat="38.0033056" lon="13.9078271"><ele>6.0</ele><time>2026-04-28T17:22:38.993Z</time></trkpt><trkpt lat="38.0031942" lon="13.9075357"><ele>6.0</ele><time>2026-04-28T17:22:39.993Z</time></trkpt><trkpt lat="38.0030845" lon="13.9072356"><ele>6.0</ele><time>2026-04-28T17:22:40.993Z</time></trkpt><trkpt lat="38.0029763" lon="13.906921"><ele>7.0</ele><time>2026-04-28T17:22:41.993Z</time></trkpt><trkpt lat="38.0028658" lon="13.9066041"><ele>8.0</ele><time>2026-04-28T17:22:42.993Z</time></trkpt><trkpt lat="38.0027527" lon="13.9062874"><ele>8.0</ele><time>2026-04-28T17:22:43.993Z</time></trkpt><trkpt lat="38.0026377" lon="13.9059686"><ele>8.0</ele><time>2026-04-28T17:22:44.993Z</time></trkpt><trkpt lat="38.0025178" lon="13.9056411"><ele>7.0</ele><time>2026-04-28T17:22:45.993Z</time></trkpt><trkpt lat="38.0023976" lon="13.9053132"><ele>6.0</ele><time>2026-04-28T17:22:46.993Z</time></trkpt><trkpt lat="38.0022728" lon="13.9049743"><ele>6.0</ele><time>2026-04-28T17:22:47.993Z</time></trkpt><trkpt lat="38.002148" lon="13.9046323"><ele>6.0</ele><time>2026-04-28T17:22:48.993Z</time></trkpt><trkpt lat="38.0020184" lon="13.9042834"><ele>5.5</ele><time>2026-04-28T17:22:49.993Z</time></trkpt><trkpt lat="38.0018832" lon="13.9039271"><ele>5.0</ele><time>2026-04-28T17:22:50.992Z</time></trkpt><trkpt lat="38.001745" lon="13.9035584"><ele>5.5</ele><time>2026-04-28T17:22:51.993Z</time></trkpt><trkpt lat="38.0016053" lon="13.9031793"><ele>6.0</ele><time>2026-04-28T17:22:52.993Z</time></trkpt><trkpt lat="38.0014635" lon="13.9027981"><ele>5.0</ele><time>2026-04-28T17:22:53.993Z</time></trkpt><trkpt lat="38.0013218" lon="13.9024149"><ele>4.0</ele><time>2026-04-28T17:22:54.993Z</time></trkpt><trkpt lat="38.0011803" lon="13.9020285"><ele>4.5</ele><time>2026-04-28T17:22:55.993Z</time></trkpt><trkpt lat="38.0010363" lon="13.9016416"><ele>5.0</ele><time>2026-04-28T17:22:56.993Z</time></trkpt><trkpt lat="38.0008901" lon="13.9012526"><ele>5.5</ele><time>2026-04-28T17:22:57.993Z</time></trkpt><trkpt lat="38.0007461" lon="13.9008625"><ele>6.0</ele><time>2026-04-28T17:22:58.993Z</time></trkpt><trkpt lat="38.0006032" lon="13.9004744"><ele>6.0</ele><time>2026-04-28T17:22:59.993Z</time></trkpt><trkpt lat="38.0004599" lon="13.9000885"><ele>6.0</ele><time>2026-04-28T17:23:00.992Z</time></trkpt><trkpt lat="38.0003225" lon="13.8997118"><ele>5.5</ele><time>2026-04-28T17:23:01.993Z</time></trkpt><trkpt lat="38.0001931" lon="13.8993509"><ele>5.0</ele><time>2026-04-28T17:23:02.992Z</time></trkpt><trkpt lat="38.000063" lon="13.8989959"><ele>5.0</ele><time>2026-04-28T17:23:03.993Z</time></trkpt><trkpt lat="37.9999307" lon="13.8986436"><ele>5.0</ele><time>2026-04-28T17:23:04.993Z</time></trkpt><trkpt lat="37.9997978" lon="13.8982863"><ele>5.0</ele><time>2026-04-28T17:23:05.993Z</time></trkpt><trkpt lat="37.9996655" lon="13.897929"><ele>5.0</ele><time>2026-04-28T17:23:06.992Z</time></trkpt><trkpt lat="37.9995322" lon="13.8975698"><ele>5.5</ele><time>2026-04-28T17:23:07.993Z</time></trkpt><trkpt lat="37.9993958" lon="13.8972112"><ele>6.0</ele><time>2026-04-28T17:23:08.993Z</time></trkpt><trkpt lat="37.999261" lon="13.8968495"><ele>6.0</ele><time>2026-04-28T17:23:09.993Z</time></trkpt><trkpt lat="37.999127" lon="13.8964881"><ele>6.0</ele><time>2026-04-28T17:23:10.992Z</time></trkpt><trkpt lat="37.9989932" lon="13.8961238"><ele>5.5</ele><time>2026-04-28T17:23:11.993Z</time></trkpt><trkpt lat="37.9988597" lon="13.8957681"><ele>5.0</ele><time>2026-04-28T17:23:12.992Z</time></trkpt><trkpt lat="37.9987308" lon="13.8954158"><ele>6.0</ele><time>2026-04-28T17:23:13.993Z</time></trkpt><trkpt lat="37.9986067" lon="13.8950726"><ele>7.0</ele><time>2026-04-28T17:23:14.993Z</time></trkpt><trkpt lat="37.9984864" lon="13.8947396"><ele>7.0</ele><time>2026-04-28T17:23:15.993Z</time></trkpt><trkpt lat="37.9983646" lon="13.8944155"><ele>7.0</ele><time>2026-04-28T17:23:16.992Z</time></trkpt><trkpt lat="37.9982467" lon="13.8941012"><ele>7.0</ele><time>2026-04-28T17:23:17.993Z</time></trkpt><trkpt lat="37.9981352" lon="13.8937988"><ele>7.0</ele><time>2026-04-28T17:23:18.992Z</time></trkpt><trkpt lat="37.9980266" lon="13.8935188"><ele>7.0</ele><time>2026-04-28T17:23:19.993Z</time></trkpt><trkpt lat="37.9979263" lon="13.8932503"><ele>7.0</ele><time>2026-04-28T17:23:20.993Z</time></trkpt><trkpt lat="37.997833" lon="13.8929952"><ele>7.0</ele><time>2026-04-28T17:23:21.993Z</time></trkpt><trkpt lat="37.9977441" lon="13.8927462"><ele>7.0</ele><time>2026-04-28T17:23:22.992Z</time></trkpt><trkpt lat="37.9976566" lon="13.8925001"><ele>7.0</ele><time>2026-04-28T17:23:23.993Z</time></trkpt><trkpt lat="37.9975648" lon="13.8922604"><ele>8.333333333333334</ele><time>2026-04-28T17:23:24.993Z</time></trkpt><trkpt lat="37.997476" lon="13.8920326"><ele>9.666666666666666</ele><time>2026-04-28T17:23:25.993Z</time></trkpt><trkpt lat="37.9973965" lon="13.8918232"><ele>11.0</ele><time>2026-04-28T17:23:26.993Z</time></trkpt><trkpt lat="37.9973129" lon="13.891609"><ele>11.0</ele><time>2026-04-28T17:23:27.993Z</time></trkpt><trkpt lat="37.9972187" lon="13.891378"><ele>11.0</ele><time>2026-04-28T17:23:28.993Z</time></trkpt><trkpt lat="37.9971187" lon="13.8911304"><ele>11.0</ele><time>2026-04-28T17:23:29.993Z</time></trkpt><trkpt lat="37.997012" lon="13.8908703"><ele>10.5</ele><time>2026-04-28T17:23:30.993Z</time></trkpt><trkpt lat="37.9968915" lon="13.890604"><ele>10.0</ele><time>2026-04-28T17:23:31.992Z</time></trkpt><trkpt lat="37.9967588" lon="13.8903225"><ele>10.5</ele><time>2026-04-28T17:23:32.993Z</time></trkpt><trkpt lat="37.9966254" lon="13.8900434"><ele>11.0</ele><time>2026-04-28T17:23:33.993Z</time></trkpt><trkpt lat="37.9964993" lon="13.8897724"><ele>11.0</ele><time>2026-04-28T17:23:34.993Z</time></trkpt><trkpt lat="37.9963817" lon="13.8895253"><ele>11.0</ele><time>2026-04-28T17:23:35.992Z</time></trkpt><trkpt lat="37.9962672" lon="13.8892958"><ele>11.0</ele><time>2026-04-28T17:23:36.992Z</time></trkpt><trkpt lat="37.9961448" lon="13.8890669"><ele>11.5</ele><time>2026-04-28T17:23:37.993Z</time></trkpt><trkpt lat="37.996015" lon="13.8888237"><ele>12.0</ele><time>2026-04-28T17:23:38.992Z</time></trkpt><trkpt lat="37.9958821" lon="13.8885696"><ele>13.0</ele><time>2026-04-28T17:23:39.992Z</time></trkpt><trkpt lat="37.9957543" lon="13.8883075"><ele>14.0</ele><time>2026-04-28T17:23:40.993Z</time></trkpt><trkpt lat="37.9956333" lon="13.888051"><ele>14.0</ele><time>2026-04-28T17:23:41.993Z</time></trkpt><trkpt lat="37.9955132" lon="13.8878096"><ele>14.0</ele><time>2026-04-28T17:23:42.993Z</time></trkpt><trkpt lat="37.9953965" lon="13.887575"><ele>14.0</ele><time>2026-04-28T17:23:43.993Z</time></trkpt><trkpt lat="37.9952825" lon="13.8873449"><ele>13.666666666666668</ele><time>2026-04-28T17:23:44.993Z</time></trkpt><trkpt lat="37.9951735" lon="13.8871259"><ele>13.333333333333332</ele><time>2026-04-28T17:23:45.993Z</time></trkpt><trkpt lat="37.9950652" lon="13.8869123"><ele>13.0</ele><time>2026-04-28T17:23:46.992Z</time></trkpt><trkpt lat="37.9949605" lon="13.8866931"><ele>13.0</ele><time>2026-04-28T17:23:47.992Z</time></trkpt><trkpt lat="37.9948549" lon="13.8864723"><ele>13.0</ele><time>2026-04-28T17:23:48.993Z</time></trkpt><trkpt lat="37.9947522" lon="13.8862437"><ele>13.0</ele><time>2026-04-28T17:23:49.992Z</time></trkpt><trkpt lat="37.9946536" lon="13.8860032"><ele>12.666666666666666</ele><time>2026-04-28T17:23:50.993Z</time></trkpt><trkpt lat="37.9945528" lon="13.8857599"><ele>12.333333333333332</ele><time>2026-04-28T17:23:51.993Z</time></trkpt><trkpt lat="37.9944521" lon="13.885504"><ele>12.0</ele><time>2026-04-28T17:23:52.993Z</time></trkpt><trkpt lat="37.9943495" lon="13.8852402"><ele>11.5</ele><time>2026-04-28T17:23:53.993Z</time></trkpt><trkpt lat="37.9942459" lon="13.8849689"><ele>11.0</ele><time>2026-04-28T17:23:54.993Z</time></trkpt><trkpt lat="37.9941434" lon="13.8846946"><ele>10.5</ele><time>2026-04-28T17:23:55.993Z</time></trkpt><trkpt lat="37.994035" lon="13.8844248"><ele>10.0</ele><time>2026-04-28T17:23:56.993Z</time></trkpt><trkpt lat="37.9939281" lon="13.884158"><ele>10.0</ele><time>2026-04-28T17:23:57.993Z</time></trkpt><trkpt lat="37.9938194" lon="13.8838877"><ele>10.0</ele><time>2026-04-28T17:23:58.993Z</time></trkpt><trkpt lat="37.9937124" lon="13.883615"><ele>10.0</ele><time>2026-04-28T17:23:59.993Z</time></trkpt><trkpt lat="37.9936072" lon="13.88334"><ele>10.0</ele><time>2026-04-28T17:24:00.993Z</time></trkpt><trkpt lat="37.9935028" lon="13.8830692"><ele>10.0</ele><time>2026-04-28T17:24:01.993Z</time></trkpt><trkpt lat="37.9933973" lon="13.8827978"><ele>10.0</ele><time>2026-04-28T17:24:02.993Z</time></trkpt><trkpt lat="37.9932927" lon="13.882528"><ele>9.5</ele><time>2026-04-28T17:24:03.993Z</time></trkpt><trkpt lat="37.9931878" lon="13.8822543"><ele>9.0</ele><time>2026-04-28T17:24:04.993Z</time></trkpt><trkpt lat="37.9930842" lon="13.881979"><ele>8.5</ele><time>2026-04-28T17:24:05.993Z</time></trkpt><trkpt lat="37.9929753" lon="13.8817047"><ele>8.0</ele><time>2026-04-28T17:24:06.993Z</time></trkpt><trkpt lat="37.9928706" lon="13.8814293"><ele>8.0</ele><time>2026-04-28T17:24:07.993Z</time></trkpt><trkpt lat="37.9927644" lon="13.8811531"><ele>8.0</ele><time>2026-04-28T17:24:08.993Z</time></trkpt><trkpt lat="37.9926597" lon="13.8808731"><ele>8.0</ele><time>2026-04-28T17:24:09.993Z</time></trkpt><trkpt lat="37.9925587" lon="13.8805943"><ele>8.0</ele><time>2026-04-28T17:24:10.993Z</time></trkpt><trkpt lat="37.992457" lon="13.880313"><ele>8.0</ele><time>2026-04-28T17:24:11.992Z</time></trkpt><trkpt lat="37.992357" lon="13.880033"><ele>8.0</ele><time>2026-04-28T17:24:12.992Z</time></trkpt><trkpt lat="37.9922592" lon="13.8797536"><ele>8.0</ele><time>2026-04-28T17:24:13.993Z</time></trkpt><trkpt lat="37.9921588" lon="13.8794789"><ele>8.0</ele><time>2026-04-28T17:24:14.993Z</time></trkpt><trkpt lat="37.9920542" lon="13.8792066"><ele>7.5</ele><time>2026-04-28T17:24:15.993Z</time></trkpt><trkpt lat="37.9919487" lon="13.8789373"><ele>7.0</ele><time>2026-04-28T17:24:16.993Z</time></trkpt><trkpt lat="37.9918444" lon="13.8786632"><ele>7.5</ele><time>2026-04-28T17:24:17.993Z</time></trkpt><trkpt lat="37.9917473" lon="13.8783815"><ele>8.0</ele><time>2026-04-28T17:24:18.992Z</time></trkpt><trkpt lat="37.9916501" lon="13.8780905"><ele>8.0</ele><time>2026-04-28T17:24:19.993Z</time></trkpt><trkpt lat="37.9915506" lon="13.8777905"><ele>8.0</ele><time>2026-04-28T17:24:20.993Z</time></trkpt><trkpt lat="37.9914485" lon="13.8774898"><ele>8.0</ele><time>2026-04-28T17:24:21.993Z</time></trkpt><trkpt lat="37.9913453" lon="13.8771905"><ele>8.0</ele><time>2026-04-28T17:24:22.993Z</time></trkpt><trkpt lat="37.9912396" lon="13.8768968"><ele>8.5</ele><time>2026-04-28T17:24:23.993Z</time></trkpt><trkpt lat="37.9911362" lon="13.8766069"><ele>9.0</ele><time>2026-04-28T17:24:24.993Z</time></trkpt><trkpt lat="37.9910336" lon="13.8763207"><ele>9.0</ele><time>2026-04-28T17:24:25.993Z</time></trkpt><trkpt lat="37.9909349" lon="13.8760439"><ele>9.0</ele><time>2026-04-28T17:24:26.992Z</time></trkpt><trkpt lat="37.9908469" lon="13.8757873"><ele>9.333333333333334</ele><time>2026-04-28T17:24:27.993Z</time></trkpt><trkpt lat="37.9907649" lon="13.8755463"><ele>9.666666666666668</ele><time>2026-04-28T17:24:28.993Z</time></trkpt><trkpt lat="37.990692" lon="13.8753217"><ele>10.0</ele><time>2026-04-28T17:24:29.993Z</time></trkpt><trkpt lat="37.9906257" lon="13.875117"><ele>9.666666666666668</ele><time>2026-04-28T17:24:30.993Z</time></trkpt><trkpt lat="37.9905657" lon="13.8749172"><ele>9.333333333333334</ele><time>2026-04-28T17:24:31.993Z</time></trkpt><trkpt lat="37.9905119" lon="13.8747224"><ele>9.0</ele><time>2026-04-28T17:24:32.993Z</time></trkpt><trkpt lat="37.9904657" lon="13.8745253"><ele>9.0</ele><time>2026-04-28T17:24:33.992Z</time></trkpt><trkpt lat="37.9904212" lon="13.8743122"><ele>9.0</ele><time>2026-04-28T17:24:34.992Z</time></trkpt><trkpt lat="37.9903808" lon="13.874083"><ele>9.0</ele><time>2026-04-28T17:24:35.993Z</time></trkpt><trkpt lat="37.9903459" lon="13.8738306"><ele>9.333333333333334</ele><time>2026-04-28T17:24:36.993Z</time></trkpt><trkpt lat="37.9903121" lon="13.8735585"><ele>9.666666666666668</ele><time>2026-04-28T17:24:37.993Z</time></trkpt><trkpt lat="37.9902862" lon="13.8732737"><ele>10.0</ele><time>2026-04-28T17:24:38.993Z</time></trkpt><trkpt lat="37.9902658" lon="13.8729772"><ele>10.0</ele><time>2026-04-28T17:24:39.993Z</time></trkpt><trkpt lat="37.9902604" lon="13.8726825"><ele>10.0</ele><time>2026-04-28T17:24:40.993Z</time></trkpt><trkpt lat="37.9902635" lon="13.8723942"><ele>10.0</ele><time>2026-04-28T17:24:41.993Z</time></trkpt><trkpt lat="37.9902742" lon="13.8721067"><ele>10.0</ele><time>2026-04-28T17:24:42.992Z</time></trkpt><trkpt lat="37.990292" lon="13.8718225"><ele>9.666666666666668</ele><time>2026-04-28T17:24:43.993Z</time></trkpt><trkpt lat="37.9903112" lon="13.8715467"><ele>9.333333333333334</ele><time>2026-04-28T17:24:44.992Z</time></trkpt><trkpt lat="37.9903263" lon="13.8712642"><ele>9.0</ele><time>2026-04-28T17:24:45.993Z</time></trkpt><trkpt lat="37.9903307" lon="13.8709686"><ele>9.5</ele><time>2026-04-28T17:24:46.993Z</time></trkpt><trkpt lat="37.9903224" lon="13.8706648"><ele>10.0</ele><time>2026-04-28T17:24:47.993Z</time></trkpt><trkpt lat="37.9902994" lon="13.8703686"><ele>11.0</ele><time>2026-04-28T17:24:48.993Z</time></trkpt><trkpt lat="37.9902649" lon="13.8700724"><ele>12.0</ele><time>2026-04-28T17:24:49.992Z</time></trkpt><trkpt lat="37.9902181" lon="13.8697672"><ele>12.0</ele><time>2026-04-28T17:24:50.993Z</time></trkpt><trkpt lat="37.9901563" lon="13.8694634"><ele>12.0</ele><time>2026-04-28T17:24:51.993Z</time></trkpt><trkpt lat="37.9900758" lon="13.8691591"><ele>12.5</ele><time>2026-04-28T17:24:52.993Z</time></trkpt><trkpt lat="37.9899869" lon="13.8688605"><ele>13.0</ele><time>2026-04-28T17:24:53.992Z</time></trkpt><trkpt lat="37.9898882" lon="13.8685587"><ele>12.0</ele><time>2026-04-28T17:24:54.993Z</time></trkpt><trkpt lat="37.9897807" lon="13.8682564"><ele>11.0</ele><time>2026-04-28T17:24:55.992Z</time></trkpt><trkpt lat="37.9896641" lon="13.8679541"><ele>11.0</ele><time>2026-04-28T17:24:56.992Z</time></trkpt><trkpt lat="37.9895515" lon="13.8676476"><ele>11.0</ele><time>2026-04-28T17:24:57.993Z</time></trkpt><trkpt lat="37.9894356" lon="13.8673379"><ele>11.0</ele><time>2026-04-28T17:24:58.993Z</time></trkpt><trkpt lat="37.9893168" lon="13.8670243"><ele>11.0</ele><time>2026-04-28T17:24:59.993Z</time></trkpt><trkpt lat="37.9891992" lon="13.8667062"><ele>11.0</ele><time>2026-04-28T17:25:00.993Z</time></trkpt><trkpt lat="37.9890837" lon="13.8663865"><ele>11.0</ele><time>2026-04-28T17:25:01.993Z</time></trkpt><trkpt lat="37.9889681" lon="13.8660657"><ele>9.5</ele><time>2026-04-28T17:25:02.993Z</time></trkpt><trkpt lat="37.9888511" lon="13.8657493"><ele>8.0</ele><time>2026-04-28T17:25:03.993Z</time></trkpt><trkpt lat="37.9887347" lon="13.8654297"><ele>7.5</ele><time>2026-04-28T17:25:04.993Z</time></trkpt><trkpt lat="37.9886159" lon="13.8651069"><ele>7.0</ele><time>2026-04-28T17:25:05.993Z</time></trkpt><trkpt lat="37.9884986" lon="13.8647976"><ele>7.0</ele><time>2026-04-28T17:25:06.992Z</time></trkpt><trkpt lat="37.9883898" lon="13.8645047"><ele>7.0</ele><time>2026-04-28T17:25:07.993Z</time></trkpt><trkpt lat="37.9882875" lon="13.8642301"><ele>7.0</ele><time>2026-04-28T17:25:08.993Z</time></trkpt><trkpt lat="37.9881932" lon="13.8639699"><ele>7.0</ele><time>2026-04-28T17:25:09.993Z</time></trkpt><trkpt lat="37.9881046" lon="13.863721"><ele>7.0</ele><time>2026-04-28T17:25:10.993Z</time></trkpt><trkpt lat="37.9880183" lon="13.863489"><ele>7.0</ele><time>2026-04-28T17:25:11.992Z</time></trkpt><trkpt lat="37.9879394" lon="13.8632715"><ele>7.0</ele><time>2026-04-28T17:25:12.993Z</time></trkpt><trkpt lat="37.9878647" lon="13.8630706"><ele>7.0</ele><time>2026-04-28T17:25:13.992Z</time></trkpt><trkpt lat="37.9877873" lon="13.8628506"><ele>7.5</ele><time>2026-04-28T17:25:14.993Z</time></trkpt><trkpt lat="37.9876954" lon="13.8625957"><ele>8.0</ele><time>2026-04-28T17:25:15.993Z</time></trkpt><trkpt lat="37.9875978" lon="13.862319"><ele>8.0</ele><time>2026-04-28T17:25:16.992Z</time></trkpt><trkpt lat="37.9874953" lon="13.8620389"><ele>8.0</ele><time>2026-04-28T17:25:17.993Z</time></trkpt><trkpt lat="37.9873884" lon="13.8617541"><ele>8.0</ele><time>2026-04-28T17:25:18.993Z</time></trkpt><trkpt lat="37.9872853" lon="13.8614797"><ele>8.0</ele><time>2026-04-28T17:25:19.992Z</time></trkpt><trkpt lat="37.9871797" lon="13.8611976"><ele>8.0</ele><time>2026-04-28T17:25:20.992Z</time></trkpt><trkpt lat="37.9870689" lon="13.8608923"><ele>8.0</ele><time>2026-04-28T17:25:21.992Z</time></trkpt><trkpt lat="37.9869603" lon="13.8605887"><ele>8.0</ele><time>2026-04-28T17:25:22.993Z</time></trkpt><trkpt lat="37.9868499" lon="13.8602816"><ele>8.0</ele><time>2026-04-28T17:25:23.992Z</time></trkpt><trkpt lat="37.986732" lon="13.8599635"><ele>9.5</ele><time>2026-04-28T17:25:24.992Z</time></trkpt><trkpt lat="37.9866114" lon="13.859641"><ele>11.0</ele><time>2026-04-28T17:25:25.993Z</time></trkpt><trkpt lat="37.9864913" lon="13.8593213"><ele>10.0</ele><time>2026-04-28T17:25:26.992Z</time></trkpt><trkpt lat="37.9863683" lon="13.8589965"><ele>9.0</ele><time>2026-04-28T17:25:27.992Z</time></trkpt><trkpt lat="37.9862527" lon="13.8586925"><ele>9.0</ele><time>2026-04-28T17:25:28.993Z</time></trkpt><trkpt lat="37.9861388" lon="13.8583767"><ele>9.0</ele><time>2026-04-28T17:25:29.993Z</time></trkpt><trkpt lat="37.9860171" lon="13.8580485"><ele>9.0</ele><time>2026-04-28T17:25:30.993Z</time></trkpt><trkpt lat="37.9858963" lon="13.8577102"><ele>9.0</ele><time>2026-04-28T17:25:31.992Z</time></trkpt><trkpt lat="37.9857744" lon="13.8573784"><ele>8.5</ele><time>2026-04-28T17:25:32.993Z</time></trkpt><trkpt lat="37.9856578" lon="13.857061"><ele>8.0</ele><time>2026-04-28T17:25:33.993Z</time></trkpt><trkpt lat="37.9855487" lon="13.8567609"><ele>8.0</ele><time>2026-04-28T17:25:34.993Z</time></trkpt><trkpt lat="37.9854396" lon="13.8564573"><ele>8.0</ele><time>2026-04-28T17:25:35.992Z</time></trkpt><trkpt lat="37.9853242" lon="13.8561503"><ele>7.0</ele><time>2026-04-28T17:25:36.992Z</time></trkpt><trkpt lat="37.9852077" lon="13.8558331"><ele>6.0</ele><time>2026-04-28T17:25:37.993Z</time></trkpt><trkpt lat="37.985086" lon="13.8555039"><ele>6.0</ele><time>2026-04-28T17:25:38.993Z</time></trkpt><trkpt lat="37.9849658" lon="13.8551713"><ele>6.0</ele><time>2026-04-28T17:25:39.992Z</time></trkpt><trkpt lat="37.9848475" lon="13.8548451"><ele>6.0</ele><time>2026-04-28T17:25:40.993Z</time></trkpt><trkpt lat="37.984731" lon="13.8545366"><ele>6.0</ele><time>2026-04-28T17:25:41.993Z</time></trkpt><trkpt lat="37.9846104" lon="13.8542234"><ele>6.0</ele><time>2026-04-28T17:25:42.993Z</time></trkpt><trkpt lat="37.9844888" lon="13.8538845"><ele>6.0</ele><time>2026-04-28T17:25:43.993Z</time></trkpt><trkpt lat="37.98436" lon="13.8535391"><ele>6.0</ele><time>2026-04-28T17:25:44.993Z</time></trkpt><trkpt lat="37.9842306" lon="13.8531792"><ele>6.0</ele><time>2026-04-28T17:25:45.993Z</time></trkpt><trkpt lat="37.9840963" lon="13.8528124"><ele>6.5</ele><time>2026-04-28T17:25:46.993Z</time></trkpt><trkpt lat="37.9839533" lon="13.852437"><ele>7.0</ele><time>2026-04-28T17:25:47.993Z</time></trkpt><trkpt lat="37.9838107" lon="13.8520433"><ele>7.0</ele><time>2026-04-28T17:25:48.993Z</time></trkpt><trkpt lat="37.9836647" lon="13.8516452"><ele>7.0</ele><time>2026-04-28T17:25:49.993Z</time></trkpt><trkpt lat="37.9835192" lon="13.851242"><ele>7.0</ele><time>2026-04-28T17:25:50.993Z</time></trkpt><trkpt lat="37.9833773" lon="13.8508563"><ele>7.0</ele><time>2026-04-28T17:25:51.993Z</time></trkpt><trkpt lat="37.9832433" lon="13.8504997"><ele>7.0</ele><time>2026-04-28T17:25:52.993Z</time></trkpt><trkpt lat="37.9831208" lon="13.8501664"><ele>7.0</ele><time>2026-04-28T17:25:53.993Z</time></trkpt><trkpt lat="37.9829979" lon="13.8498377"><ele>6.5</ele><time>2026-04-28T17:25:54.993Z</time></trkpt><trkpt lat="37.9828768" lon="13.8495116"><ele>6.0</ele><time>2026-04-28T17:25:55.993Z</time></trkpt><trkpt lat="37.9827563" lon="13.8491852"><ele>5.0</ele><time>2026-04-28T17:25:56.992Z</time></trkpt><trkpt lat="37.9826346" lon="13.848864"><ele>4.0</ele><time>2026-04-28T17:25:57.993Z</time></trkpt><trkpt lat="37.9825151" lon="13.8485461"><ele>4.5</ele><time>2026-04-28T17:25:58.993Z</time></trkpt><trkpt lat="37.9823993" lon="13.8482331"><ele>5.0</ele><time>2026-04-28T17:25:59.993Z</time></trkpt><trkpt lat="37.9822869" lon="13.8479202"><ele>5.5</ele><time>2026-04-28T17:26:00.993Z</time></trkpt><trkpt lat="37.9821753" lon="13.8476142"><ele>6.0</ele><time>2026-04-28T17:26:01.993Z</time></trkpt><trkpt lat="37.9820649" lon="13.8473136"><ele>6.0</ele><time>2026-04-28T17:26:02.993Z</time></trkpt><trkpt lat="37.9819533" lon="13.8470157"><ele>6.0</ele><time>2026-04-28T17:26:03.993Z</time></trkpt><trkpt lat="37.9818468" lon="13.8467218"><ele>6.0</ele><time>2026-04-28T17:26:04.993Z</time></trkpt><trkpt lat="37.98174" lon="13.846438"><ele>6.0</ele><time>2026-04-28T17:26:05.992Z</time></trkpt><trkpt lat="37.9816398" lon="13.8461605"><ele>6.0</ele><time>2026-04-28T17:26:06.993Z</time></trkpt><trkpt lat="37.9815385" lon="13.8458895"><ele>6.0</ele><time>2026-04-28T17:26:07.992Z</time></trkpt><trkpt lat="37.9814385" lon="13.8456203"><ele>6.0</ele><time>2026-04-28T17:26:08.992Z</time></trkpt><trkpt lat="37.9813363" lon="13.8453497"><ele>6.0</ele><time>2026-04-28T17:26:09.993Z</time></trkpt><trkpt lat="37.9812377" lon="13.8450786"><ele>6.5</ele><time>2026-04-28T17:26:10.993Z</time></trkpt><trkpt lat="37.9811408" lon="13.8448123"><ele>7.0</ele><time>2026-04-28T17:26:11.993Z</time></trkpt><trkpt lat="37.981044" lon="13.8445468"><ele>6.5</ele><time>2026-04-28T17:26:12.992Z</time></trkpt><trkpt lat="37.9809423" lon="13.8442841"><ele>6.0</ele><time>2026-04-28T17:26:13.993Z</time></trkpt><trkpt lat="37.9808474" lon="13.8440273"><ele>6.333333333333334</ele><time>2026-04-28T17:26:14.993Z</time></trkpt><trkpt lat="37.9807505" lon="13.8437697"><ele>6.666666666666667</ele><time>2026-04-28T17:26:15.993Z</time></trkpt><trkpt lat="37.9806566" lon="13.8435147"><ele>7.0</ele><time>2026-04-28T17:26:16.993Z</time></trkpt><trkpt lat="37.980565" lon="13.8432643"><ele>7.0</ele><time>2026-04-28T17:26:17.993Z</time></trkpt><trkpt lat="37.9804788" lon="13.8430286"><ele>7.0</ele><time>2026-04-28T17:26:18.992Z</time></trkpt><trkpt lat="37.9803972" lon="13.8428037"><ele>7.0</ele><time>2026-04-28T17:26:19.993Z</time></trkpt><trkpt lat="37.9803181" lon="13.8425952"><ele>7.333333333333334</ele><time>2026-04-28T17:26:20.993Z</time></trkpt><trkpt lat="37.9802508" lon="13.8424008"><ele>7.666666666666666</ele><time>2026-04-28T17:26:21.992Z</time></trkpt><trkpt lat="37.9801837" lon="13.842217"><ele>8.0</ele><time>2026-04-28T17:26:22.993Z</time></trkpt><trkpt lat="37.9801199" lon="13.8420417"><ele>8.0</ele><time>2026-04-28T17:26:23.993Z</time></trkpt><trkpt lat="37.9800616" lon="13.8418706"><ele>8.0</ele><time>2026-04-28T17:26:24.993Z</time></trkpt><trkpt lat="37.980014" lon="13.8417205"><ele>8.0</ele><time>2026-04-28T17:26:25.992Z</time></trkpt><trkpt lat="37.9799672" lon="13.8415834"><ele>8.0</ele><time>2026-04-28T17:26:26.993Z</time></trkpt><trkpt lat="37.9799175" lon="13.8414424"><ele>8.5</ele><time>2026-04-28T17:26:27.992Z</time></trkpt><trkpt lat="37.9798776" lon="13.8412736"><ele>9.0</ele><time>2026-04-28T17:26:28.993Z</time></trkpt><trkpt lat="37.9798092" lon="13.841115"><ele>9.5</ele><time>2026-04-28T17:26:29.993Z</time></trkpt><trkpt lat="37.9797489" lon="13.840967"><ele>10.0</ele><time>2026-04-28T17:26:30.993Z</time></trkpt><trkpt lat="37.979695" lon="13.8408143"><ele>10.0</ele><time>2026-04-28T17:26:31.993Z</time></trkpt><trkpt lat="37.9796303" lon="13.8406656"><ele>10.0</ele><time>2026-04-28T17:26:32.993Z</time></trkpt><trkpt lat="37.9795703" lon="13.8405107"><ele>10.0</ele><time>2026-04-28T17:26:33.992Z</time></trkpt><trkpt lat="37.9795005" lon="13.8403434"><ele>10.0</ele><time>2026-04-28T17:26:34.993Z</time></trkpt><trkpt lat="37.9794254" lon="13.8401654"><ele>10.333333333333334</ele><time>2026-04-28T17:26:35.993Z</time></trkpt><trkpt lat="37.9793431" lon="13.839954"><ele>10.666666666666666</ele><time>2026-04-28T17:26:36.993Z</time></trkpt><trkpt lat="37.9792628" lon="13.8397323"><ele>11.0</ele><time>2026-04-28T17:26:37.993Z</time></trkpt><trkpt lat="37.9791773" lon="13.839499"><ele>10.333333333333332</ele><time>2026-04-28T17:26:38.993Z</time></trkpt><trkpt lat="37.9790995" lon="13.8392737"><ele>9.666666666666666</ele><time>2026-04-28T17:26:39.993Z</time></trkpt><trkpt lat="37.9790183" lon="13.8390556"><ele>9.0</ele><time>2026-04-28T17:26:40.993Z</time></trkpt><trkpt lat="37.9789398" lon="13.8388469"><ele>9.0</ele><time>2026-04-28T17:26:41.993Z</time></trkpt><trkpt lat="37.9788732" lon="13.8386618"><ele>9.0</ele><time>2026-04-28T17:26:42.993Z</time></trkpt><trkpt lat="37.9788108" lon="13.8384856"><ele>9.0</ele><time>2026-04-28T17:26:43.993Z</time></trkpt><trkpt lat="37.9787537" lon="13.8383304"><ele>9.0</ele><time>2026-04-28T17:26:44.993Z</time></trkpt><trkpt lat="37.9787038" lon="13.8381869"><ele>8.4</ele><time>2026-04-28T17:26:45.993Z</time></trkpt><trkpt lat="37.9786569" lon="13.8380576"><ele>7.800000000000001</ele><time>2026-04-28T17:26:46.993Z</time></trkpt><trkpt lat="37.9786143" lon="13.8379408"><ele>7.199999999999999</ele><time>2026-04-28T17:26:47.993Z</time></trkpt><trkpt lat="37.9785712" lon="13.8378317"><ele>6.6</ele><time>2026-04-28T17:26:48.993Z</time></trkpt><trkpt lat="37.9785291" lon="13.8377229"><ele>6.0</ele><time>2026-04-28T17:26:49.993Z</time></trkpt><trkpt lat="37.9784891" lon="13.8376107"><ele>6.0</ele><time>2026-04-28T17:26:50.993Z</time></trkpt><trkpt lat="37.9784452" lon="13.837494"><ele>6.0</ele><time>2026-04-28T17:26:51.993Z</time></trkpt><trkpt lat="37.9784021" lon="13.8373765"><ele>6.0</ele><time>2026-04-28T17:26:52.993Z</time></trkpt><trkpt lat="37.9783587" lon="13.8372535"><ele>6.0</ele><time>2026-04-28T17:26:53.993Z</time></trkpt><trkpt lat="37.9783114" lon="13.837131"><ele>6.0</ele><time>2026-04-28T17:26:54.993Z</time></trkpt><trkpt lat="37.9782633" lon="13.8370026"><ele>6.0</ele><time>2026-04-28T17:26:55.993Z</time></trkpt><trkpt lat="37.9782174" lon="13.8368736"><ele>6.0</ele><time>2026-04-28T17:26:56.993Z</time></trkpt><trkpt lat="37.9781696" lon="13.8367447"><ele>6.0</ele><time>2026-04-28T17:26:57.993Z</time></trkpt><trkpt lat="37.9781227" lon="13.8366069"><ele>6.0</ele><time>2026-04-28T17:26:58.993Z</time></trkpt><trkpt lat="37.9780626" lon="13.8364407"><ele>6.0</ele><time>2026-04-28T17:26:59.993Z</time></trkpt><trkpt lat="37.9779919" lon="13.8362627"><ele>6.0</ele><time>2026-04-28T17:27:00.993Z</time></trkpt><trkpt lat="37.9779236" lon="13.8360772"><ele>6.0</ele><time>2026-04-28T17:27:01.993Z</time></trkpt><trkpt lat="37.9778575" lon="13.8358893"><ele>5.666666666666667</ele><time>2026-04-28T17:27:02.993Z</time></trkpt><trkpt lat="37.9777896" lon="13.835697"><ele>5.333333333333334</ele><time>2026-04-28T17:27:03.993Z</time></trkpt><trkpt lat="37.9777166" lon="13.8354993"><ele>5.0</ele><time>2026-04-28T17:27:04.993Z</time></trkpt><trkpt lat="37.9776409" lon="13.8352866"><ele>5.333333333333334</ele><time>2026-04-28T17:27:05.992Z</time></trkpt><trkpt lat="37.977552" lon="13.8350499"><ele>5.666666666666667</ele><time>2026-04-28T17:27:06.993Z</time></trkpt><trkpt lat="37.9774588" lon="13.8347978"><ele>6.0</ele><time>2026-04-28T17:27:07.993Z</time></trkpt><trkpt lat="37.9773655" lon="13.8345406"><ele>7.0</ele><time>2026-04-28T17:27:08.992Z</time></trkpt><trkpt lat="37.9772653" lon="13.8342649"><ele>8.0</ele><time>2026-04-28T17:27:09.993Z</time></trkpt><trkpt lat="37.9771592" lon="13.8339794"><ele>8.0</ele><time>2026-04-28T17:27:10.993Z</time></trkpt><trkpt lat="37.9770516" lon="13.8336935"><ele>8.0</ele><time>2026-04-28T17:27:11.992Z</time></trkpt><trkpt lat="37.9769447" lon="13.8334076"><ele>7.5</ele><time>2026-04-28T17:27:12.992Z</time></trkpt><trkpt lat="37.9768358" lon="13.833115"><ele>7.0</ele><time>2026-04-28T17:27:13.992Z</time></trkpt><trkpt lat="37.9767268" lon="13.8328133"><ele>8.0</ele><time>2026-04-28T17:27:14.993Z</time></trkpt><trkpt lat="37.9766165" lon="13.8325112"><ele>9.0</ele><time>2026-04-28T17:27:15.992Z</time></trkpt><trkpt lat="37.9764995" lon="13.8322036"><ele>9.0</ele><time>2026-04-28T17:27:16.993Z</time></trkpt><trkpt lat="37.9763857" lon="13.8318987"><ele>9.0</ele><time>2026-04-28T17:27:17.993Z</time></trkpt><trkpt lat="37.976271" lon="13.8315941"><ele>8.5</ele><time>2026-04-28T17:27:18.993Z</time></trkpt><trkpt lat="37.9761569" lon="13.8312908"><ele>8.0</ele><time>2026-04-28T17:27:19.993Z</time></trkpt><trkpt lat="37.9760448" lon="13.8309823"><ele>8.5</ele><time>2026-04-28T17:27:20.992Z</time></trkpt><trkpt lat="37.9759304" lon="13.8306706"><ele>9.0</ele><time>2026-04-28T17:27:21.993Z</time></trkpt><trkpt lat="37.9758138" lon="13.8303667"><ele>10.5</ele><time>2026-04-28T17:27:22.992Z</time></trkpt><trkpt lat="37.9756949" lon="13.8300457"><ele>12.0</ele><time>2026-04-28T17:27:23.993Z</time></trkpt><trkpt lat="37.9755763" lon="13.8297257"><ele>12.0</ele><time>2026-04-28T17:27:24.992Z</time></trkpt><trkpt lat="37.9754567" lon="13.8293942"><ele>12.0</ele><time>2026-04-28T17:27:25.993Z</time></trkpt><trkpt lat="37.9753348" lon="13.829061"><ele>11.5</ele><time>2026-04-28T17:27:26.993Z</time></trkpt><trkpt lat="37.9752115" lon="13.8287288"><ele>11.0</ele><time>2026-04-28T17:27:27.993Z</time></trkpt><trkpt lat="37.9750858" lon="13.8283956"><ele>11.5</ele><time>2026-04-28T17:27:28.993Z</time></trkpt><trkpt lat="37.9749629" lon="13.8280613"><ele>12.0</ele><time>2026-04-28T17:27:29.993Z</time></trkpt><trkpt lat="37.9748401" lon="13.8277237"><ele>11.0</ele><time>2026-04-28T17:27:30.993Z</time></trkpt><trkpt lat="37.9747173" lon="13.8273846"><ele>10.0</ele><time>2026-04-28T17:27:31.993Z</time></trkpt><trkpt lat="37.9745984" lon="13.8270538"><ele>8.5</ele><time>2026-04-28T17:27:32.993Z</time></trkpt><trkpt lat="37.9744787" lon="13.8267226"><ele>7.0</ele><time>2026-04-28T17:27:33.992Z</time></trkpt><trkpt lat="37.9743612" lon="13.8263955"><ele>7.0</ele><time>2026-04-28T17:27:34.992Z</time></trkpt><trkpt lat="37.97424" lon="13.826066"><ele>7.0</ele><time>2026-04-28T17:27:35.993Z</time></trkpt><trkpt lat="37.9741202" lon="13.8257376"><ele>7.5</ele><time>2026-04-28T17:27:36.993Z</time></trkpt><trkpt lat="37.9739992" lon="13.8254108"><ele>8.0</ele><time>2026-04-28T17:27:37.993Z</time></trkpt><trkpt lat="37.9738849" lon="13.8250999"><ele>8.0</ele><time>2026-04-28T17:27:38.993Z</time></trkpt><trkpt lat="37.9737748" lon="13.8248093"><ele>8.0</ele><time>2026-04-28T17:27:39.993Z</time></trkpt><trkpt lat="37.9736669" lon="13.8245187"><ele>8.5</ele><time>2026-04-28T17:27:40.993Z</time></trkpt><trkpt lat="37.9735618" lon="13.824232"><ele>9.0</ele><time>2026-04-28T17:27:41.993Z</time></trkpt><trkpt lat="37.9734559" lon="13.8239482"><ele>10.5</ele><time>2026-04-28T17:27:42.993Z</time></trkpt><trkpt lat="37.9733541" lon="13.8236668"><ele>12.0</ele><time>2026-04-28T17:27:43.993Z</time></trkpt><trkpt lat="37.9732494" lon="13.823384"><ele>12.0</ele><time>2026-04-28T17:27:44.993Z</time></trkpt><trkpt lat="37.9731475" lon="13.8230963"><ele>12.0</ele><time>2026-04-28T17:27:45.993Z</time></trkpt><trkpt lat="37.9730455" lon="13.8228082"><ele>12.0</ele><time>2026-04-28T17:27:46.992Z</time></trkpt><trkpt lat="37.9729397" lon="13.8225173"><ele>12.0</ele><time>2026-04-28T17:27:47.993Z</time></trkpt><trkpt lat="37.9728351" lon="13.8222253"><ele>12.0</ele><time>2026-04-28T17:27:48.993Z</time></trkpt><trkpt lat="37.9727315" lon="13.8219326"><ele>12.0</ele><time>2026-04-28T17:27:49.993Z</time></trkpt><trkpt lat="37.9726278" lon="13.8216341"><ele>11.0</ele><time>2026-04-28T17:27:50.993Z</time></trkpt><trkpt lat="37.9725251" lon="13.8213456"><ele>10.0</ele><time>2026-04-28T17:27:51.993Z</time></trkpt><trkpt lat="37.9724191" lon="13.8210674"><ele>11.0</ele><time>2026-04-28T17:27:52.993Z</time></trkpt><trkpt lat="37.9723034" lon="13.8207984"><ele>12.0</ele><time>2026-04-28T17:27:53.993Z</time></trkpt><trkpt lat="37.9721787" lon="13.8205371"><ele>12.0</ele><time>2026-04-28T17:27:54.993Z</time></trkpt><trkpt lat="37.9720528" lon="13.8202799"><ele>12.0</ele><time>2026-04-28T17:27:55.992Z</time></trkpt><trkpt lat="37.9719285" lon="13.8200355"><ele>11.0</ele><time>2026-04-28T17:27:56.992Z</time></trkpt><trkpt lat="37.9718096" lon="13.819803"><ele>10.0</ele><time>2026-04-28T17:27:57.992Z</time></trkpt><trkpt lat="37.9716937" lon="13.819564"><ele>9.0</ele><time>2026-04-28T17:27:58.993Z</time></trkpt><trkpt lat="37.971589" lon="13.8193158"><ele>12.0</ele><time>2026-04-28T17:27:59.993Z</time></trkpt><trkpt lat="37.9715087" lon="13.819036"><ele>15.0</ele><time>2026-04-28T17:28:00.992Z</time></trkpt><trkpt lat="37.9714478" lon="13.8187322"><ele>14.0</ele><time>2026-04-28T17:28:01.992Z</time></trkpt><trkpt lat="37.9714012" lon="13.8184292"><ele>13.0</ele><time>2026-04-28T17:28:02.993Z</time></trkpt><trkpt lat="37.9713654" lon="13.8181436"><ele>13.0</ele><time>2026-04-28T17:28:03.992Z</time></trkpt><trkpt lat="37.9713215" lon="13.8178824"><ele>13.0</ele><time>2026-04-28T17:28:04.993Z</time></trkpt><trkpt lat="37.9712714" lon="13.8176446"><ele>13.0</ele><time>2026-04-28T17:28:05.993Z</time></trkpt><trkpt lat="37.9712157" lon="13.8174371"><ele>12.666666666666666</ele><time>2026-04-28T17:28:06.993Z</time></trkpt><trkpt lat="37.9711503" lon="13.8172425"><ele>12.333333333333332</ele><time>2026-04-28T17:28:07.993Z</time></trkpt><trkpt lat="37.971063" lon="13.8170485"><ele>12.0</ele><time>2026-04-28T17:28:08.993Z</time></trkpt><trkpt lat="37.9709653" lon="13.8168615"><ele>13.666666666666668</ele><time>2026-04-28T17:28:09.993Z</time></trkpt><trkpt lat="37.9708572" lon="13.8166595"><ele>15.333333333333334</ele><time>2026-04-28T17:28:10.992Z</time></trkpt><trkpt lat="37.9707366" lon="13.8164465"><ele>17.0</ele><time>2026-04-28T17:28:11.993Z</time></trkpt><trkpt lat="37.9706198" lon="13.816222"><ele>17.0</ele><time>2026-04-28T17:28:12.993Z</time></trkpt><trkpt lat="37.9705001" lon="13.8159979"><ele>17.0</ele><time>2026-04-28T17:28:13.993Z</time></trkpt><trkpt lat="37.9703895" lon="13.8157788"><ele>17.0</ele><time>2026-04-28T17:28:14.993Z</time></trkpt><trkpt lat="37.9702843" lon="13.8155385"><ele>14.5</ele><time>2026-04-28T17:28:15.993Z</time></trkpt><trkpt lat="37.9701785" lon="13.8152698"><ele>12.0</ele><time>2026-04-28T17:28:16.993Z</time></trkpt><trkpt lat="37.9700818" lon="13.8149703"><ele>13.0</ele><time>2026-04-28T17:28:17.993Z</time></trkpt><trkpt lat="37.9699839" lon="13.8146426"><ele>14.0</ele><time>2026-04-28T17:28:18.993Z</time></trkpt><trkpt lat="37.969885" lon="13.8143119"><ele>14.0</ele><time>2026-04-28T17:28:19.993Z</time></trkpt><trkpt lat="37.9697785" lon="13.8139681"><ele>14.0</ele><time>2026-04-28T17:28:20.993Z</time></trkpt><trkpt lat="37.9696724" lon="13.8136036"><ele>12.5</ele><time>2026-04-28T17:28:21.993Z</time></trkpt><trkpt lat="37.969557" lon="13.8132378"><ele>11.0</ele><time>2026-04-28T17:28:22.992Z</time></trkpt><trkpt lat="37.9694409" lon="13.8128568"><ele>10.5</ele><time>2026-04-28T17:28:23.993Z</time></trkpt><trkpt lat="37.9693185" lon="13.8124707"><ele>10.0</ele><time>2026-04-28T17:28:24.993Z</time></trkpt><trkpt lat="37.9691935" lon="13.8120708"><ele>12.5</ele><time>2026-04-28T17:28:25.993Z</time></trkpt><trkpt lat="37.9690649" lon="13.8116691"><ele>15.0</ele><time>2026-04-28T17:28:26.993Z</time></trkpt><trkpt lat="37.9689422" lon="13.8112874"><ele>14.0</ele><time>2026-04-28T17:28:27.993Z</time></trkpt><trkpt lat="37.9688308" lon="13.8109308"><ele>13.0</ele><time>2026-04-28T17:28:28.993Z</time></trkpt><trkpt lat="37.9687186" lon="13.8105922"><ele>13.0</ele><time>2026-04-28T17:28:29.992Z</time></trkpt><trkpt lat="37.968614" lon="13.8102705"><ele>13.0</ele><time>2026-04-28T17:28:30.993Z</time></trkpt><trkpt lat="37.9685168" lon="13.8099625"><ele>12.5</ele><time>2026-04-28T17:28:31.993Z</time></trkpt><trkpt lat="37.9684205" lon="13.8096694"><ele>12.0</ele><time>2026-04-28T17:28:32.993Z</time></trkpt><trkpt lat="37.9683255" lon="13.8094021"><ele>14.0</ele><time>2026-04-28T17:28:33.993Z</time></trkpt><trkpt lat="37.9682362" lon="13.809161"><ele>16.0</ele><time>2026-04-28T17:28:34.993Z</time></trkpt><trkpt lat="37.9681504" lon="13.8089277"><ele>18.0</ele><time>2026-04-28T17:28:35.992Z</time></trkpt><trkpt lat="37.9680624" lon="13.8087035"><ele>17.333333333333332</ele><time>2026-04-28T17:28:36.993Z</time></trkpt><trkpt lat="37.9679709" lon="13.8084702"><ele>16.666666666666664</ele><time>2026-04-28T17:28:37.992Z</time></trkpt><trkpt lat="37.9678729" lon="13.8082255"><ele>16.0</ele><time>2026-04-28T17:28:38.992Z</time></trkpt><trkpt lat="37.9677655" lon="13.8079761"><ele>16.0</ele><time>2026-04-28T17:28:39.993Z</time></trkpt><trkpt lat="37.9676544" lon="13.8077242"><ele>16.0</ele><time>2026-04-28T17:28:40.992Z</time></trkpt><trkpt lat="37.9675446" lon="13.8074725"><ele>18.0</ele><time>2026-04-28T17:28:41.993Z</time></trkpt><trkpt lat="37.9674276" lon="13.8072182"><ele>20.0</ele><time>2026-04-28T17:28:42.993Z</time></trkpt><trkpt lat="37.9673059" lon="13.8069622"><ele>19.0</ele><time>2026-04-28T17:28:43.992Z</time></trkpt><trkpt lat="37.9671783" lon="13.8067017"><ele>18.0</ele><time>2026-04-28T17:28:44.993Z</time></trkpt><trkpt lat="37.9670476" lon="13.8064318"><ele>18.0</ele><time>2026-04-28T17:28:45.992Z</time></trkpt><trkpt lat="37.9669097" lon="13.8061498"><ele>18.0</ele><time>2026-04-28T17:28:46.992Z</time></trkpt><trkpt lat="37.9667683" lon="13.805861"><ele>19.5</ele><time>2026-04-28T17:28:47.993Z</time></trkpt><trkpt lat="37.9666272" lon="13.8055636"><ele>21.0</ele><time>2026-04-28T17:28:48.993Z</time></trkpt><trkpt lat="37.9664818" lon="13.8052671"><ele>20.0</ele><time>2026-04-28T17:28:49.993Z</time></trkpt><trkpt lat="37.9663447" lon="13.8049774"><ele>19.0</ele><time>2026-04-28T17:28:50.992Z</time></trkpt><trkpt lat="37.9662116" lon="13.8047127"><ele>19.0</ele><time>2026-04-28T17:28:51.993Z</time></trkpt><trkpt lat="37.9660898" lon="13.8044565"><ele>19.0</ele><time>2026-04-28T17:28:52.993Z</time></trkpt><trkpt lat="37.9659766" lon="13.8042147"><ele>18.0</ele><time>2026-04-28T17:28:53.993Z</time></trkpt><trkpt lat="37.9658662" lon="13.8039705"><ele>17.0</ele><time>2026-04-28T17:28:54.993Z</time></trkpt><trkpt lat="37.9657681" lon="13.8037082"><ele>18.5</ele><time>2026-04-28T17:28:55.993Z</time></trkpt><trkpt lat="37.9656764" lon="13.8034374"><ele>20.0</ele><time>2026-04-28T17:28:56.993Z</time></trkpt><trkpt lat="37.9655928" lon="13.8031451"><ele>20.0</ele><time>2026-04-28T17:28:57.993Z</time></trkpt><trkpt lat="37.9655291" lon="13.8028595"><ele>20.0</ele><time>2026-04-28T17:28:58.993Z</time></trkpt><trkpt lat="37.9654871" lon="13.8025606"><ele>18.5</ele><time>2026-04-28T17:28:59.993Z</time></trkpt><trkpt lat="37.9654557" lon="13.8022425"><ele>17.0</ele><time>2026-04-28T17:29:00.993Z</time></trkpt><trkpt lat="37.9654441" lon="13.8019195"><ele>16.5</ele><time>2026-04-28T17:29:01.993Z</time></trkpt><trkpt lat="37.9654403" lon="13.8016002"><ele>16.0</ele><time>2026-04-28T17:29:02.993Z</time></trkpt><trkpt lat="37.9654405" lon="13.8012951"><ele>16.0</ele><time>2026-04-28T17:29:03.992Z</time></trkpt><trkpt lat="37.965444" lon="13.8010121"><ele>16.0</ele><time>2026-04-28T17:29:04.993Z</time></trkpt><trkpt lat="37.9654339" lon="13.8007405"><ele>16.0</ele><time>2026-04-28T17:29:05.993Z</time></trkpt><trkpt lat="37.9654071" lon="13.8004768"><ele>16.5</ele><time>2026-04-28T17:29:06.993Z</time></trkpt><trkpt lat="37.9653508" lon="13.8001981"><ele>17.0</ele><time>2026-04-28T17:29:07.992Z</time></trkpt><trkpt lat="37.9652635" lon="13.7999161"><ele>17.0</ele><time>2026-04-28T17:29:08.993Z</time></trkpt><trkpt lat="37.9651412" lon="13.7996502"><ele>17.0</ele><time>2026-04-28T17:29:09.993Z</time></trkpt><trkpt lat="37.9649997" lon="13.7994089"><ele>18.666666666666668</ele><time>2026-04-28T17:29:10.992Z</time></trkpt><trkpt lat="37.9648581" lon="13.7992082"><ele>20.333333333333332</ele><time>2026-04-28T17:29:11.993Z</time></trkpt><trkpt lat="37.9647186" lon="13.7990234"><ele>22.0</ele><time>2026-04-28T17:29:12.993Z</time></trkpt><trkpt lat="37.9645865" lon="13.7988444"><ele>22.0</ele><time>2026-04-28T17:29:13.993Z</time></trkpt><trkpt lat="37.9644684" lon="13.7986674"><ele>22.0</ele><time>2026-04-28T17:29:14.992Z</time></trkpt><trkpt lat="37.9643722" lon="13.7984871"><ele>22.0</ele><time>2026-04-28T17:29:15.993Z</time></trkpt><trkpt lat="37.9643022" lon="13.7982862"><ele>21.333333333333332</ele><time>2026-04-28T17:29:16.993Z</time></trkpt><trkpt lat="37.9642551" lon="13.798076"><ele>20.666666666666668</ele><time>2026-04-28T17:29:17.993Z</time></trkpt><trkpt lat="37.9642488" lon="13.7978624"><ele>20.0</ele><time>2026-04-28T17:29:18.993Z</time></trkpt><trkpt lat="37.9642921" lon="13.7976601"><ele>20.0</ele><time>2026-04-28T17:29:19.993Z</time></trkpt><trkpt lat="37.9643699" lon="13.7974579"><ele>20.0</ele><time>2026-04-28T17:29:20.992Z</time></trkpt><trkpt lat="37.9644751" lon="13.7972512"><ele>20.0</ele><time>2026-04-28T17:29:21.992Z</time></trkpt><trkpt lat="37.9645781" lon="13.7970435"><ele>20.0</ele><time>2026-04-28T17:29:22.993Z</time></trkpt><trkpt lat="37.9646764" lon="13.796842"><ele>20.0</ele><time>2026-04-28T17:29:23.993Z</time></trkpt><trkpt lat="37.9647547" lon="13.796656"><ele>20.0</ele><time>2026-04-28T17:29:24.993Z</time></trkpt><trkpt lat="37.9647953" lon="13.7964719"><ele>21.0</ele><time>2026-04-28T17:29:25.992Z</time></trkpt><trkpt lat="37.9647958" lon="13.7962645"><ele>22.0</ele><time>2026-04-28T17:29:26.993Z</time></trkpt><trkpt lat="37.9647498" lon="13.7960447"><ele>23.0</ele><time>2026-04-28T17:29:27.993Z</time></trkpt><trkpt lat="37.9646736" lon="13.7958182"><ele>23.333333333333336</ele><time>2026-04-28T17:29:28.993Z</time></trkpt><trkpt lat="37.9645759" lon="13.7955834"><ele>23.666666666666668</ele><time>2026-04-28T17:29:29.993Z</time></trkpt><trkpt lat="37.9644955" lon="13.7953382"><ele>24.0</ele><time>2026-04-28T17:29:30.993Z</time></trkpt><trkpt lat="37.9644387" lon="13.7950877"><ele>22.666666666666668</ele><time>2026-04-28T17:29:31.993Z</time></trkpt><trkpt lat="37.9643967" lon="13.7948321"><ele>21.333333333333336</ele><time>2026-04-28T17:29:32.993Z</time></trkpt><trkpt lat="37.9643537" lon="13.7945779"><ele>20.0</ele><time>2026-04-28T17:29:33.993Z</time></trkpt><trkpt lat="37.9643016" lon="13.7943197"><ele>20.0</ele><time>2026-04-28T17:29:34.993Z</time></trkpt><trkpt lat="37.964223" lon="13.7940734"><ele>20.0</ele><time>2026-04-28T17:29:35.993Z</time></trkpt><trkpt lat="37.964114" lon="13.7938622"><ele>20.0</ele><time>2026-04-28T17:29:36.992Z</time></trkpt><trkpt lat="37.9639895" lon="13.7936554"><ele>24.0</ele><time>2026-04-28T17:29:37.993Z</time></trkpt><trkpt lat="37.9638632" lon="13.793456"><ele>28.0</ele><time>2026-04-28T17:29:38.993Z</time></trkpt><trkpt lat="37.9637489" lon="13.7932699"><ele>32.0</ele><time>2026-04-28T17:29:39.993Z</time></trkpt><trkpt lat="37.9636559" lon="13.7930878"><ele>32.0</ele><time>2026-04-28T17:29:40.993Z</time></trkpt><trkpt lat="37.9635935" lon="13.7928942"><ele>32.0</ele><time>2026-04-28T17:29:41.992Z</time></trkpt><trkpt lat="37.9635732" lon="13.7926826"><ele>32.0</ele><time>2026-04-28T17:29:42.992Z</time></trkpt><trkpt lat="37.9635828" lon="13.7924577"><ele>32.0</ele><time>2026-04-28T17:29:43.993Z</time></trkpt><trkpt lat="37.9636036" lon="13.792239"><ele>32.0</ele><time>2026-04-28T17:29:44.993Z</time></trkpt><trkpt lat="37.9636271" lon="13.7920239"><ele>32.0</ele><time>2026-04-28T17:29:45.992Z</time></trkpt><trkpt lat="37.9636473" lon="13.791801"><ele>32.0</ele><time>2026-04-28T17:29:46.992Z</time></trkpt><trkpt lat="37.9636521" lon="13.7915671"><ele>32.0</ele><time>2026-04-28T17:29:47.992Z</time></trkpt><trkpt lat="37.9636289" lon="13.7913201"><ele>32.0</ele><time>2026-04-28T17:29:48.993Z</time></trkpt><trkpt lat="37.9635759" lon="13.7910627"><ele>30.333333333333332</ele><time>2026-04-28T17:29:49.992Z</time></trkpt><trkpt lat="37.9635016" lon="13.7908133"><ele>28.666666666666664</ele><time>2026-04-28T17:29:50.992Z</time></trkpt><trkpt lat="37.9634204" lon="13.7905896"><ele>27.0</ele><time>2026-04-28T17:29:51.993Z</time></trkpt><trkpt lat="37.9633418" lon="13.7903833"><ele>32.333333333333336</ele><time>2026-04-28T17:29:52.992Z</time></trkpt><trkpt lat="37.9632707" lon="13.7901943"><ele>37.66666666666667</ele><time>2026-04-28T17:29:53.993Z</time></trkpt><trkpt lat="37.9632245" lon="13.7899975"><ele>43.0</ele><time>2026-04-28T17:29:54.993Z</time></trkpt><trkpt lat="37.963215" lon="13.7897835"><ele>43.0</ele><time>2026-04-28T17:29:55.992Z</time></trkpt><trkpt lat="37.9632444" lon="13.7895705"><ele>43.0</ele><time>2026-04-28T17:29:56.993Z</time></trkpt><trkpt lat="37.9633203" lon="13.7893503"><ele>43.0</ele><time>2026-04-28T17:29:57.992Z</time></trkpt><trkpt lat="37.9633985" lon="13.7891474"><ele>35.333333333333336</ele><time>2026-04-28T17:29:58.992Z</time></trkpt><trkpt lat="37.9634642" lon="13.7889504"><ele>27.666666666666668</ele><time>2026-04-28T17:29:59.993Z</time></trkpt><trkpt lat="37.96351" lon="13.7887656"><ele>20.0</ele><time>2026-04-28T17:30:00.993Z</time></trkpt><trkpt lat="37.9635119" lon="13.7885916"><ele>20.0</ele><time>2026-04-28T17:30:01.993Z</time></trkpt><trkpt lat="37.9634575" lon="13.788436"><ele>20.0</ele><time>2026-04-28T17:30:02.993Z</time></trkpt><trkpt lat="37.9633719" lon="13.7882886"><ele>20.0</ele><time>2026-04-28T17:30:03.992Z</time></trkpt><trkpt lat="37.9632841" lon="13.7881298"><ele>20.0</ele><time>2026-04-28T17:30:04.992Z</time></trkpt><trkpt lat="37.9632051" lon="13.7879601"><ele>25.75</ele><time>2026-04-28T17:30:05.992Z</time></trkpt><trkpt lat="37.9631633" lon="13.7877757"><ele>31.5</ele><time>2026-04-28T17:30:06.993Z</time></trkpt><trkpt lat="37.9631591" lon="13.7875923"><ele>37.25</ele><time>2026-04-28T17:30:07.993Z</time></trkpt><trkpt lat="37.9631723" lon="13.7874147"><ele>43.0</ele><time>2026-04-28T17:30:08.992Z</time></trkpt><trkpt lat="37.9631869" lon="13.7872515"><ele>43.0</ele><time>2026-04-28T17:30:09.993Z</time></trkpt><trkpt lat="37.9631873" lon="13.7870955"><ele>43.0</ele><time>2026-04-28T17:30:10.993Z</time></trkpt><trkpt lat="37.9631554" lon="13.7869402"><ele>43.0</ele><time>2026-04-28T17:30:11.993Z</time></trkpt><trkpt lat="37.9630958" lon="13.7867996"><ele>43.0</ele><time>2026-04-28T17:30:12.993Z</time></trkpt><trkpt lat="37.9630068" lon="13.7866945"><ele>42.0</ele><time>2026-04-28T17:30:13.992Z</time></trkpt><trkpt lat="37.9629176" lon="13.7866436"><ele>41.0</ele><time>2026-04-28T17:30:14.993Z</time></trkpt><trkpt lat="37.9628406" lon="13.7866258"><ele>40.0</ele><time>2026-04-28T17:30:15.993Z</time></trkpt><trkpt lat="37.9627705" lon="13.786584"><ele>39.0</ele><time>2026-04-28T17:30:17.992Z</time></trkpt><trkpt lat="37.9627675" lon="13.7864727"><ele>38.0</ele><time>2026-04-28T17:30:20.993Z</time></trkpt><trkpt lat="37.9627657" lon="13.7863134"><ele>38.0</ele><time>2026-04-28T17:30:22.993Z</time></trkpt><trkpt lat="37.9627501" lon="13.7862017"><ele>38.0</ele><time>2026-04-28T17:30:23.993Z</time></trkpt><trkpt lat="37.9627299" lon="13.7860745"><ele>38.0</ele><time>2026-04-28T17:30:24.992Z</time></trkpt><trkpt lat="37.9627127" lon="13.7859431"><ele>38.0</ele><time>2026-04-28T17:30:25.992Z</time></trkpt><trkpt lat="37.9626987" lon="13.7858202"><ele>38.0</ele><time>2026-04-28T17:30:26.993Z</time></trkpt><trkpt lat="37.9626821" lon="13.7857001"><ele>36.6</ele><time>2026-04-28T17:30:27.993Z</time></trkpt><trkpt lat="37.9626651" lon="13.7855814"><ele>35.199999999999996</ele><time>2026-04-28T17:30:28.993Z</time></trkpt><trkpt lat="37.9626512" lon="13.7854586"><ele>33.8</ele><time>2026-04-28T17:30:29.993Z</time></trkpt><trkpt lat="37.9626407" lon="13.7853317"><ele>32.4</ele><time>2026-04-28T17:30:30.993Z</time></trkpt><trkpt lat="37.9626351" lon="13.7852054"><ele>31.0</ele><time>2026-04-28T17:30:31.993Z</time></trkpt><trkpt lat="37.9626355" lon="13.7850826"><ele>30.333333333333336</ele><time>2026-04-28T17:30:32.993Z</time></trkpt><trkpt lat="37.9626424" lon="13.7849689"><ele>29.666666666666668</ele><time>2026-04-28T17:30:33.993Z</time></trkpt><trkpt lat="37.9626512" lon="13.7848581"><ele>29.0</ele><time>2026-04-28T17:30:34.993Z</time></trkpt><trkpt lat="37.9626634" lon="13.7847518"><ele>28.333333333333336</ele><time>2026-04-28T17:30:35.993Z</time></trkpt><trkpt lat="37.9626807" lon="13.7846468"><ele>27.666666666666668</ele><time>2026-04-28T17:30:36.993Z</time></trkpt><trkpt lat="37.962705" lon="13.7845501"><ele>27.0</ele><time>2026-04-28T17:30:37.993Z</time></trkpt><trkpt lat="37.9627364" lon="13.7844579"><ele>27.0</ele><time>2026-04-28T17:30:38.992Z</time></trkpt><trkpt lat="37.9627669" lon="13.7843644"><ele>27.0</ele><time>2026-04-28T17:30:39.993Z</time></trkpt><trkpt lat="37.9627973" lon="13.7842683"><ele>27.0</ele><time>2026-04-28T17:30:40.992Z</time></trkpt><trkpt lat="37.962824" lon="13.7841688"><ele>27.0</ele><time>2026-04-28T17:30:41.993Z</time></trkpt><trkpt lat="37.9628521" lon="13.784068"><ele>27.0</ele><time>2026-04-28T17:30:42.993Z</time></trkpt><trkpt lat="37.9628774" lon="13.7839642"><ele>27.0</ele><time>2026-04-28T17:30:43.993Z</time></trkpt><trkpt lat="37.9629039" lon="13.7838592"><ele>25.6</ele><time>2026-04-28T17:30:44.993Z</time></trkpt><trkpt lat="37.9629301" lon="13.783748"><ele>24.200000000000003</ele><time>2026-04-28T17:30:45.993Z</time></trkpt><trkpt lat="37.962959" lon="13.7836296"><ele>22.8</ele><time>2026-04-28T17:30:46.993Z</time></trkpt><trkpt lat="37.962989" lon="13.7835361"><ele>21.4</ele><time>2026-04-28T17:30:47.993Z</time></trkpt><trkpt lat="37.9630226" lon="13.7834362"><ele>20.0</ele><time>2026-04-28T17:30:49.993Z</time></trkpt><trkpt lat="37.9629508" lon="13.7835755"><ele>20.0</ele><time>2026-04-28T17:31:41.993Z</time></trkpt><trkpt lat="37.962921" lon="13.7836797"><ele>20.0</ele><time>2026-04-28T17:31:42.992Z</time></trkpt><trkpt lat="37.9628943" lon="13.7837722"><ele>20.0</ele><time>2026-04-28T17:31:43.993Z</time></trkpt><trkpt lat="37.9628611" lon="13.7838849"><ele>20.0</ele><time>2026-04-28T17:31:45.993Z</time></trkpt><trkpt lat="37.9628662" lon="13.7840024"><ele>20.0</ele><time>2026-04-28T17:32:05.992Z</time></trkpt><trkpt lat="37.9628465" lon="13.7840893"><ele>20.0</ele><time>2026-04-28T17:32:06.993Z</time></trkpt><trkpt lat="37.9628138" lon="13.7841895"><ele>20.0</ele><time>2026-04-28T17:32:07.993Z</time></trkpt><trkpt lat="37.9627823" lon="13.7842943"><ele>20.0</ele><time>2026-04-28T17:32:08.993Z</time></trkpt><trkpt lat="37.9627536" lon="13.7843988"><ele>20.0</ele><time>2026-04-28T17:32:09.992Z</time></trkpt><trkpt lat="37.9627234" lon="13.7845029"><ele>20.0</ele><time>2026-04-28T17:32:10.992Z</time></trkpt><trkpt lat="37.9626888" lon="13.7846112"><ele>20.0</ele><time>2026-04-28T17:32:11.992Z</time></trkpt><trkpt lat="37.9626548" lon="13.7847223"><ele>20.0</ele><time>2026-04-28T17:32:12.993Z</time></trkpt><trkpt lat="37.9626333" lon="13.7848394"><ele>21.4</ele><time>2026-04-28T17:32:13.993Z</time></trkpt><trkpt lat="37.9626256" lon="13.7849669"><ele>22.8</ele><time>2026-04-28T17:32:14.993Z</time></trkpt><trkpt lat="37.9626198" lon="13.7850876"><ele>24.200000000000003</ele><time>2026-04-28T17:32:15.993Z</time></trkpt><trkpt lat="37.9626199" lon="13.7852129"><ele>25.6</ele><time>2026-04-28T17:32:16.992Z</time></trkpt><trkpt lat="37.9626222" lon="13.7853426"><ele>27.0</ele><time>2026-04-28T17:32:17.993Z</time></trkpt><trkpt lat="37.9626273" lon="13.7854683"><ele>27.8</ele><time>2026-04-28T17:32:18.993Z</time></trkpt><trkpt lat="37.9626421" lon="13.7855864"><ele>28.6</ele><time>2026-04-28T17:32:19.993Z</time></trkpt><trkpt lat="37.9626595" lon="13.7857051"><ele>29.400000000000002</ele><time>2026-04-28T17:32:20.993Z</time></trkpt><trkpt lat="37.9626741" lon="13.7858174"><ele>30.200000000000003</ele><time>2026-04-28T17:32:21.993Z</time></trkpt><trkpt lat="37.962687" lon="13.7859285"><ele>31.0</ele><time>2026-04-28T17:32:22.993Z</time></trkpt><trkpt lat="37.9627026" lon="13.7860497"><ele>32.4</ele><time>2026-04-28T17:32:23.993Z</time></trkpt><trkpt lat="37.9627202" lon="13.7861777"><ele>33.8</ele><time>2026-04-28T17:32:24.993Z</time></trkpt><trkpt lat="37.9627323" lon="13.7863011"><ele>35.199999999999996</ele><time>2026-04-28T17:32:25.993Z</time></trkpt><trkpt lat="37.9627368" lon="13.7864061"><ele>36.6</ele><time>2026-04-28T17:32:26.993Z</time></trkpt><trkpt lat="37.9627211" lon="13.7865351"><ele>38.0</ele><time>2026-04-28T17:32:28.993Z</time></trkpt><trkpt lat="37.9626652" lon="13.7866401"><ele>38.0</ele><time>2026-04-28T17:32:31.993Z</time></trkpt><trkpt lat="37.9626007" lon="13.7866984"><ele>38.0</ele><time>2026-04-28T17:32:32.993Z</time></trkpt><trkpt lat="37.9625189" lon="13.7867822"><ele>38.0</ele><time>2026-04-28T17:32:33.993Z</time></trkpt><trkpt lat="37.9624324" lon="13.7868738"><ele>38.0</ele><time>2026-04-28T17:32:34.992Z</time></trkpt><trkpt lat="37.9623498" lon="13.7869805"><ele>38.0</ele><time>2026-04-28T17:32:35.992Z</time></trkpt><trkpt lat="37.9622663" lon="13.7870945"><ele>42.75</ele><time>2026-04-28T17:32:36.993Z</time></trkpt><trkpt lat="37.9621733" lon="13.7872081"><ele>47.5</ele><time>2026-04-28T17:32:37.993Z</time></trkpt><trkpt lat="37.9620626" lon="13.7873193"><ele>52.25</ele><time>2026-04-28T17:32:38.992Z</time></trkpt><trkpt lat="37.961935" lon="13.7874015"><ele>57.0</ele><time>2026-04-28T17:32:39.992Z</time></trkpt><trkpt lat="37.9617924" lon="13.7874602"><ele>55.0</ele><time>2026-04-28T17:32:40.993Z</time></trkpt><trkpt lat="37.9616414" lon="13.7875063"><ele>53.0</ele><time>2026-04-28T17:32:41.993Z</time></trkpt><trkpt lat="37.961488" lon="13.7875488"><ele>51.0</ele><time>2026-04-28T17:32:42.993Z</time></trkpt><trkpt lat="37.9613348" lon="13.7876012"><ele>51.0</ele><time>2026-04-28T17:32:43.993Z</time></trkpt><trkpt lat="37.9611803" lon="13.7876597"><ele>51.0</ele><time>2026-04-28T17:32:44.993Z</time></trkpt><trkpt lat="37.9610201" lon="13.7877354"><ele>51.0</ele><time>2026-04-28T17:32:45.993Z</time></trkpt><trkpt lat="37.9608597" lon="13.7878312"><ele>53.0</ele><time>2026-04-28T17:32:46.993Z</time></trkpt><trkpt lat="37.9607048" lon="13.787956"><ele>55.0</ele><time>2026-04-28T17:32:47.993Z</time></trkpt><trkpt lat="37.9605497" lon="13.7880964"><ele>57.0</ele><time>2026-04-28T17:32:48.993Z</time></trkpt><trkpt lat="37.9603965" lon="13.7882432"><ele>57.0</ele><time>2026-04-28T17:32:49.993Z</time></trkpt><trkpt lat="37.9602492" lon="13.7883993"><ele>57.0</ele><time>2026-04-28T17:32:50.993Z</time></trkpt><trkpt lat="37.9601014" lon="13.7885565"><ele>57.0</ele><time>2026-04-28T17:32:51.993Z</time></trkpt><trkpt lat="37.9599499" lon="13.7887174"><ele>56.33333333333333</ele><time>2026-04-28T17:32:52.993Z</time></trkpt><trkpt lat="37.959803" lon="13.7888718"><ele>55.666666666666664</ele><time>2026-04-28T17:32:53.993Z</time></trkpt><trkpt lat="37.9596619" lon="13.7890037"><ele>55.0</ele><time>2026-04-28T17:32:54.993Z</time></trkpt><trkpt lat="37.9595214" lon="13.7891128"><ele>55.0</ele><time>2026-04-28T17:32:55.993Z</time></trkpt><trkpt lat="37.9593759" lon="13.789209"><ele>55.0</ele><time>2026-04-28T17:32:56.993Z</time></trkpt><trkpt lat="37.9592164" lon="13.7892828"><ele>55.0</ele><time>2026-04-28T17:32:57.993Z</time></trkpt><trkpt lat="37.9590346" lon="13.78933"><ele>56.0</ele><time>2026-04-28T17:32:58.993Z</time></trkpt><trkpt lat="37.958842" lon="13.7893577"><ele>57.0</ele><time>2026-04-28T17:32:59.993Z</time></trkpt><trkpt lat="37.9586353" lon="13.7893634"><ele>58.0</ele><time>2026-04-28T17:33:00.992Z</time></trkpt><trkpt lat="37.9584327" lon="13.7893639"><ele>57.666666666666664</ele><time>2026-04-28T17:33:01.993Z</time></trkpt><trkpt lat="37.9582432" lon="13.7893701"><ele>57.33333333333333</ele><time>2026-04-28T17:33:02.993Z</time></trkpt><trkpt lat="37.9580663" lon="13.7893737"><ele>57.0</ele><time>2026-04-28T17:33:03.992Z</time></trkpt><trkpt lat="37.9579041" lon="13.7893499"><ele>53.333333333333336</ele><time>2026-04-28T17:33:04.992Z</time></trkpt><trkpt lat="37.9577597" lon="13.7892808"><ele>49.66666666666667</ele><time>2026-04-28T17:33:05.993Z</time></trkpt><trkpt lat="37.9576186" lon="13.7891598"><ele>46.0</ele><time>2026-04-28T17:33:06.993Z</time></trkpt><trkpt lat="37.9574703" lon="13.7889991"><ele>46.0</ele><time>2026-04-28T17:33:07.993Z</time></trkpt><trkpt lat="37.9573127" lon="13.7888325"><ele>46.0</ele><time>2026-04-28T17:33:08.993Z</time></trkpt><trkpt lat="37.9571556" lon="13.7886629"><ele>46.0</ele><time>2026-04-28T17:33:09.993Z</time></trkpt><trkpt lat="37.9570172" lon="13.7884943"><ele>43.0</ele><time>2026-04-28T17:33:10.993Z</time></trkpt><trkpt lat="37.9569008" lon="13.78832"><ele>40.0</ele><time>2026-04-28T17:33:11.992Z</time></trkpt><trkpt lat="37.9568046" lon="13.7881379"><ele>37.0</ele><time>2026-04-28T17:33:12.993Z</time></trkpt><trkpt lat="37.9567052" lon="13.7879594"><ele>36.333333333333336</ele><time>2026-04-28T17:33:13.993Z</time></trkpt><trkpt lat="37.9565845" lon="13.7877964"><ele>35.666666666666664</ele><time>2026-04-28T17:33:14.993Z</time></trkpt><trkpt lat="37.9564475" lon="13.7876563"><ele>35.0</ele><time>2026-04-28T17:33:15.992Z</time></trkpt><trkpt lat="37.9563034" lon="13.7875337"><ele>35.0</ele><time>2026-04-28T17:33:16.993Z</time></trkpt><trkpt lat="37.9561582" lon="13.7874107"><ele>35.0</ele><time>2026-04-28T17:33:17.993Z</time></trkpt><trkpt lat="37.9560253" lon="13.7872468"><ele>35.0</ele><time>2026-04-28T17:33:18.992Z</time></trkpt><trkpt lat="37.9559241" lon="13.7870399"><ele>34.0</ele><time>2026-04-28T17:33:19.992Z</time></trkpt><trkpt lat="37.9558578" lon="13.7868169"><ele>33.0</ele><time>2026-04-28T17:33:20.993Z</time></trkpt><trkpt lat="37.955801" lon="13.7865935"><ele>32.0</ele><time>2026-04-28T17:33:21.993Z</time></trkpt><trkpt lat="37.9557288" lon="13.7863658"><ele>32.0</ele><time>2026-04-28T17:33:22.993Z</time></trkpt><trkpt lat="37.9556371" lon="13.7861502"><ele>32.0</ele><time>2026-04-28T17:33:23.993Z</time></trkpt><trkpt lat="37.9555226" lon="13.7859648"><ele>32.0</ele><time>2026-04-28T17:33:24.992Z</time></trkpt><trkpt lat="37.9554056" lon="13.7858158"><ele>29.666666666666664</ele><time>2026-04-28T17:33:25.992Z</time></trkpt><trkpt lat="37.9552586" lon="13.7857261"><ele>27.333333333333336</ele><time>2026-04-28T17:33:26.993Z</time></trkpt><trkpt lat="37.9550969" lon="13.7856881"><ele>25.0</ele><time>2026-04-28T17:33:27.993Z</time></trkpt><trkpt lat="37.9549166" lon="13.7856736"><ele>25.0</ele><time>2026-04-28T17:33:28.993Z</time></trkpt><trkpt lat="37.9547048" lon="13.7856643"><ele>25.0</ele><time>2026-04-28T17:33:29.992Z</time></trkpt><trkpt lat="37.9544656" lon="13.7856412"><ele>25.0</ele><time>2026-04-28T17:33:30.992Z</time></trkpt><trkpt lat="37.9542204" lon="13.7855887"><ele>25.0</ele><time>2026-04-28T17:33:31.992Z</time></trkpt><trkpt lat="37.9539821" lon="13.7855153"><ele>23.5</ele><time>2026-04-28T17:33:32.992Z</time></trkpt><trkpt lat="37.9537528" lon="13.7854311"><ele>22.0</ele><time>2026-04-28T17:33:33.993Z</time></trkpt><trkpt lat="37.9535338" lon="13.7853523"><ele>23.0</ele><time>2026-04-28T17:33:34.993Z</time></trkpt><trkpt lat="37.9533188" lon="13.785279"><ele>24.0</ele><time>2026-04-28T17:33:35.993Z</time></trkpt><trkpt lat="37.953106" lon="13.7852064"><ele>25.0</ele><time>2026-04-28T17:33:36.993Z</time></trkpt><trkpt lat="37.952897" lon="13.7851313"><ele>25.0</ele><time>2026-04-28T17:33:37.992Z</time></trkpt><trkpt lat="37.9526912" lon="13.7850589"><ele>25.0</ele><time>2026-04-28T17:33:38.993Z</time></trkpt><trkpt lat="37.9524862" lon="13.7849888"><ele>25.0</ele><time>2026-04-28T17:33:39.993Z</time></trkpt><trkpt lat="37.9522879" lon="13.7849226"><ele>25.666666666666668</ele><time>2026-04-28T17:33:40.993Z</time></trkpt><trkpt lat="37.952099" lon="13.7848579"><ele>26.333333333333336</ele><time>2026-04-28T17:33:41.993Z</time></trkpt><trkpt lat="37.9519223" lon="13.7847982"><ele>27.0</ele><time>2026-04-28T17:33:42.993Z</time></trkpt><trkpt lat="37.951758" lon="13.7847401"><ele>27.0</ele><time>2026-04-28T17:33:43.993Z</time></trkpt><trkpt lat="37.9515972" lon="13.7846872"><ele>27.0</ele><time>2026-04-28T17:33:44.993Z</time></trkpt><trkpt lat="37.9514387" lon="13.7846328"><ele>27.0</ele><time>2026-04-28T17:33:45.993Z</time></trkpt><trkpt lat="37.9512837" lon="13.7845786"><ele>27.0</ele><time>2026-04-28T17:33:46.993Z</time></trkpt><trkpt lat="37.9511386" lon="13.7845322"><ele>27.0</ele><time>2026-04-28T17:33:47.993Z</time></trkpt><trkpt lat="37.9509983" lon="13.7844971"><ele>27.0</ele><time>2026-04-28T17:33:48.992Z</time></trkpt><trkpt lat="37.9508735" lon="13.7844723"><ele>27.0</ele><time>2026-04-28T17:33:49.992Z</time></trkpt><trkpt lat="37.9507554" lon="13.7844365"><ele>27.5</ele><time>2026-04-28T17:33:50.992Z</time></trkpt><trkpt lat="37.9506381" lon="13.784377"><ele>28.0</ele><time>2026-04-28T17:33:51.993Z</time></trkpt><trkpt lat="37.9505014" lon="13.7843132"><ele>28.5</ele><time>2026-04-28T17:33:52.993Z</time></trkpt><trkpt lat="37.9503384" lon="13.7842522"><ele>29.0</ele><time>2026-04-28T17:33:53.993Z</time></trkpt><trkpt lat="37.9501664" lon="13.7842037"><ele>28.333333333333332</ele><time>2026-04-28T17:33:54.992Z</time></trkpt><trkpt lat="37.9499903" lon="13.7841412"><ele>27.666666666666664</ele><time>2026-04-28T17:33:55.993Z</time></trkpt><trkpt lat="37.949808" lon="13.7840844"><ele>27.0</ele><time>2026-04-28T17:33:56.993Z</time></trkpt><trkpt lat="37.9496296" lon="13.7840306"><ele>27.0</ele><time>2026-04-28T17:33:57.993Z</time></trkpt><trkpt lat="37.9494696" lon="13.7839737"><ele>27.0</ele><time>2026-04-28T17:33:58.993Z</time></trkpt><trkpt lat="37.9493347" lon="13.7839057"><ele>27.0</ele><time>2026-04-28T17:33:59.993Z</time></trkpt><trkpt lat="37.9492348" lon="13.7837915"><ele>27.0</ele><time>2026-04-28T17:34:00.993Z</time></trkpt><trkpt lat="37.9491771" lon="13.7836477"><ele>26.666666666666664</ele><time>2026-04-28T17:34:01.992Z</time></trkpt><trkpt lat="37.9491494" lon="13.7834788"><ele>26.333333333333332</ele><time>2026-04-28T17:34:02.993Z</time></trkpt><trkpt lat="37.9491326" lon="13.7832875"><ele>26.0</ele><time>2026-04-28T17:34:03.992Z</time></trkpt><trkpt lat="37.9491079" lon="13.7830662"><ele>26.0</ele><time>2026-04-28T17:34:04.993Z</time></trkpt><trkpt lat="37.9490771" lon="13.7828309"><ele>26.0</ele><time>2026-04-28T17:34:05.993Z</time></trkpt><trkpt lat="37.9490487" lon="13.7825886"><ele>26.0</ele><time>2026-04-28T17:34:06.993Z</time></trkpt><trkpt lat="37.9490135" lon="13.7823389"><ele>26.0</ele><time>2026-04-28T17:34:07.993Z</time></trkpt><trkpt lat="37.9489791" lon="13.7820681"><ele>26.0</ele><time>2026-04-28T17:34:08.992Z</time></trkpt><trkpt lat="37.9489391" lon="13.7817959"><ele>26.0</ele><time>2026-04-28T17:34:09.993Z</time></trkpt><trkpt lat="37.9488963" lon="13.7815187"><ele>26.0</ele><time>2026-04-28T17:34:10.993Z</time></trkpt><trkpt lat="37.9488546" lon="13.7812369"><ele>26.0</ele><time>2026-04-28T17:34:11.993Z</time></trkpt><trkpt lat="37.9488172" lon="13.7809684"><ele>26.0</ele><time>2026-04-28T17:34:12.993Z</time></trkpt><trkpt lat="37.9487792" lon="13.7807149"><ele>26.333333333333332</ele><time>2026-04-28T17:34:13.992Z</time></trkpt><trkpt lat="37.9487461" lon="13.7804805"><ele>26.666666666666664</ele><time>2026-04-28T17:34:14.993Z</time></trkpt><trkpt lat="37.9487133" lon="13.7802533"><ele>27.0</ele><time>2026-04-28T17:34:15.993Z</time></trkpt><trkpt lat="37.9486801" lon="13.7800253"><ele>27.0</ele><time>2026-04-28T17:34:16.993Z</time></trkpt><trkpt lat="37.9486451" lon="13.7798019"><ele>27.0</ele><time>2026-04-28T17:34:17.993Z</time></trkpt><trkpt lat="37.9486148" lon="13.7795936"><ele>27.0</ele><time>2026-04-28T17:34:18.993Z</time></trkpt><trkpt lat="37.9485865" lon="13.7794019"><ele>27.75</ele><time>2026-04-28T17:34:19.993Z</time></trkpt><trkpt lat="37.9485773" lon="13.7792234"><ele>28.5</ele><time>2026-04-28T17:34:20.993Z</time></trkpt><trkpt lat="37.9485948" lon="13.7790514"><ele>29.25</ele><time>2026-04-28T17:34:21.993Z</time></trkpt><trkpt lat="37.9486611" lon="13.7789088"><ele>30.0</ele><time>2026-04-28T17:34:22.993Z</time></trkpt><trkpt lat="37.9487614" lon="13.7787796"><ele>30.0</ele><time>2026-04-28T17:34:23.993Z</time></trkpt><trkpt lat="37.9488713" lon="13.7786615"><ele>30.0</ele><time>2026-04-28T17:34:24.993Z</time></trkpt><trkpt lat="37.9489525" lon="13.7785456"><ele>30.0</ele><time>2026-04-28T17:34:25.993Z</time></trkpt><trkpt lat="37.9489703" lon="13.7784362"><ele>30.0</ele><time>2026-04-28T17:34:26.993Z</time></trkpt><trkpt lat="37.9489429" lon="13.7783509"><ele>30.0</ele><time>2026-04-28T17:34:27.993Z</time></trkpt><trkpt lat="37.9488902" lon="13.7782727"><ele>31.5</ele><time>2026-04-28T17:34:28.993Z</time></trkpt><trkpt lat="37.948802" lon="13.7781997"><ele>33.0</ele><time>2026-04-28T17:34:29.992Z</time></trkpt><trkpt lat="37.9486898" lon="13.7781336"><ele>34.5</ele><time>2026-04-28T17:34:30.993Z</time></trkpt><trkpt lat="37.9485578" lon="13.7780581"><ele>36.0</ele><time>2026-04-28T17:34:31.993Z</time></trkpt><trkpt lat="37.9484191" lon="13.7779799"><ele>36.333333333333336</ele><time>2026-04-28T17:34:32.993Z</time></trkpt><trkpt lat="37.948256" lon="13.7779014"><ele>36.66666666666667</ele><time>2026-04-28T17:34:33.993Z</time></trkpt><trkpt lat="37.9480842" lon="13.7778268"><ele>37.0</ele><time>2026-04-28T17:34:34.992Z</time></trkpt><trkpt lat="37.9479257" lon="13.7777582"><ele>38.5</ele><time>2026-04-28T17:34:35.993Z</time></trkpt><trkpt lat="37.9477851" lon="13.7776685"><ele>40.0</ele><time>2026-04-28T17:34:36.993Z</time></trkpt><trkpt lat="37.9476715" lon="13.7775495"><ele>41.5</ele><time>2026-04-28T17:34:37.992Z</time></trkpt><trkpt lat="37.9475941" lon="13.7774083"><ele>43.0</ele><time>2026-04-28T17:34:38.993Z</time></trkpt><trkpt lat="37.9475538" lon="13.7772549"><ele>43.0</ele><time>2026-04-28T17:34:39.993Z</time></trkpt><trkpt lat="37.9475611" lon="13.7770815"><ele>43.0</ele><time>2026-04-28T17:34:40.993Z</time></trkpt><trkpt lat="37.9476137" lon="13.7769147"><ele>43.0</ele><time>2026-04-28T17:34:41.993Z</time></trkpt><trkpt lat="37.9476978" lon="13.7767618"><ele>43.0</ele><time>2026-04-28T17:34:42.993Z</time></trkpt><trkpt lat="37.9478102" lon="13.7766286"><ele>47.0</ele><time>2026-04-28T17:34:43.993Z</time></trkpt><trkpt lat="37.9479425" lon="13.7764952"><ele>51.0</ele><time>2026-04-28T17:34:44.993Z</time></trkpt><trkpt lat="37.9480788" lon="13.7763548"><ele>55.0</ele><time>2026-04-28T17:34:45.993Z</time></trkpt><trkpt lat="37.9482177" lon="13.7762089"><ele>55.0</ele><time>2026-04-28T17:34:46.993Z</time></trkpt><trkpt lat="37.9483537" lon="13.7760666"><ele>55.0</ele><time>2026-04-28T17:34:47.993Z</time></trkpt><trkpt lat="37.948487" lon="13.7759264"><ele>55.0</ele><time>2026-04-28T17:34:48.993Z</time></trkpt><trkpt lat="37.9486106" lon="13.7757859"><ele>56.5</ele><time>2026-04-28T17:34:49.993Z</time></trkpt><trkpt lat="37.9487243" lon="13.7756647"><ele>58.0</ele><time>2026-04-28T17:34:50.993Z</time></trkpt><trkpt lat="37.9488246" lon="13.7755388"><ele>59.5</ele><time>2026-04-28T17:34:51.993Z</time></trkpt><trkpt lat="37.9489048" lon="13.7754032"><ele>61.0</ele><time>2026-04-28T17:34:52.992Z</time></trkpt><trkpt lat="37.9489506" lon="13.7752339"><ele>63.0</ele><time>2026-04-28T17:34:53.992Z</time></trkpt><trkpt lat="37.9489898" lon="13.7750628"><ele>65.0</ele><time>2026-04-28T17:34:54.993Z</time></trkpt><trkpt lat="37.9490558" lon="13.7749085"><ele>67.0</ele><time>2026-04-28T17:34:55.992Z</time></trkpt><trkpt lat="37.9491674" lon="13.7747807"><ele>69.0</ele><time>2026-04-28T17:34:56.992Z</time></trkpt><trkpt lat="37.949305" lon="13.7746737"><ele>69.33333333333333</ele><time>2026-04-28T17:34:57.993Z</time></trkpt><trkpt lat="37.9494679" lon="13.7745768"><ele>69.66666666666666</ele><time>2026-04-28T17:34:58.993Z</time></trkpt><trkpt lat="37.9496474" lon="13.774487"><ele>70.0</ele><time>2026-04-28T17:34:59.993Z</time></trkpt><trkpt lat="37.9498329" lon="13.7743836"><ele>72.33333333333333</ele><time>2026-04-28T17:35:00.992Z</time></trkpt><trkpt lat="37.9500182" lon="13.7742702"><ele>74.66666666666667</ele><time>2026-04-28T17:35:01.993Z</time></trkpt><trkpt lat="37.9502057" lon="13.7741555"><ele>77.0</ele><time>2026-04-28T17:35:02.993Z</time></trkpt><trkpt lat="37.9504028" lon="13.774047"><ele>78.33333333333334</ele><time>2026-04-28T17:35:03.993Z</time></trkpt><trkpt lat="37.9506015" lon="13.7739759"><ele>79.66666666666667</ele><time>2026-04-28T17:35:04.992Z</time></trkpt><trkpt lat="37.9507769" lon="13.7739526"><ele>81.0</ele><time>2026-04-28T17:35:05.993Z</time></trkpt><trkpt lat="37.9509334" lon="13.7739555"><ele>81.0</ele><time>2026-04-28T17:35:06.993Z</time></trkpt><trkpt lat="37.9510824" lon="13.7739354"><ele>81.0</ele><time>2026-04-28T17:35:07.993Z</time></trkpt><trkpt lat="37.951211" lon="13.7738623"><ele>81.0</ele><time>2026-04-28T17:35:08.993Z</time></trkpt><trkpt lat="37.9513438" lon="13.7737421"><ele>81.0</ele><time>2026-04-28T17:35:09.993Z</time></trkpt><trkpt lat="37.9514854" lon="13.773593"><ele>81.0</ele><time>2026-04-28T17:35:10.993Z</time></trkpt><trkpt lat="37.9516358" lon="13.7734367"><ele>81.0</ele><time>2026-04-28T17:35:11.993Z</time></trkpt><trkpt lat="37.9517962" lon="13.7732701"><ele>86.0</ele><time>2026-04-28T17:35:12.993Z</time></trkpt><trkpt lat="37.9519622" lon="13.7731092"><ele>91.0</ele><time>2026-04-28T17:35:13.993Z</time></trkpt><trkpt lat="37.9521355" lon="13.7729605"><ele>96.0</ele><time>2026-04-28T17:35:14.992Z</time></trkpt><trkpt lat="37.9523253" lon="13.7728534"><ele>96.0</ele><time>2026-04-28T17:35:15.993Z</time></trkpt><trkpt lat="37.9525171" lon="13.7728201"><ele>96.0</ele><time>2026-04-28T17:35:16.993Z</time></trkpt><trkpt lat="37.9526974" lon="13.7728431"><ele>96.0</ele><time>2026-04-28T17:35:17.993Z</time></trkpt><trkpt lat="37.9528704" lon="13.7728743"><ele>98.33333333333334</ele><time>2026-04-28T17:35:18.993Z</time></trkpt><trkpt lat="37.9530502" lon="13.7729083"><ele>100.66666666666667</ele><time>2026-04-28T17:35:19.993Z</time></trkpt><trkpt lat="37.9532353" lon="13.7729312"><ele>103.0</ele><time>2026-04-28T17:35:20.993Z</time></trkpt><trkpt lat="37.9534228" lon="13.7729518"><ele>103.66666666666667</ele><time>2026-04-28T17:35:21.993Z</time></trkpt><trkpt lat="37.9536169" lon="13.7729646"><ele>104.33333333333334</ele><time>2026-04-28T17:35:22.993Z</time></trkpt><trkpt lat="37.9538219" lon="13.7729708"><ele>105.0</ele><time>2026-04-28T17:35:23.993Z</time></trkpt><trkpt lat="37.9540248" lon="13.7729815"><ele>105.33333333333334</ele><time>2026-04-28T17:35:24.992Z</time></trkpt><trkpt lat="37.9542246" lon="13.7729886"><ele>105.66666666666667</ele><time>2026-04-28T17:35:25.992Z</time></trkpt><trkpt lat="37.9544136" lon="13.7729923"><ele>106.0</ele><time>2026-04-28T17:35:26.993Z</time></trkpt><trkpt lat="37.9545985" lon="13.7729897"><ele>106.0</ele><time>2026-04-28T17:35:27.993Z</time></trkpt><trkpt lat="37.954796" lon="13.7729601"><ele>106.0</ele><time>2026-04-28T17:35:28.993Z</time></trkpt><trkpt lat="37.9549849" lon="13.7728917"><ele>106.0</ele><time>2026-04-28T17:35:29.993Z</time></trkpt><trkpt lat="37.9551704" lon="13.7728037"><ele>106.0</ele><time>2026-04-28T17:35:30.993Z</time></trkpt><trkpt lat="37.9553364" lon="13.7727152"><ele>106.0</ele><time>2026-04-28T17:35:31.993Z</time></trkpt><trkpt lat="37.9554822" lon="13.7726333"><ele>106.0</ele><time>2026-04-28T17:35:32.992Z</time></trkpt><trkpt lat="37.9556016" lon="13.772541"><ele>106.0</ele><time>2026-04-28T17:35:33.993Z</time></trkpt><trkpt lat="37.9556867" lon="13.7724259"><ele>106.0</ele><time>2026-04-28T17:35:34.993Z</time></trkpt><trkpt lat="37.955742" lon="13.772265"><ele>106.0</ele><time>2026-04-28T17:35:35.993Z</time></trkpt><trkpt lat="37.9557899" lon="13.7720939"><ele>106.0</ele><time>2026-04-28T17:35:36.992Z</time></trkpt><trkpt lat="37.9558515" lon="13.7719142"><ele>109.0</ele><time>2026-04-28T17:35:37.993Z</time></trkpt><trkpt lat="37.9559472" lon="13.7717666"><ele>112.0</ele><time>2026-04-28T17:35:38.993Z</time></trkpt><trkpt lat="37.9560832" lon="13.7716568"><ele>115.0</ele><time>2026-04-28T17:35:39.993Z</time></trkpt><trkpt lat="37.9562535" lon="13.7715843"><ele>115.0</ele><time>2026-04-28T17:35:40.993Z</time></trkpt><trkpt lat="37.9564384" lon="13.7715575"><ele>115.0</ele><time>2026-04-28T17:35:41.993Z</time></trkpt><trkpt lat="37.956626" lon="13.7715438"><ele>115.0</ele><time>2026-04-28T17:35:42.993Z</time></trkpt><trkpt lat="37.956809" lon="13.7715066"><ele>114.0</ele><time>2026-04-28T17:35:43.992Z</time></trkpt><trkpt lat="37.9569846" lon="13.7714064"><ele>113.0</ele><time>2026-04-28T17:35:44.993Z</time></trkpt><trkpt lat="37.9571562" lon="13.7712863"><ele>112.0</ele><time>2026-04-28T17:35:45.993Z</time></trkpt><trkpt lat="37.9573139" lon="13.7711698"><ele>112.0</ele><time>2026-04-28T17:35:46.993Z</time></trkpt><trkpt lat="37.9574652" lon="13.7710467"><ele>112.0</ele><time>2026-04-28T17:35:47.992Z</time></trkpt><trkpt lat="37.9576217" lon="13.7708953"><ele>112.0</ele><time>2026-04-28T17:35:48.992Z</time></trkpt><trkpt lat="37.9577695" lon="13.7707171"><ele>113.0</ele><time>2026-04-28T17:35:49.993Z</time></trkpt><trkpt lat="37.9579" lon="13.7704994"><ele>114.0</ele><time>2026-04-28T17:35:50.993Z</time></trkpt><trkpt lat="37.9580261" lon="13.7702604"><ele>115.0</ele><time>2026-04-28T17:35:51.993Z</time></trkpt><trkpt lat="37.9581479" lon="13.770003"><ele>114.66666666666667</ele><time>2026-04-28T17:35:52.993Z</time></trkpt><trkpt lat="37.9582567" lon="13.7697593"><ele>114.33333333333334</ele><time>2026-04-28T17:35:53.992Z</time></trkpt><trkpt lat="37.9583593" lon="13.7695176"><ele>114.0</ele><time>2026-04-28T17:35:54.992Z</time></trkpt><trkpt lat="37.9584584" lon="13.7692798"><ele>114.0</ele><time>2026-04-28T17:35:55.992Z</time></trkpt><trkpt lat="37.958553" lon="13.7690402"><ele>114.0</ele><time>2026-04-28T17:35:56.993Z</time></trkpt><trkpt lat="37.9586498" lon="13.7687957"><ele>114.0</ele><time>2026-04-28T17:35:57.993Z</time></trkpt><trkpt lat="37.9587499" lon="13.7685506"><ele>113.0</ele><time>2026-04-28T17:35:58.993Z</time></trkpt><trkpt lat="37.9588513" lon="13.7682818"><ele>112.0</ele><time>2026-04-28T17:35:59.993Z</time></trkpt><trkpt lat="37.9589502" lon="13.7679984"><ele>112.0</ele><time>2026-04-28T17:36:00.993Z</time></trkpt><trkpt lat="37.9590439" lon="13.7677032"><ele>112.0</ele><time>2026-04-28T17:36:01.993Z</time></trkpt><trkpt lat="37.9591399" lon="13.7673935"><ele>106.5</ele><time>2026-04-28T17:36:02.993Z</time></trkpt><trkpt lat="37.9592371" lon="13.7670675"><ele>101.0</ele><time>2026-04-28T17:36:03.993Z</time></trkpt><trkpt lat="37.9593429" lon="13.7667317"><ele>101.0</ele><time>2026-04-28T17:36:04.993Z</time></trkpt><trkpt lat="37.959452" lon="13.7663879"><ele>101.0</ele><time>2026-04-28T17:36:05.993Z</time></trkpt><trkpt lat="37.9595608" lon="13.7660335"><ele>105.0</ele><time>2026-04-28T17:36:06.992Z</time></trkpt><trkpt lat="37.9596644" lon="13.765697"><ele>109.0</ele><time>2026-04-28T17:36:07.992Z</time></trkpt><trkpt lat="37.9597568" lon="13.7653873"><ele>111.0</ele><time>2026-04-28T17:36:08.993Z</time></trkpt><trkpt lat="37.9598462" lon="13.7650969"><ele>113.0</ele><time>2026-04-28T17:36:09.993Z</time></trkpt><trkpt lat="37.9599319" lon="13.76483"><ele>113.0</ele><time>2026-04-28T17:36:10.993Z</time></trkpt><trkpt lat="37.9600127" lon="13.7645807"><ele>113.0</ele><time>2026-04-28T17:36:11.992Z</time></trkpt><trkpt lat="37.9600896" lon="13.7643411"><ele>113.0</ele><time>2026-04-28T17:36:12.992Z</time></trkpt><trkpt lat="37.9601597" lon="13.764115"><ele>110.0</ele><time>2026-04-28T17:36:13.993Z</time></trkpt><trkpt lat="37.9602211" lon="13.7639043"><ele>107.0</ele><time>2026-04-28T17:36:14.993Z</time></trkpt><trkpt lat="37.9602649" lon="13.7636987"><ele>104.0</ele><time>2026-04-28T17:36:15.993Z</time></trkpt><trkpt lat="37.9602873" lon="13.7634909"><ele>104.0</ele><time>2026-04-28T17:36:16.992Z</time></trkpt><trkpt lat="37.960295" lon="13.7632705"><ele>104.0</ele><time>2026-04-28T17:36:17.993Z</time></trkpt><trkpt lat="37.9602956" lon="13.7630323"><ele>104.0</ele><time>2026-04-28T17:36:18.993Z</time></trkpt><trkpt lat="37.9603006" lon="13.7627869"><ele>104.0</ele><time>2026-04-28T17:36:19.993Z</time></trkpt><trkpt lat="37.9603062" lon="13.7625417"><ele>104.0</ele><time>2026-04-28T17:36:20.993Z</time></trkpt><trkpt lat="37.9603127" lon="13.7622994"><ele>104.0</ele><time>2026-04-28T17:36:21.993Z</time></trkpt><trkpt lat="37.9603193" lon="13.7620628"><ele>104.0</ele><time>2026-04-28T17:36:22.993Z</time></trkpt><trkpt lat="37.9603225" lon="13.7618333"><ele>104.0</ele><time>2026-04-28T17:36:23.992Z</time></trkpt><trkpt lat="37.9603274" lon="13.761624"><ele>104.0</ele><time>2026-04-28T17:36:24.993Z</time></trkpt><trkpt lat="37.9603196" lon="13.7614404"><ele>104.0</ele><time>2026-04-28T17:36:25.993Z</time></trkpt><trkpt lat="37.96029" lon="13.7612743"><ele>104.0</ele><time>2026-04-28T17:36:26.993Z</time></trkpt><trkpt lat="37.9602394" lon="13.7611205"><ele>104.0</ele><time>2026-04-28T17:36:27.992Z</time></trkpt><trkpt lat="37.9601643" lon="13.7609741"><ele>104.0</ele><time>2026-04-28T17:36:28.993Z</time></trkpt><trkpt lat="37.9600556" lon="13.7608284"><ele>108.33333333333333</ele><time>2026-04-28T17:36:29.993Z</time></trkpt><trkpt lat="37.9599432" lon="13.7606803"><ele>112.66666666666666</ele><time>2026-04-28T17:36:30.992Z</time></trkpt><trkpt lat="37.9598393" lon="13.7605393"><ele>117.0</ele><time>2026-04-28T17:36:31.993Z</time></trkpt><trkpt lat="37.9597605" lon="13.7603972"><ele>117.0</ele><time>2026-04-28T17:36:32.993Z</time></trkpt><trkpt lat="37.9597301" lon="13.7602531"><ele>117.0</ele><time>2026-04-28T17:36:33.992Z</time></trkpt><trkpt lat="37.9597369" lon="13.7600833"><ele>117.0</ele><time>2026-04-28T17:36:34.993Z</time></trkpt><trkpt lat="37.9597706" lon="13.7599239"><ele>117.0</ele><time>2026-04-28T17:36:35.993Z</time></trkpt><trkpt lat="37.9598519" lon="13.7597942"><ele>116.25</ele><time>2026-04-28T17:36:36.993Z</time></trkpt><trkpt lat="37.9599759" lon="13.7596912"><ele>115.5</ele><time>2026-04-28T17:36:37.993Z</time></trkpt><trkpt lat="37.9600986" lon="13.7596129"><ele>114.75</ele><time>2026-04-28T17:36:38.992Z</time></trkpt><trkpt lat="37.9602231" lon="13.7595506"><ele>114.0</ele><time>2026-04-28T17:36:39.992Z</time></trkpt><trkpt lat="37.9603365" lon="13.7594796"><ele>112.0</ele><time>2026-04-28T17:36:40.993Z</time></trkpt><trkpt lat="37.9604431" lon="13.7594037"><ele>110.0</ele><time>2026-04-28T17:36:41.993Z</time></trkpt><trkpt lat="37.9605447" lon="13.759295"><ele>108.0</ele><time>2026-04-28T17:36:42.993Z</time></trkpt><trkpt lat="37.9606317" lon="13.7591539"><ele>106.0</ele><time>2026-04-28T17:36:43.993Z</time></trkpt><trkpt lat="37.9607191" lon="13.7589744"><ele>106.0</ele><time>2026-04-28T17:36:44.993Z</time></trkpt><trkpt lat="37.9608133" lon="13.7587573"><ele>106.0</ele><time>2026-04-28T17:36:45.993Z</time></trkpt><trkpt lat="37.9609152" lon="13.7585354"><ele>106.0</ele><time>2026-04-28T17:36:46.993Z</time></trkpt><trkpt lat="37.9610102" lon="13.7583238"><ele>102.66666666666667</ele><time>2026-04-28T17:36:47.993Z</time></trkpt><trkpt lat="37.9610923" lon="13.7581261"><ele>99.33333333333334</ele><time>2026-04-28T17:36:48.993Z</time></trkpt><trkpt lat="37.9611477" lon="13.7579204"><ele>96.0</ele><time>2026-04-28T17:36:49.993Z</time></trkpt><trkpt lat="37.9611783" lon="13.7576961"><ele>96.0</ele><time>2026-04-28T17:36:50.993Z</time></trkpt><trkpt lat="37.9611896" lon="13.7574631"><ele>96.0</ele><time>2026-04-28T17:36:51.993Z</time></trkpt><trkpt lat="37.9611956" lon="13.7572152"><ele>96.0</ele><time>2026-04-28T17:36:52.993Z</time></trkpt><trkpt lat="37.9612013" lon="13.7569645"><ele>97.0</ele><time>2026-04-28T17:36:53.992Z</time></trkpt><trkpt lat="37.9612095" lon="13.7567169"><ele>98.0</ele><time>2026-04-28T17:36:54.993Z</time></trkpt><trkpt lat="37.9612184" lon="13.7564739"><ele>99.0</ele><time>2026-04-28T17:36:55.993Z</time></trkpt><trkpt lat="37.9612421" lon="13.7562343"><ele>101.0</ele><time>2026-04-28T17:36:56.992Z</time></trkpt><trkpt lat="37.961293" lon="13.7560077"><ele>103.0</ele><time>2026-04-28T17:36:57.993Z</time></trkpt><trkpt lat="37.961365" lon="13.7557837"><ele>105.0</ele><time>2026-04-28T17:36:58.993Z</time></trkpt><trkpt lat="37.9614414" lon="13.7555596"><ele>105.0</ele><time>2026-04-28T17:36:59.992Z</time></trkpt><trkpt lat="37.9615009" lon="13.7553243"><ele>105.0</ele><time>2026-04-28T17:37:00.993Z</time></trkpt><trkpt lat="37.961545" lon="13.755089"><ele>105.0</ele><time>2026-04-28T17:37:01.993Z</time></trkpt><trkpt lat="37.9615758" lon="13.7548544"><ele>104.33333333333334</ele><time>2026-04-28T17:37:02.993Z</time></trkpt><trkpt lat="37.9615993" lon="13.754634"><ele>103.66666666666667</ele><time>2026-04-28T17:37:03.992Z</time></trkpt><trkpt lat="37.9616146" lon="13.754422"><ele>103.0</ele><time>2026-04-28T17:37:04.993Z</time></trkpt><trkpt lat="37.9616048" lon="13.7542262"><ele>103.0</ele><time>2026-04-28T17:37:05.993Z</time></trkpt><trkpt lat="37.9615597" lon="13.7540479"><ele>103.0</ele><time>2026-04-28T17:37:06.992Z</time></trkpt><trkpt lat="37.9614877" lon="13.7538677"><ele>103.0</ele><time>2026-04-28T17:37:07.993Z</time></trkpt><trkpt lat="37.9614044" lon="13.7536894"><ele>101.66666666666667</ele><time>2026-04-28T17:37:08.993Z</time></trkpt><trkpt lat="37.9613413" lon="13.7535076"><ele>100.33333333333334</ele><time>2026-04-28T17:37:09.993Z</time></trkpt><trkpt lat="37.9613101" lon="13.7533219"><ele>99.0</ele><time>2026-04-28T17:37:10.993Z</time></trkpt><trkpt lat="37.9613427" lon="13.7531368"><ele>99.0</ele><time>2026-04-28T17:37:11.992Z</time></trkpt><trkpt lat="37.9614105" lon="13.7529407"><ele>99.0</ele><time>2026-04-28T17:37:12.993Z</time></trkpt><trkpt lat="37.9615115" lon="13.7527509"><ele>99.0</ele><time>2026-04-28T17:37:13.993Z</time></trkpt><trkpt lat="37.961647" lon="13.7525955"><ele>94.66666666666667</ele><time>2026-04-28T17:37:14.993Z</time></trkpt><trkpt lat="37.9617925" lon="13.7524728"><ele>90.33333333333334</ele><time>2026-04-28T17:37:15.993Z</time></trkpt><trkpt lat="37.9619252" lon="13.752349"><ele>86.0</ele><time>2026-04-28T17:37:16.993Z</time></trkpt><trkpt lat="37.9620203" lon="13.7521965"><ele>86.0</ele><time>2026-04-28T17:37:17.993Z</time></trkpt><trkpt lat="37.9620842" lon="13.7520041"><ele>86.0</ele><time>2026-04-28T17:37:18.993Z</time></trkpt><trkpt lat="37.9621214" lon="13.7517818"><ele>86.0</ele><time>2026-04-28T17:37:19.993Z</time></trkpt><trkpt lat="37.9621477" lon="13.751538"><ele>87.0</ele><time>2026-04-28T17:37:20.992Z</time></trkpt><trkpt lat="37.9621635" lon="13.7512966"><ele>88.0</ele><time>2026-04-28T17:37:21.993Z</time></trkpt><trkpt lat="37.9621774" lon="13.751044"><ele>89.0</ele><time>2026-04-28T17:37:22.992Z</time></trkpt><trkpt lat="37.9621834" lon="13.7507843"><ele>89.33333333333334</ele><time>2026-04-28T17:37:23.993Z</time></trkpt><trkpt lat="37.9621783" lon="13.7505258"><ele>89.66666666666667</ele><time>2026-04-28T17:37:24.992Z</time></trkpt><trkpt lat="37.962164" lon="13.7502668"><ele>90.0</ele><time>2026-04-28T17:37:25.993Z</time></trkpt><trkpt lat="37.9621407" lon="13.7500114"><ele>90.0</ele><time>2026-04-28T17:37:26.992Z</time></trkpt><trkpt lat="37.9621168" lon="13.7497576"><ele>90.0</ele><time>2026-04-28T17:37:27.993Z</time></trkpt><trkpt lat="37.9620964" lon="13.7494958"><ele>90.0</ele><time>2026-04-28T17:37:28.993Z</time></trkpt><trkpt lat="37.9620907" lon="13.7492208"><ele>90.0</ele><time>2026-04-28T17:37:29.993Z</time></trkpt><trkpt lat="37.9621" lon="13.7489573"><ele>90.0</ele><time>2026-04-28T17:37:30.993Z</time></trkpt><trkpt lat="37.9621155" lon="13.7487114"><ele>90.0</ele><time>2026-04-28T17:37:31.993Z</time></trkpt><trkpt lat="37.9621315" lon="13.7484672"><ele>90.0</ele><time>2026-04-28T17:37:32.993Z</time></trkpt><trkpt lat="37.9621508" lon="13.7482265"><ele>90.0</ele><time>2026-04-28T17:37:33.992Z</time></trkpt><trkpt lat="37.9621843" lon="13.7479836"><ele>90.0</ele><time>2026-04-28T17:37:34.993Z</time></trkpt><trkpt lat="37.9622371" lon="13.7477517"><ele>91.33333333333333</ele><time>2026-04-28T17:37:35.992Z</time></trkpt><trkpt lat="37.9623288" lon="13.7475309"><ele>92.66666666666666</ele><time>2026-04-28T17:37:36.992Z</time></trkpt><trkpt lat="37.9624485" lon="13.747313"><ele>94.0</ele><time>2026-04-28T17:37:37.993Z</time></trkpt><trkpt lat="37.9625749" lon="13.747093"><ele>90.66666666666666</ele><time>2026-04-28T17:37:38.993Z</time></trkpt><trkpt lat="37.962696" lon="13.7468786"><ele>87.33333333333333</ele><time>2026-04-28T17:37:39.993Z</time></trkpt><trkpt lat="37.9628115" lon="13.7466799"><ele>84.0</ele><time>2026-04-28T17:37:40.993Z</time></trkpt><trkpt lat="37.9629234" lon="13.7464864"><ele>84.0</ele><time>2026-04-28T17:37:41.992Z</time></trkpt><trkpt lat="37.9630335" lon="13.7462886"><ele>84.0</ele><time>2026-04-28T17:37:42.992Z</time></trkpt><trkpt lat="37.9631349" lon="13.74608"><ele>84.0</ele><time>2026-04-28T17:37:43.992Z</time></trkpt><trkpt lat="37.9632232" lon="13.7458543"><ele>87.0</ele><time>2026-04-28T17:37:44.993Z</time></trkpt><trkpt lat="37.9632917" lon="13.7456305"><ele>90.0</ele><time>2026-04-28T17:37:45.993Z</time></trkpt><trkpt lat="37.9633383" lon="13.7453886"><ele>93.0</ele><time>2026-04-28T17:37:46.993Z</time></trkpt><trkpt lat="37.9633486" lon="13.7451295"><ele>94.66666666666666</ele><time>2026-04-28T17:37:47.993Z</time></trkpt><trkpt lat="37.9633276" lon="13.7448724"><ele>96.33333333333333</ele><time>2026-04-28T17:37:48.993Z</time></trkpt><trkpt lat="37.9632771" lon="13.7446359"><ele>98.0</ele><time>2026-04-28T17:37:49.993Z</time></trkpt><trkpt lat="37.9632144" lon="13.7444209"><ele>98.66666666666666</ele><time>2026-04-28T17:37:50.993Z</time></trkpt><trkpt lat="37.9631776" lon="13.744215"><ele>99.33333333333334</ele><time>2026-04-28T17:37:51.993Z</time></trkpt><trkpt lat="37.9631852" lon="13.7439907"><ele>100.0</ele><time>2026-04-28T17:37:52.993Z</time></trkpt><trkpt lat="37.9632093" lon="13.7437495"><ele>102.33333333333334</ele><time>2026-04-28T17:37:53.992Z</time></trkpt><trkpt lat="37.9632288" lon="13.7434964"><ele>104.66666666666666</ele><time>2026-04-28T17:37:54.993Z</time></trkpt><trkpt lat="37.963248" lon="13.7432325"><ele>107.0</ele><time>2026-04-28T17:37:55.993Z</time></trkpt><trkpt lat="37.9632666" lon="13.742961"><ele>110.0</ele><time>2026-04-28T17:37:56.993Z</time></trkpt><trkpt lat="37.9632992" lon="13.7426911"><ele>113.0</ele><time>2026-04-28T17:37:57.993Z</time></trkpt><trkpt lat="37.9633533" lon="13.7424245"><ele>116.0</ele><time>2026-04-28T17:37:58.993Z</time></trkpt><trkpt lat="37.9634312" lon="13.7421699"><ele>112.0</ele><time>2026-04-28T17:37:59.993Z</time></trkpt><trkpt lat="37.9635403" lon="13.7419333"><ele>108.0</ele><time>2026-04-28T17:38:00.993Z</time></trkpt><trkpt lat="37.9636755" lon="13.7417286"><ele>104.0</ele><time>2026-04-28T17:38:01.993Z</time></trkpt><trkpt lat="37.9638411" lon="13.7415496"><ele>104.0</ele><time>2026-04-28T17:38:02.993Z</time></trkpt><trkpt lat="37.9640198" lon="13.7413954"><ele>104.0</ele><time>2026-04-28T17:38:03.993Z</time></trkpt><trkpt lat="37.9642139" lon="13.7412502"><ele>104.0</ele><time>2026-04-28T17:38:04.992Z</time></trkpt><trkpt lat="37.9644189" lon="13.741103"><ele>100.0</ele><time>2026-04-28T17:38:05.993Z</time></trkpt><trkpt lat="37.9646324" lon="13.7409512"><ele>96.0</ele><time>2026-04-28T17:38:06.993Z</time></trkpt><trkpt lat="37.9648479" lon="13.7407956"><ele>92.0</ele><time>2026-04-28T17:38:07.992Z</time></trkpt><trkpt lat="37.9650669" lon="13.7406384"><ele>88.0</ele><time>2026-04-28T17:38:08.993Z</time></trkpt><trkpt lat="37.9652885" lon="13.7404821"><ele>88.0</ele><time>2026-04-28T17:38:09.992Z</time></trkpt><trkpt lat="37.9655112" lon="13.7403259"><ele>88.0</ele><time>2026-04-28T17:38:10.993Z</time></trkpt><trkpt lat="37.965733" lon="13.7401742"><ele>88.0</ele><time>2026-04-28T17:38:11.992Z</time></trkpt><trkpt lat="37.9659504" lon="13.7400287"><ele>88.0</ele><time>2026-04-28T17:38:12.993Z</time></trkpt><trkpt lat="37.9661571" lon="13.7398876"><ele>88.0</ele><time>2026-04-28T17:38:13.993Z</time></trkpt><trkpt lat="37.9663539" lon="13.7397577"><ele>88.0</ele><time>2026-04-28T17:38:14.993Z</time></trkpt><trkpt lat="37.966539" lon="13.7396266"><ele>88.0</ele><time>2026-04-28T17:38:15.993Z</time></trkpt><trkpt lat="37.966713" lon="13.7394938"><ele>85.0</ele><time>2026-04-28T17:38:16.993Z</time></trkpt><trkpt lat="37.9668752" lon="13.7393457"><ele>82.0</ele><time>2026-04-28T17:38:17.993Z</time></trkpt><trkpt lat="37.9670227" lon="13.7391617"><ele>79.0</ele><time>2026-04-28T17:38:18.993Z</time></trkpt><trkpt lat="37.9671582" lon="13.7389465"><ele>79.0</ele><time>2026-04-28T17:38:19.993Z</time></trkpt><trkpt lat="37.9672732" lon="13.7387175"><ele>79.0</ele><time>2026-04-28T17:38:20.993Z</time></trkpt><trkpt lat="37.9673645" lon="13.7384815"><ele>79.0</ele><time>2026-04-28T17:38:21.993Z</time></trkpt><trkpt lat="37.9674547" lon="13.7382597"><ele>80.33333333333333</ele><time>2026-04-28T17:38:22.993Z</time></trkpt><trkpt lat="37.9675672" lon="13.7380438"><ele>81.66666666666667</ele><time>2026-04-28T17:38:23.992Z</time></trkpt><trkpt lat="37.967717" lon="13.7378385"><ele>83.0</ele><time>2026-04-28T17:38:24.993Z</time></trkpt><trkpt lat="37.9678843" lon="13.7376461"><ele>83.0</ele><time>2026-04-28T17:38:25.993Z</time></trkpt><trkpt lat="37.9680571" lon="13.7374647"><ele>83.0</ele><time>2026-04-28T17:38:26.993Z</time></trkpt><trkpt lat="37.9682255" lon="13.7372905"><ele>83.0</ele><time>2026-04-28T17:38:27.993Z</time></trkpt><trkpt lat="37.9683911" lon="13.737119"><ele>83.0</ele><time>2026-04-28T17:38:28.992Z</time></trkpt><trkpt lat="37.9685469" lon="13.7369613"><ele>83.0</ele><time>2026-04-28T17:38:29.993Z</time></trkpt><trkpt lat="37.9686961" lon="13.7368061"><ele>83.0</ele><time>2026-04-28T17:38:30.993Z</time></trkpt><trkpt lat="37.9688339" lon="13.7366393"><ele>83.0</ele><time>2026-04-28T17:38:31.993Z</time></trkpt><trkpt lat="37.9689628" lon="13.7364284"><ele>83.0</ele><time>2026-04-28T17:38:32.993Z</time></trkpt><trkpt lat="37.969088" lon="13.7361893"><ele>83.0</ele><time>2026-04-28T17:38:33.993Z</time></trkpt><trkpt lat="37.9691996" lon="13.7359315"><ele>82.5</ele><time>2026-04-28T17:38:34.993Z</time></trkpt><trkpt lat="37.969303" lon="13.735656"><ele>82.0</ele><time>2026-04-28T17:38:35.992Z</time></trkpt><trkpt lat="37.9694019" lon="13.7353741"><ele>81.0</ele><time>2026-04-28T17:38:36.992Z</time></trkpt><trkpt lat="37.9694948" lon="13.7350838"><ele>80.0</ele><time>2026-04-28T17:38:37.992Z</time></trkpt><trkpt lat="37.9695791" lon="13.7348083"><ele>80.0</ele><time>2026-04-28T17:38:38.993Z</time></trkpt><trkpt lat="37.969653" lon="13.7345407"><ele>80.0</ele><time>2026-04-28T17:38:39.992Z</time></trkpt><trkpt lat="37.9697145" lon="13.7342655"><ele>80.0</ele><time>2026-04-28T17:38:40.992Z</time></trkpt><trkpt lat="37.9697643" lon="13.7339649"><ele>80.0</ele><time>2026-04-28T17:38:41.993Z</time></trkpt><trkpt lat="37.9698103" lon="13.7336561"><ele>80.0</ele><time>2026-04-28T17:38:42.993Z</time></trkpt><trkpt lat="37.9698521" lon="13.7333493"><ele>80.0</ele><time>2026-04-28T17:38:43.993Z</time></trkpt><trkpt lat="37.9698982" lon="13.7330465"><ele>80.0</ele><time>2026-04-28T17:38:44.993Z</time></trkpt><trkpt lat="37.9699452" lon="13.732745"><ele>80.0</ele><time>2026-04-28T17:38:45.993Z</time></trkpt><trkpt lat="37.9700009" lon="13.7324607"><ele>80.0</ele><time>2026-04-28T17:38:46.993Z</time></trkpt><trkpt lat="37.9700589" lon="13.7322023"><ele>80.0</ele><time>2026-04-28T17:38:47.993Z</time></trkpt><trkpt lat="37.9701038" lon="13.7319581"><ele>78.66666666666667</ele><time>2026-04-28T17:38:48.993Z</time></trkpt><trkpt lat="37.9701296" lon="13.7317288"><ele>77.33333333333333</ele><time>2026-04-28T17:38:49.993Z</time></trkpt><trkpt lat="37.9701458" lon="13.7315116"><ele>76.0</ele><time>2026-04-28T17:38:50.992Z</time></trkpt><trkpt lat="37.9701611" lon="13.7313075"><ele>76.0</ele><time>2026-04-28T17:38:51.993Z</time></trkpt><trkpt lat="37.97017" lon="13.7311217"><ele>76.0</ele><time>2026-04-28T17:38:52.993Z</time></trkpt><trkpt lat="37.9701775" lon="13.7309578"><ele>76.0</ele><time>2026-04-28T17:38:53.992Z</time></trkpt><trkpt lat="37.9701892" lon="13.7308077"><ele>76.0</ele><time>2026-04-28T17:38:54.993Z</time></trkpt><trkpt lat="37.9701981" lon="13.7306704"><ele>76.16666666666666</ele><time>2026-04-28T17:38:55.993Z</time></trkpt><trkpt lat="37.9702089" lon="13.7305507"><ele>76.33333333333333</ele><time>2026-04-28T17:38:56.993Z</time></trkpt><trkpt lat="37.9702218" lon="13.7304705"><ele>76.5</ele><time>2026-04-28T17:38:57.993Z</time></trkpt><trkpt lat="37.9702291" lon="13.7303826"><ele>76.66666666666667</ele><time>2026-04-28T17:38:59.993Z</time></trkpt><trkpt lat="37.970239" lon="13.7302549"><ele>76.83333333333334</ele><time>2026-04-28T17:39:09.993Z</time></trkpt><trkpt lat="37.9702537" lon="13.7301309"><ele>77.0</ele><time>2026-04-28T17:39:10.993Z</time></trkpt><trkpt lat="37.9702754" lon="13.7300271"><ele>77.0</ele><time>2026-04-28T17:39:11.993Z</time></trkpt><trkpt lat="37.9702956" lon="13.72992"><ele>77.0</ele><time>2026-04-28T17:39:12.993Z</time></trkpt><trkpt lat="37.9703134" lon="13.729809"><ele>77.0</ele><time>2026-04-28T17:39:13.993Z</time></trkpt><trkpt lat="37.9703343" lon="13.7296995"><ele>77.0</ele><time>2026-04-28T17:39:14.993Z</time></trkpt><trkpt lat="37.9703551" lon="13.7295815"><ele>77.0</ele><time>2026-04-28T17:39:15.993Z</time></trkpt><trkpt lat="37.9703785" lon="13.7294697"><ele>76.4</ele><time>2026-04-28T17:39:16.993Z</time></trkpt><trkpt lat="37.9704033" lon="13.7293582"><ele>75.80000000000001</ele><time>2026-04-28T17:39:17.993Z</time></trkpt><trkpt lat="37.9704383" lon="13.7292417"><ele>75.2</ele><time>2026-04-28T17:39:18.993Z</time></trkpt><trkpt lat="37.9704764" lon="13.7291211"><ele>74.60000000000001</ele><time>2026-04-28T17:39:19.993Z</time></trkpt><trkpt lat="37.9705108" lon="13.7290002"><ele>74.0</ele><time>2026-04-28T17:39:20.993Z</time></trkpt><trkpt lat="37.9705378" lon="13.7288661"><ele>74.0</ele><time>2026-04-28T17:39:21.993Z</time></trkpt><trkpt lat="37.9705712" lon="13.7287227"><ele>74.0</ele><time>2026-04-28T17:39:22.992Z</time></trkpt><trkpt lat="37.9706062" lon="13.7285697"><ele>74.0</ele><time>2026-04-28T17:39:23.992Z</time></trkpt><trkpt lat="37.9706431" lon="13.7284115"><ele>74.0</ele><time>2026-04-28T17:39:24.993Z</time></trkpt><trkpt lat="37.97069" lon="13.7282414"><ele>73.66666666666667</ele><time>2026-04-28T17:39:25.992Z</time></trkpt><trkpt lat="37.970753" lon="13.7280701"><ele>73.33333333333333</ele><time>2026-04-28T17:39:26.992Z</time></trkpt><trkpt lat="37.9708346" lon="13.7279061"><ele>73.0</ele><time>2026-04-28T17:39:27.993Z</time></trkpt><trkpt lat="37.9709165" lon="13.7277476"><ele>71.25</ele><time>2026-04-28T17:39:28.993Z</time></trkpt><trkpt lat="37.9709865" lon="13.7275927"><ele>69.5</ele><time>2026-04-28T17:39:29.992Z</time></trkpt><trkpt lat="37.9710262" lon="13.7274382"><ele>67.75</ele><time>2026-04-28T17:39:30.993Z</time></trkpt><trkpt lat="37.9710316" lon="13.7272717"><ele>66.0</ele><time>2026-04-28T17:39:31.993Z</time></trkpt><trkpt lat="37.9710012" lon="13.7270756"><ele>64.33333333333333</ele><time>2026-04-28T17:39:32.993Z</time></trkpt><trkpt lat="37.9709461" lon="13.7268697"><ele>62.666666666666664</ele><time>2026-04-28T17:39:33.992Z</time></trkpt><trkpt lat="37.9708626" lon="13.7266571"><ele>61.0</ele><time>2026-04-28T17:39:34.993Z</time></trkpt><trkpt lat="37.9707679" lon="13.7264478"><ele>62.0</ele><time>2026-04-28T17:39:35.993Z</time></trkpt><trkpt lat="37.9706528" lon="13.7262578"><ele>63.0</ele><time>2026-04-28T17:39:36.993Z</time></trkpt><trkpt lat="37.9705286" lon="13.7260844"><ele>64.0</ele><time>2026-04-28T17:39:37.992Z</time></trkpt><trkpt lat="37.9703933" lon="13.7259285"><ele>64.0</ele><time>2026-04-28T17:39:38.992Z</time></trkpt><trkpt lat="37.9702633" lon="13.7257848"><ele>64.0</ele><time>2026-04-28T17:39:39.993Z</time></trkpt><trkpt lat="37.9701451" lon="13.7256475"><ele>64.0</ele><time>2026-04-28T17:39:40.993Z</time></trkpt><trkpt lat="37.9700423" lon="13.7255159"><ele>64.8</ele><time>2026-04-28T17:39:41.993Z</time></trkpt><trkpt lat="37.9699497" lon="13.7253944"><ele>65.60000000000001</ele><time>2026-04-28T17:39:42.992Z</time></trkpt><trkpt lat="37.9698686" lon="13.7252834"><ele>66.4</ele><time>2026-04-28T17:39:43.993Z</time></trkpt><trkpt lat="37.9698058" lon="13.7251924"><ele>67.2</ele><time>2026-04-28T17:39:44.993Z</time></trkpt><trkpt lat="37.9697575" lon="13.7251336"><ele>68.0</ele><time>2026-04-28T17:39:45.992Z</time></trkpt><trkpt lat="37.9697061" lon="13.7250692"><ele>68.0</ele><time>2026-04-28T17:39:48.993Z</time></trkpt><trkpt lat="37.9696162" lon="13.7249889"><ele>68.0</ele><time>2026-04-28T17:41:12.993Z</time></trkpt><trkpt lat="37.9695628" lon="13.7249235"><ele>68.0</ele><time>2026-04-28T17:41:13.993Z</time></trkpt><trkpt lat="37.9695125" lon="13.7248572"><ele>68.0</ele><time>2026-04-28T17:41:14.993Z</time></trkpt><trkpt lat="37.9694572" lon="13.7247746"><ele>68.0</ele><time>2026-04-28T17:41:15.993Z</time></trkpt><trkpt lat="37.969402" lon="13.7246749"><ele>68.0</ele><time>2026-04-28T17:41:16.993Z</time></trkpt><trkpt lat="37.9693473" lon="13.7245559"><ele>68.0</ele><time>2026-04-28T17:41:17.993Z</time></trkpt><trkpt lat="37.9693001" lon="13.7244314"><ele>68.0</ele><time>2026-04-28T17:41:18.992Z</time></trkpt><trkpt lat="37.9692562" lon="13.7243045"><ele>68.0</ele><time>2026-04-28T17:41:19.993Z</time></trkpt><trkpt lat="37.9692103" lon="13.724162"><ele>68.0</ele><time>2026-04-28T17:41:20.993Z</time></trkpt><trkpt lat="37.9691619" lon="13.7240049"><ele>68.75</ele><time>2026-04-28T17:41:21.992Z</time></trkpt><trkpt lat="37.9691134" lon="13.7238359"><ele>69.5</ele><time>2026-04-28T17:41:22.993Z</time></trkpt><trkpt lat="37.9690742" lon="13.7236593"><ele>70.25</ele><time>2026-04-28T17:41:23.993Z</time></trkpt><trkpt lat="37.9690668" lon="13.7234819"><ele>71.0</ele><time>2026-04-28T17:41:24.993Z</time></trkpt><trkpt lat="37.9691004" lon="13.7233133"><ele>71.0</ele><time>2026-04-28T17:41:25.993Z</time></trkpt><trkpt lat="37.9691692" lon="13.7231703"><ele>71.0</ele><time>2026-04-28T17:41:26.993Z</time></trkpt><trkpt lat="37.9692657" lon="13.723092"><ele>71.0</ele><time>2026-04-28T17:41:27.993Z</time></trkpt><trkpt lat="37.9693774" lon="13.7230532"><ele>71.0</ele><time>2026-04-28T17:41:28.992Z</time></trkpt><trkpt lat="37.9695091" lon="13.7230452"><ele>69.66666666666667</ele><time>2026-04-28T17:41:29.993Z</time></trkpt><trkpt lat="37.9696672" lon="13.7230618"><ele>68.33333333333333</ele><time>2026-04-28T17:41:30.993Z</time></trkpt><trkpt lat="37.9698328" lon="13.7230906"><ele>67.0</ele><time>2026-04-28T17:41:31.993Z</time></trkpt><trkpt lat="37.970003" lon="13.7231433"><ele>67.66666666666666</ele><time>2026-04-28T17:41:32.993Z</time></trkpt><trkpt lat="37.9701768" lon="13.7232065"><ele>68.33333333333333</ele><time>2026-04-28T17:41:33.992Z</time></trkpt><trkpt lat="37.9703691" lon="13.7232726"><ele>69.0</ele><time>2026-04-28T17:41:34.993Z</time></trkpt><trkpt lat="37.9705618" lon="13.7233467"><ele>69.0</ele><time>2026-04-28T17:41:35.993Z</time></trkpt><trkpt lat="37.9707616" lon="13.7234257"><ele>69.0</ele><time>2026-04-28T17:41:36.993Z</time></trkpt><trkpt lat="37.9709689" lon="13.7235014"><ele>69.0</ele><time>2026-04-28T17:41:37.993Z</time></trkpt><trkpt lat="37.9711805" lon="13.7235778"><ele>64.33333333333333</ele><time>2026-04-28T17:41:38.993Z</time></trkpt><trkpt lat="37.9713958" lon="13.7236561"><ele>59.666666666666664</ele><time>2026-04-28T17:41:39.993Z</time></trkpt><trkpt lat="37.9716113" lon="13.7237362"><ele>55.0</ele><time>2026-04-28T17:41:40.993Z</time></trkpt><trkpt lat="37.9718293" lon="13.7238047"><ele>52.5</ele><time>2026-04-28T17:41:41.993Z</time></trkpt><trkpt lat="37.9720501" lon="13.7238709"><ele>50.0</ele><time>2026-04-28T17:41:42.993Z</time></trkpt><trkpt lat="37.9722699" lon="13.7239255"><ele>50.0</ele><time>2026-04-28T17:41:43.992Z</time></trkpt><trkpt lat="37.9724913" lon="13.7239762"><ele>50.0</ele><time>2026-04-28T17:41:44.993Z</time></trkpt><trkpt lat="37.972713" lon="13.7240219"><ele>47.66666666666667</ele><time>2026-04-28T17:41:45.992Z</time></trkpt><trkpt lat="37.9729319" lon="13.7240542"><ele>45.333333333333336</ele><time>2026-04-28T17:41:46.991Z</time></trkpt><trkpt lat="37.9731448" lon="13.7240604"><ele>43.0</ele><time>2026-04-28T17:41:47.992Z</time></trkpt><trkpt lat="37.973339" lon="13.7240431"><ele>40.75</ele><time>2026-04-28T17:41:48.992Z</time></trkpt><trkpt lat="37.973501" lon="13.7240077"><ele>38.5</ele><time>2026-04-28T17:41:49.992Z</time></trkpt><trkpt lat="37.9736271" lon="13.723957"><ele>36.25</ele><time>2026-04-28T17:41:50.992Z</time></trkpt><trkpt lat="37.9737219" lon="13.7238802"><ele>34.0</ele><time>2026-04-28T17:41:51.991Z</time></trkpt><trkpt lat="37.9737959" lon="13.7237471"><ele>34.0</ele><time>2026-04-28T17:41:52.992Z</time></trkpt><trkpt lat="37.97385" lon="13.7235561"><ele>34.0</ele><time>2026-04-28T17:41:53.992Z</time></trkpt><trkpt lat="37.9738946" lon="13.7233496"><ele>34.0</ele><time>2026-04-28T17:41:54.992Z</time></trkpt><trkpt lat="37.9739238" lon="13.7231234"><ele>34.0</ele><time>2026-04-28T17:41:55.992Z</time></trkpt><trkpt lat="37.9739494" lon="13.7228807"><ele>34.0</ele><time>2026-04-28T17:41:56.992Z</time></trkpt><trkpt lat="37.9739822" lon="13.7226119"><ele>34.0</ele><time>2026-04-28T17:41:57.992Z</time></trkpt><trkpt lat="37.9740332" lon="13.7223552"><ele>34.333333333333336</ele><time>2026-04-28T17:41:58.991Z</time></trkpt><trkpt lat="37.9741001" lon="13.7221064"><ele>34.666666666666664</ele><time>2026-04-28T17:41:59.992Z</time></trkpt><trkpt lat="37.9741839" lon="13.7218656"><ele>35.0</ele><time>2026-04-28T17:42:00.992Z</time></trkpt><trkpt lat="37.9742687" lon="13.721627"><ele>30.0</ele><time>2026-04-28T17:42:01.989Z</time></trkpt><trkpt lat="37.9743512" lon="13.721398"><ele>25.0</ele><time>2026-04-28T17:42:02.992Z</time></trkpt><trkpt lat="37.9744227" lon="13.7211721"><ele>20.0</ele><time>2026-04-28T17:42:03.992Z</time></trkpt><trkpt lat="37.9744759" lon="13.7209511"><ele>20.0</ele><time>2026-04-28T17:42:04.991Z</time></trkpt><trkpt lat="37.9745275" lon="13.7207257"><ele>20.0</ele><time>2026-04-28T17:42:05.992Z</time></trkpt><trkpt lat="37.9746081" lon="13.7205004"><ele>20.0</ele><time>2026-04-28T17:42:06.991Z</time></trkpt><trkpt lat="37.9747323" lon="13.7202863"><ele>22.0</ele><time>2026-04-28T17:42:07.992Z</time></trkpt><trkpt lat="37.9748656" lon="13.7200641"><ele>24.0</ele><time>2026-04-28T17:42:08.992Z</time></trkpt><trkpt lat="37.9750005" lon="13.7198296"><ele>26.0</ele><time>2026-04-28T17:42:09.992Z</time></trkpt><trkpt lat="37.9751261" lon="13.7195836"><ele>19.5</ele><time>2026-04-28T17:42:10.991Z</time></trkpt><trkpt lat="37.9752483" lon="13.7193301"><ele>13.0</ele><time>2026-04-28T17:42:11.992Z</time></trkpt><trkpt lat="37.9753687" lon="13.7190662"><ele>13.0</ele><time>2026-04-28T17:42:12.992Z</time></trkpt><trkpt lat="37.9754868" lon="13.7187941"><ele>13.0</ele><time>2026-04-28T17:42:13.992Z</time></trkpt><trkpt lat="37.9755968" lon="13.7185194"><ele>15.5</ele><time>2026-04-28T17:42:14.992Z</time></trkpt><trkpt lat="37.9757072" lon="13.7182527"><ele>18.0</ele><time>2026-04-28T17:42:15.992Z</time></trkpt><trkpt lat="37.9758085" lon="13.7179987"><ele>14.0</ele><time>2026-04-28T17:42:16.992Z</time></trkpt><trkpt lat="37.9759087" lon="13.7177538"><ele>10.0</ele><time>2026-04-28T17:42:17.992Z</time></trkpt><trkpt lat="37.9760097" lon="13.717514"><ele>6.0</ele><time>2026-04-28T17:42:18.992Z</time></trkpt><trkpt lat="37.9761017" lon="13.7172729"><ele>6.0</ele><time>2026-04-28T17:42:19.992Z</time></trkpt><trkpt lat="37.9761824" lon="13.7170228"><ele>6.0</ele><time>2026-04-28T17:42:20.992Z</time></trkpt><trkpt lat="37.9762473" lon="13.7167668"><ele>6.0</ele><time>2026-04-28T17:42:21.992Z</time></trkpt><trkpt lat="37.9762945" lon="13.7165008"><ele>6.0</ele><time>2026-04-28T17:42:22.991Z</time></trkpt><trkpt lat="37.9763409" lon="13.7162284"><ele>6.0</ele><time>2026-04-28T17:42:23.991Z</time></trkpt><trkpt lat="37.9763717" lon="13.71595"><ele>6.0</ele><time>2026-04-28T17:42:24.991Z</time></trkpt><trkpt lat="37.9763954" lon="13.7156665"><ele>6.666666666666666</ele><time>2026-04-28T17:42:25.991Z</time></trkpt><trkpt lat="37.976412" lon="13.715383"><ele>7.333333333333333</ele><time>2026-04-28T17:42:26.992Z</time></trkpt><trkpt lat="37.9764296" lon="13.7151051"><ele>8.0</ele><time>2026-04-28T17:42:27.991Z</time></trkpt><trkpt lat="37.9764486" lon="13.7148338"><ele>8.0</ele><time>2026-04-28T17:42:28.992Z</time></trkpt><trkpt lat="37.9764665" lon="13.7145824"><ele>8.0</ele><time>2026-04-28T17:42:29.992Z</time></trkpt><trkpt lat="37.9764782" lon="13.7143484"><ele>8.0</ele><time>2026-04-28T17:42:30.992Z</time></trkpt><trkpt lat="37.9764929" lon="13.7141303"><ele>8.0</ele><time>2026-04-28T17:42:31.991Z</time></trkpt><trkpt lat="37.9765036" lon="13.71392"><ele>8.0</ele><time>2026-04-28T17:42:32.992Z</time></trkpt><trkpt lat="37.9765142" lon="13.7137112"><ele>8.0</ele><time>2026-04-28T17:42:33.992Z</time></trkpt><trkpt lat="37.9765301" lon="13.7134971"><ele>8.333333333333332</ele><time>2026-04-28T17:42:34.991Z</time></trkpt><trkpt lat="37.9765763" lon="13.7132126"><ele>8.666666666666666</ele><time>2026-04-28T17:42:35.992Z</time></trkpt><trkpt lat="37.9765863" lon="13.7129869"><ele>9.0</ele><time>2026-04-28T17:42:36.992Z</time></trkpt><trkpt lat="37.9766107" lon="13.7127518"><ele>8.0</ele><time>2026-04-28T17:42:37.991Z</time></trkpt><trkpt lat="37.9766415" lon="13.7125047"><ele>7.0</ele><time>2026-04-28T17:42:38.991Z</time></trkpt><trkpt lat="37.9766814" lon="13.7122445"><ele>6.0</ele><time>2026-04-28T17:42:39.992Z</time></trkpt><trkpt lat="37.9767152" lon="13.7120139"><ele>6.333333333333334</ele><time>2026-04-28T17:42:40.992Z</time></trkpt><trkpt lat="37.9767505" lon="13.7117829"><ele>6.666666666666667</ele><time>2026-04-28T17:42:41.991Z</time></trkpt><trkpt lat="37.9767825" lon="13.7115614"><ele>7.0</ele><time>2026-04-28T17:42:42.992Z</time></trkpt><trkpt lat="37.9768015" lon="13.7114311"><ele>7.0</ele><time>2026-04-28T17:42:43.992Z</time></trkpt><trkpt lat="37.9768367" lon="13.7112288"><ele>7.0</ele><time>2026-04-28T17:42:44.992Z</time></trkpt><trkpt lat="37.9768706" lon="13.7110155"><ele>7.0</ele><time>2026-04-28T17:42:45.991Z</time></trkpt><trkpt lat="37.9769092" lon="13.7107995"><ele>7.333333333333334</ele><time>2026-04-28T17:42:46.992Z</time></trkpt><trkpt lat="37.9769406" lon="13.710577"><ele>7.666666666666666</ele><time>2026-04-28T17:42:47.992Z</time></trkpt><trkpt lat="37.9769748" lon="13.7103509"><ele>8.0</ele><time>2026-04-28T17:42:48.992Z</time></trkpt><trkpt lat="37.9770109" lon="13.7101359"><ele>8.0</ele><time>2026-04-28T17:42:49.992Z</time></trkpt><trkpt lat="37.9770523" lon="13.7099222"><ele>8.0</ele><time>2026-04-28T17:42:50.992Z</time></trkpt><trkpt lat="37.9770915" lon="13.7097203"><ele>8.0</ele><time>2026-04-28T17:42:51.992Z</time></trkpt><trkpt lat="37.9771334" lon="13.7095181"><ele>8.666666666666666</ele><time>2026-04-28T17:42:52.992Z</time></trkpt><trkpt lat="37.9771836" lon="13.7093099"><ele>9.333333333333334</ele><time>2026-04-28T17:42:53.992Z</time></trkpt><trkpt lat="37.9772384" lon="13.7090919"><ele>10.0</ele><time>2026-04-28T17:42:54.991Z</time></trkpt><trkpt lat="37.977294" lon="13.7088613"><ele>10.0</ele><time>2026-04-28T17:42:55.992Z</time></trkpt><trkpt lat="37.977351" lon="13.7086259"><ele>10.0</ele><time>2026-04-28T17:42:56.992Z</time></trkpt><trkpt lat="37.9774077" lon="13.7083907"><ele>10.0</ele><time>2026-04-28T17:42:57.992Z</time></trkpt><trkpt lat="37.9774617" lon="13.7081568"><ele>9.333333333333334</ele><time>2026-04-28T17:42:58.992Z</time></trkpt><trkpt lat="37.9775148" lon="13.7079265"><ele>8.666666666666666</ele><time>2026-04-28T17:42:59.992Z</time></trkpt><trkpt lat="37.9775704" lon="13.7076956"><ele>8.0</ele><time>2026-04-28T17:43:00.991Z</time></trkpt><trkpt lat="37.9776354" lon="13.7074634"><ele>8.0</ele><time>2026-04-28T17:43:01.992Z</time></trkpt><trkpt lat="37.9777068" lon="13.7072341"><ele>8.0</ele><time>2026-04-28T17:43:02.992Z</time></trkpt><trkpt lat="37.977787" lon="13.7070015"><ele>8.0</ele><time>2026-04-28T17:43:03.992Z</time></trkpt><trkpt lat="37.9778802" lon="13.7067774"><ele>9.0</ele><time>2026-04-28T17:43:04.992Z</time></trkpt><trkpt lat="37.977983" lon="13.7065681"><ele>10.0</ele><time>2026-04-28T17:43:05.992Z</time></trkpt><trkpt lat="37.9780873" lon="13.7063637"><ele>11.0</ele><time>2026-04-28T17:43:06.991Z</time></trkpt><trkpt lat="37.978187" lon="13.7061564"><ele>10.0</ele><time>2026-04-28T17:43:07.992Z</time></trkpt><trkpt lat="37.978283" lon="13.7059491"><ele>9.0</ele><time>2026-04-28T17:43:08.992Z</time></trkpt><trkpt lat="37.9783809" lon="13.7057385"><ele>8.0</ele><time>2026-04-28T17:43:09.992Z</time></trkpt><trkpt lat="37.9784773" lon="13.7055265"><ele>8.0</ele><time>2026-04-28T17:43:10.992Z</time></trkpt><trkpt lat="37.9785749" lon="13.7053163"><ele>8.0</ele><time>2026-04-28T17:43:11.992Z</time></trkpt><trkpt lat="37.9786713" lon="13.7051051"><ele>8.0</ele><time>2026-04-28T17:43:12.992Z</time></trkpt><trkpt lat="37.9787664" lon="13.7048944"><ele>8.666666666666666</ele><time>2026-04-28T17:43:13.992Z</time></trkpt><trkpt lat="37.9788609" lon="13.704693"><ele>9.333333333333334</ele><time>2026-04-28T17:43:14.992Z</time></trkpt><trkpt lat="37.9789521" lon="13.7045058"><ele>10.0</ele><time>2026-04-28T17:43:15.992Z</time></trkpt><trkpt lat="37.9790363" lon="13.7043329"><ele>9.333333333333334</ele><time>2026-04-28T17:43:16.992Z</time></trkpt><trkpt lat="37.9791197" lon="13.7041717"><ele>8.666666666666666</ele><time>2026-04-28T17:43:17.991Z</time></trkpt><trkpt lat="37.979207" lon="13.7040118"><ele>8.0</ele><time>2026-04-28T17:43:18.992Z</time></trkpt><trkpt lat="37.9792931" lon="13.7038545"><ele>8.0</ele><time>2026-04-28T17:43:19.991Z</time></trkpt><trkpt lat="37.9793744" lon="13.703709"><ele>8.0</ele><time>2026-04-28T17:43:20.992Z</time></trkpt><trkpt lat="37.9794502" lon="13.7035738"><ele>8.0</ele><time>2026-04-28T17:43:21.992Z</time></trkpt><trkpt lat="37.979525" lon="13.7034515"><ele>8.0</ele><time>2026-04-28T17:43:22.992Z</time></trkpt><trkpt lat="37.9796013" lon="13.703343"><ele>9.25</ele><time>2026-04-28T17:43:23.992Z</time></trkpt><trkpt lat="37.9796795" lon="13.7032476"><ele>10.5</ele><time>2026-04-28T17:43:24.992Z</time></trkpt><trkpt lat="37.9797601" lon="13.7031483"><ele>11.75</ele><time>2026-04-28T17:43:25.991Z</time></trkpt><trkpt lat="37.9798461" lon="13.7030436"><ele>13.0</ele><time>2026-04-28T17:43:26.992Z</time></trkpt><trkpt lat="37.9799364" lon="13.7029435"><ele>12.75</ele><time>2026-04-28T17:43:27.992Z</time></trkpt><trkpt lat="37.9800314" lon="13.7028525"><ele>12.5</ele><time>2026-04-28T17:43:28.992Z</time></trkpt><trkpt lat="37.9801299" lon="13.7027583"><ele>12.25</ele><time>2026-04-28T17:43:29.991Z</time></trkpt><trkpt lat="37.980237" lon="13.7026582"><ele>12.0</ele><time>2026-04-28T17:43:30.992Z</time></trkpt><trkpt lat="37.9803419" lon="13.7025607"><ele>12.0</ele><time>2026-04-28T17:43:31.992Z</time></trkpt><trkpt lat="37.9804385" lon="13.7024692"><ele>12.0</ele><time>2026-04-28T17:43:32.992Z</time></trkpt><trkpt lat="37.9805294" lon="13.7023918"><ele>12.0</ele><time>2026-04-28T17:43:33.992Z</time></trkpt><trkpt lat="37.9806156" lon="13.7023215"><ele>12.0</ele><time>2026-04-28T17:43:34.992Z</time></trkpt><trkpt lat="37.9806879" lon="13.7022515"><ele>12.0</ele><time>2026-04-28T17:43:35.992Z</time></trkpt><trkpt lat="37.9807558" lon="13.7021873"><ele>12.0</ele><time>2026-04-28T17:43:36.992Z</time></trkpt><trkpt lat="37.9808177" lon="13.7021326"><ele>12.0</ele><time>2026-04-28T17:43:37.992Z</time></trkpt><trkpt lat="37.9808726" lon="13.7020845"><ele>12.0</ele><time>2026-04-28T17:43:38.992Z</time></trkpt><trkpt lat="37.9809675" lon="13.7020113"><ele>12.0</ele><time>2026-04-28T17:43:40.991Z</time></trkpt><trkpt lat="37.9810456" lon="13.7019494"><ele>12.0</ele><time>2026-04-28T17:43:42.992Z</time></trkpt><trkpt lat="37.9811282" lon="13.7018772"><ele>12.0</ele><time>2026-04-28T17:43:44.992Z</time></trkpt><trkpt lat="37.9811604" lon="13.7017806"><ele>12.0</ele><time>2026-04-28T17:43:46.992Z</time></trkpt><trkpt lat="37.9810924" lon="13.7016825"><ele>12.0</ele><time>2026-04-28T17:43:48.992Z</time></trkpt><trkpt lat="37.9810436" lon="13.7016001"><ele>12.0</ele><time>2026-04-28T17:43:49.992Z</time></trkpt><trkpt lat="37.9810026" lon="13.7014807"><ele>12.0</ele><time>2026-04-28T17:43:50.992Z</time></trkpt><trkpt lat="37.9809738" lon="13.7013343"><ele>12.0</ele><time>2026-04-28T17:43:51.991Z</time></trkpt><trkpt lat="37.9809679" lon="13.7011784"><ele>13.25</ele><time>2026-04-28T17:43:52.991Z</time></trkpt><trkpt lat="37.980973" lon="13.7010208"><ele>14.5</ele><time>2026-04-28T17:43:53.992Z</time></trkpt><trkpt lat="37.9809812" lon="13.700861"><ele>15.75</ele><time>2026-04-28T17:43:54.991Z</time></trkpt><trkpt lat="37.9809893" lon="13.7007035"><ele>17.0</ele><time>2026-04-28T17:43:55.992Z</time></trkpt><trkpt lat="37.9809951" lon="13.7005499"><ele>17.0</ele><time>2026-04-28T17:43:56.992Z</time></trkpt><trkpt lat="37.9809883" lon="13.7003995"><ele>17.0</ele><time>2026-04-28T17:43:57.992Z</time></trkpt><trkpt lat="37.9809621" lon="13.7002535"><ele>17.0</ele><time>2026-04-28T17:43:58.991Z</time></trkpt><trkpt lat="37.9809226" lon="13.7001133"><ele>17.0</ele><time>2026-04-28T17:43:59.991Z</time></trkpt><trkpt lat="37.9808715" lon="13.6999915"><ele>17.333333333333336</ele><time>2026-04-28T17:44:00.991Z</time></trkpt><trkpt lat="37.9808174" lon="13.6998943"><ele>17.666666666666668</ele><time>2026-04-28T17:44:01.992Z</time></trkpt><trkpt lat="37.9807651" lon="13.6998152"><ele>18.0</ele><time>2026-04-28T17:44:02.992Z</time></trkpt><trkpt lat="37.980714" lon="13.6997439"><ele>18.333333333333332</ele><time>2026-04-28T17:44:03.992Z</time></trkpt><trkpt lat="37.9806754" lon="13.6996656"><ele>18.666666666666664</ele><time>2026-04-28T17:44:04.992Z</time></trkpt><trkpt lat="37.9806574" lon="13.6995801"><ele>19.0</ele><time>2026-04-28T17:44:05.992Z</time></trkpt><trkpt lat="37.9806754" lon="13.6994953"><ele>19.833333333333332</ele><time>2026-04-28T17:44:06.992Z</time></trkpt><trkpt lat="37.9807151" lon="13.6994086"><ele>20.666666666666664</ele><time>2026-04-28T17:44:07.991Z</time></trkpt><trkpt lat="37.9807685" lon="13.6993311"><ele>21.5</ele><time>2026-04-28T17:44:08.992Z</time></trkpt><trkpt lat="37.9808317" lon="13.6992696"><ele>22.333333333333332</ele><time>2026-04-28T17:44:09.992Z</time></trkpt><trkpt lat="37.9808878" lon="13.6992049"><ele>23.166666666666668</ele><time>2026-04-28T17:44:10.992Z</time></trkpt><trkpt lat="37.980936" lon="13.6991503"><ele>24.0</ele><time>2026-04-28T17:44:11.992Z</time></trkpt><trkpt lat="37.9810006" lon="13.699056"><ele>24.0</ele><time>2026-04-28T17:44:13.991Z</time></trkpt><trkpt lat="37.9810241" lon="13.6989519"><ele>24.0</ele><time>2026-04-28T17:44:15.991Z</time></trkpt><trkpt lat="37.9810225" lon="13.6988468"><ele>24.0</ele><time>2026-04-28T17:44:18.992Z</time></trkpt><trkpt lat="37.9809624" lon="13.6987687"><ele>24.0</ele><time>2026-04-28T17:44:20.991Z</time></trkpt><trkpt lat="37.9808394" lon="13.6987266"><ele>24.0</ele><time>2026-04-28T17:44:22.992Z</time></trkpt><trkpt lat="37.9807698" lon="13.6987141"><ele>24.0</ele><time>2026-04-28T17:44:23.991Z</time></trkpt><trkpt lat="37.9807009" lon="13.6986949"><ele>24.0</ele><time>2026-04-28T17:44:24.991Z</time></trkpt><trkpt lat="37.9806334" lon="13.6986578"><ele>24.0</ele><time>2026-04-28T17:44:25.991Z</time></trkpt><trkpt lat="37.9805736" lon="13.6986198"><ele>24.0</ele><time>2026-04-28T17:44:26.991Z</time></trkpt><trkpt lat="37.9804631" lon="13.6985659"><ele>24.0</ele><time>2026-04-28T17:44:29.992Z</time></trkpt><trkpt lat="37.9803876" lon="13.6985301"><ele>24.0</ele><time>2026-04-28T17:44:31.992Z</time></trkpt><trkpt lat="37.9803174" lon="13.6984635"><ele>24.0</ele><time>2026-04-28T17:44:34.992Z</time></trkpt><trkpt lat="37.9802617" lon="13.6984232"><ele>24.0</ele><time>2026-04-28T17:44:36.992Z</time></trkpt><trkpt lat="37.9801513" lon="13.6983615"><ele>24.0</ele><time>2026-04-28T17:44:38.991Z</time></trkpt><trkpt lat="37.9800708" lon="13.6983062"><ele>24.0</ele><time>2026-04-28T17:44:40.991Z</time></trkpt><trkpt lat="37.9800106" lon="13.6982426"><ele>24.0</ele><time>2026-04-28T17:44:42.992Z</time></trkpt><trkpt lat="37.9799468" lon="13.6981906"><ele>24.0</ele><time>2026-04-28T17:44:44.992Z</time></trkpt><trkpt lat="37.9799129" lon="13.6981004"><ele>24.0</ele><time>2026-04-28T17:44:46.991Z</time></trkpt><trkpt lat="37.9799118" lon="13.6979715"><ele>24.0</ele><time>2026-04-28T17:44:48.992Z</time></trkpt><trkpt lat="37.9799298" lon="13.6978452"><ele>24.0</ele><time>2026-04-28T17:44:50.992Z</time></trkpt><trkpt lat="37.9799463" lon="13.6977592"><ele>24.0</ele><time>2026-04-28T17:44:51.992Z</time></trkpt><trkpt lat="37.9799763" lon="13.697637"><ele>24.0</ele><time>2026-04-28T17:44:52.991Z</time></trkpt><trkpt lat="37.980018" lon="13.6975098"><ele>25.0</ele><time>2026-04-28T17:44:53.992Z</time></trkpt><trkpt lat="37.9800408" lon="13.697386"><ele>26.0</ele><time>2026-04-28T17:44:54.992Z</time></trkpt><trkpt lat="37.9800399" lon="13.6972833"><ele>27.0</ele><time>2026-04-28T17:44:55.991Z</time></trkpt><trkpt lat="37.9800186" lon="13.6972013"><ele>28.0</ele><time>2026-04-28T17:44:56.992Z</time></trkpt><trkpt lat="37.9799907" lon="13.6971178"><ele>29.0</ele><time>2026-04-28T17:44:57.992Z</time></trkpt><trkpt lat="37.9799636" lon="13.6970331"><ele>30.0</ele><time>2026-04-28T17:44:58.992Z</time></trkpt><trkpt lat="37.9799437" lon="13.6968855"><ele>31.4</ele><time>2026-04-28T17:45:00.992Z</time></trkpt><trkpt lat="37.9799569" lon="13.6967383"><ele>32.8</ele><time>2026-04-28T17:45:02.991Z</time></trkpt><trkpt lat="37.9800648" lon="13.696652"><ele>34.2</ele><time>2026-04-28T17:45:04.992Z</time></trkpt><trkpt lat="37.9801369" lon="13.6966391"><ele>35.6</ele><time>2026-04-28T17:45:05.992Z</time></trkpt><trkpt lat="37.9802083" lon="13.6966614"><ele>37.0</ele><time>2026-04-28T17:45:06.991Z</time></trkpt><trkpt lat="37.9802786" lon="13.6966992"><ele>38.400000000000006</ele><time>2026-04-28T17:45:07.992Z</time></trkpt><trkpt lat="37.9803448" lon="13.6967269"><ele>39.800000000000004</ele><time>2026-04-28T17:45:08.992Z</time></trkpt><trkpt lat="37.9804295" lon="13.6967594"><ele>41.2</ele><time>2026-04-28T17:45:09.991Z</time></trkpt><trkpt lat="37.980536" lon="13.6968174"><ele>42.6</ele><time>2026-04-28T17:45:10.991Z</time></trkpt><trkpt lat="37.980655" lon="13.6968895"><ele>44.0</ele><time>2026-04-28T17:45:11.991Z</time></trkpt><trkpt lat="37.9807817" lon="13.6969699"><ele>45.25</ele><time>2026-04-28T17:45:12.991Z</time></trkpt><trkpt lat="37.9809028" lon="13.6970473"><ele>46.5</ele><time>2026-04-28T17:45:13.992Z</time></trkpt><trkpt lat="37.98102" lon="13.6970976"><ele>47.75</ele><time>2026-04-28T17:45:14.991Z</time></trkpt><trkpt lat="37.9811242" lon="13.6971093"><ele>49.0</ele><time>2026-04-28T17:45:15.991Z</time></trkpt><trkpt lat="37.9812226" lon="13.6970927"><ele>49.0</ele><time>2026-04-28T17:45:16.992Z</time></trkpt><trkpt lat="37.9813149" lon="13.697035"><ele>49.0</ele><time>2026-04-28T17:45:17.992Z</time></trkpt><trkpt lat="37.9813899" lon="13.6969565"><ele>49.0</ele><time>2026-04-28T17:45:18.992Z</time></trkpt><trkpt lat="37.9814521" lon="13.6968518"><ele>49.0</ele><time>2026-04-28T17:45:19.992Z</time></trkpt><trkpt lat="37.9814854" lon="13.6967412"><ele>49.0</ele><time>2026-04-28T17:45:20.992Z</time></trkpt><trkpt lat="37.9814935" lon="13.6966159"><ele>50.800000000000004</ele><time>2026-04-28T17:45:21.992Z</time></trkpt><trkpt lat="37.9814765" lon="13.6964941"><ele>52.6</ele><time>2026-04-28T17:45:22.992Z</time></trkpt><trkpt lat="37.9814255" lon="13.6963869"><ele>54.4</ele><time>2026-04-28T17:45:23.992Z</time></trkpt><trkpt lat="37.9813614" lon="13.6963049"><ele>56.2</ele><time>2026-04-28T17:45:24.992Z</time></trkpt><trkpt lat="37.9812865" lon="13.6962403"><ele>58.0</ele><time>2026-04-28T17:45:25.991Z</time></trkpt><trkpt lat="37.9812021" lon="13.6961796"><ele>58.0</ele><time>2026-04-28T17:45:26.992Z</time></trkpt><trkpt lat="37.9811431" lon="13.6961014"><ele>58.0</ele><time>2026-04-28T17:45:27.992Z</time></trkpt><trkpt lat="37.9811218" lon="13.6959504"><ele>58.0</ele><time>2026-04-28T17:45:29.992Z</time></trkpt><trkpt lat="37.981161" lon="13.6958628"><ele>58.0</ele><time>2026-04-28T17:45:30.992Z</time></trkpt><trkpt lat="37.9812331" lon="13.6957669"><ele>58.0</ele><time>2026-04-28T17:45:31.992Z</time></trkpt><trkpt lat="37.9813244" lon="13.6956966"><ele>59.166666666666664</ele><time>2026-04-28T17:45:32.991Z</time></trkpt><trkpt lat="37.9814109" lon="13.6956891"><ele>60.33333333333333</ele><time>2026-04-28T17:45:33.992Z</time></trkpt><trkpt lat="37.9815058" lon="13.6957256"><ele>61.5</ele><time>2026-04-28T17:45:34.992Z</time></trkpt><trkpt lat="37.9815811" lon="13.6957901"><ele>62.66666666666667</ele><time>2026-04-28T17:45:35.992Z</time></trkpt><trkpt lat="37.9816535" lon="13.6958559"><ele>63.833333333333336</ele><time>2026-04-28T17:45:36.992Z</time></trkpt><trkpt lat="37.9817145" lon="13.6959083"><ele>65.0</ele><time>2026-04-28T17:45:37.991Z</time></trkpt><trkpt lat="37.9817788" lon="13.6959312"><ele>66.5</ele><time>2026-04-28T17:45:38.992Z</time></trkpt><trkpt lat="37.9818456" lon="13.6959144"><ele>68.0</ele><time>2026-04-28T17:45:39.992Z</time></trkpt><trkpt lat="37.9819054" lon="13.6958632"><ele>69.5</ele><time>2026-04-28T17:45:40.992Z</time></trkpt><trkpt lat="37.9819455" lon="13.6957746"><ele>71.0</ele><time>2026-04-28T17:45:41.991Z</time></trkpt><trkpt lat="37.9819422" lon="13.6956744"><ele>72.5</ele><time>2026-04-28T17:45:42.992Z</time></trkpt><trkpt lat="37.9819165" lon="13.6955706"><ele>74.0</ele><time>2026-04-28T17:45:43.992Z</time></trkpt><trkpt lat="37.9818645" lon="13.6954644"><ele>74.0</ele><time>2026-04-28T17:45:44.992Z</time></trkpt><trkpt lat="37.9818033" lon="13.6953586"><ele>74.0</ele><time>2026-04-28T17:45:45.992Z</time></trkpt><trkpt lat="37.9817396" lon="13.6952503"><ele>74.0</ele><time>2026-04-28T17:45:46.992Z</time></trkpt><trkpt lat="37.9816624" lon="13.6951575"><ele>74.0</ele><time>2026-04-28T17:45:47.992Z</time></trkpt><trkpt lat="37.9815785" lon="13.6950812"><ele>74.0</ele><time>2026-04-28T17:45:48.992Z</time></trkpt><trkpt lat="37.9814883" lon="13.6949988"><ele>75.0</ele><time>2026-04-28T17:45:49.992Z</time></trkpt><trkpt lat="37.9813912" lon="13.6949048"><ele>76.0</ele><time>2026-04-28T17:45:50.992Z</time></trkpt><trkpt lat="37.981289" lon="13.6947994"><ele>77.0</ele><time>2026-04-28T17:45:51.992Z</time></trkpt><trkpt lat="37.9811739" lon="13.6946937"><ele>78.0</ele><time>2026-04-28T17:45:52.991Z</time></trkpt><trkpt lat="37.9810641" lon="13.6945889"><ele>78.0</ele><time>2026-04-28T17:45:53.992Z</time></trkpt><trkpt lat="37.9809728" lon="13.6944742"><ele>78.0</ele><time>2026-04-28T17:45:54.991Z</time></trkpt><trkpt lat="37.9808893" lon="13.6943485"><ele>78.0</ele><time>2026-04-28T17:45:55.992Z</time></trkpt><trkpt lat="37.9808097" lon="13.6942191"><ele>78.0</ele><time>2026-04-28T17:45:56.992Z</time></trkpt><trkpt lat="37.9807419" lon="13.6940906"><ele>79.2</ele><time>2026-04-28T17:45:57.992Z</time></trkpt><trkpt lat="37.9806816" lon="13.6939778"><ele>80.4</ele><time>2026-04-28T17:45:58.991Z</time></trkpt><trkpt lat="37.9806246" lon="13.693877"><ele>81.60000000000001</ele><time>2026-04-28T17:45:59.992Z</time></trkpt><trkpt lat="37.9805705" lon="13.6937845"><ele>82.8</ele><time>2026-04-28T17:46:00.991Z</time></trkpt><trkpt lat="37.9805194" lon="13.6936922"><ele>84.0</ele><time>2026-04-28T17:46:01.992Z</time></trkpt><trkpt lat="37.9804637" lon="13.6936086"><ele>85.0</ele><time>2026-04-28T17:46:02.992Z</time></trkpt><trkpt lat="37.9804057" lon="13.6935133"><ele>86.0</ele><time>2026-04-28T17:46:03.992Z</time></trkpt><trkpt lat="37.9803467" lon="13.6934162"><ele>87.0</ele><time>2026-04-28T17:46:04.992Z</time></trkpt><trkpt lat="37.9802818" lon="13.6933126"><ele>88.0</ele><time>2026-04-28T17:46:05.991Z</time></trkpt><trkpt lat="37.980206" lon="13.6931996"><ele>89.0</ele><time>2026-04-28T17:46:06.992Z</time></trkpt><trkpt lat="37.9801173" lon="13.69307"><ele>89.0</ele><time>2026-04-28T17:46:07.992Z</time></trkpt><trkpt lat="37.980034" lon="13.6929347"><ele>89.0</ele><time>2026-04-28T17:46:08.992Z</time></trkpt><trkpt lat="37.9799599" lon="13.6928049"><ele>89.0</ele><time>2026-04-28T17:46:09.992Z</time></trkpt><trkpt lat="37.9798953" lon="13.6926905"><ele>89.0</ele><time>2026-04-28T17:46:10.992Z</time></trkpt><trkpt lat="37.9798461" lon="13.6925875"><ele>89.0</ele><time>2026-04-28T17:46:11.992Z</time></trkpt><trkpt lat="37.9798081" lon="13.6924827"><ele>89.0</ele><time>2026-04-28T17:46:12.991Z</time></trkpt><trkpt lat="37.9797869" lon="13.692369"><ele>89.0</ele><time>2026-04-28T17:46:13.992Z</time></trkpt><trkpt lat="37.9797758" lon="13.6922533"><ele>89.0</ele><time>2026-04-28T17:46:14.992Z</time></trkpt><trkpt lat="37.9797757" lon="13.6921484"><ele>89.0</ele><time>2026-04-28T17:46:15.992Z</time></trkpt><trkpt lat="37.979779" lon="13.6920598"><ele>89.0</ele><time>2026-04-28T17:46:16.992Z</time></trkpt><trkpt lat="37.9797912" lon="13.6919202"><ele>89.0</ele><time>2026-04-28T17:46:18.992Z</time></trkpt><trkpt lat="37.9798038" lon="13.6918224"><ele>89.0</ele><time>2026-04-28T17:46:20.991Z</time></trkpt><trkpt lat="37.9798136" lon="13.6917348"><ele>89.0</ele><time>2026-04-28T17:46:28.992Z</time></trkpt><trkpt lat="37.9797802" lon="13.6916262"><ele>89.0</ele><time>2026-04-28T17:46:31.991Z</time></trkpt><trkpt lat="37.9797333" lon="13.6915668"><ele>89.0</ele><time>2026-04-28T17:46:34.991Z</time></trkpt><trkpt lat="37.9796366" lon="13.6914548"><ele>89.0</ele><time>2026-04-28T17:46:36.992Z</time></trkpt><trkpt lat="37.9795739" lon="13.6913848"><ele>89.0</ele><time>2026-04-28T17:46:37.992Z</time></trkpt><trkpt lat="37.9795147" lon="13.6913137"><ele>89.0</ele><time>2026-04-28T17:46:38.992Z</time></trkpt><trkpt lat="37.9794468" lon="13.6912383"><ele>89.0</ele><time>2026-04-28T17:46:39.992Z</time></trkpt><trkpt lat="37.979382" lon="13.6911621"><ele>89.0</ele><time>2026-04-28T17:46:40.992Z</time></trkpt><trkpt lat="37.9793201" lon="13.6910865"><ele>89.0</ele><time>2026-04-28T17:46:41.992Z</time></trkpt><trkpt lat="37.9792567" lon="13.6910155"><ele>89.0</ele><time>2026-04-28T17:46:42.992Z</time></trkpt><trkpt lat="37.9791962" lon="13.6909534"><ele>89.0</ele><time>2026-04-28T17:46:43.992Z</time></trkpt><trkpt lat="37.9791119" lon="13.6908623"><ele>89.0</ele><time>2026-04-28T17:46:45.992Z</time></trkpt><trkpt lat="37.9790656" lon="13.6908049"><ele>89.0</ele><time>2026-04-28T17:46:47.992Z</time></trkpt><trkpt lat="37.9789766" lon="13.6907281"><ele>89.0</ele><time>2026-04-28T17:46:49.992Z</time></trkpt><trkpt lat="37.9789079" lon="13.6906505"><ele>89.0</ele><time>2026-04-28T17:46:50.992Z</time></trkpt><trkpt lat="37.9788185" lon="13.6905492"><ele>89.0</ele><time>2026-04-28T17:46:51.992Z</time></trkpt><trkpt lat="37.9787159" lon="13.6904272"><ele>89.0</ele><time>2026-04-28T17:46:52.992Z</time></trkpt><trkpt lat="37.9786005" lon="13.6903094"><ele>89.0</ele><time>2026-04-28T17:46:53.992Z</time></trkpt><trkpt lat="37.9784887" lon="13.6901954"><ele>89.0</ele><time>2026-04-28T17:46:54.992Z</time></trkpt><trkpt lat="37.9783975" lon="13.6900933"><ele>90.33333333333334</ele><time>2026-04-28T17:46:55.992Z</time></trkpt><trkpt lat="37.978325" lon="13.690017"><ele>91.66666666666667</ele><time>2026-04-28T17:46:56.992Z</time></trkpt><trkpt lat="37.9782561" lon="13.6899506"><ele>93.0</ele><time>2026-04-28T17:46:57.992Z</time></trkpt><trkpt lat="37.9782049" lon="13.6898725"><ele>94.33333333333334</ele><time>2026-04-28T17:46:58.992Z</time></trkpt><trkpt lat="37.9781586" lon="13.6898058"><ele>95.66666666666667</ele><time>2026-04-28T17:46:59.992Z</time></trkpt><trkpt lat="37.9781118" lon="13.689747"><ele>97.0</ele><time>2026-04-28T17:47:00.992Z</time></trkpt><trkpt lat="37.9780592" lon="13.6896945"><ele>97.0</ele><time>2026-04-28T17:47:01.992Z</time></trkpt><trkpt lat="37.9779677" lon="13.6895872"><ele>97.0</ele><time>2026-04-28T17:47:03.991Z</time></trkpt><trkpt lat="37.977907" lon="13.6895286"><ele>97.0</ele><time>2026-04-28T17:47:04.992Z</time></trkpt><trkpt lat="37.9778298" lon="13.6894534"><ele>97.0</ele><time>2026-04-28T17:47:05.991Z</time></trkpt><trkpt lat="37.9777326" lon="13.689347"><ele>97.0</ele><time>2026-04-28T17:47:06.992Z</time></trkpt><trkpt lat="37.97763" lon="13.6892379"><ele>97.0</ele><time>2026-04-28T17:47:07.992Z</time></trkpt><trkpt lat="37.9775401" lon="13.6891352"><ele>97.0</ele><time>2026-04-28T17:47:08.992Z</time></trkpt><trkpt lat="37.9774631" lon="13.6890363"><ele>97.0</ele><time>2026-04-28T17:47:09.991Z</time></trkpt><trkpt lat="37.9773901" lon="13.6889383"><ele>97.0</ele><time>2026-04-28T17:47:10.991Z</time></trkpt><trkpt lat="37.977307" lon="13.6888399"><ele>97.25</ele><time>2026-04-28T17:47:11.992Z</time></trkpt><trkpt lat="37.9772124" lon="13.688753"><ele>97.5</ele><time>2026-04-28T17:47:12.992Z</time></trkpt><trkpt lat="37.9771091" lon="13.6886636"><ele>97.75</ele><time>2026-04-28T17:47:13.992Z</time></trkpt><trkpt lat="37.9770072" lon="13.6885703"><ele>98.0</ele><time>2026-04-28T17:47:14.992Z</time></trkpt><trkpt lat="37.9769141" lon="13.6884732"><ele>98.5</ele><time>2026-04-28T17:47:15.992Z</time></trkpt><trkpt lat="37.9768207" lon="13.688367"><ele>99.0</ele><time>2026-04-28T17:47:16.991Z</time></trkpt><trkpt lat="37.9767269" lon="13.6882614"><ele>99.5</ele><time>2026-04-28T17:47:17.992Z</time></trkpt><trkpt lat="37.976639" lon="13.688162"><ele>100.0</ele><time>2026-04-28T17:47:18.991Z</time></trkpt><trkpt lat="37.9765545" lon="13.6880672"><ele>100.75</ele><time>2026-04-28T17:47:19.992Z</time></trkpt><trkpt lat="37.9764647" lon="13.6879702"><ele>101.5</ele><time>2026-04-28T17:47:20.992Z</time></trkpt><trkpt lat="37.9763689" lon="13.6878709"><ele>102.25</ele><time>2026-04-28T17:47:21.992Z</time></trkpt><trkpt lat="37.9762754" lon="13.687759"><ele>103.0</ele><time>2026-04-28T17:47:22.992Z</time></trkpt><trkpt lat="37.9761806" lon="13.6876371"><ele>103.5</ele><time>2026-04-28T17:47:23.992Z</time></trkpt><trkpt lat="37.9760926" lon="13.6875102"><ele>104.0</ele><time>2026-04-28T17:47:24.992Z</time></trkpt><trkpt lat="37.9760111" lon="13.6873785"><ele>104.5</ele><time>2026-04-28T17:47:25.992Z</time></trkpt><trkpt lat="37.9759348" lon="13.6872291"><ele>105.0</ele><time>2026-04-28T17:47:26.991Z</time></trkpt><trkpt lat="37.9758667" lon="13.6870606"><ele>104.66666666666666</ele><time>2026-04-28T17:47:27.992Z</time></trkpt><trkpt lat="37.9758064" lon="13.6868824"><ele>104.33333333333333</ele><time>2026-04-28T17:47:28.992Z</time></trkpt><trkpt lat="37.9757504" lon="13.6866961"><ele>104.0</ele><time>2026-04-28T17:47:29.992Z</time></trkpt><trkpt lat="37.9756975" lon="13.6865032"><ele>104.0</ele><time>2026-04-28T17:47:30.992Z</time></trkpt><trkpt lat="37.9756398" lon="13.6863049"><ele>104.0</ele><time>2026-04-28T17:47:31.992Z</time></trkpt><trkpt lat="37.9755827" lon="13.6861121"><ele>104.0</ele><time>2026-04-28T17:47:32.991Z</time></trkpt><trkpt lat="37.9755309" lon="13.6859303"><ele>104.6</ele><time>2026-04-28T17:47:33.992Z</time></trkpt><trkpt lat="37.9754816" lon="13.6857659"><ele>105.2</ele><time>2026-04-28T17:47:34.992Z</time></trkpt><trkpt lat="37.9754414" lon="13.6856243"><ele>105.79999999999998</ele><time>2026-04-28T17:47:35.992Z</time></trkpt><trkpt lat="37.9754103" lon="13.6855034"><ele>106.39999999999999</ele><time>2026-04-28T17:47:36.991Z</time></trkpt><trkpt lat="37.9753863" lon="13.6854021"><ele>107.0</ele><time>2026-04-28T17:47:37.992Z</time></trkpt><trkpt lat="37.9753698" lon="13.6853169"><ele>105.0</ele><time>2026-04-28T17:47:38.992Z</time></trkpt><trkpt lat="37.9753874" lon="13.6851973"><ele>102.99999999999999</ele><time>2026-04-28T17:47:40.992Z</time></trkpt><trkpt lat="37.9754457" lon="13.685154"><ele>101.0</ele><time>2026-04-28T17:47:41.991Z</time></trkpt><trkpt lat="37.9755479" lon="13.6851272"><ele>99.0</ele><time>2026-04-28T17:47:42.992Z</time></trkpt><trkpt lat="37.97567" lon="13.6851176"><ele>97.0</ele><time>2026-04-28T17:47:43.992Z</time></trkpt><trkpt lat="37.975803" lon="13.6851237"><ele>95.0</ele><time>2026-04-28T17:47:44.992Z</time></trkpt><trkpt lat="37.9759377" lon="13.6851376"><ele>93.0</ele><time>2026-04-28T17:47:45.991Z</time></trkpt><trkpt lat="37.9760681" lon="13.6851589"><ele>91.0</ele><time>2026-04-28T17:47:46.992Z</time></trkpt><trkpt lat="37.9761853" lon="13.6851921"><ele>89.0</ele><time>2026-04-28T17:47:47.992Z</time></trkpt><trkpt lat="37.9762968" lon="13.6852251"><ele>89.0</ele><time>2026-04-28T17:47:48.992Z</time></trkpt><trkpt lat="37.976397" lon="13.6852552"><ele>89.0</ele><time>2026-04-28T17:47:49.992Z</time></trkpt><trkpt lat="37.9764842" lon="13.6852748"><ele>89.0</ele><time>2026-04-28T17:47:50.992Z</time></trkpt><trkpt lat="37.9765682" lon="13.6852659"><ele>89.0</ele><time>2026-04-28T17:47:51.992Z</time></trkpt><trkpt lat="37.9766458" lon="13.68523"><ele>89.0</ele><time>2026-04-28T17:47:52.992Z</time></trkpt><trkpt lat="37.9767239" lon="13.685182"><ele>89.0</ele><time>2026-04-28T17:47:53.991Z</time></trkpt><trkpt lat="37.9768329" lon="13.6851544"><ele>86.75</ele><time>2026-04-28T17:47:54.992Z</time></trkpt><trkpt lat="37.9769605" lon="13.6851481"><ele>84.5</ele><time>2026-04-28T17:47:55.992Z</time></trkpt><trkpt lat="37.9771055" lon="13.6851495"><ele>82.25</ele><time>2026-04-28T17:47:56.992Z</time></trkpt><trkpt lat="37.9772682" lon="13.6851584"><ele>80.0</ele><time>2026-04-28T17:47:57.992Z</time></trkpt><trkpt lat="37.977435" lon="13.6851818"><ele>78.33333333333334</ele><time>2026-04-28T17:47:58.992Z</time></trkpt><trkpt lat="37.9776022" lon="13.6852337"><ele>76.66666666666667</ele><time>2026-04-28T17:47:59.992Z</time></trkpt><trkpt lat="37.9777675" lon="13.6853277"><ele>75.0</ele><time>2026-04-28T17:48:00.992Z</time></trkpt><trkpt lat="37.9779325" lon="13.6854441"><ele>75.0</ele><time>2026-04-28T17:48:01.992Z</time></trkpt><trkpt lat="37.9780887" lon="13.6855753"><ele>75.0</ele><time>2026-04-28T17:48:02.992Z</time></trkpt><trkpt lat="37.9782436" lon="13.6857121"><ele>75.0</ele><time>2026-04-28T17:48:03.992Z</time></trkpt><trkpt lat="37.9783945" lon="13.6858354"><ele>72.66666666666667</ele><time>2026-04-28T17:48:04.992Z</time></trkpt><trkpt lat="37.9785418" lon="13.6859587"><ele>70.33333333333334</ele><time>2026-04-28T17:48:05.992Z</time></trkpt><trkpt lat="37.978682" lon="13.6860957"><ele>68.0</ele><time>2026-04-28T17:48:06.992Z</time></trkpt><trkpt lat="37.9788048" lon="13.6862486"><ele>68.0</ele><time>2026-04-28T17:48:07.992Z</time></trkpt><trkpt lat="37.9789114" lon="13.6864127"><ele>68.0</ele><time>2026-04-28T17:48:08.992Z</time></trkpt><trkpt lat="37.9790007" lon="13.6865732"><ele>68.0</ele><time>2026-04-28T17:48:09.992Z</time></trkpt><trkpt lat="37.9790853" lon="13.6867109"><ele>68.0</ele><time>2026-04-28T17:48:10.992Z</time></trkpt><trkpt lat="37.979161" lon="13.6868338"><ele>68.0</ele><time>2026-04-28T17:48:11.992Z</time></trkpt><trkpt lat="37.9792495" lon="13.686929"><ele>68.0</ele><time>2026-04-28T17:48:12.992Z</time></trkpt><trkpt lat="37.9793494" lon="13.6870021"><ele>68.0</ele><time>2026-04-28T17:48:13.991Z</time></trkpt><trkpt lat="37.9794522" lon="13.6870743"><ele>64.5</ele><time>2026-04-28T17:48:14.992Z</time></trkpt><trkpt lat="37.9795786" lon="13.6868843"><ele>61.0</ele><time>2026-04-28T17:48:15.992Z</time></trkpt><trkpt lat="37.9796682" lon="13.6867949"><ele>57.5</ele><time>2026-04-28T17:48:16.992Z</time></trkpt><trkpt lat="37.9797193" lon="13.6867407"><ele>54.0</ele><time>2026-04-28T17:48:17.992Z</time></trkpt><trkpt lat="37.9797424" lon="13.6866185"><ele>54.0</ele><time>2026-04-28T17:48:24.992Z</time></trkpt><trkpt lat="37.9797417" lon="13.6865234"><ele>54.00000000000001</ele><time>2026-04-28T17:48:25.992Z</time></trkpt><trkpt lat="37.9797259" lon="13.6863865"><ele>54.00000000000001</ele><time>2026-04-28T17:48:26.992Z</time></trkpt><trkpt lat="37.9796979" lon="13.6862441"><ele>54.0</ele><time>2026-04-28T17:48:27.991Z</time></trkpt><trkpt lat="37.9796719" lon="13.6860954"><ele>54.0</ele><time>2026-04-28T17:48:28.992Z</time></trkpt><trkpt lat="37.9796507" lon="13.6859546"><ele>53.333333333333336</ele><time>2026-04-28T17:48:29.992Z</time></trkpt><trkpt lat="37.9796338" lon="13.685831"><ele>52.66666666666667</ele><time>2026-04-28T17:48:30.992Z</time></trkpt><trkpt lat="37.9796222" lon="13.6857256"><ele>52.0</ele><time>2026-04-28T17:48:31.992Z</time></trkpt><trkpt lat="37.979601" lon="13.6856213"><ele>51.333333333333336</ele><time>2026-04-28T17:48:32.991Z</time></trkpt><trkpt lat="37.9795717" lon="13.685517"><ele>50.66666666666667</ele><time>2026-04-28T17:48:33.991Z</time></trkpt><trkpt lat="37.9795279" lon="13.6854156"><ele>50.0</ele><time>2026-04-28T17:48:34.991Z</time></trkpt><trkpt lat="37.9794782" lon="13.6853149"><ele>48.833333333333336</ele><time>2026-04-28T17:48:35.992Z</time></trkpt><trkpt lat="37.9794295" lon="13.6852135"><ele>47.66666666666667</ele><time>2026-04-28T17:48:36.992Z</time></trkpt><trkpt lat="37.979392" lon="13.6851201"><ele>46.5</ele><time>2026-04-28T17:48:37.992Z</time></trkpt><trkpt lat="37.9793777" lon="13.6850343"><ele>45.333333333333336</ele><time>2026-04-28T17:48:38.992Z</time></trkpt><trkpt lat="37.9793869" lon="13.6849473"><ele>44.16666666666667</ele><time>2026-04-28T17:48:39.992Z</time></trkpt><trkpt lat="37.9794203" lon="13.6848611"><ele>43.0</ele><time>2026-04-28T17:48:40.992Z</time></trkpt><trkpt lat="37.979494" lon="13.6847913"><ele>43.0</ele><time>2026-04-28T17:48:41.992Z</time></trkpt><trkpt lat="37.9795857" lon="13.684762"><ele>43.0</ele><time>2026-04-28T17:48:42.991Z</time></trkpt><trkpt lat="37.9796872" lon="13.6847661"><ele>43.0</ele><time>2026-04-28T17:48:43.991Z</time></trkpt><trkpt lat="37.9797906" lon="13.6847998"><ele>43.0</ele><time>2026-04-28T17:48:44.992Z</time></trkpt><trkpt lat="37.9798926" lon="13.6848364"><ele>43.0</ele><time>2026-04-28T17:48:45.992Z</time></trkpt><trkpt lat="37.9799992" lon="13.6848601"><ele>41.4</ele><time>2026-04-28T17:48:46.992Z</time></trkpt><trkpt lat="37.980107" lon="13.6848659"><ele>39.8</ele><time>2026-04-28T17:48:47.992Z</time></trkpt><trkpt lat="37.9802135" lon="13.6848482"><ele>38.2</ele><time>2026-04-28T17:48:48.991Z</time></trkpt><trkpt lat="37.9803219" lon="13.6848231"><ele>36.6</ele><time>2026-04-28T17:48:49.992Z</time></trkpt><trkpt lat="37.9804368" lon="13.684784"><ele>35.0</ele><time>2026-04-28T17:48:50.992Z</time></trkpt><trkpt lat="37.9805579" lon="13.6847555"><ele>35.0</ele><time>2026-04-28T17:48:51.992Z</time></trkpt><trkpt lat="37.9806653" lon="13.6847435"><ele>35.0</ele><time>2026-04-28T17:48:52.992Z</time></trkpt><trkpt lat="37.9807839" lon="13.684729"><ele>35.0</ele><time>2026-04-28T17:48:53.992Z</time></trkpt><trkpt lat="37.9809084" lon="13.6847156"><ele>35.0</ele><time>2026-04-28T17:48:54.992Z</time></trkpt><trkpt lat="37.9810341" lon="13.6847156"><ele>34.25</ele><time>2026-04-28T17:48:55.991Z</time></trkpt><trkpt lat="37.981166" lon="13.6847214"><ele>33.5</ele><time>2026-04-28T17:48:56.992Z</time></trkpt><trkpt lat="37.9812899" lon="13.6847188"><ele>32.75</ele><time>2026-04-28T17:48:57.992Z</time></trkpt><trkpt lat="37.9814058" lon="13.6847222"><ele>32.0</ele><time>2026-04-28T17:48:58.991Z</time></trkpt><trkpt lat="37.9815186" lon="13.6847228"><ele>32.0</ele><time>2026-04-28T17:48:59.992Z</time></trkpt><trkpt lat="37.981627" lon="13.6847281"><ele>32.0</ele><time>2026-04-28T17:49:00.992Z</time></trkpt><trkpt lat="37.9817291" lon="13.6847322"><ele>32.0</ele><time>2026-04-28T17:49:01.992Z</time></trkpt><trkpt lat="37.9818172" lon="13.6847372"><ele>32.0</ele><time>2026-04-28T17:49:02.992Z</time></trkpt><trkpt lat="37.9818885" lon="13.6847359"><ele>32.0</ele><time>2026-04-28T17:49:03.992Z</time></trkpt><trkpt lat="37.9819678" lon="13.6847247"><ele>31.333333333333332</ele><time>2026-04-28T17:49:05.991Z</time></trkpt><trkpt lat="37.9820324" lon="13.6846651"><ele>30.666666666666664</ele><time>2026-04-28T17:49:07.992Z</time></trkpt><trkpt lat="37.9820747" lon="13.6846026"><ele>30.0</ele><time>2026-04-28T17:49:08.991Z</time></trkpt><trkpt lat="37.9821133" lon="13.6845273"><ele>29.333333333333336</ele><time>2026-04-28T17:49:09.992Z</time></trkpt><trkpt lat="37.9821575" lon="13.6844343"><ele>28.666666666666668</ele><time>2026-04-28T17:49:10.992Z</time></trkpt><trkpt lat="37.9822032" lon="13.6843385"><ele>28.0</ele><time>2026-04-28T17:49:11.992Z</time></trkpt><trkpt lat="37.9822474" lon="13.6842479"><ele>28.000000000000004</ele><time>2026-04-28T17:49:12.991Z</time></trkpt><trkpt lat="37.9822844" lon="13.6841709"><ele>28.0</ele><time>2026-04-28T17:49:13.992Z</time></trkpt><trkpt lat="37.9823225" lon="13.6841053"><ele>28.0</ele><time>2026-04-28T17:49:14.992Z</time></trkpt><trkpt lat="37.982409" lon="13.6840508"><ele>28.0</ele><time>2026-04-28T17:49:16.992Z</time></trkpt><trkpt lat="37.9824861" lon="13.6840374"><ele>28.000000000000004</ele><time>2026-04-28T17:49:17.992Z</time></trkpt><trkpt lat="37.9825892" lon="13.6840103"><ele>28.0</ele><time>2026-04-28T17:49:18.992Z</time></trkpt><trkpt lat="37.9827134" lon="13.6839658"><ele>29.666666666666668</ele><time>2026-04-28T17:49:19.992Z</time></trkpt><trkpt lat="37.9828543" lon="13.6839307"><ele>31.333333333333336</ele><time>2026-04-28T17:49:20.992Z</time></trkpt><trkpt lat="37.9830176" lon="13.6839086"><ele>33.0</ele><time>2026-04-28T17:49:21.992Z</time></trkpt><trkpt lat="37.983194" lon="13.6839056"><ele>31.0</ele><time>2026-04-28T17:49:22.991Z</time></trkpt><trkpt lat="37.983384" lon="13.6839122"><ele>29.0</ele><time>2026-04-28T17:49:23.992Z</time></trkpt><trkpt lat="37.9835865" lon="13.683935"><ele>27.0</ele><time>2026-04-28T17:49:24.992Z</time></trkpt><trkpt lat="37.9837869" lon="13.683966"><ele>27.0</ele><time>2026-04-28T17:49:25.991Z</time></trkpt><trkpt lat="37.9839703" lon="13.6840119"><ele>27.0</ele><time>2026-04-28T17:49:26.991Z</time></trkpt><trkpt lat="37.9841377" lon="13.6840811"><ele>27.0</ele><time>2026-04-28T17:49:27.991Z</time></trkpt><trkpt lat="37.9842905" lon="13.6841614"><ele>26.5</ele><time>2026-04-28T17:49:28.992Z</time></trkpt><trkpt lat="37.9844332" lon="13.6842362"><ele>26.0</ele><time>2026-04-28T17:49:29.992Z</time></trkpt><trkpt lat="37.9845634" lon="13.6842929"><ele>25.5</ele><time>2026-04-28T17:49:30.992Z</time></trkpt><trkpt lat="37.9846838" lon="13.6843348"><ele>25.0</ele><time>2026-04-28T17:49:31.992Z</time></trkpt><trkpt lat="37.9847933" lon="13.6843505"><ele>25.000000000000004</ele><time>2026-04-28T17:49:32.992Z</time></trkpt><trkpt lat="37.9848881" lon="13.6843641"><ele>25.0</ele><time>2026-04-28T17:49:33.992Z</time></trkpt><trkpt lat="37.9849689" lon="13.6843799"><ele>25.0</ele><time>2026-04-28T17:49:34.992Z</time></trkpt><trkpt lat="37.9850467" lon="13.6843903"><ele>25.0</ele><time>2026-04-28T17:49:35.992Z</time></trkpt><trkpt lat="37.9851269" lon="13.6843923"><ele>25.000000000000004</ele><time>2026-04-28T17:49:36.992Z</time></trkpt><trkpt lat="37.9852175" lon="13.6843861"><ele>25.0</ele><time>2026-04-28T17:49:37.992Z</time></trkpt><trkpt lat="37.9853422" lon="13.6843488"><ele>26.333333333333336</ele><time>2026-04-28T17:49:38.992Z</time></trkpt><trkpt lat="37.9854806" lon="13.6843022"><ele>27.666666666666664</ele><time>2026-04-28T17:49:39.992Z</time></trkpt><trkpt lat="37.9856358" lon="13.6842441"><ele>29.0</ele><time>2026-04-28T17:49:40.992Z</time></trkpt><trkpt lat="37.985812" lon="13.684196"><ele>29.0</ele><time>2026-04-28T17:49:41.992Z</time></trkpt><trkpt lat="37.9859874" lon="13.684154"><ele>29.0</ele><time>2026-04-28T17:49:42.992Z</time></trkpt><trkpt lat="37.9861547" lon="13.6841168"><ele>29.0</ele><time>2026-04-28T17:49:43.992Z</time></trkpt><trkpt lat="37.9863263" lon="13.6840836"><ele>29.0</ele><time>2026-04-28T17:49:44.992Z</time></trkpt><trkpt lat="37.9864893" lon="13.6840492"><ele>29.0</ele><time>2026-04-28T17:49:45.992Z</time></trkpt><trkpt lat="37.98665" lon="13.6840065"><ele>29.0</ele><time>2026-04-28T17:49:46.992Z</time></trkpt><trkpt lat="37.986802" lon="13.6839484"><ele>24.666666666666664</ele><time>2026-04-28T17:49:47.991Z</time></trkpt><trkpt lat="37.9869457" lon="13.6838691"><ele>20.333333333333332</ele><time>2026-04-28T17:49:48.992Z</time></trkpt><trkpt lat="37.9870859" lon="13.6837751"><ele>16.0</ele><time>2026-04-28T17:49:49.992Z</time></trkpt><trkpt lat="37.9872247" lon="13.683692"><ele>16.0</ele><time>2026-04-28T17:49:50.992Z</time></trkpt><trkpt lat="37.9873696" lon="13.6836285"><ele>16.0</ele><time>2026-04-28T17:49:51.991Z</time></trkpt><trkpt lat="37.9875198" lon="13.6835949"><ele>16.0</ele><time>2026-04-28T17:49:52.991Z</time></trkpt><trkpt lat="37.9876698" lon="13.6835983"><ele>14.333333333333332</ele><time>2026-04-28T17:49:53.992Z</time></trkpt><trkpt lat="37.9878183" lon="13.6836508"><ele>12.666666666666666</ele><time>2026-04-28T17:49:54.992Z</time></trkpt><trkpt lat="37.9879529" lon="13.6837356"><ele>11.0</ele><time>2026-04-28T17:49:55.991Z</time></trkpt><trkpt lat="37.9880801" lon="13.6838393"><ele>11.0</ele><time>2026-04-28T17:49:56.992Z</time></trkpt><trkpt lat="37.9881984" lon="13.6839476"><ele>11.0</ele><time>2026-04-28T17:49:57.992Z</time></trkpt><trkpt lat="37.9883158" lon="13.6840476"><ele>11.0</ele><time>2026-04-28T17:49:58.992Z</time></trkpt><trkpt lat="37.9884222" lon="13.684147"><ele>11.0</ele><time>2026-04-28T17:49:59.992Z</time></trkpt><trkpt lat="37.9885168" lon="13.684232"><ele>11.0</ele><time>2026-04-28T17:50:00.992Z</time></trkpt><trkpt lat="37.9885954" lon="13.6843053"><ele>11.0</ele><time>2026-04-28T17:50:01.992Z</time></trkpt><trkpt lat="37.988664" lon="13.6843605"><ele>11.0</ele><time>2026-04-28T17:50:02.992Z</time></trkpt><trkpt lat="37.9887566" lon="13.6844592"><ele>11.0</ele><time>2026-04-28T17:50:04.992Z</time></trkpt><trkpt lat="37.9888227" lon="13.684527"><ele>11.0</ele><time>2026-04-28T17:50:06.992Z</time></trkpt><trkpt lat="37.9888814" lon="13.6845675"><ele>10.8</ele><time>2026-04-28T17:50:12.991Z</time></trkpt><trkpt lat="37.9889485" lon="13.6845659"><ele>10.600000000000001</ele><time>2026-04-28T17:50:17.991Z</time></trkpt><trkpt lat="37.9890128" lon="13.6845173"><ele>10.4</ele><time>2026-04-28T17:50:18.992Z</time></trkpt><trkpt lat="37.989092" lon="13.6844558"><ele>10.2</ele><time>2026-04-28T17:50:19.992Z</time></trkpt><trkpt lat="37.9891813" lon="13.6843649"><ele>10.0</ele><time>2026-04-28T17:50:20.991Z</time></trkpt><trkpt lat="37.989288" lon="13.6842494"><ele>9.666666666666668</ele><time>2026-04-28T17:50:21.991Z</time></trkpt><trkpt lat="37.9894074" lon="13.6841123"><ele>9.333333333333334</ele><time>2026-04-28T17:50:22.992Z</time></trkpt><trkpt lat="37.9895453" lon="13.6839681"><ele>9.0</ele><time>2026-04-28T17:50:23.991Z</time></trkpt><trkpt lat="37.9896862" lon="13.6838303"><ele>9.0</ele><time>2026-04-28T17:50:24.992Z</time></trkpt><trkpt lat="37.9898157" lon="13.6837063"><ele>9.0</ele><time>2026-04-28T17:50:25.992Z</time></trkpt><trkpt lat="37.9899306" lon="13.6835767"><ele>9.0</ele><time>2026-04-28T17:50:26.991Z</time></trkpt><trkpt lat="37.9900485" lon="13.6834252"><ele>8.75</ele><time>2026-04-28T17:50:27.992Z</time></trkpt><trkpt lat="37.9901532" lon="13.6832664"><ele>8.5</ele><time>2026-04-28T17:50:28.992Z</time></trkpt><trkpt lat="37.9902357" lon="13.6831091"><ele>8.25</ele><time>2026-04-28T17:50:29.992Z</time></trkpt><trkpt lat="37.9903012" lon="13.68296"><ele>8.0</ele><time>2026-04-28T17:50:30.992Z</time></trkpt><trkpt lat="37.9903546" lon="13.6828258"><ele>8.200000000000001</ele><time>2026-04-28T17:50:31.991Z</time></trkpt><trkpt lat="37.9903972" lon="13.6826971"><ele>8.4</ele><time>2026-04-28T17:50:32.991Z</time></trkpt><trkpt lat="37.9904263" lon="13.6825816"><ele>8.600000000000001</ele><time>2026-04-28T17:50:33.992Z</time></trkpt><trkpt lat="37.9904503" lon="13.6824841"><ele>8.8</ele><time>2026-04-28T17:50:34.991Z</time></trkpt><trkpt lat="37.9905029" lon="13.6823617"><ele>9.0</ele><time>2026-04-28T17:50:36.991Z</time></trkpt><trkpt lat="37.9905982" lon="13.6823023"><ele>9.0</ele><time>2026-04-28T17:50:38.992Z</time></trkpt><trkpt lat="37.9906667" lon="13.6822857"><ele>9.0</ele><time>2026-04-28T17:50:39.992Z</time></trkpt><trkpt lat="37.9907324" lon="13.6822781"><ele>9.0</ele><time>2026-04-28T17:50:40.992Z</time></trkpt><trkpt lat="37.9908406" lon="13.6822649"><ele>9.0</ele><time>2026-04-28T17:50:42.992Z</time></trkpt><trkpt lat="37.9909071" lon="13.6822534"><ele>9.0</ele><time>2026-04-28T17:50:43.992Z</time></trkpt><trkpt lat="37.9910244" lon="13.6822295"><ele>9.0</ele><time>2026-04-28T17:50:45.992Z</time></trkpt><trkpt lat="37.9911178" lon="13.6822061"><ele>8.833333333333334</ele><time>2026-04-28T17:50:47.991Z</time></trkpt><trkpt lat="37.9911938" lon="13.6821884"><ele>8.666666666666666</ele><time>2026-04-28T17:50:49.992Z</time></trkpt><trkpt lat="37.9912978" lon="13.6821648"><ele>8.5</ele><time>2026-04-28T17:50:51.991Z</time></trkpt><trkpt lat="37.9913668" lon="13.6821473"><ele>8.333333333333332</ele><time>2026-04-28T17:50:52.992Z</time></trkpt><trkpt lat="37.9914383" lon="13.6821361"><ele>8.166666666666666</ele><time>2026-04-28T17:50:53.991Z</time></trkpt><trkpt lat="37.9915093" lon="13.6821224"><ele>8.0</ele><time>2026-04-28T17:50:54.991Z</time></trkpt><trkpt lat="37.9916249" lon="13.6820954"><ele>7.4</ele><time>2026-04-28T17:50:56.992Z</time></trkpt><trkpt lat="37.9917041" lon="13.6820762"><ele>6.800000000000001</ele><time>2026-04-28T17:50:58.992Z</time></trkpt><trkpt lat="37.9918278" lon="13.6820186"><ele>6.2</ele><time>2026-04-28T17:51:11.991Z</time></trkpt><trkpt lat="37.9919289" lon="13.6819419"><ele>5.6</ele><time>2026-04-28T17:51:13.992Z</time></trkpt><trkpt lat="37.9920082" lon="13.6818314"><ele>5.0</ele><time>2026-04-28T17:51:15.992Z</time></trkpt><trkpt lat="37.9920479" lon="13.6817562"><ele>5.0</ele><time>2026-04-28T17:51:16.991Z</time></trkpt><trkpt lat="37.9920785" lon="13.6816655"><ele>5.0</ele><time>2026-04-28T17:51:17.991Z</time></trkpt><trkpt lat="37.9920988" lon="13.6815624"><ele>5.0</ele><time>2026-04-28T17:51:18.992Z</time></trkpt><trkpt lat="37.9921097" lon="13.6814418"><ele>5.0</ele><time>2026-04-28T17:51:19.992Z</time></trkpt><trkpt lat="37.9921159" lon="13.6813183"><ele>5.0</ele><time>2026-04-28T17:51:20.992Z</time></trkpt><trkpt lat="37.9921228" lon="13.6812075"><ele>5.0</ele><time>2026-04-28T17:51:21.991Z</time></trkpt><trkpt lat="37.9921283" lon="13.6810946"><ele>5.4</ele><time>2026-04-28T17:51:22.991Z</time></trkpt><trkpt lat="37.9921387" lon="13.6809731"><ele>5.8</ele><time>2026-04-28T17:51:23.992Z</time></trkpt><trkpt lat="37.9921505" lon="13.680841"><ele>6.199999999999999</ele><time>2026-04-28T17:51:24.992Z</time></trkpt><trkpt lat="37.9921625" lon="13.6807088"><ele>6.6</ele><time>2026-04-28T17:51:25.992Z</time></trkpt><trkpt lat="37.9921724" lon="13.6805745"><ele>7.0</ele><time>2026-04-28T17:51:26.991Z</time></trkpt><trkpt lat="37.9921881" lon="13.6804358"><ele>7.0</ele><time>2026-04-28T17:51:27.992Z</time></trkpt><trkpt lat="37.9922044" lon="13.6802814"><ele>7.0</ele><time>2026-04-28T17:51:28.992Z</time></trkpt><trkpt lat="37.9922221" lon="13.6801125"><ele>7.0</ele><time>2026-04-28T17:51:29.992Z</time></trkpt><trkpt lat="37.9922475" lon="13.6799266"><ele>7.0</ele><time>2026-04-28T17:51:30.992Z</time></trkpt><trkpt lat="37.9922709" lon="13.6797493"><ele>7.0</ele><time>2026-04-28T17:51:31.992Z</time></trkpt><trkpt lat="37.992305" lon="13.6795662"><ele>7.0</ele><time>2026-04-28T17:51:32.992Z</time></trkpt><trkpt lat="37.9923529" lon="13.679381"><ele>7.0</ele><time>2026-04-28T17:51:33.992Z</time></trkpt><trkpt lat="37.9924133" lon="13.6792091"><ele>8.25</ele><time>2026-04-28T17:51:34.991Z</time></trkpt><trkpt lat="37.9924822" lon="13.6790523"><ele>9.5</ele><time>2026-04-28T17:51:35.992Z</time></trkpt><trkpt lat="37.9925561" lon="13.6788985"><ele>10.75</ele><time>2026-04-28T17:51:36.992Z</time></trkpt><trkpt lat="37.9926279" lon="13.6787446"><ele>12.0</ele><time>2026-04-28T17:51:37.991Z</time></trkpt><trkpt lat="37.9926944" lon="13.6785893"><ele>9.25</ele><time>2026-04-28T17:51:38.992Z</time></trkpt><trkpt lat="37.9927568" lon="13.678432"><ele>6.5</ele><time>2026-04-28T17:51:39.992Z</time></trkpt><trkpt lat="37.9928211" lon="13.678276"><ele>3.75</ele><time>2026-04-28T17:51:40.992Z</time></trkpt><trkpt lat="37.9928841" lon="13.6781262"><ele>1.0</ele><time>2026-04-28T17:51:41.992Z</time></trkpt><trkpt lat="37.9929506" lon="13.677981"><ele>1.0</ele><time>2026-04-28T17:51:42.991Z</time></trkpt><trkpt lat="37.9930212" lon="13.6778333"><ele>1.0</ele><time>2026-04-28T17:51:43.992Z</time></trkpt><trkpt lat="37.9930955" lon="13.6776825"><ele>1.0</ele><time>2026-04-28T17:51:44.991Z</time></trkpt><trkpt lat="37.9931689" lon="13.6775256"><ele>1.0</ele><time>2026-04-28T17:51:45.992Z</time></trkpt><trkpt lat="37.9932512" lon="13.677347"><ele>2.6666666666666665</ele><time>2026-04-28T17:51:46.992Z</time></trkpt><trkpt lat="37.9933387" lon="13.6771396"><ele>4.333333333333333</ele><time>2026-04-28T17:51:47.991Z</time></trkpt><trkpt lat="37.9934303" lon="13.6769082"><ele>6.0</ele><time>2026-04-28T17:51:48.992Z</time></trkpt><trkpt lat="37.9935272" lon="13.6766661"><ele>6.0</ele><time>2026-04-28T17:51:49.992Z</time></trkpt><trkpt lat="37.993625" lon="13.6764229"><ele>6.0</ele><time>2026-04-28T17:51:50.992Z</time></trkpt><trkpt lat="37.9937121" lon="13.6761751"><ele>6.0</ele><time>2026-04-28T17:51:51.992Z</time></trkpt><trkpt lat="37.9937926" lon="13.6759203"><ele>8.333333333333332</ele><time>2026-04-28T17:51:52.992Z</time></trkpt><trkpt lat="37.9938621" lon="13.6756666"><ele>10.666666666666666</ele><time>2026-04-28T17:51:53.991Z</time></trkpt><trkpt lat="37.9939212" lon="13.6754173"><ele>13.0</ele><time>2026-04-28T17:51:54.992Z</time></trkpt><trkpt lat="37.9939699" lon="13.6751713"><ele>15.0</ele><time>2026-04-28T17:51:55.992Z</time></trkpt><trkpt lat="37.9940136" lon="13.6749274"><ele>17.0</ele><time>2026-04-28T17:51:56.991Z</time></trkpt><trkpt lat="37.9940447" lon="13.674699"><ele>19.0</ele><time>2026-04-28T17:51:57.991Z</time></trkpt><trkpt lat="37.9940683" lon="13.6745134"><ele>19.25</ele><time>2026-04-28T17:51:58.992Z</time></trkpt><trkpt lat="37.9940831" lon="13.674347"><ele>19.5</ele><time>2026-04-28T17:51:59.992Z</time></trkpt><trkpt lat="37.9940779" lon="13.6741762"><ele>19.75</ele><time>2026-04-28T17:52:00.992Z</time></trkpt><trkpt lat="37.99404" lon="13.6739997"><ele>20.0</ele><time>2026-04-28T17:52:01.992Z</time></trkpt><trkpt lat="37.9939694" lon="13.6738146"><ele>20.0</ele><time>2026-04-28T17:52:02.992Z</time></trkpt><trkpt lat="37.9938766" lon="13.6736135"><ele>20.0</ele><time>2026-04-28T17:52:03.992Z</time></trkpt><trkpt lat="37.9937805" lon="13.6733892"><ele>20.0</ele><time>2026-04-28T17:52:04.992Z</time></trkpt><trkpt lat="37.9936849" lon="13.6731409"><ele>19.333333333333336</ele><time>2026-04-28T17:52:05.992Z</time></trkpt><trkpt lat="37.9935867" lon="13.6728847"><ele>18.666666666666668</ele><time>2026-04-28T17:52:06.992Z</time></trkpt><trkpt lat="37.9935041" lon="13.672626"><ele>18.0</ele><time>2026-04-28T17:52:07.992Z</time></trkpt><trkpt lat="37.9934474" lon="13.6723705"><ele>18.0</ele><time>2026-04-28T17:52:08.992Z</time></trkpt><trkpt lat="37.9934177" lon="13.6721192"><ele>18.0</ele><time>2026-04-28T17:52:09.992Z</time></trkpt><trkpt lat="37.9934081" lon="13.6718583"><ele>18.0</ele><time>2026-04-28T17:52:10.992Z</time></trkpt><trkpt lat="37.9934224" lon="13.671577"><ele>18.0</ele><time>2026-04-28T17:52:11.992Z</time></trkpt><trkpt lat="37.9934553" lon="13.6712946"><ele>18.0</ele><time>2026-04-28T17:52:12.992Z</time></trkpt><trkpt lat="37.9935057" lon="13.6710246"><ele>18.0</ele><time>2026-04-28T17:52:13.992Z</time></trkpt><trkpt lat="37.9935656" lon="13.6707799"><ele>18.0</ele><time>2026-04-28T17:52:14.991Z</time></trkpt><trkpt lat="37.9936174" lon="13.670552"><ele>18.0</ele><time>2026-04-28T17:52:15.992Z</time></trkpt><trkpt lat="37.9936621" lon="13.670334"><ele>18.0</ele><time>2026-04-28T17:52:16.992Z</time></trkpt><trkpt lat="37.9936851" lon="13.670116"><ele>18.333333333333332</ele><time>2026-04-28T17:52:17.992Z</time></trkpt><trkpt lat="37.9936767" lon="13.6698753"><ele>18.666666666666664</ele><time>2026-04-28T17:52:18.992Z</time></trkpt><trkpt lat="37.9936498" lon="13.6696158"><ele>19.0</ele><time>2026-04-28T17:52:19.991Z</time></trkpt><trkpt lat="37.9936148" lon="13.6693339"><ele>18.0</ele><time>2026-04-28T17:52:20.992Z</time></trkpt><trkpt lat="37.9935835" lon="13.6690432"><ele>17.0</ele><time>2026-04-28T17:52:21.992Z</time></trkpt><trkpt lat="37.993558" lon="13.6687524"><ele>12.5</ele><time>2026-04-28T17:52:22.992Z</time></trkpt><trkpt lat="37.9935286" lon="13.6684592"><ele>8.0</ele><time>2026-04-28T17:52:23.992Z</time></trkpt><trkpt lat="37.993503" lon="13.6681671"><ele>8.0</ele><time>2026-04-28T17:52:24.992Z</time></trkpt><trkpt lat="37.993476" lon="13.6678804"><ele>8.0</ele><time>2026-04-28T17:52:25.992Z</time></trkpt><trkpt lat="37.993452" lon="13.6675983"><ele>7.0</ele><time>2026-04-28T17:52:26.991Z</time></trkpt><trkpt lat="37.9934385" lon="13.6673202"><ele>6.0</ele><time>2026-04-28T17:52:27.992Z</time></trkpt><trkpt lat="37.9934429" lon="13.6670497"><ele>5.0</ele><time>2026-04-28T17:52:28.991Z</time></trkpt><trkpt lat="37.9934584" lon="13.6667947"><ele>4.666666666666667</ele><time>2026-04-28T17:52:29.991Z</time></trkpt><trkpt lat="37.9934774" lon="13.6665588"><ele>4.333333333333333</ele><time>2026-04-28T17:52:30.992Z</time></trkpt><trkpt lat="37.9934929" lon="13.6663365"><ele>4.0</ele><time>2026-04-28T17:52:31.992Z</time></trkpt><trkpt lat="37.9935044" lon="13.6661215"><ele>4.666666666666666</ele><time>2026-04-28T17:52:32.991Z</time></trkpt><trkpt lat="37.9935036" lon="13.665891"><ele>5.333333333333333</ele><time>2026-04-28T17:52:33.992Z</time></trkpt><trkpt lat="37.9934806" lon="13.6656433"><ele>6.0</ele><time>2026-04-28T17:52:34.992Z</time></trkpt><trkpt lat="37.9934316" lon="13.6653811"><ele>7.666666666666666</ele><time>2026-04-28T17:52:35.992Z</time></trkpt><trkpt lat="37.9933745" lon="13.665118"><ele>9.333333333333332</ele><time>2026-04-28T17:52:36.992Z</time></trkpt><trkpt lat="37.9933234" lon="13.6648532"><ele>11.0</ele><time>2026-04-28T17:52:37.992Z</time></trkpt><trkpt lat="37.9932909" lon="13.664583"><ele>17.666666666666668</ele><time>2026-04-28T17:52:38.992Z</time></trkpt><trkpt lat="37.9932781" lon="13.6643088"><ele>24.333333333333336</ele><time>2026-04-28T17:52:39.992Z</time></trkpt><trkpt lat="37.9932845" lon="13.664032"><ele>31.0</ele><time>2026-04-28T17:52:40.991Z</time></trkpt><trkpt lat="37.9933008" lon="13.6637542"><ele>31.333333333333336</ele><time>2026-04-28T17:52:41.992Z</time></trkpt><trkpt lat="37.9933178" lon="13.6634736"><ele>31.666666666666664</ele><time>2026-04-28T17:52:42.991Z</time></trkpt><trkpt lat="37.9933341" lon="13.6631949"><ele>32.0</ele><time>2026-04-28T17:52:43.992Z</time></trkpt><trkpt lat="37.9933535" lon="13.6629139"><ele>27.666666666666664</ele><time>2026-04-28T17:52:44.992Z</time></trkpt><trkpt lat="37.9933779" lon="13.6626366"><ele>23.333333333333332</ele><time>2026-04-28T17:52:45.991Z</time></trkpt><trkpt lat="37.993402" lon="13.6623562"><ele>19.0</ele><time>2026-04-28T17:52:46.991Z</time></trkpt><trkpt lat="37.9934309" lon="13.6620765"><ele>20.333333333333332</ele><time>2026-04-28T17:52:47.992Z</time></trkpt><trkpt lat="37.9934665" lon="13.661802"><ele>21.666666666666668</ele><time>2026-04-28T17:52:48.992Z</time></trkpt><trkpt lat="37.99352" lon="13.6615469"><ele>23.0</ele><time>2026-04-28T17:52:49.992Z</time></trkpt><trkpt lat="37.9936028" lon="13.6613214"><ele>23.0</ele><time>2026-04-28T17:52:50.992Z</time></trkpt><trkpt lat="37.993702" lon="13.6611281"><ele>23.0</ele><time>2026-04-28T17:52:51.992Z</time></trkpt><trkpt lat="37.9938258" lon="13.6609507"><ele>23.0</ele><time>2026-04-28T17:52:52.991Z</time></trkpt><trkpt lat="37.9939699" lon="13.6608047"><ele>24.333333333333336</ele><time>2026-04-28T17:52:53.992Z</time></trkpt><trkpt lat="37.9941382" lon="13.6606754"><ele>25.666666666666668</ele><time>2026-04-28T17:52:54.992Z</time></trkpt><trkpt lat="37.9943201" lon="13.6605464"><ele>27.0</ele><time>2026-04-28T17:52:55.992Z</time></trkpt><trkpt lat="37.9945094" lon="13.6604167"><ele>24.666666666666668</ele><time>2026-04-28T17:52:56.992Z</time></trkpt><trkpt lat="37.9946854" lon="13.6602811"><ele>22.333333333333336</ele><time>2026-04-28T17:52:57.992Z</time></trkpt><trkpt lat="37.994844" lon="13.6601296"><ele>20.0</ele><time>2026-04-28T17:52:58.991Z</time></trkpt><trkpt lat="37.9949892" lon="13.6599361"><ele>14.5</ele><time>2026-04-28T17:52:59.992Z</time></trkpt><trkpt lat="37.9951233" lon="13.6596919"><ele>9.0</ele><time>2026-04-28T17:53:00.992Z</time></trkpt><trkpt lat="37.9952427" lon="13.6594113"><ele>9.0</ele><time>2026-04-28T17:53:01.992Z</time></trkpt><trkpt lat="37.9953634" lon="13.6591092"><ele>9.0</ele><time>2026-04-28T17:53:02.992Z</time></trkpt><trkpt lat="37.9954941" lon="13.6587955"><ele>12.0</ele><time>2026-04-28T17:53:03.992Z</time></trkpt><trkpt lat="37.995639" lon="13.6584699"><ele>15.0</ele><time>2026-04-28T17:53:04.992Z</time></trkpt><trkpt lat="37.9957896" lon="13.6581269"><ele>12.0</ele><time>2026-04-28T17:53:05.991Z</time></trkpt><trkpt lat="37.9959402" lon="13.6577775"><ele>9.0</ele><time>2026-04-28T17:53:06.992Z</time></trkpt><trkpt lat="37.9960898" lon="13.6574441"><ele>9.0</ele><time>2026-04-28T17:53:07.992Z</time></trkpt><trkpt lat="37.9962306" lon="13.6571363"><ele>9.0</ele><time>2026-04-28T17:53:08.992Z</time></trkpt><trkpt lat="37.9963613" lon="13.6568521"><ele>12.0</ele><time>2026-04-28T17:53:09.991Z</time></trkpt><trkpt lat="37.9964811" lon="13.6565774"><ele>15.0</ele><time>2026-04-28T17:53:10.992Z</time></trkpt><trkpt lat="37.9965915" lon="13.6563198"><ele>12.0</ele><time>2026-04-28T17:53:11.992Z</time></trkpt><trkpt lat="37.9966915" lon="13.6560738"><ele>9.0</ele><time>2026-04-28T17:53:12.991Z</time></trkpt><trkpt lat="37.9967742" lon="13.6558306"><ele>6.0</ele><time>2026-04-28T17:53:13.992Z</time></trkpt><trkpt lat="37.9968357" lon="13.6555876"><ele>6.0</ele><time>2026-04-28T17:53:14.992Z</time></trkpt><trkpt lat="37.9968815" lon="13.6553491"><ele>6.0</ele><time>2026-04-28T17:53:15.991Z</time></trkpt><trkpt lat="37.9969171" lon="13.6551096"><ele>6.0</ele><time>2026-04-28T17:53:16.992Z</time></trkpt><trkpt lat="37.9969405" lon="13.6548712"><ele>8.0</ele><time>2026-04-28T17:53:17.992Z</time></trkpt><trkpt lat="37.9969511" lon="13.6546299"><ele>10.0</ele><time>2026-04-28T17:53:18.992Z</time></trkpt><trkpt lat="37.996944" lon="13.6543829"><ele>12.0</ele><time>2026-04-28T17:53:19.991Z</time></trkpt><trkpt lat="37.9969235" lon="13.6541302"><ele>13.333333333333332</ele><time>2026-04-28T17:53:20.992Z</time></trkpt><trkpt lat="37.9968981" lon="13.6538756"><ele>14.666666666666666</ele><time>2026-04-28T17:53:21.992Z</time></trkpt><trkpt lat="37.9968771" lon="13.6536143"><ele>16.0</ele><time>2026-04-28T17:53:22.992Z</time></trkpt><trkpt lat="37.9968589" lon="13.6533535"><ele>16.0</ele><time>2026-04-28T17:53:23.992Z</time></trkpt><trkpt lat="37.9968236" lon="13.6525645"><ele>16.0</ele><time>2026-04-28T17:53:26.992Z</time></trkpt><trkpt lat="37.997276" lon="13.6523774"><ele>16.0</ele><time>2026-04-28T17:53:27.992Z</time></trkpt><trkpt lat="37.9974172" lon="13.6520669"><ele>16.0</ele><time>2026-04-28T17:53:28.992Z</time></trkpt><trkpt lat="37.9975542" lon="13.6517588"><ele>12.5</ele><time>2026-04-28T17:53:29.992Z</time></trkpt><trkpt lat="37.9976727" lon="13.6514516"><ele>9.0</ele><time>2026-04-28T17:53:30.992Z</time></trkpt><trkpt lat="37.9977917" lon="13.6511576"><ele>9.5</ele><time>2026-04-28T17:53:31.991Z</time></trkpt><trkpt lat="37.9979084" lon="13.6508864"><ele>10.0</ele><time>2026-04-28T17:53:32.992Z</time></trkpt><trkpt lat="37.9980251" lon="13.6506373"><ele>10.0</ele><time>2026-04-28T17:53:33.992Z</time></trkpt><trkpt lat="37.9981396" lon="13.6504078"><ele>10.0</ele><time>2026-04-28T17:53:34.992Z</time></trkpt><trkpt lat="37.9982662" lon="13.6501945"><ele>10.0</ele><time>2026-04-28T17:53:35.992Z</time></trkpt><trkpt lat="37.9984061" lon="13.6499963"><ele>8.5</ele><time>2026-04-28T17:53:36.992Z</time></trkpt><trkpt lat="37.9985715" lon="13.6498065"><ele>7.0</ele><time>2026-04-28T17:53:37.992Z</time></trkpt><trkpt lat="37.9987523" lon="13.6496188"><ele>9.0</ele><time>2026-04-28T17:53:38.992Z</time></trkpt><trkpt lat="37.9989413" lon="13.6494265"><ele>11.0</ele><time>2026-04-28T17:53:39.992Z</time></trkpt><trkpt lat="37.9991324" lon="13.6492345"><ele>6.0</ele><time>2026-04-28T17:53:40.992Z</time></trkpt><trkpt lat="37.9993219" lon="13.6490333"><ele>1.0</ele><time>2026-04-28T17:53:41.992Z</time></trkpt><trkpt lat="37.9995039" lon="13.6488108"><ele>4.0</ele><time>2026-04-28T17:53:42.992Z</time></trkpt><trkpt lat="37.9996777" lon="13.6485695"><ele>7.0</ele><time>2026-04-28T17:53:43.991Z</time></trkpt><trkpt lat="37.9998322" lon="13.6483171"><ele>7.0</ele><time>2026-04-28T17:53:44.991Z</time></trkpt><trkpt lat="37.9999665" lon="13.6480613"><ele>7.0</ele><time>2026-04-28T17:53:45.992Z</time></trkpt><trkpt lat="38.0000977" lon="13.6477941"><ele>9.0</ele><time>2026-04-28T17:53:46.991Z</time></trkpt><trkpt lat="38.0002276" lon="13.6475228"><ele>11.0</ele><time>2026-04-28T17:53:47.992Z</time></trkpt><trkpt lat="38.0003529" lon="13.6472539"><ele>11.0</ele><time>2026-04-28T17:53:48.991Z</time></trkpt><trkpt lat="38.0004849" lon="13.6470055"><ele>11.0</ele><time>2026-04-28T17:53:49.992Z</time></trkpt><trkpt lat="38.000621" lon="13.6467621"><ele>10.0</ele><time>2026-04-28T17:53:50.992Z</time></trkpt><trkpt lat="38.000771" lon="13.6465324"><ele>9.0</ele><time>2026-04-28T17:53:51.992Z</time></trkpt><trkpt lat="38.0009241" lon="13.6463053"><ele>11.0</ele><time>2026-04-28T17:53:52.991Z</time></trkpt><trkpt lat="38.001085" lon="13.6460816"><ele>13.0</ele><time>2026-04-28T17:53:53.992Z</time></trkpt><trkpt lat="38.0012496" lon="13.6458609"><ele>13.0</ele><time>2026-04-28T17:53:54.991Z</time></trkpt><trkpt lat="38.0014169" lon="13.6456457"><ele>13.0</ele><time>2026-04-28T17:53:55.992Z</time></trkpt><trkpt lat="38.0015758" lon="13.645438"><ele>12.333333333333332</ele><time>2026-04-28T17:53:56.991Z</time></trkpt><trkpt lat="38.0017275" lon="13.6452423"><ele>11.666666666666666</ele><time>2026-04-28T17:53:57.992Z</time></trkpt><trkpt lat="38.0018708" lon="13.6450517"><ele>11.0</ele><time>2026-04-28T17:53:58.992Z</time></trkpt><trkpt lat="38.0020163" lon="13.6448651"><ele>11.0</ele><time>2026-04-28T17:53:59.992Z</time></trkpt><trkpt lat="38.0021515" lon="13.6446815"><ele>11.0</ele><time>2026-04-28T17:54:00.992Z</time></trkpt><trkpt lat="38.0022772" lon="13.64451"><ele>11.0</ele><time>2026-04-28T17:54:01.992Z</time></trkpt><trkpt lat="38.0023932" lon="13.6443412"><ele>10.0</ele><time>2026-04-28T17:54:02.992Z</time></trkpt><trkpt lat="38.0025078" lon="13.6441626"><ele>9.0</ele><time>2026-04-28T17:54:03.992Z</time></trkpt><trkpt lat="38.0026223" lon="13.6439311"><ele>8.0</ele><time>2026-04-28T17:54:04.992Z</time></trkpt><trkpt lat="38.0027454" lon="13.6436789"><ele>10.0</ele><time>2026-04-28T17:54:05.991Z</time></trkpt><trkpt lat="38.0028652" lon="13.6434245"><ele>12.0</ele><time>2026-04-28T17:54:06.992Z</time></trkpt><trkpt lat="38.0029822" lon="13.6431724"><ele>12.0</ele><time>2026-04-28T17:54:07.992Z</time></trkpt><trkpt lat="38.0030987" lon="13.6429256"><ele>12.0</ele><time>2026-04-28T17:54:08.991Z</time></trkpt><trkpt lat="38.0032093" lon="13.6426985"><ele>12.0</ele><time>2026-04-28T17:54:09.991Z</time></trkpt><trkpt lat="38.0033117" lon="13.6424822"><ele>12.0</ele><time>2026-04-28T17:54:10.991Z</time></trkpt><trkpt lat="38.0034101" lon="13.6422823"><ele>12.0</ele><time>2026-04-28T17:54:11.992Z</time></trkpt><trkpt lat="38.0034999" lon="13.6420908"><ele>12.0</ele><time>2026-04-28T17:54:12.991Z</time></trkpt><trkpt lat="38.0035827" lon="13.6419177"><ele>12.0</ele><time>2026-04-28T17:54:13.991Z</time></trkpt><trkpt lat="38.0036556" lon="13.641771"><ele>12.0</ele><time>2026-04-28T17:54:14.992Z</time></trkpt><trkpt lat="38.00372" lon="13.641647"><ele>12.0</ele><time>2026-04-28T17:54:15.991Z</time></trkpt><trkpt lat="38.0037808" lon="13.6415343"><ele>12.0</ele><time>2026-04-28T17:54:16.992Z</time></trkpt><trkpt lat="38.0038427" lon="13.641428"><ele>12.0</ele><time>2026-04-28T17:54:17.992Z</time></trkpt><trkpt lat="38.0039066" lon="13.6413247"><ele>12.0</ele><time>2026-04-28T17:54:18.992Z</time></trkpt><trkpt lat="38.0039702" lon="13.6412183"><ele>12.0</ele><time>2026-04-28T17:54:19.991Z</time></trkpt><trkpt lat="38.0040515" lon="13.6411293"><ele>12.0</ele><time>2026-04-28T17:54:20.991Z</time></trkpt><trkpt lat="38.0041467" lon="13.641055"><ele>12.0</ele><time>2026-04-28T17:54:21.992Z</time></trkpt><trkpt lat="38.0042488" lon="13.6409995"><ele>12.0</ele><time>2026-04-28T17:54:22.992Z</time></trkpt><trkpt lat="38.004344" lon="13.6409465"><ele>12.0</ele><time>2026-04-28T17:54:23.992Z</time></trkpt><trkpt lat="38.0044441" lon="13.6409119"><ele>12.0</ele><time>2026-04-28T17:54:24.992Z</time></trkpt><trkpt lat="38.0045497" lon="13.6408893"><ele>12.0</ele><time>2026-04-28T17:54:25.992Z</time></trkpt><trkpt lat="38.0046597" lon="13.6408816"><ele>12.0</ele><time>2026-04-28T17:54:26.992Z</time></trkpt><trkpt lat="38.0047978" lon="13.6408981"><ele>12.0</ele><time>2026-04-28T17:54:27.992Z</time></trkpt><trkpt lat="38.0049594" lon="13.6409182"><ele>12.0</ele><time>2026-04-28T17:54:28.992Z</time></trkpt><trkpt lat="38.005121" lon="13.6409433"><ele>12.0</ele><time>2026-04-28T17:54:29.992Z</time></trkpt><trkpt lat="38.0052641" lon="13.6409554"><ele>11.0</ele><time>2026-04-28T17:54:30.992Z</time></trkpt><trkpt lat="38.0053979" lon="13.640936"><ele>10.0</ele><time>2026-04-28T17:54:31.991Z</time></trkpt><trkpt lat="38.0055278" lon="13.6408987"><ele>9.0</ele><time>2026-04-28T17:54:32.992Z</time></trkpt><trkpt lat="38.005642" lon="13.6408512"><ele>8.0</ele><time>2026-04-28T17:54:33.992Z</time></trkpt><trkpt lat="38.0057494" lon="13.6408027"><ele>7.0</ele><time>2026-04-28T17:54:34.992Z</time></trkpt><trkpt lat="38.0058475" lon="13.6407521"><ele>6.000000000000001</ele><time>2026-04-28T17:54:35.992Z</time></trkpt><trkpt lat="38.0059287" lon="13.6406967"><ele>5.0</ele><time>2026-04-28T17:54:36.992Z</time></trkpt><trkpt lat="38.0060071" lon="13.6406111"><ele>4.0</ele><time>2026-04-28T17:54:37.992Z</time></trkpt><trkpt lat="38.0060891" lon="13.640504"><ele>3.0</ele><time>2026-04-28T17:54:38.992Z</time></trkpt><trkpt lat="38.0061695" lon="13.64038"><ele>5.0</ele><time>2026-04-28T17:54:39.992Z</time></trkpt><trkpt lat="38.0062424" lon="13.6402506"><ele>7.0</ele><time>2026-04-28T17:54:40.992Z</time></trkpt><trkpt lat="38.0063091" lon="13.640119"><ele>9.0</ele><time>2026-04-28T17:54:41.992Z</time></trkpt><trkpt lat="38.0063708" lon="13.6399657"><ele>11.0</ele><time>2026-04-28T17:54:42.991Z</time></trkpt><trkpt lat="38.0064402" lon="13.6397791"><ele>11.0</ele><time>2026-04-28T17:54:43.992Z</time></trkpt><trkpt lat="38.0065072" lon="13.6395718"><ele>11.0</ele><time>2026-04-28T17:54:44.992Z</time></trkpt><trkpt lat="38.006573" lon="13.639348"><ele>11.0</ele><time>2026-04-28T17:54:45.992Z</time></trkpt><trkpt lat="38.0066292" lon="13.6391153"><ele>10.0</ele><time>2026-04-28T17:54:46.992Z</time></trkpt><trkpt lat="38.0066868" lon="13.6388818"><ele>9.0</ele><time>2026-04-28T17:54:47.992Z</time></trkpt><trkpt lat="38.0067537" lon="13.6386543"><ele>8.0</ele><time>2026-04-28T17:54:48.991Z</time></trkpt><trkpt lat="38.0068508" lon="13.6384428"><ele>8.0</ele><time>2026-04-28T17:54:49.992Z</time></trkpt><trkpt lat="38.0069799" lon="13.6382519"><ele>8.0</ele><time>2026-04-28T17:54:50.992Z</time></trkpt><trkpt lat="38.0071132" lon="13.6380735"><ele>8.0</ele><time>2026-04-28T17:54:51.992Z</time></trkpt><trkpt lat="38.0072524" lon="13.6378856"><ele>8.666666666666666</ele><time>2026-04-28T17:54:52.992Z</time></trkpt><trkpt lat="38.0073736" lon="13.637685"><ele>9.333333333333334</ele><time>2026-04-28T17:54:53.991Z</time></trkpt><trkpt lat="38.0074745" lon="13.6374708"><ele>10.0</ele><time>2026-04-28T17:54:54.992Z</time></trkpt><trkpt lat="38.0075518" lon="13.6372572"><ele>8.666666666666668</ele><time>2026-04-28T17:54:55.992Z</time></trkpt><trkpt lat="38.0076227" lon="13.6370325"><ele>7.333333333333334</ele><time>2026-04-28T17:54:56.992Z</time></trkpt><trkpt lat="38.0076826" lon="13.6368219"><ele>6.0</ele><time>2026-04-28T17:54:57.992Z</time></trkpt><trkpt lat="38.0077293" lon="13.6366149"><ele>6.0</ele><time>2026-04-28T17:54:58.991Z</time></trkpt><trkpt lat="38.0077691" lon="13.6363935"><ele>6.0</ele><time>2026-04-28T17:54:59.992Z</time></trkpt><trkpt lat="38.0077937" lon="13.6361439"><ele>6.0</ele><time>2026-04-28T17:55:00.992Z</time></trkpt><trkpt lat="38.0078093" lon="13.6358715"><ele>6.333333333333334</ele><time>2026-04-28T17:55:01.992Z</time></trkpt><trkpt lat="38.0078082" lon="13.6356007"><ele>6.666666666666667</ele><time>2026-04-28T17:55:02.991Z</time></trkpt><trkpt lat="38.0078138" lon="13.6353105"><ele>7.0</ele><time>2026-04-28T17:55:03.992Z</time></trkpt><trkpt lat="38.0078074" lon="13.6350056"><ele>7.5</ele><time>2026-04-28T17:55:04.992Z</time></trkpt><trkpt lat="38.0077817" lon="13.6346926"><ele>8.0</ele><time>2026-04-28T17:55:05.992Z</time></trkpt><trkpt lat="38.0077528" lon="13.6343831"><ele>8.0</ele><time>2026-04-28T17:55:06.992Z</time></trkpt><trkpt lat="38.0077199" lon="13.6340747"><ele>8.0</ele><time>2026-04-28T17:55:07.992Z</time></trkpt><trkpt lat="38.007691" lon="13.6337697"><ele>7.5</ele><time>2026-04-28T17:55:08.992Z</time></trkpt><trkpt lat="38.0076668" lon="13.6334606"><ele>7.0</ele><time>2026-04-28T17:55:09.991Z</time></trkpt><trkpt lat="38.0076504" lon="13.6331632"><ele>7.0</ele><time>2026-04-28T17:55:10.992Z</time></trkpt><trkpt lat="38.0076443" lon="13.6328815"><ele>7.0</ele><time>2026-04-28T17:55:11.992Z</time></trkpt><trkpt lat="38.0076417" lon="13.6326127"><ele>7.0</ele><time>2026-04-28T17:55:12.991Z</time></trkpt><trkpt lat="38.0076397" lon="13.6323603"><ele>7.333333333333334</ele><time>2026-04-28T17:55:13.992Z</time></trkpt><trkpt lat="38.0076398" lon="13.6321243"><ele>7.666666666666666</ele><time>2026-04-28T17:55:14.992Z</time></trkpt><trkpt lat="38.0076562" lon="13.6318978"><ele>8.0</ele><time>2026-04-28T17:55:15.992Z</time></trkpt><trkpt lat="38.0076913" lon="13.6316791"><ele>8.0</ele><time>2026-04-28T17:55:16.992Z</time></trkpt><trkpt lat="38.0077378" lon="13.6314617"><ele>8.0</ele><time>2026-04-28T17:55:17.992Z</time></trkpt><trkpt lat="38.0077871" lon="13.631256"><ele>8.0</ele><time>2026-04-28T17:55:18.992Z</time></trkpt><trkpt lat="38.0078283" lon="13.6310591"><ele>8.0</ele><time>2026-04-28T17:55:19.991Z</time></trkpt><trkpt lat="38.0078665" lon="13.6308727"><ele>8.0</ele><time>2026-04-28T17:55:20.992Z</time></trkpt><trkpt lat="38.0079016" lon="13.6306951"><ele>8.0</ele><time>2026-04-28T17:55:21.991Z</time></trkpt><trkpt lat="38.0079393" lon="13.6305318"><ele>8.0</ele><time>2026-04-28T17:55:22.992Z</time></trkpt><trkpt lat="38.0079772" lon="13.6303773"><ele>8.4</ele><time>2026-04-28T17:55:23.992Z</time></trkpt><trkpt lat="38.0080133" lon="13.6302298"><ele>8.8</ele><time>2026-04-28T17:55:24.992Z</time></trkpt><trkpt lat="38.0080431" lon="13.6300947"><ele>9.2</ele><time>2026-04-28T17:55:25.992Z</time></trkpt><trkpt lat="38.0080708" lon="13.6299661"><ele>9.6</ele><time>2026-04-28T17:55:26.991Z</time></trkpt><trkpt lat="38.0080999" lon="13.6298591"><ele>10.0</ele><time>2026-04-28T17:55:27.992Z</time></trkpt><trkpt lat="38.0081305" lon="13.6297839"><ele>10.0</ele><time>2026-04-28T17:55:28.992Z</time></trkpt><trkpt lat="38.0081975" lon="13.6297144"><ele>10.0</ele><time>2026-04-28T17:55:30.992Z</time></trkpt><trkpt lat="38.0082589" lon="13.6296564"><ele>10.0</ele><time>2026-04-28T17:55:34.992Z</time></trkpt><trkpt lat="38.0083273" lon="13.6296575"><ele>10.0</ele><time>2026-04-28T17:55:38.992Z</time></trkpt><trkpt lat="38.0084018" lon="13.6296328"><ele>10.0</ele><time>2026-04-28T17:55:41.992Z</time></trkpt><trkpt lat="38.0084178" lon="13.6295449"><ele>10.0</ele><time>2026-04-28T17:55:44.992Z</time></trkpt><trkpt lat="38.0084117" lon="13.6294388"><ele>10.0</ele><time>2026-04-28T17:55:46.992Z</time></trkpt><trkpt lat="38.0084041" lon="13.6293257"><ele>10.0</ele><time>2026-04-28T17:55:48.992Z</time></trkpt><trkpt lat="38.0083762" lon="13.6292386"><ele>10.0</ele><time>2026-04-28T17:55:51.991Z</time></trkpt><trkpt lat="38.0082819" lon="13.6292125"><ele>10.0</ele><time>2026-04-28T17:55:59.992Z</time></trkpt><trkpt lat="38.0082491" lon="13.6291196"><ele>10.0</ele><time>2026-04-28T17:56:03.991Z</time></trkpt><trkpt lat="38.0082606" lon="13.6290196"><ele>10.0</ele><time>2026-04-28T17:56:04.992Z</time></trkpt><trkpt lat="38.0082848" lon="13.628914"><ele>10.0</ele><time>2026-04-28T17:56:05.992Z</time></trkpt><trkpt lat="38.0083091" lon="13.6288"><ele>10.0</ele><time>2026-04-28T17:56:06.992Z</time></trkpt><trkpt lat="38.0083351" lon="13.6286484"><ele>10.0</ele><time>2026-04-28T17:56:07.992Z</time></trkpt><trkpt lat="38.0083592" lon="13.6284824"><ele>10.0</ele><time>2026-04-28T17:56:08.992Z</time></trkpt><trkpt lat="38.0083951" lon="13.6282935"><ele>9.0</ele><time>2026-04-28T17:56:09.992Z</time></trkpt><trkpt lat="38.0084334" lon="13.6280975"><ele>8.0</ele><time>2026-04-28T17:56:10.992Z</time></trkpt><trkpt lat="38.0084759" lon="13.6278857"><ele>7.0</ele><time>2026-04-28T17:56:11.992Z</time></trkpt><trkpt lat="38.0085206" lon="13.627652"><ele>7.0</ele><time>2026-04-28T17:56:12.992Z</time></trkpt><trkpt lat="38.0085656" lon="13.6274167"><ele>7.0</ele><time>2026-04-28T17:56:13.991Z</time></trkpt><trkpt lat="38.0086091" lon="13.6271787"><ele>7.0</ele><time>2026-04-28T17:56:14.992Z</time></trkpt><trkpt lat="38.0086487" lon="13.6269472"><ele>7.666666666666667</ele><time>2026-04-28T17:56:15.992Z</time></trkpt><trkpt lat="38.0086902" lon="13.6267086"><ele>8.333333333333334</ele><time>2026-04-28T17:56:16.992Z</time></trkpt><trkpt lat="38.0087348" lon="13.6264731"><ele>9.0</ele><time>2026-04-28T17:56:17.992Z</time></trkpt><trkpt lat="38.008778" lon="13.6262382"><ele>9.333333333333334</ele><time>2026-04-28T17:56:18.992Z</time></trkpt><trkpt lat="38.0088237" lon="13.6260097"><ele>9.666666666666668</ele><time>2026-04-28T17:56:19.991Z</time></trkpt><trkpt lat="38.0088717" lon="13.6257834"><ele>10.0</ele><time>2026-04-28T17:56:20.992Z</time></trkpt><trkpt lat="38.0089148" lon="13.6255687"><ele>10.0</ele><time>2026-04-28T17:56:21.992Z</time></trkpt><trkpt lat="38.0089607" lon="13.6253559"><ele>10.0</ele><time>2026-04-28T17:56:22.992Z</time></trkpt><trkpt lat="38.0090042" lon="13.6251346"><ele>10.0</ele><time>2026-04-28T17:56:23.992Z</time></trkpt><trkpt lat="38.0090493" lon="13.6249143"><ele>10.333333333333334</ele><time>2026-04-28T17:56:24.992Z</time></trkpt><trkpt lat="38.0090992" lon="13.6246952"><ele>10.666666666666666</ele><time>2026-04-28T17:56:25.992Z</time></trkpt><trkpt lat="38.0091507" lon="13.624476"><ele>11.0</ele><time>2026-04-28T17:56:26.992Z</time></trkpt><trkpt lat="38.0092065" lon="13.624257"><ele>10.333333333333332</ele><time>2026-04-28T17:56:27.992Z</time></trkpt><trkpt lat="38.0092545" lon="13.6240297"><ele>9.666666666666666</ele><time>2026-04-28T17:56:28.992Z</time></trkpt><trkpt lat="38.0093081" lon="13.6238022"><ele>9.0</ele><time>2026-04-28T17:56:29.992Z</time></trkpt><trkpt lat="38.0093643" lon="13.6235729"><ele>9.0</ele><time>2026-04-28T17:56:30.992Z</time></trkpt><trkpt lat="38.0094325" lon="13.623351"><ele>9.0</ele><time>2026-04-28T17:56:31.992Z</time></trkpt><trkpt lat="38.0095166" lon="13.6231361"><ele>9.0</ele><time>2026-04-28T17:56:32.992Z</time></trkpt><trkpt lat="38.0096127" lon="13.6229299"><ele>9.666666666666666</ele><time>2026-04-28T17:56:33.992Z</time></trkpt><trkpt lat="38.0097155" lon="13.6227289"><ele>10.333333333333332</ele><time>2026-04-28T17:56:34.992Z</time></trkpt><trkpt lat="38.0098253" lon="13.6225292"><ele>11.0</ele><time>2026-04-28T17:56:35.992Z</time></trkpt><trkpt lat="38.0099383" lon="13.6223277"><ele>11.0</ele><time>2026-04-28T17:56:36.991Z</time></trkpt><trkpt lat="38.0100528" lon="13.6221193"><ele>11.0</ele><time>2026-04-28T17:56:37.992Z</time></trkpt><trkpt lat="38.010165" lon="13.6219132"><ele>11.0</ele><time>2026-04-28T17:56:38.991Z</time></trkpt><trkpt lat="38.01027" lon="13.6217193"><ele>11.0</ele><time>2026-04-28T17:56:39.992Z</time></trkpt><trkpt lat="38.0103681" lon="13.6215328"><ele>11.0</ele><time>2026-04-28T17:56:40.992Z</time></trkpt><trkpt lat="38.0104642" lon="13.6213586"><ele>11.0</ele><time>2026-04-28T17:56:41.992Z</time></trkpt><trkpt lat="38.010556" lon="13.6211991"><ele>11.25</ele><time>2026-04-28T17:56:42.992Z</time></trkpt><trkpt lat="38.010634" lon="13.6210463"><ele>11.5</ele><time>2026-04-28T17:56:43.992Z</time></trkpt><trkpt lat="38.0107034" lon="13.6209144"><ele>11.75</ele><time>2026-04-28T17:56:44.992Z</time></trkpt><trkpt lat="38.0107611" lon="13.6208123"><ele>12.0</ele><time>2026-04-28T17:56:45.992Z</time></trkpt><trkpt lat="38.0108048" lon="13.6207221"><ele>11.25</ele><time>2026-04-28T17:56:46.992Z</time></trkpt><trkpt lat="38.0108355" lon="13.620606"><ele>10.5</ele><time>2026-04-28T17:56:47.992Z</time></trkpt><trkpt lat="38.0108503" lon="13.6204419"><ele>9.75</ele><time>2026-04-28T17:56:48.992Z</time></trkpt><trkpt lat="38.0108728" lon="13.6202532"><ele>9.0</ele><time>2026-04-28T17:56:49.992Z</time></trkpt><trkpt lat="38.0108834" lon="13.6200633"><ele>9.0</ele><time>2026-04-28T17:56:50.992Z</time></trkpt><trkpt lat="38.0108817" lon="13.6198902"><ele>9.0</ele><time>2026-04-28T17:56:51.992Z</time></trkpt><trkpt lat="38.0108892" lon="13.6197262"><ele>9.0</ele><time>2026-04-28T17:56:52.992Z</time></trkpt><trkpt lat="38.0109123" lon="13.6195675"><ele>9.0</ele><time>2026-04-28T17:56:53.992Z</time></trkpt><trkpt lat="38.0109703" lon="13.6194146"><ele>10.0</ele><time>2026-04-28T17:56:54.992Z</time></trkpt><trkpt lat="38.0110569" lon="13.6192709"><ele>11.0</ele><time>2026-04-28T17:56:55.992Z</time></trkpt><trkpt lat="38.0111474" lon="13.6191456"><ele>12.0</ele><time>2026-04-28T17:56:56.992Z</time></trkpt><trkpt lat="38.0112268" lon="13.619037"><ele>13.0</ele><time>2026-04-28T17:56:57.992Z</time></trkpt><trkpt lat="38.0112905" lon="13.618938"><ele>13.0</ele><time>2026-04-28T17:56:58.992Z</time></trkpt><trkpt lat="38.0113548" lon="13.6188392"><ele>13.0</ele><time>2026-04-28T17:56:59.992Z</time></trkpt><trkpt lat="38.0114306" lon="13.6187336"><ele>13.0</ele><time>2026-04-28T17:57:00.992Z</time></trkpt><trkpt lat="38.011535" lon="13.6186096"><ele>13.0</ele><time>2026-04-28T17:57:01.991Z</time></trkpt><trkpt lat="38.011659" lon="13.6184873"><ele>13.0</ele><time>2026-04-28T17:57:02.992Z</time></trkpt><trkpt lat="38.0118059" lon="13.618363"><ele>13.0</ele><time>2026-04-28T17:57:03.991Z</time></trkpt><trkpt lat="38.0119544" lon="13.6182276"><ele>13.0</ele><time>2026-04-28T17:57:04.992Z</time></trkpt><trkpt lat="38.0121074" lon="13.6180521"><ele>13.0</ele><time>2026-04-28T17:57:05.992Z</time></trkpt><trkpt lat="38.0122679" lon="13.6178669"><ele>13.0</ele><time>2026-04-28T17:57:06.992Z</time></trkpt><trkpt lat="38.0124503" lon="13.6176544"><ele>13.5</ele><time>2026-04-28T17:57:07.992Z</time></trkpt><trkpt lat="38.0126303" lon="13.6174331"><ele>14.0</ele><time>2026-04-28T17:57:08.992Z</time></trkpt><trkpt lat="38.0128057" lon="13.6172091"><ele>14.0</ele><time>2026-04-28T17:57:09.991Z</time></trkpt><trkpt lat="38.0129756" lon="13.6169986"><ele>14.0</ele><time>2026-04-28T17:57:10.992Z</time></trkpt><trkpt lat="38.0131403" lon="13.6167978"><ele>13.0</ele><time>2026-04-28T17:57:11.992Z</time></trkpt><trkpt lat="38.0132859" lon="13.6166094"><ele>12.0</ele><time>2026-04-28T17:57:12.992Z</time></trkpt><trkpt lat="38.0134294" lon="13.6164323"><ele>11.0</ele><time>2026-04-28T17:57:13.992Z</time></trkpt><trkpt lat="38.0135564" lon="13.6162674"><ele>14.666666666666666</ele><time>2026-04-28T17:57:14.991Z</time></trkpt><trkpt lat="38.0136761" lon="13.6161205"><ele>18.333333333333332</ele><time>2026-04-28T17:57:15.991Z</time></trkpt><trkpt lat="38.0137885" lon="13.6159716"><ele>22.0</ele><time>2026-04-28T17:57:16.991Z</time></trkpt><trkpt lat="38.0138984" lon="13.615836"><ele>22.0</ele><time>2026-04-28T17:57:17.992Z</time></trkpt><trkpt lat="38.0140006" lon="13.6156975"><ele>22.0</ele><time>2026-04-28T17:57:18.992Z</time></trkpt><trkpt lat="38.0140893" lon="13.6155567"><ele>22.0</ele><time>2026-04-28T17:57:19.992Z</time></trkpt><trkpt lat="38.0141687" lon="13.6154021"><ele>22.0</ele><time>2026-04-28T17:57:20.991Z</time></trkpt><trkpt lat="38.0142284" lon="13.6152506"><ele>21.6</ele><time>2026-04-28T17:57:21.992Z</time></trkpt><trkpt lat="38.014269" lon="13.6151047"><ele>21.200000000000003</ele><time>2026-04-28T17:57:22.992Z</time></trkpt><trkpt lat="38.0143074" lon="13.6149796"><ele>20.8</ele><time>2026-04-28T17:57:23.992Z</time></trkpt><trkpt lat="38.0143585" lon="13.6148681"><ele>20.4</ele><time>2026-04-28T17:57:24.992Z</time></trkpt><trkpt lat="38.0144242" lon="13.6147864"><ele>20.0</ele><time>2026-04-28T17:57:25.991Z</time></trkpt><trkpt lat="38.0144973" lon="13.6147294"><ele>20.0</ele><time>2026-04-28T17:57:26.991Z</time></trkpt><trkpt lat="38.014575" lon="13.6146781"><ele>20.0</ele><time>2026-04-28T17:57:27.991Z</time></trkpt><trkpt lat="38.0146518" lon="13.6146372"><ele>20.0</ele><time>2026-04-28T17:57:28.992Z</time></trkpt><trkpt lat="38.0147223" lon="13.6145956"><ele>20.0</ele><time>2026-04-28T17:57:29.992Z</time></trkpt><trkpt lat="38.0147816" lon="13.6145547"><ele>20.0</ele><time>2026-04-28T17:57:30.991Z</time></trkpt><trkpt lat="38.0148327" lon="13.6145024"><ele>20.0</ele><time>2026-04-28T17:57:31.992Z</time></trkpt><trkpt lat="38.0148957" lon="13.6144403"><ele>20.0</ele><time>2026-04-28T17:57:32.992Z</time></trkpt><trkpt lat="38.0149697" lon="13.6143809"><ele>20.0</ele><time>2026-04-28T17:57:33.991Z</time></trkpt><trkpt lat="38.0150471" lon="13.6143215"><ele>20.0</ele><time>2026-04-28T17:57:34.991Z</time></trkpt><trkpt lat="38.0151201" lon="13.6142559"><ele>20.0</ele><time>2026-04-28T17:57:35.991Z</time></trkpt><trkpt lat="38.0151919" lon="13.614189"><ele>20.0</ele><time>2026-04-28T17:57:36.992Z</time></trkpt><trkpt lat="38.0152551" lon="13.6141282"><ele>20.0</ele><time>2026-04-28T17:57:37.992Z</time></trkpt><trkpt lat="38.0153135" lon="13.6140767"><ele>20.0</ele><time>2026-04-28T17:57:38.992Z</time></trkpt><trkpt lat="38.0153717" lon="13.614023"><ele>20.0</ele><time>2026-04-28T17:57:39.992Z</time></trkpt><trkpt lat="38.0154282" lon="13.6139659"><ele>20.0</ele><time>2026-04-28T17:57:40.992Z</time></trkpt><trkpt lat="38.0154827" lon="13.6139135"><ele>20.0</ele><time>2026-04-28T17:57:41.992Z</time></trkpt><trkpt lat="38.015578" lon="13.6138056"><ele>20.0</ele><time>2026-04-28T17:57:43.992Z</time></trkpt><trkpt lat="38.0156661" lon="13.6136692"><ele>19.6</ele><time>2026-04-28T17:57:45.992Z</time></trkpt><trkpt lat="38.0157116" lon="13.6135665"><ele>19.2</ele><time>2026-04-28T17:57:46.992Z</time></trkpt><trkpt lat="38.0157535" lon="13.6134528"><ele>18.8</ele><time>2026-04-28T17:57:47.992Z</time></trkpt><trkpt lat="38.0158043" lon="13.6133265"><ele>18.4</ele><time>2026-04-28T17:57:48.992Z</time></trkpt><trkpt lat="38.0158699" lon="13.61319"><ele>18.0</ele><time>2026-04-28T17:57:49.992Z</time></trkpt><trkpt lat="38.0159432" lon="13.6130515"><ele>18.0</ele><time>2026-04-28T17:57:50.991Z</time></trkpt><trkpt lat="38.0160122" lon="13.6129383"><ele>18.0</ele><time>2026-04-28T17:57:51.992Z</time></trkpt><trkpt lat="38.0160713" lon="13.6128401"><ele>18.0</ele><time>2026-04-28T17:57:52.992Z</time></trkpt><trkpt lat="38.0161222" lon="13.6127785"><ele>18.0</ele><time>2026-04-28T17:57:53.992Z</time></trkpt><trkpt lat="38.0161856" lon="13.6126811"><ele>18.0</ele><time>2026-04-28T17:57:55.992Z</time></trkpt><trkpt lat="38.0162394" lon="13.612584"><ele>18.5</ele><time>2026-04-28T17:57:57.992Z</time></trkpt><trkpt lat="38.0163067" lon="13.6124977"><ele>19.0</ele><time>2026-04-28T17:57:59.991Z</time></trkpt><trkpt lat="38.0163619" lon="13.612422"><ele>19.5</ele><time>2026-04-28T17:58:01.992Z</time></trkpt><trkpt lat="38.0164727" lon="13.6122767"><ele>20.0</ele><time>2026-04-28T17:58:03.992Z</time></trkpt><trkpt lat="38.0165542" lon="13.6121582"><ele>20.0</ele><time>2026-04-28T17:58:04.992Z</time></trkpt><trkpt lat="38.0166328" lon="13.6120436"><ele>20.0</ele><time>2026-04-28T17:58:05.991Z</time></trkpt><trkpt lat="38.0167095" lon="13.6119364"><ele>20.0</ele><time>2026-04-28T17:58:06.992Z</time></trkpt><trkpt lat="38.0167819" lon="13.6118372"><ele>20.0</ele><time>2026-04-28T17:58:07.992Z</time></trkpt><trkpt lat="38.0168606" lon="13.6117424"><ele>20.0</ele><time>2026-04-28T17:58:08.992Z</time></trkpt><trkpt lat="38.016947" lon="13.6116294"><ele>18.666666666666668</ele><time>2026-04-28T17:58:09.992Z</time></trkpt><trkpt lat="38.0170449" lon="13.6114949"><ele>17.333333333333332</ele><time>2026-04-28T17:58:10.992Z</time></trkpt><trkpt lat="38.0171606" lon="13.6113568"><ele>16.0</ele><time>2026-04-28T17:58:11.992Z</time></trkpt><trkpt lat="38.0172801" lon="13.6112259"><ele>15.0</ele><time>2026-04-28T17:58:12.992Z</time></trkpt><trkpt lat="38.0174204" lon="13.6110944"><ele>14.0</ele><time>2026-04-28T17:58:13.992Z</time></trkpt><trkpt lat="38.0175859" lon="13.6109678"><ele>13.0</ele><time>2026-04-28T17:58:14.991Z</time></trkpt><trkpt lat="38.0177571" lon="13.6108303"><ele>13.0</ele><time>2026-04-28T17:58:15.992Z</time></trkpt><trkpt lat="38.0179396" lon="13.6106974"><ele>13.0</ele><time>2026-04-28T17:58:16.992Z</time></trkpt><trkpt lat="38.0181303" lon="13.6105559"><ele>13.0</ele><time>2026-04-28T17:58:17.991Z</time></trkpt><trkpt lat="38.0183282" lon="13.6104076"><ele>14.0</ele><time>2026-04-28T17:58:18.992Z</time></trkpt><trkpt lat="38.0185091" lon="13.6102713"><ele>15.0</ele><time>2026-04-28T17:58:19.992Z</time></trkpt><trkpt lat="38.0186817" lon="13.6101268"><ele>16.0</ele><time>2026-04-28T17:58:20.991Z</time></trkpt><trkpt lat="38.018842" lon="13.6099766"><ele>16.0</ele><time>2026-04-28T17:58:21.992Z</time></trkpt><trkpt lat="38.0189934" lon="13.6098015"><ele>16.0</ele><time>2026-04-28T17:58:22.991Z</time></trkpt><trkpt lat="38.0191407" lon="13.6096073"><ele>16.0</ele><time>2026-04-28T17:58:23.992Z</time></trkpt><trkpt lat="38.019286" lon="13.6093977"><ele>16.0</ele><time>2026-04-28T17:58:24.992Z</time></trkpt><trkpt lat="38.0194444" lon="13.6091801"><ele>16.0</ele><time>2026-04-28T17:58:25.992Z</time></trkpt><trkpt lat="38.019608" lon="13.6089571"><ele>16.0</ele><time>2026-04-28T17:58:26.992Z</time></trkpt><trkpt lat="38.0197739" lon="13.6087271"><ele>16.0</ele><time>2026-04-28T17:58:27.992Z</time></trkpt><trkpt lat="38.0199343" lon="13.6084857"><ele>14.5</ele><time>2026-04-28T17:58:28.992Z</time></trkpt><trkpt lat="38.0200889" lon="13.6082402"><ele>13.0</ele><time>2026-04-28T17:58:29.992Z</time></trkpt><trkpt lat="38.0202322" lon="13.6080035"><ele>15.0</ele><time>2026-04-28T17:58:30.992Z</time></trkpt><trkpt lat="38.0203721" lon="13.607776"><ele>17.0</ele><time>2026-04-28T17:58:31.992Z</time></trkpt><trkpt lat="38.0205098" lon="13.6075567"><ele>19.0</ele><time>2026-04-28T17:58:32.992Z</time></trkpt><trkpt lat="38.0206388" lon="13.6073496"><ele>19.0</ele><time>2026-04-28T17:58:33.992Z</time></trkpt><trkpt lat="38.0207598" lon="13.6071383"><ele>19.0</ele><time>2026-04-28T17:58:34.992Z</time></trkpt><trkpt lat="38.0208778" lon="13.6069229"><ele>19.0</ele><time>2026-04-28T17:58:35.992Z</time></trkpt><trkpt lat="38.0209978" lon="13.6066877"><ele>17.0</ele><time>2026-04-28T17:58:36.992Z</time></trkpt><trkpt lat="38.0211209" lon="13.6064359"><ele>15.0</ele><time>2026-04-28T17:58:37.991Z</time></trkpt><trkpt lat="38.0212561" lon="13.606177"><ele>19.0</ele><time>2026-04-28T17:58:38.992Z</time></trkpt><trkpt lat="38.0214097" lon="13.6059112"><ele>23.0</ele><time>2026-04-28T17:58:39.992Z</time></trkpt><trkpt lat="38.0215909" lon="13.6056588"><ele>20.5</ele><time>2026-04-28T17:58:40.992Z</time></trkpt><trkpt lat="38.0217811" lon="13.605416"><ele>18.0</ele><time>2026-04-28T17:58:41.992Z</time></trkpt><trkpt lat="38.0219804" lon="13.6051865"><ele>18.0</ele><time>2026-04-28T17:58:42.992Z</time></trkpt><trkpt lat="38.0221777" lon="13.6049456"><ele>18.0</ele><time>2026-04-28T17:58:43.992Z</time></trkpt><trkpt lat="38.0223695" lon="13.6046911"><ele>17.5</ele><time>2026-04-28T17:58:44.992Z</time></trkpt><trkpt lat="38.0225437" lon="13.6044161"><ele>17.0</ele><time>2026-04-28T17:58:45.992Z</time></trkpt><trkpt lat="38.0227039" lon="13.6041274"><ele>17.0</ele><time>2026-04-28T17:58:46.991Z</time></trkpt><trkpt lat="38.0228612" lon="13.6038306"><ele>17.0</ele><time>2026-04-28T17:58:47.992Z</time></trkpt><trkpt lat="38.0230194" lon="13.6035288"><ele>16.5</ele><time>2026-04-28T17:58:48.992Z</time></trkpt><trkpt lat="38.0231698" lon="13.603243"><ele>16.0</ele><time>2026-04-28T17:58:49.992Z</time></trkpt><trkpt lat="38.023316" lon="13.6029914"><ele>19.333333333333332</ele><time>2026-04-28T17:58:50.991Z</time></trkpt><trkpt lat="38.0234549" lon="13.6027612"><ele>22.666666666666664</ele><time>2026-04-28T17:58:51.992Z</time></trkpt><trkpt lat="38.023583" lon="13.6025579"><ele>26.0</ele><time>2026-04-28T17:58:52.991Z</time></trkpt><trkpt lat="38.0236967" lon="13.6023814"><ele>26.0</ele><time>2026-04-28T17:58:53.992Z</time></trkpt><trkpt lat="38.0237969" lon="13.6022083"><ele>26.0</ele><time>2026-04-28T17:58:54.991Z</time></trkpt><trkpt lat="38.0238624" lon="13.6020342"><ele>26.0</ele><time>2026-04-28T17:58:55.991Z</time></trkpt><trkpt lat="38.0238868" lon="13.6018317"><ele>30.0</ele><time>2026-04-28T17:58:56.992Z</time></trkpt><trkpt lat="38.0238885" lon="13.6016283"><ele>34.0</ele><time>2026-04-28T17:58:57.991Z</time></trkpt><trkpt lat="38.0238775" lon="13.6014413"><ele>38.0</ele><time>2026-04-28T17:58:58.992Z</time></trkpt><trkpt lat="38.0238902" lon="13.6012587"><ele>38.0</ele><time>2026-04-28T17:58:59.992Z</time></trkpt><trkpt lat="38.023957" lon="13.6011025"><ele>38.0</ele><time>2026-04-28T17:59:00.992Z</time></trkpt><trkpt lat="38.0240801" lon="13.600974"><ele>38.0</ele><time>2026-04-28T17:59:01.991Z</time></trkpt><trkpt lat="38.0242301" lon="13.6008741"><ele>38.0</ele><time>2026-04-28T17:59:02.992Z</time></trkpt><trkpt lat="38.0243833" lon="13.6007586"><ele>38.0</ele><time>2026-04-28T17:59:03.992Z</time></trkpt><trkpt lat="38.0245363" lon="13.6006319"><ele>38.0</ele><time>2026-04-28T17:59:04.992Z</time></trkpt><trkpt lat="38.0246712" lon="13.6004855"><ele>50.666666666666664</ele><time>2026-04-28T17:59:05.992Z</time></trkpt><trkpt lat="38.0247758" lon="13.6003162"><ele>63.33333333333333</ele><time>2026-04-28T17:59:06.992Z</time></trkpt><trkpt lat="38.0248578" lon="13.600111"><ele>76.0</ele><time>2026-04-28T17:59:07.992Z</time></trkpt><trkpt lat="38.0249218" lon="13.5999067"><ele>72.33333333333333</ele><time>2026-04-28T17:59:08.992Z</time></trkpt><trkpt lat="38.0249919" lon="13.5997132"><ele>68.66666666666667</ele><time>2026-04-28T17:59:09.992Z</time></trkpt><trkpt lat="38.0251004" lon="13.5995406"><ele>65.0</ele><time>2026-04-28T17:59:10.992Z</time></trkpt><trkpt lat="38.0252396" lon="13.5993909"><ele>65.0</ele><time>2026-04-28T17:59:11.991Z</time></trkpt><trkpt lat="38.025399" lon="13.5992607"><ele>65.0</ele><time>2026-04-28T17:59:12.992Z</time></trkpt><trkpt lat="38.0255727" lon="13.5991572"><ele>65.0</ele><time>2026-04-28T17:59:13.992Z</time></trkpt><trkpt lat="38.0257567" lon="13.599073"><ele>60.333333333333336</ele><time>2026-04-28T17:59:14.991Z</time></trkpt><trkpt lat="38.0259257" lon="13.5990111"><ele>55.66666666666667</ele><time>2026-04-28T17:59:15.992Z</time></trkpt><trkpt lat="38.0260783" lon="13.5989628"><ele>51.0</ele><time>2026-04-28T17:59:16.992Z</time></trkpt><trkpt lat="38.0262117" lon="13.5989108"><ele>51.0</ele><time>2026-04-28T17:59:17.992Z</time></trkpt><trkpt lat="38.0263224" lon="13.5988468"><ele>51.0</ele><time>2026-04-28T17:59:18.992Z</time></trkpt><trkpt lat="38.0264075" lon="13.5987652"><ele>51.0</ele><time>2026-04-28T17:59:19.992Z</time></trkpt><trkpt lat="38.0264713" lon="13.5986695"><ele>51.0</ele><time>2026-04-28T17:59:20.992Z</time></trkpt><trkpt lat="38.0264969" lon="13.5985523"><ele>51.0</ele><time>2026-04-28T17:59:21.991Z</time></trkpt><trkpt lat="38.0264976" lon="13.5984377"><ele>54.8</ele><time>2026-04-28T17:59:22.992Z</time></trkpt><trkpt lat="38.0264695" lon="13.59834"><ele>58.599999999999994</ele><time>2026-04-28T17:59:23.992Z</time></trkpt><trkpt lat="38.0264157" lon="13.5982514"><ele>62.4</ele><time>2026-04-28T17:59:24.992Z</time></trkpt><trkpt lat="38.026347" lon="13.5981645"><ele>66.2</ele><time>2026-04-28T17:59:25.992Z</time></trkpt><trkpt lat="38.0262697" lon="13.598065"><ele>70.0</ele><time>2026-04-28T17:59:26.992Z</time></trkpt><trkpt lat="38.026188" lon="13.597959"><ele>70.0</ele><time>2026-04-28T17:59:27.991Z</time></trkpt><trkpt lat="38.0261162" lon="13.5978367"><ele>70.0</ele><time>2026-04-28T17:59:28.991Z</time></trkpt><trkpt lat="38.0260728" lon="13.5976967"><ele>70.0</ele><time>2026-04-28T17:59:29.992Z</time></trkpt><trkpt lat="38.0260476" lon="13.5975423"><ele>70.0</ele><time>2026-04-28T17:59:30.992Z</time></trkpt><trkpt lat="38.0260028" lon="13.5973749"><ele>72.66666666666666</ele><time>2026-04-28T17:59:31.991Z</time></trkpt><trkpt lat="38.0259371" lon="13.5972057"><ele>75.33333333333333</ele><time>2026-04-28T17:59:32.992Z</time></trkpt><trkpt lat="38.0258547" lon="13.5970359"><ele>78.0</ele><time>2026-04-28T17:59:33.991Z</time></trkpt><trkpt lat="38.0257535" lon="13.5968409"><ele>78.0</ele><time>2026-04-28T17:59:34.992Z</time></trkpt><trkpt lat="38.0256532" lon="13.5966266"><ele>78.0</ele><time>2026-04-28T17:59:35.992Z</time></trkpt><trkpt lat="38.0255471" lon="13.5964135"><ele>78.0</ele><time>2026-04-28T17:59:36.992Z</time></trkpt><trkpt lat="38.0254441" lon="13.5962053"><ele>71.66666666666667</ele><time>2026-04-28T17:59:37.992Z</time></trkpt><trkpt lat="38.0253456" lon="13.5960069"><ele>65.33333333333334</ele><time>2026-04-28T17:59:38.992Z</time></trkpt><trkpt lat="38.0252542" lon="13.595821"><ele>59.0</ele><time>2026-04-28T17:59:39.992Z</time></trkpt><trkpt lat="38.0251706" lon="13.5956433"><ele>59.0</ele><time>2026-04-28T17:59:40.992Z</time></trkpt><trkpt lat="38.0250972" lon="13.5954658"><ele>59.0</ele><time>2026-04-28T17:59:41.992Z</time></trkpt><trkpt lat="38.0250476" lon="13.5952859"><ele>59.0</ele><time>2026-04-28T17:59:42.992Z</time></trkpt><trkpt lat="38.0250525" lon="13.5951144"><ele>59.0</ele><time>2026-04-28T17:59:43.992Z</time></trkpt><trkpt lat="38.0250926" lon="13.5949412"><ele>57.0</ele><time>2026-04-28T17:59:44.992Z</time></trkpt><trkpt lat="38.0251739" lon="13.5947673"><ele>55.0</ele><time>2026-04-28T17:59:45.992Z</time></trkpt><trkpt lat="38.0252676" lon="13.5945963"><ele>53.0</ele><time>2026-04-28T17:59:46.991Z</time></trkpt><trkpt lat="38.0253363" lon="13.5944099"><ele>53.0</ele><time>2026-04-28T17:59:47.992Z</time></trkpt><trkpt lat="38.0253641" lon="13.5941789"><ele>53.0</ele><time>2026-04-28T17:59:48.992Z</time></trkpt><trkpt lat="38.0253626" lon="13.5939408"><ele>53.0</ele><time>2026-04-28T17:59:49.991Z</time></trkpt><trkpt lat="38.0253495" lon="13.5937038"><ele>53.333333333333336</ele><time>2026-04-28T17:59:50.992Z</time></trkpt><trkpt lat="38.0253324" lon="13.5934669"><ele>53.66666666666667</ele><time>2026-04-28T17:59:51.991Z</time></trkpt><trkpt lat="38.0253104" lon="13.5932345"><ele>54.0</ele><time>2026-04-28T17:59:52.992Z</time></trkpt><trkpt lat="38.0252709" lon="13.593007"><ele>56.66666666666667</ele><time>2026-04-28T17:59:53.992Z</time></trkpt><trkpt lat="38.025201" lon="13.5927963"><ele>59.333333333333336</ele><time>2026-04-28T17:59:54.991Z</time></trkpt><trkpt lat="38.0250898" lon="13.592612"><ele>62.0</ele><time>2026-04-28T17:59:55.992Z</time></trkpt><trkpt lat="38.0249655" lon="13.5924473"><ele>62.0</ele><time>2026-04-28T17:59:56.992Z</time></trkpt><trkpt lat="38.0248358" lon="13.5923072"><ele>62.0</ele><time>2026-04-28T17:59:57.991Z</time></trkpt><trkpt lat="38.0247169" lon="13.5921764"><ele>62.0</ele><time>2026-04-28T17:59:58.992Z</time></trkpt><trkpt lat="38.0246065" lon="13.5920499"><ele>55.333333333333336</ele><time>2026-04-28T17:59:59.991Z</time></trkpt><trkpt lat="38.0245083" lon="13.5919223"><ele>48.66666666666667</ele><time>2026-04-28T18:00:00.991Z</time></trkpt><trkpt lat="38.0244298" lon="13.591763"><ele>42.0</ele><time>2026-04-28T18:00:01.992Z</time></trkpt><trkpt lat="38.024389" lon="13.5915562"><ele>42.0</ele><time>2026-04-28T18:00:02.992Z</time></trkpt><trkpt lat="38.0243765" lon="13.5913263"><ele>42.0</ele><time>2026-04-28T18:00:03.992Z</time></trkpt><trkpt lat="38.0243742" lon="13.5911012"><ele>42.0</ele><time>2026-04-28T18:00:04.991Z</time></trkpt><trkpt lat="38.0243801" lon="13.5908701"><ele>41.666666666666664</ele><time>2026-04-28T18:00:05.992Z</time></trkpt><trkpt lat="38.0244091" lon="13.5906421"><ele>41.33333333333333</ele><time>2026-04-28T18:00:06.992Z</time></trkpt><trkpt lat="38.0244868" lon="13.5904149"><ele>41.0</ele><time>2026-04-28T18:00:07.991Z</time></trkpt><trkpt lat="38.0245771" lon="13.5901839"><ele>47.666666666666664</ele><time>2026-04-28T18:00:08.992Z</time></trkpt><trkpt lat="38.0246593" lon="13.5899464"><ele>54.33333333333333</ele><time>2026-04-28T18:00:09.992Z</time></trkpt><trkpt lat="38.0247416" lon="13.5896998"><ele>61.0</ele><time>2026-04-28T18:00:10.992Z</time></trkpt><trkpt lat="38.0248185" lon="13.5894564"><ele>58.0</ele><time>2026-04-28T18:00:11.992Z</time></trkpt><trkpt lat="38.0249017" lon="13.5892167"><ele>55.0</ele><time>2026-04-28T18:00:12.992Z</time></trkpt><trkpt lat="38.0249756" lon="13.5889935"><ele>52.0</ele><time>2026-04-28T18:00:13.991Z</time></trkpt><trkpt lat="38.025055" lon="13.5887975"><ele>56.666666666666664</ele><time>2026-04-28T18:00:14.992Z</time></trkpt><trkpt lat="38.0251339" lon="13.5886242"><ele>61.33333333333333</ele><time>2026-04-28T18:00:15.992Z</time></trkpt><trkpt lat="38.0252416" lon="13.5884678"><ele>66.0</ele><time>2026-04-28T18:00:16.992Z</time></trkpt><trkpt lat="38.0253865" lon="13.5883486"><ele>66.0</ele><time>2026-04-28T18:00:17.991Z</time></trkpt><trkpt lat="38.0255728" lon="13.5882637"><ele>66.0</ele><time>2026-04-28T18:00:18.992Z</time></trkpt><trkpt lat="38.0257853" lon="13.5882223"><ele>66.0</ele><time>2026-04-28T18:00:19.992Z</time></trkpt><trkpt lat="38.0260063" lon="13.5882014"><ele>65.0</ele><time>2026-04-28T18:00:20.992Z</time></trkpt><trkpt lat="38.0262198" lon="13.5881793"><ele>64.0</ele><time>2026-04-28T18:00:21.992Z</time></trkpt><trkpt lat="38.026452" lon="13.5881571"><ele>63.0</ele><time>2026-04-28T18:00:22.992Z</time></trkpt><trkpt lat="38.0266906" lon="13.58813"><ele>63.0</ele><time>2026-04-28T18:00:23.992Z</time></trkpt><trkpt lat="38.0269409" lon="13.588094"><ele>63.0</ele><time>2026-04-28T18:00:24.992Z</time></trkpt><trkpt lat="38.0271942" lon="13.588057"><ele>63.0</ele><time>2026-04-28T18:00:25.992Z</time></trkpt><trkpt lat="38.0274483" lon="13.5880065"><ele>63.0</ele><time>2026-04-28T18:00:26.991Z</time></trkpt><trkpt lat="38.0276833" lon="13.5879447"><ele>63.0</ele><time>2026-04-28T18:00:27.991Z</time></trkpt><trkpt lat="38.0279024" lon="13.5878751"><ele>63.0</ele><time>2026-04-28T18:00:28.992Z</time></trkpt><trkpt lat="38.0280985" lon="13.5878034"><ele>63.0</ele><time>2026-04-28T18:00:29.992Z</time></trkpt><trkpt lat="38.0282736" lon="13.5877229"><ele>64.33333333333333</ele><time>2026-04-28T18:00:30.992Z</time></trkpt><trkpt lat="38.0284248" lon="13.5876042"><ele>65.66666666666666</ele><time>2026-04-28T18:00:31.992Z</time></trkpt><trkpt lat="38.028554" lon="13.5874338"><ele>67.0</ele><time>2026-04-28T18:00:32.992Z</time></trkpt><trkpt lat="38.0286746" lon="13.5872624"><ele>67.0</ele><time>2026-04-28T18:00:33.991Z</time></trkpt><trkpt lat="38.0287894" lon="13.5870865"><ele>67.0</ele><time>2026-04-28T18:00:34.992Z</time></trkpt><trkpt lat="38.0289096" lon="13.586905"><ele>67.0</ele><time>2026-04-28T18:00:35.992Z</time></trkpt><trkpt lat="38.0290405" lon="13.586709"><ele>66.5</ele><time>2026-04-28T18:00:36.992Z</time></trkpt><trkpt lat="38.029186" lon="13.5864912"><ele>66.0</ele><time>2026-04-28T18:00:37.992Z</time></trkpt><trkpt lat="38.0293283" lon="13.5862672"><ele>67.0</ele><time>2026-04-28T18:00:38.991Z</time></trkpt><trkpt lat="38.0294668" lon="13.5860422"><ele>68.0</ele><time>2026-04-28T18:00:39.992Z</time></trkpt><trkpt lat="38.029604" lon="13.585816"><ele>68.0</ele><time>2026-04-28T18:00:40.992Z</time></trkpt><trkpt lat="38.0297436" lon="13.5855881"><ele>68.0</ele><time>2026-04-28T18:00:41.992Z</time></trkpt><trkpt lat="38.0298892" lon="13.5853769"><ele>68.0</ele><time>2026-04-28T18:00:42.992Z</time></trkpt><trkpt lat="38.0300351" lon="13.5851889"><ele>64.66666666666667</ele><time>2026-04-28T18:00:43.992Z</time></trkpt><trkpt lat="38.0301801" lon="13.5850061"><ele>61.33333333333333</ele><time>2026-04-28T18:00:44.992Z</time></trkpt><trkpt lat="38.0303265" lon="13.5848432"><ele>58.0</ele><time>2026-04-28T18:00:45.991Z</time></trkpt><trkpt lat="38.0304661" lon="13.584688"><ele>58.0</ele><time>2026-04-28T18:00:46.992Z</time></trkpt><trkpt lat="38.0306088" lon="13.5845501"><ele>58.0</ele><time>2026-04-28T18:00:47.992Z</time></trkpt><trkpt lat="38.0307537" lon="13.5843977"><ele>58.0</ele><time>2026-04-28T18:00:48.992Z</time></trkpt><trkpt lat="38.0308912" lon="13.5842097"><ele>58.33333333333333</ele><time>2026-04-28T18:00:49.992Z</time></trkpt><trkpt lat="38.0310075" lon="13.584013"><ele>58.66666666666667</ele><time>2026-04-28T18:00:50.992Z</time></trkpt><trkpt lat="38.0311079" lon="13.583816"><ele>59.0</ele><time>2026-04-28T18:00:51.992Z</time></trkpt><trkpt lat="38.0311951" lon="13.5836097"><ele>59.0</ele><time>2026-04-28T18:00:52.991Z</time></trkpt><trkpt lat="38.0312557" lon="13.5833943"><ele>59.0</ele><time>2026-04-28T18:00:53.992Z</time></trkpt><trkpt lat="38.0313028" lon="13.5831696"><ele>59.0</ele><time>2026-04-28T18:00:54.992Z</time></trkpt><trkpt lat="38.0313485" lon="13.5829458"><ele>59.66666666666667</ele><time>2026-04-28T18:00:55.992Z</time></trkpt><trkpt lat="38.0314025" lon="13.5827337"><ele>60.33333333333333</ele><time>2026-04-28T18:00:56.992Z</time></trkpt><trkpt lat="38.0314784" lon="13.5825469"><ele>61.0</ele><time>2026-04-28T18:00:57.992Z</time></trkpt><trkpt lat="38.0315678" lon="13.5823974"><ele>58.25</ele><time>2026-04-28T18:00:58.992Z</time></trkpt><trkpt lat="38.031689" lon="13.5822888"><ele>55.5</ele><time>2026-04-28T18:00:59.992Z</time></trkpt><trkpt lat="38.031805" lon="13.5821877"><ele>52.75</ele><time>2026-04-28T18:01:00.992Z</time></trkpt><trkpt lat="38.0319093" lon="13.5820621"><ele>50.0</ele><time>2026-04-28T18:01:01.992Z</time></trkpt><trkpt lat="38.0319811" lon="13.5819015"><ele>50.0</ele><time>2026-04-28T18:01:02.991Z</time></trkpt><trkpt lat="38.032014" lon="13.5817081"><ele>50.0</ele><time>2026-04-28T18:01:03.992Z</time></trkpt><trkpt lat="38.0320167" lon="13.5815211"><ele>50.0</ele><time>2026-04-28T18:01:04.992Z</time></trkpt><trkpt lat="38.0320035" lon="13.5813305"><ele>49.25</ele><time>2026-04-28T18:01:05.992Z</time></trkpt><trkpt lat="38.031984" lon="13.5811544"><ele>48.5</ele><time>2026-04-28T18:01:06.991Z</time></trkpt><trkpt lat="38.0319642" lon="13.5809831"><ele>47.75</ele><time>2026-04-28T18:01:07.992Z</time></trkpt><trkpt lat="38.0319758" lon="13.5808093"><ele>47.0</ele><time>2026-04-28T18:01:08.992Z</time></trkpt><trkpt lat="38.032033" lon="13.5806334"><ele>47.0</ele><time>2026-04-28T18:01:09.992Z</time></trkpt><trkpt lat="38.0321255" lon="13.5804622"><ele>47.0</ele><time>2026-04-28T18:01:10.992Z</time></trkpt><trkpt lat="38.0322267" lon="13.5802875"><ele>47.0</ele><time>2026-04-28T18:01:11.992Z</time></trkpt><trkpt lat="38.0323191" lon="13.5801177"><ele>48.75</ele><time>2026-04-28T18:01:12.991Z</time></trkpt><trkpt lat="38.0323933" lon="13.5799564"><ele>50.5</ele><time>2026-04-28T18:01:13.992Z</time></trkpt><trkpt lat="38.0324625" lon="13.5798009"><ele>52.25</ele><time>2026-04-28T18:01:14.992Z</time></trkpt><trkpt lat="38.0325239" lon="13.5796502"><ele>54.0</ele><time>2026-04-28T18:01:15.992Z</time></trkpt><trkpt lat="38.0325774" lon="13.5795093"><ele>48.75</ele><time>2026-04-28T18:01:16.992Z</time></trkpt><trkpt lat="38.0326278" lon="13.5793783"><ele>43.5</ele><time>2026-04-28T18:01:17.992Z</time></trkpt><trkpt lat="38.0326883" lon="13.5792261"><ele>38.25</ele><time>2026-04-28T18:01:18.992Z</time></trkpt><trkpt lat="38.0327589" lon="13.579041"><ele>33.0</ele><time>2026-04-28T18:01:19.991Z</time></trkpt><trkpt lat="38.0328489" lon="13.5788173"><ele>36.666666666666664</ele><time>2026-04-28T18:01:20.992Z</time></trkpt><trkpt lat="38.0329382" lon="13.5785899"><ele>40.33333333333333</ele><time>2026-04-28T18:01:21.992Z</time></trkpt><trkpt lat="38.0330295" lon="13.5783653"><ele>44.0</ele><time>2026-04-28T18:01:22.992Z</time></trkpt><trkpt lat="38.0331246" lon="13.5781381"><ele>44.0</ele><time>2026-04-28T18:01:23.992Z</time></trkpt><trkpt lat="38.0332197" lon="13.5779086"><ele>44.0</ele><time>2026-04-28T18:01:24.992Z</time></trkpt><trkpt lat="38.0333114" lon="13.5776682"><ele>44.0</ele><time>2026-04-28T18:01:25.992Z</time></trkpt><trkpt lat="38.033401" lon="13.5774158"><ele>39.33333333333333</ele><time>2026-04-28T18:01:26.992Z</time></trkpt><trkpt lat="38.0334873" lon="13.5771595"><ele>34.666666666666664</ele><time>2026-04-28T18:01:27.992Z</time></trkpt><trkpt lat="38.0335645" lon="13.5769148"><ele>30.0</ele><time>2026-04-28T18:01:28.992Z</time></trkpt><trkpt lat="38.0336365" lon="13.5766912"><ele>30.0</ele><time>2026-04-28T18:01:29.992Z</time></trkpt><trkpt lat="38.0336967" lon="13.5764987"><ele>30.0</ele><time>2026-04-28T18:01:30.992Z</time></trkpt><trkpt lat="38.0337604" lon="13.5763279"><ele>30.0</ele><time>2026-04-28T18:01:31.991Z</time></trkpt><trkpt lat="38.0338201" lon="13.5761738"><ele>30.0</ele><time>2026-04-28T18:01:32.991Z</time></trkpt><trkpt lat="38.0338866" lon="13.576019"><ele>32.0</ele><time>2026-04-28T18:01:33.992Z</time></trkpt><trkpt lat="38.033961" lon="13.5758621"><ele>34.0</ele><time>2026-04-28T18:01:34.991Z</time></trkpt><trkpt lat="38.034035" lon="13.5757078"><ele>36.0</ele><time>2026-04-28T18:01:35.992Z</time></trkpt><trkpt lat="38.0341079" lon="13.5755495"><ele>38.0</ele><time>2026-04-28T18:01:36.992Z</time></trkpt><trkpt lat="38.0341729" lon="13.5753971"><ele>33.0</ele><time>2026-04-28T18:01:37.992Z</time></trkpt><trkpt lat="38.034242" lon="13.5752541"><ele>28.0</ele><time>2026-04-28T18:01:38.992Z</time></trkpt><trkpt lat="38.0343216" lon="13.5750878"><ele>23.0</ele><time>2026-04-28T18:01:39.992Z</time></trkpt><trkpt lat="38.034392" lon="13.5749131"><ele>18.0</ele><time>2026-04-28T18:01:40.991Z</time></trkpt><trkpt lat="38.0344559" lon="13.5747519"><ele>18.0</ele><time>2026-04-28T18:01:41.992Z</time></trkpt><trkpt lat="38.0345211" lon="13.5745886"><ele>18.0</ele><time>2026-04-28T18:01:42.992Z</time></trkpt><trkpt lat="38.0345895" lon="13.5743973"><ele>18.0</ele><time>2026-04-28T18:01:43.992Z</time></trkpt><trkpt lat="38.0346731" lon="13.5742142"><ele>17.666666666666668</ele><time>2026-04-28T18:01:44.992Z</time></trkpt><trkpt lat="38.0347572" lon="13.5740185"><ele>17.333333333333336</ele><time>2026-04-28T18:01:45.992Z</time></trkpt><trkpt lat="38.0348425" lon="13.5738117"><ele>17.0</ele><time>2026-04-28T18:01:46.992Z</time></trkpt><trkpt lat="38.0349287" lon="13.5735985"><ele>16.666666666666668</ele><time>2026-04-28T18:01:47.992Z</time></trkpt><trkpt lat="38.0350164" lon="13.5733854"><ele>16.333333333333332</ele><time>2026-04-28T18:01:48.991Z</time></trkpt><trkpt lat="38.0350939" lon="13.5731943"><ele>16.0</ele><time>2026-04-28T18:01:49.992Z</time></trkpt><trkpt lat="38.0351701" lon="13.5730078"><ele>19.666666666666664</ele><time>2026-04-28T18:01:50.992Z</time></trkpt><trkpt lat="38.0352469" lon="13.5728243"><ele>23.333333333333332</ele><time>2026-04-28T18:01:51.991Z</time></trkpt><trkpt lat="38.0353179" lon="13.5726499"><ele>27.0</ele><time>2026-04-28T18:01:52.991Z</time></trkpt><trkpt lat="38.0353875" lon="13.5724672"><ele>27.0</ele><time>2026-04-28T18:01:53.991Z</time></trkpt><trkpt lat="38.0354604" lon="13.5722731"><ele>27.0</ele><time>2026-04-28T18:01:54.991Z</time></trkpt><trkpt lat="38.035537" lon="13.5720682"><ele>27.0</ele><time>2026-04-28T18:01:55.991Z</time></trkpt><trkpt lat="38.0356194" lon="13.5718471"><ele>30.333333333333336</ele><time>2026-04-28T18:01:56.992Z</time></trkpt><trkpt lat="38.0357125" lon="13.5715989"><ele>33.66666666666667</ele><time>2026-04-28T18:01:57.992Z</time></trkpt><trkpt lat="38.0358059" lon="13.5713568"><ele>37.0</ele><time>2026-04-28T18:01:58.992Z</time></trkpt><trkpt lat="38.0358844" lon="13.571136"><ele>29.0</ele><time>2026-04-28T18:01:59.991Z</time></trkpt><trkpt lat="38.0359468" lon="13.5709419"><ele>21.0</ele><time>2026-04-28T18:02:00.991Z</time></trkpt><trkpt lat="38.0360032" lon="13.5707429"><ele>13.0</ele><time>2026-04-28T18:02:01.992Z</time></trkpt><trkpt lat="38.036067" lon="13.5705347"><ele>16.333333333333332</ele><time>2026-04-28T18:02:02.992Z</time></trkpt><trkpt lat="38.0361322" lon="13.5703012"><ele>19.666666666666668</ele><time>2026-04-28T18:02:03.992Z</time></trkpt><trkpt lat="38.0362095" lon="13.5700679"><ele>23.0</ele><time>2026-04-28T18:02:04.992Z</time></trkpt><trkpt lat="38.0362939" lon="13.5698448"><ele>23.0</ele><time>2026-04-28T18:02:05.992Z</time></trkpt><trkpt lat="38.0363814" lon="13.5696321"><ele>23.0</ele><time>2026-04-28T18:02:06.992Z</time></trkpt><trkpt lat="38.0364575" lon="13.5694413"><ele>23.0</ele><time>2026-04-28T18:02:07.992Z</time></trkpt><trkpt lat="38.036531" lon="13.5692693"><ele>22.0</ele><time>2026-04-28T18:02:08.992Z</time></trkpt><trkpt lat="38.0366072" lon="13.5691125"><ele>21.0</ele><time>2026-04-28T18:02:09.992Z</time></trkpt><trkpt lat="38.0366847" lon="13.568964"><ele>20.0</ele><time>2026-04-28T18:02:10.991Z</time></trkpt><trkpt lat="38.0367744" lon="13.5688045"><ele>19.0</ele><time>2026-04-28T18:02:11.992Z</time></trkpt><trkpt lat="38.0368594" lon="13.5686446"><ele>19.0</ele><time>2026-04-28T18:02:12.992Z</time></trkpt><trkpt lat="38.0369351" lon="13.5684881"><ele>19.0</ele><time>2026-04-28T18:02:13.992Z</time></trkpt><trkpt lat="38.0370069" lon="13.5683239"><ele>19.0</ele><time>2026-04-28T18:02:14.992Z</time></trkpt><trkpt lat="38.0370827" lon="13.5681583"><ele>19.0</ele><time>2026-04-28T18:02:15.991Z</time></trkpt><trkpt lat="38.03716" lon="13.5679763"><ele>20.666666666666664</ele><time>2026-04-28T18:02:16.991Z</time></trkpt><trkpt lat="38.0372421" lon="13.5677963"><ele>22.333333333333332</ele><time>2026-04-28T18:02:17.991Z</time></trkpt><trkpt lat="38.0373218" lon="13.5676143"><ele>24.0</ele><time>2026-04-28T18:02:18.992Z</time></trkpt><trkpt lat="38.0373943" lon="13.5674409"><ele>24.0</ele><time>2026-04-28T18:02:19.991Z</time></trkpt><trkpt lat="38.0374622" lon="13.5672926"><ele>24.0</ele><time>2026-04-28T18:02:20.992Z</time></trkpt><trkpt lat="38.0375192" lon="13.5671532"><ele>24.0</ele><time>2026-04-28T18:02:21.992Z</time></trkpt><trkpt lat="38.037579" lon="13.5670155"><ele>24.0</ele><time>2026-04-28T18:02:22.992Z</time></trkpt><trkpt lat="38.0376397" lon="13.5668731"><ele>22.0</ele><time>2026-04-28T18:02:23.992Z</time></trkpt><trkpt lat="38.037714" lon="13.5667119"><ele>20.0</ele><time>2026-04-28T18:02:24.992Z</time></trkpt><trkpt lat="38.0377831" lon="13.5665449"><ele>18.0</ele><time>2026-04-28T18:02:25.992Z</time></trkpt><trkpt lat="38.037857" lon="13.5664005"><ele>16.0</ele><time>2026-04-28T18:02:26.992Z</time></trkpt><trkpt lat="38.0379291" lon="13.5662731"><ele>15.0</ele><time>2026-04-28T18:02:27.992Z</time></trkpt><trkpt lat="38.038009" lon="13.5661564"><ele>14.0</ele><time>2026-04-28T18:02:28.992Z</time></trkpt><trkpt lat="38.0381035" lon="13.566047"><ele>13.0</ele><time>2026-04-28T18:02:29.992Z</time></trkpt><trkpt lat="38.0382124" lon="13.5659205"><ele>12.0</ele><time>2026-04-28T18:02:30.991Z</time></trkpt><trkpt lat="38.0383422" lon="13.5657731"><ele>12.0</ele><time>2026-04-28T18:02:31.992Z</time></trkpt><trkpt lat="38.0384747" lon="13.5656145"><ele>12.0</ele><time>2026-04-28T18:02:32.992Z</time></trkpt><trkpt lat="38.0386112" lon="13.5654544"><ele>12.0</ele><time>2026-04-28T18:02:33.992Z</time></trkpt><trkpt lat="38.0387533" lon="13.565283"><ele>11.666666666666666</ele><time>2026-04-28T18:02:34.992Z</time></trkpt><trkpt lat="38.0388948" lon="13.5651114"><ele>11.333333333333332</ele><time>2026-04-28T18:02:35.992Z</time></trkpt><trkpt lat="38.0390367" lon="13.5649452"><ele>11.0</ele><time>2026-04-28T18:02:36.991Z</time></trkpt><trkpt lat="38.0391755" lon="13.5647795"><ele>11.0</ele><time>2026-04-28T18:02:37.992Z</time></trkpt><trkpt lat="38.0393074" lon="13.5646203"><ele>11.0</ele><time>2026-04-28T18:02:38.992Z</time></trkpt><trkpt lat="38.0394308" lon="13.5644567"><ele>11.0</ele><time>2026-04-28T18:02:39.992Z</time></trkpt><trkpt lat="38.0395522" lon="13.564285"><ele>12.666666666666666</ele><time>2026-04-28T18:02:40.991Z</time></trkpt><trkpt lat="38.0396648" lon="13.5640887"><ele>14.333333333333332</ele><time>2026-04-28T18:02:41.992Z</time></trkpt><trkpt lat="38.0397713" lon="13.5638819"><ele>16.0</ele><time>2026-04-28T18:02:42.991Z</time></trkpt><trkpt lat="38.0398675" lon="13.5636815"><ele>16.0</ele><time>2026-04-28T18:02:43.991Z</time></trkpt><trkpt lat="38.0399513" lon="13.563477"><ele>16.0</ele><time>2026-04-28T18:02:44.992Z</time></trkpt><trkpt lat="38.0400398" lon="13.5632789"><ele>16.0</ele><time>2026-04-28T18:02:45.992Z</time></trkpt><trkpt lat="38.0401218" lon="13.5630997"><ele>15.25</ele><time>2026-04-28T18:02:46.991Z</time></trkpt><trkpt lat="38.0402054" lon="13.5629358"><ele>14.5</ele><time>2026-04-28T18:02:47.991Z</time></trkpt><trkpt lat="38.0402935" lon="13.5627984"><ele>13.75</ele><time>2026-04-28T18:02:48.991Z</time></trkpt><trkpt lat="38.0404085" lon="13.5626929"><ele>13.0</ele><time>2026-04-28T18:02:49.992Z</time></trkpt><trkpt lat="38.0405524" lon="13.5626172"><ele>13.333333333333332</ele><time>2026-04-28T18:02:50.991Z</time></trkpt><trkpt lat="38.0407106" lon="13.5625616"><ele>13.666666666666668</ele><time>2026-04-28T18:02:51.991Z</time></trkpt><trkpt lat="38.0408667" lon="13.5625477"><ele>14.0</ele><time>2026-04-28T18:02:52.992Z</time></trkpt><trkpt lat="38.0410255" lon="13.5625728"><ele>14.0</ele><time>2026-04-28T18:02:53.992Z</time></trkpt><trkpt lat="38.0411854" lon="13.5626134"><ele>14.0</ele><time>2026-04-28T18:02:54.991Z</time></trkpt><trkpt lat="38.0413458" lon="13.5626289"><ele>14.0</ele><time>2026-04-28T18:02:55.992Z</time></trkpt><trkpt lat="38.0415014" lon="13.5625821"><ele>12.666666666666668</ele><time>2026-04-28T18:02:56.992Z</time></trkpt><trkpt lat="38.0416483" lon="13.5624895"><ele>11.333333333333334</ele><time>2026-04-28T18:02:57.991Z</time></trkpt><trkpt lat="38.0417732" lon="13.5623911"><ele>10.0</ele><time>2026-04-28T18:02:58.992Z</time></trkpt><trkpt lat="38.0418897" lon="13.562293"><ele>10.0</ele><time>2026-04-28T18:02:59.991Z</time></trkpt><trkpt lat="38.0419992" lon="13.562208"><ele>10.0</ele><time>2026-04-28T18:03:00.992Z</time></trkpt><trkpt lat="38.0420997" lon="13.5621262"><ele>10.0</ele><time>2026-04-28T18:03:01.992Z</time></trkpt><trkpt lat="38.0422099" lon="13.5620336"><ele>10.0</ele><time>2026-04-28T18:03:02.992Z</time></trkpt><trkpt lat="38.0423206" lon="13.5619359"><ele>9.5</ele><time>2026-04-28T18:03:03.992Z</time></trkpt><trkpt lat="38.0424313" lon="13.5618372"><ele>9.0</ele><time>2026-04-28T18:03:04.992Z</time></trkpt><trkpt lat="38.0425499" lon="13.5617295"><ele>8.5</ele><time>2026-04-28T18:03:05.992Z</time></trkpt><trkpt lat="38.0426756" lon="13.5616235"><ele>8.0</ele><time>2026-04-28T18:03:06.992Z</time></trkpt><trkpt lat="38.0427793" lon="13.5615268"><ele>8.0</ele><time>2026-04-28T18:03:07.991Z</time></trkpt><trkpt lat="38.0428687" lon="13.5614548"><ele>8.0</ele><time>2026-04-28T18:03:08.992Z</time></trkpt><trkpt lat="38.0429724" lon="13.561367"><ele>8.0</ele><time>2026-04-28T18:03:09.992Z</time></trkpt><trkpt lat="38.0430808" lon="13.5612728"><ele>8.0</ele><time>2026-04-28T18:03:10.992Z</time></trkpt><trkpt lat="38.0431896" lon="13.5611733"><ele>8.0</ele><time>2026-04-28T18:03:11.991Z</time></trkpt><trkpt lat="38.0433023" lon="13.5610702"><ele>8.0</ele><time>2026-04-28T18:03:12.992Z</time></trkpt><trkpt lat="38.0434254" lon="13.5609502"><ele>8.0</ele><time>2026-04-28T18:03:13.992Z</time></trkpt><trkpt lat="38.0435561" lon="13.5608303"><ele>8.0</ele><time>2026-04-28T18:03:14.992Z</time></trkpt><trkpt lat="38.0436948" lon="13.560703"><ele>8.0</ele><time>2026-04-28T18:03:15.992Z</time></trkpt><trkpt lat="38.0438441" lon="13.5605721"><ele>8.0</ele><time>2026-04-28T18:03:16.992Z</time></trkpt><trkpt lat="38.0439902" lon="13.5604408"><ele>8.333333333333332</ele><time>2026-04-28T18:03:17.992Z</time></trkpt><trkpt lat="38.0441469" lon="13.5603064"><ele>8.666666666666666</ele><time>2026-04-28T18:03:18.992Z</time></trkpt><trkpt lat="38.0443071" lon="13.5601564"><ele>9.0</ele><time>2026-04-28T18:03:19.992Z</time></trkpt><trkpt lat="38.0444539" lon="13.5600131"><ele>9.0</ele><time>2026-04-28T18:03:20.992Z</time></trkpt><trkpt lat="38.0445821" lon="13.5598873"><ele>9.0</ele><time>2026-04-28T18:03:21.991Z</time></trkpt><trkpt lat="38.0446909" lon="13.5597809"><ele>9.0</ele><time>2026-04-28T18:03:22.992Z</time></trkpt><trkpt lat="38.0447948" lon="13.5596673"><ele>9.0</ele><time>2026-04-28T18:03:23.992Z</time></trkpt><trkpt lat="38.0449111" lon="13.5595482"><ele>8.666666666666666</ele><time>2026-04-28T18:03:24.992Z</time></trkpt><trkpt lat="38.0450355" lon="13.5594111"><ele>8.333333333333332</ele><time>2026-04-28T18:03:25.992Z</time></trkpt><trkpt lat="38.0451585" lon="13.559266"><ele>8.0</ele><time>2026-04-28T18:03:26.992Z</time></trkpt><trkpt lat="38.0452824" lon="13.5591215"><ele>8.0</ele><time>2026-04-28T18:03:27.992Z</time></trkpt><trkpt lat="38.0454009" lon="13.5589711"><ele>8.0</ele><time>2026-04-28T18:03:28.992Z</time></trkpt><trkpt lat="38.0455228" lon="13.5588166"><ele>8.0</ele><time>2026-04-28T18:03:29.992Z</time></trkpt><trkpt lat="38.0456515" lon="13.5586416"><ele>7.666666666666666</ele><time>2026-04-28T18:03:30.992Z</time></trkpt><trkpt lat="38.0457831" lon="13.5584661"><ele>7.333333333333334</ele><time>2026-04-28T18:03:31.992Z</time></trkpt><trkpt lat="38.0459227" lon="13.5582873"><ele>7.0</ele><time>2026-04-28T18:03:32.992Z</time></trkpt><trkpt lat="38.0460662" lon="13.5581051"><ele>7.0</ele><time>2026-04-28T18:03:33.992Z</time></trkpt><trkpt lat="38.0462072" lon="13.557914"><ele>7.0</ele><time>2026-04-28T18:03:34.992Z</time></trkpt><trkpt lat="38.0463561" lon="13.5577145"><ele>7.0</ele><time>2026-04-28T18:03:35.992Z</time></trkpt><trkpt lat="38.0465093" lon="13.5574998"><ele>6.0</ele><time>2026-04-28T18:03:36.992Z</time></trkpt><trkpt lat="38.0466592" lon="13.5572846"><ele>5.0</ele><time>2026-04-28T18:03:37.992Z</time></trkpt><trkpt lat="38.0468126" lon="13.5570639"><ele>5.333333333333334</ele><time>2026-04-28T18:03:38.992Z</time></trkpt><trkpt lat="38.0469446" lon="13.5568482"><ele>5.666666666666667</ele><time>2026-04-28T18:03:39.992Z</time></trkpt><trkpt lat="38.0470448" lon="13.5566232"><ele>6.0</ele><time>2026-04-28T18:03:40.992Z</time></trkpt><trkpt lat="38.0471127" lon="13.5564064"><ele>6.666666666666666</ele><time>2026-04-28T18:03:41.991Z</time></trkpt><trkpt lat="38.0471736" lon="13.5561986"><ele>7.333333333333333</ele><time>2026-04-28T18:03:42.992Z</time></trkpt><trkpt lat="38.0472321" lon="13.5559973"><ele>8.0</ele><time>2026-04-28T18:03:43.991Z</time></trkpt><trkpt lat="38.0473002" lon="13.5557951"><ele>8.0</ele><time>2026-04-28T18:03:44.992Z</time></trkpt><trkpt lat="38.0473784" lon="13.5555868"><ele>8.0</ele><time>2026-04-28T18:03:45.992Z</time></trkpt><trkpt lat="38.0474693" lon="13.5553726"><ele>8.0</ele><time>2026-04-28T18:03:46.992Z</time></trkpt><trkpt lat="38.0475677" lon="13.5551526"><ele>7.666666666666666</ele><time>2026-04-28T18:03:47.992Z</time></trkpt><trkpt lat="38.0476664" lon="13.5549317"><ele>7.333333333333334</ele><time>2026-04-28T18:03:48.991Z</time></trkpt><trkpt lat="38.0477659" lon="13.5547056"><ele>7.0</ele><time>2026-04-28T18:03:49.992Z</time></trkpt><trkpt lat="38.0478733" lon="13.5544715"><ele>7.0</ele><time>2026-04-28T18:03:50.992Z</time></trkpt><trkpt lat="38.0479843" lon="13.5542332"><ele>7.0</ele><time>2026-04-28T18:03:51.992Z</time></trkpt><trkpt lat="38.0480989" lon="13.5539927"><ele>7.0</ele><time>2026-04-28T18:03:52.992Z</time></trkpt><trkpt lat="38.0482178" lon="13.553747"><ele>7.5</ele><time>2026-04-28T18:03:53.992Z</time></trkpt><trkpt lat="38.0483466" lon="13.5535104"><ele>8.0</ele><time>2026-04-28T18:03:54.992Z</time></trkpt><trkpt lat="38.0484919" lon="13.5532933"><ele>8.0</ele><time>2026-04-28T18:03:55.991Z</time></trkpt><trkpt lat="38.0486464" lon="13.5530786"><ele>8.0</ele><time>2026-04-28T18:03:56.991Z</time></trkpt><trkpt lat="38.0487947" lon="13.5528603"><ele>9.0</ele><time>2026-04-28T18:03:57.992Z</time></trkpt><trkpt lat="38.0489372" lon="13.5526243"><ele>10.0</ele><time>2026-04-28T18:03:58.992Z</time></trkpt><trkpt lat="38.0490713" lon="13.5523978"><ele>9.333333333333334</ele><time>2026-04-28T18:03:59.992Z</time></trkpt><trkpt lat="38.0492035" lon="13.5521738"><ele>8.666666666666666</ele><time>2026-04-28T18:04:00.992Z</time></trkpt><trkpt lat="38.0493277" lon="13.5519531"><ele>8.0</ele><time>2026-04-28T18:04:01.992Z</time></trkpt><trkpt lat="38.0494436" lon="13.5517223"><ele>8.0</ele><time>2026-04-28T18:04:02.991Z</time></trkpt><trkpt lat="38.0495447" lon="13.551496"><ele>8.0</ele><time>2026-04-28T18:04:03.992Z</time></trkpt><trkpt lat="38.0496363" lon="13.5512825"><ele>8.0</ele><time>2026-04-28T18:04:04.992Z</time></trkpt><trkpt lat="38.0497185" lon="13.5510856"><ele>8.0</ele><time>2026-04-28T18:04:05.992Z</time></trkpt><trkpt lat="38.0497883" lon="13.5509043"><ele>8.0</ele><time>2026-04-28T18:04:06.992Z</time></trkpt><trkpt lat="38.0498315" lon="13.5507257"><ele>8.0</ele><time>2026-04-28T18:04:07.991Z</time></trkpt><trkpt lat="38.049844" lon="13.5505274"><ele>8.333333333333332</ele><time>2026-04-28T18:04:08.992Z</time></trkpt><trkpt lat="38.0498434" lon="13.5503036"><ele>8.666666666666666</ele><time>2026-04-28T18:04:09.992Z</time></trkpt><trkpt lat="38.0498356" lon="13.5500654"><ele>9.0</ele><time>2026-04-28T18:04:10.992Z</time></trkpt><trkpt lat="38.0498251" lon="13.5498266"><ele>9.0</ele><time>2026-04-28T18:04:11.991Z</time></trkpt><trkpt lat="38.0498178" lon="13.5495901"><ele>9.0</ele><time>2026-04-28T18:04:12.992Z</time></trkpt><trkpt lat="38.0498029" lon="13.5493552"><ele>9.0</ele><time>2026-04-28T18:04:13.992Z</time></trkpt><trkpt lat="38.0497895" lon="13.5491401"><ele>10.0</ele><time>2026-04-28T18:04:14.991Z</time></trkpt><trkpt lat="38.0497837" lon="13.5489534"><ele>11.0</ele><time>2026-04-28T18:04:15.991Z</time></trkpt><trkpt lat="38.0498027" lon="13.5487965"><ele>12.0</ele><time>2026-04-28T18:04:16.992Z</time></trkpt><trkpt lat="38.049854" lon="13.548665"><ele>13.0</ele><time>2026-04-28T18:04:17.992Z</time></trkpt><trkpt lat="38.0499166" lon="13.5485618"><ele>12.5</ele><time>2026-04-28T18:04:18.992Z</time></trkpt><trkpt lat="38.0499995" lon="13.548459"><ele>12.0</ele><time>2026-04-28T18:04:19.991Z</time></trkpt><trkpt lat="38.0500833" lon="13.5483654"><ele>11.5</ele><time>2026-04-28T18:04:20.992Z</time></trkpt><trkpt lat="38.0501707" lon="13.5482666"><ele>11.0</ele><time>2026-04-28T18:04:21.992Z</time></trkpt><trkpt lat="38.0502557" lon="13.548163"><ele>11.0</ele><time>2026-04-28T18:04:22.992Z</time></trkpt><trkpt lat="38.0503461" lon="13.5480578"><ele>11.0</ele><time>2026-04-28T18:04:23.992Z</time></trkpt><trkpt lat="38.0504375" lon="13.5479503"><ele>11.0</ele><time>2026-04-28T18:04:24.991Z</time></trkpt><trkpt lat="38.0505319" lon="13.5478417"><ele>11.0</ele><time>2026-04-28T18:04:25.992Z</time></trkpt><trkpt lat="38.0506241" lon="13.5477227"><ele>11.5</ele><time>2026-04-28T18:04:26.992Z</time></trkpt><trkpt lat="38.0507207" lon="13.5476047"><ele>12.0</ele><time>2026-04-28T18:04:27.991Z</time></trkpt><trkpt lat="38.0508222" lon="13.5474824"><ele>12.5</ele><time>2026-04-28T18:04:28.992Z</time></trkpt><trkpt lat="38.0509215" lon="13.5473601"><ele>13.0</ele><time>2026-04-28T18:04:29.991Z</time></trkpt><trkpt lat="38.0510145" lon="13.5472445"><ele>13.0</ele><time>2026-04-28T18:04:30.992Z</time></trkpt><trkpt lat="38.0510997" lon="13.5471345"><ele>13.0</ele><time>2026-04-28T18:04:31.992Z</time></trkpt><trkpt lat="38.0511808" lon="13.5470378"><ele>13.0</ele><time>2026-04-28T18:04:32.992Z</time></trkpt><trkpt lat="38.0512551" lon="13.5469487"><ele>13.0</ele><time>2026-04-28T18:04:33.992Z</time></trkpt><trkpt lat="38.0513237" lon="13.5468618"><ele>13.0</ele><time>2026-04-28T18:04:34.992Z</time></trkpt><trkpt lat="38.0513936" lon="13.5467758"><ele>13.75</ele><time>2026-04-28T18:04:35.992Z</time></trkpt><trkpt lat="38.051467" lon="13.5466842"><ele>14.5</ele><time>2026-04-28T18:04:36.992Z</time></trkpt><trkpt lat="38.0515485" lon="13.5465934"><ele>15.25</ele><time>2026-04-28T18:04:37.992Z</time></trkpt><trkpt lat="38.0516439" lon="13.5465049"><ele>16.0</ele><time>2026-04-28T18:04:38.992Z</time></trkpt><trkpt lat="38.051755" lon="13.5464262"><ele>16.0</ele><time>2026-04-28T18:04:39.992Z</time></trkpt><trkpt lat="38.0518734" lon="13.5463727"><ele>16.0</ele><time>2026-04-28T18:04:40.991Z</time></trkpt><trkpt lat="38.0520017" lon="13.5463484"><ele>16.0</ele><time>2026-04-28T18:04:41.992Z</time></trkpt><trkpt lat="38.0521259" lon="13.5463277"><ele>16.0</ele><time>2026-04-28T18:04:42.992Z</time></trkpt><trkpt lat="38.0522381" lon="13.5462918"><ele>16.0</ele><time>2026-04-28T18:04:43.992Z</time></trkpt><trkpt lat="38.052349" lon="13.5462189"><ele>16.0</ele><time>2026-04-28T18:04:44.992Z</time></trkpt><trkpt lat="38.0524576" lon="13.5461261"><ele>16.0</ele><time>2026-04-28T18:04:45.992Z</time></trkpt><trkpt lat="38.0525605" lon="13.5460173"><ele>16.0</ele><time>2026-04-28T18:04:46.992Z</time></trkpt><trkpt lat="38.0526537" lon="13.5459025"><ele>15.25</ele><time>2026-04-28T18:04:47.992Z</time></trkpt><trkpt lat="38.0527424" lon="13.5457902"><ele>14.5</ele><time>2026-04-28T18:04:48.992Z</time></trkpt><trkpt lat="38.0528312" lon="13.5456727"><ele>13.75</ele><time>2026-04-28T18:04:49.991Z</time></trkpt><trkpt lat="38.0529264" lon="13.5455537"><ele>13.0</ele><time>2026-04-28T18:04:50.992Z</time></trkpt><trkpt lat="38.0530294" lon="13.5454327"><ele>13.5</ele><time>2026-04-28T18:04:51.992Z</time></trkpt><trkpt lat="38.0531367" lon="13.5453225"><ele>14.0</ele><time>2026-04-28T18:04:52.992Z</time></trkpt><trkpt lat="38.0532518" lon="13.5452155"><ele>14.5</ele><time>2026-04-28T18:04:53.992Z</time></trkpt><trkpt lat="38.0533783" lon="13.5451276"><ele>15.0</ele><time>2026-04-28T18:04:54.992Z</time></trkpt><trkpt lat="38.0535123" lon="13.5450447"><ele>13.75</ele><time>2026-04-28T18:04:55.992Z</time></trkpt><trkpt lat="38.0536549" lon="13.544971"><ele>12.5</ele><time>2026-04-28T18:04:56.992Z</time></trkpt><trkpt lat="38.0537862" lon="13.5448974"><ele>11.25</ele><time>2026-04-28T18:04:57.992Z</time></trkpt><trkpt lat="38.0539082" lon="13.5448288"><ele>10.0</ele><time>2026-04-28T18:04:58.992Z</time></trkpt><trkpt lat="38.0540181" lon="13.5447613"><ele>9.75</ele><time>2026-04-28T18:04:59.992Z</time></trkpt><trkpt lat="38.0541277" lon="13.5446986"><ele>9.5</ele><time>2026-04-28T18:05:00.991Z</time></trkpt><trkpt lat="38.0542473" lon="13.5446221"><ele>9.25</ele><time>2026-04-28T18:05:01.992Z</time></trkpt><trkpt lat="38.0543667" lon="13.5445388"><ele>9.0</ele><time>2026-04-28T18:05:02.992Z</time></trkpt><trkpt lat="38.0544765" lon="13.5444514"><ele>9.0</ele><time>2026-04-28T18:05:03.991Z</time></trkpt><trkpt lat="38.0545859" lon="13.5443603"><ele>9.0</ele><time>2026-04-28T18:05:04.991Z</time></trkpt><trkpt lat="38.0547108" lon="13.5442494"><ele>9.0</ele><time>2026-04-28T18:05:05.991Z</time></trkpt><trkpt lat="38.0548564" lon="13.5441203"><ele>9.0</ele><time>2026-04-28T18:05:06.992Z</time></trkpt><trkpt lat="38.055014" lon="13.5439849"><ele>9.0</ele><time>2026-04-28T18:05:07.992Z</time></trkpt><trkpt lat="38.0551748" lon="13.5438404"><ele>9.0</ele><time>2026-04-28T18:05:08.992Z</time></trkpt><trkpt lat="38.0553356" lon="13.5436875"><ele>9.0</ele><time>2026-04-28T18:05:09.992Z</time></trkpt><trkpt lat="38.0554897" lon="13.543534"><ele>9.0</ele><time>2026-04-28T18:05:10.992Z</time></trkpt><trkpt lat="38.0556366" lon="13.5433707"><ele>9.0</ele><time>2026-04-28T18:05:11.991Z</time></trkpt><trkpt lat="38.0557783" lon="13.5431899"><ele>9.333333333333334</ele><time>2026-04-28T18:05:12.992Z</time></trkpt><trkpt lat="38.0559106" lon="13.5429922"><ele>9.666666666666668</ele><time>2026-04-28T18:05:13.992Z</time></trkpt><trkpt lat="38.0560401" lon="13.5427742"><ele>10.0</ele><time>2026-04-28T18:05:14.991Z</time></trkpt><trkpt lat="38.056165" lon="13.5425354"><ele>10.0</ele><time>2026-04-28T18:05:15.991Z</time></trkpt><trkpt lat="38.0562955" lon="13.5422933"><ele>10.0</ele><time>2026-04-28T18:05:16.991Z</time></trkpt><trkpt lat="38.0564338" lon="13.5420535"><ele>9.666666666666668</ele><time>2026-04-28T18:05:17.992Z</time></trkpt><trkpt lat="38.0565733" lon="13.5418276"><ele>9.333333333333334</ele><time>2026-04-28T18:05:18.992Z</time></trkpt><trkpt lat="38.0567104" lon="13.5416096"><ele>9.0</ele><time>2026-04-28T18:05:19.992Z</time></trkpt><trkpt lat="38.056844" lon="13.5413982"><ele>10.0</ele><time>2026-04-28T18:05:20.991Z</time></trkpt><trkpt lat="38.0569715" lon="13.5412006"><ele>11.0</ele><time>2026-04-28T18:05:21.992Z</time></trkpt><trkpt lat="38.057097" lon="13.5410186"><ele>12.0</ele><time>2026-04-28T18:05:22.992Z</time></trkpt><trkpt lat="38.057216" lon="13.540846"><ele>12.0</ele><time>2026-04-28T18:05:23.991Z</time></trkpt><trkpt lat="38.0573278" lon="13.5406748"><ele>12.0</ele><time>2026-04-28T18:05:24.991Z</time></trkpt><trkpt lat="38.0574404" lon="13.5405058"><ele>12.0</ele><time>2026-04-28T18:05:25.991Z</time></trkpt><trkpt lat="38.057557" lon="13.540341"><ele>12.0</ele><time>2026-04-28T18:05:26.992Z</time></trkpt><trkpt lat="38.0576795" lon="13.5401954"><ele>12.0</ele><time>2026-04-28T18:05:27.992Z</time></trkpt><trkpt lat="38.0578115" lon="13.5400693"><ele>12.0</ele><time>2026-04-28T18:05:28.992Z</time></trkpt><trkpt lat="38.0579707" lon="13.5399781"><ele>12.0</ele><time>2026-04-28T18:05:29.992Z</time></trkpt><trkpt lat="38.0581512" lon="13.5399001"><ele>12.0</ele><time>2026-04-28T18:05:30.992Z</time></trkpt><trkpt lat="38.0583332" lon="13.5398193"><ele>12.0</ele><time>2026-04-28T18:05:31.991Z</time></trkpt><trkpt lat="38.0585192" lon="13.5397372"><ele>11.666666666666666</ele><time>2026-04-28T18:05:32.991Z</time></trkpt><trkpt lat="38.0587085" lon="13.5396622"><ele>11.333333333333332</ele><time>2026-04-28T18:05:33.99Z</time></trkpt><trkpt lat="38.0589046" lon="13.5395886"><ele>11.0</ele><time>2026-04-28T18:05:34.991Z</time></trkpt><trkpt lat="38.0591017" lon="13.5395158"><ele>13.333333333333332</ele><time>2026-04-28T18:05:35.99Z</time></trkpt><trkpt lat="38.0592981" lon="13.5394438"><ele>15.666666666666666</ele><time>2026-04-28T18:05:36.991Z</time></trkpt><trkpt lat="38.0594892" lon="13.5393676"><ele>18.0</ele><time>2026-04-28T18:05:37.99Z</time></trkpt><trkpt lat="38.0596855" lon="13.5392893"><ele>18.0</ele><time>2026-04-28T18:05:38.991Z</time></trkpt><trkpt lat="38.0598762" lon="13.5391969"><ele>18.0</ele><time>2026-04-28T18:05:39.991Z</time></trkpt><trkpt lat="38.0600707" lon="13.5391021"><ele>18.0</ele><time>2026-04-28T18:05:40.99Z</time></trkpt><trkpt lat="38.0602654" lon="13.5390013"><ele>17.0</ele><time>2026-04-28T18:05:41.99Z</time></trkpt><trkpt lat="38.0604646" lon="13.5388957"><ele>16.0</ele><time>2026-04-28T18:05:42.991Z</time></trkpt><trkpt lat="38.0606608" lon="13.5387996"><ele>15.0</ele><time>2026-04-28T18:05:43.99Z</time></trkpt><trkpt lat="38.0608582" lon="13.5387054"><ele>15.0</ele><time>2026-04-28T18:05:44.991Z</time></trkpt><trkpt lat="38.0610483" lon="13.5386172"><ele>15.0</ele><time>2026-04-28T18:05:45.99Z</time></trkpt><trkpt lat="38.0612309" lon="13.538535"><ele>15.0</ele><time>2026-04-28T18:05:46.991Z</time></trkpt><trkpt lat="38.0614121" lon="13.5384544"><ele>15.0</ele><time>2026-04-28T18:05:47.991Z</time></trkpt><trkpt lat="38.0615902" lon="13.5383792"><ele>15.0</ele><time>2026-04-28T18:05:48.991Z</time></trkpt><trkpt lat="38.0617617" lon="13.5383031"><ele>15.0</ele><time>2026-04-28T18:05:49.991Z</time></trkpt><trkpt lat="38.0619272" lon="13.5382265"><ele>13.666666666666666</ele><time>2026-04-28T18:05:50.99Z</time></trkpt><trkpt lat="38.0620967" lon="13.5381431"><ele>12.333333333333332</ele><time>2026-04-28T18:05:51.99Z</time></trkpt><trkpt lat="38.0622649" lon="13.5380624"><ele>11.0</ele><time>2026-04-28T18:05:52.99Z</time></trkpt><trkpt lat="38.06243" lon="13.5379841"><ele>11.333333333333332</ele><time>2026-04-28T18:05:53.991Z</time></trkpt><trkpt lat="38.0626005" lon="13.5379064"><ele>11.666666666666666</ele><time>2026-04-28T18:05:54.991Z</time></trkpt><trkpt lat="38.0627676" lon="13.5378224"><ele>12.0</ele><time>2026-04-28T18:05:55.991Z</time></trkpt><trkpt lat="38.0629281" lon="13.5377439"><ele>12.0</ele><time>2026-04-28T18:05:56.991Z</time></trkpt><trkpt lat="38.0630856" lon="13.5376637"><ele>12.0</ele><time>2026-04-28T18:05:57.99Z</time></trkpt><trkpt lat="38.0632362" lon="13.5375953"><ele>12.0</ele><time>2026-04-28T18:05:58.991Z</time></trkpt><trkpt lat="38.0633747" lon="13.5375243"><ele>11.25</ele><time>2026-04-28T18:05:59.991Z</time></trkpt><trkpt lat="38.0634984" lon="13.5374499"><ele>10.5</ele><time>2026-04-28T18:06:00.99Z</time></trkpt><trkpt lat="38.0636171" lon="13.5373692"><ele>9.75</ele><time>2026-04-28T18:06:01.99Z</time></trkpt><trkpt lat="38.0637237" lon="13.5372776"><ele>9.0</ele><time>2026-04-28T18:06:02.99Z</time></trkpt><trkpt lat="38.0638281" lon="13.5371703"><ele>9.5</ele><time>2026-04-28T18:06:03.991Z</time></trkpt><trkpt lat="38.0639273" lon="13.5370519"><ele>10.0</ele><time>2026-04-28T18:06:04.991Z</time></trkpt><trkpt lat="38.0640297" lon="13.5369313"><ele>10.5</ele><time>2026-04-28T18:06:05.991Z</time></trkpt><trkpt lat="38.0641378" lon="13.536799"><ele>11.0</ele><time>2026-04-28T18:06:06.991Z</time></trkpt><trkpt lat="38.0642551" lon="13.5366561"><ele>11.0</ele><time>2026-04-28T18:06:07.991Z</time></trkpt><trkpt lat="38.0643823" lon="13.5365082"><ele>11.0</ele><time>2026-04-28T18:06:08.991Z</time></trkpt><trkpt lat="38.0645131" lon="13.5363561"><ele>11.0</ele><time>2026-04-28T18:06:09.991Z</time></trkpt><trkpt lat="38.0646474" lon="13.5362037"><ele>11.0</ele><time>2026-04-28T18:06:10.99Z</time></trkpt><trkpt lat="38.0647998" lon="13.5360606"><ele>11.0</ele><time>2026-04-28T18:06:11.991Z</time></trkpt><trkpt lat="38.0649662" lon="13.5359379"><ele>11.0</ele><time>2026-04-28T18:06:12.991Z</time></trkpt><trkpt lat="38.0651332" lon="13.5358335"><ele>10.666666666666666</ele><time>2026-04-28T18:06:13.991Z</time></trkpt><trkpt lat="38.0653063" lon="13.5357377"><ele>10.333333333333334</ele><time>2026-04-28T18:06:14.991Z</time></trkpt><trkpt lat="38.0654841" lon="13.5356499"><ele>10.0</ele><time>2026-04-28T18:06:15.991Z</time></trkpt><trkpt lat="38.065668" lon="13.5355748"><ele>9.0</ele><time>2026-04-28T18:06:16.991Z</time></trkpt><trkpt lat="38.0658479" lon="13.5355128"><ele>8.0</ele><time>2026-04-28T18:06:17.991Z</time></trkpt><trkpt lat="38.0660229" lon="13.5354532"><ele>7.0</ele><time>2026-04-28T18:06:18.991Z</time></trkpt><trkpt lat="38.0662009" lon="13.5353934"><ele>7.0</ele><time>2026-04-28T18:06:19.991Z</time></trkpt><trkpt lat="38.0663843" lon="13.5353218"><ele>7.0</ele><time>2026-04-28T18:06:20.991Z</time></trkpt><trkpt lat="38.0665692" lon="13.5352481"><ele>7.0</ele><time>2026-04-28T18:06:21.991Z</time></trkpt><trkpt lat="38.0667598" lon="13.5351803"><ele>7.0</ele><time>2026-04-28T18:06:22.991Z</time></trkpt><trkpt lat="38.066952" lon="13.5351316"><ele>7.0</ele><time>2026-04-28T18:06:23.99Z</time></trkpt><trkpt lat="38.0671473" lon="13.5351014"><ele>7.0</ele><time>2026-04-28T18:06:24.99Z</time></trkpt><trkpt lat="38.0673303" lon="13.5350785"><ele>7.333333333333334</ele><time>2026-04-28T18:06:25.991Z</time></trkpt><trkpt lat="38.067502" lon="13.5350568"><ele>7.666666666666666</ele><time>2026-04-28T18:06:26.991Z</time></trkpt><trkpt lat="38.0676681" lon="13.5350334"><ele>8.0</ele><time>2026-04-28T18:06:27.991Z</time></trkpt><trkpt lat="38.0678284" lon="13.5350187"><ele>8.0</ele><time>2026-04-28T18:06:28.991Z</time></trkpt><trkpt lat="38.0679886" lon="13.5350326"><ele>8.0</ele><time>2026-04-28T18:06:29.991Z</time></trkpt><trkpt lat="38.068161" lon="13.5350762"><ele>8.0</ele><time>2026-04-28T18:06:30.99Z</time></trkpt><trkpt lat="38.0683514" lon="13.5351531"><ele>8.333333333333332</ele><time>2026-04-28T18:06:31.99Z</time></trkpt><trkpt lat="38.0685567" lon="13.535248"><ele>8.666666666666666</ele><time>2026-04-28T18:06:32.99Z</time></trkpt><trkpt lat="38.0687743" lon="13.5353463"><ele>9.0</ele><time>2026-04-28T18:06:33.991Z</time></trkpt><trkpt lat="38.0689911" lon="13.5354405"><ele>7.666666666666667</ele><time>2026-04-28T18:06:34.991Z</time></trkpt><trkpt lat="38.0692015" lon="13.5355225"><ele>6.333333333333334</ele><time>2026-04-28T18:06:35.991Z</time></trkpt><trkpt lat="38.0693939" lon="13.5356028"><ele>5.0</ele><time>2026-04-28T18:06:36.991Z</time></trkpt><trkpt lat="38.0695839" lon="13.5356787"><ele>5.0</ele><time>2026-04-28T18:06:37.991Z</time></trkpt><trkpt lat="38.0697711" lon="13.5357589"><ele>5.0</ele><time>2026-04-28T18:06:38.991Z</time></trkpt><trkpt lat="38.0699552" lon="13.535841"><ele>5.0</ele><time>2026-04-28T18:06:39.991Z</time></trkpt><trkpt lat="38.0701358" lon="13.5359279"><ele>4.333333333333334</ele><time>2026-04-28T18:06:40.991Z</time></trkpt><trkpt lat="38.0703043" lon="13.5360215"><ele>3.666666666666667</ele><time>2026-04-28T18:06:41.991Z</time></trkpt><trkpt lat="38.070456" lon="13.5361276"><ele>3.0</ele><time>2026-04-28T18:06:42.99Z</time></trkpt><trkpt lat="38.0705875" lon="13.5362498"><ele>3.0</ele><time>2026-04-28T18:06:43.991Z</time></trkpt><trkpt lat="38.0707016" lon="13.5363908"><ele>3.0</ele><time>2026-04-28T18:06:44.99Z</time></trkpt><trkpt lat="38.0707925" lon="13.536568"><ele>3.0</ele><time>2026-04-28T18:06:45.991Z</time></trkpt><trkpt lat="38.070885" lon="13.5367658"><ele>3.666666666666667</ele><time>2026-04-28T18:06:46.991Z</time></trkpt><trkpt lat="38.0709941" lon="13.5369699"><ele>4.333333333333334</ele><time>2026-04-28T18:06:47.991Z</time></trkpt><trkpt lat="38.0711208" lon="13.5371649"><ele>5.0</ele><time>2026-04-28T18:06:48.99Z</time></trkpt><trkpt lat="38.0712711" lon="13.5373505"><ele>5.0</ele><time>2026-04-28T18:06:49.991Z</time></trkpt><trkpt lat="38.0714437" lon="13.5375148"><ele>5.0</ele><time>2026-04-28T18:06:50.99Z</time></trkpt><trkpt lat="38.0716169" lon="13.537681"><ele>5.0</ele><time>2026-04-28T18:06:51.991Z</time></trkpt><trkpt lat="38.0717965" lon="13.5378419"><ele>5.0</ele><time>2026-04-28T18:06:52.991Z</time></trkpt><trkpt lat="38.0719723" lon="13.5380088"><ele>5.0</ele><time>2026-04-28T18:06:53.991Z</time></trkpt><trkpt lat="38.0721467" lon="13.5381809"><ele>5.0</ele><time>2026-04-28T18:06:54.991Z</time></trkpt><trkpt lat="38.0723142" lon="13.538345"><ele>5.666666666666667</ele><time>2026-04-28T18:06:55.991Z</time></trkpt><trkpt lat="38.0724716" lon="13.5385069"><ele>6.333333333333334</ele><time>2026-04-28T18:06:56.991Z</time></trkpt><trkpt lat="38.0726221" lon="13.5386625"><ele>7.0</ele><time>2026-04-28T18:06:57.991Z</time></trkpt><trkpt lat="38.0727546" lon="13.5388184"><ele>7.0</ele><time>2026-04-28T18:06:58.991Z</time></trkpt><trkpt lat="38.0728557" lon="13.5390021"><ele>7.0</ele><time>2026-04-28T18:06:59.991Z</time></trkpt><trkpt lat="38.0729408" lon="13.5392131"><ele>7.0</ele><time>2026-04-28T18:07:00.991Z</time></trkpt><trkpt lat="38.0730184" lon="13.5394278"><ele>6.0</ele><time>2026-04-28T18:07:01.991Z</time></trkpt><trkpt lat="38.0730924" lon="13.539637"><ele>5.0</ele><time>2026-04-28T18:07:02.991Z</time></trkpt><trkpt lat="38.0731686" lon="13.5398323"><ele>4.0</ele><time>2026-04-28T18:07:03.991Z</time></trkpt><trkpt lat="38.0732471" lon="13.5400311"><ele>7.0</ele><time>2026-04-28T18:07:04.991Z</time></trkpt><trkpt lat="38.0733307" lon="13.5402392"><ele>10.0</ele><time>2026-04-28T18:07:05.991Z</time></trkpt><trkpt lat="38.0734077" lon="13.5404617"><ele>13.0</ele><time>2026-04-28T18:07:06.991Z</time></trkpt><trkpt lat="38.0734854" lon="13.5406918"><ele>13.0</ele><time>2026-04-28T18:07:07.991Z</time></trkpt><trkpt lat="38.0735706" lon="13.5409217"><ele>13.0</ele><time>2026-04-28T18:07:08.991Z</time></trkpt><trkpt lat="38.0736812" lon="13.5411472"><ele>13.0</ele><time>2026-04-28T18:07:09.991Z</time></trkpt><trkpt lat="38.073804" lon="13.5413604"><ele>11.666666666666666</ele><time>2026-04-28T18:07:10.991Z</time></trkpt><trkpt lat="38.0739302" lon="13.5415576"><ele>10.333333333333332</ele><time>2026-04-28T18:07:11.991Z</time></trkpt><trkpt lat="38.0740671" lon="13.5417443"><ele>9.0</ele><time>2026-04-28T18:07:12.991Z</time></trkpt><trkpt lat="38.0742243" lon="13.5418954"><ele>10.333333333333332</ele><time>2026-04-28T18:07:13.991Z</time></trkpt><trkpt lat="38.0743978" lon="13.5420308"><ele>11.666666666666666</ele><time>2026-04-28T18:07:14.991Z</time></trkpt><trkpt lat="38.0745769" lon="13.5421546"><ele>13.0</ele><time>2026-04-28T18:07:15.991Z</time></trkpt><trkpt lat="38.074755" lon="13.5422665"><ele>16.666666666666664</ele><time>2026-04-28T18:07:16.991Z</time></trkpt><trkpt lat="38.0749397" lon="13.5423657"><ele>20.333333333333332</ele><time>2026-04-28T18:07:17.991Z</time></trkpt><trkpt lat="38.075129" lon="13.542445"><ele>24.0</ele><time>2026-04-28T18:07:18.991Z</time></trkpt><trkpt lat="38.0753205" lon="13.5424836"><ele>24.0</ele><time>2026-04-28T18:07:19.991Z</time></trkpt><trkpt lat="38.0754973" lon="13.5425061"><ele>24.0</ele><time>2026-04-28T18:07:20.99Z</time></trkpt><trkpt lat="38.0756498" lon="13.5425111"><ele>24.0</ele><time>2026-04-28T18:07:21.991Z</time></trkpt><trkpt lat="38.0757812" lon="13.5424902"><ele>25.75</ele><time>2026-04-28T18:07:22.991Z</time></trkpt><trkpt lat="38.0758908" lon="13.5424383"><ele>27.5</ele><time>2026-04-28T18:07:23.991Z</time></trkpt><trkpt lat="38.0759832" lon="13.5423361"><ele>29.25</ele><time>2026-04-28T18:07:24.991Z</time></trkpt><trkpt lat="38.0760409" lon="13.5422001"><ele>31.0</ele><time>2026-04-28T18:07:25.991Z</time></trkpt><trkpt lat="38.0760613" lon="13.5420572"><ele>32.66666666666667</ele><time>2026-04-28T18:07:26.991Z</time></trkpt><trkpt lat="38.0760779" lon="13.54188"><ele>34.333333333333336</ele><time>2026-04-28T18:07:27.99Z</time></trkpt><trkpt lat="38.0760982" lon="13.5416818"><ele>36.0</ele><time>2026-04-28T18:07:28.991Z</time></trkpt><trkpt lat="38.0761208" lon="13.5414847"><ele>36.0</ele><time>2026-04-28T18:07:29.991Z</time></trkpt><trkpt lat="38.0761461" lon="13.5412778"><ele>36.0</ele><time>2026-04-28T18:07:30.99Z</time></trkpt><trkpt lat="38.0761701" lon="13.5410564"><ele>36.0</ele><time>2026-04-28T18:07:31.991Z</time></trkpt><trkpt lat="38.0762039" lon="13.5408382"><ele>35.666666666666664</ele><time>2026-04-28T18:07:32.991Z</time></trkpt><trkpt lat="38.0762404" lon="13.5406101"><ele>35.33333333333333</ele><time>2026-04-28T18:07:33.99Z</time></trkpt><trkpt lat="38.0762797" lon="13.5403762"><ele>35.0</ele><time>2026-04-28T18:07:34.991Z</time></trkpt><trkpt lat="38.0763231" lon="13.5401404"><ele>35.0</ele><time>2026-04-28T18:07:35.99Z</time></trkpt><trkpt lat="38.0763686" lon="13.5398986"><ele>35.0</ele><time>2026-04-28T18:07:36.99Z</time></trkpt><trkpt lat="38.0764126" lon="13.5396621"><ele>35.0</ele><time>2026-04-28T18:07:37.991Z</time></trkpt><trkpt lat="38.0764518" lon="13.5394226"><ele>35.0</ele><time>2026-04-28T18:07:38.991Z</time></trkpt><trkpt lat="38.0764885" lon="13.5391988"><ele>35.0</ele><time>2026-04-28T18:07:39.99Z</time></trkpt><trkpt lat="38.076526" lon="13.538981"><ele>35.0</ele><time>2026-04-28T18:07:40.991Z</time></trkpt><trkpt lat="38.0765645" lon="13.5387514"><ele>35.33333333333333</ele><time>2026-04-28T18:07:41.991Z</time></trkpt><trkpt lat="38.0765988" lon="13.5385132"><ele>35.666666666666664</ele><time>2026-04-28T18:07:42.991Z</time></trkpt><trkpt lat="38.0766373" lon="13.5382728"><ele>36.0</ele><time>2026-04-28T18:07:43.991Z</time></trkpt><trkpt lat="38.0766745" lon="13.5380328"><ele>34.666666666666664</ele><time>2026-04-28T18:07:44.991Z</time></trkpt><trkpt lat="38.0767127" lon="13.5377946"><ele>33.33333333333333</ele><time>2026-04-28T18:07:45.991Z</time></trkpt><trkpt lat="38.076752" lon="13.5375716"><ele>32.0</ele><time>2026-04-28T18:07:46.99Z</time></trkpt><trkpt lat="38.0767926" lon="13.5373642"><ele>32.0</ele><time>2026-04-28T18:07:47.991Z</time></trkpt><trkpt lat="38.0768385" lon="13.5371758"><ele>32.0</ele><time>2026-04-28T18:07:48.991Z</time></trkpt><trkpt lat="38.0768933" lon="13.5370112"><ele>32.0</ele><time>2026-04-28T18:07:49.991Z</time></trkpt><trkpt lat="38.0769564" lon="13.5368538"><ele>32.0</ele><time>2026-04-28T18:07:50.991Z</time></trkpt><trkpt lat="38.0770188" lon="13.5367133"><ele>32.0</ele><time>2026-04-28T18:07:51.991Z</time></trkpt><trkpt lat="38.0770823" lon="13.5365756"><ele>32.0</ele><time>2026-04-28T18:07:52.991Z</time></trkpt><trkpt lat="38.0771485" lon="13.5364485"><ele>32.0</ele><time>2026-04-28T18:07:53.991Z</time></trkpt><trkpt lat="38.0772106" lon="13.5363273"><ele>32.0</ele><time>2026-04-28T18:07:54.991Z</time></trkpt><trkpt lat="38.077277" lon="13.5362108"><ele>31.75</ele><time>2026-04-28T18:07:55.991Z</time></trkpt><trkpt lat="38.0773472" lon="13.5360946"><ele>31.5</ele><time>2026-04-28T18:07:56.991Z</time></trkpt><trkpt lat="38.0774158" lon="13.5359799"><ele>31.25</ele><time>2026-04-28T18:07:57.991Z</time></trkpt><trkpt lat="38.077486" lon="13.5358613"><ele>31.0</ele><time>2026-04-28T18:07:58.991Z</time></trkpt><trkpt lat="38.0775504" lon="13.5357516"><ele>31.0</ele><time>2026-04-28T18:07:59.991Z</time></trkpt><trkpt lat="38.0776135" lon="13.5356431"><ele>31.0</ele><time>2026-04-28T18:08:00.991Z</time></trkpt><trkpt lat="38.0776802" lon="13.5355359"><ele>31.0</ele><time>2026-04-28T18:08:01.991Z</time></trkpt><trkpt lat="38.0777465" lon="13.5354256"><ele>31.0</ele><time>2026-04-28T18:08:02.991Z</time></trkpt><trkpt lat="38.077815" lon="13.5353108"><ele>31.0</ele><time>2026-04-28T18:08:03.991Z</time></trkpt><trkpt lat="38.0778849" lon="13.535197"><ele>30.75</ele><time>2026-04-28T18:08:04.991Z</time></trkpt><trkpt lat="38.0779561" lon="13.5350857"><ele>30.5</ele><time>2026-04-28T18:08:05.99Z</time></trkpt><trkpt lat="38.0780294" lon="13.5349748"><ele>30.25</ele><time>2026-04-28T18:08:06.99Z</time></trkpt><trkpt lat="38.078102" lon="13.534862"><ele>30.0</ele><time>2026-04-28T18:08:07.991Z</time></trkpt><trkpt lat="38.0781727" lon="13.5347513"><ele>30.0</ele><time>2026-04-28T18:08:08.991Z</time></trkpt><trkpt lat="38.0782429" lon="13.5346341"><ele>30.0</ele><time>2026-04-28T18:08:09.99Z</time></trkpt><trkpt lat="38.0783213" lon="13.5345067"><ele>30.0</ele><time>2026-04-28T18:08:10.991Z</time></trkpt><trkpt lat="38.0784091" lon="13.534359"><ele>30.0</ele><time>2026-04-28T18:08:11.991Z</time></trkpt><trkpt lat="38.0785163" lon="13.5341967"><ele>30.0</ele><time>2026-04-28T18:08:12.99Z</time></trkpt><trkpt lat="38.0786407" lon="13.5340162"><ele>30.0</ele><time>2026-04-28T18:08:13.991Z</time></trkpt><trkpt lat="38.0787758" lon="13.5338217"><ele>30.0</ele><time>2026-04-28T18:08:14.99Z</time></trkpt><trkpt lat="38.0789149" lon="13.5336141"><ele>31.333333333333336</ele><time>2026-04-28T18:08:15.991Z</time></trkpt><trkpt lat="38.0790555" lon="13.5334072"><ele>32.66666666666667</ele><time>2026-04-28T18:08:16.99Z</time></trkpt><trkpt lat="38.0791885" lon="13.5332034"><ele>34.0</ele><time>2026-04-28T18:08:17.991Z</time></trkpt><trkpt lat="38.0793087" lon="13.5330146"><ele>34.66666666666667</ele><time>2026-04-28T18:08:18.991Z</time></trkpt><trkpt lat="38.0794213" lon="13.5328425"><ele>35.333333333333336</ele><time>2026-04-28T18:08:19.99Z</time></trkpt><trkpt lat="38.0795362" lon="13.532674"><ele>36.0</ele><time>2026-04-28T18:08:20.991Z</time></trkpt><trkpt lat="38.0796509" lon="13.5325222"><ele>36.0</ele><time>2026-04-28T18:08:21.991Z</time></trkpt><trkpt lat="38.0797808" lon="13.5323932"><ele>36.0</ele><time>2026-04-28T18:08:22.991Z</time></trkpt><trkpt lat="38.0799279" lon="13.5322973"><ele>36.0</ele><time>2026-04-28T18:08:23.991Z</time></trkpt><trkpt lat="38.0800968" lon="13.5322308"><ele>37.0</ele><time>2026-04-28T18:08:24.991Z</time></trkpt><trkpt lat="38.0802797" lon="13.5321715"><ele>38.0</ele><time>2026-04-28T18:08:25.991Z</time></trkpt><trkpt lat="38.0804652" lon="13.5321201"><ele>39.0</ele><time>2026-04-28T18:08:26.991Z</time></trkpt><trkpt lat="38.0806531" lon="13.5320661"><ele>40.333333333333336</ele><time>2026-04-28T18:08:27.991Z</time></trkpt><trkpt lat="38.080839" lon="13.5320067"><ele>41.66666666666667</ele><time>2026-04-28T18:08:28.991Z</time></trkpt><trkpt lat="38.0810264" lon="13.5319456"><ele>43.0</ele><time>2026-04-28T18:08:29.991Z</time></trkpt><trkpt lat="38.0812099" lon="13.5318844"><ele>43.0</ele><time>2026-04-28T18:08:30.991Z</time></trkpt><trkpt lat="38.0813936" lon="13.5318192"><ele>43.0</ele><time>2026-04-28T18:08:31.991Z</time></trkpt><trkpt lat="38.0815639" lon="13.5317506"><ele>43.0</ele><time>2026-04-28T18:08:32.991Z</time></trkpt><trkpt lat="38.0817217" lon="13.5316836"><ele>43.0</ele><time>2026-04-28T18:08:33.991Z</time></trkpt><trkpt lat="38.0818611" lon="13.5316174"><ele>43.0</ele><time>2026-04-28T18:08:34.991Z</time></trkpt><trkpt lat="38.0819913" lon="13.5315307"><ele>43.0</ele><time>2026-04-28T18:08:35.991Z</time></trkpt><trkpt lat="38.0821245" lon="13.5314393"><ele>43.0</ele><time>2026-04-28T18:08:36.991Z</time></trkpt><trkpt lat="38.0822783" lon="13.5313307"><ele>43.333333333333336</ele><time>2026-04-28T18:08:37.991Z</time></trkpt><trkpt lat="38.082451" lon="13.5312124"><ele>43.666666666666664</ele><time>2026-04-28T18:08:38.991Z</time></trkpt><trkpt lat="38.08263" lon="13.5310854"><ele>44.0</ele><time>2026-04-28T18:08:39.991Z</time></trkpt><trkpt lat="38.0828056" lon="13.5309491"><ele>44.0</ele><time>2026-04-28T18:08:40.991Z</time></trkpt><trkpt lat="38.0829667" lon="13.5308132"><ele>44.0</ele><time>2026-04-28T18:08:41.991Z</time></trkpt><trkpt lat="38.0831015" lon="13.530695"><ele>44.0</ele><time>2026-04-28T18:08:42.991Z</time></trkpt><trkpt lat="38.0832146" lon="13.530584"><ele>43.75</ele><time>2026-04-28T18:08:43.991Z</time></trkpt><trkpt lat="38.0833178" lon="13.5304783"><ele>43.5</ele><time>2026-04-28T18:08:44.99Z</time></trkpt><trkpt lat="38.0834187" lon="13.5303799"><ele>43.25</ele><time>2026-04-28T18:08:45.991Z</time></trkpt><trkpt lat="38.0835182" lon="13.5302778"><ele>43.0</ele><time>2026-04-28T18:08:46.99Z</time></trkpt><trkpt lat="38.083609" lon="13.5301862"><ele>43.0</ele><time>2026-04-28T18:08:47.991Z</time></trkpt><trkpt lat="38.0836978" lon="13.5301019"><ele>43.0</ele><time>2026-04-28T18:08:48.991Z</time></trkpt><trkpt lat="38.0837816" lon="13.5300202"><ele>43.0</ele><time>2026-04-28T18:08:49.991Z</time></trkpt><trkpt lat="38.0838673" lon="13.5299253"><ele>43.0</ele><time>2026-04-28T18:08:50.99Z</time></trkpt><trkpt lat="38.0839605" lon="13.5298167"><ele>43.0</ele><time>2026-04-28T18:08:51.991Z</time></trkpt><trkpt lat="38.0840462" lon="13.5296825"><ele>43.0</ele><time>2026-04-28T18:08:52.991Z</time></trkpt><trkpt lat="38.084128" lon="13.52953"><ele>43.0</ele><time>2026-04-28T18:08:53.991Z</time></trkpt><trkpt lat="38.0841944" lon="13.5293699"><ele>43.0</ele><time>2026-04-28T18:08:54.99Z</time></trkpt><trkpt lat="38.0842601" lon="13.529216"><ele>43.75</ele><time>2026-04-28T18:08:55.991Z</time></trkpt><trkpt lat="38.0843242" lon="13.5290708"><ele>44.5</ele><time>2026-04-28T18:08:56.991Z</time></trkpt><trkpt lat="38.0843946" lon="13.5289296"><ele>45.25</ele><time>2026-04-28T18:08:57.991Z</time></trkpt><trkpt lat="38.0844758" lon="13.5287863"><ele>46.0</ele><time>2026-04-28T18:08:58.991Z</time></trkpt><trkpt lat="38.0845692" lon="13.5286405"><ele>46.25</ele><time>2026-04-28T18:08:59.991Z</time></trkpt><trkpt lat="38.0846658" lon="13.5285117"><ele>46.5</ele><time>2026-04-28T18:09:00.991Z</time></trkpt><trkpt lat="38.0847513" lon="13.528391"><ele>46.75</ele><time>2026-04-28T18:09:01.991Z</time></trkpt><trkpt lat="38.0848363" lon="13.5282632"><ele>47.0</ele><time>2026-04-28T18:09:02.991Z</time></trkpt><trkpt lat="38.084931" lon="13.5281274"><ele>46.25</ele><time>2026-04-28T18:09:03.991Z</time></trkpt><trkpt lat="38.0850264" lon="13.5280011"><ele>45.5</ele><time>2026-04-28T18:09:04.991Z</time></trkpt><trkpt lat="38.0851152" lon="13.5278856"><ele>44.75</ele><time>2026-04-28T18:09:05.991Z</time></trkpt><trkpt lat="38.0852041" lon="13.5277647"><ele>44.0</ele><time>2026-04-28T18:09:06.991Z</time></trkpt><trkpt lat="38.0853007" lon="13.5276332"><ele>44.0</ele><time>2026-04-28T18:09:07.991Z</time></trkpt><trkpt lat="38.0854035" lon="13.5274945"><ele>44.0</ele><time>2026-04-28T18:09:08.99Z</time></trkpt><trkpt lat="38.0855056" lon="13.527362"><ele>44.0</ele><time>2026-04-28T18:09:09.99Z</time></trkpt><trkpt lat="38.085598" lon="13.527238"><ele>44.0</ele><time>2026-04-28T18:09:10.99Z</time></trkpt><trkpt lat="38.0856859" lon="13.5271289"><ele>43.5</ele><time>2026-04-28T18:09:11.991Z</time></trkpt><trkpt lat="38.0857695" lon="13.5270157"><ele>43.0</ele><time>2026-04-28T18:09:12.991Z</time></trkpt><trkpt lat="38.0858616" lon="13.5268853"><ele>42.5</ele><time>2026-04-28T18:09:13.991Z</time></trkpt><trkpt lat="38.0859628" lon="13.5267258"><ele>42.0</ele><time>2026-04-28T18:09:14.991Z</time></trkpt><trkpt lat="38.0860823" lon="13.5265546"><ele>42.0</ele><time>2026-04-28T18:09:15.991Z</time></trkpt><trkpt lat="38.0862346" lon="13.5263634"><ele>42.0</ele><time>2026-04-28T18:09:16.991Z</time></trkpt><trkpt lat="38.0864024" lon="13.5261426"><ele>44.0</ele><time>2026-04-28T18:09:17.991Z</time></trkpt><trkpt lat="38.0865822" lon="13.5259027"><ele>46.0</ele><time>2026-04-28T18:09:18.991Z</time></trkpt><trkpt lat="38.0867674" lon="13.5256581"><ele>46.5</ele><time>2026-04-28T18:09:19.991Z</time></trkpt><trkpt lat="38.0869651" lon="13.5254007"><ele>47.0</ele><time>2026-04-28T18:09:20.99Z</time></trkpt><trkpt lat="38.0871648" lon="13.5251361"><ele>48.0</ele><time>2026-04-28T18:09:21.991Z</time></trkpt><trkpt lat="38.0873661" lon="13.5248587"><ele>49.0</ele><time>2026-04-28T18:09:22.991Z</time></trkpt><trkpt lat="38.0875737" lon="13.5245769"><ele>49.0</ele><time>2026-04-28T18:09:23.991Z</time></trkpt><trkpt lat="38.0877904" lon="13.5242861"><ele>49.0</ele><time>2026-04-28T18:09:24.991Z</time></trkpt><trkpt lat="38.0880015" lon="13.5240044"><ele>49.0</ele><time>2026-04-28T18:09:25.991Z</time></trkpt><trkpt lat="38.0881941" lon="13.5237459"><ele>49.0</ele><time>2026-04-28T18:09:26.991Z</time></trkpt><trkpt lat="38.0883753" lon="13.5234974"><ele>50.5</ele><time>2026-04-28T18:09:27.99Z</time></trkpt><trkpt lat="38.0885435" lon="13.5232741"><ele>52.0</ele><time>2026-04-28T18:09:28.991Z</time></trkpt><trkpt lat="38.0886982" lon="13.5230582"><ele>52.0</ele><time>2026-04-28T18:09:29.991Z</time></trkpt><trkpt lat="38.0888508" lon="13.5228639"><ele>52.0</ele><time>2026-04-28T18:09:30.991Z</time></trkpt><trkpt lat="38.0889903" lon="13.5226769"><ele>52.0</ele><time>2026-04-28T18:09:31.99Z</time></trkpt><trkpt lat="38.0891084" lon="13.5224988"><ele>52.666666666666664</ele><time>2026-04-28T18:09:32.991Z</time></trkpt><trkpt lat="38.0892326" lon="13.5223308"><ele>53.33333333333333</ele><time>2026-04-28T18:09:33.99Z</time></trkpt><trkpt lat="38.0893612" lon="13.5221626"><ele>54.0</ele><time>2026-04-28T18:09:34.991Z</time></trkpt><trkpt lat="38.0894897" lon="13.5219938"><ele>54.0</ele><time>2026-04-28T18:09:35.99Z</time></trkpt><trkpt lat="38.0896165" lon="13.5218243"><ele>54.0</ele><time>2026-04-28T18:09:36.991Z</time></trkpt><trkpt lat="38.0897471" lon="13.5216409"><ele>54.0</ele><time>2026-04-28T18:09:37.991Z</time></trkpt><trkpt lat="38.0898789" lon="13.5214615"><ele>54.0</ele><time>2026-04-28T18:09:38.991Z</time></trkpt><trkpt lat="38.0900138" lon="13.5212703"><ele>54.0</ele><time>2026-04-28T18:09:39.991Z</time></trkpt><trkpt lat="38.0901539" lon="13.5210744"><ele>54.0</ele><time>2026-04-28T18:09:40.991Z</time></trkpt><trkpt lat="38.0902965" lon="13.5208638"><ele>53.5</ele><time>2026-04-28T18:09:41.991Z</time></trkpt><trkpt lat="38.0904398" lon="13.5206383"><ele>53.0</ele><time>2026-04-28T18:09:42.991Z</time></trkpt><trkpt lat="38.0905826" lon="13.520402"><ele>53.5</ele><time>2026-04-28T18:09:43.991Z</time></trkpt><trkpt lat="38.090724" lon="13.5201502"><ele>54.0</ele><time>2026-04-28T18:09:44.991Z</time></trkpt><trkpt lat="38.0908627" lon="13.51989"><ele>54.0</ele><time>2026-04-28T18:09:45.991Z</time></trkpt><trkpt lat="38.091" lon="13.5196258"><ele>54.0</ele><time>2026-04-28T18:09:46.991Z</time></trkpt><trkpt lat="38.0911296" lon="13.5193505"><ele>54.0</ele><time>2026-04-28T18:09:47.991Z</time></trkpt><trkpt lat="38.0912548" lon="13.5190675"><ele>54.0</ele><time>2026-04-28T18:09:48.991Z</time></trkpt><trkpt lat="38.0913658" lon="13.5187684"><ele>54.0</ele><time>2026-04-28T18:09:49.99Z</time></trkpt><trkpt lat="38.0914663" lon="13.518453"><ele>54.0</ele><time>2026-04-28T18:09:50.991Z</time></trkpt><trkpt lat="38.0915606" lon="13.5181284"><ele>55.5</ele><time>2026-04-28T18:09:51.991Z</time></trkpt><trkpt lat="38.0916489" lon="13.5177981"><ele>57.0</ele><time>2026-04-28T18:09:52.991Z</time></trkpt><trkpt lat="38.0917287" lon="13.5174578"><ele>57.0</ele><time>2026-04-28T18:09:53.991Z</time></trkpt><trkpt lat="38.0917985" lon="13.5171096"><ele>57.0</ele><time>2026-04-28T18:09:54.991Z</time></trkpt><trkpt lat="38.0918554" lon="13.5167541"><ele>55.5</ele><time>2026-04-28T18:09:55.99Z</time></trkpt><trkpt lat="38.0919044" lon="13.5163929"><ele>54.0</ele><time>2026-04-28T18:09:56.991Z</time></trkpt><trkpt lat="38.091944" lon="13.5160246"><ele>54.0</ele><time>2026-04-28T18:09:57.99Z</time></trkpt><trkpt lat="38.0919745" lon="13.5156552"><ele>54.0</ele><time>2026-04-28T18:09:58.991Z</time></trkpt><trkpt lat="38.0919877" lon="13.5152772"><ele>54.0</ele><time>2026-04-28T18:09:59.991Z</time></trkpt><trkpt lat="38.091984" lon="13.5148962"><ele>54.0</ele><time>2026-04-28T18:10:00.991Z</time></trkpt><trkpt lat="38.0919695" lon="13.5145181"><ele>53.5</ele><time>2026-04-28T18:10:01.991Z</time></trkpt><trkpt lat="38.0919475" lon="13.5141359"><ele>53.0</ele><time>2026-04-28T18:10:02.991Z</time></trkpt><trkpt lat="38.0919235" lon="13.5137567"><ele>53.5</ele><time>2026-04-28T18:10:03.991Z</time></trkpt><trkpt lat="38.0918981" lon="13.5133786"><ele>54.0</ele><time>2026-04-28T18:10:04.991Z</time></trkpt><trkpt lat="38.0918778" lon="13.5130004"><ele>53.0</ele><time>2026-04-28T18:10:05.99Z</time></trkpt><trkpt lat="38.091852" lon="13.512615"><ele>52.0</ele><time>2026-04-28T18:10:06.991Z</time></trkpt><trkpt lat="38.0918277" lon="13.5122267"><ele>51.5</ele><time>2026-04-28T18:10:07.99Z</time></trkpt><trkpt lat="38.0918094" lon="13.5118571"><ele>51.0</ele><time>2026-04-28T18:10:08.991Z</time></trkpt><trkpt lat="38.091804" lon="13.5115053"><ele>50.0</ele><time>2026-04-28T18:10:09.99Z</time></trkpt><trkpt lat="38.0917928" lon="13.5111692"><ele>49.0</ele><time>2026-04-28T18:10:10.991Z</time></trkpt><trkpt lat="38.0917798" lon="13.5108292"><ele>49.0</ele><time>2026-04-28T18:10:11.991Z</time></trkpt><trkpt lat="38.0917634" lon="13.5104845"><ele>49.0</ele><time>2026-04-28T18:10:12.991Z</time></trkpt><trkpt lat="38.0917481" lon="13.5101398"><ele>48.5</ele><time>2026-04-28T18:10:13.99Z</time></trkpt><trkpt lat="38.0917286" lon="13.5097948"><ele>48.0</ele><time>2026-04-28T18:10:14.991Z</time></trkpt><trkpt lat="38.0917104" lon="13.5094519"><ele>48.0</ele><time>2026-04-28T18:10:15.991Z</time></trkpt><trkpt lat="38.0916949" lon="13.5091125"><ele>48.0</ele><time>2026-04-28T18:10:16.991Z</time></trkpt><trkpt lat="38.0916798" lon="13.5087768"><ele>47.0</ele><time>2026-04-28T18:10:17.991Z</time></trkpt><trkpt lat="38.0916648" lon="13.508453"><ele>46.0</ele><time>2026-04-28T18:10:18.991Z</time></trkpt><trkpt lat="38.0916479" lon="13.5081472"><ele>44.5</ele><time>2026-04-28T18:10:19.991Z</time></trkpt><trkpt lat="38.0916303" lon="13.5078531"><ele>43.0</ele><time>2026-04-28T18:10:20.991Z</time></trkpt><trkpt lat="38.0916165" lon="13.5075733"><ele>43.0</ele><time>2026-04-28T18:10:21.991Z</time></trkpt><trkpt lat="38.0916012" lon="13.5073282"><ele>43.0</ele><time>2026-04-28T18:10:22.99Z</time></trkpt><trkpt lat="38.0915818" lon="13.5070983"><ele>43.0</ele><time>2026-04-28T18:10:23.99Z</time></trkpt><trkpt lat="38.0915489" lon="13.5068834"><ele>43.75</ele><time>2026-04-28T18:10:24.991Z</time></trkpt><trkpt lat="38.0914949" lon="13.5067018"><ele>44.5</ele><time>2026-04-28T18:10:25.99Z</time></trkpt><trkpt lat="38.0914158" lon="13.5065504"><ele>45.25</ele><time>2026-04-28T18:10:26.991Z</time></trkpt><trkpt lat="38.0913253" lon="13.5064291"><ele>46.0</ele><time>2026-04-28T18:10:27.991Z</time></trkpt><trkpt lat="38.0912291" lon="13.5063267"><ele>46.5</ele><time>2026-04-28T18:10:28.991Z</time></trkpt><trkpt lat="38.0911239" lon="13.5062279"><ele>47.0</ele><time>2026-04-28T18:10:29.991Z</time></trkpt><trkpt lat="38.091012" lon="13.5061415"><ele>47.5</ele><time>2026-04-28T18:10:30.991Z</time></trkpt><trkpt lat="38.0909015" lon="13.5060515"><ele>48.0</ele><time>2026-04-28T18:10:31.99Z</time></trkpt><trkpt lat="38.0907905" lon="13.5059696"><ele>49.0</ele><time>2026-04-28T18:10:32.991Z</time></trkpt><trkpt lat="38.09068" lon="13.5058791"><ele>50.0</ele><time>2026-04-28T18:10:33.991Z</time></trkpt><trkpt lat="38.0905679" lon="13.5057827"><ele>51.0</ele><time>2026-04-28T18:10:34.991Z</time></trkpt><trkpt lat="38.0904611" lon="13.5056891"><ele>52.0</ele><time>2026-04-28T18:10:35.991Z</time></trkpt><trkpt lat="38.0903557" lon="13.505597"><ele>52.0</ele><time>2026-04-28T18:10:36.99Z</time></trkpt><trkpt lat="38.0902636" lon="13.5055155"><ele>52.0</ele><time>2026-04-28T18:10:37.99Z</time></trkpt><trkpt lat="38.0901755" lon="13.5054447"><ele>52.0</ele><time>2026-04-28T18:10:38.991Z</time></trkpt><trkpt lat="38.0900998" lon="13.5053869"><ele>52.0</ele><time>2026-04-28T18:10:39.991Z</time></trkpt><trkpt lat="38.0900284" lon="13.5053372"><ele>52.0</ele><time>2026-04-28T18:10:40.991Z</time></trkpt><trkpt lat="38.0899656" lon="13.5052904"><ele>51.83333333333333</ele><time>2026-04-28T18:10:41.991Z</time></trkpt><trkpt lat="38.0898841" lon="13.5052051"><ele>51.666666666666664</ele><time>2026-04-28T18:10:43.991Z</time></trkpt><trkpt lat="38.0898964" lon="13.5051184"><ele>51.5</ele><time>2026-04-28T18:10:46.991Z</time></trkpt><trkpt lat="38.0899802" lon="13.5050988"><ele>51.33333333333333</ele><time>2026-04-28T18:10:48.991Z</time></trkpt><trkpt lat="38.0900472" lon="13.5050891"><ele>51.166666666666664</ele><time>2026-04-28T18:10:49.99Z</time></trkpt><trkpt lat="38.0901193" lon="13.5050827"><ele>51.0</ele><time>2026-04-28T18:10:50.991Z</time></trkpt><trkpt lat="38.0901969" lon="13.5050683"><ele>50.8</ele><time>2026-04-28T18:10:51.991Z</time></trkpt><trkpt lat="38.0902903" lon="13.5050553"><ele>50.599999999999994</ele><time>2026-04-28T18:10:52.991Z</time></trkpt><trkpt lat="38.0903856" lon="13.5050433"><ele>50.4</ele><time>2026-04-28T18:10:53.99Z</time></trkpt><trkpt lat="38.0904896" lon="13.5050255"><ele>50.2</ele><time>2026-04-28T18:10:54.991Z</time></trkpt><trkpt lat="38.0905929" lon="13.5050061"><ele>50.0</ele><time>2026-04-28T18:10:55.99Z</time></trkpt><trkpt lat="38.0907034" lon="13.5049964"><ele>49.5</ele><time>2026-04-28T18:10:56.991Z</time></trkpt><trkpt lat="38.0908245" lon="13.5049663"><ele>49.0</ele><time>2026-04-28T18:10:57.991Z</time></trkpt><trkpt lat="38.0909573" lon="13.5049442"><ele>48.5</ele><time>2026-04-28T18:10:58.991Z</time></trkpt><trkpt lat="38.0910884" lon="13.5049174"><ele>48.0</ele><time>2026-04-28T18:10:59.991Z</time></trkpt><trkpt lat="38.0912261" lon="13.5048902"><ele>48.0</ele><time>2026-04-28T18:11:00.991Z</time></trkpt><trkpt lat="38.0913601" lon="13.5048669"><ele>48.0</ele><time>2026-04-28T18:11:01.991Z</time></trkpt><trkpt lat="38.0914979" lon="13.5048378"><ele>48.0</ele><time>2026-04-28T18:11:02.991Z</time></trkpt><trkpt lat="38.0916344" lon="13.5048149"><ele>48.0</ele><time>2026-04-28T18:11:03.991Z</time></trkpt><trkpt lat="38.0917731" lon="13.5047972"><ele>46.5</ele><time>2026-04-28T18:11:04.991Z</time></trkpt><trkpt lat="38.0919147" lon="13.5047769"><ele>45.0</ele><time>2026-04-28T18:11:05.991Z</time></trkpt><trkpt lat="38.0920575" lon="13.5047505"><ele>43.5</ele><time>2026-04-28T18:11:06.991Z</time></trkpt><trkpt lat="38.0921883" lon="13.5047286"><ele>42.0</ele><time>2026-04-28T18:11:07.991Z</time></trkpt><trkpt lat="38.0923125" lon="13.5047067"><ele>41.8</ele><time>2026-04-28T18:11:08.991Z</time></trkpt><trkpt lat="38.0924307" lon="13.5046789"><ele>41.6</ele><time>2026-04-28T18:11:09.991Z</time></trkpt><trkpt lat="38.0925354" lon="13.5046548"><ele>41.4</ele><time>2026-04-28T18:11:10.991Z</time></trkpt><trkpt lat="38.092636" lon="13.5046398"><ele>41.199999999999996</ele><time>2026-04-28T18:11:11.991Z</time></trkpt><trkpt lat="38.0927371" lon="13.5046263"><ele>41.0</ele><time>2026-04-28T18:11:12.99Z</time></trkpt><trkpt lat="38.0928212" lon="13.5046187"><ele>41.0</ele><time>2026-04-28T18:11:13.991Z</time></trkpt><trkpt lat="38.0928964" lon="13.5046108"><ele>41.0</ele><time>2026-04-28T18:11:14.991Z</time></trkpt><trkpt lat="38.0929671" lon="13.5045521"><ele>41.0</ele><time>2026-04-28T18:11:16.991Z</time></trkpt></trkseg></trk></gpx>